<?xml version="1.0" encoding="UTF-8" standalone="no" ?>
<gpx xmlns="http://www.topografix.com/GPX/1/1" xmlns:xsi="http://www.w3.org/2001/XMLSchema-instance" xsi:schemaLocation="http://www.topografix.com/GPX/1/1 http://www.topografix.com/GPX/1/1/gpx.xsd" version="1.1" creator="VisuGPX - https://www.visugpx.com">
  <metadata>
    <name>Alpilles, Mont Menu et les Opies (3 crêtes)</name>
    <desc><![CDATA[1. Crête de Coste Ferre (Mont Menu), avec passage dans une grotte traversante.
2. Crête des Civadières.
3. Crête Ouest des Opies : éprouvante, trace difficile à suivre, contournement sous la falaise complexe vers la fin. On peut peut-être passer sur la crête rocheuse, au sommet des dalles très raides, mais ça a l'air très délicat.
Il vaut mieux remplacer la 3ème crête par le sentier juste au nord.

#enregistré #asptt-jeudi]]></desc>
  </metadata>
  <trk>
    <name><![CDATA[2026-04-16 08:41]]></name>
    <extensions>
      <line xmlns="http://www.topografix.com/GPX/gpx_style/0/2">
        <color>0000FF</color>
        <opacity>0.59</opacity>
        <width>6.0</width>
      </line>
    </extensions>
    <trkseg>
      <trkpt lat="43.69306" lon="5.0136">
        <ele>100.26</ele>
        <time>2026-04-16T06:41:24.433Z</time>
      </trkpt>
      <trkpt lat="43.69305" lon="5.01371">
        <ele>100.93</ele>
        <time>2026-04-16T06:41:29.447Z</time>
      </trkpt>
      <trkpt lat="43.69307" lon="5.01381">
        <ele>100.49</ele>
        <time>2026-04-16T06:41:34.859Z</time>
      </trkpt>
      <trkpt lat="43.69305" lon="5.01389">
        <ele>102.59</ele>
        <time>2026-04-16T06:41:40.319Z</time>
      </trkpt>
      <trkpt lat="43.69303" lon="5.01396">
        <ele>102.64</ele>
        <time>2026-04-16T06:41:45.561Z</time>
      </trkpt>
      <trkpt lat="43.69301" lon="5.01404">
        <ele>101.81</ele>
        <time>2026-04-16T06:41:50.582Z</time>
      </trkpt>
      <trkpt lat="43.693" lon="5.01414">
        <ele>102.21</ele>
        <time>2026-04-16T06:41:56.552Z</time>
      </trkpt>
      <trkpt lat="43.69298" lon="5.01421">
        <ele>102.75</ele>
        <time>2026-04-16T06:42:01.598Z</time>
      </trkpt>
      <trkpt lat="43.69295" lon="5.01429">
        <ele>102.36</ele>
        <time>2026-04-16T06:42:06.959Z</time>
      </trkpt>
      <trkpt lat="43.69292" lon="5.01437">
        <ele>101.98</ele>
        <time>2026-04-16T06:42:12.404Z</time>
      </trkpt>
      <trkpt lat="43.6929" lon="5.01443">
        <ele>103.46</ele>
        <time>2026-04-16T06:42:17.468Z</time>
      </trkpt>
      <trkpt lat="43.69286" lon="5.01449">
        <ele>103.6</ele>
        <time>2026-04-16T06:42:22.880Z</time>
      </trkpt>
      <trkpt lat="43.69281" lon="5.01456">
        <ele>103.02</ele>
        <time>2026-04-16T06:42:28.060Z</time>
      </trkpt>
      <trkpt lat="43.69279" lon="5.01463">
        <ele>103.28</ele>
        <time>2026-04-16T06:42:33.201Z</time>
      </trkpt>
      <trkpt lat="43.69277" lon="5.01469">
        <ele>104.02</ele>
        <time>2026-04-16T06:42:38.620Z</time>
      </trkpt>
      <trkpt lat="43.69276" lon="5.01468">
        <ele>103.12</ele>
        <time>2026-04-16T06:42:44.043Z</time>
      </trkpt>
      <trkpt lat="43.69275" lon="5.01468">
        <ele>102.66</ele>
        <time>2026-04-16T06:42:49.758Z</time>
      </trkpt>
      <trkpt lat="43.69275" lon="5.01467">
        <ele>102.54</ele>
        <time>2026-04-16T06:42:55.465Z</time>
      </trkpt>
      <trkpt lat="43.69275" lon="5.01468">
        <ele>104.23</ele>
        <time>2026-04-16T06:43:03.034Z</time>
      </trkpt>
      <trkpt lat="43.69276" lon="5.01481">
        <ele>103.8</ele>
        <time>2026-04-16T06:43:08.478Z</time>
      </trkpt>
      <trkpt lat="43.69276" lon="5.0149">
        <ele>103.55</ele>
        <time>2026-04-16T06:43:14.368Z</time>
      </trkpt>
      <trkpt lat="43.69277" lon="5.01493">
        <ele>104.99</ele>
        <time>2026-04-16T06:43:19.378Z</time>
      </trkpt>
      <trkpt lat="43.6928" lon="5.01489">
        <ele>104.92</ele>
        <time>2026-04-16T06:43:24.930Z</time>
      </trkpt>
      <trkpt lat="43.69285" lon="5.01486">
        <ele>104.91</ele>
        <time>2026-04-16T06:43:30.477Z</time>
      </trkpt>
      <trkpt lat="43.69292" lon="5.01486">
        <ele>106.83</ele>
        <time>2026-04-16T06:43:35.493Z</time>
      </trkpt>
      <trkpt lat="43.69296" lon="5.01484">
        <ele>107</ele>
        <time>2026-04-16T06:43:40.508Z</time>
      </trkpt>
      <trkpt lat="43.69301" lon="5.01481">
        <ele>107.16</ele>
        <time>2026-04-16T06:43:45.951Z</time>
      </trkpt>
      <trkpt lat="43.69305" lon="5.01476">
        <ele>107.84</ele>
        <time>2026-04-16T06:43:51.528Z</time>
      </trkpt>
      <trkpt lat="43.69307" lon="5.01471">
        <ele>108.17</ele>
        <time>2026-04-16T06:43:56.810Z</time>
      </trkpt>
      <trkpt lat="43.69311" lon="5.01464">
        <ele>109.26</ele>
        <time>2026-04-16T06:44:02.051Z</time>
      </trkpt>
      <trkpt lat="43.69316" lon="5.01456">
        <ele>108.45</ele>
        <time>2026-04-16T06:44:07.848Z</time>
      </trkpt>
      <trkpt lat="43.6932" lon="5.01451">
        <ele>106.89</ele>
        <time>2026-04-16T06:44:13.014Z</time>
      </trkpt>
      <trkpt lat="43.69324" lon="5.01446">
        <ele>106.62</ele>
        <time>2026-04-16T06:44:18.014Z</time>
      </trkpt>
      <trkpt lat="43.69328" lon="5.01439">
        <ele>106.45</ele>
        <time>2026-04-16T06:44:23.296Z</time>
      </trkpt>
      <trkpt lat="43.69332" lon="5.01432">
        <ele>106.62</ele>
        <time>2026-04-16T06:44:29.349Z</time>
      </trkpt>
      <trkpt lat="43.69339" lon="5.0143">
        <ele>106.42</ele>
        <time>2026-04-16T06:44:35.273Z</time>
      </trkpt>
      <trkpt lat="43.69345" lon="5.01429">
        <ele>106.63</ele>
        <time>2026-04-16T06:44:40.831Z</time>
      </trkpt>
      <trkpt lat="43.6935" lon="5.01424">
        <ele>106.37</ele>
        <time>2026-04-16T06:44:46.350Z</time>
      </trkpt>
      <trkpt lat="43.6935" lon="5.01421">
        <ele>107.17</ele>
        <time>2026-04-16T06:44:51.479Z</time>
      </trkpt>
      <trkpt lat="43.69351" lon="5.01422">
        <ele>108.08</ele>
        <time>2026-04-16T06:44:56.493Z</time>
      </trkpt>
      <trkpt lat="43.69353" lon="5.01421">
        <ele>107.31</ele>
        <time>2026-04-16T06:45:01.993Z</time>
      </trkpt>
      <trkpt lat="43.69358" lon="5.01414">
        <ele>106.4</ele>
        <time>2026-04-16T06:45:07.292Z</time>
      </trkpt>
      <trkpt lat="43.69361" lon="5.01406">
        <ele>107.06</ele>
        <time>2026-04-16T06:45:12.499Z</time>
      </trkpt>
      <trkpt lat="43.69364" lon="5.01397">
        <ele>107.35</ele>
        <time>2026-04-16T06:45:18.396Z</time>
      </trkpt>
      <trkpt lat="43.69368" lon="5.0139">
        <ele>106.28</ele>
        <time>2026-04-16T06:45:23.491Z</time>
      </trkpt>
      <trkpt lat="43.69374" lon="5.01388">
        <ele>106.07</ele>
        <time>2026-04-16T06:45:28.527Z</time>
      </trkpt>
      <trkpt lat="43.69381" lon="5.01388">
        <ele>106.12</ele>
        <time>2026-04-16T06:45:33.974Z</time>
      </trkpt>
      <trkpt lat="43.69386" lon="5.01387">
        <ele>107.72</ele>
        <time>2026-04-16T06:45:39.235Z</time>
      </trkpt>
      <trkpt lat="43.69393" lon="5.01388">
        <ele>109.23</ele>
        <time>2026-04-16T06:45:44.931Z</time>
      </trkpt>
      <trkpt lat="43.69396" lon="5.01393">
        <ele>107.92</ele>
        <time>2026-04-16T06:45:50.030Z</time>
      </trkpt>
      <trkpt lat="43.69399" lon="5.01394">
        <ele>108.67</ele>
        <time>2026-04-16T06:45:55.532Z</time>
      </trkpt>
      <trkpt lat="43.69406" lon="5.01393">
        <ele>108.89</ele>
        <time>2026-04-16T06:46:01.177Z</time>
      </trkpt>
      <trkpt lat="43.69408" lon="5.01398">
        <ele>109.15</ele>
        <time>2026-04-16T06:46:06.949Z</time>
      </trkpt>
      <trkpt lat="43.69409" lon="5.01401">
        <ele>109.67</ele>
        <time>2026-04-16T06:46:12.397Z</time>
      </trkpt>
      <trkpt lat="43.69415" lon="5.014">
        <ele>110.89</ele>
        <time>2026-04-16T06:46:18.336Z</time>
      </trkpt>
      <trkpt lat="43.6942" lon="5.01402">
        <ele>111.65</ele>
        <time>2026-04-16T06:46:23.372Z</time>
      </trkpt>
      <trkpt lat="43.69424" lon="5.01407">
        <ele>112.59</ele>
        <time>2026-04-16T06:46:28.472Z</time>
      </trkpt>
      <trkpt lat="43.69426" lon="5.0141">
        <ele>114.28</ele>
        <time>2026-04-16T06:46:33.552Z</time>
      </trkpt>
      <trkpt lat="43.69427" lon="5.01411">
        <ele>114.16</ele>
        <time>2026-04-16T06:46:46.441Z</time>
      </trkpt>
      <trkpt lat="43.69428" lon="5.01412">
        <ele>115.96</ele>
        <time>2026-04-16T06:46:52.191Z</time>
      </trkpt>
      <trkpt lat="43.69429" lon="5.01413">
        <ele>117.62</ele>
        <time>2026-04-16T06:46:57.808Z</time>
      </trkpt>
      <trkpt lat="43.69431" lon="5.01413">
        <ele>119.19</ele>
        <time>2026-04-16T06:47:03.470Z</time>
      </trkpt>
      <trkpt lat="43.69433" lon="5.01414">
        <ele>118.45</ele>
        <time>2026-04-16T06:47:08.485Z</time>
      </trkpt>
      <trkpt lat="43.69433" lon="5.01416">
        <ele>120.86</ele>
        <time>2026-04-16T06:47:17.188Z</time>
      </trkpt>
      <trkpt lat="43.69429" lon="5.0142">
        <ele>120.67</ele>
        <time>2026-04-16T06:47:22.996Z</time>
      </trkpt>
      <trkpt lat="43.69426" lon="5.01425">
        <ele>120.06</ele>
        <time>2026-04-16T06:47:28.031Z</time>
      </trkpt>
      <trkpt lat="43.69424" lon="5.01425">
        <ele>123.13</ele>
        <time>2026-04-16T06:47:35.479Z</time>
      </trkpt>
      <trkpt lat="43.69423" lon="5.01424">
        <ele>123.48</ele>
        <time>2026-04-16T06:47:51.230Z</time>
      </trkpt>
      <trkpt lat="43.69422" lon="5.01424">
        <ele>124.72</ele>
        <time>2026-04-16T06:47:56.255Z</time>
      </trkpt>
      <trkpt lat="43.69422" lon="5.01425">
        <ele>126.07</ele>
        <time>2026-04-16T06:48:01.515Z</time>
      </trkpt>
      <trkpt lat="43.6942" lon="5.01426">
        <ele>125.51</ele>
        <time>2026-04-16T06:48:06.567Z</time>
      </trkpt>
      <trkpt lat="43.69417" lon="5.01426">
        <ele>125.59</ele>
        <time>2026-04-16T06:48:12.271Z</time>
      </trkpt>
      <trkpt lat="43.69418" lon="5.01427">
        <ele>126.54</ele>
        <time>2026-04-16T06:48:23.504Z</time>
      </trkpt>
      <trkpt lat="43.69422" lon="5.01427">
        <ele>125.2</ele>
        <time>2026-04-16T06:48:29.497Z</time>
      </trkpt>
      <trkpt lat="43.69427" lon="5.01428">
        <ele>126.72</ele>
        <time>2026-04-16T06:48:34.603Z</time>
      </trkpt>
      <trkpt lat="43.69428" lon="5.01429">
        <ele>127.69</ele>
        <time>2026-04-16T06:48:40.192Z</time>
      </trkpt>
      <trkpt lat="43.69428" lon="5.01431">
        <ele>126.63</ele>
        <time>2026-04-16T06:48:45.942Z</time>
      </trkpt>
      <trkpt lat="43.69427" lon="5.01432">
        <ele>126.03</ele>
        <time>2026-04-16T06:48:51.584Z</time>
      </trkpt>
      <trkpt lat="43.69428" lon="5.01431">
        <ele>126.14</ele>
        <time>2026-04-16T06:48:56.748Z</time>
      </trkpt>
      <trkpt lat="43.69427" lon="5.0143">
        <ele>127.83</ele>
        <time>2026-04-16T06:49:02.302Z</time>
      </trkpt>
      <trkpt lat="43.69428" lon="5.0143">
        <ele>129.21</ele>
        <time>2026-04-16T06:49:07.481Z</time>
      </trkpt>
      <trkpt lat="43.69429" lon="5.01431">
        <ele>128.46</ele>
        <time>2026-04-16T06:49:15.485Z</time>
      </trkpt>
      <trkpt lat="43.69428" lon="5.01431">
        <ele>129.45</ele>
        <time>2026-04-16T06:49:25.514Z</time>
      </trkpt>
      <trkpt lat="43.69425" lon="5.0143">
        <ele>131.74</ele>
        <time>2026-04-16T06:49:31.139Z</time>
      </trkpt>
      <trkpt lat="43.69423" lon="5.01434">
        <ele>131.33</ele>
        <time>2026-04-16T06:49:36.398Z</time>
      </trkpt>
      <trkpt lat="43.69423" lon="5.01436">
        <ele>129.11</ele>
        <time>2026-04-16T06:49:41.528Z</time>
      </trkpt>
      <trkpt lat="43.69422" lon="5.01437">
        <ele>128.59</ele>
        <time>2026-04-16T06:49:49.424Z</time>
      </trkpt>
      <trkpt lat="43.6942" lon="5.01436">
        <ele>131.98</ele>
        <time>2026-04-16T06:49:54.499Z</time>
      </trkpt>
      <trkpt lat="43.69417" lon="5.01438">
        <ele>131.68</ele>
        <time>2026-04-16T06:50:00.242Z</time>
      </trkpt>
      <trkpt lat="43.69414" lon="5.01439">
        <ele>130.81</ele>
        <time>2026-04-16T06:50:05.320Z</time>
      </trkpt>
      <trkpt lat="43.6941" lon="5.01443">
        <ele>134.78</ele>
        <time>2026-04-16T06:50:10.444Z</time>
      </trkpt>
      <trkpt lat="43.69409" lon="5.01443">
        <ele>135.83</ele>
        <time>2026-04-16T06:50:17.487Z</time>
      </trkpt>
      <trkpt lat="43.69407" lon="5.01446">
        <ele>135.36</ele>
        <time>2026-04-16T06:50:22.503Z</time>
      </trkpt>
      <trkpt lat="43.69403" lon="5.01446">
        <ele>137.61</ele>
        <time>2026-04-16T06:50:28.091Z</time>
      </trkpt>
      <trkpt lat="43.69397" lon="5.01446">
        <ele>139.38</ele>
        <time>2026-04-16T06:50:34.002Z</time>
      </trkpt>
      <trkpt lat="43.69393" lon="5.01443">
        <ele>137.14</ele>
        <time>2026-04-16T06:51:08.391Z</time>
      </trkpt>
      <trkpt lat="43.69404" lon="5.01446">
        <ele>137.72</ele>
        <time>2026-04-16T06:51:13.391Z</time>
      </trkpt>
      <trkpt lat="43.69407" lon="5.01447">
        <ele>138.72</ele>
        <time>2026-04-16T06:51:18.951Z</time>
      </trkpt>
      <trkpt lat="43.69414" lon="5.01445">
        <ele>138.15</ele>
        <time>2026-04-16T06:51:24.494Z</time>
      </trkpt>
      <trkpt lat="43.69415" lon="5.01446">
        <ele>136.34</ele>
        <time>2026-04-16T06:51:30.508Z</time>
      </trkpt>
      <trkpt lat="43.69416" lon="5.01446">
        <ele>136.15</ele>
        <time>2026-04-16T06:51:43.542Z</time>
      </trkpt>
      <trkpt lat="43.69418" lon="5.01447">
        <ele>135.15</ele>
        <time>2026-04-16T06:51:48.805Z</time>
      </trkpt>
      <trkpt lat="43.69419" lon="5.01447">
        <ele>133.58</ele>
        <time>2026-04-16T06:51:56.503Z</time>
      </trkpt>
      <trkpt lat="43.6942" lon="5.01446">
        <ele>133.39</ele>
        <time>2026-04-16T06:52:01.516Z</time>
      </trkpt>
      <trkpt lat="43.69421" lon="5.01446">
        <ele>132</ele>
        <time>2026-04-16T06:52:12.369Z</time>
      </trkpt>
      <trkpt lat="43.69421" lon="5.01447">
        <ele>133.28</ele>
        <time>2026-04-16T06:52:25.401Z</time>
      </trkpt>
      <trkpt lat="43.69422" lon="5.01447">
        <ele>133.24</ele>
        <time>2026-04-16T06:52:30.566Z</time>
      </trkpt>
      <trkpt lat="43.69423" lon="5.01446">
        <ele>131.2</ele>
        <time>2026-04-16T06:52:36.512Z</time>
      </trkpt>
      <trkpt lat="43.69424" lon="5.01447">
        <ele>130.43</ele>
        <time>2026-04-16T06:53:00.184Z</time>
      </trkpt>
      <trkpt lat="43.69425" lon="5.01447">
        <ele>130.39</ele>
        <time>2026-04-16T06:53:05.531Z</time>
      </trkpt>
      <trkpt lat="43.69426" lon="5.01448">
        <ele>129.97</ele>
        <time>2026-04-16T06:53:11.193Z</time>
      </trkpt>
      <trkpt lat="43.69427" lon="5.01449">
        <ele>128.98</ele>
        <time>2026-04-16T06:53:18.549Z</time>
      </trkpt>
      <trkpt lat="43.69428" lon="5.0145">
        <ele>128.65</ele>
        <time>2026-04-16T06:53:23.986Z</time>
      </trkpt>
      <trkpt lat="43.69428" lon="5.01451">
        <ele>129.3</ele>
        <time>2026-04-16T06:53:32.164Z</time>
      </trkpt>
      <trkpt lat="43.69429" lon="5.01452">
        <ele>127.49</ele>
        <time>2026-04-16T06:53:37.540Z</time>
      </trkpt>
      <trkpt lat="43.6943" lon="5.01453">
        <ele>127.72</ele>
        <time>2026-04-16T06:53:45.541Z</time>
      </trkpt>
      <trkpt lat="43.69431" lon="5.01453">
        <ele>127.52</ele>
        <time>2026-04-16T06:53:51.515Z</time>
      </trkpt>
      <trkpt lat="43.69432" lon="5.01455">
        <ele>127.83</ele>
        <time>2026-04-16T06:53:57.271Z</time>
      </trkpt>
      <trkpt lat="43.69436" lon="5.01456">
        <ele>130.61</ele>
        <time>2026-04-16T06:54:02.398Z</time>
      </trkpt>
      <trkpt lat="43.69439" lon="5.01457">
        <ele>129.28</ele>
        <time>2026-04-16T06:54:07.412Z</time>
      </trkpt>
      <trkpt lat="43.6944" lon="5.01457">
        <ele>128.94</ele>
        <time>2026-04-16T06:54:12.533Z</time>
      </trkpt>
      <trkpt lat="43.69441" lon="5.01456">
        <ele>129.03</ele>
        <time>2026-04-16T06:54:17.549Z</time>
      </trkpt>
      <trkpt lat="43.69445" lon="5.01457">
        <ele>129.44</ele>
        <time>2026-04-16T06:54:22.998Z</time>
      </trkpt>
      <trkpt lat="43.6945" lon="5.01458">
        <ele>130.31</ele>
        <time>2026-04-16T06:54:28.373Z</time>
      </trkpt>
      <trkpt lat="43.69453" lon="5.01458">
        <ele>131.19</ele>
        <time>2026-04-16T06:54:33.413Z</time>
      </trkpt>
      <trkpt lat="43.69455" lon="5.01456">
        <ele>131.46</ele>
        <time>2026-04-16T06:54:38.827Z</time>
      </trkpt>
      <trkpt lat="43.69459" lon="5.01456">
        <ele>132.73</ele>
        <time>2026-04-16T06:54:44.411Z</time>
      </trkpt>
      <trkpt lat="43.69461" lon="5.01457">
        <ele>133.32</ele>
        <time>2026-04-16T06:54:50.289Z</time>
      </trkpt>
      <trkpt lat="43.69464" lon="5.01457">
        <ele>133.65</ele>
        <time>2026-04-16T06:54:55.953Z</time>
      </trkpt>
      <trkpt lat="43.69464" lon="5.01458">
        <ele>132.44</ele>
        <time>2026-04-16T06:55:01.505Z</time>
      </trkpt>
      <trkpt lat="43.69465" lon="5.01458">
        <ele>134.85</ele>
        <time>2026-04-16T06:55:09.731Z</time>
      </trkpt>
      <trkpt lat="43.69466" lon="5.01459">
        <ele>134.8</ele>
        <time>2026-04-16T06:55:17.227Z</time>
      </trkpt>
      <trkpt lat="43.69467" lon="5.01456">
        <ele>134.99</ele>
        <time>2026-04-16T06:55:22.417Z</time>
      </trkpt>
      <trkpt lat="43.69467" lon="5.01452">
        <ele>136.1</ele>
        <time>2026-04-16T06:55:27.431Z</time>
      </trkpt>
      <trkpt lat="43.69466" lon="5.01453">
        <ele>137.71</ele>
        <time>2026-04-16T06:55:32.446Z</time>
      </trkpt>
      <trkpt lat="43.69467" lon="5.01453">
        <ele>139.28</ele>
        <time>2026-04-16T06:55:38.548Z</time>
      </trkpt>
      <trkpt lat="43.69468" lon="5.01451">
        <ele>139.42</ele>
        <time>2026-04-16T06:55:44.370Z</time>
      </trkpt>
      <trkpt lat="43.69469" lon="5.01449">
        <ele>140.01</ele>
        <time>2026-04-16T06:55:49.517Z</time>
      </trkpt>
      <trkpt lat="43.69471" lon="5.01443">
        <ele>140.19</ele>
        <time>2026-04-16T06:55:54.552Z</time>
      </trkpt>
      <trkpt lat="43.69474" lon="5.01438">
        <ele>140.74</ele>
        <time>2026-04-16T06:56:00.186Z</time>
      </trkpt>
      <trkpt lat="43.69478" lon="5.01435">
        <ele>140.99</ele>
        <time>2026-04-16T06:56:05.405Z</time>
      </trkpt>
      <trkpt lat="43.69481" lon="5.01434">
        <ele>141.45</ele>
        <time>2026-04-16T06:56:10.545Z</time>
      </trkpt>
      <trkpt lat="43.69483" lon="5.01429">
        <ele>143.28</ele>
        <time>2026-04-16T06:56:15.846Z</time>
      </trkpt>
      <trkpt lat="43.69481" lon="5.01424">
        <ele>143.66</ele>
        <time>2026-04-16T06:56:20.939Z</time>
      </trkpt>
      <trkpt lat="43.69479" lon="5.01417">
        <ele>145.53</ele>
        <time>2026-04-16T06:56:26.539Z</time>
      </trkpt>
      <trkpt lat="43.69479" lon="5.01411">
        <ele>147.8</ele>
        <time>2026-04-16T06:56:32.317Z</time>
      </trkpt>
      <trkpt lat="43.69479" lon="5.01413">
        <ele>147.22</ele>
        <time>2026-04-16T06:56:37.746Z</time>
      </trkpt>
      <trkpt lat="43.69479" lon="5.01412">
        <ele>147.29</ele>
        <time>2026-04-16T06:56:43.225Z</time>
      </trkpt>
      <trkpt lat="43.69478" lon="5.01408">
        <ele>147.8</ele>
        <time>2026-04-16T06:56:48.263Z</time>
      </trkpt>
      <trkpt lat="43.69477" lon="5.014">
        <ele>148.35</ele>
        <time>2026-04-16T06:56:53.550Z</time>
      </trkpt>
      <trkpt lat="43.69477" lon="5.01397">
        <ele>148.73</ele>
        <time>2026-04-16T06:56:59.227Z</time>
      </trkpt>
      <trkpt lat="43.69478" lon="5.01392">
        <ele>150.75</ele>
        <time>2026-04-16T06:57:04.539Z</time>
      </trkpt>
      <trkpt lat="43.69477" lon="5.01386">
        <ele>150.23</ele>
        <time>2026-04-16T06:57:10.144Z</time>
      </trkpt>
      <trkpt lat="43.69477" lon="5.0138">
        <ele>150.61</ele>
        <time>2026-04-16T06:57:15.460Z</time>
      </trkpt>
      <trkpt lat="43.69476" lon="5.01377">
        <ele>151.77</ele>
        <time>2026-04-16T06:57:20.542Z</time>
      </trkpt>
      <trkpt lat="43.69477" lon="5.01374">
        <ele>152.75</ele>
        <time>2026-04-16T06:57:25.557Z</time>
      </trkpt>
      <trkpt lat="43.69478" lon="5.01371">
        <ele>153.13</ele>
        <time>2026-04-16T06:57:31.481Z</time>
      </trkpt>
      <trkpt lat="43.69478" lon="5.01369">
        <ele>154.93</ele>
        <time>2026-04-16T06:57:37.186Z</time>
      </trkpt>
      <trkpt lat="43.69479" lon="5.01364">
        <ele>155.62</ele>
        <time>2026-04-16T06:57:42.521Z</time>
      </trkpt>
      <trkpt lat="43.6948" lon="5.01359">
        <ele>157.43</ele>
        <time>2026-04-16T06:57:47.563Z</time>
      </trkpt>
      <trkpt lat="43.6948" lon="5.01354">
        <ele>156.54</ele>
        <time>2026-04-16T06:57:53.519Z</time>
      </trkpt>
      <trkpt lat="43.6948" lon="5.01346">
        <ele>156.81</ele>
        <time>2026-04-16T06:57:58.524Z</time>
      </trkpt>
      <trkpt lat="43.69479" lon="5.01341">
        <ele>158.6</ele>
        <time>2026-04-16T06:58:03.539Z</time>
      </trkpt>
      <trkpt lat="43.6948" lon="5.0134">
        <ele>161</ele>
        <time>2026-04-16T06:58:17.533Z</time>
      </trkpt>
      <trkpt lat="43.69482" lon="5.01337">
        <ele>161.39</ele>
        <time>2026-04-16T06:58:23.085Z</time>
      </trkpt>
      <trkpt lat="43.69482" lon="5.01336">
        <ele>161.86</ele>
        <time>2026-04-16T06:58:28.540Z</time>
      </trkpt>
      <trkpt lat="43.69483" lon="5.01334">
        <ele>162.08</ele>
        <time>2026-04-16T06:58:42.387Z</time>
      </trkpt>
      <trkpt lat="43.69483" lon="5.01334">
        <ele>161.89</ele>
        <time>2026-04-16T06:58:58.071Z</time>
      </trkpt>
      <trkpt lat="43.69484" lon="5.01333">
        <ele>161.68</ele>
        <time>2026-04-16T06:59:03.436Z</time>
      </trkpt>
      <trkpt lat="43.69485" lon="5.01333">
        <ele>161.56</ele>
        <time>2026-04-16T06:59:08.464Z</time>
      </trkpt>
      <trkpt lat="43.69486" lon="5.01333">
        <ele>162.18</ele>
        <time>2026-04-16T06:59:35.198Z</time>
      </trkpt>
      <trkpt lat="43.6949" lon="5.01333">
        <ele>160.64</ele>
        <time>2026-04-16T06:59:40.199Z</time>
      </trkpt>
      <trkpt lat="43.69492" lon="5.01335">
        <ele>160.04</ele>
        <time>2026-04-16T06:59:45.518Z</time>
      </trkpt>
      <trkpt lat="43.69498" lon="5.01337">
        <ele>160.84</ele>
        <time>2026-04-16T06:59:50.894Z</time>
      </trkpt>
      <trkpt lat="43.69506" lon="5.01338">
        <ele>161.12</ele>
        <time>2026-04-16T06:59:56.272Z</time>
      </trkpt>
      <trkpt lat="43.69511" lon="5.01335">
        <ele>161.59</ele>
        <time>2026-04-16T07:00:01.694Z</time>
      </trkpt>
      <trkpt lat="43.69513" lon="5.0133">
        <ele>162.02</ele>
        <time>2026-04-16T07:00:07.189Z</time>
      </trkpt>
      <trkpt lat="43.69515" lon="5.01326">
        <ele>162.67</ele>
        <time>2026-04-16T07:00:12.513Z</time>
      </trkpt>
      <trkpt lat="43.69516" lon="5.01324">
        <ele>164.07</ele>
        <time>2026-04-16T07:00:17.527Z</time>
      </trkpt>
      <trkpt lat="43.69519" lon="5.01321">
        <ele>165.16</ele>
        <time>2026-04-16T07:00:23.035Z</time>
      </trkpt>
      <trkpt lat="43.69523" lon="5.01318">
        <ele>166.87</ele>
        <time>2026-04-16T07:00:28.517Z</time>
      </trkpt>
      <trkpt lat="43.69527" lon="5.01317">
        <ele>167.15</ele>
        <time>2026-04-16T07:00:34.492Z</time>
      </trkpt>
      <trkpt lat="43.69528" lon="5.01319">
        <ele>168</ele>
        <time>2026-04-16T07:00:40.215Z</time>
      </trkpt>
      <trkpt lat="43.69532" lon="5.01315">
        <ele>168.65</ele>
        <time>2026-04-16T07:00:45.481Z</time>
      </trkpt>
      <trkpt lat="43.69534" lon="5.01314">
        <ele>169.4</ele>
        <time>2026-04-16T07:00:50.496Z</time>
      </trkpt>
      <trkpt lat="43.69538" lon="5.01314">
        <ele>170.24</ele>
        <time>2026-04-16T07:00:56.257Z</time>
      </trkpt>
      <trkpt lat="43.69543" lon="5.01312">
        <ele>171.07</ele>
        <time>2026-04-16T07:01:01.484Z</time>
      </trkpt>
      <trkpt lat="43.69544" lon="5.01308">
        <ele>171.76</ele>
        <time>2026-04-16T07:01:06.511Z</time>
      </trkpt>
      <trkpt lat="43.69546" lon="5.01308">
        <ele>172.34</ele>
        <time>2026-04-16T07:01:11.916Z</time>
      </trkpt>
      <trkpt lat="43.69549" lon="5.01304">
        <ele>173.56</ele>
        <time>2026-04-16T07:01:17.362Z</time>
      </trkpt>
      <trkpt lat="43.6955" lon="5.013">
        <ele>174.4</ele>
        <time>2026-04-16T07:01:23.536Z</time>
      </trkpt>
      <trkpt lat="43.69552" lon="5.01296">
        <ele>175.46</ele>
        <time>2026-04-16T07:01:29.026Z</time>
      </trkpt>
      <trkpt lat="43.69552" lon="5.01294">
        <ele>177.5</ele>
        <time>2026-04-16T07:01:36.597Z</time>
      </trkpt>
      <trkpt lat="43.69553" lon="5.01294">
        <ele>177.5</ele>
        <time>2026-04-16T07:01:43.508Z</time>
      </trkpt>
      <trkpt lat="43.69554" lon="5.01293">
        <ele>177.68</ele>
        <time>2026-04-16T07:01:57.220Z</time>
      </trkpt>
      <trkpt lat="43.69555" lon="5.01293">
        <ele>177.82</ele>
        <time>2026-04-16T07:02:18.528Z</time>
      </trkpt>
      <trkpt lat="43.69556" lon="5.01294">
        <ele>177.92</ele>
        <time>2026-04-16T07:02:38.478Z</time>
      </trkpt>
      <trkpt lat="43.69556" lon="5.01294">
        <ele>178.14</ele>
        <time>2026-04-16T07:02:44.453Z</time>
      </trkpt>
      <trkpt lat="43.69562" lon="5.01294">
        <ele>178.25</ele>
        <time>2026-04-16T07:02:50.165Z</time>
      </trkpt>
      <trkpt lat="43.69567" lon="5.01293">
        <ele>179.54</ele>
        <time>2026-04-16T07:02:55.386Z</time>
      </trkpt>
      <trkpt lat="43.69571" lon="5.01289">
        <ele>179.96</ele>
        <time>2026-04-16T07:03:00.565Z</time>
      </trkpt>
      <trkpt lat="43.69573" lon="5.01283">
        <ele>181.24</ele>
        <time>2026-04-16T07:03:06.460Z</time>
      </trkpt>
      <trkpt lat="43.69574" lon="5.01278">
        <ele>182.77</ele>
        <time>2026-04-16T07:03:12.122Z</time>
      </trkpt>
      <trkpt lat="43.69575" lon="5.01277">
        <ele>183.51</ele>
        <time>2026-04-16T07:03:17.556Z</time>
      </trkpt>
      <trkpt lat="43.69577" lon="5.01274">
        <ele>184.36</ele>
        <time>2026-04-16T07:03:23.531Z</time>
      </trkpt>
      <trkpt lat="43.69579" lon="5.01275">
        <ele>184.62</ele>
        <time>2026-04-16T07:03:29.285Z</time>
      </trkpt>
      <trkpt lat="43.6958" lon="5.01275">
        <ele>187</ele>
        <time>2026-04-16T07:03:34.524Z</time>
      </trkpt>
      <trkpt lat="43.69582" lon="5.01275">
        <ele>186.44</ele>
        <time>2026-04-16T07:03:40.021Z</time>
      </trkpt>
      <trkpt lat="43.69587" lon="5.01278">
        <ele>185.87</ele>
        <time>2026-04-16T07:03:45.515Z</time>
      </trkpt>
      <trkpt lat="43.69593" lon="5.0128">
        <ele>186.96</ele>
        <time>2026-04-16T07:03:50.962Z</time>
      </trkpt>
      <trkpt lat="43.69596" lon="5.01278">
        <ele>187.14</ele>
        <time>2026-04-16T07:03:56.506Z</time>
      </trkpt>
      <trkpt lat="43.696" lon="5.0128">
        <ele>187.15</ele>
        <time>2026-04-16T07:04:01.922Z</time>
      </trkpt>
      <trkpt lat="43.69604" lon="5.0128">
        <ele>187.19</ele>
        <time>2026-04-16T07:04:07.107Z</time>
      </trkpt>
      <trkpt lat="43.69609" lon="5.01281">
        <ele>187.1</ele>
        <time>2026-04-16T07:04:12.512Z</time>
      </trkpt>
      <trkpt lat="43.69612" lon="5.01278">
        <ele>190.24</ele>
        <time>2026-04-16T07:04:17.527Z</time>
      </trkpt>
      <trkpt lat="43.69613" lon="5.01281">
        <ele>189.78</ele>
        <time>2026-04-16T07:04:23.503Z</time>
      </trkpt>
      <trkpt lat="43.69615" lon="5.01281">
        <ele>189.25</ele>
        <time>2026-04-16T07:04:28.983Z</time>
      </trkpt>
      <trkpt lat="43.69616" lon="5.01281">
        <ele>190.27</ele>
        <time>2026-04-16T07:04:38.439Z</time>
      </trkpt>
      <trkpt lat="43.69616" lon="5.0128">
        <ele>188.83</ele>
        <time>2026-04-16T07:05:04.582Z</time>
      </trkpt>
      <trkpt lat="43.69618" lon="5.01282">
        <ele>187.41</ele>
        <time>2026-04-16T07:05:20.274Z</time>
      </trkpt>
      <trkpt lat="43.69614" lon="5.01287">
        <ele>187.42</ele>
        <time>2026-04-16T07:05:25.276Z</time>
      </trkpt>
      <trkpt lat="43.69606" lon="5.0129">
        <ele>189.5</ele>
        <time>2026-04-16T07:05:30.292Z</time>
      </trkpt>
      <trkpt lat="43.696" lon="5.01289">
        <ele>195.42</ele>
        <time>2026-04-16T07:05:35.480Z</time>
      </trkpt>
      <trkpt lat="43.69596" lon="5.01292">
        <ele>188.39</ele>
        <time>2026-04-16T07:05:40.542Z</time>
      </trkpt>
      <trkpt lat="43.69595" lon="5.01294">
        <ele>188.38</ele>
        <time>2026-04-16T07:05:45.917Z</time>
      </trkpt>
      <trkpt lat="43.69593" lon="5.01301">
        <ele>192.08</ele>
        <time>2026-04-16T07:05:51.533Z</time>
      </trkpt>
      <trkpt lat="43.69591" lon="5.0131">
        <ele>193.23</ele>
        <time>2026-04-16T07:05:56.548Z</time>
      </trkpt>
      <trkpt lat="43.69594" lon="5.01316">
        <ele>199.33</ele>
        <time>2026-04-16T07:06:01.574Z</time>
      </trkpt>
      <trkpt lat="43.69628" lon="5.01266">
        <ele>198.45</ele>
        <time>2026-04-16T07:06:07.151Z</time>
      </trkpt>
      <trkpt lat="43.69642" lon="5.01262">
        <ele>201.26</ele>
        <time>2026-04-16T07:06:12.552Z</time>
      </trkpt>
      <trkpt lat="43.69644" lon="5.01262">
        <ele>199.52</ele>
        <time>2026-04-16T07:06:17.568Z</time>
      </trkpt>
      <trkpt lat="43.6965" lon="5.01263">
        <ele>199.12</ele>
        <time>2026-04-16T07:06:23.542Z</time>
      </trkpt>
      <trkpt lat="43.69657" lon="5.01263">
        <ele>199.13</ele>
        <time>2026-04-16T07:06:28.828Z</time>
      </trkpt>
      <trkpt lat="43.6966" lon="5.01257">
        <ele>198.19</ele>
        <time>2026-04-16T07:06:34.030Z</time>
      </trkpt>
      <trkpt lat="43.69664" lon="5.01256">
        <ele>199.5</ele>
        <time>2026-04-16T07:06:39.410Z</time>
      </trkpt>
      <trkpt lat="43.69667" lon="5.01255">
        <ele>198.71</ele>
        <time>2026-04-16T07:06:44.879Z</time>
      </trkpt>
      <trkpt lat="43.69671" lon="5.01252">
        <ele>197.82</ele>
        <time>2026-04-16T07:06:50.022Z</time>
      </trkpt>
      <trkpt lat="43.69676" lon="5.01251">
        <ele>198.14</ele>
        <time>2026-04-16T07:06:55.537Z</time>
      </trkpt>
      <trkpt lat="43.69681" lon="5.01253">
        <ele>197.66</ele>
        <time>2026-04-16T07:07:01.547Z</time>
      </trkpt>
      <trkpt lat="43.69686" lon="5.01253">
        <ele>203.66</ele>
        <time>2026-04-16T07:07:06.562Z</time>
      </trkpt>
      <trkpt lat="43.69694" lon="5.01256">
        <ele>202.87</ele>
        <time>2026-04-16T07:07:12.566Z</time>
      </trkpt>
      <trkpt lat="43.69702" lon="5.01255">
        <ele>199.17</ele>
        <time>2026-04-16T07:07:18.513Z</time>
      </trkpt>
      <trkpt lat="43.69707" lon="5.01254">
        <ele>196.95</ele>
        <time>2026-04-16T07:07:24.086Z</time>
      </trkpt>
      <trkpt lat="43.69712" lon="5.01253">
        <ele>197.75</ele>
        <time>2026-04-16T07:07:29.257Z</time>
      </trkpt>
      <trkpt lat="43.69717" lon="5.01252">
        <ele>194.54</ele>
        <time>2026-04-16T07:07:34.282Z</time>
      </trkpt>
      <trkpt lat="43.69718" lon="5.01249">
        <ele>196.32</ele>
        <time>2026-04-16T07:07:39.533Z</time>
      </trkpt>
      <trkpt lat="43.69717" lon="5.01247">
        <ele>193.45</ele>
        <time>2026-04-16T07:07:45.105Z</time>
      </trkpt>
      <trkpt lat="43.69718" lon="5.01247">
        <ele>207.3</ele>
        <time>2026-04-16T07:07:55.349Z</time>
      </trkpt>
      <trkpt lat="43.69719" lon="5.01246">
        <ele>204.99</ele>
        <time>2026-04-16T07:08:00.553Z</time>
      </trkpt>
      <trkpt lat="43.6972" lon="5.01246">
        <ele>202.77</ele>
        <time>2026-04-16T07:08:06.528Z</time>
      </trkpt>
      <trkpt lat="43.69722" lon="5.01243">
        <ele>202.74</ele>
        <time>2026-04-16T07:08:12.161Z</time>
      </trkpt>
      <trkpt lat="43.69726" lon="5.0124">
        <ele>206.05</ele>
        <time>2026-04-16T07:08:17.458Z</time>
      </trkpt>
      <trkpt lat="43.69731" lon="5.01236">
        <ele>203.8</ele>
        <time>2026-04-16T07:08:22.563Z</time>
      </trkpt>
      <trkpt lat="43.69737" lon="5.01233">
        <ele>204.64</ele>
        <time>2026-04-16T07:08:28.509Z</time>
      </trkpt>
      <trkpt lat="43.69741" lon="5.0123">
        <ele>205.98</ele>
        <time>2026-04-16T07:08:33.945Z</time>
      </trkpt>
      <trkpt lat="43.69742" lon="5.0123">
        <ele>203.26</ele>
        <time>2026-04-16T07:08:43.455Z</time>
      </trkpt>
      <trkpt lat="43.69743" lon="5.0123">
        <ele>207.38</ele>
        <time>2026-04-16T07:08:50.499Z</time>
      </trkpt>
      <trkpt lat="43.69744" lon="5.01229">
        <ele>207.32</ele>
        <time>2026-04-16T07:08:56.565Z</time>
      </trkpt>
      <trkpt lat="43.69746" lon="5.0123">
        <ele>207.12</ele>
        <time>2026-04-16T07:09:02.556Z</time>
      </trkpt>
      <trkpt lat="43.69747" lon="5.0123">
        <ele>204.09</ele>
        <time>2026-04-16T07:09:07.832Z</time>
      </trkpt>
      <trkpt lat="43.69748" lon="5.01228">
        <ele>203.42</ele>
        <time>2026-04-16T07:09:13.546Z</time>
      </trkpt>
      <trkpt lat="43.69749" lon="5.01229">
        <ele>207.18</ele>
        <time>2026-04-16T07:09:18.561Z</time>
      </trkpt>
      <trkpt lat="43.6975" lon="5.01229">
        <ele>203.33</ele>
        <time>2026-04-16T07:09:24.505Z</time>
      </trkpt>
      <trkpt lat="43.69751" lon="5.01228">
        <ele>202.33</ele>
        <time>2026-04-16T07:09:29.552Z</time>
      </trkpt>
      <trkpt lat="43.69752" lon="5.01228">
        <ele>201.91</ele>
        <time>2026-04-16T07:09:34.566Z</time>
      </trkpt>
      <trkpt lat="43.69753" lon="5.01228">
        <ele>200.07</ele>
        <time>2026-04-16T07:09:46.564Z</time>
      </trkpt>
      <trkpt lat="43.69754" lon="5.01228">
        <ele>202.09</ele>
        <time>2026-04-16T07:09:56.585Z</time>
      </trkpt>
      <trkpt lat="43.69755" lon="5.01227">
        <ele>206.25</ele>
        <time>2026-04-16T07:10:01.887Z</time>
      </trkpt>
      <trkpt lat="43.69756" lon="5.01227">
        <ele>204.62</ele>
        <time>2026-04-16T07:10:11.495Z</time>
      </trkpt>
      <trkpt lat="43.69757" lon="5.01227">
        <ele>203.5</ele>
        <time>2026-04-16T07:10:22.485Z</time>
      </trkpt>
      <trkpt lat="43.69758" lon="5.01226">
        <ele>204.86</ele>
        <time>2026-04-16T07:10:32.526Z</time>
      </trkpt>
      <trkpt lat="43.69758" lon="5.01225">
        <ele>204.79</ele>
        <time>2026-04-16T07:10:58.460Z</time>
      </trkpt>
      <trkpt lat="43.69759" lon="5.01225">
        <ele>207.16</ele>
        <time>2026-04-16T07:11:16.494Z</time>
      </trkpt>
      <trkpt lat="43.6976" lon="5.01224">
        <ele>205.9</ele>
        <time>2026-04-16T07:11:22.256Z</time>
      </trkpt>
      <trkpt lat="43.69759" lon="5.01224">
        <ele>205.8</ele>
        <time>2026-04-16T07:11:39.846Z</time>
      </trkpt>
      <trkpt lat="43.6976" lon="5.01225">
        <ele>203.04</ele>
        <time>2026-04-16T07:11:48.639Z</time>
      </trkpt>
      <trkpt lat="43.69764" lon="5.01226">
        <ele>202.54</ele>
        <time>2026-04-16T07:11:53.701Z</time>
      </trkpt>
      <trkpt lat="43.6977" lon="5.01224">
        <ele>201.72</ele>
        <time>2026-04-16T07:11:58.867Z</time>
      </trkpt>
      <trkpt lat="43.69773" lon="5.01221">
        <ele>202.32</ele>
        <time>2026-04-16T07:12:04.086Z</time>
      </trkpt>
      <trkpt lat="43.69777" lon="5.01218">
        <ele>203.41</ele>
        <time>2026-04-16T07:12:09.346Z</time>
      </trkpt>
      <trkpt lat="43.6978" lon="5.01217">
        <ele>202.87</ele>
        <time>2026-04-16T07:12:14.548Z</time>
      </trkpt>
      <trkpt lat="43.69786" lon="5.01217">
        <ele>202.05</ele>
        <time>2026-04-16T07:12:20.018Z</time>
      </trkpt>
      <trkpt lat="43.6979" lon="5.01218">
        <ele>201.5</ele>
        <time>2026-04-16T07:12:25.160Z</time>
      </trkpt>
      <trkpt lat="43.69793" lon="5.01215">
        <ele>201.1</ele>
        <time>2026-04-16T07:12:30.487Z</time>
      </trkpt>
      <trkpt lat="43.69798" lon="5.01214">
        <ele>201.28</ele>
        <time>2026-04-16T07:12:35.569Z</time>
      </trkpt>
      <trkpt lat="43.69798" lon="5.01213">
        <ele>199.92</ele>
        <time>2026-04-16T07:12:40.585Z</time>
      </trkpt>
      <trkpt lat="43.69796" lon="5.01213">
        <ele>199.45</ele>
        <time>2026-04-16T07:12:46.240Z</time>
      </trkpt>
      <trkpt lat="43.69795" lon="5.01212">
        <ele>200.3</ele>
        <time>2026-04-16T07:12:51.468Z</time>
      </trkpt>
      <trkpt lat="43.69794" lon="5.01212">
        <ele>200.69</ele>
        <time>2026-04-16T07:12:56.567Z</time>
      </trkpt>
      <trkpt lat="43.69795" lon="5.01216">
        <ele>200.59</ele>
        <time>2026-04-16T07:13:02.319Z</time>
      </trkpt>
      <trkpt lat="43.69799" lon="5.0122">
        <ele>199.81</ele>
        <time>2026-04-16T07:13:07.474Z</time>
      </trkpt>
      <trkpt lat="43.69804" lon="5.01221">
        <ele>199.5</ele>
        <time>2026-04-16T07:13:13.160Z</time>
      </trkpt>
      <trkpt lat="43.69808" lon="5.01225">
        <ele>200.1</ele>
        <time>2026-04-16T07:13:18.422Z</time>
      </trkpt>
      <trkpt lat="43.69812" lon="5.01227">
        <ele>197.99</ele>
        <time>2026-04-16T07:13:23.463Z</time>
      </trkpt>
      <trkpt lat="43.69815" lon="5.0123">
        <ele>195.82</ele>
        <time>2026-04-16T07:13:28.494Z</time>
      </trkpt>
      <trkpt lat="43.69817" lon="5.01231">
        <ele>194.27</ele>
        <time>2026-04-16T07:13:33.505Z</time>
      </trkpt>
      <trkpt lat="43.6982" lon="5.01233">
        <ele>192.94</ele>
        <time>2026-04-16T07:13:38.549Z</time>
      </trkpt>
      <trkpt lat="43.6982" lon="5.01235">
        <ele>191.46</ele>
        <time>2026-04-16T07:13:44.122Z</time>
      </trkpt>
      <trkpt lat="43.69821" lon="5.01235">
        <ele>189.5</ele>
        <time>2026-04-16T07:13:55.324Z</time>
      </trkpt>
      <trkpt lat="43.69826" lon="5.01239">
        <ele>188.72</ele>
        <time>2026-04-16T07:14:00.505Z</time>
      </trkpt>
      <trkpt lat="43.69828" lon="5.01246">
        <ele>187.52</ele>
        <time>2026-04-16T07:14:05.843Z</time>
      </trkpt>
      <trkpt lat="43.69829" lon="5.01251">
        <ele>186.03</ele>
        <time>2026-04-16T07:14:11.400Z</time>
      </trkpt>
      <trkpt lat="43.69833" lon="5.01254">
        <ele>184.76</ele>
        <time>2026-04-16T07:14:17.387Z</time>
      </trkpt>
      <trkpt lat="43.69836" lon="5.0125">
        <ele>185.03</ele>
        <time>2026-04-16T07:14:23.121Z</time>
      </trkpt>
      <trkpt lat="43.69842" lon="5.01253">
        <ele>184.56</ele>
        <time>2026-04-16T07:14:28.566Z</time>
      </trkpt>
      <trkpt lat="43.69846" lon="5.0126">
        <ele>183.68</ele>
        <time>2026-04-16T07:14:33.942Z</time>
      </trkpt>
      <trkpt lat="43.69849" lon="5.01268">
        <ele>182.43</ele>
        <time>2026-04-16T07:14:39.273Z</time>
      </trkpt>
      <trkpt lat="43.69854" lon="5.01273">
        <ele>181.94</ele>
        <time>2026-04-16T07:14:44.572Z</time>
      </trkpt>
      <trkpt lat="43.69857" lon="5.01275">
        <ele>181.73</ele>
        <time>2026-04-16T07:14:50.442Z</time>
      </trkpt>
      <trkpt lat="43.69857" lon="5.01278">
        <ele>180.3</ele>
        <time>2026-04-16T07:14:55.482Z</time>
      </trkpt>
      <trkpt lat="43.69863" lon="5.01289">
        <ele>180.17</ele>
        <time>2026-04-16T07:15:00.891Z</time>
      </trkpt>
      <trkpt lat="43.69863" lon="5.01298">
        <ele>182.93</ele>
        <time>2026-04-16T07:15:06.076Z</time>
      </trkpt>
      <trkpt lat="43.69867" lon="5.01304">
        <ele>182.56</ele>
        <time>2026-04-16T07:15:11.250Z</time>
      </trkpt>
      <trkpt lat="43.6987" lon="5.01307">
        <ele>182.49</ele>
        <time>2026-04-16T07:15:16.295Z</time>
      </trkpt>
      <trkpt lat="43.69874" lon="5.01307">
        <ele>183.82</ele>
        <time>2026-04-16T07:15:21.593Z</time>
      </trkpt>
      <trkpt lat="43.6988" lon="5.01309">
        <ele>184.53</ele>
        <time>2026-04-16T07:15:27.600Z</time>
      </trkpt>
      <trkpt lat="43.69885" lon="5.0131">
        <ele>184.75</ele>
        <time>2026-04-16T07:15:33.073Z</time>
      </trkpt>
      <trkpt lat="43.69892" lon="5.01312">
        <ele>184.28</ele>
        <time>2026-04-16T07:15:38.297Z</time>
      </trkpt>
      <trkpt lat="43.69898" lon="5.01313">
        <ele>183.43</ele>
        <time>2026-04-16T07:15:44.010Z</time>
      </trkpt>
      <trkpt lat="43.69904" lon="5.01315">
        <ele>183.2</ele>
        <time>2026-04-16T07:15:49.051Z</time>
      </trkpt>
      <trkpt lat="43.69911" lon="5.01317">
        <ele>183.5</ele>
        <time>2026-04-16T07:15:54.423Z</time>
      </trkpt>
      <trkpt lat="43.69916" lon="5.01322">
        <ele>183.72</ele>
        <time>2026-04-16T07:15:59.586Z</time>
      </trkpt>
      <trkpt lat="43.6992" lon="5.01328">
        <ele>184.02</ele>
        <time>2026-04-16T07:16:05.050Z</time>
      </trkpt>
      <trkpt lat="43.69923" lon="5.01336">
        <ele>183.83</ele>
        <time>2026-04-16T07:16:10.505Z</time>
      </trkpt>
      <trkpt lat="43.69928" lon="5.01342">
        <ele>183.73</ele>
        <time>2026-04-16T07:16:16.508Z</time>
      </trkpt>
      <trkpt lat="43.69929" lon="5.01351">
        <ele>184.18</ele>
        <time>2026-04-16T07:16:21.602Z</time>
      </trkpt>
      <trkpt lat="43.69933" lon="5.01357">
        <ele>184.18</ele>
        <time>2026-04-16T07:16:26.968Z</time>
      </trkpt>
      <trkpt lat="43.69938" lon="5.01362">
        <ele>185.05</ele>
        <time>2026-04-16T07:16:32.495Z</time>
      </trkpt>
      <trkpt lat="43.69941" lon="5.01365">
        <ele>185.46</ele>
        <time>2026-04-16T07:16:37.518Z</time>
      </trkpt>
      <trkpt lat="43.69942" lon="5.01364">
        <ele>185.93</ele>
        <time>2026-04-16T07:16:44.944Z</time>
      </trkpt>
      <trkpt lat="43.69947" lon="5.01371">
        <ele>187.59</ele>
        <time>2026-04-16T07:16:49.988Z</time>
      </trkpt>
      <trkpt lat="43.6995" lon="5.01379">
        <ele>187.96</ele>
        <time>2026-04-16T07:16:55.294Z</time>
      </trkpt>
      <trkpt lat="43.69953" lon="5.01387">
        <ele>190.21</ele>
        <time>2026-04-16T07:17:00.782Z</time>
      </trkpt>
      <trkpt lat="43.69953" lon="5.01393">
        <ele>194.27</ele>
        <time>2026-04-16T07:17:06.103Z</time>
      </trkpt>
      <trkpt lat="43.69956" lon="5.014">
        <ele>193.15</ele>
        <time>2026-04-16T07:17:11.515Z</time>
      </trkpt>
      <trkpt lat="43.69961" lon="5.01401">
        <ele>193.11</ele>
        <time>2026-04-16T07:17:16.719Z</time>
      </trkpt>
      <trkpt lat="43.69966" lon="5.01399">
        <ele>195.07</ele>
        <time>2026-04-16T07:17:21.859Z</time>
      </trkpt>
      <trkpt lat="43.6997" lon="5.01397">
        <ele>196.76</ele>
        <time>2026-04-16T07:17:27.123Z</time>
      </trkpt>
      <trkpt lat="43.69969" lon="5.01396">
        <ele>198.75</ele>
        <time>2026-04-16T07:17:32.922Z</time>
      </trkpt>
      <trkpt lat="43.6997" lon="5.01397">
        <ele>199.19</ele>
        <time>2026-04-16T07:17:39.514Z</time>
      </trkpt>
      <trkpt lat="43.69974" lon="5.01401">
        <ele>201.04</ele>
        <time>2026-04-16T07:17:45.138Z</time>
      </trkpt>
      <trkpt lat="43.6998" lon="5.014">
        <ele>202.55</ele>
        <time>2026-04-16T07:17:50.267Z</time>
      </trkpt>
      <trkpt lat="43.69984" lon="5.01401">
        <ele>203.21</ele>
        <time>2026-04-16T07:17:55.520Z</time>
      </trkpt>
      <trkpt lat="43.69983" lon="5.01404">
        <ele>203.1</ele>
        <time>2026-04-16T07:18:00.535Z</time>
      </trkpt>
      <trkpt lat="43.69982" lon="5.01407">
        <ele>203.15</ele>
        <time>2026-04-16T07:18:06.013Z</time>
      </trkpt>
      <trkpt lat="43.6998" lon="5.01413">
        <ele>203.67</ele>
        <time>2026-04-16T07:18:11.349Z</time>
      </trkpt>
      <trkpt lat="43.69982" lon="5.0142">
        <ele>203.68</ele>
        <time>2026-04-16T07:18:16.693Z</time>
      </trkpt>
      <trkpt lat="43.69986" lon="5.01428">
        <ele>202.95</ele>
        <time>2026-04-16T07:18:22.533Z</time>
      </trkpt>
      <trkpt lat="43.69989" lon="5.01437">
        <ele>203.17</ele>
        <time>2026-04-16T07:18:27.549Z</time>
      </trkpt>
      <trkpt lat="43.69993" lon="5.0144">
        <ele>202.83</ele>
        <time>2026-04-16T07:18:32.782Z</time>
      </trkpt>
      <trkpt lat="43.69998" lon="5.01436">
        <ele>201.46</ele>
        <time>2026-04-16T07:18:38.464Z</time>
      </trkpt>
      <trkpt lat="43.70004" lon="5.0143">
        <ele>201.55</ele>
        <time>2026-04-16T07:18:43.764Z</time>
      </trkpt>
      <trkpt lat="43.7001" lon="5.01428">
        <ele>202.14</ele>
        <time>2026-04-16T07:18:49.224Z</time>
      </trkpt>
      <trkpt lat="43.70014" lon="5.01429">
        <ele>203.48</ele>
        <time>2026-04-16T07:18:54.266Z</time>
      </trkpt>
      <trkpt lat="43.70016" lon="5.01433">
        <ele>202.94</ele>
        <time>2026-04-16T07:18:59.561Z</time>
      </trkpt>
      <trkpt lat="43.70017" lon="5.01435">
        <ele>203.14</ele>
        <time>2026-04-16T07:19:04.864Z</time>
      </trkpt>
      <trkpt lat="43.70021" lon="5.01433">
        <ele>201.7</ele>
        <time>2026-04-16T07:19:10.551Z</time>
      </trkpt>
      <trkpt lat="43.70025" lon="5.01436">
        <ele>201.63</ele>
        <time>2026-04-16T07:19:15.739Z</time>
      </trkpt>
      <trkpt lat="43.7003" lon="5.0144">
        <ele>201.62</ele>
        <time>2026-04-16T07:19:21.386Z</time>
      </trkpt>
      <trkpt lat="43.70034" lon="5.01444">
        <ele>201.65</ele>
        <time>2026-04-16T07:19:26.557Z</time>
      </trkpt>
      <trkpt lat="43.70038" lon="5.01448">
        <ele>202.25</ele>
        <time>2026-04-16T07:19:31.572Z</time>
      </trkpt>
      <trkpt lat="43.70044" lon="5.01452">
        <ele>202.3</ele>
        <time>2026-04-16T07:19:37.107Z</time>
      </trkpt>
      <trkpt lat="43.7005" lon="5.01454">
        <ele>202.06</ele>
        <time>2026-04-16T07:19:42.563Z</time>
      </trkpt>
      <trkpt lat="43.70056" lon="5.01456">
        <ele>201.62</ele>
        <time>2026-04-16T07:19:47.578Z</time>
      </trkpt>
      <trkpt lat="43.70061" lon="5.01458">
        <ele>201.55</ele>
        <time>2026-04-16T07:19:52.864Z</time>
      </trkpt>
      <trkpt lat="43.70062" lon="5.01465">
        <ele>200.68</ele>
        <time>2026-04-16T07:19:58.181Z</time>
      </trkpt>
      <trkpt lat="43.70067" lon="5.01469">
        <ele>200.56</ele>
        <time>2026-04-16T07:20:03.477Z</time>
      </trkpt>
      <trkpt lat="43.70074" lon="5.01472">
        <ele>199.95</ele>
        <time>2026-04-16T07:20:09.081Z</time>
      </trkpt>
      <trkpt lat="43.7008" lon="5.01474">
        <ele>198.35</ele>
        <time>2026-04-16T07:20:14.574Z</time>
      </trkpt>
      <trkpt lat="43.70086" lon="5.01472">
        <ele>198.24</ele>
        <time>2026-04-16T07:20:20.080Z</time>
      </trkpt>
      <trkpt lat="43.70092" lon="5.01476">
        <ele>198.74</ele>
        <time>2026-04-16T07:20:25.564Z</time>
      </trkpt>
      <trkpt lat="43.70096" lon="5.01478">
        <ele>198.74</ele>
        <time>2026-04-16T07:20:30.582Z</time>
      </trkpt>
      <trkpt lat="43.70103" lon="5.01479">
        <ele>198.37</ele>
        <time>2026-04-16T07:20:36.523Z</time>
      </trkpt>
      <trkpt lat="43.70104" lon="5.01482">
        <ele>197.08</ele>
        <time>2026-04-16T07:20:42.107Z</time>
      </trkpt>
      <trkpt lat="43.70108" lon="5.01487">
        <ele>196.46</ele>
        <time>2026-04-16T07:20:47.545Z</time>
      </trkpt>
      <trkpt lat="43.70114" lon="5.01485">
        <ele>196.36</ele>
        <time>2026-04-16T07:20:52.996Z</time>
      </trkpt>
      <trkpt lat="43.70119" lon="5.01485">
        <ele>196.28</ele>
        <time>2026-04-16T07:20:58.345Z</time>
      </trkpt>
      <trkpt lat="43.70124" lon="5.01486">
        <ele>195.79</ele>
        <time>2026-04-16T07:21:03.402Z</time>
      </trkpt>
      <trkpt lat="43.70128" lon="5.01489">
        <ele>195.86</ele>
        <time>2026-04-16T07:21:08.458Z</time>
      </trkpt>
      <trkpt lat="43.70132" lon="5.01492">
        <ele>196.8</ele>
        <time>2026-04-16T07:21:13.922Z</time>
      </trkpt>
      <trkpt lat="43.70137" lon="5.01493">
        <ele>196.44</ele>
        <time>2026-04-16T07:21:18.926Z</time>
      </trkpt>
      <trkpt lat="43.70141" lon="5.01494">
        <ele>196.68</ele>
        <time>2026-04-16T07:21:24.466Z</time>
      </trkpt>
      <trkpt lat="43.70143" lon="5.01497">
        <ele>195.4</ele>
        <time>2026-04-16T07:21:29.479Z</time>
      </trkpt>
      <trkpt lat="43.70143" lon="5.01496">
        <ele>196.05</ele>
        <time>2026-04-16T07:21:44.525Z</time>
      </trkpt>
      <trkpt lat="43.70141" lon="5.01496">
        <ele>196.68</ele>
        <time>2026-04-16T07:21:51.172Z</time>
      </trkpt>
      <trkpt lat="43.70131" lon="5.01492">
        <ele>197.88</ele>
        <time>2026-04-16T07:21:56.871Z</time>
      </trkpt>
      <trkpt lat="43.70125" lon="5.01489">
        <ele>197.85</ele>
        <time>2026-04-16T07:22:01.930Z</time>
      </trkpt>
      <trkpt lat="43.70118" lon="5.01489">
        <ele>197.41</ele>
        <time>2026-04-16T07:22:07.568Z</time>
      </trkpt>
      <trkpt lat="43.70113" lon="5.01486">
        <ele>197.08</ele>
        <time>2026-04-16T07:22:12.993Z</time>
      </trkpt>
      <trkpt lat="43.70107" lon="5.01486">
        <ele>197.4</ele>
        <time>2026-04-16T07:22:18.231Z</time>
      </trkpt>
      <trkpt lat="43.70102" lon="5.01484">
        <ele>197.66</ele>
        <time>2026-04-16T07:22:23.449Z</time>
      </trkpt>
      <trkpt lat="43.70104" lon="5.01479">
        <ele>197.51</ele>
        <time>2026-04-16T07:22:28.527Z</time>
      </trkpt>
      <trkpt lat="43.70108" lon="5.01475">
        <ele>197.14</ele>
        <time>2026-04-16T07:22:34.111Z</time>
      </trkpt>
      <trkpt lat="43.70113" lon="5.01471">
        <ele>197.24</ele>
        <time>2026-04-16T07:22:39.456Z</time>
      </trkpt>
      <trkpt lat="43.70118" lon="5.01468">
        <ele>196.58</ele>
        <time>2026-04-16T07:22:45.060Z</time>
      </trkpt>
      <trkpt lat="43.70123" lon="5.01466">
        <ele>196.22</ele>
        <time>2026-04-16T07:22:50.578Z</time>
      </trkpt>
      <trkpt lat="43.70128" lon="5.01464">
        <ele>195.04</ele>
        <time>2026-04-16T07:22:56.206Z</time>
      </trkpt>
      <trkpt lat="43.70129" lon="5.01459">
        <ele>193.41</ele>
        <time>2026-04-16T07:23:01.569Z</time>
      </trkpt>
      <trkpt lat="43.70131" lon="5.01455">
        <ele>192.32</ele>
        <time>2026-04-16T07:23:07.544Z</time>
      </trkpt>
      <trkpt lat="43.70134" lon="5.01453">
        <ele>190.97</ele>
        <time>2026-04-16T07:23:13.576Z</time>
      </trkpt>
      <trkpt lat="43.70133" lon="5.01447">
        <ele>190.72</ele>
        <time>2026-04-16T07:23:18.599Z</time>
      </trkpt>
      <trkpt lat="43.70136" lon="5.01446">
        <ele>188.65</ele>
        <time>2026-04-16T07:23:24.263Z</time>
      </trkpt>
      <trkpt lat="43.70139" lon="5.01448">
        <ele>187.96</ele>
        <time>2026-04-16T07:23:30.141Z</time>
      </trkpt>
      <trkpt lat="43.70137" lon="5.01445">
        <ele>187.02</ele>
        <time>2026-04-16T07:23:35.879Z</time>
      </trkpt>
      <trkpt lat="43.70138" lon="5.01439">
        <ele>186.04</ele>
        <time>2026-04-16T07:23:41.269Z</time>
      </trkpt>
      <trkpt lat="43.70142" lon="5.01434">
        <ele>185.9</ele>
        <time>2026-04-16T07:23:46.490Z</time>
      </trkpt>
      <trkpt lat="43.70143" lon="5.01428">
        <ele>186.23</ele>
        <time>2026-04-16T07:23:52.158Z</time>
      </trkpt>
      <trkpt lat="43.70142" lon="5.01422">
        <ele>188.02</ele>
        <time>2026-04-16T07:23:57.283Z</time>
      </trkpt>
      <trkpt lat="43.70141" lon="5.01415">
        <ele>189.34</ele>
        <time>2026-04-16T07:24:03.031Z</time>
      </trkpt>
      <trkpt lat="43.70137" lon="5.0141">
        <ele>190.93</ele>
        <time>2026-04-16T07:24:08.449Z</time>
      </trkpt>
      <trkpt lat="43.70134" lon="5.01403">
        <ele>191.94</ele>
        <time>2026-04-16T07:24:13.631Z</time>
      </trkpt>
      <trkpt lat="43.7013" lon="5.01399">
        <ele>193.37</ele>
        <time>2026-04-16T07:24:19.331Z</time>
      </trkpt>
      <trkpt lat="43.70132" lon="5.01396">
        <ele>194.74</ele>
        <time>2026-04-16T07:24:25.137Z</time>
      </trkpt>
      <trkpt lat="43.70131" lon="5.01394">
        <ele>195.91</ele>
        <time>2026-04-16T07:24:30.634Z</time>
      </trkpt>
      <trkpt lat="43.70133" lon="5.0139">
        <ele>197.06</ele>
        <time>2026-04-16T07:24:36.509Z</time>
      </trkpt>
      <trkpt lat="43.70133" lon="5.01387">
        <ele>198.99</ele>
        <time>2026-04-16T07:24:41.516Z</time>
      </trkpt>
      <trkpt lat="43.70133" lon="5.01385">
        <ele>200.2</ele>
        <time>2026-04-16T07:24:47.533Z</time>
      </trkpt>
      <trkpt lat="43.70133" lon="5.01384">
        <ele>201.18</ele>
        <time>2026-04-16T07:24:54.392Z</time>
      </trkpt>
      <trkpt lat="43.70133" lon="5.01382">
        <ele>202.45</ele>
        <time>2026-04-16T07:24:59.484Z</time>
      </trkpt>
      <trkpt lat="43.70133" lon="5.0138">
        <ele>203.11</ele>
        <time>2026-04-16T07:25:05.279Z</time>
      </trkpt>
      <trkpt lat="43.70133" lon="5.01378">
        <ele>204.78</ele>
        <time>2026-04-16T07:25:11.120Z</time>
      </trkpt>
      <trkpt lat="43.70133" lon="5.01372">
        <ele>206.4</ele>
        <time>2026-04-16T07:25:16.312Z</time>
      </trkpt>
      <trkpt lat="43.70134" lon="5.0137">
        <ele>206.82</ele>
        <time>2026-04-16T07:25:21.571Z</time>
      </trkpt>
      <trkpt lat="43.70134" lon="5.01363">
        <ele>207.62</ele>
        <time>2026-04-16T07:25:26.586Z</time>
      </trkpt>
      <trkpt lat="43.70134" lon="5.01359">
        <ele>208.9</ele>
        <time>2026-04-16T07:25:31.601Z</time>
      </trkpt>
      <trkpt lat="43.70134" lon="5.01356">
        <ele>210.42</ele>
        <time>2026-04-16T07:25:37.046Z</time>
      </trkpt>
      <trkpt lat="43.70134" lon="5.01355">
        <ele>210.93</ele>
        <time>2026-04-16T07:25:42.404Z</time>
      </trkpt>
      <trkpt lat="43.70136" lon="5.01354">
        <ele>212.51</ele>
        <time>2026-04-16T07:25:47.599Z</time>
      </trkpt>
      <trkpt lat="43.70139" lon="5.01348">
        <ele>213.03</ele>
        <time>2026-04-16T07:25:52.865Z</time>
      </trkpt>
      <trkpt lat="43.7014" lon="5.01345">
        <ele>214.12</ele>
        <time>2026-04-16T07:25:58.500Z</time>
      </trkpt>
      <trkpt lat="43.7014" lon="5.01344">
        <ele>216.68</ele>
        <time>2026-04-16T07:26:08.062Z</time>
      </trkpt>
      <trkpt lat="43.7014" lon="5.01343">
        <ele>217.32</ele>
        <time>2026-04-16T07:26:14.656Z</time>
      </trkpt>
      <trkpt lat="43.70141" lon="5.01342">
        <ele>218.83</ele>
        <time>2026-04-16T07:26:20.577Z</time>
      </trkpt>
      <trkpt lat="43.70143" lon="5.0134">
        <ele>218.69</ele>
        <time>2026-04-16T07:26:26.574Z</time>
      </trkpt>
      <trkpt lat="43.70144" lon="5.01338">
        <ele>219.8</ele>
        <time>2026-04-16T07:26:32.338Z</time>
      </trkpt>
      <trkpt lat="43.70144" lon="5.01336">
        <ele>221.2</ele>
        <time>2026-04-16T07:26:37.543Z</time>
      </trkpt>
      <trkpt lat="43.70145" lon="5.01336">
        <ele>221.44</ele>
        <time>2026-04-16T07:26:42.567Z</time>
      </trkpt>
      <trkpt lat="43.70145" lon="5.01334">
        <ele>223.39</ele>
        <time>2026-04-16T07:26:48.533Z</time>
      </trkpt>
      <trkpt lat="43.70146" lon="5.01332">
        <ele>224.42</ele>
        <time>2026-04-16T07:26:53.547Z</time>
      </trkpt>
      <trkpt lat="43.70146" lon="5.01328">
        <ele>224.94</ele>
        <time>2026-04-16T07:26:59.526Z</time>
      </trkpt>
      <trkpt lat="43.70148" lon="5.0132">
        <ele>227.21</ele>
        <time>2026-04-16T07:27:05.418Z</time>
      </trkpt>
      <trkpt lat="43.70149" lon="5.01318">
        <ele>227.75</ele>
        <time>2026-04-16T07:27:10.552Z</time>
      </trkpt>
      <trkpt lat="43.7015" lon="5.01316">
        <ele>229.68</ele>
        <time>2026-04-16T07:27:16.596Z</time>
      </trkpt>
      <trkpt lat="43.70151" lon="5.01315">
        <ele>230.32</ele>
        <time>2026-04-16T07:27:22.573Z</time>
      </trkpt>
      <trkpt lat="43.70151" lon="5.01313">
        <ele>231.13</ele>
        <time>2026-04-16T07:27:28.582Z</time>
      </trkpt>
      <trkpt lat="43.70153" lon="5.0131">
        <ele>231.87</ele>
        <time>2026-04-16T07:27:33.636Z</time>
      </trkpt>
      <trkpt lat="43.70153" lon="5.01308">
        <ele>231.71</ele>
        <time>2026-04-16T07:27:39.097Z</time>
      </trkpt>
      <trkpt lat="43.70154" lon="5.01307">
        <ele>232.82</ele>
        <time>2026-04-16T07:27:44.490Z</time>
      </trkpt>
      <trkpt lat="43.70156" lon="5.01306">
        <ele>234.07</ele>
        <time>2026-04-16T07:27:49.505Z</time>
      </trkpt>
      <trkpt lat="43.70157" lon="5.01304">
        <ele>234.49</ele>
        <time>2026-04-16T07:27:54.520Z</time>
      </trkpt>
      <trkpt lat="43.70158" lon="5.01302">
        <ele>234.95</ele>
        <time>2026-04-16T07:27:59.534Z</time>
      </trkpt>
      <trkpt lat="43.70159" lon="5.013">
        <ele>236.23</ele>
        <time>2026-04-16T07:28:04.549Z</time>
      </trkpt>
      <trkpt lat="43.70162" lon="5.01294">
        <ele>237.02</ele>
        <time>2026-04-16T07:28:09.565Z</time>
      </trkpt>
      <trkpt lat="43.70164" lon="5.01291">
        <ele>237.09</ele>
        <time>2026-04-16T07:28:14.958Z</time>
      </trkpt>
      <trkpt lat="43.70165" lon="5.0129">
        <ele>237.84</ele>
        <time>2026-04-16T07:28:20.555Z</time>
      </trkpt>
      <trkpt lat="43.70166" lon="5.01289">
        <ele>236.72</ele>
        <time>2026-04-16T07:28:26.531Z</time>
      </trkpt>
      <trkpt lat="43.70166" lon="5.01288">
        <ele>235.56</ele>
        <time>2026-04-16T07:28:33.573Z</time>
      </trkpt>
      <trkpt lat="43.70167" lon="5.01287">
        <ele>234.16</ele>
        <time>2026-04-16T07:28:38.588Z</time>
      </trkpt>
      <trkpt lat="43.70168" lon="5.01286">
        <ele>235.08</ele>
        <time>2026-04-16T07:28:45.523Z</time>
      </trkpt>
      <trkpt lat="43.70169" lon="5.01285">
        <ele>234.58</ele>
        <time>2026-04-16T07:28:53.437Z</time>
      </trkpt>
      <trkpt lat="43.70169" lon="5.01284">
        <ele>233.66</ele>
        <time>2026-04-16T07:29:04.437Z</time>
      </trkpt>
      <trkpt lat="43.7017" lon="5.01283">
        <ele>236.88</ele>
        <time>2026-04-16T07:29:15.436Z</time>
      </trkpt>
      <trkpt lat="43.7017" lon="5.01281">
        <ele>235.52</ele>
        <time>2026-04-16T07:29:33.437Z</time>
      </trkpt>
      <trkpt lat="43.70171" lon="5.01281">
        <ele>236.28</ele>
        <time>2026-04-16T07:29:54.438Z</time>
      </trkpt>
      <trkpt lat="43.70172" lon="5.01283">
        <ele>235.44</ele>
        <time>2026-04-16T07:30:00.438Z</time>
      </trkpt>
      <trkpt lat="43.70173" lon="5.01283">
        <ele>233.11</ele>
        <time>2026-04-16T07:30:05.438Z</time>
      </trkpt>
      <trkpt lat="43.70175" lon="5.01285">
        <ele>232.69</ele>
        <time>2026-04-16T07:30:10.438Z</time>
      </trkpt>
      <trkpt lat="43.7018" lon="5.01288">
        <ele>232.15</ele>
        <time>2026-04-16T07:30:15.815Z</time>
      </trkpt>
      <trkpt lat="43.70187" lon="5.01286">
        <ele>231.99</ele>
        <time>2026-04-16T07:30:20.837Z</time>
      </trkpt>
      <trkpt lat="43.70194" lon="5.01287">
        <ele>232.28</ele>
        <time>2026-04-16T07:30:26.568Z</time>
      </trkpt>
      <trkpt lat="43.70198" lon="5.01292">
        <ele>231.28</ele>
        <time>2026-04-16T07:30:32.543Z</time>
      </trkpt>
      <trkpt lat="43.70202" lon="5.01298">
        <ele>231.63</ele>
        <time>2026-04-16T07:30:38.131Z</time>
      </trkpt>
      <trkpt lat="43.70205" lon="5.01302">
        <ele>230.95</ele>
        <time>2026-04-16T07:30:43.534Z</time>
      </trkpt>
      <trkpt lat="43.7021" lon="5.01305">
        <ele>231.26</ele>
        <time>2026-04-16T07:30:49.268Z</time>
      </trkpt>
      <trkpt lat="43.70213" lon="5.0131">
        <ele>231.87</ele>
        <time>2026-04-16T07:30:55.035Z</time>
      </trkpt>
      <trkpt lat="43.70216" lon="5.01312">
        <ele>232.08</ele>
        <time>2026-04-16T07:31:00.174Z</time>
      </trkpt>
      <trkpt lat="43.70221" lon="5.01315">
        <ele>233.2</ele>
        <time>2026-04-16T07:31:05.438Z</time>
      </trkpt>
      <trkpt lat="43.70225" lon="5.01316">
        <ele>233.29</ele>
        <time>2026-04-16T07:31:11.056Z</time>
      </trkpt>
      <trkpt lat="43.70226" lon="5.01317">
        <ele>233.96</ele>
        <time>2026-04-16T07:31:16.540Z</time>
      </trkpt>
      <trkpt lat="43.70226" lon="5.01316">
        <ele>235.35</ele>
        <time>2026-04-16T07:31:22.171Z</time>
      </trkpt>
      <trkpt lat="43.70229" lon="5.01315">
        <ele>236.96</ele>
        <time>2026-04-16T07:31:27.524Z</time>
      </trkpt>
      <trkpt lat="43.70232" lon="5.01316">
        <ele>236.02</ele>
        <time>2026-04-16T07:31:33.514Z</time>
      </trkpt>
      <trkpt lat="43.70232" lon="5.01316">
        <ele>236.67</ele>
        <time>2026-04-16T07:31:38.528Z</time>
      </trkpt>
      <trkpt lat="43.70234" lon="5.01316">
        <ele>237.5</ele>
        <time>2026-04-16T07:31:44.220Z</time>
      </trkpt>
      <trkpt lat="43.70243" lon="5.01318">
        <ele>238.35</ele>
        <time>2026-04-16T07:31:49.559Z</time>
      </trkpt>
      <trkpt lat="43.70249" lon="5.01318">
        <ele>239.66</ele>
        <time>2026-04-16T07:31:54.847Z</time>
      </trkpt>
      <trkpt lat="43.70253" lon="5.01324">
        <ele>240.28</ele>
        <time>2026-04-16T07:32:00.231Z</time>
      </trkpt>
      <trkpt lat="43.70256" lon="5.01322">
        <ele>242.62</ele>
        <time>2026-04-16T07:32:05.588Z</time>
      </trkpt>
      <trkpt lat="43.70258" lon="5.01321">
        <ele>242.76</ele>
        <time>2026-04-16T07:32:11.173Z</time>
      </trkpt>
      <trkpt lat="43.70265" lon="5.01318">
        <ele>243.18</ele>
        <time>2026-04-16T07:32:16.929Z</time>
      </trkpt>
      <trkpt lat="43.70266" lon="5.01313">
        <ele>244.59</ele>
        <time>2026-04-16T07:32:22.596Z</time>
      </trkpt>
      <trkpt lat="43.70265" lon="5.01313">
        <ele>243.41</ele>
        <time>2026-04-16T07:32:28.290Z</time>
      </trkpt>
      <trkpt lat="43.70265" lon="5.01308">
        <ele>244.13</ele>
        <time>2026-04-16T07:32:33.351Z</time>
      </trkpt>
      <trkpt lat="43.70265" lon="5.013">
        <ele>243.77</ele>
        <time>2026-04-16T07:32:38.569Z</time>
      </trkpt>
      <trkpt lat="43.70269" lon="5.01293">
        <ele>243.35</ele>
        <time>2026-04-16T07:32:44.189Z</time>
      </trkpt>
      <trkpt lat="43.70273" lon="5.01289">
        <ele>243.96</ele>
        <time>2026-04-16T07:32:49.602Z</time>
      </trkpt>
      <trkpt lat="43.70276" lon="5.01289">
        <ele>245.45</ele>
        <time>2026-04-16T07:32:54.857Z</time>
      </trkpt>
      <trkpt lat="43.70279" lon="5.01289">
        <ele>246.46</ele>
        <time>2026-04-16T07:33:00.592Z</time>
      </trkpt>
      <trkpt lat="43.70281" lon="5.01291">
        <ele>247.22</ele>
        <time>2026-04-16T07:33:05.991Z</time>
      </trkpt>
      <trkpt lat="43.70283" lon="5.0129">
        <ele>248.16</ele>
        <time>2026-04-16T07:33:11.274Z</time>
      </trkpt>
      <trkpt lat="43.70283" lon="5.01292">
        <ele>248.99</ele>
        <time>2026-04-16T07:33:19.028Z</time>
      </trkpt>
      <trkpt lat="43.70289" lon="5.01287">
        <ele>248.1</ele>
        <time>2026-04-16T07:33:24.277Z</time>
      </trkpt>
      <trkpt lat="43.70295" lon="5.01284">
        <ele>249</ele>
        <time>2026-04-16T07:33:30.174Z</time>
      </trkpt>
      <trkpt lat="43.70298" lon="5.01281">
        <ele>249.4</ele>
        <time>2026-04-16T07:33:35.371Z</time>
      </trkpt>
      <trkpt lat="43.70302" lon="5.01276">
        <ele>247.26</ele>
        <time>2026-04-16T07:33:40.418Z</time>
      </trkpt>
      <trkpt lat="43.70302" lon="5.01272">
        <ele>247.55</ele>
        <time>2026-04-16T07:33:45.514Z</time>
      </trkpt>
      <trkpt lat="43.70301" lon="5.01273">
        <ele>248.17</ele>
        <time>2026-04-16T07:33:50.529Z</time>
      </trkpt>
      <trkpt lat="43.703" lon="5.01272">
        <ele>248.19</ele>
        <time>2026-04-16T07:33:55.543Z</time>
      </trkpt>
      <trkpt lat="43.70301" lon="5.01272">
        <ele>250.16</ele>
        <time>2026-04-16T07:34:03.356Z</time>
      </trkpt>
      <trkpt lat="43.70306" lon="5.01272">
        <ele>248.79</ele>
        <time>2026-04-16T07:34:08.562Z</time>
      </trkpt>
      <trkpt lat="43.70312" lon="5.0127">
        <ele>252.17</ele>
        <time>2026-04-16T07:34:14.537Z</time>
      </trkpt>
      <trkpt lat="43.70317" lon="5.01268">
        <ele>252.5</ele>
        <time>2026-04-16T07:34:20.073Z</time>
      </trkpt>
      <trkpt lat="43.70318" lon="5.01263">
        <ele>253.15</ele>
        <time>2026-04-16T07:34:25.566Z</time>
      </trkpt>
      <trkpt lat="43.7032" lon="5.01257">
        <ele>254.04</ele>
        <time>2026-04-16T07:34:31.438Z</time>
      </trkpt>
      <trkpt lat="43.70321" lon="5.01249">
        <ele>256.83</ele>
        <time>2026-04-16T07:34:36.536Z</time>
      </trkpt>
      <trkpt lat="43.70325" lon="5.01249">
        <ele>256.93</ele>
        <time>2026-04-16T07:34:42.302Z</time>
      </trkpt>
      <trkpt lat="43.70331" lon="5.0125">
        <ele>258</ele>
        <time>2026-04-16T07:34:47.526Z</time>
      </trkpt>
      <trkpt lat="43.70335" lon="5.01249">
        <ele>258.36</ele>
        <time>2026-04-16T07:34:52.542Z</time>
      </trkpt>
      <trkpt lat="43.7034" lon="5.01252">
        <ele>259.51</ele>
        <time>2026-04-16T07:34:58.058Z</time>
      </trkpt>
      <trkpt lat="43.70345" lon="5.01256">
        <ele>259.85</ele>
        <time>2026-04-16T07:35:03.535Z</time>
      </trkpt>
      <trkpt lat="43.70347" lon="5.01257">
        <ele>259.41</ele>
        <time>2026-04-16T07:35:08.546Z</time>
      </trkpt>
      <trkpt lat="43.70351" lon="5.01256">
        <ele>260.17</ele>
        <time>2026-04-16T07:35:13.775Z</time>
      </trkpt>
      <trkpt lat="43.70352" lon="5.01256">
        <ele>260.04</ele>
        <time>2026-04-16T07:35:27.646Z</time>
      </trkpt>
      <trkpt lat="43.70353" lon="5.01256">
        <ele>259.13</ele>
        <time>2026-04-16T07:35:33.196Z</time>
      </trkpt>
      <trkpt lat="43.70354" lon="5.01255">
        <ele>258.97</ele>
        <time>2026-04-16T07:35:47.600Z</time>
      </trkpt>
      <trkpt lat="43.70355" lon="5.01256">
        <ele>259.25</ele>
        <time>2026-04-16T07:36:05.527Z</time>
      </trkpt>
      <trkpt lat="43.70355" lon="5.01257">
        <ele>260.88</ele>
        <time>2026-04-16T07:36:14.597Z</time>
      </trkpt>
      <trkpt lat="43.70355" lon="5.01259">
        <ele>261.1</ele>
        <time>2026-04-16T07:36:20.572Z</time>
      </trkpt>
      <trkpt lat="43.70356" lon="5.0126">
        <ele>259.59</ele>
        <time>2026-04-16T07:36:27.617Z</time>
      </trkpt>
      <trkpt lat="43.70358" lon="5.01261">
        <ele>259.74</ele>
        <time>2026-04-16T07:36:33.458Z</time>
      </trkpt>
      <trkpt lat="43.70359" lon="5.01262">
        <ele>262.26</ele>
        <time>2026-04-16T07:36:40.182Z</time>
      </trkpt>
      <trkpt lat="43.70359" lon="5.01264">
        <ele>260.76</ele>
        <time>2026-04-16T07:36:45.596Z</time>
      </trkpt>
      <trkpt lat="43.70362" lon="5.01264">
        <ele>261.21</ele>
        <time>2026-04-16T07:36:51.484Z</time>
      </trkpt>
      <trkpt lat="43.70363" lon="5.01262">
        <ele>262.68</ele>
        <time>2026-04-16T07:36:57.384Z</time>
      </trkpt>
      <trkpt lat="43.70367" lon="5.0126">
        <ele>264.52</ele>
        <time>2026-04-16T07:37:02.981Z</time>
      </trkpt>
      <trkpt lat="43.70371" lon="5.01259">
        <ele>263.99</ele>
        <time>2026-04-16T07:37:08.103Z</time>
      </trkpt>
      <trkpt lat="43.70377" lon="5.01257">
        <ele>263.7</ele>
        <time>2026-04-16T07:37:13.603Z</time>
      </trkpt>
      <trkpt lat="43.7038" lon="5.01259">
        <ele>264.81</ele>
        <time>2026-04-16T07:37:18.618Z</time>
      </trkpt>
      <trkpt lat="43.70381" lon="5.01259">
        <ele>265.37</ele>
        <time>2026-04-16T07:37:25.424Z</time>
      </trkpt>
      <trkpt lat="43.70388" lon="5.01261">
        <ele>264.31</ele>
        <time>2026-04-16T07:37:31.019Z</time>
      </trkpt>
      <trkpt lat="43.70394" lon="5.01259">
        <ele>263.87</ele>
        <time>2026-04-16T07:37:36.162Z</time>
      </trkpt>
      <trkpt lat="43.70398" lon="5.01257">
        <ele>265.47</ele>
        <time>2026-04-16T07:37:41.558Z</time>
      </trkpt>
      <trkpt lat="43.70402" lon="5.01254">
        <ele>266.5</ele>
        <time>2026-04-16T07:37:46.583Z</time>
      </trkpt>
      <trkpt lat="43.70404" lon="5.01251">
        <ele>266.32</ele>
        <time>2026-04-16T07:37:52.272Z</time>
      </trkpt>
      <trkpt lat="43.70406" lon="5.01251">
        <ele>269.36</ele>
        <time>2026-04-16T07:37:57.560Z</time>
      </trkpt>
      <trkpt lat="43.70408" lon="5.01252">
        <ele>270.89</ele>
        <time>2026-04-16T07:38:02.607Z</time>
      </trkpt>
      <trkpt lat="43.70409" lon="5.01251">
        <ele>270.17</ele>
        <time>2026-04-16T07:38:07.621Z</time>
      </trkpt>
      <trkpt lat="43.7041" lon="5.01251">
        <ele>270.15</ele>
        <time>2026-04-16T07:38:13.490Z</time>
      </trkpt>
      <trkpt lat="43.70411" lon="5.01251">
        <ele>269.18</ele>
        <time>2026-04-16T07:38:21.318Z</time>
      </trkpt>
      <trkpt lat="43.70412" lon="5.01251">
        <ele>271.43</ele>
        <time>2026-04-16T07:38:28.540Z</time>
      </trkpt>
      <trkpt lat="43.70412" lon="5.01251">
        <ele>269.31</ele>
        <time>2026-04-16T07:38:34.511Z</time>
      </trkpt>
      <trkpt lat="43.70417" lon="5.01253">
        <ele>267.78</ele>
        <time>2026-04-16T07:38:39.525Z</time>
      </trkpt>
      <trkpt lat="43.70424" lon="5.01257">
        <ele>266.81</ele>
        <time>2026-04-16T07:38:44.541Z</time>
      </trkpt>
      <trkpt lat="43.70425" lon="5.01256">
        <ele>265.7</ele>
        <time>2026-04-16T07:38:55.532Z</time>
      </trkpt>
      <trkpt lat="43.70426" lon="5.01257">
        <ele>266.32</ele>
        <time>2026-04-16T07:39:00.959Z</time>
      </trkpt>
      <trkpt lat="43.70427" lon="5.01258">
        <ele>262.63</ele>
        <time>2026-04-16T07:39:17.081Z</time>
      </trkpt>
      <trkpt lat="43.70428" lon="5.01258">
        <ele>266.41</ele>
        <time>2026-04-16T07:39:30.529Z</time>
      </trkpt>
      <trkpt lat="43.70429" lon="5.01258">
        <ele>262.49</ele>
        <time>2026-04-16T07:39:35.546Z</time>
      </trkpt>
      <trkpt lat="43.70431" lon="5.01258">
        <ele>265.87</ele>
        <time>2026-04-16T07:39:41.045Z</time>
      </trkpt>
      <trkpt lat="43.70433" lon="5.01258">
        <ele>267.4</ele>
        <time>2026-04-16T07:39:46.535Z</time>
      </trkpt>
      <trkpt lat="43.70435" lon="5.01258">
        <ele>265.47</ele>
        <time>2026-04-16T07:39:51.546Z</time>
      </trkpt>
      <trkpt lat="43.70436" lon="5.01258">
        <ele>265.38</ele>
        <time>2026-04-16T07:39:59.538Z</time>
      </trkpt>
      <trkpt lat="43.70436" lon="5.01258">
        <ele>266.49</ele>
        <time>2026-04-16T07:40:07.656Z</time>
      </trkpt>
      <trkpt lat="43.70437" lon="5.01259">
        <ele>266.57</ele>
        <time>2026-04-16T07:40:13.525Z</time>
      </trkpt>
      <trkpt lat="43.70439" lon="5.0126">
        <ele>266.33</ele>
        <time>2026-04-16T07:40:18.540Z</time>
      </trkpt>
      <trkpt lat="43.70444" lon="5.01256">
        <ele>266.37</ele>
        <time>2026-04-16T07:40:24.516Z</time>
      </trkpt>
      <trkpt lat="43.70444" lon="5.01253">
        <ele>267.35</ele>
        <time>2026-04-16T07:40:29.959Z</time>
      </trkpt>
      <trkpt lat="43.70445" lon="5.01251">
        <ele>268.63</ele>
        <time>2026-04-16T07:40:35.507Z</time>
      </trkpt>
      <trkpt lat="43.70446" lon="5.0125">
        <ele>269.25</ele>
        <time>2026-04-16T07:40:40.523Z</time>
      </trkpt>
      <trkpt lat="43.70448" lon="5.01249">
        <ele>269.37</ele>
        <time>2026-04-16T07:40:46.290Z</time>
      </trkpt>
      <trkpt lat="43.70452" lon="5.01245">
        <ele>270.56</ele>
        <time>2026-04-16T07:40:51.455Z</time>
      </trkpt>
      <trkpt lat="43.70453" lon="5.01242">
        <ele>270.85</ele>
        <time>2026-04-16T07:40:56.534Z</time>
      </trkpt>
      <trkpt lat="43.70452" lon="5.01243">
        <ele>270.67</ele>
        <time>2026-04-16T07:41:01.545Z</time>
      </trkpt>
      <trkpt lat="43.70452" lon="5.01244">
        <ele>271.15</ele>
        <time>2026-04-16T07:41:23.633Z</time>
      </trkpt>
      <trkpt lat="43.70452" lon="5.01246">
        <ele>269.99</ele>
        <time>2026-04-16T07:41:35.451Z</time>
      </trkpt>
      <trkpt lat="43.70455" lon="5.01248">
        <ele>269.18</ele>
        <time>2026-04-16T07:41:40.452Z</time>
      </trkpt>
      <trkpt lat="43.70456" lon="5.01249">
        <ele>269.2</ele>
        <time>2026-04-16T07:41:45.452Z</time>
      </trkpt>
      <trkpt lat="43.70461" lon="5.01249">
        <ele>269.11</ele>
        <time>2026-04-16T07:41:50.452Z</time>
      </trkpt>
      <trkpt lat="43.70465" lon="5.01248">
        <ele>269.32</ele>
        <time>2026-04-16T07:41:55.452Z</time>
      </trkpt>
      <trkpt lat="43.7047" lon="5.01252">
        <ele>269.89</ele>
        <time>2026-04-16T07:42:00.817Z</time>
      </trkpt>
      <trkpt lat="43.70475" lon="5.01252">
        <ele>268.81</ele>
        <time>2026-04-16T07:42:05.831Z</time>
      </trkpt>
      <trkpt lat="43.7048" lon="5.01252">
        <ele>268.09</ele>
        <time>2026-04-16T07:42:11.544Z</time>
      </trkpt>
      <trkpt lat="43.70481" lon="5.01254">
        <ele>267.8</ele>
        <time>2026-04-16T07:42:21.574Z</time>
      </trkpt>
      <trkpt lat="43.70487" lon="5.01255">
        <ele>268.27</ele>
        <time>2026-04-16T07:42:26.590Z</time>
      </trkpt>
      <trkpt lat="43.70493" lon="5.01255">
        <ele>267.73</ele>
        <time>2026-04-16T07:42:32.090Z</time>
      </trkpt>
      <trkpt lat="43.70498" lon="5.01251">
        <ele>268.06</ele>
        <time>2026-04-16T07:42:37.547Z</time>
      </trkpt>
      <trkpt lat="43.70501" lon="5.01252">
        <ele>268.57</ele>
        <time>2026-04-16T07:42:42.556Z</time>
      </trkpt>
      <trkpt lat="43.70505" lon="5.01252">
        <ele>268.97</ele>
        <time>2026-04-16T07:42:48.049Z</time>
      </trkpt>
      <trkpt lat="43.7051" lon="5.01252">
        <ele>268.36</ele>
        <time>2026-04-16T07:42:53.266Z</time>
      </trkpt>
      <trkpt lat="43.70513" lon="5.01254">
        <ele>268.24</ele>
        <time>2026-04-16T07:42:58.415Z</time>
      </trkpt>
      <trkpt lat="43.70514" lon="5.01256">
        <ele>268.76</ele>
        <time>2026-04-16T07:43:03.487Z</time>
      </trkpt>
      <trkpt lat="43.70515" lon="5.01257">
        <ele>271.51</ele>
        <time>2026-04-16T07:43:16.577Z</time>
      </trkpt>
      <trkpt lat="43.70519" lon="5.01258">
        <ele>272.06</ele>
        <time>2026-04-16T07:43:22.269Z</time>
      </trkpt>
      <trkpt lat="43.70522" lon="5.01257">
        <ele>273.11</ele>
        <time>2026-04-16T07:43:27.529Z</time>
      </trkpt>
      <trkpt lat="43.70527" lon="5.01258">
        <ele>272.99</ele>
        <time>2026-04-16T07:43:33.531Z</time>
      </trkpt>
      <trkpt lat="43.70529" lon="5.01258">
        <ele>273.34</ele>
        <time>2026-04-16T07:43:38.592Z</time>
      </trkpt>
      <trkpt lat="43.70536" lon="5.01262">
        <ele>273.84</ele>
        <time>2026-04-16T07:43:44.522Z</time>
      </trkpt>
      <trkpt lat="43.70541" lon="5.01264">
        <ele>274.94</ele>
        <time>2026-04-16T07:43:49.868Z</time>
      </trkpt>
      <trkpt lat="43.70544" lon="5.01266">
        <ele>275.79</ele>
        <time>2026-04-16T07:43:55.087Z</time>
      </trkpt>
      <trkpt lat="43.70545" lon="5.01265">
        <ele>277.12</ele>
        <time>2026-04-16T07:44:05.562Z</time>
      </trkpt>
      <trkpt lat="43.70546" lon="5.01265">
        <ele>279.64</ele>
        <time>2026-04-16T07:44:11.261Z</time>
      </trkpt>
      <trkpt lat="43.70547" lon="5.01264">
        <ele>278.22</ele>
        <time>2026-04-16T07:44:17.532Z</time>
      </trkpt>
      <trkpt lat="43.70548" lon="5.01265">
        <ele>278.27</ele>
        <time>2026-04-16T07:44:23.508Z</time>
      </trkpt>
      <trkpt lat="43.70556" lon="5.01265">
        <ele>278.83</ele>
        <time>2026-04-16T07:44:28.562Z</time>
      </trkpt>
      <trkpt lat="43.70562" lon="5.01258">
        <ele>279.63</ele>
        <time>2026-04-16T07:44:33.858Z</time>
      </trkpt>
      <trkpt lat="43.70565" lon="5.01256">
        <ele>279.23</ele>
        <time>2026-04-16T07:44:38.984Z</time>
      </trkpt>
      <trkpt lat="43.70565" lon="5.01254">
        <ele>278.74</ele>
        <time>2026-04-16T07:44:44.557Z</time>
      </trkpt>
      <trkpt lat="43.70567" lon="5.01255">
        <ele>278.68</ele>
        <time>2026-04-16T07:44:50.401Z</time>
      </trkpt>
      <trkpt lat="43.7057" lon="5.01257">
        <ele>277.61</ele>
        <time>2026-04-16T07:44:55.520Z</time>
      </trkpt>
      <trkpt lat="43.7057" lon="5.01258">
        <ele>277.57</ele>
        <time>2026-04-16T07:45:01.064Z</time>
      </trkpt>
      <trkpt lat="43.7057" lon="5.01259">
        <ele>276.68</ele>
        <time>2026-04-16T07:45:11.527Z</time>
      </trkpt>
      <trkpt lat="43.70571" lon="5.0126">
        <ele>276.43</ele>
        <time>2026-04-16T07:45:18.580Z</time>
      </trkpt>
      <trkpt lat="43.70572" lon="5.0126">
        <ele>275.82</ele>
        <time>2026-04-16T07:45:23.585Z</time>
      </trkpt>
      <trkpt lat="43.70573" lon="5.01261">
        <ele>275.13</ele>
        <time>2026-04-16T07:45:32.899Z</time>
      </trkpt>
      <trkpt lat="43.70579" lon="5.01263">
        <ele>275.16</ele>
        <time>2026-04-16T07:45:38.101Z</time>
      </trkpt>
      <trkpt lat="43.70587" lon="5.01262">
        <ele>275.13</ele>
        <time>2026-04-16T07:45:43.524Z</time>
      </trkpt>
      <trkpt lat="43.70594" lon="5.01261">
        <ele>275.39</ele>
        <time>2026-04-16T07:45:48.554Z</time>
      </trkpt>
      <trkpt lat="43.70598" lon="5.0126">
        <ele>275.2</ele>
        <time>2026-04-16T07:45:53.569Z</time>
      </trkpt>
      <trkpt lat="43.70603" lon="5.0126">
        <ele>275.48</ele>
        <time>2026-04-16T07:45:58.595Z</time>
      </trkpt>
      <trkpt lat="43.70606" lon="5.01262">
        <ele>275.36</ele>
        <time>2026-04-16T07:46:04.453Z</time>
      </trkpt>
      <trkpt lat="43.7061" lon="5.01264">
        <ele>273.57</ele>
        <time>2026-04-16T07:46:10.122Z</time>
      </trkpt>
      <trkpt lat="43.70612" lon="5.01262">
        <ele>273.11</ele>
        <time>2026-04-16T07:46:15.484Z</time>
      </trkpt>
      <trkpt lat="43.70614" lon="5.01262">
        <ele>272.53</ele>
        <time>2026-04-16T07:46:23.572Z</time>
      </trkpt>
      <trkpt lat="43.70618" lon="5.01262">
        <ele>272.53</ele>
        <time>2026-04-16T07:46:29.482Z</time>
      </trkpt>
      <trkpt lat="43.70623" lon="5.01259">
        <ele>272.8</ele>
        <time>2026-04-16T07:46:35.253Z</time>
      </trkpt>
      <trkpt lat="43.70629" lon="5.01258">
        <ele>271.69</ele>
        <time>2026-04-16T07:46:40.318Z</time>
      </trkpt>
      <trkpt lat="43.70633" lon="5.01255">
        <ele>271.52</ele>
        <time>2026-04-16T07:46:45.379Z</time>
      </trkpt>
      <trkpt lat="43.70636" lon="5.01251">
        <ele>271.01</ele>
        <time>2026-04-16T07:46:51.273Z</time>
      </trkpt>
      <trkpt lat="43.7064" lon="5.01247">
        <ele>270.8</ele>
        <time>2026-04-16T07:46:57.000Z</time>
      </trkpt>
      <trkpt lat="43.70645" lon="5.01245">
        <ele>270.92</ele>
        <time>2026-04-16T07:47:02.301Z</time>
      </trkpt>
      <trkpt lat="43.70649" lon="5.01241">
        <ele>271.51</ele>
        <time>2026-04-16T07:47:07.890Z</time>
      </trkpt>
      <trkpt lat="43.70649" lon="5.0124">
        <ele>273.17</ele>
        <time>2026-04-16T07:47:15.538Z</time>
      </trkpt>
      <trkpt lat="43.70649" lon="5.0124">
        <ele>274.22</ele>
        <time>2026-04-16T07:47:31.363Z</time>
      </trkpt>
      <trkpt lat="43.7065" lon="5.01237">
        <ele>276.04</ele>
        <time>2026-04-16T07:47:36.563Z</time>
      </trkpt>
      <trkpt lat="43.70652" lon="5.01237">
        <ele>276.27</ele>
        <time>2026-04-16T07:47:41.978Z</time>
      </trkpt>
      <trkpt lat="43.70654" lon="5.01235">
        <ele>277.37</ele>
        <time>2026-04-16T07:47:47.519Z</time>
      </trkpt>
      <trkpt lat="43.70655" lon="5.01234">
        <ele>278.15</ele>
        <time>2026-04-16T07:47:53.179Z</time>
      </trkpt>
      <trkpt lat="43.70657" lon="5.01233">
        <ele>281.08</ele>
        <time>2026-04-16T07:48:06.404Z</time>
      </trkpt>
      <trkpt lat="43.7066" lon="5.01232">
        <ele>280.84</ele>
        <time>2026-04-16T07:48:11.577Z</time>
      </trkpt>
      <trkpt lat="43.70662" lon="5.01232">
        <ele>282.82</ele>
        <time>2026-04-16T07:48:16.591Z</time>
      </trkpt>
      <trkpt lat="43.70665" lon="5.01229">
        <ele>282.57</ele>
        <time>2026-04-16T07:48:22.240Z</time>
      </trkpt>
      <trkpt lat="43.70667" lon="5.01228">
        <ele>282.95</ele>
        <time>2026-04-16T07:48:27.460Z</time>
      </trkpt>
      <trkpt lat="43.70668" lon="5.01227">
        <ele>284.45</ele>
        <time>2026-04-16T07:48:33.238Z</time>
      </trkpt>
      <trkpt lat="43.7067" lon="5.01227">
        <ele>283.28</ele>
        <time>2026-04-16T07:48:40.601Z</time>
      </trkpt>
      <trkpt lat="43.70672" lon="5.01227">
        <ele>284.38</ele>
        <time>2026-04-16T07:48:45.961Z</time>
      </trkpt>
      <trkpt lat="43.70674" lon="5.01227">
        <ele>283.64</ele>
        <time>2026-04-16T07:48:51.592Z</time>
      </trkpt>
      <trkpt lat="43.70675" lon="5.01227">
        <ele>284.08</ele>
        <time>2026-04-16T07:48:57.567Z</time>
      </trkpt>
      <trkpt lat="43.70676" lon="5.01227">
        <ele>284.94</ele>
        <time>2026-04-16T07:49:05.574Z</time>
      </trkpt>
      <trkpt lat="43.70677" lon="5.01227">
        <ele>284.73</ele>
        <time>2026-04-16T07:49:14.645Z</time>
      </trkpt>
      <trkpt lat="43.70678" lon="5.01227">
        <ele>285.7</ele>
        <time>2026-04-16T07:49:24.467Z</time>
      </trkpt>
      <trkpt lat="43.70679" lon="5.01227">
        <ele>285.85</ele>
        <time>2026-04-16T07:49:39.622Z</time>
      </trkpt>
      <trkpt lat="43.70681" lon="5.01227">
        <ele>286.16</ele>
        <time>2026-04-16T07:49:45.598Z</time>
      </trkpt>
      <trkpt lat="43.70684" lon="5.0123">
        <ele>285.81</ele>
        <time>2026-04-16T07:49:50.612Z</time>
      </trkpt>
      <trkpt lat="43.70686" lon="5.01235">
        <ele>285.16</ele>
        <time>2026-04-16T07:49:55.629Z</time>
      </trkpt>
      <trkpt lat="43.70692" lon="5.0124">
        <ele>285.34</ele>
        <time>2026-04-16T07:50:01.605Z</time>
      </trkpt>
      <trkpt lat="43.70694" lon="5.01247">
        <ele>285.22</ele>
        <time>2026-04-16T07:50:07.581Z</time>
      </trkpt>
      <trkpt lat="43.70693" lon="5.01251">
        <ele>284.58</ele>
        <time>2026-04-16T07:50:12.596Z</time>
      </trkpt>
      <trkpt lat="43.70692" lon="5.0125">
        <ele>284.68</ele>
        <time>2026-04-16T07:50:17.611Z</time>
      </trkpt>
      <trkpt lat="43.70691" lon="5.01248">
        <ele>284.95</ele>
        <time>2026-04-16T07:50:23.587Z</time>
      </trkpt>
      <trkpt lat="43.7069" lon="5.01247">
        <ele>285.14</ele>
        <time>2026-04-16T07:50:28.602Z</time>
      </trkpt>
      <trkpt lat="43.70689" lon="5.01246">
        <ele>284.8</ele>
        <time>2026-04-16T07:50:33.617Z</time>
      </trkpt>
      <trkpt lat="43.70689" lon="5.01244">
        <ele>284.79</ele>
        <time>2026-04-16T07:50:38.633Z</time>
      </trkpt>
      <trkpt lat="43.70688" lon="5.01242">
        <ele>284.91</ele>
        <time>2026-04-16T07:50:44.609Z</time>
      </trkpt>
      <trkpt lat="43.70688" lon="5.01241">
        <ele>285.03</ele>
        <time>2026-04-16T07:50:49.624Z</time>
      </trkpt>
      <trkpt lat="43.70688" lon="5.0124">
        <ele>284.6</ele>
        <time>2026-04-16T07:50:54.639Z</time>
      </trkpt>
      <trkpt lat="43.70687" lon="5.01239">
        <ele>284.53</ele>
        <time>2026-04-16T07:51:00.615Z</time>
      </trkpt>
      <trkpt lat="43.70685" lon="5.01237">
        <ele>284.25</ele>
        <time>2026-04-16T07:51:06.267Z</time>
      </trkpt>
      <trkpt lat="43.70687" lon="5.01231">
        <ele>284.08</ele>
        <time>2026-04-16T07:51:11.606Z</time>
      </trkpt>
      <trkpt lat="43.70689" lon="5.01226">
        <ele>285.06</ele>
        <time>2026-04-16T07:51:17.581Z</time>
      </trkpt>
      <trkpt lat="43.70694" lon="5.01225">
        <ele>286.59</ele>
        <time>2026-04-16T07:51:22.609Z</time>
      </trkpt>
      <trkpt lat="43.70698" lon="5.01223">
        <ele>285.78</ele>
        <time>2026-04-16T07:51:28.084Z</time>
      </trkpt>
      <trkpt lat="43.70701" lon="5.01223">
        <ele>284.75</ele>
        <time>2026-04-16T07:51:33.307Z</time>
      </trkpt>
      <trkpt lat="43.70704" lon="5.01223">
        <ele>283.78</ele>
        <time>2026-04-16T07:51:38.602Z</time>
      </trkpt>
      <trkpt lat="43.70706" lon="5.01225">
        <ele>283.7</ele>
        <time>2026-04-16T07:51:43.617Z</time>
      </trkpt>
      <trkpt lat="43.70709" lon="5.01223">
        <ele>283.67</ele>
        <time>2026-04-16T07:51:49.107Z</time>
      </trkpt>
      <trkpt lat="43.7071" lon="5.01221">
        <ele>283.21</ele>
        <time>2026-04-16T07:51:54.273Z</time>
      </trkpt>
      <trkpt lat="43.70713" lon="5.01221">
        <ele>284.47</ele>
        <time>2026-04-16T07:51:59.468Z</time>
      </trkpt>
      <trkpt lat="43.70715" lon="5.01222">
        <ele>283.56</ele>
        <time>2026-04-16T07:52:04.532Z</time>
      </trkpt>
      <trkpt lat="43.70721" lon="5.01218">
        <ele>282.91</ele>
        <time>2026-04-16T07:52:10.264Z</time>
      </trkpt>
      <trkpt lat="43.70728" lon="5.01215">
        <ele>282.18</ele>
        <time>2026-04-16T07:52:15.587Z</time>
      </trkpt>
      <trkpt lat="43.70735" lon="5.0121">
        <ele>282.78</ele>
        <time>2026-04-16T07:52:21.270Z</time>
      </trkpt>
      <trkpt lat="43.7074" lon="5.01209">
        <ele>283.15</ele>
        <time>2026-04-16T07:52:26.619Z</time>
      </trkpt>
      <trkpt lat="43.70743" lon="5.01208">
        <ele>282.72</ele>
        <time>2026-04-16T07:52:32.473Z</time>
      </trkpt>
      <trkpt lat="43.70743" lon="5.01209">
        <ele>282.01</ele>
        <time>2026-04-16T07:52:37.970Z</time>
      </trkpt>
      <trkpt lat="43.70744" lon="5.0121">
        <ele>281.65</ele>
        <time>2026-04-16T07:52:43.554Z</time>
      </trkpt>
      <trkpt lat="43.70745" lon="5.0121">
        <ele>279.54</ele>
        <time>2026-04-16T07:52:55.643Z</time>
      </trkpt>
      <trkpt lat="43.70746" lon="5.0121">
        <ele>278.11</ele>
        <time>2026-04-16T07:53:07.189Z</time>
      </trkpt>
      <trkpt lat="43.70748" lon="5.01209">
        <ele>277.56</ele>
        <time>2026-04-16T07:53:12.502Z</time>
      </trkpt>
      <trkpt lat="43.70749" lon="5.0121">
        <ele>276.32</ele>
        <time>2026-04-16T07:53:21.353Z</time>
      </trkpt>
      <trkpt lat="43.7075" lon="5.0121">
        <ele>276.06</ele>
        <time>2026-04-16T07:53:26.586Z</time>
      </trkpt>
      <trkpt lat="43.70751" lon="5.01211">
        <ele>275.1</ele>
        <time>2026-04-16T07:53:32.563Z</time>
      </trkpt>
      <trkpt lat="43.70752" lon="5.01211">
        <ele>274.22</ele>
        <time>2026-04-16T07:53:37.578Z</time>
      </trkpt>
      <trkpt lat="43.70753" lon="5.01211">
        <ele>272.39</ele>
        <time>2026-04-16T07:53:46.926Z</time>
      </trkpt>
      <trkpt lat="43.70754" lon="5.01212">
        <ele>271.76</ele>
        <time>2026-04-16T07:53:52.622Z</time>
      </trkpt>
      <trkpt lat="43.70754" lon="5.01213">
        <ele>271.85</ele>
        <time>2026-04-16T07:54:01.585Z</time>
      </trkpt>
      <trkpt lat="43.70755" lon="5.01213">
        <ele>272.74</ele>
        <time>2026-04-16T07:54:14.604Z</time>
      </trkpt>
      <trkpt lat="43.70757" lon="5.01212">
        <ele>272.45</ele>
        <time>2026-04-16T07:54:20.589Z</time>
      </trkpt>
      <trkpt lat="43.70758" lon="5.01212">
        <ele>273.35</ele>
        <time>2026-04-16T07:54:26.490Z</time>
      </trkpt>
      <trkpt lat="43.7076" lon="5.01212">
        <ele>272.88</ele>
        <time>2026-04-16T07:54:34.315Z</time>
      </trkpt>
      <trkpt lat="43.70767" lon="5.01214">
        <ele>273.67</ele>
        <time>2026-04-16T07:54:39.502Z</time>
      </trkpt>
      <trkpt lat="43.70775" lon="5.01213">
        <ele>272.89</ele>
        <time>2026-04-16T07:54:44.974Z</time>
      </trkpt>
      <trkpt lat="43.70777" lon="5.01213">
        <ele>271.95</ele>
        <time>2026-04-16T07:54:50.293Z</time>
      </trkpt>
      <trkpt lat="43.70776" lon="5.01211">
        <ele>271.54</ele>
        <time>2026-04-16T07:54:59.098Z</time>
      </trkpt>
      <trkpt lat="43.70776" lon="5.01209">
        <ele>271.11</ele>
        <time>2026-04-16T07:55:04.112Z</time>
      </trkpt>
      <trkpt lat="43.70776" lon="5.01206">
        <ele>271.31</ele>
        <time>2026-04-16T07:55:09.489Z</time>
      </trkpt>
      <trkpt lat="43.70776" lon="5.01204">
        <ele>271.44</ele>
        <time>2026-04-16T07:55:14.610Z</time>
      </trkpt>
      <trkpt lat="43.70776" lon="5.01202">
        <ele>271.64</ele>
        <time>2026-04-16T07:55:19.636Z</time>
      </trkpt>
      <trkpt lat="43.70777" lon="5.01199">
        <ele>271.19</ele>
        <time>2026-04-16T07:55:25.393Z</time>
      </trkpt>
      <trkpt lat="43.70778" lon="5.01196">
        <ele>270.85</ele>
        <time>2026-04-16T07:55:30.433Z</time>
      </trkpt>
      <trkpt lat="43.70779" lon="5.01196">
        <ele>270.91</ele>
        <time>2026-04-16T07:55:36.339Z</time>
      </trkpt>
      <trkpt lat="43.70783" lon="5.01193">
        <ele>271.61</ele>
        <time>2026-04-16T07:55:42.314Z</time>
      </trkpt>
      <trkpt lat="43.70784" lon="5.01193">
        <ele>271</ele>
        <time>2026-04-16T07:55:47.584Z</time>
      </trkpt>
      <trkpt lat="43.70785" lon="5.01192">
        <ele>270.64</ele>
        <time>2026-04-16T07:55:56.919Z</time>
      </trkpt>
      <trkpt lat="43.70787" lon="5.0119">
        <ele>270.61</ele>
        <time>2026-04-16T07:56:02.137Z</time>
      </trkpt>
      <trkpt lat="43.70789" lon="5.01188">
        <ele>269.7</ele>
        <time>2026-04-16T07:56:07.174Z</time>
      </trkpt>
      <trkpt lat="43.70791" lon="5.01186">
        <ele>269.57</ele>
        <time>2026-04-16T07:56:13.293Z</time>
      </trkpt>
      <trkpt lat="43.70797" lon="5.01186">
        <ele>269.01</ele>
        <time>2026-04-16T07:56:18.451Z</time>
      </trkpt>
      <trkpt lat="43.70799" lon="5.01185">
        <ele>268.91</ele>
        <time>2026-04-16T07:56:23.784Z</time>
      </trkpt>
      <trkpt lat="43.708" lon="5.01184">
        <ele>268.49</ele>
        <time>2026-04-16T07:56:29.626Z</time>
      </trkpt>
      <trkpt lat="43.708" lon="5.01183">
        <ele>269.23</ele>
        <time>2026-04-16T07:56:36.562Z</time>
      </trkpt>
      <trkpt lat="43.70803" lon="5.01181">
        <ele>268.59</ele>
        <time>2026-04-16T07:56:42.213Z</time>
      </trkpt>
      <trkpt lat="43.70805" lon="5.0118">
        <ele>267.78</ele>
        <time>2026-04-16T07:56:48.020Z</time>
      </trkpt>
      <trkpt lat="43.70809" lon="5.01175">
        <ele>268.32</ele>
        <time>2026-04-16T07:56:53.165Z</time>
      </trkpt>
      <trkpt lat="43.70817" lon="5.0117">
        <ele>268.44</ele>
        <time>2026-04-16T07:56:58.377Z</time>
      </trkpt>
      <trkpt lat="43.70824" lon="5.01172">
        <ele>268.62</ele>
        <time>2026-04-16T07:57:04.133Z</time>
      </trkpt>
      <trkpt lat="43.70828" lon="5.01172">
        <ele>269.24</ele>
        <time>2026-04-16T07:57:09.535Z</time>
      </trkpt>
      <trkpt lat="43.70829" lon="5.01173">
        <ele>269.72</ele>
        <time>2026-04-16T07:57:14.551Z</time>
      </trkpt>
      <trkpt lat="43.7083" lon="5.01172">
        <ele>270.23</ele>
        <time>2026-04-16T07:57:30.557Z</time>
      </trkpt>
      <trkpt lat="43.70832" lon="5.0117">
        <ele>269.72</ele>
        <time>2026-04-16T07:57:35.618Z</time>
      </trkpt>
      <trkpt lat="43.70834" lon="5.01172">
        <ele>269.92</ele>
        <time>2026-04-16T07:57:41.548Z</time>
      </trkpt>
      <trkpt lat="43.70835" lon="5.01173">
        <ele>270.54</ele>
        <time>2026-04-16T07:57:47.629Z</time>
      </trkpt>
      <trkpt lat="43.70836" lon="5.01173">
        <ele>272.53</ele>
        <time>2026-04-16T07:57:54.837Z</time>
      </trkpt>
      <trkpt lat="43.70839" lon="5.01174">
        <ele>272.1</ele>
        <time>2026-04-16T07:58:00.394Z</time>
      </trkpt>
      <trkpt lat="43.70843" lon="5.01174">
        <ele>271.66</ele>
        <time>2026-04-16T07:58:05.557Z</time>
      </trkpt>
      <trkpt lat="43.7085" lon="5.01177">
        <ele>270.38</ele>
        <time>2026-04-16T07:58:11.285Z</time>
      </trkpt>
      <trkpt lat="43.70856" lon="5.01181">
        <ele>270.41</ele>
        <time>2026-04-16T07:58:16.548Z</time>
      </trkpt>
      <trkpt lat="43.7086" lon="5.01181">
        <ele>272.03</ele>
        <time>2026-04-16T07:58:21.563Z</time>
      </trkpt>
      <trkpt lat="43.70862" lon="5.01179">
        <ele>272.02</ele>
        <time>2026-04-16T07:58:26.910Z</time>
      </trkpt>
      <trkpt lat="43.70865" lon="5.01177">
        <ele>272.89</ele>
        <time>2026-04-16T07:58:32.113Z</time>
      </trkpt>
      <trkpt lat="43.70869" lon="5.01176">
        <ele>274.14</ele>
        <time>2026-04-16T07:58:37.570Z</time>
      </trkpt>
      <trkpt lat="43.70869" lon="5.01178">
        <ele>273.78</ele>
        <time>2026-04-16T07:58:42.585Z</time>
      </trkpt>
      <trkpt lat="43.7087" lon="5.01181">
        <ele>273.84</ele>
        <time>2026-04-16T07:58:47.599Z</time>
      </trkpt>
      <trkpt lat="43.70871" lon="5.01182">
        <ele>273.48</ele>
        <time>2026-04-16T07:58:55.602Z</time>
      </trkpt>
      <trkpt lat="43.70871" lon="5.01185">
        <ele>273.73</ele>
        <time>2026-04-16T07:59:13.637Z</time>
      </trkpt>
      <trkpt lat="43.70871" lon="5.01191">
        <ele>273.73</ele>
        <time>2026-04-16T07:59:19.505Z</time>
      </trkpt>
      <trkpt lat="43.7087" lon="5.01192">
        <ele>273.29</ele>
        <time>2026-04-16T07:59:26.548Z</time>
      </trkpt>
      <trkpt lat="43.7087" lon="5.01191">
        <ele>274.35</ele>
        <time>2026-04-16T08:00:11.581Z</time>
      </trkpt>
      <trkpt lat="43.7087" lon="5.0119">
        <ele>274.98</ele>
        <time>2026-04-16T08:00:38.578Z</time>
      </trkpt>
      <trkpt lat="43.7087" lon="5.01189">
        <ele>274.77</ele>
        <time>2026-04-16T08:01:30.545Z</time>
      </trkpt>
      <trkpt lat="43.70871" lon="5.01189">
        <ele>274.87</ele>
        <time>2026-04-16T08:01:49.540Z</time>
      </trkpt>
      <trkpt lat="43.70871" lon="5.01189">
        <ele>278.28</ele>
        <time>2026-04-16T08:02:28.596Z</time>
      </trkpt>
      <trkpt lat="43.70872" lon="5.01186">
        <ele>277.4</ele>
        <time>2026-04-16T08:02:33.611Z</time>
      </trkpt>
      <trkpt lat="43.70871" lon="5.01184">
        <ele>278.14</ele>
        <time>2026-04-16T08:02:38.626Z</time>
      </trkpt>
      <trkpt lat="43.7087" lon="5.01181">
        <ele>279.23</ele>
        <time>2026-04-16T08:02:44.603Z</time>
      </trkpt>
      <trkpt lat="43.70871" lon="5.01179">
        <ele>279.84</ele>
        <time>2026-04-16T08:02:49.618Z</time>
      </trkpt>
      <trkpt lat="43.70871" lon="5.01178">
        <ele>279.84</ele>
        <time>2026-04-16T08:02:54.634Z</time>
      </trkpt>
      <trkpt lat="43.70871" lon="5.01177">
        <ele>282.35</ele>
        <time>2026-04-16T08:03:00.608Z</time>
      </trkpt>
      <trkpt lat="43.7087" lon="5.01176">
        <ele>282.21</ele>
        <time>2026-04-16T08:03:07.479Z</time>
      </trkpt>
      <trkpt lat="43.7087" lon="5.01174">
        <ele>282.21</ele>
        <time>2026-04-16T08:03:12.669Z</time>
      </trkpt>
      <trkpt lat="43.70869" lon="5.0117">
        <ele>284.15</ele>
        <time>2026-04-16T08:03:17.874Z</time>
      </trkpt>
      <trkpt lat="43.70869" lon="5.01167">
        <ele>284.67</ele>
        <time>2026-04-16T08:03:23.110Z</time>
      </trkpt>
      <trkpt lat="43.70869" lon="5.01166">
        <ele>284.62</ele>
        <time>2026-04-16T08:03:29.671Z</time>
      </trkpt>
      <trkpt lat="43.7087" lon="5.01163">
        <ele>284.13</ele>
        <time>2026-04-16T08:03:35.553Z</time>
      </trkpt>
      <trkpt lat="43.70871" lon="5.01161">
        <ele>283.97</ele>
        <time>2026-04-16T08:03:40.634Z</time>
      </trkpt>
      <trkpt lat="43.70871" lon="5.01159">
        <ele>282.09</ele>
        <time>2026-04-16T08:03:56.534Z</time>
      </trkpt>
      <trkpt lat="43.70872" lon="5.01158">
        <ele>280.79</ele>
        <time>2026-04-16T08:04:02.436Z</time>
      </trkpt>
      <trkpt lat="43.70873" lon="5.01159">
        <ele>280.42</ele>
        <time>2026-04-16T08:04:13.497Z</time>
      </trkpt>
      <trkpt lat="43.70874" lon="5.01158">
        <ele>279.57</ele>
        <time>2026-04-16T08:04:19.132Z</time>
      </trkpt>
      <trkpt lat="43.70876" lon="5.01156">
        <ele>278.87</ele>
        <time>2026-04-16T08:04:24.159Z</time>
      </trkpt>
      <trkpt lat="43.70879" lon="5.01155">
        <ele>280.72</ele>
        <time>2026-04-16T08:04:29.613Z</time>
      </trkpt>
      <trkpt lat="43.70879" lon="5.01154">
        <ele>281.98</ele>
        <time>2026-04-16T08:04:35.111Z</time>
      </trkpt>
      <trkpt lat="43.70882" lon="5.01152">
        <ele>281.14</ele>
        <time>2026-04-16T08:04:40.571Z</time>
      </trkpt>
      <trkpt lat="43.70884" lon="5.01148">
        <ele>280.68</ele>
        <time>2026-04-16T08:04:45.619Z</time>
      </trkpt>
      <trkpt lat="43.70887" lon="5.01147">
        <ele>281.14</ele>
        <time>2026-04-16T08:04:50.634Z</time>
      </trkpt>
      <trkpt lat="43.70889" lon="5.01146">
        <ele>280.87</ele>
        <time>2026-04-16T08:04:56.268Z</time>
      </trkpt>
      <trkpt lat="43.70891" lon="5.01143">
        <ele>281.22</ele>
        <time>2026-04-16T08:05:01.531Z</time>
      </trkpt>
      <trkpt lat="43.70892" lon="5.01143">
        <ele>282.38</ele>
        <time>2026-04-16T08:05:06.748Z</time>
      </trkpt>
      <trkpt lat="43.70893" lon="5.01141">
        <ele>284.57</ele>
        <time>2026-04-16T08:05:12.617Z</time>
      </trkpt>
      <trkpt lat="43.70893" lon="5.01139">
        <ele>284.69</ele>
        <time>2026-04-16T08:05:17.972Z</time>
      </trkpt>
      <trkpt lat="43.70894" lon="5.01137">
        <ele>284.35</ele>
        <time>2026-04-16T08:05:23.607Z</time>
      </trkpt>
      <trkpt lat="43.70894" lon="5.01132">
        <ele>284.01</ele>
        <time>2026-04-16T08:05:29.100Z</time>
      </trkpt>
      <trkpt lat="43.70895" lon="5.01131">
        <ele>285.67</ele>
        <time>2026-04-16T08:05:34.213Z</time>
      </trkpt>
      <trkpt lat="43.70896" lon="5.01131">
        <ele>285.34</ele>
        <time>2026-04-16T08:05:40.454Z</time>
      </trkpt>
      <trkpt lat="43.70898" lon="5.01129">
        <ele>284.96</ele>
        <time>2026-04-16T08:05:45.589Z</time>
      </trkpt>
      <trkpt lat="43.709" lon="5.01128">
        <ele>286.47</ele>
        <time>2026-04-16T08:05:50.605Z</time>
      </trkpt>
      <trkpt lat="43.70904" lon="5.01125">
        <ele>286.73</ele>
        <time>2026-04-16T08:05:56.478Z</time>
      </trkpt>
      <trkpt lat="43.70904" lon="5.01122">
        <ele>287.4</ele>
        <time>2026-04-16T08:06:01.596Z</time>
      </trkpt>
      <trkpt lat="43.70906" lon="5.0112">
        <ele>286.98</ele>
        <time>2026-04-16T08:06:06.998Z</time>
      </trkpt>
      <trkpt lat="43.70908" lon="5.01119">
        <ele>286.57</ele>
        <time>2026-04-16T08:06:12.495Z</time>
      </trkpt>
      <trkpt lat="43.7091" lon="5.01118">
        <ele>288.01</ele>
        <time>2026-04-16T08:06:17.793Z</time>
      </trkpt>
      <trkpt lat="43.70912" lon="5.01117">
        <ele>287.45</ele>
        <time>2026-04-16T08:06:23.651Z</time>
      </trkpt>
      <trkpt lat="43.70914" lon="5.01117">
        <ele>286.58</ele>
        <time>2026-04-16T08:06:29.290Z</time>
      </trkpt>
      <trkpt lat="43.70917" lon="5.01117">
        <ele>286.4</ele>
        <time>2026-04-16T08:06:34.614Z</time>
      </trkpt>
      <trkpt lat="43.7092" lon="5.01117">
        <ele>284.93</ele>
        <time>2026-04-16T08:06:40.415Z</time>
      </trkpt>
      <trkpt lat="43.70925" lon="5.01113">
        <ele>283.55</ele>
        <time>2026-04-16T08:06:46.151Z</time>
      </trkpt>
      <trkpt lat="43.7093" lon="5.01111">
        <ele>283.15</ele>
        <time>2026-04-16T08:06:51.352Z</time>
      </trkpt>
      <trkpt lat="43.70933" lon="5.01107">
        <ele>283.94</ele>
        <time>2026-04-16T08:06:56.658Z</time>
      </trkpt>
      <trkpt lat="43.70934" lon="5.01108">
        <ele>284.22</ele>
        <time>2026-04-16T08:07:02.093Z</time>
      </trkpt>
      <trkpt lat="43.70935" lon="5.01108">
        <ele>288.21</ele>
        <time>2026-04-16T08:07:12.116Z</time>
      </trkpt>
      <trkpt lat="43.70936" lon="5.01108">
        <ele>287.36</ele>
        <time>2026-04-16T08:07:19.550Z</time>
      </trkpt>
      <trkpt lat="43.70939" lon="5.01106">
        <ele>286.18</ele>
        <time>2026-04-16T08:07:24.770Z</time>
      </trkpt>
      <trkpt lat="43.70945" lon="5.01108">
        <ele>286.2</ele>
        <time>2026-04-16T08:07:29.891Z</time>
      </trkpt>
      <trkpt lat="43.70949" lon="5.01113">
        <ele>286.15</ele>
        <time>2026-04-16T08:07:35.418Z</time>
      </trkpt>
      <trkpt lat="43.70953" lon="5.01112">
        <ele>285.57</ele>
        <time>2026-04-16T08:07:41.276Z</time>
      </trkpt>
      <trkpt lat="43.70954" lon="5.01112">
        <ele>286.47</ele>
        <time>2026-04-16T08:07:51.394Z</time>
      </trkpt>
      <trkpt lat="43.70955" lon="5.01111">
        <ele>286.97</ele>
        <time>2026-04-16T08:07:56.491Z</time>
      </trkpt>
      <trkpt lat="43.70955" lon="5.0111">
        <ele>288.73</ele>
        <time>2026-04-16T08:08:01.644Z</time>
      </trkpt>
      <trkpt lat="43.70956" lon="5.0111">
        <ele>290.27</ele>
        <time>2026-04-16T08:08:08.273Z</time>
      </trkpt>
      <trkpt lat="43.70957" lon="5.01107">
        <ele>291.31</ele>
        <time>2026-04-16T08:08:13.596Z</time>
      </trkpt>
      <trkpt lat="43.70958" lon="5.01105">
        <ele>292.92</ele>
        <time>2026-04-16T08:08:19.398Z</time>
      </trkpt>
      <trkpt lat="43.70958" lon="5.01104">
        <ele>293.1</ele>
        <time>2026-04-16T08:08:25.052Z</time>
      </trkpt>
      <trkpt lat="43.70961" lon="5.01102">
        <ele>294.54</ele>
        <time>2026-04-16T08:08:30.555Z</time>
      </trkpt>
      <trkpt lat="43.70966" lon="5.011">
        <ele>295.72</ele>
        <time>2026-04-16T08:08:36.319Z</time>
      </trkpt>
      <trkpt lat="43.7097" lon="5.01097">
        <ele>295.98</ele>
        <time>2026-04-16T08:08:41.553Z</time>
      </trkpt>
      <trkpt lat="43.70974" lon="5.01095">
        <ele>296.43</ele>
        <time>2026-04-16T08:08:47.281Z</time>
      </trkpt>
      <trkpt lat="43.70978" lon="5.01092">
        <ele>296.43</ele>
        <time>2026-04-16T08:08:52.415Z</time>
      </trkpt>
      <trkpt lat="43.70979" lon="5.01092">
        <ele>296.71</ele>
        <time>2026-04-16T08:08:58.053Z</time>
      </trkpt>
      <trkpt lat="43.7098" lon="5.0109">
        <ele>300.52</ele>
        <time>2026-04-16T08:09:10.579Z</time>
      </trkpt>
      <trkpt lat="43.70979" lon="5.01088">
        <ele>300.23</ele>
        <time>2026-04-16T08:09:15.659Z</time>
      </trkpt>
      <trkpt lat="43.70978" lon="5.01084">
        <ele>301.04</ele>
        <time>2026-04-16T08:09:21.556Z</time>
      </trkpt>
      <trkpt lat="43.70979" lon="5.01083">
        <ele>304</ele>
        <time>2026-04-16T08:09:26.900Z</time>
      </trkpt>
      <trkpt lat="43.70979" lon="5.01082">
        <ele>303.79</ele>
        <time>2026-04-16T08:09:35.364Z</time>
      </trkpt>
      <trkpt lat="43.70979" lon="5.0108">
        <ele>303.87</ele>
        <time>2026-04-16T08:09:41.278Z</time>
      </trkpt>
      <trkpt lat="43.70979" lon="5.01079">
        <ele>305.19</ele>
        <time>2026-04-16T08:09:49.528Z</time>
      </trkpt>
      <trkpt lat="43.70978" lon="5.01079">
        <ele>304.59</ele>
        <time>2026-04-16T08:10:10.337Z</time>
      </trkpt>
      <trkpt lat="43.70979" lon="5.01079">
        <ele>305.33</ele>
        <time>2026-04-16T08:10:47.577Z</time>
      </trkpt>
      <trkpt lat="43.7098" lon="5.01079">
        <ele>304.52</ele>
        <time>2026-04-16T08:10:58.314Z</time>
      </trkpt>
      <trkpt lat="43.70981" lon="5.01079">
        <ele>304.9</ele>
        <time>2026-04-16T08:11:29.621Z</time>
      </trkpt>
      <trkpt lat="43.70981" lon="5.01078">
        <ele>304.46</ele>
        <time>2026-04-16T08:11:51.602Z</time>
      </trkpt>
      <trkpt lat="43.70981" lon="5.01077">
        <ele>304.19</ele>
        <time>2026-04-16T08:12:16.488Z</time>
      </trkpt>
      <trkpt lat="43.70981" lon="5.01064">
        <ele>305.39</ele>
        <time>2026-04-16T08:12:21.488Z</time>
      </trkpt>
      <trkpt lat="43.70983" lon="5.0107">
        <ele>304.17</ele>
        <time>2026-04-16T08:12:27.488Z</time>
      </trkpt>
      <trkpt lat="43.70981" lon="5.01072">
        <ele>304.37</ele>
        <time>2026-04-16T08:12:37.488Z</time>
      </trkpt>
      <trkpt lat="43.70979" lon="5.0107">
        <ele>303.89</ele>
        <time>2026-04-16T08:12:42.489Z</time>
      </trkpt>
      <trkpt lat="43.70981" lon="5.0107">
        <ele>304.08</ele>
        <time>2026-04-16T08:12:47.489Z</time>
      </trkpt>
      <trkpt lat="43.70984" lon="5.0107">
        <ele>303.22</ele>
        <time>2026-04-16T08:12:52.489Z</time>
      </trkpt>
      <trkpt lat="43.70987" lon="5.01072">
        <ele>301.88</ele>
        <time>2026-04-16T08:12:57.489Z</time>
      </trkpt>
      <trkpt lat="43.70992" lon="5.01079">
        <ele>300.39</ele>
        <time>2026-04-16T08:13:02.611Z</time>
      </trkpt>
      <trkpt lat="43.70997" lon="5.01079">
        <ele>299.46</ele>
        <time>2026-04-16T08:13:08.028Z</time>
      </trkpt>
      <trkpt lat="43.71" lon="5.01079">
        <ele>298.71</ele>
        <time>2026-04-16T08:13:13.255Z</time>
      </trkpt>
      <trkpt lat="43.71003" lon="5.01076">
        <ele>297.5</ele>
        <time>2026-04-16T08:13:19.049Z</time>
      </trkpt>
      <trkpt lat="43.71006" lon="5.01072">
        <ele>296.51</ele>
        <time>2026-04-16T08:13:24.428Z</time>
      </trkpt>
      <trkpt lat="43.71009" lon="5.01075">
        <ele>295.22</ele>
        <time>2026-04-16T08:13:29.581Z</time>
      </trkpt>
      <trkpt lat="43.71012" lon="5.01075">
        <ele>294.57</ele>
        <time>2026-04-16T08:13:34.596Z</time>
      </trkpt>
      <trkpt lat="43.71016" lon="5.01077">
        <ele>293.34</ele>
        <time>2026-04-16T08:13:40.357Z</time>
      </trkpt>
      <trkpt lat="43.71018" lon="5.01079">
        <ele>292.3</ele>
        <time>2026-04-16T08:13:45.587Z</time>
      </trkpt>
      <trkpt lat="43.71019" lon="5.0108">
        <ele>291.49</ele>
        <time>2026-04-16T08:13:51.308Z</time>
      </trkpt>
      <trkpt lat="43.7102" lon="5.01081">
        <ele>290.77</ele>
        <time>2026-04-16T08:13:56.652Z</time>
      </trkpt>
      <trkpt lat="43.71022" lon="5.01084">
        <ele>289.51</ele>
        <time>2026-04-16T08:14:02.260Z</time>
      </trkpt>
      <trkpt lat="43.71024" lon="5.01087">
        <ele>288.12</ele>
        <time>2026-04-16T08:14:07.348Z</time>
      </trkpt>
      <trkpt lat="43.71024" lon="5.01089">
        <ele>288.89</ele>
        <time>2026-04-16T08:14:12.572Z</time>
      </trkpt>
      <trkpt lat="43.71027" lon="5.0109">
        <ele>288.59</ele>
        <time>2026-04-16T08:14:17.995Z</time>
      </trkpt>
      <trkpt lat="43.71028" lon="5.01091">
        <ele>286.38</ele>
        <time>2026-04-16T08:14:38.513Z</time>
      </trkpt>
      <trkpt lat="43.71031" lon="5.01093">
        <ele>284.9</ele>
        <time>2026-04-16T08:14:44.447Z</time>
      </trkpt>
      <trkpt lat="43.71033" lon="5.01095">
        <ele>285.21</ele>
        <time>2026-04-16T08:14:49.609Z</time>
      </trkpt>
      <trkpt lat="43.71034" lon="5.01096">
        <ele>284.87</ele>
        <time>2026-04-16T08:14:55.077Z</time>
      </trkpt>
      <trkpt lat="43.71036" lon="5.01097">
        <ele>285.31</ele>
        <time>2026-04-16T08:15:00.611Z</time>
      </trkpt>
      <trkpt lat="43.71038" lon="5.01098">
        <ele>286.5</ele>
        <time>2026-04-16T08:15:05.616Z</time>
      </trkpt>
      <trkpt lat="43.71039" lon="5.01098">
        <ele>286.58</ele>
        <time>2026-04-16T08:15:10.630Z</time>
      </trkpt>
      <trkpt lat="43.71041" lon="5.01099">
        <ele>286.72</ele>
        <time>2026-04-16T08:15:15.645Z</time>
      </trkpt>
      <trkpt lat="43.71046" lon="5.01104">
        <ele>286.84</ele>
        <time>2026-04-16T08:15:21.509Z</time>
      </trkpt>
      <trkpt lat="43.7105" lon="5.01105">
        <ele>285.66</ele>
        <time>2026-04-16T08:15:26.636Z</time>
      </trkpt>
      <trkpt lat="43.71052" lon="5.01105">
        <ele>285.43</ele>
        <time>2026-04-16T08:15:31.652Z</time>
      </trkpt>
      <trkpt lat="43.71053" lon="5.01104">
        <ele>284.35</ele>
        <time>2026-04-16T08:15:37.627Z</time>
      </trkpt>
      <trkpt lat="43.71054" lon="5.01104">
        <ele>284.4</ele>
        <time>2026-04-16T08:15:45.630Z</time>
      </trkpt>
      <trkpt lat="43.7106" lon="5.01109">
        <ele>285.11</ele>
        <time>2026-04-16T08:15:51.688Z</time>
      </trkpt>
      <trkpt lat="43.71064" lon="5.0111">
        <ele>284.37</ele>
        <time>2026-04-16T08:15:57.114Z</time>
      </trkpt>
      <trkpt lat="43.71065" lon="5.01111">
        <ele>284.44</ele>
        <time>2026-04-16T08:16:02.173Z</time>
      </trkpt>
      <trkpt lat="43.71069" lon="5.01114">
        <ele>283.34</ele>
        <time>2026-04-16T08:16:07.650Z</time>
      </trkpt>
      <trkpt lat="43.71077" lon="5.01118">
        <ele>283.14</ele>
        <time>2026-04-16T08:16:13.587Z</time>
      </trkpt>
      <trkpt lat="43.7108" lon="5.01117">
        <ele>281.83</ele>
        <time>2026-04-16T08:16:18.602Z</time>
      </trkpt>
      <trkpt lat="43.71082" lon="5.0112">
        <ele>280.71</ele>
        <time>2026-04-16T08:16:24.256Z</time>
      </trkpt>
      <trkpt lat="43.71087" lon="5.0112">
        <ele>280.57</ele>
        <time>2026-04-16T08:16:29.871Z</time>
      </trkpt>
      <trkpt lat="43.71092" lon="5.01114">
        <ele>279.37</ele>
        <time>2026-04-16T08:16:35.492Z</time>
      </trkpt>
      <trkpt lat="43.71096" lon="5.01112">
        <ele>278.57</ele>
        <time>2026-04-16T08:16:41.330Z</time>
      </trkpt>
      <trkpt lat="43.71099" lon="5.01109">
        <ele>277.69</ele>
        <time>2026-04-16T08:16:47.087Z</time>
      </trkpt>
      <trkpt lat="43.71099" lon="5.01103">
        <ele>276.59</ele>
        <time>2026-04-16T08:16:52.332Z</time>
      </trkpt>
      <trkpt lat="43.711" lon="5.01102">
        <ele>277.31</ele>
        <time>2026-04-16T08:16:57.474Z</time>
      </trkpt>
      <trkpt lat="43.711" lon="5.01103">
        <ele>277.38</ele>
        <time>2026-04-16T08:17:03.429Z</time>
      </trkpt>
      <trkpt lat="43.71101" lon="5.01104">
        <ele>274.86</ele>
        <time>2026-04-16T08:17:08.647Z</time>
      </trkpt>
      <trkpt lat="43.71102" lon="5.01103">
        <ele>277.6</ele>
        <time>2026-04-16T08:17:16.430Z</time>
      </trkpt>
      <trkpt lat="43.71101" lon="5.01098">
        <ele>274</ele>
        <time>2026-04-16T08:17:22.624Z</time>
      </trkpt>
      <trkpt lat="43.71099" lon="5.01099">
        <ele>274.09</ele>
        <time>2026-04-16T08:17:27.639Z</time>
      </trkpt>
      <trkpt lat="43.71099" lon="5.01098">
        <ele>273.05</ele>
        <time>2026-04-16T08:17:38.631Z</time>
      </trkpt>
      <trkpt lat="43.711" lon="5.01097">
        <ele>272.29</ele>
        <time>2026-04-16T08:17:44.371Z</time>
      </trkpt>
      <trkpt lat="43.71102" lon="5.01096">
        <ele>270.94</ele>
        <time>2026-04-16T08:17:49.553Z</time>
      </trkpt>
      <trkpt lat="43.71102" lon="5.01094">
        <ele>270.89</ele>
        <time>2026-04-16T08:17:55.385Z</time>
      </trkpt>
      <trkpt lat="43.71107" lon="5.0109">
        <ele>271.31</ele>
        <time>2026-04-16T08:18:00.507Z</time>
      </trkpt>
      <trkpt lat="43.71112" lon="5.01087">
        <ele>269.53</ele>
        <time>2026-04-16T08:18:05.539Z</time>
      </trkpt>
      <trkpt lat="43.7112" lon="5.01087">
        <ele>269.01</ele>
        <time>2026-04-16T08:18:11.514Z</time>
      </trkpt>
      <trkpt lat="43.71124" lon="5.01085">
        <ele>269.07</ele>
        <time>2026-04-16T08:18:17.597Z</time>
      </trkpt>
      <trkpt lat="43.71123" lon="5.01088">
        <ele>268.89</ele>
        <time>2026-04-16T08:18:23.166Z</time>
      </trkpt>
      <trkpt lat="43.71122" lon="5.01086">
        <ele>268.6</ele>
        <time>2026-04-16T08:18:28.268Z</time>
      </trkpt>
      <trkpt lat="43.71126" lon="5.01083">
        <ele>268.24</ele>
        <time>2026-04-16T08:18:33.663Z</time>
      </trkpt>
      <trkpt lat="43.7113" lon="5.01083">
        <ele>266.67</ele>
        <time>2026-04-16T08:18:39.580Z</time>
      </trkpt>
      <trkpt lat="43.71132" lon="5.01083">
        <ele>265.5</ele>
        <time>2026-04-16T08:18:45.555Z</time>
      </trkpt>
      <trkpt lat="43.71133" lon="5.01083">
        <ele>263.28</ele>
        <time>2026-04-16T08:18:50.860Z</time>
      </trkpt>
      <trkpt lat="43.71134" lon="5.01082">
        <ele>261.17</ele>
        <time>2026-04-16T08:19:01.120Z</time>
      </trkpt>
      <trkpt lat="43.71137" lon="5.01077">
        <ele>260.06</ele>
        <time>2026-04-16T08:19:06.262Z</time>
      </trkpt>
      <trkpt lat="43.7114" lon="5.0108">
        <ele>260.18</ele>
        <time>2026-04-16T08:19:11.339Z</time>
      </trkpt>
      <trkpt lat="43.71141" lon="5.0108">
        <ele>258.46</ele>
        <time>2026-04-16T08:19:16.608Z</time>
      </trkpt>
      <trkpt lat="43.71141" lon="5.01078">
        <ele>254.46</ele>
        <time>2026-04-16T08:19:35.081Z</time>
      </trkpt>
      <trkpt lat="43.71142" lon="5.01077">
        <ele>253.3</ele>
        <time>2026-04-16T08:19:43.285Z</time>
      </trkpt>
      <trkpt lat="43.71149" lon="5.01067">
        <ele>251.57</ele>
        <time>2026-04-16T08:19:49.406Z</time>
      </trkpt>
      <trkpt lat="43.7115" lon="5.01061">
        <ele>250.6</ele>
        <time>2026-04-16T08:19:54.544Z</time>
      </trkpt>
      <trkpt lat="43.7115" lon="5.01056">
        <ele>249.69</ele>
        <time>2026-04-16T08:19:59.976Z</time>
      </trkpt>
      <trkpt lat="43.71151" lon="5.01053">
        <ele>249.34</ele>
        <time>2026-04-16T08:20:05.038Z</time>
      </trkpt>
      <trkpt lat="43.71152" lon="5.01051">
        <ele>248.77</ele>
        <time>2026-04-16T08:20:10.460Z</time>
      </trkpt>
      <trkpt lat="43.71151" lon="5.01051">
        <ele>246.75</ele>
        <time>2026-04-16T08:20:15.616Z</time>
      </trkpt>
      <trkpt lat="43.71153" lon="5.01046">
        <ele>245.4</ele>
        <time>2026-04-16T08:20:20.983Z</time>
      </trkpt>
      <trkpt lat="43.71153" lon="5.01046">
        <ele>244.09</ele>
        <time>2026-04-16T08:20:27.541Z</time>
      </trkpt>
      <trkpt lat="43.71155" lon="5.01045">
        <ele>243.8</ele>
        <time>2026-04-16T08:20:39.564Z</time>
      </trkpt>
      <trkpt lat="43.71156" lon="5.01045">
        <ele>242.77</ele>
        <time>2026-04-16T08:20:44.703Z</time>
      </trkpt>
      <trkpt lat="43.71158" lon="5.01041">
        <ele>241.79</ele>
        <time>2026-04-16T08:20:50.183Z</time>
      </trkpt>
      <trkpt lat="43.71157" lon="5.0104">
        <ele>239.93</ele>
        <time>2026-04-16T08:20:57.015Z</time>
      </trkpt>
      <trkpt lat="43.7116" lon="5.0104">
        <ele>239.48</ele>
        <time>2026-04-16T08:21:02.565Z</time>
      </trkpt>
      <trkpt lat="43.71162" lon="5.01041">
        <ele>239.12</ele>
        <time>2026-04-16T08:21:07.580Z</time>
      </trkpt>
      <trkpt lat="43.71163" lon="5.01042">
        <ele>237.35</ele>
        <time>2026-04-16T08:21:17.610Z</time>
      </trkpt>
      <trkpt lat="43.71163" lon="5.01043">
        <ele>235.21</ele>
        <time>2026-04-16T08:21:30.734Z</time>
      </trkpt>
      <trkpt lat="43.71163" lon="5.01044">
        <ele>235.25</ele>
        <time>2026-04-16T08:21:41.617Z</time>
      </trkpt>
      <trkpt lat="43.71163" lon="5.01045">
        <ele>234.53</ele>
        <time>2026-04-16T08:21:46.633Z</time>
      </trkpt>
      <trkpt lat="43.71162" lon="5.01047">
        <ele>233.1</ele>
        <time>2026-04-16T08:21:51.648Z</time>
      </trkpt>
      <trkpt lat="43.71162" lon="5.01048">
        <ele>233.45</ele>
        <time>2026-04-16T08:21:56.662Z</time>
      </trkpt>
      <trkpt lat="43.71161" lon="5.0105">
        <ele>234.42</ele>
        <time>2026-04-16T08:22:01.678Z</time>
      </trkpt>
      <trkpt lat="43.71159" lon="5.01049">
        <ele>235.15</ele>
        <time>2026-04-16T08:22:06.693Z</time>
      </trkpt>
      <trkpt lat="43.71155" lon="5.01052">
        <ele>234.64</ele>
        <time>2026-04-16T08:22:12.668Z</time>
      </trkpt>
      <trkpt lat="43.71154" lon="5.01056">
        <ele>233.82</ele>
        <time>2026-04-16T08:22:17.683Z</time>
      </trkpt>
      <trkpt lat="43.71153" lon="5.01057">
        <ele>233.73</ele>
        <time>2026-04-16T08:22:22.697Z</time>
      </trkpt>
      <trkpt lat="43.71157" lon="5.01057">
        <ele>234.42</ele>
        <time>2026-04-16T08:22:28.673Z</time>
      </trkpt>
      <trkpt lat="43.71162" lon="5.01055">
        <ele>234.45</ele>
        <time>2026-04-16T08:22:33.687Z</time>
      </trkpt>
      <trkpt lat="43.7117" lon="5.01046">
        <ele>234.12</ele>
        <time>2026-04-16T08:22:38.703Z</time>
      </trkpt>
      <trkpt lat="43.71171" lon="5.01044">
        <ele>233.99</ele>
        <time>2026-04-16T08:22:44.572Z</time>
      </trkpt>
      <trkpt lat="43.71171" lon="5.01045">
        <ele>233.71</ele>
        <time>2026-04-16T08:22:52.680Z</time>
      </trkpt>
      <trkpt lat="43.71171" lon="5.01047">
        <ele>233.75</ele>
        <time>2026-04-16T08:22:58.549Z</time>
      </trkpt>
      <trkpt lat="43.7117" lon="5.01047">
        <ele>232.72</ele>
        <time>2026-04-16T08:23:08.541Z</time>
      </trkpt>
      <trkpt lat="43.71168" lon="5.01047">
        <ele>230.8</ele>
        <time>2026-04-16T08:23:13.594Z</time>
      </trkpt>
      <trkpt lat="43.71167" lon="5.01048">
        <ele>229.23</ele>
        <time>2026-04-16T08:23:19.676Z</time>
      </trkpt>
      <trkpt lat="43.71166" lon="5.01048">
        <ele>232.96</ele>
        <time>2026-04-16T08:23:27.679Z</time>
      </trkpt>
      <trkpt lat="43.71163" lon="5.01048">
        <ele>233.33</ele>
        <time>2026-04-16T08:23:33.653Z</time>
      </trkpt>
      <trkpt lat="43.71158" lon="5.01045">
        <ele>233.48</ele>
        <time>2026-04-16T08:23:38.669Z</time>
      </trkpt>
      <trkpt lat="43.71156" lon="5.01042">
        <ele>234.01</ele>
        <time>2026-04-16T08:23:43.684Z</time>
      </trkpt>
      <trkpt lat="43.71176" lon="5.0108">
        <ele>222.11</ele>
        <time>2026-04-16T08:31:01.511Z</time>
      </trkpt>
      <trkpt lat="43.71172" lon="5.01077">
        <ele>220.66</ele>
        <time>2026-04-16T08:31:07.647Z</time>
      </trkpt>
      <trkpt lat="43.71175" lon="5.01077">
        <ele>220.09</ele>
        <time>2026-04-16T08:31:12.656Z</time>
      </trkpt>
      <trkpt lat="43.71176" lon="5.01076">
        <ele>218.9</ele>
        <time>2026-04-16T08:31:17.678Z</time>
      </trkpt>
      <trkpt lat="43.71179" lon="5.01074">
        <ele>217.68</ele>
        <time>2026-04-16T08:31:23.159Z</time>
      </trkpt>
      <trkpt lat="43.7118" lon="5.01074">
        <ele>216.59</ele>
        <time>2026-04-16T08:31:32.617Z</time>
      </trkpt>
      <trkpt lat="43.71181" lon="5.01074">
        <ele>215.4</ele>
        <time>2026-04-16T08:31:45.635Z</time>
      </trkpt>
      <trkpt lat="43.71186" lon="5.01075">
        <ele>213.92</ele>
        <time>2026-04-16T08:31:51.595Z</time>
      </trkpt>
      <trkpt lat="43.71188" lon="5.01075">
        <ele>213.05</ele>
        <time>2026-04-16T08:31:56.620Z</time>
      </trkpt>
      <trkpt lat="43.71187" lon="5.01076">
        <ele>212.82</ele>
        <time>2026-04-16T08:32:02.381Z</time>
      </trkpt>
      <trkpt lat="43.71187" lon="5.01077">
        <ele>211.02</ele>
        <time>2026-04-16T08:32:07.616Z</time>
      </trkpt>
      <trkpt lat="43.71188" lon="5.01078">
        <ele>209.84</ele>
        <time>2026-04-16T08:32:13.697Z</time>
      </trkpt>
      <trkpt lat="43.71192" lon="5.0108">
        <ele>209.49</ele>
        <time>2026-04-16T08:32:19.737Z</time>
      </trkpt>
      <trkpt lat="43.71198" lon="5.01084">
        <ele>209.62</ele>
        <time>2026-04-16T08:32:25.020Z</time>
      </trkpt>
      <trkpt lat="43.71204" lon="5.01087">
        <ele>207.75</ele>
        <time>2026-04-16T08:32:30.596Z</time>
      </trkpt>
      <trkpt lat="43.71207" lon="5.01088">
        <ele>206.24</ele>
        <time>2026-04-16T08:32:35.785Z</time>
      </trkpt>
      <trkpt lat="43.71206" lon="5.01087">
        <ele>205.58</ele>
        <time>2026-04-16T08:32:41.577Z</time>
      </trkpt>
      <trkpt lat="43.71207" lon="5.01087">
        <ele>204.93</ele>
        <time>2026-04-16T08:32:47.629Z</time>
      </trkpt>
      <trkpt lat="43.71212" lon="5.01087">
        <ele>203.61</ele>
        <time>2026-04-16T08:32:52.643Z</time>
      </trkpt>
      <trkpt lat="43.71213" lon="5.01085">
        <ele>202.95</ele>
        <time>2026-04-16T08:32:58.019Z</time>
      </trkpt>
      <trkpt lat="43.71214" lon="5.01084">
        <ele>203.08</ele>
        <time>2026-04-16T08:33:03.060Z</time>
      </trkpt>
      <trkpt lat="43.71214" lon="5.01082">
        <ele>202.25</ele>
        <time>2026-04-16T08:33:08.101Z</time>
      </trkpt>
      <trkpt lat="43.71218" lon="5.01082">
        <ele>200.98</ele>
        <time>2026-04-16T08:33:13.664Z</time>
      </trkpt>
      <trkpt lat="43.71223" lon="5.01083">
        <ele>200.22</ele>
        <time>2026-04-16T08:33:19.519Z</time>
      </trkpt>
      <trkpt lat="43.71225" lon="5.01083">
        <ele>199.58</ele>
        <time>2026-04-16T08:33:24.559Z</time>
      </trkpt>
      <trkpt lat="43.71226" lon="5.01083">
        <ele>197.95</ele>
        <time>2026-04-16T08:33:29.841Z</time>
      </trkpt>
      <trkpt lat="43.71228" lon="5.01082">
        <ele>197.36</ele>
        <time>2026-04-16T08:33:35.019Z</time>
      </trkpt>
      <trkpt lat="43.71228" lon="5.01081">
        <ele>196.29</ele>
        <time>2026-04-16T08:33:40.343Z</time>
      </trkpt>
      <trkpt lat="43.71229" lon="5.0108">
        <ele>195.33</ele>
        <time>2026-04-16T08:33:45.567Z</time>
      </trkpt>
      <trkpt lat="43.71231" lon="5.01079">
        <ele>193.36</ele>
        <time>2026-04-16T08:33:51.403Z</time>
      </trkpt>
      <trkpt lat="43.71235" lon="5.01077">
        <ele>192.07</ele>
        <time>2026-04-16T08:33:56.561Z</time>
      </trkpt>
      <trkpt lat="43.71236" lon="5.01077">
        <ele>191.63</ele>
        <time>2026-04-16T08:34:01.679Z</time>
      </trkpt>
      <trkpt lat="43.71237" lon="5.01074">
        <ele>190.95</ele>
        <time>2026-04-16T08:34:06.876Z</time>
      </trkpt>
      <trkpt lat="43.71239" lon="5.01072">
        <ele>189.5</ele>
        <time>2026-04-16T08:34:12.123Z</time>
      </trkpt>
      <trkpt lat="43.71239" lon="5.01074">
        <ele>189.58</ele>
        <time>2026-04-16T08:34:17.643Z</time>
      </trkpt>
      <trkpt lat="43.71241" lon="5.01073">
        <ele>189.14</ele>
        <time>2026-04-16T08:34:23.274Z</time>
      </trkpt>
      <trkpt lat="43.71245" lon="5.01072">
        <ele>189.16</ele>
        <time>2026-04-16T08:34:28.567Z</time>
      </trkpt>
      <trkpt lat="43.71247" lon="5.01072">
        <ele>188.75</ele>
        <time>2026-04-16T08:34:33.581Z</time>
      </trkpt>
      <trkpt lat="43.71248" lon="5.01072">
        <ele>188.96</ele>
        <time>2026-04-16T08:34:38.602Z</time>
      </trkpt>
      <trkpt lat="43.71251" lon="5.01068">
        <ele>188.57</ele>
        <time>2026-04-16T08:34:44.558Z</time>
      </trkpt>
      <trkpt lat="43.7125" lon="5.01071">
        <ele>187.65</ele>
        <time>2026-04-16T08:34:49.586Z</time>
      </trkpt>
      <trkpt lat="43.7125" lon="5.0107">
        <ele>187.57</ele>
        <time>2026-04-16T08:35:08.273Z</time>
      </trkpt>
      <trkpt lat="43.71256" lon="5.01068">
        <ele>186.7</ele>
        <time>2026-04-16T08:35:13.561Z</time>
      </trkpt>
      <trkpt lat="43.71259" lon="5.01062">
        <ele>185.83</ele>
        <time>2026-04-16T08:35:18.701Z</time>
      </trkpt>
      <trkpt lat="43.71267" lon="5.01063">
        <ele>184.87</ele>
        <time>2026-04-16T08:35:24.691Z</time>
      </trkpt>
      <trkpt lat="43.71267" lon="5.01062">
        <ele>185.12</ele>
        <time>2026-04-16T08:35:30.239Z</time>
      </trkpt>
      <trkpt lat="43.71268" lon="5.0106">
        <ele>184.97</ele>
        <time>2026-04-16T08:35:35.575Z</time>
      </trkpt>
      <trkpt lat="43.71275" lon="5.0106">
        <ele>184.84</ele>
        <time>2026-04-16T08:35:40.601Z</time>
      </trkpt>
      <trkpt lat="43.71279" lon="5.01056">
        <ele>183.56</ele>
        <time>2026-04-16T08:35:46.602Z</time>
      </trkpt>
      <trkpt lat="43.71284" lon="5.01054">
        <ele>182.11</ele>
        <time>2026-04-16T08:35:51.841Z</time>
      </trkpt>
      <trkpt lat="43.7129" lon="5.01052">
        <ele>180.88</ele>
        <time>2026-04-16T08:35:57.252Z</time>
      </trkpt>
      <trkpt lat="43.71293" lon="5.01055">
        <ele>180.73</ele>
        <time>2026-04-16T08:36:02.439Z</time>
      </trkpt>
      <trkpt lat="43.71296" lon="5.01055">
        <ele>180.33</ele>
        <time>2026-04-16T08:36:07.945Z</time>
      </trkpt>
      <trkpt lat="43.71299" lon="5.01052">
        <ele>179.5</ele>
        <time>2026-04-16T08:36:13.271Z</time>
      </trkpt>
      <trkpt lat="43.71303" lon="5.01048">
        <ele>178.64</ele>
        <time>2026-04-16T08:36:18.656Z</time>
      </trkpt>
      <trkpt lat="43.71308" lon="5.01051">
        <ele>177.65</ele>
        <time>2026-04-16T08:36:24.656Z</time>
      </trkpt>
      <trkpt lat="43.71314" lon="5.01056">
        <ele>175.99</ele>
        <time>2026-04-16T08:36:30.580Z</time>
      </trkpt>
      <trkpt lat="43.71317" lon="5.01062">
        <ele>175.47</ele>
        <time>2026-04-16T08:36:36.680Z</time>
      </trkpt>
      <trkpt lat="43.7132" lon="5.0107">
        <ele>175.11</ele>
        <time>2026-04-16T08:36:41.997Z</time>
      </trkpt>
      <trkpt lat="43.71323" lon="5.01074">
        <ele>173.88</ele>
        <time>2026-04-16T08:36:47.360Z</time>
      </trkpt>
      <trkpt lat="43.7133" lon="5.01076">
        <ele>172.77</ele>
        <time>2026-04-16T08:36:53.237Z</time>
      </trkpt>
      <trkpt lat="43.71335" lon="5.01078">
        <ele>171.75</ele>
        <time>2026-04-16T08:36:58.517Z</time>
      </trkpt>
      <trkpt lat="43.7134" lon="5.01078">
        <ele>171.23</ele>
        <time>2026-04-16T08:37:03.618Z</time>
      </trkpt>
      <trkpt lat="43.71345" lon="5.01071">
        <ele>169.98</ele>
        <time>2026-04-16T08:37:09.045Z</time>
      </trkpt>
      <trkpt lat="43.71349" lon="5.0106">
        <ele>169.14</ele>
        <time>2026-04-16T08:37:14.608Z</time>
      </trkpt>
      <trkpt lat="43.71349" lon="5.01051">
        <ele>170.39</ele>
        <time>2026-04-16T08:37:20.203Z</time>
      </trkpt>
      <trkpt lat="43.71345" lon="5.01048">
        <ele>171.76</ele>
        <time>2026-04-16T08:37:25.599Z</time>
      </trkpt>
      <trkpt lat="43.71342" lon="5.01041">
        <ele>171.02</ele>
        <time>2026-04-16T08:37:31.509Z</time>
      </trkpt>
      <trkpt lat="43.71341" lon="5.01033">
        <ele>168.84</ele>
        <time>2026-04-16T08:37:36.589Z</time>
      </trkpt>
      <trkpt lat="43.71337" lon="5.01029">
        <ele>168.93</ele>
        <time>2026-04-16T08:37:41.606Z</time>
      </trkpt>
      <trkpt lat="43.71333" lon="5.01027">
        <ele>168.87</ele>
        <time>2026-04-16T08:37:47.130Z</time>
      </trkpt>
      <trkpt lat="43.71332" lon="5.01022">
        <ele>169.1</ele>
        <time>2026-04-16T08:37:52.515Z</time>
      </trkpt>
      <trkpt lat="43.71333" lon="5.01023">
        <ele>168.59</ele>
        <time>2026-04-16T08:37:57.611Z</time>
      </trkpt>
      <trkpt lat="43.71336" lon="5.01029">
        <ele>168.36</ele>
        <time>2026-04-16T08:38:02.625Z</time>
      </trkpt>
      <trkpt lat="43.71332" lon="5.01007">
        <ele>168.14</ele>
        <time>2026-04-16T08:38:07.641Z</time>
      </trkpt>
      <trkpt lat="43.71328" lon="5.01008">
        <ele>167.9</ele>
        <time>2026-04-16T08:38:13.550Z</time>
      </trkpt>
      <trkpt lat="43.71328" lon="5.01001">
        <ele>169.03</ele>
        <time>2026-04-16T08:38:18.636Z</time>
      </trkpt>
      <trkpt lat="43.71326" lon="5.00994">
        <ele>169.13</ele>
        <time>2026-04-16T08:38:23.874Z</time>
      </trkpt>
      <trkpt lat="43.71325" lon="5.00996">
        <ele>168.9</ele>
        <time>2026-04-16T08:38:28.942Z</time>
      </trkpt>
      <trkpt lat="43.71318" lon="5.00986">
        <ele>167.99</ele>
        <time>2026-04-16T08:38:34.135Z</time>
      </trkpt>
      <trkpt lat="43.7131" lon="5.0098">
        <ele>167.84</ele>
        <time>2026-04-16T08:38:39.693Z</time>
      </trkpt>
      <trkpt lat="43.71306" lon="5.00942">
        <ele>167.64</ele>
        <time>2026-04-16T08:38:45.309Z</time>
      </trkpt>
      <trkpt lat="43.71301" lon="5.00936">
        <ele>166.95</ele>
        <time>2026-04-16T08:38:50.670Z</time>
      </trkpt>
      <trkpt lat="43.713" lon="5.00922">
        <ele>167.32</ele>
        <time>2026-04-16T08:38:56.756Z</time>
      </trkpt>
      <trkpt lat="43.71304" lon="5.00914">
        <ele>166.58</ele>
        <time>2026-04-16T08:39:02.314Z</time>
      </trkpt>
      <trkpt lat="43.71303" lon="5.00907">
        <ele>165.5</ele>
        <time>2026-04-16T08:39:07.948Z</time>
      </trkpt>
      <trkpt lat="43.71298" lon="5.00904">
        <ele>164.36</ele>
        <time>2026-04-16T08:39:13.619Z</time>
      </trkpt>
      <trkpt lat="43.71293" lon="5.00898">
        <ele>163.65</ele>
        <time>2026-04-16T08:39:19.333Z</time>
      </trkpt>
      <trkpt lat="43.71289" lon="5.00891">
        <ele>163.42</ele>
        <time>2026-04-16T08:39:25.017Z</time>
      </trkpt>
      <trkpt lat="43.71285" lon="5.00886">
        <ele>163.62</ele>
        <time>2026-04-16T08:39:30.652Z</time>
      </trkpt>
      <trkpt lat="43.71285" lon="5.00882">
        <ele>162.55</ele>
        <time>2026-04-16T08:39:36.290Z</time>
      </trkpt>
      <trkpt lat="43.71283" lon="5.00876">
        <ele>162.24</ele>
        <time>2026-04-16T08:39:41.954Z</time>
      </trkpt>
      <trkpt lat="43.7128" lon="5.00872">
        <ele>162.02</ele>
        <time>2026-04-16T08:39:47.636Z</time>
      </trkpt>
      <trkpt lat="43.71277" lon="5.00866">
        <ele>161.34</ele>
        <time>2026-04-16T08:39:52.666Z</time>
      </trkpt>
      <trkpt lat="43.71273" lon="5.00857">
        <ele>160.84</ele>
        <time>2026-04-16T08:39:58.275Z</time>
      </trkpt>
      <trkpt lat="43.71267" lon="5.00851">
        <ele>161.16</ele>
        <time>2026-04-16T08:40:03.470Z</time>
      </trkpt>
      <trkpt lat="43.71261" lon="5.00849">
        <ele>161.3</ele>
        <time>2026-04-16T08:40:08.671Z</time>
      </trkpt>
      <trkpt lat="43.71255" lon="5.00846">
        <ele>160.86</ele>
        <time>2026-04-16T08:40:14.089Z</time>
      </trkpt>
      <trkpt lat="43.71251" lon="5.00838">
        <ele>160.68</ele>
        <time>2026-04-16T08:40:19.389Z</time>
      </trkpt>
      <trkpt lat="43.71251" lon="5.0083">
        <ele>160.24</ele>
        <time>2026-04-16T08:40:24.676Z</time>
      </trkpt>
      <trkpt lat="43.71247" lon="5.00822">
        <ele>159.89</ele>
        <time>2026-04-16T08:40:30.451Z</time>
      </trkpt>
      <trkpt lat="43.71241" lon="5.00818">
        <ele>159.18</ele>
        <time>2026-04-16T08:40:35.910Z</time>
      </trkpt>
      <trkpt lat="43.71236" lon="5.00812">
        <ele>158.76</ele>
        <time>2026-04-16T08:40:40.954Z</time>
      </trkpt>
      <trkpt lat="43.71231" lon="5.00806">
        <ele>158.83</ele>
        <time>2026-04-16T08:40:46.110Z</time>
      </trkpt>
      <trkpt lat="43.71229" lon="5.00798">
        <ele>157.84</ele>
        <time>2026-04-16T08:40:51.672Z</time>
      </trkpt>
      <trkpt lat="43.7123" lon="5.00787">
        <ele>157.06</ele>
        <time>2026-04-16T08:40:57.474Z</time>
      </trkpt>
      <trkpt lat="43.71231" lon="5.00775">
        <ele>156.01</ele>
        <time>2026-04-16T08:41:02.662Z</time>
      </trkpt>
      <trkpt lat="43.71232" lon="5.00769">
        <ele>155.78</ele>
        <time>2026-04-16T08:41:07.677Z</time>
      </trkpt>
      <trkpt lat="43.71234" lon="5.00762">
        <ele>154.78</ele>
        <time>2026-04-16T08:41:13.531Z</time>
      </trkpt>
      <trkpt lat="43.71237" lon="5.00752">
        <ele>153.98</ele>
        <time>2026-04-16T08:41:19.329Z</time>
      </trkpt>
      <trkpt lat="43.71238" lon="5.00742">
        <ele>153.69</ele>
        <time>2026-04-16T08:41:24.642Z</time>
      </trkpt>
      <trkpt lat="43.7124" lon="5.0073">
        <ele>153.24</ele>
        <time>2026-04-16T08:41:30.617Z</time>
      </trkpt>
      <trkpt lat="43.71239" lon="5.00722">
        <ele>152.63</ele>
        <time>2026-04-16T08:41:36.409Z</time>
      </trkpt>
      <trkpt lat="43.71238" lon="5.00714">
        <ele>152.15</ele>
        <time>2026-04-16T08:41:42.092Z</time>
      </trkpt>
      <trkpt lat="43.71239" lon="5.00703">
        <ele>151.87</ele>
        <time>2026-04-16T08:41:47.630Z</time>
      </trkpt>
      <trkpt lat="43.71239" lon="5.00689">
        <ele>151.12</ele>
        <time>2026-04-16T08:41:53.268Z</time>
      </trkpt>
      <trkpt lat="43.71239" lon="5.0068">
        <ele>150.53</ele>
        <time>2026-04-16T08:41:58.679Z</time>
      </trkpt>
      <trkpt lat="43.71239" lon="5.0067">
        <ele>150.44</ele>
        <time>2026-04-16T08:42:04.548Z</time>
      </trkpt>
      <trkpt lat="43.71241" lon="5.00661">
        <ele>150.3</ele>
        <time>2026-04-16T08:42:09.831Z</time>
      </trkpt>
      <trkpt lat="43.71247" lon="5.00657">
        <ele>149.89</ele>
        <time>2026-04-16T08:42:15.494Z</time>
      </trkpt>
      <trkpt lat="43.7125" lon="5.0065">
        <ele>150.15</ele>
        <time>2026-04-16T08:42:20.776Z</time>
      </trkpt>
      <trkpt lat="43.71251" lon="5.0064">
        <ele>151.54</ele>
        <time>2026-04-16T08:42:26.673Z</time>
      </trkpt>
      <trkpt lat="43.71251" lon="5.00632">
        <ele>151.98</ele>
        <time>2026-04-16T08:42:32.415Z</time>
      </trkpt>
      <trkpt lat="43.71255" lon="5.00623">
        <ele>150.92</ele>
        <time>2026-04-16T08:42:38.100Z</time>
      </trkpt>
      <trkpt lat="43.71254" lon="5.00616">
        <ele>149.85</ele>
        <time>2026-04-16T08:42:43.113Z</time>
      </trkpt>
      <trkpt lat="43.71252" lon="5.00607">
        <ele>148.87</ele>
        <time>2026-04-16T08:42:48.619Z</time>
      </trkpt>
      <trkpt lat="43.71251" lon="5.00599">
        <ele>148.31</ele>
        <time>2026-04-16T08:42:54.274Z</time>
      </trkpt>
      <trkpt lat="43.71253" lon="5.0059">
        <ele>148.96</ele>
        <time>2026-04-16T08:42:59.521Z</time>
      </trkpt>
      <trkpt lat="43.71257" lon="5.00583">
        <ele>148.64</ele>
        <time>2026-04-16T08:43:04.746Z</time>
      </trkpt>
      <trkpt lat="43.71255" lon="5.00576">
        <ele>149.08</ele>
        <time>2026-04-16T08:43:10.140Z</time>
      </trkpt>
      <trkpt lat="43.71247" lon="5.00576">
        <ele>149.09</ele>
        <time>2026-04-16T08:43:15.628Z</time>
      </trkpt>
      <trkpt lat="43.71247" lon="5.00578">
        <ele>149.4</ele>
        <time>2026-04-16T08:43:20.644Z</time>
      </trkpt>
      <trkpt lat="43.71248" lon="5.00578">
        <ele>148.73</ele>
        <time>2026-04-16T08:43:45.611Z</time>
      </trkpt>
      <trkpt lat="43.71249" lon="5.00578">
        <ele>148.65</ele>
        <time>2026-04-16T08:43:56.496Z</time>
      </trkpt>
      <trkpt lat="43.7125" lon="5.00578">
        <ele>149.9</ele>
        <time>2026-04-16T08:44:10.580Z</time>
      </trkpt>
      <trkpt lat="43.71251" lon="5.00576">
        <ele>149.68</ele>
        <time>2026-04-16T08:44:40.573Z</time>
      </trkpt>
      <trkpt lat="43.71252" lon="5.00574">
        <ele>148.92</ele>
        <time>2026-04-16T08:44:45.588Z</time>
      </trkpt>
      <trkpt lat="43.71253" lon="5.00575">
        <ele>149.08</ele>
        <time>2026-04-16T08:44:57.646Z</time>
      </trkpt>
      <trkpt lat="43.71254" lon="5.00576">
        <ele>148.89</ele>
        <time>2026-04-16T08:45:14.614Z</time>
      </trkpt>
      <trkpt lat="43.71255" lon="5.00581">
        <ele>148.39</ele>
        <time>2026-04-16T08:45:19.629Z</time>
      </trkpt>
      <trkpt lat="43.71254" lon="5.0058">
        <ele>148.17</ele>
        <time>2026-04-16T08:45:29.659Z</time>
      </trkpt>
      <trkpt lat="43.71254" lon="5.00579">
        <ele>148.21</ele>
        <time>2026-04-16T08:45:45.559Z</time>
      </trkpt>
      <trkpt lat="43.71253" lon="5.00578">
        <ele>148.4</ele>
        <time>2026-04-16T08:45:58.576Z</time>
      </trkpt>
      <trkpt lat="43.71252" lon="5.00577">
        <ele>147.97</ele>
        <time>2026-04-16T08:46:15.650Z</time>
      </trkpt>
      <trkpt lat="43.71253" lon="5.00576">
        <ele>148.55</ele>
        <time>2026-04-16T08:47:25.650Z</time>
      </trkpt>
      <trkpt lat="43.71252" lon="5.00577">
        <ele>148.88</ele>
        <time>2026-04-16T08:49:14.601Z</time>
      </trkpt>
      <trkpt lat="43.71252" lon="5.00577">
        <ele>148.4</ele>
        <time>2026-04-16T08:49:44.587Z</time>
      </trkpt>
      <trkpt lat="43.71252" lon="5.00576">
        <ele>148.99</ele>
        <time>2026-04-16T08:51:01.289Z</time>
      </trkpt>
      <trkpt lat="43.71257" lon="5.00579">
        <ele>149.38</ele>
        <time>2026-04-16T08:51:06.474Z</time>
      </trkpt>
      <trkpt lat="43.71263" lon="5.0058">
        <ele>148.59</ele>
        <time>2026-04-16T08:51:11.810Z</time>
      </trkpt>
      <trkpt lat="43.71265" lon="5.00575">
        <ele>147.41</ele>
        <time>2026-04-16T08:51:17.155Z</time>
      </trkpt>
      <trkpt lat="43.71267" lon="5.0057">
        <ele>147.59</ele>
        <time>2026-04-16T08:51:22.508Z</time>
      </trkpt>
      <trkpt lat="43.71269" lon="5.00566">
        <ele>148.42</ele>
        <time>2026-04-16T08:51:28.127Z</time>
      </trkpt>
      <trkpt lat="43.7127" lon="5.00559">
        <ele>147.85</ele>
        <time>2026-04-16T08:51:33.348Z</time>
      </trkpt>
      <trkpt lat="43.71274" lon="5.00553">
        <ele>147.79</ele>
        <time>2026-04-16T08:51:38.662Z</time>
      </trkpt>
      <trkpt lat="43.71279" lon="5.00544">
        <ele>147.84</ele>
        <time>2026-04-16T08:51:44.668Z</time>
      </trkpt>
      <trkpt lat="43.71284" lon="5.0054">
        <ele>147.42</ele>
        <time>2026-04-16T08:51:49.853Z</time>
      </trkpt>
      <trkpt lat="43.71287" lon="5.00533">
        <ele>147.69</ele>
        <time>2026-04-16T08:51:55.232Z</time>
      </trkpt>
      <trkpt lat="43.71289" lon="5.00526">
        <ele>148.15</ele>
        <time>2026-04-16T08:52:00.646Z</time>
      </trkpt>
      <trkpt lat="43.71292" lon="5.00519">
        <ele>148.21</ele>
        <time>2026-04-16T08:52:05.662Z</time>
      </trkpt>
      <trkpt lat="43.71291" lon="5.00511">
        <ele>148.38</ele>
        <time>2026-04-16T08:52:11.614Z</time>
      </trkpt>
      <trkpt lat="43.71286" lon="5.00505">
        <ele>148.4</ele>
        <time>2026-04-16T08:52:16.734Z</time>
      </trkpt>
      <trkpt lat="43.71286" lon="5.00494">
        <ele>149.38</ele>
        <time>2026-04-16T08:52:22.106Z</time>
      </trkpt>
      <trkpt lat="43.71284" lon="5.00482">
        <ele>148.23</ele>
        <time>2026-04-16T08:52:27.361Z</time>
      </trkpt>
      <trkpt lat="43.71283" lon="5.00471">
        <ele>148.02</ele>
        <time>2026-04-16T08:52:32.629Z</time>
      </trkpt>
      <trkpt lat="43.71285" lon="5.00461">
        <ele>149.76</ele>
        <time>2026-04-16T08:52:38.238Z</time>
      </trkpt>
      <trkpt lat="43.71293" lon="5.00463">
        <ele>149.39</ele>
        <time>2026-04-16T08:52:43.379Z</time>
      </trkpt>
      <trkpt lat="43.71299" lon="5.00466">
        <ele>148.91</ele>
        <time>2026-04-16T08:52:48.393Z</time>
      </trkpt>
      <trkpt lat="43.71303" lon="5.00463">
        <ele>149.51</ele>
        <time>2026-04-16T08:52:53.454Z</time>
      </trkpt>
      <trkpt lat="43.71308" lon="5.00462">
        <ele>149.88</ele>
        <time>2026-04-16T08:52:58.737Z</time>
      </trkpt>
      <trkpt lat="43.71313" lon="5.00458">
        <ele>149.22</ele>
        <time>2026-04-16T08:53:04.135Z</time>
      </trkpt>
      <trkpt lat="43.71317" lon="5.00457">
        <ele>150.32</ele>
        <time>2026-04-16T08:53:09.274Z</time>
      </trkpt>
      <trkpt lat="43.71323" lon="5.00457">
        <ele>151.67</ele>
        <time>2026-04-16T08:53:14.645Z</time>
      </trkpt>
      <trkpt lat="43.7133" lon="5.0046">
        <ele>150.41</ele>
        <time>2026-04-16T08:53:19.661Z</time>
      </trkpt>
      <trkpt lat="43.71335" lon="5.00462">
        <ele>149.24</ele>
        <time>2026-04-16T08:53:24.893Z</time>
      </trkpt>
      <trkpt lat="43.71342" lon="5.00461">
        <ele>149.39</ele>
        <time>2026-04-16T08:53:30.655Z</time>
      </trkpt>
      <trkpt lat="43.71348" lon="5.00459">
        <ele>149.99</ele>
        <time>2026-04-16T08:53:35.667Z</time>
      </trkpt>
      <trkpt lat="43.71354" lon="5.00455">
        <ele>150.32</ele>
        <time>2026-04-16T08:53:40.955Z</time>
      </trkpt>
      <trkpt lat="43.71358" lon="5.00452">
        <ele>149.47</ele>
        <time>2026-04-16T08:53:46.552Z</time>
      </trkpt>
      <trkpt lat="43.71363" lon="5.00445">
        <ele>149.57</ele>
        <time>2026-04-16T08:53:52.454Z</time>
      </trkpt>
      <trkpt lat="43.71366" lon="5.00439">
        <ele>149.65</ele>
        <time>2026-04-16T08:53:57.752Z</time>
      </trkpt>
      <trkpt lat="43.71369" lon="5.00432">
        <ele>149.48</ele>
        <time>2026-04-16T08:54:03.053Z</time>
      </trkpt>
      <trkpt lat="43.71368" lon="5.00425">
        <ele>149.9</ele>
        <time>2026-04-16T08:54:08.406Z</time>
      </trkpt>
      <trkpt lat="43.71372" lon="5.00417">
        <ele>150.87</ele>
        <time>2026-04-16T08:54:13.552Z</time>
      </trkpt>
      <trkpt lat="43.71375" lon="5.00413">
        <ele>152.14</ele>
        <time>2026-04-16T08:54:18.568Z</time>
      </trkpt>
      <trkpt lat="43.71376" lon="5.00411">
        <ele>150.9</ele>
        <time>2026-04-16T08:54:23.931Z</time>
      </trkpt>
      <trkpt lat="43.71381" lon="5.00407">
        <ele>150.26</ele>
        <time>2026-04-16T08:54:29.559Z</time>
      </trkpt>
      <trkpt lat="43.71382" lon="5.00404">
        <ele>149.71</ele>
        <time>2026-04-16T08:54:34.614Z</time>
      </trkpt>
      <trkpt lat="43.71386" lon="5.004">
        <ele>149.8</ele>
        <time>2026-04-16T08:54:39.689Z</time>
      </trkpt>
      <trkpt lat="43.71391" lon="5.00393">
        <ele>150.51</ele>
        <time>2026-04-16T08:54:45.672Z</time>
      </trkpt>
      <trkpt lat="43.71391" lon="5.00388">
        <ele>151.17</ele>
        <time>2026-04-16T08:54:51.054Z</time>
      </trkpt>
      <trkpt lat="43.71387" lon="5.00382">
        <ele>150.77</ele>
        <time>2026-04-16T08:54:56.568Z</time>
      </trkpt>
      <trkpt lat="43.71388" lon="5.00377">
        <ele>151.61</ele>
        <time>2026-04-16T08:55:01.816Z</time>
      </trkpt>
      <trkpt lat="43.71386" lon="5.00373">
        <ele>152.03</ele>
        <time>2026-04-16T08:55:06.875Z</time>
      </trkpt>
      <trkpt lat="43.71384" lon="5.0037">
        <ele>152.66</ele>
        <time>2026-04-16T08:55:12.564Z</time>
      </trkpt>
      <trkpt lat="43.71385" lon="5.00371">
        <ele>152.62</ele>
        <time>2026-04-16T08:55:17.930Z</time>
      </trkpt>
      <trkpt lat="43.71384" lon="5.00365">
        <ele>151.69</ele>
        <time>2026-04-16T08:55:23.169Z</time>
      </trkpt>
      <trkpt lat="43.71382" lon="5.00356">
        <ele>151.58</ele>
        <time>2026-04-16T08:55:28.236Z</time>
      </trkpt>
      <trkpt lat="43.71381" lon="5.00348">
        <ele>153.14</ele>
        <time>2026-04-16T08:55:33.509Z</time>
      </trkpt>
      <trkpt lat="43.71381" lon="5.0034">
        <ele>151.93</ele>
        <time>2026-04-16T08:55:38.604Z</time>
      </trkpt>
      <trkpt lat="43.7138" lon="5.00331">
        <ele>150.94</ele>
        <time>2026-04-16T08:55:43.869Z</time>
      </trkpt>
      <trkpt lat="43.71379" lon="5.00321">
        <ele>151.4</ele>
        <time>2026-04-16T08:55:49.411Z</time>
      </trkpt>
      <trkpt lat="43.71377" lon="5.00314">
        <ele>150.47</ele>
        <time>2026-04-16T08:55:54.515Z</time>
      </trkpt>
      <trkpt lat="43.71377" lon="5.00305">
        <ele>153.66</ele>
        <time>2026-04-16T08:55:59.625Z</time>
      </trkpt>
      <trkpt lat="43.71376" lon="5.00294">
        <ele>154.11</ele>
        <time>2026-04-16T08:56:05.125Z</time>
      </trkpt>
      <trkpt lat="43.71375" lon="5.00283">
        <ele>152.45</ele>
        <time>2026-04-16T08:56:10.617Z</time>
      </trkpt>
      <trkpt lat="43.7137" lon="5.00273">
        <ele>151.97</ele>
        <time>2026-04-16T08:56:16.325Z</time>
      </trkpt>
      <trkpt lat="43.71364" lon="5.00267">
        <ele>152.25</ele>
        <time>2026-04-16T08:56:21.346Z</time>
      </trkpt>
      <trkpt lat="43.71359" lon="5.00261">
        <ele>151.95</ele>
        <time>2026-04-16T08:56:26.389Z</time>
      </trkpt>
      <trkpt lat="43.71354" lon="5.00256">
        <ele>152.3</ele>
        <time>2026-04-16T08:56:31.866Z</time>
      </trkpt>
      <trkpt lat="43.71348" lon="5.00251">
        <ele>153.03</ele>
        <time>2026-04-16T08:56:37.281Z</time>
      </trkpt>
      <trkpt lat="43.71347" lon="5.00244">
        <ele>153.18</ele>
        <time>2026-04-16T08:56:42.405Z</time>
      </trkpt>
      <trkpt lat="43.71345" lon="5.00236">
        <ele>153.78</ele>
        <time>2026-04-16T08:56:47.647Z</time>
      </trkpt>
      <trkpt lat="43.71344" lon="5.00228">
        <ele>153.9</ele>
        <time>2026-04-16T08:56:53.068Z</time>
      </trkpt>
      <trkpt lat="43.71342" lon="5.0022">
        <ele>155.05</ele>
        <time>2026-04-16T08:56:58.668Z</time>
      </trkpt>
      <trkpt lat="43.71339" lon="5.00217">
        <ele>155.5</ele>
        <time>2026-04-16T08:57:03.973Z</time>
      </trkpt>
      <trkpt lat="43.71336" lon="5.00212">
        <ele>155.88</ele>
        <time>2026-04-16T08:57:09.150Z</time>
      </trkpt>
      <trkpt lat="43.7134" lon="5.00201">
        <ele>157.16</ele>
        <time>2026-04-16T08:57:14.514Z</time>
      </trkpt>
      <trkpt lat="43.71345" lon="5.00194">
        <ele>157.14</ele>
        <time>2026-04-16T08:57:19.956Z</time>
      </trkpt>
      <trkpt lat="43.71348" lon="5.00187">
        <ele>157.04</ele>
        <time>2026-04-16T08:57:25.553Z</time>
      </trkpt>
      <trkpt lat="43.71349" lon="5.0018">
        <ele>157.23</ele>
        <time>2026-04-16T08:57:31.036Z</time>
      </trkpt>
      <trkpt lat="43.71352" lon="5.00175">
        <ele>159.08</ele>
        <time>2026-04-16T08:57:36.094Z</time>
      </trkpt>
      <trkpt lat="43.71352" lon="5.00168">
        <ele>159.85</ele>
        <time>2026-04-16T08:57:41.488Z</time>
      </trkpt>
      <trkpt lat="43.71355" lon="5.00158">
        <ele>159.57</ele>
        <time>2026-04-16T08:57:46.803Z</time>
      </trkpt>
      <trkpt lat="43.71359" lon="5.00149">
        <ele>159.02</ele>
        <time>2026-04-16T08:57:51.988Z</time>
      </trkpt>
      <trkpt lat="43.71363" lon="5.00142">
        <ele>158.77</ele>
        <time>2026-04-16T08:57:57.688Z</time>
      </trkpt>
      <trkpt lat="43.71366" lon="5.00136">
        <ele>158.89</ele>
        <time>2026-04-16T08:58:02.704Z</time>
      </trkpt>
      <trkpt lat="43.71367" lon="5.00131">
        <ele>159.26</ele>
        <time>2026-04-16T08:58:08.452Z</time>
      </trkpt>
      <trkpt lat="43.71371" lon="5.00128">
        <ele>159.74</ele>
        <time>2026-04-16T08:58:14.488Z</time>
      </trkpt>
      <trkpt lat="43.71374" lon="5.00123">
        <ele>158.96</ele>
        <time>2026-04-16T08:58:19.889Z</time>
      </trkpt>
      <trkpt lat="43.71375" lon="5.00112">
        <ele>158.35</ele>
        <time>2026-04-16T08:58:25.090Z</time>
      </trkpt>
      <trkpt lat="43.71377" lon="5.00103">
        <ele>159.33</ele>
        <time>2026-04-16T08:58:30.624Z</time>
      </trkpt>
      <trkpt lat="43.71382" lon="5.00094">
        <ele>160.03</ele>
        <time>2026-04-16T08:58:35.628Z</time>
      </trkpt>
      <trkpt lat="43.71386" lon="5.00086">
        <ele>160.78</ele>
        <time>2026-04-16T08:58:41.245Z</time>
      </trkpt>
      <trkpt lat="43.71389" lon="5.0008">
        <ele>160.21</ele>
        <time>2026-04-16T08:58:46.527Z</time>
      </trkpt>
      <trkpt lat="43.71391" lon="5.00072">
        <ele>160.37</ele>
        <time>2026-04-16T08:58:52.068Z</time>
      </trkpt>
      <trkpt lat="43.71393" lon="5.00064">
        <ele>160.86</ele>
        <time>2026-04-16T08:58:57.705Z</time>
      </trkpt>
      <trkpt lat="43.71395" lon="5.00054">
        <ele>161.21</ele>
        <time>2026-04-16T08:59:03.584Z</time>
      </trkpt>
      <trkpt lat="43.71397" lon="5.00044">
        <ele>161.73</ele>
        <time>2026-04-16T08:59:09.151Z</time>
      </trkpt>
      <trkpt lat="43.714" lon="5.00036">
        <ele>161.41</ele>
        <time>2026-04-16T08:59:14.697Z</time>
      </trkpt>
      <trkpt lat="43.71402" lon="5.00029">
        <ele>161.29</ele>
        <time>2026-04-16T08:59:20.507Z</time>
      </trkpt>
      <trkpt lat="43.71403" lon="5.0002">
        <ele>161.34</ele>
        <time>2026-04-16T08:59:26.115Z</time>
      </trkpt>
      <trkpt lat="43.71406" lon="5.00011">
        <ele>161.72</ele>
        <time>2026-04-16T08:59:31.286Z</time>
      </trkpt>
      <trkpt lat="43.71408" lon="5.00002">
        <ele>161.7</ele>
        <time>2026-04-16T08:59:36.572Z</time>
      </trkpt>
      <trkpt lat="43.71409" lon="4.99993">
        <ele>161.74</ele>
        <time>2026-04-16T08:59:42.427Z</time>
      </trkpt>
      <trkpt lat="43.71411" lon="4.99983">
        <ele>161.71</ele>
        <time>2026-04-16T08:59:47.826Z</time>
      </trkpt>
      <trkpt lat="43.71413" lon="4.99975">
        <ele>162.32</ele>
        <time>2026-04-16T08:59:53.268Z</time>
      </trkpt>
      <trkpt lat="43.71417" lon="4.99967">
        <ele>162.68</ele>
        <time>2026-04-16T08:59:58.290Z</time>
      </trkpt>
      <trkpt lat="43.7142" lon="4.99958">
        <ele>162.48</ele>
        <time>2026-04-16T09:00:04.637Z</time>
      </trkpt>
      <trkpt lat="43.71421" lon="4.9996">
        <ele>162.13</ele>
        <time>2026-04-16T09:00:12.640Z</time>
      </trkpt>
      <trkpt lat="43.71422" lon="4.9996">
        <ele>160.95</ele>
        <time>2026-04-16T09:00:18.616Z</time>
      </trkpt>
      <trkpt lat="43.71423" lon="4.99961">
        <ele>163.22</ele>
        <time>2026-04-16T09:00:45.614Z</time>
      </trkpt>
      <trkpt lat="43.71423" lon="4.99962">
        <ele>163.03</ele>
        <time>2026-04-16T09:00:56.606Z</time>
      </trkpt>
      <trkpt lat="43.71424" lon="4.99963">
        <ele>163.6</ele>
        <time>2026-04-16T09:01:05.677Z</time>
      </trkpt>
      <trkpt lat="43.71423" lon="4.99964">
        <ele>164.45</ele>
        <time>2026-04-16T09:01:25.484Z</time>
      </trkpt>
      <trkpt lat="43.71426" lon="4.99961">
        <ele>164.02</ele>
        <time>2026-04-16T09:01:30.640Z</time>
      </trkpt>
      <trkpt lat="43.71431" lon="4.99949">
        <ele>164.39</ele>
        <time>2026-04-16T09:01:35.664Z</time>
      </trkpt>
      <trkpt lat="43.71434" lon="4.9994">
        <ele>164.08</ele>
        <time>2026-04-16T09:01:40.762Z</time>
      </trkpt>
      <trkpt lat="43.71434" lon="4.9993">
        <ele>163.61</ele>
        <time>2026-04-16T09:01:46.285Z</time>
      </trkpt>
      <trkpt lat="43.71435" lon="4.99923">
        <ele>163.77</ele>
        <time>2026-04-16T09:01:51.681Z</time>
      </trkpt>
      <trkpt lat="43.71435" lon="4.99914">
        <ele>164.19</ele>
        <time>2026-04-16T09:01:57.385Z</time>
      </trkpt>
      <trkpt lat="43.71435" lon="4.99908">
        <ele>164.14</ele>
        <time>2026-04-16T09:02:02.426Z</time>
      </trkpt>
      <trkpt lat="43.71438" lon="4.99901">
        <ele>164.57</ele>
        <time>2026-04-16T09:02:07.491Z</time>
      </trkpt>
      <trkpt lat="43.71443" lon="4.99895">
        <ele>164.55</ele>
        <time>2026-04-16T09:02:12.694Z</time>
      </trkpt>
      <trkpt lat="43.71448" lon="4.99888">
        <ele>163.96</ele>
        <time>2026-04-16T09:02:17.703Z</time>
      </trkpt>
      <trkpt lat="43.71455" lon="4.99882">
        <ele>164.69</ele>
        <time>2026-04-16T09:02:23.423Z</time>
      </trkpt>
      <trkpt lat="43.71458" lon="4.99873">
        <ele>165.3</ele>
        <time>2026-04-16T09:02:28.595Z</time>
      </trkpt>
      <trkpt lat="43.71463" lon="4.99867">
        <ele>165.34</ele>
        <time>2026-04-16T09:02:34.025Z</time>
      </trkpt>
      <trkpt lat="43.71466" lon="4.9986">
        <ele>165.89</ele>
        <time>2026-04-16T09:02:39.146Z</time>
      </trkpt>
      <trkpt lat="43.71469" lon="4.99854">
        <ele>165.62</ele>
        <time>2026-04-16T09:02:44.448Z</time>
      </trkpt>
      <trkpt lat="43.71473" lon="4.99845">
        <ele>166.09</ele>
        <time>2026-04-16T09:02:50.685Z</time>
      </trkpt>
      <trkpt lat="43.71478" lon="4.99838">
        <ele>166.59</ele>
        <time>2026-04-16T09:02:55.701Z</time>
      </trkpt>
      <trkpt lat="43.71485" lon="4.99831">
        <ele>166.9</ele>
        <time>2026-04-16T09:03:01.608Z</time>
      </trkpt>
      <trkpt lat="43.71489" lon="4.99823">
        <ele>167.36</ele>
        <time>2026-04-16T09:03:06.765Z</time>
      </trkpt>
      <trkpt lat="43.71492" lon="4.99815">
        <ele>167.16</ele>
        <time>2026-04-16T09:03:12.086Z</time>
      </trkpt>
      <trkpt lat="43.71494" lon="4.99807">
        <ele>167.46</ele>
        <time>2026-04-16T09:03:17.641Z</time>
      </trkpt>
      <trkpt lat="43.71494" lon="4.998">
        <ele>167.74</ele>
        <time>2026-04-16T09:03:22.699Z</time>
      </trkpt>
      <trkpt lat="43.71495" lon="4.9979">
        <ele>167.97</ele>
        <time>2026-04-16T09:03:28.675Z</time>
      </trkpt>
      <trkpt lat="43.71496" lon="4.99783">
        <ele>168.25</ele>
        <time>2026-04-16T09:03:33.690Z</time>
      </trkpt>
      <trkpt lat="43.71497" lon="4.99775">
        <ele>168.26</ele>
        <time>2026-04-16T09:03:39.508Z</time>
      </trkpt>
      <trkpt lat="43.71502" lon="4.99767">
        <ele>167.37</ele>
        <time>2026-04-16T09:03:44.682Z</time>
      </trkpt>
      <trkpt lat="43.71502" lon="4.99758">
        <ele>168.05</ele>
        <time>2026-04-16T09:03:49.866Z</time>
      </trkpt>
      <trkpt lat="43.71501" lon="4.9975">
        <ele>172.48</ele>
        <time>2026-04-16T09:03:54.867Z</time>
      </trkpt>
      <trkpt lat="43.71497" lon="4.99741">
        <ele>172.18</ele>
        <time>2026-04-16T09:04:00.289Z</time>
      </trkpt>
      <trkpt lat="43.71494" lon="4.99735">
        <ele>171.66</ele>
        <time>2026-04-16T09:04:05.597Z</time>
      </trkpt>
      <trkpt lat="43.71495" lon="4.99727">
        <ele>171.58</ele>
        <time>2026-04-16T09:04:10.619Z</time>
      </trkpt>
      <trkpt lat="43.71493" lon="4.99721">
        <ele>171.4</ele>
        <time>2026-04-16T09:04:15.935Z</time>
      </trkpt>
      <trkpt lat="43.71489" lon="4.99715">
        <ele>171.31</ele>
        <time>2026-04-16T09:04:21.360Z</time>
      </trkpt>
      <trkpt lat="43.71486" lon="4.9971">
        <ele>171.41</ele>
        <time>2026-04-16T09:04:26.500Z</time>
      </trkpt>
      <trkpt lat="43.7148" lon="4.99704">
        <ele>171.32</ele>
        <time>2026-04-16T09:04:31.797Z</time>
      </trkpt>
      <trkpt lat="43.71476" lon="4.997">
        <ele>171.54</ele>
        <time>2026-04-16T09:04:37.083Z</time>
      </trkpt>
      <trkpt lat="43.71472" lon="4.99695">
        <ele>171.21</ele>
        <time>2026-04-16T09:04:42.440Z</time>
      </trkpt>
      <trkpt lat="43.71468" lon="4.99692">
        <ele>171.74</ele>
        <time>2026-04-16T09:04:47.777Z</time>
      </trkpt>
      <trkpt lat="43.71464" lon="4.99689">
        <ele>172.22</ele>
        <time>2026-04-16T09:04:53.179Z</time>
      </trkpt>
      <trkpt lat="43.7146" lon="4.99684">
        <ele>172.46</ele>
        <time>2026-04-16T09:04:58.634Z</time>
      </trkpt>
      <trkpt lat="43.71457" lon="4.99678">
        <ele>172.73</ele>
        <time>2026-04-16T09:05:03.649Z</time>
      </trkpt>
      <trkpt lat="43.71455" lon="4.99667">
        <ele>172.4</ele>
        <time>2026-04-16T09:05:09.140Z</time>
      </trkpt>
      <trkpt lat="43.71455" lon="4.99655">
        <ele>173.08</ele>
        <time>2026-04-16T09:05:14.493Z</time>
      </trkpt>
      <trkpt lat="43.71457" lon="4.99644">
        <ele>173.64</ele>
        <time>2026-04-16T09:05:19.980Z</time>
      </trkpt>
      <trkpt lat="43.71459" lon="4.99631">
        <ele>173.85</ele>
        <time>2026-04-16T09:05:25.380Z</time>
      </trkpt>
      <trkpt lat="43.71463" lon="4.99619">
        <ele>174.57</ele>
        <time>2026-04-16T09:05:30.646Z</time>
      </trkpt>
      <trkpt lat="43.71467" lon="4.99609">
        <ele>174.37</ele>
        <time>2026-04-16T09:05:35.663Z</time>
      </trkpt>
      <trkpt lat="43.71469" lon="4.99602">
        <ele>173.97</ele>
        <time>2026-04-16T09:05:41.036Z</time>
      </trkpt>
      <trkpt lat="43.71469" lon="4.99592">
        <ele>174.64</ele>
        <time>2026-04-16T09:05:46.496Z</time>
      </trkpt>
      <trkpt lat="43.71471" lon="4.99584">
        <ele>175.15</ele>
        <time>2026-04-16T09:05:51.621Z</time>
      </trkpt>
      <trkpt lat="43.71472" lon="4.99577">
        <ele>175.24</ele>
        <time>2026-04-16T09:05:56.954Z</time>
      </trkpt>
      <trkpt lat="43.71475" lon="4.99571">
        <ele>176.02</ele>
        <time>2026-04-16T09:06:02.222Z</time>
      </trkpt>
      <trkpt lat="43.71479" lon="4.99565">
        <ele>175.62</ele>
        <time>2026-04-16T09:06:07.519Z</time>
      </trkpt>
      <trkpt lat="43.71483" lon="4.99561">
        <ele>176.01</ele>
        <time>2026-04-16T09:06:12.774Z</time>
      </trkpt>
      <trkpt lat="43.71489" lon="4.99556">
        <ele>176.69</ele>
        <time>2026-04-16T09:06:18.135Z</time>
      </trkpt>
      <trkpt lat="43.71495" lon="4.9955">
        <ele>176.39</ele>
        <time>2026-04-16T09:06:23.560Z</time>
      </trkpt>
      <trkpt lat="43.71501" lon="4.99542">
        <ele>177.15</ele>
        <time>2026-04-16T09:06:28.600Z</time>
      </trkpt>
      <trkpt lat="43.71506" lon="4.99534">
        <ele>177.36</ele>
        <time>2026-04-16T09:06:33.697Z</time>
      </trkpt>
      <trkpt lat="43.7151" lon="4.99524">
        <ele>176.94</ele>
        <time>2026-04-16T09:06:39.720Z</time>
      </trkpt>
      <trkpt lat="43.71515" lon="4.99518">
        <ele>177.9</ele>
        <time>2026-04-16T09:06:45.019Z</time>
      </trkpt>
      <trkpt lat="43.71521" lon="4.99517">
        <ele>177.98</ele>
        <time>2026-04-16T09:06:50.356Z</time>
      </trkpt>
      <trkpt lat="43.71529" lon="4.99517">
        <ele>178.47</ele>
        <time>2026-04-16T09:06:56.402Z</time>
      </trkpt>
      <trkpt lat="43.71533" lon="4.99516">
        <ele>178.78</ele>
        <time>2026-04-16T09:07:01.514Z</time>
      </trkpt>
      <trkpt lat="43.71538" lon="4.9951">
        <ele>178.41</ele>
        <time>2026-04-16T09:07:07.162Z</time>
      </trkpt>
      <trkpt lat="43.71541" lon="4.99502">
        <ele>179.14</ele>
        <time>2026-04-16T09:07:12.670Z</time>
      </trkpt>
      <trkpt lat="43.71543" lon="4.99494">
        <ele>179.62</ele>
        <time>2026-04-16T09:07:18.177Z</time>
      </trkpt>
      <trkpt lat="43.71548" lon="4.99488">
        <ele>179.96</ele>
        <time>2026-04-16T09:07:23.662Z</time>
      </trkpt>
      <trkpt lat="43.7155" lon="4.99478">
        <ele>181.81</ele>
        <time>2026-04-16T09:07:28.700Z</time>
      </trkpt>
      <trkpt lat="43.71552" lon="4.99469">
        <ele>181.22</ele>
        <time>2026-04-16T09:07:34.017Z</time>
      </trkpt>
      <trkpt lat="43.71553" lon="4.9946">
        <ele>180.99</ele>
        <time>2026-04-16T09:07:39.480Z</time>
      </trkpt>
      <trkpt lat="43.71551" lon="4.99454">
        <ele>181.25</ele>
        <time>2026-04-16T09:07:44.577Z</time>
      </trkpt>
      <trkpt lat="43.71551" lon="4.99453">
        <ele>182.63</ele>
        <time>2026-04-16T09:07:52.573Z</time>
      </trkpt>
      <trkpt lat="43.71555" lon="4.99445">
        <ele>184.46</ele>
        <time>2026-04-16T09:07:57.595Z</time>
      </trkpt>
      <trkpt lat="43.71557" lon="4.99439">
        <ele>183.4</ele>
        <time>2026-04-16T09:08:02.902Z</time>
      </trkpt>
      <trkpt lat="43.71558" lon="4.99432">
        <ele>179.11</ele>
        <time>2026-04-16T09:08:08.038Z</time>
      </trkpt>
      <trkpt lat="43.71561" lon="4.99424">
        <ele>188.85</ele>
        <time>2026-04-16T09:08:13.266Z</time>
      </trkpt>
      <trkpt lat="43.71566" lon="4.99419">
        <ele>184.2</ele>
        <time>2026-04-16T09:08:18.799Z</time>
      </trkpt>
      <trkpt lat="43.71567" lon="4.99413">
        <ele>183.97</ele>
        <time>2026-04-16T09:08:24.517Z</time>
      </trkpt>
      <trkpt lat="43.71568" lon="4.99408">
        <ele>184.31</ele>
        <time>2026-04-16T09:08:29.977Z</time>
      </trkpt>
      <trkpt lat="43.71566" lon="4.99401">
        <ele>183.81</ele>
        <time>2026-04-16T09:08:35.585Z</time>
      </trkpt>
      <trkpt lat="43.7157" lon="4.99391">
        <ele>184.45</ele>
        <time>2026-04-16T09:08:40.740Z</time>
      </trkpt>
      <trkpt lat="43.7157" lon="4.9938">
        <ele>184.15</ele>
        <time>2026-04-16T09:08:46.360Z</time>
      </trkpt>
      <trkpt lat="43.7157" lon="4.99369">
        <ele>185.26</ele>
        <time>2026-04-16T09:08:51.899Z</time>
      </trkpt>
      <trkpt lat="43.71569" lon="4.99358">
        <ele>186.38</ele>
        <time>2026-04-16T09:08:57.563Z</time>
      </trkpt>
      <trkpt lat="43.71569" lon="4.99352">
        <ele>185.62</ele>
        <time>2026-04-16T09:09:02.685Z</time>
      </trkpt>
      <trkpt lat="43.7157" lon="4.9935">
        <ele>186.18</ele>
        <time>2026-04-16T09:09:07.701Z</time>
      </trkpt>
      <trkpt lat="43.71571" lon="4.99343">
        <ele>190.46</ele>
        <time>2026-04-16T09:09:12.877Z</time>
      </trkpt>
      <trkpt lat="43.71582" lon="4.99341">
        <ele>187.84</ele>
        <time>2026-04-16T09:09:18.503Z</time>
      </trkpt>
      <trkpt lat="43.71584" lon="4.99333">
        <ele>187.99</ele>
        <time>2026-04-16T09:09:23.957Z</time>
      </trkpt>
      <trkpt lat="43.71582" lon="4.99327">
        <ele>187.58</ele>
        <time>2026-04-16T09:09:29.261Z</time>
      </trkpt>
      <trkpt lat="43.7158" lon="4.9932">
        <ele>187.43</ele>
        <time>2026-04-16T09:09:34.698Z</time>
      </trkpt>
      <trkpt lat="43.71576" lon="4.99314">
        <ele>188.19</ele>
        <time>2026-04-16T09:09:39.877Z</time>
      </trkpt>
      <trkpt lat="43.7157" lon="4.99311">
        <ele>188.22</ele>
        <time>2026-04-16T09:09:45.339Z</time>
      </trkpt>
      <trkpt lat="43.71566" lon="4.99308">
        <ele>189.1</ele>
        <time>2026-04-16T09:09:50.705Z</time>
      </trkpt>
      <trkpt lat="43.71563" lon="4.99298">
        <ele>190.12</ele>
        <time>2026-04-16T09:09:55.981Z</time>
      </trkpt>
      <trkpt lat="43.71563" lon="4.99287">
        <ele>190.05</ele>
        <time>2026-04-16T09:10:01.381Z</time>
      </trkpt>
      <trkpt lat="43.71565" lon="4.99278">
        <ele>190.69</ele>
        <time>2026-04-16T09:10:06.617Z</time>
      </trkpt>
      <trkpt lat="43.71569" lon="4.99271">
        <ele>191.33</ele>
        <time>2026-04-16T09:10:11.629Z</time>
      </trkpt>
      <trkpt lat="43.71573" lon="4.99266">
        <ele>191</ele>
        <time>2026-04-16T09:10:16.646Z</time>
      </trkpt>
      <trkpt lat="43.71578" lon="4.99262">
        <ele>191.79</ele>
        <time>2026-04-16T09:10:22.005Z</time>
      </trkpt>
      <trkpt lat="43.71583" lon="4.99258">
        <ele>191.6</ele>
        <time>2026-04-16T09:10:27.437Z</time>
      </trkpt>
      <trkpt lat="43.71589" lon="4.99251">
        <ele>191.4</ele>
        <time>2026-04-16T09:10:33.402Z</time>
      </trkpt>
      <trkpt lat="43.71594" lon="4.99246">
        <ele>192.15</ele>
        <time>2026-04-16T09:10:38.463Z</time>
      </trkpt>
      <trkpt lat="43.71596" lon="4.99239">
        <ele>192.08</ele>
        <time>2026-04-16T09:10:43.899Z</time>
      </trkpt>
      <trkpt lat="43.71599" lon="4.99232">
        <ele>192.9</ele>
        <time>2026-04-16T09:10:49.304Z</time>
      </trkpt>
      <trkpt lat="43.716" lon="4.99225">
        <ele>193.22</ele>
        <time>2026-04-16T09:10:54.540Z</time>
      </trkpt>
      <trkpt lat="43.71602" lon="4.99214">
        <ele>192.78</ele>
        <time>2026-04-16T09:11:00.102Z</time>
      </trkpt>
      <trkpt lat="43.71604" lon="4.99205">
        <ele>193.33</ele>
        <time>2026-04-16T09:11:05.525Z</time>
      </trkpt>
      <trkpt lat="43.71605" lon="4.99197">
        <ele>193.15</ele>
        <time>2026-04-16T09:11:11.004Z</time>
      </trkpt>
      <trkpt lat="43.71607" lon="4.9919">
        <ele>193.35</ele>
        <time>2026-04-16T09:11:16.617Z</time>
      </trkpt>
      <trkpt lat="43.71608" lon="4.99183">
        <ele>193.99</ele>
        <time>2026-04-16T09:11:21.940Z</time>
      </trkpt>
      <trkpt lat="43.71613" lon="4.99178">
        <ele>193.88</ele>
        <time>2026-04-16T09:11:27.220Z</time>
      </trkpt>
      <trkpt lat="43.71619" lon="4.99174">
        <ele>194.18</ele>
        <time>2026-04-16T09:11:32.623Z</time>
      </trkpt>
      <trkpt lat="43.71624" lon="4.99171">
        <ele>194.8</ele>
        <time>2026-04-16T09:11:37.739Z</time>
      </trkpt>
      <trkpt lat="43.71627" lon="4.99167">
        <ele>194.8</ele>
        <time>2026-04-16T09:11:43.722Z</time>
      </trkpt>
      <trkpt lat="43.71628" lon="4.99167">
        <ele>196.22</ele>
        <time>2026-04-16T09:11:49.600Z</time>
      </trkpt>
      <trkpt lat="43.71629" lon="4.99168">
        <ele>195.53</ele>
        <time>2026-04-16T09:11:54.615Z</time>
      </trkpt>
      <trkpt lat="43.71629" lon="4.99167">
        <ele>195.13</ele>
        <time>2026-04-16T09:11:59.630Z</time>
      </trkpt>
      <trkpt lat="43.71631" lon="4.99168">
        <ele>195.39</ele>
        <time>2026-04-16T09:12:05.138Z</time>
      </trkpt>
      <trkpt lat="43.71632" lon="4.99169">
        <ele>195.23</ele>
        <time>2026-04-16T09:12:10.358Z</time>
      </trkpt>
      <trkpt lat="43.71633" lon="4.9917">
        <ele>196.28</ele>
        <time>2026-04-16T09:12:15.721Z</time>
      </trkpt>
      <trkpt lat="43.71638" lon="4.99172">
        <ele>197.08</ele>
        <time>2026-04-16T09:12:21.437Z</time>
      </trkpt>
      <trkpt lat="43.71642" lon="4.99172">
        <ele>196.64</ele>
        <time>2026-04-16T09:12:26.481Z</time>
      </trkpt>
      <trkpt lat="43.71646" lon="4.99172">
        <ele>197.09</ele>
        <time>2026-04-16T09:12:31.645Z</time>
      </trkpt>
      <trkpt lat="43.71649" lon="4.99176">
        <ele>198.49</ele>
        <time>2026-04-16T09:12:36.660Z</time>
      </trkpt>
      <trkpt lat="43.71652" lon="4.99178">
        <ele>199</ele>
        <time>2026-04-16T09:12:41.677Z</time>
      </trkpt>
      <trkpt lat="43.71658" lon="4.99175">
        <ele>199.5</ele>
        <time>2026-04-16T09:12:47.059Z</time>
      </trkpt>
      <trkpt lat="43.71664" lon="4.99175">
        <ele>199.72</ele>
        <time>2026-04-16T09:12:52.137Z</time>
      </trkpt>
      <trkpt lat="43.7167" lon="4.99179">
        <ele>200.5</ele>
        <time>2026-04-16T09:12:57.223Z</time>
      </trkpt>
      <trkpt lat="43.71675" lon="4.99181">
        <ele>200.33</ele>
        <time>2026-04-16T09:13:02.746Z</time>
      </trkpt>
      <trkpt lat="43.7168" lon="4.99186">
        <ele>201.44</ele>
        <time>2026-04-16T09:13:08.675Z</time>
      </trkpt>
      <trkpt lat="43.71686" lon="4.99188">
        <ele>201.6</ele>
        <time>2026-04-16T09:13:14.530Z</time>
      </trkpt>
      <trkpt lat="43.71692" lon="4.99188">
        <ele>201.97</ele>
        <time>2026-04-16T09:13:20.053Z</time>
      </trkpt>
      <trkpt lat="43.71697" lon="4.99188">
        <ele>202.02</ele>
        <time>2026-04-16T09:13:25.406Z</time>
      </trkpt>
      <trkpt lat="43.71702" lon="4.99187">
        <ele>202.21</ele>
        <time>2026-04-16T09:13:30.431Z</time>
      </trkpt>
      <trkpt lat="43.71707" lon="4.9919">
        <ele>203.28</ele>
        <time>2026-04-16T09:13:35.472Z</time>
      </trkpt>
      <trkpt lat="43.71713" lon="4.99192">
        <ele>203.64</ele>
        <time>2026-04-16T09:13:41.705Z</time>
      </trkpt>
      <trkpt lat="43.71715" lon="4.99189">
        <ele>204.33</ele>
        <time>2026-04-16T09:13:47.369Z</time>
      </trkpt>
      <trkpt lat="43.71714" lon="4.99191">
        <ele>204.83</ele>
        <time>2026-04-16T09:13:52.599Z</time>
      </trkpt>
      <trkpt lat="43.71715" lon="4.9919">
        <ele>205.33</ele>
        <time>2026-04-16T09:14:08.657Z</time>
      </trkpt>
      <trkpt lat="43.71719" lon="4.99186">
        <ele>206.46</ele>
        <time>2026-04-16T09:14:13.674Z</time>
      </trkpt>
      <trkpt lat="43.7172" lon="4.99189">
        <ele>205.2</ele>
        <time>2026-04-16T09:14:18.690Z</time>
      </trkpt>
      <trkpt lat="43.7172" lon="4.99193">
        <ele>204.21</ele>
        <time>2026-04-16T09:14:23.705Z</time>
      </trkpt>
      <trkpt lat="43.71724" lon="4.99196">
        <ele>204.1</ele>
        <time>2026-04-16T09:14:28.713Z</time>
      </trkpt>
      <trkpt lat="43.71731" lon="4.99198">
        <ele>204.9</ele>
        <time>2026-04-16T09:14:34.575Z</time>
      </trkpt>
      <trkpt lat="43.71736" lon="4.99197">
        <ele>206.39</ele>
        <time>2026-04-16T09:14:39.606Z</time>
      </trkpt>
      <trkpt lat="43.71741" lon="4.99203">
        <ele>208.83</ele>
        <time>2026-04-16T09:14:45.269Z</time>
      </trkpt>
      <trkpt lat="43.71746" lon="4.99202">
        <ele>208.47</ele>
        <time>2026-04-16T09:14:50.598Z</time>
      </trkpt>
      <trkpt lat="43.71751" lon="4.992">
        <ele>208.12</ele>
        <time>2026-04-16T09:14:55.721Z</time>
      </trkpt>
      <trkpt lat="43.71755" lon="4.99195">
        <ele>208.96</ele>
        <time>2026-04-16T09:15:01.273Z</time>
      </trkpt>
      <trkpt lat="43.71761" lon="4.99197">
        <ele>209.55</ele>
        <time>2026-04-16T09:15:06.415Z</time>
      </trkpt>
      <trkpt lat="43.71767" lon="4.99199">
        <ele>210.28</ele>
        <time>2026-04-16T09:15:11.437Z</time>
      </trkpt>
      <trkpt lat="43.71772" lon="4.99203">
        <ele>211.74</ele>
        <time>2026-04-16T09:15:16.637Z</time>
      </trkpt>
      <trkpt lat="43.71777" lon="4.99209">
        <ele>211.61</ele>
        <time>2026-04-16T09:15:21.913Z</time>
      </trkpt>
      <trkpt lat="43.71783" lon="4.99211">
        <ele>212.67</ele>
        <time>2026-04-16T09:15:27.071Z</time>
      </trkpt>
      <trkpt lat="43.71788" lon="4.99209">
        <ele>213.58</ele>
        <time>2026-04-16T09:15:32.273Z</time>
      </trkpt>
      <trkpt lat="43.71792" lon="4.99207">
        <ele>213.97</ele>
        <time>2026-04-16T09:15:37.716Z</time>
      </trkpt>
      <trkpt lat="43.71797" lon="4.99208">
        <ele>214.77</ele>
        <time>2026-04-16T09:15:43.690Z</time>
      </trkpt>
      <trkpt lat="43.71802" lon="4.99205">
        <ele>215.71</ele>
        <time>2026-04-16T09:15:49.649Z</time>
      </trkpt>
      <trkpt lat="43.71803" lon="4.99201">
        <ele>216.12</ele>
        <time>2026-04-16T09:15:55.351Z</time>
      </trkpt>
      <trkpt lat="43.71805" lon="4.99195">
        <ele>216.31</ele>
        <time>2026-04-16T09:16:00.597Z</time>
      </trkpt>
      <trkpt lat="43.71806" lon="4.99188">
        <ele>217.24</ele>
        <time>2026-04-16T09:16:06.032Z</time>
      </trkpt>
      <trkpt lat="43.71808" lon="4.99182">
        <ele>217.6</ele>
        <time>2026-04-16T09:16:11.635Z</time>
      </trkpt>
      <trkpt lat="43.71809" lon="4.99178">
        <ele>218</ele>
        <time>2026-04-16T09:16:16.718Z</time>
      </trkpt>
      <trkpt lat="43.71812" lon="4.99173">
        <ele>218.17</ele>
        <time>2026-04-16T09:16:22.190Z</time>
      </trkpt>
      <trkpt lat="43.71817" lon="4.99168">
        <ele>218.49</ele>
        <time>2026-04-16T09:16:27.733Z</time>
      </trkpt>
      <trkpt lat="43.71821" lon="4.9916">
        <ele>219.93</ele>
        <time>2026-04-16T09:16:33.257Z</time>
      </trkpt>
      <trkpt lat="43.71819" lon="4.99155">
        <ele>221.07</ele>
        <time>2026-04-16T09:16:38.701Z</time>
      </trkpt>
      <trkpt lat="43.7182" lon="4.99156">
        <ele>221.05</ele>
        <time>2026-04-16T09:16:43.715Z</time>
      </trkpt>
      <trkpt lat="43.71822" lon="4.99153">
        <ele>220.97</ele>
        <time>2026-04-16T09:16:49.279Z</time>
      </trkpt>
      <trkpt lat="43.71824" lon="4.99145">
        <ele>222.09</ele>
        <time>2026-04-16T09:16:54.280Z</time>
      </trkpt>
      <trkpt lat="43.71826" lon="4.99137">
        <ele>222.42</ele>
        <time>2026-04-16T09:16:59.574Z</time>
      </trkpt>
      <trkpt lat="43.71825" lon="4.99131">
        <ele>223.85</ele>
        <time>2026-04-16T09:17:04.795Z</time>
      </trkpt>
      <trkpt lat="43.71825" lon="4.99124">
        <ele>224.6</ele>
        <time>2026-04-16T09:17:10.275Z</time>
      </trkpt>
      <trkpt lat="43.71823" lon="4.99116">
        <ele>225.32</ele>
        <time>2026-04-16T09:17:15.379Z</time>
      </trkpt>
      <trkpt lat="43.71821" lon="4.9911">
        <ele>225.89</ele>
        <time>2026-04-16T09:17:20.412Z</time>
      </trkpt>
      <trkpt lat="43.71817" lon="4.99104">
        <ele>225.94</ele>
        <time>2026-04-16T09:17:25.659Z</time>
      </trkpt>
      <trkpt lat="43.71814" lon="4.991">
        <ele>227.17</ele>
        <time>2026-04-16T09:17:30.670Z</time>
      </trkpt>
      <trkpt lat="43.71813" lon="4.99102">
        <ele>227.44</ele>
        <time>2026-04-16T09:17:35.685Z</time>
      </trkpt>
      <trkpt lat="43.71812" lon="4.99101">
        <ele>227.32</ele>
        <time>2026-04-16T09:17:41.593Z</time>
      </trkpt>
      <trkpt lat="43.7181" lon="4.99098">
        <ele>227.78</ele>
        <time>2026-04-16T09:17:47.636Z</time>
      </trkpt>
      <trkpt lat="43.71811" lon="4.99098">
        <ele>227.43</ele>
        <time>2026-04-16T09:17:52.653Z</time>
      </trkpt>
      <trkpt lat="43.71811" lon="4.99096">
        <ele>227.57</ele>
        <time>2026-04-16T09:17:57.668Z</time>
      </trkpt>
      <trkpt lat="43.7181" lon="4.99095">
        <ele>227.49</ele>
        <time>2026-04-16T09:18:06.631Z</time>
      </trkpt>
      <trkpt lat="43.71811" lon="4.99094">
        <ele>228.05</ele>
        <time>2026-04-16T09:18:39.713Z</time>
      </trkpt>
      <trkpt lat="43.71809" lon="4.99092">
        <ele>227.81</ele>
        <time>2026-04-16T09:18:55.613Z</time>
      </trkpt>
      <trkpt lat="43.71805" lon="4.99082">
        <ele>229.29</ele>
        <time>2026-04-16T09:19:00.628Z</time>
      </trkpt>
      <trkpt lat="43.71802" lon="4.99074">
        <ele>229.43</ele>
        <time>2026-04-16T09:19:05.673Z</time>
      </trkpt>
      <trkpt lat="43.718" lon="4.99067">
        <ele>230</ele>
        <time>2026-04-16T09:19:10.794Z</time>
      </trkpt>
      <trkpt lat="43.71797" lon="4.99064">
        <ele>230.88</ele>
        <time>2026-04-16T09:19:15.858Z</time>
      </trkpt>
      <trkpt lat="43.71791" lon="4.99061">
        <ele>231.77</ele>
        <time>2026-04-16T09:19:21.650Z</time>
      </trkpt>
      <trkpt lat="43.71788" lon="4.99056">
        <ele>232.45</ele>
        <time>2026-04-16T09:19:26.666Z</time>
      </trkpt>
      <trkpt lat="43.71784" lon="4.99049">
        <ele>233.84</ele>
        <time>2026-04-16T09:19:32.278Z</time>
      </trkpt>
      <trkpt lat="43.71782" lon="4.99042">
        <ele>234.41</ele>
        <time>2026-04-16T09:19:37.658Z</time>
      </trkpt>
      <trkpt lat="43.71781" lon="4.99037">
        <ele>235.25</ele>
        <time>2026-04-16T09:19:42.899Z</time>
      </trkpt>
      <trkpt lat="43.71779" lon="4.99034">
        <ele>235.5</ele>
        <time>2026-04-16T09:19:47.933Z</time>
      </trkpt>
      <trkpt lat="43.71779" lon="4.99031">
        <ele>236.41</ele>
        <time>2026-04-16T09:19:53.201Z</time>
      </trkpt>
      <trkpt lat="43.71778" lon="4.99033">
        <ele>237.98</ele>
        <time>2026-04-16T09:19:58.591Z</time>
      </trkpt>
      <trkpt lat="43.71778" lon="4.99031">
        <ele>237.24</ele>
        <time>2026-04-16T09:20:05.778Z</time>
      </trkpt>
      <trkpt lat="43.71781" lon="4.9902">
        <ele>237</ele>
        <time>2026-04-16T09:20:11.390Z</time>
      </trkpt>
      <trkpt lat="43.71788" lon="4.9902">
        <ele>240.64</ele>
        <time>2026-04-16T09:20:16.512Z</time>
      </trkpt>
      <trkpt lat="43.71791" lon="4.99027">
        <ele>241.21</ele>
        <time>2026-04-16T09:20:22.260Z</time>
      </trkpt>
      <trkpt lat="43.71794" lon="4.99027">
        <ele>240.75</ele>
        <time>2026-04-16T09:20:27.309Z</time>
      </trkpt>
      <trkpt lat="43.718" lon="4.99022">
        <ele>242.1</ele>
        <time>2026-04-16T09:20:32.627Z</time>
      </trkpt>
      <trkpt lat="43.71805" lon="4.99013">
        <ele>243.14</ele>
        <time>2026-04-16T09:20:37.910Z</time>
      </trkpt>
      <trkpt lat="43.71806" lon="4.99005">
        <ele>243.8</ele>
        <time>2026-04-16T09:20:43.650Z</time>
      </trkpt>
      <trkpt lat="43.71807" lon="4.99002">
        <ele>245.23</ele>
        <time>2026-04-16T09:20:49.710Z</time>
      </trkpt>
      <trkpt lat="43.7181" lon="4.98999">
        <ele>246.54</ele>
        <time>2026-04-16T09:20:54.724Z</time>
      </trkpt>
      <trkpt lat="43.71812" lon="4.98996">
        <ele>248.98</ele>
        <time>2026-04-16T09:21:00.259Z</time>
      </trkpt>
      <trkpt lat="43.71814" lon="4.98995">
        <ele>250.27</ele>
        <time>2026-04-16T09:21:05.726Z</time>
      </trkpt>
      <trkpt lat="43.71816" lon="4.98998">
        <ele>249.45</ele>
        <time>2026-04-16T09:21:11.170Z</time>
      </trkpt>
      <trkpt lat="43.71817" lon="4.99">
        <ele>250.09</ele>
        <time>2026-04-16T09:21:16.707Z</time>
      </trkpt>
      <trkpt lat="43.71817" lon="4.99003">
        <ele>249.22</ele>
        <time>2026-04-16T09:21:21.722Z</time>
      </trkpt>
      <trkpt lat="43.71817" lon="4.99005">
        <ele>249.52</ele>
        <time>2026-04-16T09:21:27.310Z</time>
      </trkpt>
      <trkpt lat="43.71819" lon="4.99007">
        <ele>249.74</ele>
        <time>2026-04-16T09:21:33.351Z</time>
      </trkpt>
      <trkpt lat="43.71821" lon="4.99007">
        <ele>250.63</ele>
        <time>2026-04-16T09:21:38.410Z</time>
      </trkpt>
      <trkpt lat="43.71823" lon="4.99007">
        <ele>251.9</ele>
        <time>2026-04-16T09:21:43.705Z</time>
      </trkpt>
      <trkpt lat="43.71824" lon="4.99007">
        <ele>252.74</ele>
        <time>2026-04-16T09:21:48.732Z</time>
      </trkpt>
      <trkpt lat="43.71825" lon="4.99007">
        <ele>253.28</ele>
        <time>2026-04-16T09:21:58.250Z</time>
      </trkpt>
      <trkpt lat="43.71827" lon="4.99006">
        <ele>254.94</ele>
        <time>2026-04-16T09:22:03.592Z</time>
      </trkpt>
      <trkpt lat="43.71829" lon="4.99004">
        <ele>255.94</ele>
        <time>2026-04-16T09:22:08.782Z</time>
      </trkpt>
      <trkpt lat="43.71832" lon="4.99004">
        <ele>256.52</ele>
        <time>2026-04-16T09:22:14.423Z</time>
      </trkpt>
      <trkpt lat="43.71833" lon="4.99005">
        <ele>255.5</ele>
        <time>2026-04-16T09:22:35.676Z</time>
      </trkpt>
      <trkpt lat="43.71832" lon="4.99005">
        <ele>256.36</ele>
        <time>2026-04-16T09:23:00.162Z</time>
      </trkpt>
      <trkpt lat="43.71832" lon="4.99004">
        <ele>257.41</ele>
        <time>2026-04-16T09:23:39.263Z</time>
      </trkpt>
      <trkpt lat="43.71833" lon="4.99003">
        <ele>259.44</ele>
        <time>2026-04-16T09:23:46.644Z</time>
      </trkpt>
      <trkpt lat="43.7184" lon="4.99002">
        <ele>259.52</ele>
        <time>2026-04-16T09:23:52.286Z</time>
      </trkpt>
      <trkpt lat="43.71844" lon="4.99002">
        <ele>259.66</ele>
        <time>2026-04-16T09:23:58.165Z</time>
      </trkpt>
      <trkpt lat="43.71848" lon="4.99003">
        <ele>260.15</ele>
        <time>2026-04-16T09:24:03.612Z</time>
      </trkpt>
      <trkpt lat="43.71851" lon="4.99005">
        <ele>260.47</ele>
        <time>2026-04-16T09:24:09.452Z</time>
      </trkpt>
      <trkpt lat="43.71853" lon="4.99006">
        <ele>261.18</ele>
        <time>2026-04-16T09:24:14.603Z</time>
      </trkpt>
      <trkpt lat="43.71854" lon="4.99006">
        <ele>262.02</ele>
        <time>2026-04-16T09:24:27.723Z</time>
      </trkpt>
      <trkpt lat="43.71855" lon="4.99005">
        <ele>262.68</ele>
        <time>2026-04-16T09:24:33.706Z</time>
      </trkpt>
      <trkpt lat="43.71856" lon="4.99004">
        <ele>262.92</ele>
        <time>2026-04-16T09:24:38.723Z</time>
      </trkpt>
      <trkpt lat="43.71857" lon="4.99004">
        <ele>263.71</ele>
        <time>2026-04-16T09:24:44.284Z</time>
      </trkpt>
      <trkpt lat="43.71859" lon="4.99004">
        <ele>263.78</ele>
        <time>2026-04-16T09:24:49.714Z</time>
      </trkpt>
      <trkpt lat="43.7186" lon="4.99003">
        <ele>263.84</ele>
        <time>2026-04-16T09:24:54.728Z</time>
      </trkpt>
      <trkpt lat="43.71861" lon="4.99002">
        <ele>262.73</ele>
        <time>2026-04-16T09:25:02.727Z</time>
      </trkpt>
      <trkpt lat="43.71862" lon="4.99002">
        <ele>262.2</ele>
        <time>2026-04-16T09:25:08.464Z</time>
      </trkpt>
      <trkpt lat="43.71865" lon="4.99003">
        <ele>264.66</ele>
        <time>2026-04-16T09:25:13.541Z</time>
      </trkpt>
      <trkpt lat="43.7187" lon="4.99007">
        <ele>264.19</ele>
        <time>2026-04-16T09:25:18.725Z</time>
      </trkpt>
      <trkpt lat="43.71873" lon="4.99011">
        <ele>263.5</ele>
        <time>2026-04-16T09:25:24.766Z</time>
      </trkpt>
      <trkpt lat="43.71879" lon="4.99011">
        <ele>262.5</ele>
        <time>2026-04-16T09:25:30.082Z</time>
      </trkpt>
      <trkpt lat="43.71881" lon="4.9901">
        <ele>261.67</ele>
        <time>2026-04-16T09:25:35.708Z</time>
      </trkpt>
      <trkpt lat="43.71882" lon="4.99008">
        <ele>262.37</ele>
        <time>2026-04-16T09:25:41.642Z</time>
      </trkpt>
      <trkpt lat="43.71883" lon="4.99004">
        <ele>263.82</ele>
        <time>2026-04-16T09:25:46.700Z</time>
      </trkpt>
      <trkpt lat="43.71885" lon="4.99006">
        <ele>264.13</ele>
        <time>2026-04-16T09:25:51.714Z</time>
      </trkpt>
      <trkpt lat="43.71888" lon="4.99007">
        <ele>263.44</ele>
        <time>2026-04-16T09:25:57.107Z</time>
      </trkpt>
      <trkpt lat="43.7189" lon="4.99008">
        <ele>262.31</ele>
        <time>2026-04-16T09:26:02.603Z</time>
      </trkpt>
      <trkpt lat="43.71891" lon="4.99008">
        <ele>261.44</ele>
        <time>2026-04-16T09:26:10.221Z</time>
      </trkpt>
      <trkpt lat="43.71892" lon="4.99008">
        <ele>263.55</ele>
        <time>2026-04-16T09:26:18.441Z</time>
      </trkpt>
      <trkpt lat="43.71894" lon="4.99006">
        <ele>266.58</ele>
        <time>2026-04-16T09:26:23.483Z</time>
      </trkpt>
      <trkpt lat="43.71897" lon="4.99003">
        <ele>268.98</ele>
        <time>2026-04-16T09:26:28.745Z</time>
      </trkpt>
      <trkpt lat="43.71898" lon="4.99003">
        <ele>269.1</ele>
        <time>2026-04-16T09:26:46.446Z</time>
      </trkpt>
      <trkpt lat="43.71899" lon="4.99002">
        <ele>270.21</ele>
        <time>2026-04-16T09:26:52.888Z</time>
      </trkpt>
      <trkpt lat="43.719" lon="4.98999">
        <ele>270.04</ele>
        <time>2026-04-16T09:26:58.023Z</time>
      </trkpt>
      <trkpt lat="43.71901" lon="4.98997">
        <ele>269.54</ele>
        <time>2026-04-16T09:27:03.667Z</time>
      </trkpt>
      <trkpt lat="43.71904" lon="4.98992">
        <ele>269.65</ele>
        <time>2026-04-16T09:27:08.683Z</time>
      </trkpt>
      <trkpt lat="43.71907" lon="4.98987">
        <ele>271.12</ele>
        <time>2026-04-16T09:27:13.698Z</time>
      </trkpt>
      <trkpt lat="43.71909" lon="4.98987">
        <ele>272.17</ele>
        <time>2026-04-16T09:27:19.081Z</time>
      </trkpt>
      <trkpt lat="43.71909" lon="4.98986">
        <ele>271.14</ele>
        <time>2026-04-16T09:27:31.995Z</time>
      </trkpt>
      <trkpt lat="43.7191" lon="4.98981">
        <ele>272.04</ele>
        <time>2026-04-16T09:27:37.275Z</time>
      </trkpt>
      <trkpt lat="43.7191" lon="4.98978">
        <ele>272.78</ele>
        <time>2026-04-16T09:27:42.733Z</time>
      </trkpt>
      <trkpt lat="43.7191" lon="4.98976">
        <ele>273.09</ele>
        <time>2026-04-16T09:27:47.747Z</time>
      </trkpt>
      <trkpt lat="43.71912" lon="4.98974">
        <ele>272.78</ele>
        <time>2026-04-16T09:27:53.641Z</time>
      </trkpt>
      <trkpt lat="43.71913" lon="4.98974">
        <ele>271.44</ele>
        <time>2026-04-16T09:27:59.700Z</time>
      </trkpt>
      <trkpt lat="43.71915" lon="4.98974">
        <ele>271.33</ele>
        <time>2026-04-16T09:28:05.013Z</time>
      </trkpt>
      <trkpt lat="43.71916" lon="4.98973">
        <ele>272.14</ele>
        <time>2026-04-16T09:28:10.690Z</time>
      </trkpt>
      <trkpt lat="43.71917" lon="4.98973">
        <ele>271.92</ele>
        <time>2026-04-16T09:28:23.678Z</time>
      </trkpt>
      <trkpt lat="43.71918" lon="4.9897">
        <ele>272.07</ele>
        <time>2026-04-16T09:28:28.726Z</time>
      </trkpt>
      <trkpt lat="43.71918" lon="4.98965">
        <ele>272.35</ele>
        <time>2026-04-16T09:28:34.171Z</time>
      </trkpt>
      <trkpt lat="43.71916" lon="4.98963">
        <ele>273.72</ele>
        <time>2026-04-16T09:28:39.717Z</time>
      </trkpt>
      <trkpt lat="43.71916" lon="4.98961">
        <ele>275.08</ele>
        <time>2026-04-16T09:28:44.732Z</time>
      </trkpt>
      <trkpt lat="43.71914" lon="4.98957">
        <ele>275.56</ele>
        <time>2026-04-16T09:28:50.453Z</time>
      </trkpt>
      <trkpt lat="43.71913" lon="4.98957">
        <ele>277.48</ele>
        <time>2026-04-16T09:28:55.724Z</time>
      </trkpt>
      <trkpt lat="43.71911" lon="4.98954">
        <ele>277.04</ele>
        <time>2026-04-16T09:29:01.253Z</time>
      </trkpt>
      <trkpt lat="43.71909" lon="4.98953">
        <ele>277.38</ele>
        <time>2026-04-16T09:29:06.715Z</time>
      </trkpt>
      <trkpt lat="43.71909" lon="4.98952">
        <ele>277.53</ele>
        <time>2026-04-16T09:29:12.632Z</time>
      </trkpt>
      <trkpt lat="43.71909" lon="4.9895">
        <ele>280.33</ele>
        <time>2026-04-16T09:29:17.706Z</time>
      </trkpt>
      <trkpt lat="43.7191" lon="4.98947">
        <ele>281.71</ele>
        <time>2026-04-16T09:29:22.721Z</time>
      </trkpt>
      <trkpt lat="43.7191" lon="4.98946">
        <ele>280.39</ele>
        <time>2026-04-16T09:29:30.725Z</time>
      </trkpt>
      <trkpt lat="43.71909" lon="4.98945">
        <ele>280.58</ele>
        <time>2026-04-16T09:29:35.739Z</time>
      </trkpt>
      <trkpt lat="43.71908" lon="4.98944">
        <ele>282.71</ele>
        <time>2026-04-16T09:29:42.139Z</time>
      </trkpt>
      <trkpt lat="43.71908" lon="4.98943">
        <ele>284.65</ele>
        <time>2026-04-16T09:29:47.312Z</time>
      </trkpt>
      <trkpt lat="43.71907" lon="4.98942">
        <ele>286.18</ele>
        <time>2026-04-16T09:29:52.707Z</time>
      </trkpt>
      <trkpt lat="43.71906" lon="4.98942">
        <ele>285.06</ele>
        <time>2026-04-16T09:29:57.722Z</time>
      </trkpt>
      <trkpt lat="43.71905" lon="4.98941">
        <ele>285.87</ele>
        <time>2026-04-16T09:30:03.698Z</time>
      </trkpt>
      <trkpt lat="43.71905" lon="4.98942">
        <ele>286.28</ele>
        <time>2026-04-16T09:30:10.741Z</time>
      </trkpt>
      <trkpt lat="43.71905" lon="4.98941">
        <ele>287.38</ele>
        <time>2026-04-16T09:30:42.656Z</time>
      </trkpt>
      <trkpt lat="43.71905" lon="4.98943">
        <ele>287.9</ele>
        <time>2026-04-16T09:30:48.739Z</time>
      </trkpt>
      <trkpt lat="43.71904" lon="4.98943">
        <ele>286.26</ele>
        <time>2026-04-16T09:31:03.678Z</time>
      </trkpt>
      <trkpt lat="43.71903" lon="4.98945">
        <ele>287.54</ele>
        <time>2026-04-16T09:31:08.694Z</time>
      </trkpt>
      <trkpt lat="43.71902" lon="4.98949">
        <ele>288.67</ele>
        <time>2026-04-16T09:31:14.670Z</time>
      </trkpt>
      <trkpt lat="43.71902" lon="4.9895">
        <ele>288.06</ele>
        <time>2026-04-16T09:31:19.684Z</time>
      </trkpt>
      <trkpt lat="43.71903" lon="4.98951">
        <ele>287.63</ele>
        <time>2026-04-16T09:31:25.309Z</time>
      </trkpt>
      <trkpt lat="43.71903" lon="4.98949">
        <ele>287.64</ele>
        <time>2026-04-16T09:31:36.627Z</time>
      </trkpt>
      <trkpt lat="43.71901" lon="4.98947">
        <ele>288.15</ele>
        <time>2026-04-16T09:31:41.732Z</time>
      </trkpt>
      <trkpt lat="43.719" lon="4.98948">
        <ele>287.86</ele>
        <time>2026-04-16T09:31:47.016Z</time>
      </trkpt>
      <trkpt lat="43.71896" lon="4.98948">
        <ele>289.83</ele>
        <time>2026-04-16T09:31:52.270Z</time>
      </trkpt>
      <trkpt lat="43.71893" lon="4.98951">
        <ele>292.43</ele>
        <time>2026-04-16T09:31:57.283Z</time>
      </trkpt>
      <trkpt lat="43.71892" lon="4.98951">
        <ele>292.78</ele>
        <time>2026-04-16T09:32:04.567Z</time>
      </trkpt>
      <trkpt lat="43.71891" lon="4.98954">
        <ele>296.37</ele>
        <time>2026-04-16T09:32:10.509Z</time>
      </trkpt>
      <trkpt lat="43.71887" lon="4.98952">
        <ele>297.06</ele>
        <time>2026-04-16T09:32:15.708Z</time>
      </trkpt>
      <trkpt lat="43.71887" lon="4.98954">
        <ele>298.75</ele>
        <time>2026-04-16T09:32:35.662Z</time>
      </trkpt>
      <trkpt lat="43.71886" lon="4.98954">
        <ele>303.03</ele>
        <time>2026-04-16T09:32:51.289Z</time>
      </trkpt>
      <trkpt lat="43.71885" lon="4.98953">
        <ele>305.04</ele>
        <time>2026-04-16T09:33:01.708Z</time>
      </trkpt>
      <trkpt lat="43.71884" lon="4.98953">
        <ele>306.11</ele>
        <time>2026-04-16T09:33:09.613Z</time>
      </trkpt>
      <trkpt lat="43.71883" lon="4.98951">
        <ele>305.93</ele>
        <time>2026-04-16T09:33:14.628Z</time>
      </trkpt>
      <trkpt lat="43.71882" lon="4.98951">
        <ele>304.71</ele>
        <time>2026-04-16T09:33:19.645Z</time>
      </trkpt>
      <trkpt lat="43.71881" lon="4.98951">
        <ele>305.29</ele>
        <time>2026-04-16T09:33:44.625Z</time>
      </trkpt>
      <trkpt lat="43.7188" lon="4.98952">
        <ele>304.95</ele>
        <time>2026-04-16T09:33:51.669Z</time>
      </trkpt>
      <trkpt lat="43.7188" lon="4.98951">
        <ele>305.04</ele>
        <time>2026-04-16T09:34:00.633Z</time>
      </trkpt>
      <trkpt lat="43.7188" lon="4.9895">
        <ele>304.34</ele>
        <time>2026-04-16T09:34:14.718Z</time>
      </trkpt>
      <trkpt lat="43.7188" lon="4.98948">
        <ele>305.32</ele>
        <time>2026-04-16T09:35:00.421Z</time>
      </trkpt>
      <trkpt lat="43.71877" lon="4.98947">
        <ele>306.08</ele>
        <time>2026-04-16T09:35:05.737Z</time>
      </trkpt>
      <trkpt lat="43.71875" lon="4.98947">
        <ele>309.08</ele>
        <time>2026-04-16T09:35:11.720Z</time>
      </trkpt>
      <trkpt lat="43.71875" lon="4.98946">
        <ele>308.46</ele>
        <time>2026-04-16T09:35:29.648Z</time>
      </trkpt>
      <trkpt lat="43.71874" lon="4.98945">
        <ele>309.84</ele>
        <time>2026-04-16T09:35:37.576Z</time>
      </trkpt>
      <trkpt lat="43.71872" lon="4.98941">
        <ele>309.1</ele>
        <time>2026-04-16T09:35:43.628Z</time>
      </trkpt>
      <trkpt lat="43.71869" lon="4.98938">
        <ele>310.57</ele>
        <time>2026-04-16T09:35:49.137Z</time>
      </trkpt>
      <trkpt lat="43.71867" lon="4.98937">
        <ele>311.72</ele>
        <time>2026-04-16T09:35:54.436Z</time>
      </trkpt>
      <trkpt lat="43.71866" lon="4.98936">
        <ele>311.83</ele>
        <time>2026-04-16T09:35:59.740Z</time>
      </trkpt>
      <trkpt lat="43.71865" lon="4.98934">
        <ele>312.64</ele>
        <time>2026-04-16T09:36:05.756Z</time>
      </trkpt>
      <trkpt lat="43.71865" lon="4.98933">
        <ele>313.65</ele>
        <time>2026-04-16T09:36:11.691Z</time>
      </trkpt>
      <trkpt lat="43.71864" lon="4.98931">
        <ele>314.92</ele>
        <time>2026-04-16T09:36:16.708Z</time>
      </trkpt>
      <trkpt lat="43.71864" lon="4.98929">
        <ele>315.73</ele>
        <time>2026-04-16T09:36:22.391Z</time>
      </trkpt>
      <trkpt lat="43.71864" lon="4.98928">
        <ele>314.97</ele>
        <time>2026-04-16T09:36:27.699Z</time>
      </trkpt>
      <trkpt lat="43.71863" lon="4.98925">
        <ele>316.41</ele>
        <time>2026-04-16T09:36:32.714Z</time>
      </trkpt>
      <trkpt lat="43.71862" lon="4.98924">
        <ele>316.8</ele>
        <time>2026-04-16T09:36:37.729Z</time>
      </trkpt>
      <trkpt lat="43.71862" lon="4.98923">
        <ele>317.09</ele>
        <time>2026-04-16T09:36:45.157Z</time>
      </trkpt>
      <trkpt lat="43.71861" lon="4.98922">
        <ele>317.86</ele>
        <time>2026-04-16T09:36:53.402Z</time>
      </trkpt>
      <trkpt lat="43.71861" lon="4.9892">
        <ele>320.8</ele>
        <time>2026-04-16T09:37:03.694Z</time>
      </trkpt>
      <trkpt lat="43.71862" lon="4.98917">
        <ele>319.09</ele>
        <time>2026-04-16T09:37:08.711Z</time>
      </trkpt>
      <trkpt lat="43.71864" lon="4.98914">
        <ele>322.62</ele>
        <time>2026-04-16T09:37:13.725Z</time>
      </trkpt>
      <trkpt lat="43.71864" lon="4.98913">
        <ele>321.82</ele>
        <time>2026-04-16T09:37:21.729Z</time>
      </trkpt>
      <trkpt lat="43.71864" lon="4.98911">
        <ele>325.56</ele>
        <time>2026-04-16T09:37:58.651Z</time>
      </trkpt>
      <trkpt lat="43.71864" lon="4.9891">
        <ele>324.57</ele>
        <time>2026-04-16T09:38:05.694Z</time>
      </trkpt>
      <trkpt lat="43.71863" lon="4.98909">
        <ele>326.36</ele>
        <time>2026-04-16T09:38:10.709Z</time>
      </trkpt>
      <trkpt lat="43.71863" lon="4.98908">
        <ele>328.88</ele>
        <time>2026-04-16T09:38:17.668Z</time>
      </trkpt>
      <trkpt lat="43.71862" lon="4.98907">
        <ele>327.68</ele>
        <time>2026-04-16T09:38:23.499Z</time>
      </trkpt>
      <trkpt lat="43.71861" lon="4.98904">
        <ele>329.65</ele>
        <time>2026-04-16T09:38:28.742Z</time>
      </trkpt>
      <trkpt lat="43.71862" lon="4.98901">
        <ele>330.4</ele>
        <time>2026-04-16T09:38:34.719Z</time>
      </trkpt>
      <trkpt lat="43.71861" lon="4.989">
        <ele>331.94</ele>
        <time>2026-04-16T09:38:41.590Z</time>
      </trkpt>
      <trkpt lat="43.71861" lon="4.98899">
        <ele>332.75</ele>
        <time>2026-04-16T09:38:48.589Z</time>
      </trkpt>
      <trkpt lat="43.71861" lon="4.98897">
        <ele>330.83</ele>
        <time>2026-04-16T09:38:56.590Z</time>
      </trkpt>
      <trkpt lat="43.71861" lon="4.98895">
        <ele>330.67</ele>
        <time>2026-04-16T09:39:01.590Z</time>
      </trkpt>
      <trkpt lat="43.71861" lon="4.98893">
        <ele>332.21</ele>
        <time>2026-04-16T09:39:12.590Z</time>
      </trkpt>
      <trkpt lat="43.71861" lon="4.98892">
        <ele>332.08</ele>
        <time>2026-04-16T09:39:19.589Z</time>
      </trkpt>
      <trkpt lat="43.71861" lon="4.98891">
        <ele>331.91</ele>
        <time>2026-04-16T09:39:29.591Z</time>
      </trkpt>
      <trkpt lat="43.7186" lon="4.98889">
        <ele>334.92</ele>
        <time>2026-04-16T09:39:34.591Z</time>
      </trkpt>
      <trkpt lat="43.71859" lon="4.98885">
        <ele>334.48</ele>
        <time>2026-04-16T09:39:39.591Z</time>
      </trkpt>
      <trkpt lat="43.71858" lon="4.98882">
        <ele>334.04</ele>
        <time>2026-04-16T09:39:44.591Z</time>
      </trkpt>
      <trkpt lat="43.71856" lon="4.98881">
        <ele>334.09</ele>
        <time>2026-04-16T09:39:50.591Z</time>
      </trkpt>
      <trkpt lat="43.71856" lon="4.98879">
        <ele>335.18</ele>
        <time>2026-04-16T09:40:07.590Z</time>
      </trkpt>
      <trkpt lat="43.71855" lon="4.98878">
        <ele>335.96</ele>
        <time>2026-04-16T09:40:15.592Z</time>
      </trkpt>
      <trkpt lat="43.71855" lon="4.98877">
        <ele>338.71</ele>
        <time>2026-04-16T09:40:20.592Z</time>
      </trkpt>
      <trkpt lat="43.71854" lon="4.98874">
        <ele>339.58</ele>
        <time>2026-04-16T09:40:25.592Z</time>
      </trkpt>
      <trkpt lat="43.71854" lon="4.98872">
        <ele>340.93</ele>
        <time>2026-04-16T09:40:31.592Z</time>
      </trkpt>
      <trkpt lat="43.71852" lon="4.98871">
        <ele>341.78</ele>
        <time>2026-04-16T09:40:36.592Z</time>
      </trkpt>
      <trkpt lat="43.71852" lon="4.9887">
        <ele>342.78</ele>
        <time>2026-04-16T09:40:43.592Z</time>
      </trkpt>
      <trkpt lat="43.7185" lon="4.98868">
        <ele>343.68</ele>
        <time>2026-04-16T09:40:49.592Z</time>
      </trkpt>
      <trkpt lat="43.71849" lon="4.98867">
        <ele>343.58</ele>
        <time>2026-04-16T09:40:56.592Z</time>
      </trkpt>
      <trkpt lat="43.71849" lon="4.98866">
        <ele>341.4</ele>
        <time>2026-04-16T09:41:04.591Z</time>
      </trkpt>
      <trkpt lat="43.71849" lon="4.98864">
        <ele>342.8</ele>
        <time>2026-04-16T09:41:09.593Z</time>
      </trkpt>
      <trkpt lat="43.71849" lon="4.98863">
        <ele>342.2</ele>
        <time>2026-04-16T09:41:18.593Z</time>
      </trkpt>
      <trkpt lat="43.71847" lon="4.98857">
        <ele>342.89</ele>
        <time>2026-04-16T09:41:23.593Z</time>
      </trkpt>
      <trkpt lat="43.71846" lon="4.98854">
        <ele>346.31</ele>
        <time>2026-04-16T09:41:28.593Z</time>
      </trkpt>
      <trkpt lat="43.71845" lon="4.98853">
        <ele>346.92</ele>
        <time>2026-04-16T09:41:39.593Z</time>
      </trkpt>
      <trkpt lat="43.71841" lon="4.98848">
        <ele>347.68</ele>
        <time>2026-04-16T09:41:45.593Z</time>
      </trkpt>
      <trkpt lat="43.71839" lon="4.98847">
        <ele>349.82</ele>
        <time>2026-04-16T09:41:50.593Z</time>
      </trkpt>
      <trkpt lat="43.71837" lon="4.98845">
        <ele>351.7</ele>
        <time>2026-04-16T09:41:56.594Z</time>
      </trkpt>
      <trkpt lat="43.71838" lon="4.98844">
        <ele>352.63</ele>
        <time>2026-04-16T09:42:01.594Z</time>
      </trkpt>
      <trkpt lat="43.71838" lon="4.98843">
        <ele>350.64</ele>
        <time>2026-04-16T09:42:14.594Z</time>
      </trkpt>
      <trkpt lat="43.71839" lon="4.98844">
        <ele>351.28</ele>
        <time>2026-04-16T09:42:23.595Z</time>
      </trkpt>
      <trkpt lat="43.71838" lon="4.98858">
        <ele>352.72</ele>
        <time>2026-04-16T09:42:29.593Z</time>
      </trkpt>
      <trkpt lat="43.71839" lon="4.98851">
        <ele>351.2</ele>
        <time>2026-04-16T09:42:34.595Z</time>
      </trkpt>
      <trkpt lat="43.71839" lon="4.98849">
        <ele>350.81</ele>
        <time>2026-04-16T09:42:42.593Z</time>
      </trkpt>
      <trkpt lat="43.71838" lon="4.98846">
        <ele>350.81</ele>
        <time>2026-04-16T09:42:47.594Z</time>
      </trkpt>
      <trkpt lat="43.71838" lon="4.98844">
        <ele>351.19</ele>
        <time>2026-04-16T09:42:58.595Z</time>
      </trkpt>
      <trkpt lat="43.71838" lon="4.98843">
        <ele>350.05</ele>
        <time>2026-04-16T09:43:18.595Z</time>
      </trkpt>
      <trkpt lat="43.71839" lon="4.98842">
        <ele>350.14</ele>
        <time>2026-04-16T09:43:46.596Z</time>
      </trkpt>
      <trkpt lat="43.71839" lon="4.98842">
        <ele>350.19</ele>
        <time>2026-04-16T09:44:11.595Z</time>
      </trkpt>
      <trkpt lat="43.7184" lon="4.98843">
        <ele>350.16</ele>
        <time>2026-04-16T09:45:56.597Z</time>
      </trkpt>
      <trkpt lat="43.71841" lon="4.98841">
        <ele>349.57</ele>
        <time>2026-04-16T09:46:37.599Z</time>
      </trkpt>
      <trkpt lat="43.71841" lon="4.9884">
        <ele>350.18</ele>
        <time>2026-04-16T09:47:21.601Z</time>
      </trkpt>
      <trkpt lat="43.71841" lon="4.98839">
        <ele>350.18</ele>
        <time>2026-04-16T09:48:32.743Z</time>
      </trkpt>
      <trkpt lat="43.7184" lon="4.98835">
        <ele>351.41</ele>
        <time>2026-04-16T09:48:38.554Z</time>
      </trkpt>
      <trkpt lat="43.7184" lon="4.98832">
        <ele>353.52</ele>
        <time>2026-04-16T09:48:43.735Z</time>
      </trkpt>
      <trkpt lat="43.7184" lon="4.98831">
        <ele>353.77</ele>
        <time>2026-04-16T09:48:51.448Z</time>
      </trkpt>
      <trkpt lat="43.71839" lon="4.9883">
        <ele>355.33</ele>
        <time>2026-04-16T09:48:56.647Z</time>
      </trkpt>
      <trkpt lat="43.71838" lon="4.98829">
        <ele>354.94</ele>
        <time>2026-04-16T09:49:01.661Z</time>
      </trkpt>
      <trkpt lat="43.71837" lon="4.98827">
        <ele>356.22</ele>
        <time>2026-04-16T09:49:07.457Z</time>
      </trkpt>
      <trkpt lat="43.71836" lon="4.98824">
        <ele>358.92</ele>
        <time>2026-04-16T09:49:12.654Z</time>
      </trkpt>
      <trkpt lat="43.71835" lon="4.98822">
        <ele>358.25</ele>
        <time>2026-04-16T09:49:18.660Z</time>
      </trkpt>
      <trkpt lat="43.71835" lon="4.98817">
        <ele>357.67</ele>
        <time>2026-04-16T09:49:23.710Z</time>
      </trkpt>
      <trkpt lat="43.71835" lon="4.98809">
        <ele>359.27</ele>
        <time>2026-04-16T09:49:29.753Z</time>
      </trkpt>
      <trkpt lat="43.71835" lon="4.98802">
        <ele>360.5</ele>
        <time>2026-04-16T09:49:35.703Z</time>
      </trkpt>
      <trkpt lat="43.71835" lon="4.98799">
        <ele>361.02</ele>
        <time>2026-04-16T09:49:40.719Z</time>
      </trkpt>
      <trkpt lat="43.71836" lon="4.98799">
        <ele>360.35</ele>
        <time>2026-04-16T09:49:45.734Z</time>
      </trkpt>
      <trkpt lat="43.71835" lon="4.98799">
        <ele>362.07</ele>
        <time>2026-04-16T09:50:05.473Z</time>
      </trkpt>
      <trkpt lat="43.71835" lon="4.988">
        <ele>362.56</ele>
        <time>2026-04-16T09:50:33.858Z</time>
      </trkpt>
      <trkpt lat="43.71834" lon="4.98803">
        <ele>362.16</ele>
        <time>2026-04-16T09:50:39.752Z</time>
      </trkpt>
      <trkpt lat="43.71834" lon="4.98806">
        <ele>361.71</ele>
        <time>2026-04-16T09:50:45.728Z</time>
      </trkpt>
      <trkpt lat="43.71836" lon="4.98813">
        <ele>361.68</ele>
        <time>2026-04-16T09:50:51.704Z</time>
      </trkpt>
      <trkpt lat="43.71839" lon="4.98818">
        <ele>361.82</ele>
        <time>2026-04-16T09:50:56.719Z</time>
      </trkpt>
      <trkpt lat="43.7184" lon="4.98819">
        <ele>360.89</ele>
        <time>2026-04-16T09:51:01.736Z</time>
      </trkpt>
      <trkpt lat="43.71839" lon="4.98817">
        <ele>361.33</ele>
        <time>2026-04-16T09:51:07.712Z</time>
      </trkpt>
      <trkpt lat="43.71839" lon="4.98816">
        <ele>361.26</ele>
        <time>2026-04-16T09:51:13.688Z</time>
      </trkpt>
      <trkpt lat="43.71838" lon="4.98814">
        <ele>360.98</ele>
        <time>2026-04-16T09:51:18.704Z</time>
      </trkpt>
      <trkpt lat="43.71838" lon="4.98813">
        <ele>360.85</ele>
        <time>2026-04-16T09:51:26.463Z</time>
      </trkpt>
      <trkpt lat="43.71838" lon="4.98811">
        <ele>360.14</ele>
        <time>2026-04-16T09:51:31.722Z</time>
      </trkpt>
      <trkpt lat="43.71837" lon="4.9881">
        <ele>359.86</ele>
        <time>2026-04-16T09:51:37.383Z</time>
      </trkpt>
      <trkpt lat="43.71837" lon="4.98807">
        <ele>359.54</ele>
        <time>2026-04-16T09:51:43.006Z</time>
      </trkpt>
      <trkpt lat="43.71837" lon="4.988">
        <ele>359.16</ele>
        <time>2026-04-16T09:51:48.464Z</time>
      </trkpt>
      <trkpt lat="43.71836" lon="4.98793">
        <ele>359.89</ele>
        <time>2026-04-16T09:51:53.706Z</time>
      </trkpt>
      <trkpt lat="43.71837" lon="4.98789">
        <ele>360.74</ele>
        <time>2026-04-16T09:51:59.359Z</time>
      </trkpt>
      <trkpt lat="43.71837" lon="4.98784">
        <ele>361.75</ele>
        <time>2026-04-16T09:52:04.696Z</time>
      </trkpt>
      <trkpt lat="43.71837" lon="4.98781">
        <ele>362.06</ele>
        <time>2026-04-16T09:52:09.713Z</time>
      </trkpt>
      <trkpt lat="43.71837" lon="4.98776">
        <ele>362.87</ele>
        <time>2026-04-16T09:52:15.688Z</time>
      </trkpt>
      <trkpt lat="43.71836" lon="4.98773">
        <ele>363.23</ele>
        <time>2026-04-16T09:52:21.053Z</time>
      </trkpt>
      <trkpt lat="43.71835" lon="4.98771">
        <ele>364.74</ele>
        <time>2026-04-16T09:52:26.382Z</time>
      </trkpt>
      <trkpt lat="43.71835" lon="4.98769">
        <ele>367.88</ele>
        <time>2026-04-16T09:52:32.655Z</time>
      </trkpt>
      <trkpt lat="43.71833" lon="4.98761">
        <ele>368.13</ele>
        <time>2026-04-16T09:52:37.959Z</time>
      </trkpt>
      <trkpt lat="43.71833" lon="4.98755">
        <ele>367.8</ele>
        <time>2026-04-16T09:52:43.665Z</time>
      </trkpt>
      <trkpt lat="43.71833" lon="4.98754">
        <ele>367.8</ele>
        <time>2026-04-16T09:52:49.748Z</time>
      </trkpt>
      <trkpt lat="43.71833" lon="4.98753">
        <ele>368.42</ele>
        <time>2026-04-16T09:52:57.751Z</time>
      </trkpt>
      <trkpt lat="43.71833" lon="4.9875">
        <ele>369.45</ele>
        <time>2026-04-16T09:53:03.356Z</time>
      </trkpt>
      <trkpt lat="43.71834" lon="4.98745">
        <ele>371.61</ele>
        <time>2026-04-16T09:53:09.040Z</time>
      </trkpt>
      <trkpt lat="43.71833" lon="4.9874">
        <ele>370.67</ele>
        <time>2026-04-16T09:53:14.464Z</time>
      </trkpt>
      <trkpt lat="43.71834" lon="4.98737">
        <ele>371.23</ele>
        <time>2026-04-16T09:53:20.342Z</time>
      </trkpt>
      <trkpt lat="43.71835" lon="4.98735">
        <ele>372.08</ele>
        <time>2026-04-16T09:53:25.718Z</time>
      </trkpt>
      <trkpt lat="43.71835" lon="4.98734">
        <ele>371.65</ele>
        <time>2026-04-16T09:54:05.734Z</time>
      </trkpt>
      <trkpt lat="43.71835" lon="4.98733">
        <ele>372.99</ele>
        <time>2026-04-16T09:54:26.574Z</time>
      </trkpt>
      <trkpt lat="43.71836" lon="4.98731">
        <ele>372.46</ele>
        <time>2026-04-16T09:54:36.559Z</time>
      </trkpt>
      <trkpt lat="43.71836" lon="4.9873">
        <ele>373.99</ele>
        <time>2026-04-16T09:54:43.602Z</time>
      </trkpt>
      <trkpt lat="43.71835" lon="4.98729">
        <ele>376.34</ele>
        <time>2026-04-16T09:54:49.168Z</time>
      </trkpt>
      <trkpt lat="43.71835" lon="4.98728">
        <ele>378.46</ele>
        <time>2026-04-16T09:54:54.723Z</time>
      </trkpt>
      <trkpt lat="43.71835" lon="4.98726">
        <ele>378.78</ele>
        <time>2026-04-16T09:54:59.738Z</time>
      </trkpt>
      <trkpt lat="43.71835" lon="4.98724">
        <ele>379.39</ele>
        <time>2026-04-16T09:55:05.713Z</time>
      </trkpt>
      <trkpt lat="43.71834" lon="4.98721">
        <ele>379.96</ele>
        <time>2026-04-16T09:55:11.150Z</time>
      </trkpt>
      <trkpt lat="43.71832" lon="4.98716">
        <ele>381.77</ele>
        <time>2026-04-16T09:55:16.704Z</time>
      </trkpt>
      <trkpt lat="43.71831" lon="4.98714">
        <ele>382.15</ele>
        <time>2026-04-16T09:55:21.720Z</time>
      </trkpt>
      <trkpt lat="43.7183" lon="4.98712">
        <ele>382.85</ele>
        <time>2026-04-16T09:55:26.735Z</time>
      </trkpt>
      <trkpt lat="43.71829" lon="4.9871">
        <ele>384.84</ele>
        <time>2026-04-16T09:55:32.110Z</time>
      </trkpt>
      <trkpt lat="43.71829" lon="4.98709">
        <ele>384.81</ele>
        <time>2026-04-16T09:55:37.726Z</time>
      </trkpt>
      <trkpt lat="43.7183" lon="4.98708">
        <ele>384.39</ele>
        <time>2026-04-16T09:55:43.702Z</time>
      </trkpt>
      <trkpt lat="43.71833" lon="4.98704">
        <ele>385.82</ele>
        <time>2026-04-16T09:55:48.716Z</time>
      </trkpt>
      <trkpt lat="43.71834" lon="4.98699">
        <ele>386.35</ele>
        <time>2026-04-16T09:55:53.732Z</time>
      </trkpt>
      <trkpt lat="43.71834" lon="4.98698">
        <ele>386.72</ele>
        <time>2026-04-16T09:56:00.672Z</time>
      </trkpt>
      <trkpt lat="43.71835" lon="4.98695">
        <ele>387.46</ele>
        <time>2026-04-16T09:56:05.684Z</time>
      </trkpt>
      <trkpt lat="43.71836" lon="4.98693">
        <ele>387.49</ele>
        <time>2026-04-16T09:56:10.698Z</time>
      </trkpt>
      <trkpt lat="43.71836" lon="4.98692">
        <ele>387.07</ele>
        <time>2026-04-16T09:56:23.295Z</time>
      </trkpt>
      <trkpt lat="43.71836" lon="4.98691">
        <ele>387.66</ele>
        <time>2026-04-16T09:56:28.559Z</time>
      </trkpt>
      <trkpt lat="43.71836" lon="4.98689">
        <ele>388.77</ele>
        <time>2026-04-16T09:56:33.747Z</time>
      </trkpt>
      <trkpt lat="43.71837" lon="4.98685">
        <ele>389.74</ele>
        <time>2026-04-16T09:56:39.098Z</time>
      </trkpt>
      <trkpt lat="43.71838" lon="4.98683">
        <ele>390.27</ele>
        <time>2026-04-16T09:56:44.695Z</time>
      </trkpt>
      <trkpt lat="43.71838" lon="4.98681">
        <ele>389.86</ele>
        <time>2026-04-16T09:56:50.416Z</time>
      </trkpt>
      <trkpt lat="43.71838" lon="4.98678">
        <ele>389.94</ele>
        <time>2026-04-16T09:56:55.660Z</time>
      </trkpt>
      <trkpt lat="43.71839" lon="4.98676">
        <ele>391.3</ele>
        <time>2026-04-16T09:57:00.721Z</time>
      </trkpt>
      <trkpt lat="43.7184" lon="4.9867">
        <ele>391.99</ele>
        <time>2026-04-16T09:57:06.346Z</time>
      </trkpt>
      <trkpt lat="43.7184" lon="4.98668">
        <ele>392.2</ele>
        <time>2026-04-16T09:57:11.761Z</time>
      </trkpt>
      <trkpt lat="43.7184" lon="4.98667">
        <ele>394.95</ele>
        <time>2026-04-16T09:57:22.752Z</time>
      </trkpt>
      <trkpt lat="43.71841" lon="4.98665">
        <ele>394.12</ele>
        <time>2026-04-16T09:57:30.857Z</time>
      </trkpt>
      <trkpt lat="43.71841" lon="4.98664">
        <ele>395.34</ele>
        <time>2026-04-16T09:57:37.504Z</time>
      </trkpt>
      <trkpt lat="43.7184" lon="4.98662">
        <ele>396.58</ele>
        <time>2026-04-16T09:57:42.706Z</time>
      </trkpt>
      <trkpt lat="43.7184" lon="4.98661">
        <ele>398.26</ele>
        <time>2026-04-16T09:57:56.685Z</time>
      </trkpt>
      <trkpt lat="43.7184" lon="4.9866">
        <ele>397.57</ele>
        <time>2026-04-16T09:58:11.732Z</time>
      </trkpt>
      <trkpt lat="43.7184" lon="4.98659">
        <ele>397.64</ele>
        <time>2026-04-16T09:58:28.699Z</time>
      </trkpt>
      <trkpt lat="43.7184" lon="4.98657">
        <ele>397.96</ele>
        <time>2026-04-16T09:58:46.732Z</time>
      </trkpt>
      <trkpt lat="43.7184" lon="4.98656">
        <ele>398.01</ele>
        <time>2026-04-16T09:59:27.614Z</time>
      </trkpt>
      <trkpt lat="43.7184" lon="4.98655">
        <ele>398.3</ele>
        <time>2026-04-16T09:59:55.614Z</time>
      </trkpt>
      <trkpt lat="43.7184" lon="4.98654">
        <ele>399</ele>
        <time>2026-04-16T10:00:01.615Z</time>
      </trkpt>
      <trkpt lat="43.71839" lon="4.98653">
        <ele>399.12</ele>
        <time>2026-04-16T10:00:17.753Z</time>
      </trkpt>
      <trkpt lat="43.71839" lon="4.98651">
        <ele>399.24</ele>
        <time>2026-04-16T10:00:32.693Z</time>
      </trkpt>
      <trkpt lat="43.71839" lon="4.9865">
        <ele>399.32</ele>
        <time>2026-04-16T10:00:44.750Z</time>
      </trkpt>
      <trkpt lat="43.71839" lon="4.98649">
        <ele>398.94</ele>
        <time>2026-04-16T10:00:53.714Z</time>
      </trkpt>
      <trkpt lat="43.71838" lon="4.98648">
        <ele>399.7</ele>
        <time>2026-04-16T10:01:30.743Z</time>
      </trkpt>
      <trkpt lat="43.71837" lon="4.98648">
        <ele>399.51</ele>
        <time>2026-04-16T10:01:49.737Z</time>
      </trkpt>
      <trkpt lat="43.71837" lon="4.98647">
        <ele>400.2</ele>
        <time>2026-04-16T10:02:39.319Z</time>
      </trkpt>
      <trkpt lat="43.71837" lon="4.98646">
        <ele>400.62</ele>
        <time>2026-04-16T10:03:12.757Z</time>
      </trkpt>
      <trkpt lat="43.71837" lon="4.98647">
        <ele>400.9</ele>
        <time>2026-04-16T10:04:03.660Z</time>
      </trkpt>
      <trkpt lat="43.71837" lon="4.98646">
        <ele>400.93</ele>
        <time>2026-04-16T10:04:24.440Z</time>
      </trkpt>
      <trkpt lat="43.71837" lon="4.98644">
        <ele>401.56</ele>
        <time>2026-04-16T10:04:29.698Z</time>
      </trkpt>
      <trkpt lat="43.71837" lon="4.98643">
        <ele>401.53</ele>
        <time>2026-04-16T10:04:37.457Z</time>
      </trkpt>
      <trkpt lat="43.71837" lon="4.98641">
        <ele>402.29</ele>
        <time>2026-04-16T10:04:42.499Z</time>
      </trkpt>
      <trkpt lat="43.71836" lon="4.9864">
        <ele>403.74</ele>
        <time>2026-04-16T10:04:47.733Z</time>
      </trkpt>
      <trkpt lat="43.71835" lon="4.98637">
        <ele>403.83</ele>
        <time>2026-04-16T10:04:52.981Z</time>
      </trkpt>
      <trkpt lat="43.71834" lon="4.98633">
        <ele>404.98</ele>
        <time>2026-04-16T10:04:58.179Z</time>
      </trkpt>
      <trkpt lat="43.71832" lon="4.98628">
        <ele>405.09</ele>
        <time>2026-04-16T10:05:03.574Z</time>
      </trkpt>
      <trkpt lat="43.71831" lon="4.98626">
        <ele>406.28</ele>
        <time>2026-04-16T10:05:08.660Z</time>
      </trkpt>
      <trkpt lat="43.7183" lon="4.98625">
        <ele>407.92</ele>
        <time>2026-04-16T10:05:13.771Z</time>
      </trkpt>
      <trkpt lat="43.71829" lon="4.98624">
        <ele>407.44</ele>
        <time>2026-04-16T10:05:20.437Z</time>
      </trkpt>
      <trkpt lat="43.71829" lon="4.98623">
        <ele>407.21</ele>
        <time>2026-04-16T10:05:25.604Z</time>
      </trkpt>
      <trkpt lat="43.71828" lon="4.98623">
        <ele>408.68</ele>
        <time>2026-04-16T10:05:30.740Z</time>
      </trkpt>
      <trkpt lat="43.71827" lon="4.98622">
        <ele>409.61</ele>
        <time>2026-04-16T10:05:36.355Z</time>
      </trkpt>
      <trkpt lat="43.71826" lon="4.98621">
        <ele>410.45</ele>
        <time>2026-04-16T10:05:41.477Z</time>
      </trkpt>
      <trkpt lat="43.71824" lon="4.98619">
        <ele>411.69</ele>
        <time>2026-04-16T10:05:47.400Z</time>
      </trkpt>
      <trkpt lat="43.71821" lon="4.98616">
        <ele>411.53</ele>
        <time>2026-04-16T10:05:52.621Z</time>
      </trkpt>
      <trkpt lat="43.71817" lon="4.98612">
        <ele>412.54</ele>
        <time>2026-04-16T10:05:58.420Z</time>
      </trkpt>
      <trkpt lat="43.71813" lon="4.98611">
        <ele>413.73</ele>
        <time>2026-04-16T10:06:03.762Z</time>
      </trkpt>
      <trkpt lat="43.71811" lon="4.9861">
        <ele>414</ele>
        <time>2026-04-16T10:06:09.498Z</time>
      </trkpt>
      <trkpt lat="43.7181" lon="4.98608">
        <ele>414.02</ele>
        <time>2026-04-16T10:06:14.711Z</time>
      </trkpt>
      <trkpt lat="43.7181" lon="4.98607">
        <ele>413.67</ele>
        <time>2026-04-16T10:06:19.727Z</time>
      </trkpt>
      <trkpt lat="43.71808" lon="4.98606">
        <ele>413.5</ele>
        <time>2026-04-16T10:06:24.743Z</time>
      </trkpt>
      <trkpt lat="43.71807" lon="4.98605">
        <ele>414.23</ele>
        <time>2026-04-16T10:06:31.791Z</time>
      </trkpt>
      <trkpt lat="43.71806" lon="4.986">
        <ele>415.68</ele>
        <time>2026-04-16T10:06:37.174Z</time>
      </trkpt>
      <trkpt lat="43.71803" lon="4.98595">
        <ele>415.72</ele>
        <time>2026-04-16T10:06:42.459Z</time>
      </trkpt>
      <trkpt lat="43.71803" lon="4.98594">
        <ele>416.44</ele>
        <time>2026-04-16T10:06:48.761Z</time>
      </trkpt>
      <trkpt lat="43.71801" lon="4.98593">
        <ele>416.53</ele>
        <time>2026-04-16T10:06:54.776Z</time>
      </trkpt>
      <trkpt lat="43.71799" lon="4.98592">
        <ele>417.3</ele>
        <time>2026-04-16T10:07:00.099Z</time>
      </trkpt>
      <trkpt lat="43.71797" lon="4.98592">
        <ele>416.53</ele>
        <time>2026-04-16T10:07:05.715Z</time>
      </trkpt>
      <trkpt lat="43.71798" lon="4.98598">
        <ele>415.34</ele>
        <time>2026-04-16T10:07:11.175Z</time>
      </trkpt>
      <trkpt lat="43.71798" lon="4.98599">
        <ele>416.99</ele>
        <time>2026-04-16T10:07:20.559Z</time>
      </trkpt>
      <trkpt lat="43.718" lon="4.98601">
        <ele>417.34</ele>
        <time>2026-04-16T10:07:26.260Z</time>
      </trkpt>
      <trkpt lat="43.718" lon="4.98598">
        <ele>417.85</ele>
        <time>2026-04-16T10:07:31.338Z</time>
      </trkpt>
      <trkpt lat="43.71798" lon="4.98591">
        <ele>417.59</ele>
        <time>2026-04-16T10:07:37.083Z</time>
      </trkpt>
      <trkpt lat="43.71796" lon="4.98587">
        <ele>417.41</ele>
        <time>2026-04-16T10:07:42.659Z</time>
      </trkpt>
      <trkpt lat="43.71793" lon="4.98582">
        <ele>417.48</ele>
        <time>2026-04-16T10:07:48.763Z</time>
      </trkpt>
      <trkpt lat="43.71791" lon="4.98579">
        <ele>417.37</ele>
        <time>2026-04-16T10:07:53.801Z</time>
      </trkpt>
      <trkpt lat="43.71789" lon="4.98573">
        <ele>417.98</ele>
        <time>2026-04-16T10:07:59.300Z</time>
      </trkpt>
      <trkpt lat="43.71789" lon="4.98569">
        <ele>418.48</ele>
        <time>2026-04-16T10:08:04.634Z</time>
      </trkpt>
      <trkpt lat="43.71788" lon="4.98565">
        <ele>419.87</ele>
        <time>2026-04-16T10:08:10.273Z</time>
      </trkpt>
      <trkpt lat="43.71788" lon="4.98564">
        <ele>420.55</ele>
        <time>2026-04-16T10:08:16.700Z</time>
      </trkpt>
      <trkpt lat="43.71787" lon="4.98559">
        <ele>420.98</ele>
        <time>2026-04-16T10:08:21.716Z</time>
      </trkpt>
      <trkpt lat="43.71786" lon="4.98553">
        <ele>421.07</ele>
        <time>2026-04-16T10:08:26.732Z</time>
      </trkpt>
      <trkpt lat="43.71785" lon="4.98548">
        <ele>420.97</ele>
        <time>2026-04-16T10:08:31.748Z</time>
      </trkpt>
      <trkpt lat="43.71784" lon="4.98546">
        <ele>420.96</ele>
        <time>2026-04-16T10:08:37.263Z</time>
      </trkpt>
      <trkpt lat="43.71783" lon="4.98545">
        <ele>420.61</ele>
        <time>2026-04-16T10:08:42.766Z</time>
      </trkpt>
      <trkpt lat="43.71782" lon="4.9854">
        <ele>421.6</ele>
        <time>2026-04-16T10:08:48.079Z</time>
      </trkpt>
      <trkpt lat="43.71779" lon="4.98535">
        <ele>421.79</ele>
        <time>2026-04-16T10:08:53.269Z</time>
      </trkpt>
      <trkpt lat="43.71776" lon="4.9853">
        <ele>421.31</ele>
        <time>2026-04-16T10:08:58.393Z</time>
      </trkpt>
      <trkpt lat="43.71774" lon="4.98526">
        <ele>421.28</ele>
        <time>2026-04-16T10:09:03.682Z</time>
      </trkpt>
      <trkpt lat="43.71773" lon="4.98522">
        <ele>421.04</ele>
        <time>2026-04-16T10:09:09.582Z</time>
      </trkpt>
      <trkpt lat="43.71772" lon="4.98526">
        <ele>419.99</ele>
        <time>2026-04-16T10:09:14.662Z</time>
      </trkpt>
      <trkpt lat="43.71771" lon="4.98525">
        <ele>420.58</ele>
        <time>2026-04-16T10:09:21.722Z</time>
      </trkpt>
      <trkpt lat="43.71771" lon="4.98524">
        <ele>420.19</ele>
        <time>2026-04-16T10:09:28.659Z</time>
      </trkpt>
      <trkpt lat="43.7177" lon="4.98519">
        <ele>420.47</ele>
        <time>2026-04-16T10:09:34.025Z</time>
      </trkpt>
      <trkpt lat="43.71767" lon="4.98501">
        <ele>421.34</ele>
        <time>2026-04-16T10:09:39.763Z</time>
      </trkpt>
      <trkpt lat="43.71761" lon="4.98497">
        <ele>420.24</ele>
        <time>2026-04-16T10:09:45.740Z</time>
      </trkpt>
      <trkpt lat="43.71762" lon="4.98497">
        <ele>420.44</ele>
        <time>2026-04-16T10:09:53.720Z</time>
      </trkpt>
      <trkpt lat="43.71761" lon="4.98498">
        <ele>420.7</ele>
        <time>2026-04-16T10:10:00.788Z</time>
      </trkpt>
      <trkpt lat="43.71758" lon="4.98498">
        <ele>419.81</ele>
        <time>2026-04-16T10:10:05.799Z</time>
      </trkpt>
      <trkpt lat="43.71757" lon="4.98498">
        <ele>419.84</ele>
        <time>2026-04-16T10:10:11.674Z</time>
      </trkpt>
      <trkpt lat="43.71756" lon="4.98499">
        <ele>419.24</ele>
        <time>2026-04-16T10:10:16.705Z</time>
      </trkpt>
      <trkpt lat="43.71755" lon="4.98501">
        <ele>419.72</ele>
        <time>2026-04-16T10:10:21.706Z</time>
      </trkpt>
      <trkpt lat="43.71754" lon="4.98502">
        <ele>418.32</ele>
        <time>2026-04-16T10:10:27.682Z</time>
      </trkpt>
      <trkpt lat="43.71753" lon="4.98502">
        <ele>418.18</ele>
        <time>2026-04-16T10:10:36.646Z</time>
      </trkpt>
      <trkpt lat="43.71753" lon="4.98501">
        <ele>416.3</ele>
        <time>2026-04-16T10:10:55.749Z</time>
      </trkpt>
      <trkpt lat="43.71752" lon="4.98499">
        <ele>417.89</ele>
        <time>2026-04-16T10:11:03.753Z</time>
      </trkpt>
      <trkpt lat="43.71752" lon="4.98498">
        <ele>417.48</ele>
        <time>2026-04-16T10:11:24.776Z</time>
      </trkpt>
      <trkpt lat="43.71752" lon="4.98497">
        <ele>416.04</ele>
        <time>2026-04-16T10:11:30.628Z</time>
      </trkpt>
      <trkpt lat="43.71753" lon="4.98494">
        <ele>416.29</ele>
        <time>2026-04-16T10:11:38.629Z</time>
      </trkpt>
      <trkpt lat="43.71753" lon="4.98491">
        <ele>416.05</ele>
        <time>2026-04-16T10:11:44.628Z</time>
      </trkpt>
      <trkpt lat="43.71754" lon="4.98492">
        <ele>414.71</ele>
        <time>2026-04-16T10:11:49.628Z</time>
      </trkpt>
      <trkpt lat="43.71754" lon="4.98491">
        <ele>415.37</ele>
        <time>2026-04-16T10:12:07.629Z</time>
      </trkpt>
      <trkpt lat="43.71754" lon="4.98492">
        <ele>416.08</ele>
        <time>2026-04-16T10:12:12.629Z</time>
      </trkpt>
      <trkpt lat="43.71753" lon="4.9849">
        <ele>414.92</ele>
        <time>2026-04-16T10:12:31.629Z</time>
      </trkpt>
      <trkpt lat="43.71752" lon="4.98488">
        <ele>414.25</ele>
        <time>2026-04-16T10:12:36.630Z</time>
      </trkpt>
      <trkpt lat="43.71752" lon="4.9849">
        <ele>413.62</ele>
        <time>2026-04-16T10:12:42.630Z</time>
      </trkpt>
      <trkpt lat="43.71752" lon="4.98486">
        <ele>413.09</ele>
        <time>2026-04-16T10:12:47.630Z</time>
      </trkpt>
      <trkpt lat="43.71753" lon="4.98485">
        <ele>411.77</ele>
        <time>2026-04-16T10:12:58.629Z</time>
      </trkpt>
      <trkpt lat="43.71753" lon="4.98481">
        <ele>411.84</ele>
        <time>2026-04-16T10:13:03.630Z</time>
      </trkpt>
      <trkpt lat="43.71751" lon="4.98479">
        <ele>411.39</ele>
        <time>2026-04-16T10:13:08.630Z</time>
      </trkpt>
      <trkpt lat="43.71751" lon="4.98478">
        <ele>408.56</ele>
        <time>2026-04-16T10:13:16.630Z</time>
      </trkpt>
      <trkpt lat="43.7175" lon="4.98478">
        <ele>410.2</ele>
        <time>2026-04-16T10:13:22.630Z</time>
      </trkpt>
      <trkpt lat="43.71749" lon="4.9848">
        <ele>409.24</ele>
        <time>2026-04-16T10:13:37.631Z</time>
      </trkpt>
      <trkpt lat="43.71749" lon="4.98478">
        <ele>408.38</ele>
        <time>2026-04-16T10:14:05.630Z</time>
      </trkpt>
      <trkpt lat="43.71747" lon="4.98473">
        <ele>408.24</ele>
        <time>2026-04-16T10:14:10.631Z</time>
      </trkpt>
      <trkpt lat="43.71747" lon="4.98472">
        <ele>406.96</ele>
        <time>2026-04-16T10:14:32.726Z</time>
      </trkpt>
      <trkpt lat="43.71746" lon="4.98471">
        <ele>407.96</ele>
        <time>2026-04-16T10:14:45.746Z</time>
      </trkpt>
      <trkpt lat="43.71745" lon="4.9847">
        <ele>408.38</ele>
        <time>2026-04-16T10:14:59.363Z</time>
      </trkpt>
      <trkpt lat="43.71745" lon="4.98466">
        <ele>407.94</ele>
        <time>2026-04-16T10:15:04.742Z</time>
      </trkpt>
      <trkpt lat="43.71744" lon="4.98464">
        <ele>407.86</ele>
        <time>2026-04-16T10:15:10.168Z</time>
      </trkpt>
      <trkpt lat="43.71744" lon="4.98466">
        <ele>407.44</ele>
        <time>2026-04-16T10:15:18.405Z</time>
      </trkpt>
      <trkpt lat="43.71744" lon="4.98471">
        <ele>407.83</ele>
        <time>2026-04-16T10:15:23.737Z</time>
      </trkpt>
      <trkpt lat="43.71746" lon="4.9847">
        <ele>407.97</ele>
        <time>2026-04-16T10:15:29.715Z</time>
      </trkpt>
      <trkpt lat="43.71747" lon="4.9847">
        <ele>407.46</ele>
        <time>2026-04-16T10:15:39.527Z</time>
      </trkpt>
      <trkpt lat="43.71747" lon="4.98468">
        <ele>406.05</ele>
        <time>2026-04-16T10:15:44.656Z</time>
      </trkpt>
      <trkpt lat="43.71747" lon="4.98466">
        <ele>404.56</ele>
        <time>2026-04-16T10:16:02.524Z</time>
      </trkpt>
      <trkpt lat="43.71748" lon="4.98465">
        <ele>402.69</ele>
        <time>2026-04-16T10:16:17.739Z</time>
      </trkpt>
      <trkpt lat="43.71748" lon="4.98464">
        <ele>404.31</ele>
        <time>2026-04-16T10:16:33.747Z</time>
      </trkpt>
      <trkpt lat="43.71748" lon="4.98463">
        <ele>404.81</ele>
        <time>2026-04-16T10:16:38.763Z</time>
      </trkpt>
      <trkpt lat="43.71747" lon="4.98458">
        <ele>403.84</ele>
        <time>2026-04-16T10:16:44.257Z</time>
      </trkpt>
      <trkpt lat="43.71747" lon="4.98455">
        <ele>402.57</ele>
        <time>2026-04-16T10:16:49.528Z</time>
      </trkpt>
      <trkpt lat="43.71749" lon="4.98451">
        <ele>401.14</ele>
        <time>2026-04-16T10:16:54.770Z</time>
      </trkpt>
      <trkpt lat="43.7175" lon="4.98447">
        <ele>399.68</ele>
        <time>2026-04-16T10:17:00.527Z</time>
      </trkpt>
      <trkpt lat="43.71751" lon="4.98443">
        <ele>399.05</ele>
        <time>2026-04-16T10:17:05.683Z</time>
      </trkpt>
      <trkpt lat="43.71746" lon="4.98442">
        <ele>398.89</ele>
        <time>2026-04-16T10:17:11.468Z</time>
      </trkpt>
      <trkpt lat="43.71746" lon="4.98439">
        <ele>401.67</ele>
        <time>2026-04-16T10:17:16.755Z</time>
      </trkpt>
      <trkpt lat="43.71745" lon="4.9844">
        <ele>401.3</ele>
        <time>2026-04-16T10:17:22.731Z</time>
      </trkpt>
      <trkpt lat="43.71746" lon="4.98443">
        <ele>401.33</ele>
        <time>2026-04-16T10:17:28.415Z</time>
      </trkpt>
      <trkpt lat="43.71747" lon="4.98442">
        <ele>403.38</ele>
        <time>2026-04-16T10:17:35.750Z</time>
      </trkpt>
      <trkpt lat="43.71747" lon="4.98437">
        <ele>400.6</ele>
        <time>2026-04-16T10:17:41.727Z</time>
      </trkpt>
      <trkpt lat="43.71747" lon="4.98434">
        <ele>400.05</ele>
        <time>2026-04-16T10:17:46.742Z</time>
      </trkpt>
      <trkpt lat="43.71747" lon="4.98429">
        <ele>400.2</ele>
        <time>2026-04-16T10:17:52.273Z</time>
      </trkpt>
      <trkpt lat="43.71744" lon="4.98424">
        <ele>400.03</ele>
        <time>2026-04-16T10:17:57.702Z</time>
      </trkpt>
      <trkpt lat="43.71743" lon="4.98421">
        <ele>400.36</ele>
        <time>2026-04-16T10:18:02.957Z</time>
      </trkpt>
      <trkpt lat="43.71742" lon="4.98421">
        <ele>403.22</ele>
        <time>2026-04-16T10:18:20.677Z</time>
      </trkpt>
      <trkpt lat="43.71741" lon="4.98421">
        <ele>403.69</ele>
        <time>2026-04-16T10:18:32.563Z</time>
      </trkpt>
      <trkpt lat="43.7174" lon="4.98421">
        <ele>406.38</ele>
        <time>2026-04-16T10:18:47.743Z</time>
      </trkpt>
      <trkpt lat="43.71735" lon="4.98423">
        <ele>407.64</ele>
        <time>2026-04-16T10:18:53.487Z</time>
      </trkpt>
      <trkpt lat="43.71732" lon="4.98425">
        <ele>407.64</ele>
        <time>2026-04-16T10:18:58.744Z</time>
      </trkpt>
      <trkpt lat="43.7173" lon="4.98424">
        <ele>409.56</ele>
        <time>2026-04-16T10:19:04.752Z</time>
      </trkpt>
      <trkpt lat="43.71729" lon="4.98423">
        <ele>410.31</ele>
        <time>2026-04-16T10:19:09.767Z</time>
      </trkpt>
      <trkpt lat="43.71728" lon="4.98422">
        <ele>412.87</ele>
        <time>2026-04-16T10:19:17.772Z</time>
      </trkpt>
      <trkpt lat="43.71726" lon="4.98419">
        <ele>413.54</ele>
        <time>2026-04-16T10:19:23.748Z</time>
      </trkpt>
      <trkpt lat="43.71724" lon="4.98416">
        <ele>415</ele>
        <time>2026-04-16T10:19:29.362Z</time>
      </trkpt>
      <trkpt lat="43.71723" lon="4.98415">
        <ele>416.22</ele>
        <time>2026-04-16T10:19:34.521Z</time>
      </trkpt>
      <trkpt lat="43.71722" lon="4.98414">
        <ele>416.58</ele>
        <time>2026-04-16T10:19:39.688Z</time>
      </trkpt>
      <trkpt lat="43.71721" lon="4.98413">
        <ele>416.87</ele>
        <time>2026-04-16T10:19:44.771Z</time>
      </trkpt>
      <trkpt lat="43.7172" lon="4.98413">
        <ele>415.74</ele>
        <time>2026-04-16T10:19:54.696Z</time>
      </trkpt>
      <trkpt lat="43.71719" lon="4.98412">
        <ele>415.39</ele>
        <time>2026-04-16T10:19:59.712Z</time>
      </trkpt>
      <trkpt lat="43.71717" lon="4.98411">
        <ele>416.23</ele>
        <time>2026-04-16T10:20:04.726Z</time>
      </trkpt>
      <trkpt lat="43.71716" lon="4.98411">
        <ele>417.24</ele>
        <time>2026-04-16T10:20:10.269Z</time>
      </trkpt>
      <trkpt lat="43.71714" lon="4.9841">
        <ele>418.75</ele>
        <time>2026-04-16T10:20:15.801Z</time>
      </trkpt>
      <trkpt lat="43.71713" lon="4.98409">
        <ele>418.12</ele>
        <time>2026-04-16T10:20:21.566Z</time>
      </trkpt>
      <trkpt lat="43.71711" lon="4.98409">
        <ele>419.21</ele>
        <time>2026-04-16T10:20:26.852Z</time>
      </trkpt>
      <trkpt lat="43.71708" lon="4.98407">
        <ele>423.06</ele>
        <time>2026-04-16T10:20:32.359Z</time>
      </trkpt>
      <trkpt lat="43.71706" lon="4.98406">
        <ele>424.42</ele>
        <time>2026-04-16T10:20:37.702Z</time>
      </trkpt>
      <trkpt lat="43.71705" lon="4.98406">
        <ele>424.37</ele>
        <time>2026-04-16T10:20:48.694Z</time>
      </trkpt>
      <trkpt lat="43.71704" lon="4.98404">
        <ele>423.84</ele>
        <time>2026-04-16T10:20:53.709Z</time>
      </trkpt>
      <trkpt lat="43.71702" lon="4.98402">
        <ele>424.11</ele>
        <time>2026-04-16T10:20:58.725Z</time>
      </trkpt>
      <trkpt lat="43.717" lon="4.98401">
        <ele>424.79</ele>
        <time>2026-04-16T10:21:03.739Z</time>
      </trkpt>
      <trkpt lat="43.717" lon="4.984">
        <ele>424.45</ele>
        <time>2026-04-16T10:21:09.715Z</time>
      </trkpt>
      <trkpt lat="43.71699" lon="4.98399">
        <ele>424.04</ele>
        <time>2026-04-16T10:21:19.746Z</time>
      </trkpt>
      <trkpt lat="43.71699" lon="4.98398">
        <ele>424.45</ele>
        <time>2026-04-16T10:21:31.699Z</time>
      </trkpt>
      <trkpt lat="43.71699" lon="4.98396">
        <ele>424.22</ele>
        <time>2026-04-16T10:21:45.785Z</time>
      </trkpt>
      <trkpt lat="43.71701" lon="4.98396">
        <ele>423.95</ele>
        <time>2026-04-16T10:21:51.639Z</time>
      </trkpt>
      <trkpt lat="43.71702" lon="4.98398">
        <ele>423.98</ele>
        <time>2026-04-16T10:22:13.640Z</time>
      </trkpt>
      <trkpt lat="43.71703" lon="4.98398">
        <ele>425.1</ele>
        <time>2026-04-16T10:22:21.641Z</time>
      </trkpt>
      <trkpt lat="43.71703" lon="4.98397">
        <ele>425.87</ele>
        <time>2026-04-16T10:22:26.641Z</time>
      </trkpt>
      <trkpt lat="43.71702" lon="4.98396">
        <ele>425.13</ele>
        <time>2026-04-16T10:22:56.641Z</time>
      </trkpt>
      <trkpt lat="43.71703" lon="4.98398">
        <ele>427.02</ele>
        <time>2026-04-16T10:23:42.642Z</time>
      </trkpt>
      <trkpt lat="43.71703" lon="4.98396">
        <ele>428.04</ele>
        <time>2026-04-16T10:24:20.643Z</time>
      </trkpt>
      <trkpt lat="43.71704" lon="4.98393">
        <ele>427.14</ele>
        <time>2026-04-16T10:24:25.643Z</time>
      </trkpt>
      <trkpt lat="43.71702" lon="4.9839">
        <ele>427.77</ele>
        <time>2026-04-16T10:24:31.642Z</time>
      </trkpt>
      <trkpt lat="43.71697" lon="4.98388">
        <ele>428.21</ele>
        <time>2026-04-16T10:24:36.642Z</time>
      </trkpt>
      <trkpt lat="43.71694" lon="4.98388">
        <ele>429.36</ele>
        <time>2026-04-16T10:24:41.643Z</time>
      </trkpt>
      <trkpt lat="43.7169" lon="4.98387">
        <ele>430.87</ele>
        <time>2026-04-16T10:24:46.645Z</time>
      </trkpt>
      <trkpt lat="43.71685" lon="4.98385">
        <ele>432.45</ele>
        <time>2026-04-16T10:24:52.645Z</time>
      </trkpt>
      <trkpt lat="43.71682" lon="4.98382">
        <ele>432.82</ele>
        <time>2026-04-16T10:24:57.645Z</time>
      </trkpt>
      <trkpt lat="43.71684" lon="4.98377">
        <ele>433.55</ele>
        <time>2026-04-16T10:25:03.643Z</time>
      </trkpt>
      <trkpt lat="43.71692" lon="4.9838">
        <ele>434.13</ele>
        <time>2026-04-16T10:25:09.643Z</time>
      </trkpt>
      <trkpt lat="43.71693" lon="4.9838">
        <ele>434.6</ele>
        <time>2026-04-16T10:25:14.644Z</time>
      </trkpt>
      <trkpt lat="43.71694" lon="4.98379">
        <ele>434.3</ele>
        <time>2026-04-16T10:25:27.644Z</time>
      </trkpt>
      <trkpt lat="43.71694" lon="4.98378">
        <ele>434.25</ele>
        <time>2026-04-16T10:25:38.643Z</time>
      </trkpt>
      <trkpt lat="43.71693" lon="4.98375">
        <ele>434.17</ele>
        <time>2026-04-16T10:25:43.643Z</time>
      </trkpt>
      <trkpt lat="43.71694" lon="4.98374">
        <ele>437.74</ele>
        <time>2026-04-16T10:25:48.643Z</time>
      </trkpt>
      <trkpt lat="43.71693" lon="4.98372">
        <ele>437.4</ele>
        <time>2026-04-16T10:25:55.644Z</time>
      </trkpt>
      <trkpt lat="43.71692" lon="4.98367">
        <ele>437.15</ele>
        <time>2026-04-16T10:26:00.644Z</time>
      </trkpt>
      <trkpt lat="43.71691" lon="4.98362">
        <ele>436.93</ele>
        <time>2026-04-16T10:26:05.644Z</time>
      </trkpt>
      <trkpt lat="43.71689" lon="4.98358">
        <ele>435.76</ele>
        <time>2026-04-16T10:26:10.812Z</time>
      </trkpt>
      <trkpt lat="43.71688" lon="4.9835">
        <ele>438.33</ele>
        <time>2026-04-16T10:26:16.257Z</time>
      </trkpt>
      <trkpt lat="43.71686" lon="4.9835">
        <ele>438.48</ele>
        <time>2026-04-16T10:26:27.421Z</time>
      </trkpt>
      <trkpt lat="43.71683" lon="4.98346">
        <ele>437.96</ele>
        <time>2026-04-16T10:26:32.532Z</time>
      </trkpt>
      <trkpt lat="43.71682" lon="4.98344">
        <ele>435.77</ele>
        <time>2026-04-16T10:26:37.697Z</time>
      </trkpt>
      <trkpt lat="43.71682" lon="4.98343">
        <ele>436.59</ele>
        <time>2026-04-16T10:26:49.757Z</time>
      </trkpt>
      <trkpt lat="43.71682" lon="4.98343">
        <ele>433.76</ele>
        <time>2026-04-16T10:27:10.701Z</time>
      </trkpt>
      <trkpt lat="43.71682" lon="4.98342">
        <ele>434.22</ele>
        <time>2026-04-16T10:27:18.706Z</time>
      </trkpt>
      <trkpt lat="43.71683" lon="4.98341">
        <ele>435.7</ele>
        <time>2026-04-16T10:27:30.659Z</time>
      </trkpt>
      <trkpt lat="43.71683" lon="4.9834">
        <ele>437.12</ele>
        <time>2026-04-16T10:27:40.692Z</time>
      </trkpt>
      <trkpt lat="43.71684" lon="4.98338">
        <ele>435.6</ele>
        <time>2026-04-16T10:27:52.683Z</time>
      </trkpt>
      <trkpt lat="43.71684" lon="4.98337">
        <ele>434.65</ele>
        <time>2026-04-16T10:27:58.275Z</time>
      </trkpt>
      <trkpt lat="43.71683" lon="4.98335">
        <ele>434.55</ele>
        <time>2026-04-16T10:28:03.745Z</time>
      </trkpt>
      <trkpt lat="43.71684" lon="4.98333">
        <ele>434.59</ele>
        <time>2026-04-16T10:28:09.626Z</time>
      </trkpt>
      <trkpt lat="43.71684" lon="4.98331">
        <ele>435.74</ele>
        <time>2026-04-16T10:28:14.737Z</time>
      </trkpt>
      <trkpt lat="43.71684" lon="4.98328">
        <ele>435.15</ele>
        <time>2026-04-16T10:28:19.754Z</time>
      </trkpt>
      <trkpt lat="43.71684" lon="4.98327">
        <ele>433.7</ele>
        <time>2026-04-16T10:28:24.770Z</time>
      </trkpt>
      <trkpt lat="43.71684" lon="4.98326">
        <ele>433.52</ele>
        <time>2026-04-16T10:28:30.425Z</time>
      </trkpt>
      <trkpt lat="43.71684" lon="4.98323">
        <ele>433.09</ele>
        <time>2026-04-16T10:28:35.651Z</time>
      </trkpt>
      <trkpt lat="43.71684" lon="4.98316">
        <ele>432.62</ele>
        <time>2026-04-16T10:28:40.772Z</time>
      </trkpt>
      <trkpt lat="43.71685" lon="4.98306">
        <ele>432.42</ele>
        <time>2026-04-16T10:28:46.332Z</time>
      </trkpt>
      <trkpt lat="43.71685" lon="4.983">
        <ele>432.43</ele>
        <time>2026-04-16T10:28:51.771Z</time>
      </trkpt>
      <trkpt lat="43.71684" lon="4.98297">
        <ele>432.77</ele>
        <time>2026-04-16T10:28:56.786Z</time>
      </trkpt>
      <trkpt lat="43.71685" lon="4.98294">
        <ele>433.42</ele>
        <time>2026-04-16T10:29:01.788Z</time>
      </trkpt>
      <trkpt lat="43.71685" lon="4.98287">
        <ele>432.44</ele>
        <time>2026-04-16T10:29:07.452Z</time>
      </trkpt>
      <trkpt lat="43.71685" lon="4.98281">
        <ele>432.41</ele>
        <time>2026-04-16T10:29:12.508Z</time>
      </trkpt>
      <trkpt lat="43.71685" lon="4.98275">
        <ele>432.8</ele>
        <time>2026-04-16T10:29:18.210Z</time>
      </trkpt>
      <trkpt lat="43.71683" lon="4.98271">
        <ele>436.57</ele>
        <time>2026-04-16T10:29:23.293Z</time>
      </trkpt>
      <trkpt lat="43.71683" lon="4.98267">
        <ele>436.86</ele>
        <time>2026-04-16T10:29:28.451Z</time>
      </trkpt>
      <trkpt lat="43.71684" lon="4.98263">
        <ele>436.67</ele>
        <time>2026-04-16T10:29:33.634Z</time>
      </trkpt>
      <trkpt lat="43.71684" lon="4.98261">
        <ele>437.08</ele>
        <time>2026-04-16T10:29:39.705Z</time>
      </trkpt>
      <trkpt lat="43.71684" lon="4.9826">
        <ele>438.05</ele>
        <time>2026-04-16T10:29:46.480Z</time>
      </trkpt>
      <trkpt lat="43.71682" lon="4.98255">
        <ele>439.31</ele>
        <time>2026-04-16T10:29:51.766Z</time>
      </trkpt>
      <trkpt lat="43.71684" lon="4.98255">
        <ele>437.49</ele>
        <time>2026-04-16T10:29:56.781Z</time>
      </trkpt>
      <trkpt lat="43.71685" lon="4.98255">
        <ele>438.15</ele>
        <time>2026-04-16T10:30:07.240Z</time>
      </trkpt>
      <trkpt lat="43.71685" lon="4.98254">
        <ele>437.18</ele>
        <time>2026-04-16T10:30:20.811Z</time>
      </trkpt>
      <trkpt lat="43.71684" lon="4.98251">
        <ele>437.53</ele>
        <time>2026-04-16T10:30:26.139Z</time>
      </trkpt>
      <trkpt lat="43.71683" lon="4.98249">
        <ele>441.84</ele>
        <time>2026-04-16T10:30:31.655Z</time>
      </trkpt>
      <trkpt lat="43.71683" lon="4.98248">
        <ele>444.27</ele>
        <time>2026-04-16T10:30:40.708Z</time>
      </trkpt>
      <trkpt lat="43.71683" lon="4.98247">
        <ele>445.79</ele>
        <time>2026-04-16T10:30:46.125Z</time>
      </trkpt>
      <trkpt lat="43.71682" lon="4.98246">
        <ele>445.42</ele>
        <time>2026-04-16T10:30:51.209Z</time>
      </trkpt>
      <trkpt lat="43.71679" lon="4.98241">
        <ele>445.73</ele>
        <time>2026-04-16T10:30:56.688Z</time>
      </trkpt>
      <trkpt lat="43.71678" lon="4.9824">
        <ele>448.96</ele>
        <time>2026-04-16T10:31:01.719Z</time>
      </trkpt>
      <trkpt lat="43.71678" lon="4.98238">
        <ele>447.39</ele>
        <time>2026-04-16T10:31:09.722Z</time>
      </trkpt>
      <trkpt lat="43.71677" lon="4.98238">
        <ele>448.36</ele>
        <time>2026-04-16T10:31:17.727Z</time>
      </trkpt>
      <trkpt lat="43.71677" lon="4.98237">
        <ele>446.98</ele>
        <time>2026-04-16T10:31:40.249Z</time>
      </trkpt>
      <trkpt lat="43.71678" lon="4.98233">
        <ele>449.51</ele>
        <time>2026-04-16T10:31:45.804Z</time>
      </trkpt>
      <trkpt lat="43.71679" lon="4.98228">
        <ele>450.78</ele>
        <time>2026-04-16T10:31:51.509Z</time>
      </trkpt>
      <trkpt lat="43.71679" lon="4.98226">
        <ele>446.52</ele>
        <time>2026-04-16T10:31:58.675Z</time>
      </trkpt>
      <trkpt lat="43.71679" lon="4.98228">
        <ele>446.45</ele>
        <time>2026-04-16T10:32:15.794Z</time>
      </trkpt>
      <trkpt lat="43.7168" lon="4.98232">
        <ele>446.23</ele>
        <time>2026-04-16T10:32:20.810Z</time>
      </trkpt>
      <trkpt lat="43.71683" lon="4.98238">
        <ele>446.57</ele>
        <time>2026-04-16T10:32:26.531Z</time>
      </trkpt>
      <trkpt lat="43.71686" lon="4.98242">
        <ele>447.38</ele>
        <time>2026-04-16T10:32:31.803Z</time>
      </trkpt>
      <trkpt lat="43.71686" lon="4.98245">
        <ele>446.6</ele>
        <time>2026-04-16T10:32:37.779Z</time>
      </trkpt>
      <trkpt lat="43.71685" lon="4.98244">
        <ele>446.37</ele>
        <time>2026-04-16T10:32:42.794Z</time>
      </trkpt>
      <trkpt lat="43.71684" lon="4.98244">
        <ele>446.25</ele>
        <time>2026-04-16T10:32:49.732Z</time>
      </trkpt>
      <trkpt lat="43.71683" lon="4.98243">
        <ele>446.36</ele>
        <time>2026-04-16T10:32:57.735Z</time>
      </trkpt>
      <trkpt lat="43.71682" lon="4.98242">
        <ele>446.43</ele>
        <time>2026-04-16T10:33:03.574Z</time>
      </trkpt>
      <trkpt lat="43.71682" lon="4.9824">
        <ele>446.72</ele>
        <time>2026-04-16T10:33:09.053Z</time>
      </trkpt>
      <trkpt lat="43.71681" lon="4.98238">
        <ele>448.5</ele>
        <time>2026-04-16T10:33:14.432Z</time>
      </trkpt>
      <trkpt lat="43.7168" lon="4.98235">
        <ele>448.57</ele>
        <time>2026-04-16T10:33:19.972Z</time>
      </trkpt>
      <trkpt lat="43.7168" lon="4.98234">
        <ele>447.92</ele>
        <time>2026-04-16T10:33:26.763Z</time>
      </trkpt>
      <trkpt lat="43.7168" lon="4.98232">
        <ele>448.3</ele>
        <time>2026-04-16T10:33:32.739Z</time>
      </trkpt>
      <trkpt lat="43.7168" lon="4.98231">
        <ele>447.96</ele>
        <time>2026-04-16T10:33:58.778Z</time>
      </trkpt>
      <trkpt lat="43.71679" lon="4.98228">
        <ele>447.65</ele>
        <time>2026-04-16T10:34:04.755Z</time>
      </trkpt>
      <trkpt lat="43.71679" lon="4.98227">
        <ele>447.39</ele>
        <time>2026-04-16T10:34:15.746Z</time>
      </trkpt>
      <trkpt lat="43.71678" lon="4.98226">
        <ele>447.89</ele>
        <time>2026-04-16T10:34:28.766Z</time>
      </trkpt>
      <trkpt lat="43.71678" lon="4.98225">
        <ele>447.71</ele>
        <time>2026-04-16T10:34:50.750Z</time>
      </trkpt>
      <trkpt lat="43.71678" lon="4.98224">
        <ele>446.56</ele>
        <time>2026-04-16T10:35:13.831Z</time>
      </trkpt>
      <trkpt lat="43.71679" lon="4.98224">
        <ele>445.69</ele>
        <time>2026-04-16T10:35:24.689Z</time>
      </trkpt>
      <trkpt lat="43.7168" lon="4.98224">
        <ele>446.31</ele>
        <time>2026-04-16T10:35:33.429Z</time>
      </trkpt>
      <trkpt lat="43.71684" lon="4.98217">
        <ele>444.96</ele>
        <time>2026-04-16T10:35:38.837Z</time>
      </trkpt>
      <trkpt lat="43.71685" lon="4.98213">
        <ele>443.5</ele>
        <time>2026-04-16T10:35:44.757Z</time>
      </trkpt>
      <trkpt lat="43.71684" lon="4.98214">
        <ele>442.83</ele>
        <time>2026-04-16T10:35:50.337Z</time>
      </trkpt>
      <trkpt lat="43.71684" lon="4.98213">
        <ele>442.19</ele>
        <time>2026-04-16T10:35:55.477Z</time>
      </trkpt>
      <trkpt lat="43.71685" lon="4.98213">
        <ele>441.51</ele>
        <time>2026-04-16T10:36:00.652Z</time>
      </trkpt>
      <trkpt lat="43.71685" lon="4.98212">
        <ele>440.31</ele>
        <time>2026-04-16T10:36:06.451Z</time>
      </trkpt>
      <trkpt lat="43.71684" lon="4.98207">
        <ele>439.48</ele>
        <time>2026-04-16T10:36:11.757Z</time>
      </trkpt>
      <trkpt lat="43.71685" lon="4.98208">
        <ele>438.83</ele>
        <time>2026-04-16T10:36:16.772Z</time>
      </trkpt>
      <trkpt lat="43.71685" lon="4.98206">
        <ele>438.29</ele>
        <time>2026-04-16T10:36:30.752Z</time>
      </trkpt>
      <trkpt lat="43.71686" lon="4.98206">
        <ele>438.77</ele>
        <time>2026-04-16T10:36:49.748Z</time>
      </trkpt>
      <trkpt lat="43.71686" lon="4.98205">
        <ele>438.33</ele>
        <time>2026-04-16T10:37:06.715Z</time>
      </trkpt>
      <trkpt lat="43.71686" lon="4.98203">
        <ele>437.51</ele>
        <time>2026-04-16T10:37:30.538Z</time>
      </trkpt>
      <trkpt lat="43.71686" lon="4.982">
        <ele>436.46</ele>
        <time>2026-04-16T10:37:35.742Z</time>
      </trkpt>
      <trkpt lat="43.71688" lon="4.98197">
        <ele>435.99</ele>
        <time>2026-04-16T10:37:41.638Z</time>
      </trkpt>
      <trkpt lat="43.71689" lon="4.98196">
        <ele>434.9</ele>
        <time>2026-04-16T10:37:46.692Z</time>
      </trkpt>
      <trkpt lat="43.71688" lon="4.98195">
        <ele>430.96</ele>
        <time>2026-04-16T10:38:02.131Z</time>
      </trkpt>
      <trkpt lat="43.7169" lon="4.98189">
        <ele>430.21</ele>
        <time>2026-04-16T10:38:07.539Z</time>
      </trkpt>
      <trkpt lat="43.71692" lon="4.98187">
        <ele>428.83</ele>
        <time>2026-04-16T10:38:13.452Z</time>
      </trkpt>
      <trkpt lat="43.71695" lon="4.98184">
        <ele>427.48</ele>
        <time>2026-04-16T10:38:18.714Z</time>
      </trkpt>
      <trkpt lat="43.71696" lon="4.98179">
        <ele>425.62</ele>
        <time>2026-04-16T10:38:24.657Z</time>
      </trkpt>
      <trkpt lat="43.71697" lon="4.98173">
        <ele>423.74</ele>
        <time>2026-04-16T10:38:30.297Z</time>
      </trkpt>
      <trkpt lat="43.71698" lon="4.98173">
        <ele>422.89</ele>
        <time>2026-04-16T10:38:35.816Z</time>
      </trkpt>
      <trkpt lat="43.71699" lon="4.98172">
        <ele>420.85</ele>
        <time>2026-04-16T10:38:42.759Z</time>
      </trkpt>
      <trkpt lat="43.71701" lon="4.98171">
        <ele>420.29</ele>
        <time>2026-04-16T10:38:48.133Z</time>
      </trkpt>
      <trkpt lat="43.71703" lon="4.98171">
        <ele>419.57</ele>
        <time>2026-04-16T10:38:53.612Z</time>
      </trkpt>
      <trkpt lat="43.71703" lon="4.98169">
        <ele>417.74</ele>
        <time>2026-04-16T10:39:03.781Z</time>
      </trkpt>
      <trkpt lat="43.71703" lon="4.98163">
        <ele>417.07</ele>
        <time>2026-04-16T10:39:08.788Z</time>
      </trkpt>
      <trkpt lat="43.71705" lon="4.98158">
        <ele>416.31</ele>
        <time>2026-04-16T10:39:13.913Z</time>
      </trkpt>
      <trkpt lat="43.71708" lon="4.98155">
        <ele>414.47</ele>
        <time>2026-04-16T10:39:19.615Z</time>
      </trkpt>
      <trkpt lat="43.71709" lon="4.98154">
        <ele>411.72</ele>
        <time>2026-04-16T10:39:34.731Z</time>
      </trkpt>
      <trkpt lat="43.71712" lon="4.98151">
        <ele>410.99</ele>
        <time>2026-04-16T10:39:39.742Z</time>
      </trkpt>
      <trkpt lat="43.71712" lon="4.98144">
        <ele>410.16</ele>
        <time>2026-04-16T10:39:45.154Z</time>
      </trkpt>
      <trkpt lat="43.71713" lon="4.98143">
        <ele>407.66</ele>
        <time>2026-04-16T10:39:50.454Z</time>
      </trkpt>
      <trkpt lat="43.71714" lon="4.98142">
        <ele>406.92</ele>
        <time>2026-04-16T10:39:55.735Z</time>
      </trkpt>
      <trkpt lat="43.71714" lon="4.98143">
        <ele>405.56</ele>
        <time>2026-04-16T10:40:00.766Z</time>
      </trkpt>
      <trkpt lat="43.71715" lon="4.98142">
        <ele>404.94</ele>
        <time>2026-04-16T10:40:08.436Z</time>
      </trkpt>
      <trkpt lat="43.71715" lon="4.98134">
        <ele>404.37</ele>
        <time>2026-04-16T10:40:13.784Z</time>
      </trkpt>
      <trkpt lat="43.71712" lon="4.98128">
        <ele>403</ele>
        <time>2026-04-16T10:40:19.533Z</time>
      </trkpt>
      <trkpt lat="43.71712" lon="4.98124">
        <ele>402.74</ele>
        <time>2026-04-16T10:40:25.357Z</time>
      </trkpt>
      <trkpt lat="43.71712" lon="4.98122">
        <ele>402.08</ele>
        <time>2026-04-16T10:40:41.613Z</time>
      </trkpt>
      <trkpt lat="43.71712" lon="4.98121">
        <ele>400.89</ele>
        <time>2026-04-16T10:40:46.758Z</time>
      </trkpt>
      <trkpt lat="43.71712" lon="4.98117">
        <ele>400.51</ele>
        <time>2026-04-16T10:40:52.266Z</time>
      </trkpt>
      <trkpt lat="43.71712" lon="4.98114">
        <ele>399.52</ele>
        <time>2026-04-16T10:40:57.334Z</time>
      </trkpt>
      <trkpt lat="43.71712" lon="4.98112">
        <ele>399.04</ele>
        <time>2026-04-16T10:41:02.765Z</time>
      </trkpt>
      <trkpt lat="43.71712" lon="4.98111">
        <ele>398.24</ele>
        <time>2026-04-16T10:41:07.781Z</time>
      </trkpt>
      <trkpt lat="43.71713" lon="4.98108">
        <ele>397.49</ele>
        <time>2026-04-16T10:41:13.315Z</time>
      </trkpt>
      <trkpt lat="43.71713" lon="4.98107">
        <ele>396.15</ele>
        <time>2026-04-16T10:41:18.712Z</time>
      </trkpt>
      <trkpt lat="43.71713" lon="4.98105">
        <ele>395.75</ele>
        <time>2026-04-16T10:41:24.748Z</time>
      </trkpt>
      <trkpt lat="43.71714" lon="4.98104">
        <ele>394.65</ele>
        <time>2026-04-16T10:41:30.830Z</time>
      </trkpt>
      <trkpt lat="43.71714" lon="4.98103">
        <ele>394.89</ele>
        <time>2026-04-16T10:41:35.846Z</time>
      </trkpt>
      <trkpt lat="43.71715" lon="4.98101">
        <ele>395.72</ele>
        <time>2026-04-16T10:41:41.533Z</time>
      </trkpt>
      <trkpt lat="43.71715" lon="4.98099">
        <ele>393.78</ele>
        <time>2026-04-16T10:41:50.175Z</time>
      </trkpt>
      <trkpt lat="43.71717" lon="4.9809">
        <ele>393.29</ele>
        <time>2026-04-16T10:41:55.799Z</time>
      </trkpt>
      <trkpt lat="43.71714" lon="4.98087">
        <ele>393.49</ele>
        <time>2026-04-16T10:42:01.776Z</time>
      </trkpt>
      <trkpt lat="43.71714" lon="4.98088">
        <ele>393.93</ele>
        <time>2026-04-16T10:42:08.819Z</time>
      </trkpt>
      <trkpt lat="43.71715" lon="4.98089">
        <ele>393.74</ele>
        <time>2026-04-16T10:42:20.659Z</time>
      </trkpt>
      <trkpt lat="43.71716" lon="4.98088">
        <ele>393.39</ele>
        <time>2026-04-16T10:42:40.676Z</time>
      </trkpt>
      <trkpt lat="43.71717" lon="4.98087">
        <ele>393.56</ele>
        <time>2026-04-16T10:42:46.627Z</time>
      </trkpt>
      <trkpt lat="43.71717" lon="4.98086">
        <ele>394.06</ele>
        <time>2026-04-16T10:42:53.744Z</time>
      </trkpt>
      <trkpt lat="43.71718" lon="4.98084">
        <ele>394.14</ele>
        <time>2026-04-16T10:42:59.356Z</time>
      </trkpt>
      <trkpt lat="43.71722" lon="4.98074">
        <ele>393.85</ele>
        <time>2026-04-16T10:43:04.735Z</time>
      </trkpt>
      <trkpt lat="43.71723" lon="4.98071">
        <ele>393.1</ele>
        <time>2026-04-16T10:43:09.754Z</time>
      </trkpt>
      <trkpt lat="43.71724" lon="4.98064">
        <ele>392.25</ele>
        <time>2026-04-16T10:43:14.813Z</time>
      </trkpt>
      <trkpt lat="43.71726" lon="4.98058">
        <ele>392.55</ele>
        <time>2026-04-16T10:43:20.271Z</time>
      </trkpt>
      <trkpt lat="43.71726" lon="4.98054">
        <ele>392.83</ele>
        <time>2026-04-16T10:43:25.601Z</time>
      </trkpt>
      <trkpt lat="43.71726" lon="4.98053">
        <ele>394.07</ele>
        <time>2026-04-16T10:43:30.773Z</time>
      </trkpt>
      <trkpt lat="43.71727" lon="4.98052">
        <ele>395.3</ele>
        <time>2026-04-16T10:43:36.278Z</time>
      </trkpt>
      <trkpt lat="43.71727" lon="4.9805">
        <ele>395.33</ele>
        <time>2026-04-16T10:43:41.763Z</time>
      </trkpt>
      <trkpt lat="43.71727" lon="4.98046">
        <ele>395.47</ele>
        <time>2026-04-16T10:43:46.779Z</time>
      </trkpt>
      <trkpt lat="43.71727" lon="4.98043">
        <ele>396.73</ele>
        <time>2026-04-16T10:43:51.794Z</time>
      </trkpt>
      <trkpt lat="43.71727" lon="4.9804">
        <ele>396.77</ele>
        <time>2026-04-16T10:43:56.810Z</time>
      </trkpt>
      <trkpt lat="43.71727" lon="4.98037">
        <ele>399.56</ele>
        <time>2026-04-16T10:44:02.220Z</time>
      </trkpt>
      <trkpt lat="43.71727" lon="4.98036">
        <ele>399.24</ele>
        <time>2026-04-16T10:44:08.761Z</time>
      </trkpt>
      <trkpt lat="43.71727" lon="4.98034">
        <ele>399.64</ele>
        <time>2026-04-16T10:44:14.375Z</time>
      </trkpt>
      <trkpt lat="43.71727" lon="4.98033">
        <ele>401.72</ele>
        <time>2026-04-16T10:44:20.278Z</time>
      </trkpt>
      <trkpt lat="43.71727" lon="4.98031">
        <ele>402.13</ele>
        <time>2026-04-16T10:44:25.361Z</time>
      </trkpt>
      <trkpt lat="43.71727" lon="4.98028">
        <ele>403.23</ele>
        <time>2026-04-16T10:44:30.436Z</time>
      </trkpt>
      <trkpt lat="43.71726" lon="4.98025">
        <ele>402.9</ele>
        <time>2026-04-16T10:44:35.757Z</time>
      </trkpt>
      <trkpt lat="43.71726" lon="4.98018">
        <ele>403.61</ele>
        <time>2026-04-16T10:44:40.774Z</time>
      </trkpt>
      <trkpt lat="43.71726" lon="4.98005">
        <ele>405.33</ele>
        <time>2026-04-16T10:44:45.817Z</time>
      </trkpt>
      <trkpt lat="43.71725" lon="4.97997">
        <ele>404.5</ele>
        <time>2026-04-16T10:44:51.297Z</time>
      </trkpt>
      <trkpt lat="43.71726" lon="4.9799">
        <ele>404.44</ele>
        <time>2026-04-16T10:44:56.798Z</time>
      </trkpt>
      <trkpt lat="43.71727" lon="4.97984">
        <ele>405.02</ele>
        <time>2026-04-16T10:45:01.813Z</time>
      </trkpt>
      <trkpt lat="43.71727" lon="4.97982">
        <ele>404.84</ele>
        <time>2026-04-16T10:45:06.828Z</time>
      </trkpt>
      <trkpt lat="43.71727" lon="4.97981">
        <ele>405.1</ele>
        <time>2026-04-16T10:45:13.281Z</time>
      </trkpt>
      <trkpt lat="43.71726" lon="4.97978">
        <ele>406.36</ele>
        <time>2026-04-16T10:45:18.410Z</time>
      </trkpt>
      <trkpt lat="43.71726" lon="4.97971">
        <ele>406.33</ele>
        <time>2026-04-16T10:45:23.794Z</time>
      </trkpt>
      <trkpt lat="43.71725" lon="4.97968">
        <ele>406.62</ele>
        <time>2026-04-16T10:45:28.809Z</time>
      </trkpt>
      <trkpt lat="43.71726" lon="4.97964">
        <ele>406.46</ele>
        <time>2026-04-16T10:45:33.825Z</time>
      </trkpt>
      <trkpt lat="43.71727" lon="4.97963">
        <ele>406.9</ele>
        <time>2026-04-16T10:45:46.741Z</time>
      </trkpt>
      <trkpt lat="43.71726" lon="4.97962">
        <ele>407.46</ele>
        <time>2026-04-16T10:45:56.772Z</time>
      </trkpt>
      <trkpt lat="43.71726" lon="4.97961">
        <ele>406.98</ele>
        <time>2026-04-16T10:46:17.693Z</time>
      </trkpt>
      <trkpt lat="43.71727" lon="4.97961">
        <ele>406.03</ele>
        <time>2026-04-16T10:46:39.608Z</time>
      </trkpt>
      <trkpt lat="43.7173" lon="4.97956">
        <ele>406.04</ele>
        <time>2026-04-16T10:46:44.734Z</time>
      </trkpt>
      <trkpt lat="43.71731" lon="4.97952">
        <ele>406.69</ele>
        <time>2026-04-16T10:46:49.813Z</time>
      </trkpt>
      <trkpt lat="43.71732" lon="4.97946">
        <ele>407.38</ele>
        <time>2026-04-16T10:46:55.496Z</time>
      </trkpt>
      <trkpt lat="43.71731" lon="4.97941">
        <ele>407.17</ele>
        <time>2026-04-16T10:47:01.287Z</time>
      </trkpt>
      <trkpt lat="43.71731" lon="4.97938">
        <ele>407.14</ele>
        <time>2026-04-16T10:47:06.491Z</time>
      </trkpt>
      <trkpt lat="43.71732" lon="4.97937">
        <ele>407.11</ele>
        <time>2026-04-16T10:47:11.908Z</time>
      </trkpt>
      <trkpt lat="43.71733" lon="4.97933">
        <ele>409.7</ele>
        <time>2026-04-16T10:47:17.589Z</time>
      </trkpt>
      <trkpt lat="43.71734" lon="4.9792">
        <ele>409.68</ele>
        <time>2026-04-16T10:47:23.307Z</time>
      </trkpt>
      <trkpt lat="43.71737" lon="4.97915">
        <ele>410.42</ele>
        <time>2026-04-16T10:47:28.668Z</time>
      </trkpt>
      <trkpt lat="43.71737" lon="4.97909">
        <ele>411.09</ele>
        <time>2026-04-16T10:47:34.210Z</time>
      </trkpt>
      <trkpt lat="43.7174" lon="4.97903">
        <ele>411.11</ele>
        <time>2026-04-16T10:47:39.257Z</time>
      </trkpt>
      <trkpt lat="43.71742" lon="4.97898">
        <ele>410.74</ele>
        <time>2026-04-16T10:47:44.271Z</time>
      </trkpt>
      <trkpt lat="43.71744" lon="4.97891">
        <ele>411.93</ele>
        <time>2026-04-16T10:47:49.755Z</time>
      </trkpt>
      <trkpt lat="43.71743" lon="4.97886">
        <ele>413.06</ele>
        <time>2026-04-16T10:47:55.251Z</time>
      </trkpt>
      <trkpt lat="43.71744" lon="4.97884">
        <ele>413.32</ele>
        <time>2026-04-16T10:48:00.788Z</time>
      </trkpt>
      <trkpt lat="43.71745" lon="4.97883">
        <ele>413.37</ele>
        <time>2026-04-16T10:48:08.780Z</time>
      </trkpt>
      <trkpt lat="43.71747" lon="4.9788">
        <ele>413.98</ele>
        <time>2026-04-16T10:48:13.807Z</time>
      </trkpt>
      <trkpt lat="43.71748" lon="4.97877">
        <ele>415.53</ele>
        <time>2026-04-16T10:48:19.296Z</time>
      </trkpt>
      <trkpt lat="43.71749" lon="4.97873">
        <ele>417.8</ele>
        <time>2026-04-16T10:48:24.630Z</time>
      </trkpt>
      <trkpt lat="43.71749" lon="4.97869">
        <ele>417.88</ele>
        <time>2026-04-16T10:48:29.786Z</time>
      </trkpt>
      <trkpt lat="43.7175" lon="4.97863">
        <ele>418.72</ele>
        <time>2026-04-16T10:48:34.834Z</time>
      </trkpt>
      <trkpt lat="43.7175" lon="4.97858">
        <ele>419.37</ele>
        <time>2026-04-16T10:48:40.704Z</time>
      </trkpt>
      <trkpt lat="43.7175" lon="4.97855">
        <ele>421.33</ele>
        <time>2026-04-16T10:48:45.811Z</time>
      </trkpt>
      <trkpt lat="43.71751" lon="4.9785">
        <ele>421.54</ele>
        <time>2026-04-16T10:48:51.690Z</time>
      </trkpt>
      <trkpt lat="43.7175" lon="4.97849">
        <ele>422.54</ele>
        <time>2026-04-16T10:48:59.805Z</time>
      </trkpt>
      <trkpt lat="43.71751" lon="4.97847">
        <ele>422.8</ele>
        <time>2026-04-16T10:49:05.234Z</time>
      </trkpt>
      <trkpt lat="43.71757" lon="4.97844">
        <ele>422.57</ele>
        <time>2026-04-16T10:49:10.796Z</time>
      </trkpt>
      <trkpt lat="43.71761" lon="4.97843">
        <ele>422.39</ele>
        <time>2026-04-16T10:49:16.765Z</time>
      </trkpt>
      <trkpt lat="43.71762" lon="4.97842">
        <ele>422.73</ele>
        <time>2026-04-16T10:49:22.575Z</time>
      </trkpt>
      <trkpt lat="43.71763" lon="4.97841">
        <ele>422.73</ele>
        <time>2026-04-16T10:49:27.763Z</time>
      </trkpt>
      <trkpt lat="43.71769" lon="4.97836">
        <ele>424.72</ele>
        <time>2026-04-16T10:49:32.779Z</time>
      </trkpt>
      <trkpt lat="43.71773" lon="4.97831">
        <ele>426.06</ele>
        <time>2026-04-16T10:49:37.794Z</time>
      </trkpt>
      <trkpt lat="43.71775" lon="4.97828">
        <ele>426.5</ele>
        <time>2026-04-16T10:49:43.135Z</time>
      </trkpt>
      <trkpt lat="43.71779" lon="4.97824">
        <ele>427.81</ele>
        <time>2026-04-16T10:49:48.353Z</time>
      </trkpt>
      <trkpt lat="43.71783" lon="4.97823">
        <ele>427.67</ele>
        <time>2026-04-16T10:49:53.653Z</time>
      </trkpt>
      <trkpt lat="43.71784" lon="4.97823">
        <ele>429.81</ele>
        <time>2026-04-16T10:50:03.499Z</time>
      </trkpt>
      <trkpt lat="43.71785" lon="4.97819">
        <ele>430.26</ele>
        <time>2026-04-16T10:50:08.698Z</time>
      </trkpt>
      <trkpt lat="43.71787" lon="4.97816">
        <ele>431.31</ele>
        <time>2026-04-16T10:50:13.754Z</time>
      </trkpt>
      <trkpt lat="43.71789" lon="4.97814">
        <ele>433.06</ele>
        <time>2026-04-16T10:50:18.771Z</time>
      </trkpt>
      <trkpt lat="43.71791" lon="4.97809">
        <ele>433.36</ele>
        <time>2026-04-16T10:50:24.741Z</time>
      </trkpt>
      <trkpt lat="43.71791" lon="4.97805">
        <ele>431.99</ele>
        <time>2026-04-16T10:50:29.762Z</time>
      </trkpt>
      <trkpt lat="43.71793" lon="4.978">
        <ele>430.95</ele>
        <time>2026-04-16T10:50:34.777Z</time>
      </trkpt>
      <trkpt lat="43.71794" lon="4.97794">
        <ele>431.02</ele>
        <time>2026-04-16T10:50:40.318Z</time>
      </trkpt>
      <trkpt lat="43.71799" lon="4.97789">
        <ele>431.19</ele>
        <time>2026-04-16T10:50:45.368Z</time>
      </trkpt>
      <trkpt lat="43.71803" lon="4.97783">
        <ele>429.84</ele>
        <time>2026-04-16T10:50:50.616Z</time>
      </trkpt>
      <trkpt lat="43.71806" lon="4.9778">
        <ele>428.78</ele>
        <time>2026-04-16T10:50:55.798Z</time>
      </trkpt>
      <trkpt lat="43.7181" lon="4.97777">
        <ele>428.41</ele>
        <time>2026-04-16T10:51:01.280Z</time>
      </trkpt>
      <trkpt lat="43.71813" lon="4.97771">
        <ele>428.33</ele>
        <time>2026-04-16T10:51:06.790Z</time>
      </trkpt>
      <trkpt lat="43.71814" lon="4.97771">
        <ele>427.96</ele>
        <time>2026-04-16T10:51:11.805Z</time>
      </trkpt>
      <trkpt lat="43.71814" lon="4.9777">
        <ele>427.7</ele>
        <time>2026-04-16T10:51:28.772Z</time>
      </trkpt>
      <trkpt lat="43.71814" lon="4.97769">
        <ele>427.72</ele>
        <time>2026-04-16T10:51:35.707Z</time>
      </trkpt>
      <trkpt lat="43.71814" lon="4.97767">
        <ele>428.23</ele>
        <time>2026-04-16T10:51:45.538Z</time>
      </trkpt>
      <trkpt lat="43.71815" lon="4.97766">
        <ele>429.95</ele>
        <time>2026-04-16T10:51:51.282Z</time>
      </trkpt>
      <trkpt lat="43.71815" lon="4.97764">
        <ele>430.43</ele>
        <time>2026-04-16T10:51:56.730Z</time>
      </trkpt>
      <trkpt lat="43.71816" lon="4.9776">
        <ele>431.65</ele>
        <time>2026-04-16T10:52:01.744Z</time>
      </trkpt>
      <trkpt lat="43.71818" lon="4.97751">
        <ele>432.04</ele>
        <time>2026-04-16T10:52:06.760Z</time>
      </trkpt>
      <trkpt lat="43.71821" lon="4.97743">
        <ele>433.84</ele>
        <time>2026-04-16T10:52:11.776Z</time>
      </trkpt>
      <trkpt lat="43.71823" lon="4.97741">
        <ele>433.44</ele>
        <time>2026-04-16T10:52:17.062Z</time>
      </trkpt>
      <trkpt lat="43.71826" lon="4.97736">
        <ele>435.36</ele>
        <time>2026-04-16T10:52:22.767Z</time>
      </trkpt>
      <trkpt lat="43.71826" lon="4.97735">
        <ele>439.07</ele>
        <time>2026-04-16T10:52:41.770Z</time>
      </trkpt>
      <trkpt lat="43.71825" lon="4.97734">
        <ele>439.09</ele>
        <time>2026-04-16T10:52:50.240Z</time>
      </trkpt>
      <trkpt lat="43.71824" lon="4.97733">
        <ele>440.52</ele>
        <time>2026-04-16T10:52:58.731Z</time>
      </trkpt>
      <trkpt lat="43.71824" lon="4.97732">
        <ele>440.64</ele>
        <time>2026-04-16T10:53:11.751Z</time>
      </trkpt>
      <trkpt lat="43.71823" lon="4.97731">
        <ele>440.93</ele>
        <time>2026-04-16T10:53:17.777Z</time>
      </trkpt>
      <trkpt lat="43.71826" lon="4.97721">
        <ele>442.67</ele>
        <time>2026-04-16T10:53:23.399Z</time>
      </trkpt>
      <trkpt lat="43.7183" lon="4.97717">
        <ele>445.44</ele>
        <time>2026-04-16T10:53:28.831Z</time>
      </trkpt>
      <trkpt lat="43.71829" lon="4.97717">
        <ele>444.84</ele>
        <time>2026-04-16T10:53:34.756Z</time>
      </trkpt>
      <trkpt lat="43.71827" lon="4.97716">
        <ele>444.88</ele>
        <time>2026-04-16T10:53:39.822Z</time>
      </trkpt>
      <trkpt lat="43.71826" lon="4.97717">
        <ele>444.31</ele>
        <time>2026-04-16T10:53:45.798Z</time>
      </trkpt>
      <trkpt lat="43.71825" lon="4.97718">
        <ele>443.95</ele>
        <time>2026-04-16T10:53:52.736Z</time>
      </trkpt>
      <trkpt lat="43.71824" lon="4.97719">
        <ele>444.24</ele>
        <time>2026-04-16T10:54:09.811Z</time>
      </trkpt>
      <trkpt lat="43.71824" lon="4.97718">
        <ele>442.79</ele>
        <time>2026-04-16T10:55:14.912Z</time>
      </trkpt>
      <trkpt lat="43.71825" lon="4.97717">
        <ele>445.45</ele>
        <time>2026-04-16T10:55:20.786Z</time>
      </trkpt>
      <trkpt lat="43.71826" lon="4.97717">
        <ele>443.76</ele>
        <time>2026-04-16T10:55:28.404Z</time>
      </trkpt>
      <trkpt lat="43.71827" lon="4.97717">
        <ele>442.92</ele>
        <time>2026-04-16T10:55:42.140Z</time>
      </trkpt>
      <trkpt lat="43.71828" lon="4.97717">
        <ele>441.95</ele>
        <time>2026-04-16T10:55:57.456Z</time>
      </trkpt>
      <trkpt lat="43.71833" lon="4.97714">
        <ele>440.66</ele>
        <time>2026-04-16T10:56:02.843Z</time>
      </trkpt>
      <trkpt lat="43.71837" lon="4.97712">
        <ele>439.55</ele>
        <time>2026-04-16T10:56:08.826Z</time>
      </trkpt>
      <trkpt lat="43.71839" lon="4.97709">
        <ele>439.06</ele>
        <time>2026-04-16T10:56:14.508Z</time>
      </trkpt>
      <trkpt lat="43.71836" lon="4.97706">
        <ele>437.98</ele>
        <time>2026-04-16T10:56:19.817Z</time>
      </trkpt>
      <trkpt lat="43.71838" lon="4.97704">
        <ele>436.43</ele>
        <time>2026-04-16T10:56:25.167Z</time>
      </trkpt>
      <trkpt lat="43.71842" lon="4.97704">
        <ele>435.4</ele>
        <time>2026-04-16T10:56:30.684Z</time>
      </trkpt>
      <trkpt lat="43.71846" lon="4.97702">
        <ele>434.46</ele>
        <time>2026-04-16T10:56:36.088Z</time>
      </trkpt>
      <trkpt lat="43.71852" lon="4.97698">
        <ele>433.81</ele>
        <time>2026-04-16T10:56:41.486Z</time>
      </trkpt>
      <trkpt lat="43.71856" lon="4.97692">
        <ele>432.56</ele>
        <time>2026-04-16T10:56:46.816Z</time>
      </trkpt>
      <trkpt lat="43.71859" lon="4.97695">
        <ele>431.41</ele>
        <time>2026-04-16T10:56:52.678Z</time>
      </trkpt>
      <trkpt lat="43.71858" lon="4.97694">
        <ele>431.21</ele>
        <time>2026-04-16T10:56:57.706Z</time>
      </trkpt>
      <trkpt lat="43.71858" lon="4.97693">
        <ele>431.22</ele>
        <time>2026-04-16T10:57:07.308Z</time>
      </trkpt>
      <trkpt lat="43.71858" lon="4.97691">
        <ele>430.86</ele>
        <time>2026-04-16T10:57:13.258Z</time>
      </trkpt>
      <trkpt lat="43.71856" lon="4.97683">
        <ele>430.27</ele>
        <time>2026-04-16T10:57:18.693Z</time>
      </trkpt>
      <trkpt lat="43.71856" lon="4.97679">
        <ele>429.05</ele>
        <time>2026-04-16T10:57:23.774Z</time>
      </trkpt>
      <trkpt lat="43.71853" lon="4.97676">
        <ele>428.31</ele>
        <time>2026-04-16T10:57:29.836Z</time>
      </trkpt>
      <trkpt lat="43.71852" lon="4.97674">
        <ele>426.6</ele>
        <time>2026-04-16T10:57:35.522Z</time>
      </trkpt>
      <trkpt lat="43.71852" lon="4.97672">
        <ele>425.55</ele>
        <time>2026-04-16T10:57:40.826Z</time>
      </trkpt>
      <trkpt lat="43.71852" lon="4.97671">
        <ele>424.5</ele>
        <time>2026-04-16T10:57:47.632Z</time>
      </trkpt>
      <trkpt lat="43.71852" lon="4.97669">
        <ele>423.68</ele>
        <time>2026-04-16T10:57:52.772Z</time>
      </trkpt>
      <trkpt lat="43.7185" lon="4.97669">
        <ele>422.33</ele>
        <time>2026-04-16T10:57:57.794Z</time>
      </trkpt>
      <trkpt lat="43.71852" lon="4.97665">
        <ele>420.88</ele>
        <time>2026-04-16T10:58:03.097Z</time>
      </trkpt>
      <trkpt lat="43.71853" lon="4.97665">
        <ele>419.47</ele>
        <time>2026-04-16T10:58:11.774Z</time>
      </trkpt>
      <trkpt lat="43.71854" lon="4.97662">
        <ele>419.68</ele>
        <time>2026-04-16T10:58:17.466Z</time>
      </trkpt>
      <trkpt lat="43.71852" lon="4.97656">
        <ele>419.42</ele>
        <time>2026-04-16T10:58:23.011Z</time>
      </trkpt>
      <trkpt lat="43.71853" lon="4.97656">
        <ele>418.02</ele>
        <time>2026-04-16T10:58:28.223Z</time>
      </trkpt>
      <trkpt lat="43.71855" lon="4.97655">
        <ele>416.68</ele>
        <time>2026-04-16T10:58:33.316Z</time>
      </trkpt>
      <trkpt lat="43.71855" lon="4.97649">
        <ele>415.72</ele>
        <time>2026-04-16T10:58:38.772Z</time>
      </trkpt>
      <trkpt lat="43.71857" lon="4.97647">
        <ele>414.83</ele>
        <time>2026-04-16T10:58:43.788Z</time>
      </trkpt>
      <trkpt lat="43.71857" lon="4.97642">
        <ele>414.19</ele>
        <time>2026-04-16T10:58:48.804Z</time>
      </trkpt>
      <trkpt lat="43.71852" lon="4.97639">
        <ele>413.57</ele>
        <time>2026-04-16T10:58:54.392Z</time>
      </trkpt>
      <trkpt lat="43.7185" lon="4.9764">
        <ele>412.15</ele>
        <time>2026-04-16T10:58:59.551Z</time>
      </trkpt>
      <trkpt lat="43.7185" lon="4.97637">
        <ele>410.78</ele>
        <time>2026-04-16T10:59:04.811Z</time>
      </trkpt>
      <trkpt lat="43.71849" lon="4.97637">
        <ele>409.32</ele>
        <time>2026-04-16T10:59:14.455Z</time>
      </trkpt>
      <trkpt lat="43.71843" lon="4.97633">
        <ele>408.78</ele>
        <time>2026-04-16T10:59:19.751Z</time>
      </trkpt>
      <trkpt lat="43.71839" lon="4.97625">
        <ele>407.35</ele>
        <time>2026-04-16T10:59:25.616Z</time>
      </trkpt>
      <trkpt lat="43.71839" lon="4.97615">
        <ele>405.46</ele>
        <time>2026-04-16T10:59:31.672Z</time>
      </trkpt>
      <trkpt lat="43.71838" lon="4.97612">
        <ele>404.46</ele>
        <time>2026-04-16T10:59:36.825Z</time>
      </trkpt>
      <trkpt lat="43.71837" lon="4.97612">
        <ele>404.22</ele>
        <time>2026-04-16T10:59:42.802Z</time>
      </trkpt>
      <trkpt lat="43.71832" lon="4.97605">
        <ele>405.61</ele>
        <time>2026-04-16T10:59:48.071Z</time>
      </trkpt>
      <trkpt lat="43.71833" lon="4.976">
        <ele>404.93</ele>
        <time>2026-04-16T10:59:53.499Z</time>
      </trkpt>
      <trkpt lat="43.71835" lon="4.97598">
        <ele>403.04</ele>
        <time>2026-04-16T10:59:58.809Z</time>
      </trkpt>
      <trkpt lat="43.71836" lon="4.97598">
        <ele>402.25</ele>
        <time>2026-04-16T11:00:03.824Z</time>
      </trkpt>
      <trkpt lat="43.71835" lon="4.97595">
        <ele>401.67</ele>
        <time>2026-04-16T11:00:09.690Z</time>
      </trkpt>
      <trkpt lat="43.71835" lon="4.97586">
        <ele>400.58</ele>
        <time>2026-04-16T11:00:15.176Z</time>
      </trkpt>
      <trkpt lat="43.71836" lon="4.97577">
        <ele>399.47</ele>
        <time>2026-04-16T11:00:20.351Z</time>
      </trkpt>
      <trkpt lat="43.71837" lon="4.97569">
        <ele>398.27</ele>
        <time>2026-04-16T11:00:25.807Z</time>
      </trkpt>
      <trkpt lat="43.71838" lon="4.97561">
        <ele>397.02</ele>
        <time>2026-04-16T11:00:31.795Z</time>
      </trkpt>
      <trkpt lat="43.71835" lon="4.97553">
        <ele>396.41</ele>
        <time>2026-04-16T11:00:36.799Z</time>
      </trkpt>
      <trkpt lat="43.71835" lon="4.97545">
        <ele>396.33</ele>
        <time>2026-04-16T11:00:42.001Z</time>
      </trkpt>
      <trkpt lat="43.71837" lon="4.97535">
        <ele>395.84</ele>
        <time>2026-04-16T11:00:47.554Z</time>
      </trkpt>
      <trkpt lat="43.71838" lon="4.97528">
        <ele>395.81</ele>
        <time>2026-04-16T11:00:52.728Z</time>
      </trkpt>
      <trkpt lat="43.71838" lon="4.97524">
        <ele>395.27</ele>
        <time>2026-04-16T11:00:58.783Z</time>
      </trkpt>
      <trkpt lat="43.71839" lon="4.97526">
        <ele>394.76</ele>
        <time>2026-04-16T11:01:03.798Z</time>
      </trkpt>
      <trkpt lat="43.71839" lon="4.97528">
        <ele>394.46</ele>
        <time>2026-04-16T11:01:11.695Z</time>
      </trkpt>
      <trkpt lat="43.7184" lon="4.97526">
        <ele>394.46</ele>
        <time>2026-04-16T11:01:21.408Z</time>
      </trkpt>
      <trkpt lat="43.71843" lon="4.9752">
        <ele>394.68</ele>
        <time>2026-04-16T11:01:26.532Z</time>
      </trkpt>
      <trkpt lat="43.71848" lon="4.97514">
        <ele>396.04</ele>
        <time>2026-04-16T11:01:31.757Z</time>
      </trkpt>
      <trkpt lat="43.71852" lon="4.97506">
        <ele>395.42</ele>
        <time>2026-04-16T11:01:36.810Z</time>
      </trkpt>
      <trkpt lat="43.71855" lon="4.97499">
        <ele>395.57</ele>
        <time>2026-04-16T11:01:42.611Z</time>
      </trkpt>
      <trkpt lat="43.71856" lon="4.97493">
        <ele>395.82</ele>
        <time>2026-04-16T11:01:47.670Z</time>
      </trkpt>
      <trkpt lat="43.71855" lon="4.97491">
        <ele>396.29</ele>
        <time>2026-04-16T11:01:52.778Z</time>
      </trkpt>
      <trkpt lat="43.71855" lon="4.97489">
        <ele>395.59</ele>
        <time>2026-04-16T11:01:58.750Z</time>
      </trkpt>
      <trkpt lat="43.71855" lon="4.97484">
        <ele>397.43</ele>
        <time>2026-04-16T11:02:03.997Z</time>
      </trkpt>
      <trkpt lat="43.71855" lon="4.9748">
        <ele>398.39</ele>
        <time>2026-04-16T11:02:09.746Z</time>
      </trkpt>
      <trkpt lat="43.71855" lon="4.97478">
        <ele>400.5</ele>
        <time>2026-04-16T11:02:14.762Z</time>
      </trkpt>
      <trkpt lat="43.71856" lon="4.9748">
        <ele>399.51</ele>
        <time>2026-04-16T11:02:20.845Z</time>
      </trkpt>
      <trkpt lat="43.71858" lon="4.97481">
        <ele>396.27</ele>
        <time>2026-04-16T11:02:26.821Z</time>
      </trkpt>
      <trkpt lat="43.71859" lon="4.97481">
        <ele>399.33</ele>
        <time>2026-04-16T11:02:38.773Z</time>
      </trkpt>
      <trkpt lat="43.71859" lon="4.97479">
        <ele>398.88</ele>
        <time>2026-04-16T11:03:03.310Z</time>
      </trkpt>
      <trkpt lat="43.71858" lon="4.97478">
        <ele>399.4</ele>
        <time>2026-04-16T11:03:10.817Z</time>
      </trkpt>
      <trkpt lat="43.71858" lon="4.97477">
        <ele>400.55</ele>
        <time>2026-04-16T11:03:23.805Z</time>
      </trkpt>
      <trkpt lat="43.71857" lon="4.97476">
        <ele>400.66</ele>
        <time>2026-04-16T11:03:28.821Z</time>
      </trkpt>
      <trkpt lat="43.71856" lon="4.97475">
        <ele>399.78</ele>
        <time>2026-04-16T11:03:35.637Z</time>
      </trkpt>
      <trkpt lat="43.71856" lon="4.97474">
        <ele>401.66</ele>
        <time>2026-04-16T11:03:48.786Z</time>
      </trkpt>
      <trkpt lat="43.71855" lon="4.97473">
        <ele>398.59</ele>
        <time>2026-04-16T11:05:35.833Z</time>
      </trkpt>
      <trkpt lat="43.71856" lon="4.97472">
        <ele>399.43</ele>
        <time>2026-04-16T11:07:02.810Z</time>
      </trkpt>
      <trkpt lat="43.71857" lon="4.97472">
        <ele>399.54</ele>
        <time>2026-04-16T11:08:08.765Z</time>
      </trkpt>
      <trkpt lat="43.71857" lon="4.97471">
        <ele>401.53</ele>
        <time>2026-04-16T11:13:47.845Z</time>
      </trkpt>
      <trkpt lat="43.71857" lon="4.97471">
        <ele>402</ele>
        <time>2026-04-16T11:15:06.829Z</time>
      </trkpt>
      <trkpt lat="43.71856" lon="4.97472">
        <ele>403.73</ele>
        <time>2026-04-16T11:16:47.804Z</time>
      </trkpt>
      <trkpt lat="43.71855" lon="4.97473">
        <ele>403.69</ele>
        <time>2026-04-16T11:17:41.814Z</time>
      </trkpt>
      <trkpt lat="43.71855" lon="4.97474">
        <ele>403.63</ele>
        <time>2026-04-16T11:18:02.332Z</time>
      </trkpt>
      <trkpt lat="43.71856" lon="4.97475">
        <ele>402.6</ele>
        <time>2026-04-16T11:18:59.705Z</time>
      </trkpt>
      <trkpt lat="43.71857" lon="4.97475">
        <ele>402.16</ele>
        <time>2026-04-16T11:20:56.707Z</time>
      </trkpt>
      <trkpt lat="43.71858" lon="4.97475">
        <ele>401.22</ele>
        <time>2026-04-16T11:21:44.708Z</time>
      </trkpt>
      <trkpt lat="43.71858" lon="4.97474">
        <ele>401.47</ele>
        <time>2026-04-16T11:22:28.708Z</time>
      </trkpt>
      <trkpt lat="43.71858" lon="4.97475">
        <ele>401.62</ele>
        <time>2026-04-16T11:24:28.711Z</time>
      </trkpt>
      <trkpt lat="43.71858" lon="4.97474">
        <ele>399.66</ele>
        <time>2026-04-16T11:25:02.712Z</time>
      </trkpt>
      <trkpt lat="43.71858" lon="4.97475">
        <ele>401.88</ele>
        <time>2026-04-16T11:25:42.712Z</time>
      </trkpt>
      <trkpt lat="43.71858" lon="4.97474">
        <ele>401.54</ele>
        <time>2026-04-16T11:26:08.713Z</time>
      </trkpt>
      <trkpt lat="43.71857" lon="4.97472">
        <ele>402.07</ele>
        <time>2026-04-16T11:26:25.712Z</time>
      </trkpt>
      <trkpt lat="43.71856" lon="4.97472">
        <ele>402.17</ele>
        <time>2026-04-16T11:26:52.789Z</time>
      </trkpt>
      <trkpt lat="43.71857" lon="4.97473">
        <ele>401.83</ele>
        <time>2026-04-16T11:28:31.836Z</time>
      </trkpt>
      <trkpt lat="43.71857" lon="4.97472">
        <ele>401.89</ele>
        <time>2026-04-16T11:28:59.802Z</time>
      </trkpt>
      <trkpt lat="43.71857" lon="4.97471">
        <ele>401.85</ele>
        <time>2026-04-16T11:29:43.776Z</time>
      </trkpt>
      <trkpt lat="43.71858" lon="4.9747">
        <ele>402.03</ele>
        <time>2026-04-16T11:30:38.850Z</time>
      </trkpt>
      <trkpt lat="43.71857" lon="4.9747">
        <ele>401.71</ele>
        <time>2026-04-16T11:32:24.837Z</time>
      </trkpt>
      <trkpt lat="43.71857" lon="4.97471">
        <ele>400.93</ele>
        <time>2026-04-16T11:33:20.765Z</time>
      </trkpt>
      <trkpt lat="43.71856" lon="4.97472">
        <ele>400.37</ele>
        <time>2026-04-16T11:34:29.821Z</time>
      </trkpt>
      <trkpt lat="43.71857" lon="4.9747">
        <ele>400.22</ele>
        <time>2026-04-16T11:35:17.169Z</time>
      </trkpt>
      <trkpt lat="43.71857" lon="4.97463">
        <ele>402.98</ele>
        <time>2026-04-16T11:35:22.866Z</time>
      </trkpt>
      <trkpt lat="43.71855" lon="4.97462">
        <ele>402.18</ele>
        <time>2026-04-16T11:35:28.844Z</time>
      </trkpt>
      <trkpt lat="43.71855" lon="4.97461">
        <ele>401.47</ele>
        <time>2026-04-16T11:35:41.468Z</time>
      </trkpt>
      <trkpt lat="43.71855" lon="4.9746">
        <ele>402.58</ele>
        <time>2026-04-16T11:35:46.671Z</time>
      </trkpt>
      <trkpt lat="43.71855" lon="4.97455">
        <ele>403.78</ele>
        <time>2026-04-16T11:35:51.714Z</time>
      </trkpt>
      <trkpt lat="43.71855" lon="4.97447">
        <ele>405.66</ele>
        <time>2026-04-16T11:35:57.407Z</time>
      </trkpt>
      <trkpt lat="43.71855" lon="4.9744">
        <ele>406.63</ele>
        <time>2026-04-16T11:36:02.433Z</time>
      </trkpt>
      <trkpt lat="43.71856" lon="4.97433">
        <ele>406.84</ele>
        <time>2026-04-16T11:36:08.154Z</time>
      </trkpt>
      <trkpt lat="43.71859" lon="4.97429">
        <ele>407.25</ele>
        <time>2026-04-16T11:36:13.777Z</time>
      </trkpt>
      <trkpt lat="43.7186" lon="4.97424">
        <ele>408.15</ele>
        <time>2026-04-16T11:36:18.794Z</time>
      </trkpt>
      <trkpt lat="43.7186" lon="4.97419">
        <ele>408.83</ele>
        <time>2026-04-16T11:36:24.236Z</time>
      </trkpt>
      <trkpt lat="43.71861" lon="4.97413">
        <ele>410.14</ele>
        <time>2026-04-16T11:36:29.311Z</time>
      </trkpt>
      <trkpt lat="43.71863" lon="4.97406">
        <ele>410</ele>
        <time>2026-04-16T11:36:34.656Z</time>
      </trkpt>
      <trkpt lat="43.71863" lon="4.97401">
        <ele>410.26</ele>
        <time>2026-04-16T11:36:39.772Z</time>
      </trkpt>
      <trkpt lat="43.71861" lon="4.97395">
        <ele>411.43</ele>
        <time>2026-04-16T11:36:45.796Z</time>
      </trkpt>
      <trkpt lat="43.71861" lon="4.97397">
        <ele>411.36</ele>
        <time>2026-04-16T11:36:50.814Z</time>
      </trkpt>
      <trkpt lat="43.71861" lon="4.97396">
        <ele>410.69</ele>
        <time>2026-04-16T11:36:56.555Z</time>
      </trkpt>
      <trkpt lat="43.71861" lon="4.97392">
        <ele>415.28</ele>
        <time>2026-04-16T11:37:01.806Z</time>
      </trkpt>
      <trkpt lat="43.71861" lon="4.97387">
        <ele>415.07</ele>
        <time>2026-04-16T11:37:07.515Z</time>
      </trkpt>
      <trkpt lat="43.71863" lon="4.97381">
        <ele>413.94</ele>
        <time>2026-04-16T11:37:12.847Z</time>
      </trkpt>
      <trkpt lat="43.71864" lon="4.97376">
        <ele>416.06</ele>
        <time>2026-04-16T11:37:18.497Z</time>
      </trkpt>
      <trkpt lat="43.71863" lon="4.97367">
        <ele>415.46</ele>
        <time>2026-04-16T11:37:23.992Z</time>
      </trkpt>
      <trkpt lat="43.71862" lon="4.97361">
        <ele>416.02</ele>
        <time>2026-04-16T11:37:29.807Z</time>
      </trkpt>
      <trkpt lat="43.71865" lon="4.97359">
        <ele>416.06</ele>
        <time>2026-04-16T11:37:35.130Z</time>
      </trkpt>
      <trkpt lat="43.71865" lon="4.9736">
        <ele>415.43</ele>
        <time>2026-04-16T11:37:40.763Z</time>
      </trkpt>
      <trkpt lat="43.71866" lon="4.97359">
        <ele>420.44</ele>
        <time>2026-04-16T11:37:55.829Z</time>
      </trkpt>
      <trkpt lat="43.71866" lon="4.97357">
        <ele>418.69</ele>
        <time>2026-04-16T11:38:20.756Z</time>
      </trkpt>
      <trkpt lat="43.71869" lon="4.9735">
        <ele>417.97</ele>
        <time>2026-04-16T11:38:25.829Z</time>
      </trkpt>
      <trkpt lat="43.7187" lon="4.97341">
        <ele>419.45</ele>
        <time>2026-04-16T11:38:31.216Z</time>
      </trkpt>
      <trkpt lat="43.71869" lon="4.97334">
        <ele>421.49</ele>
        <time>2026-04-16T11:38:36.823Z</time>
      </trkpt>
      <trkpt lat="43.71869" lon="4.9733">
        <ele>422.98</ele>
        <time>2026-04-16T11:38:42.451Z</time>
      </trkpt>
      <trkpt lat="43.71869" lon="4.97328">
        <ele>423.23</ele>
        <time>2026-04-16T11:38:47.818Z</time>
      </trkpt>
      <trkpt lat="43.71871" lon="4.9733">
        <ele>423.4</ele>
        <time>2026-04-16T11:38:53.795Z</time>
      </trkpt>
      <trkpt lat="43.71872" lon="4.9733">
        <ele>424.02</ele>
        <time>2026-04-16T11:38:58.837Z</time>
      </trkpt>
      <trkpt lat="43.71872" lon="4.97331">
        <ele>423.75</ele>
        <time>2026-04-16T11:39:08.748Z</time>
      </trkpt>
      <trkpt lat="43.71875" lon="4.97329">
        <ele>422.09</ele>
        <time>2026-04-16T11:39:14.832Z</time>
      </trkpt>
      <trkpt lat="43.71876" lon="4.97325">
        <ele>420.82</ele>
        <time>2026-04-16T11:39:20.810Z</time>
      </trkpt>
      <trkpt lat="43.7188" lon="4.97319">
        <ele>420.23</ele>
        <time>2026-04-16T11:39:25.826Z</time>
      </trkpt>
      <trkpt lat="43.7188" lon="4.97309">
        <ele>420</ele>
        <time>2026-04-16T11:39:31.442Z</time>
      </trkpt>
      <trkpt lat="43.71878" lon="4.973">
        <ele>420.2</ele>
        <time>2026-04-16T11:39:36.719Z</time>
      </trkpt>
      <trkpt lat="43.71878" lon="4.97294">
        <ele>420.04</ele>
        <time>2026-04-16T11:39:41.876Z</time>
      </trkpt>
      <trkpt lat="43.71881" lon="4.97288">
        <ele>418.99</ele>
        <time>2026-04-16T11:39:47.078Z</time>
      </trkpt>
      <trkpt lat="43.71885" lon="4.97282">
        <ele>418.9</ele>
        <time>2026-04-16T11:39:52.575Z</time>
      </trkpt>
      <trkpt lat="43.71888" lon="4.97275">
        <ele>419.17</ele>
        <time>2026-04-16T11:39:57.846Z</time>
      </trkpt>
      <trkpt lat="43.71888" lon="4.97266">
        <ele>419.4</ele>
        <time>2026-04-16T11:40:03.115Z</time>
      </trkpt>
      <trkpt lat="43.71888" lon="4.97258">
        <ele>419.67</ele>
        <time>2026-04-16T11:40:08.282Z</time>
      </trkpt>
      <trkpt lat="43.71893" lon="4.97252">
        <ele>419.64</ele>
        <time>2026-04-16T11:40:13.637Z</time>
      </trkpt>
      <trkpt lat="43.71895" lon="4.97246">
        <ele>418.85</ele>
        <time>2026-04-16T11:40:18.871Z</time>
      </trkpt>
      <trkpt lat="43.71898" lon="4.97244">
        <ele>418.41</ele>
        <time>2026-04-16T11:40:24.318Z</time>
      </trkpt>
      <trkpt lat="43.71902" lon="4.97241">
        <ele>417.62</ele>
        <time>2026-04-16T11:40:29.496Z</time>
      </trkpt>
      <trkpt lat="43.71904" lon="4.97236">
        <ele>416.88</ele>
        <time>2026-04-16T11:40:34.839Z</time>
      </trkpt>
      <trkpt lat="43.71905" lon="4.97235">
        <ele>415.25</ele>
        <time>2026-04-16T11:40:43.779Z</time>
      </trkpt>
      <trkpt lat="43.71905" lon="4.97233">
        <ele>414.45</ele>
        <time>2026-04-16T11:40:48.862Z</time>
      </trkpt>
      <trkpt lat="43.71906" lon="4.97231">
        <ele>414.13</ele>
        <time>2026-04-16T11:40:54.737Z</time>
      </trkpt>
      <trkpt lat="43.71911" lon="4.97227">
        <ele>413.27</ele>
        <time>2026-04-16T11:40:59.752Z</time>
      </trkpt>
      <trkpt lat="43.71913" lon="4.97224">
        <ele>413.06</ele>
        <time>2026-04-16T11:41:04.769Z</time>
      </trkpt>
      <trkpt lat="43.71919" lon="4.97217">
        <ele>413.29</ele>
        <time>2026-04-16T11:41:10.167Z</time>
      </trkpt>
      <trkpt lat="43.71927" lon="4.97212">
        <ele>413.58</ele>
        <time>2026-04-16T11:41:15.873Z</time>
      </trkpt>
      <trkpt lat="43.71929" lon="4.97211">
        <ele>412.4</ele>
        <time>2026-04-16T11:41:21.239Z</time>
      </trkpt>
      <trkpt lat="43.7193" lon="4.97208">
        <ele>411.91</ele>
        <time>2026-04-16T11:41:26.559Z</time>
      </trkpt>
      <trkpt lat="43.7193" lon="4.97201">
        <ele>411.43</ele>
        <time>2026-04-16T11:41:32.297Z</time>
      </trkpt>
      <trkpt lat="43.71929" lon="4.97195">
        <ele>410.03</ele>
        <time>2026-04-16T11:41:37.580Z</time>
      </trkpt>
      <trkpt lat="43.71929" lon="4.97191">
        <ele>409.16</ele>
        <time>2026-04-16T11:41:42.604Z</time>
      </trkpt>
      <trkpt lat="43.7193" lon="4.97189">
        <ele>408.81</ele>
        <time>2026-04-16T11:41:47.640Z</time>
      </trkpt>
      <trkpt lat="43.7193" lon="4.97185">
        <ele>407.58</ele>
        <time>2026-04-16T11:41:52.801Z</time>
      </trkpt>
      <trkpt lat="43.71932" lon="4.9718">
        <ele>406.46</ele>
        <time>2026-04-16T11:41:57.818Z</time>
      </trkpt>
      <trkpt lat="43.71932" lon="4.97176">
        <ele>405.67</ele>
        <time>2026-04-16T11:42:02.834Z</time>
      </trkpt>
      <trkpt lat="43.71934" lon="4.97171">
        <ele>404.69</ele>
        <time>2026-04-16T11:42:08.300Z</time>
      </trkpt>
      <trkpt lat="43.71936" lon="4.97167">
        <ele>403.7</ele>
        <time>2026-04-16T11:42:13.341Z</time>
      </trkpt>
      <trkpt lat="43.71937" lon="4.97168">
        <ele>402</ele>
        <time>2026-04-16T11:42:23.496Z</time>
      </trkpt>
      <trkpt lat="43.71938" lon="4.97168">
        <ele>400.8</ele>
        <time>2026-04-16T11:42:29.834Z</time>
      </trkpt>
      <trkpt lat="43.71942" lon="4.97159">
        <ele>399.87</ele>
        <time>2026-04-16T11:42:35.584Z</time>
      </trkpt>
      <trkpt lat="43.71947" lon="4.97153">
        <ele>399.28</ele>
        <time>2026-04-16T11:42:40.755Z</time>
      </trkpt>
      <trkpt lat="43.7195" lon="4.97145">
        <ele>398.04</ele>
        <time>2026-04-16T11:42:46.577Z</time>
      </trkpt>
      <trkpt lat="43.71953" lon="4.97142">
        <ele>398.12</ele>
        <time>2026-04-16T11:42:51.877Z</time>
      </trkpt>
      <trkpt lat="43.71955" lon="4.97136">
        <ele>397.61</ele>
        <time>2026-04-16T11:42:57.462Z</time>
      </trkpt>
      <trkpt lat="43.71957" lon="4.97137">
        <ele>396.23</ele>
        <time>2026-04-16T11:43:02.656Z</time>
      </trkpt>
      <trkpt lat="43.71958" lon="4.97135">
        <ele>395.71</ele>
        <time>2026-04-16T11:43:08.321Z</time>
      </trkpt>
      <trkpt lat="43.71959" lon="4.9713">
        <ele>396.01</ele>
        <time>2026-04-16T11:43:13.804Z</time>
      </trkpt>
      <trkpt lat="43.71962" lon="4.97122">
        <ele>396.72</ele>
        <time>2026-04-16T11:43:18.824Z</time>
      </trkpt>
      <trkpt lat="43.71965" lon="4.97113">
        <ele>397.21</ele>
        <time>2026-04-16T11:43:23.835Z</time>
      </trkpt>
      <trkpt lat="43.71967" lon="4.97107">
        <ele>396.96</ele>
        <time>2026-04-16T11:43:28.851Z</time>
      </trkpt>
      <trkpt lat="43.71968" lon="4.97102">
        <ele>396.71</ele>
        <time>2026-04-16T11:43:34.377Z</time>
      </trkpt>
      <trkpt lat="43.71966" lon="4.97095">
        <ele>396.19</ele>
        <time>2026-04-16T11:43:39.858Z</time>
      </trkpt>
      <trkpt lat="43.71965" lon="4.97089">
        <ele>396.6</ele>
        <time>2026-04-16T11:43:45.558Z</time>
      </trkpt>
      <trkpt lat="43.71964" lon="4.97085">
        <ele>396.25</ele>
        <time>2026-04-16T11:43:50.836Z</time>
      </trkpt>
      <trkpt lat="43.71962" lon="4.97086">
        <ele>396.37</ele>
        <time>2026-04-16T11:43:55.852Z</time>
      </trkpt>
      <trkpt lat="43.71963" lon="4.97086">
        <ele>395.55</ele>
        <time>2026-04-16T11:44:01.829Z</time>
      </trkpt>
      <trkpt lat="43.71963" lon="4.97085">
        <ele>395.76</ele>
        <time>2026-04-16T11:44:29.826Z</time>
      </trkpt>
      <trkpt lat="43.71962" lon="4.97086">
        <ele>395.71</ele>
        <time>2026-04-16T11:44:37.830Z</time>
      </trkpt>
      <trkpt lat="43.71961" lon="4.97087">
        <ele>395.06</ele>
        <time>2026-04-16T11:45:08.791Z</time>
      </trkpt>
      <trkpt lat="43.7196" lon="4.9709">
        <ele>396.37</ele>
        <time>2026-04-16T11:45:13.807Z</time>
      </trkpt>
      <trkpt lat="43.71961" lon="4.9709">
        <ele>396.75</ele>
        <time>2026-04-16T11:45:20.851Z</time>
      </trkpt>
      <trkpt lat="43.71961" lon="4.97091">
        <ele>395.31</ele>
        <time>2026-04-16T11:45:33.361Z</time>
      </trkpt>
      <trkpt lat="43.71962" lon="4.97089">
        <ele>394.18</ele>
        <time>2026-04-16T11:45:46.815Z</time>
      </trkpt>
      <trkpt lat="43.71964" lon="4.97083">
        <ele>393.38</ele>
        <time>2026-04-16T11:45:52.340Z</time>
      </trkpt>
      <trkpt lat="43.71966" lon="4.97077">
        <ele>392.49</ele>
        <time>2026-04-16T11:45:57.820Z</time>
      </trkpt>
      <trkpt lat="43.71967" lon="4.97073">
        <ele>391.54</ele>
        <time>2026-04-16T11:46:02.859Z</time>
      </trkpt>
      <trkpt lat="43.71967" lon="4.97066">
        <ele>390.67</ele>
        <time>2026-04-16T11:46:07.874Z</time>
      </trkpt>
      <trkpt lat="43.71968" lon="4.97057">
        <ele>390.31</ele>
        <time>2026-04-16T11:46:13.602Z</time>
      </trkpt>
      <trkpt lat="43.71968" lon="4.97051">
        <ele>389.94</ele>
        <time>2026-04-16T11:46:18.638Z</time>
      </trkpt>
      <trkpt lat="43.71966" lon="4.9705">
        <ele>389.69</ele>
        <time>2026-04-16T11:46:23.827Z</time>
      </trkpt>
      <trkpt lat="43.71967" lon="4.97051">
        <ele>388.19</ele>
        <time>2026-04-16T11:46:29.813Z</time>
      </trkpt>
      <trkpt lat="43.71967" lon="4.9705">
        <ele>388.95</ele>
        <time>2026-04-16T11:46:34.829Z</time>
      </trkpt>
      <trkpt lat="43.71968" lon="4.97049">
        <ele>391.47</ele>
        <time>2026-04-16T11:46:39.846Z</time>
      </trkpt>
      <trkpt lat="43.71969" lon="4.97045">
        <ele>392.07</ele>
        <time>2026-04-16T11:46:44.862Z</time>
      </trkpt>
      <trkpt lat="43.71969" lon="4.97043">
        <ele>391</ele>
        <time>2026-04-16T11:46:49.878Z</time>
      </trkpt>
      <trkpt lat="43.71969" lon="4.97041">
        <ele>390.69</ele>
        <time>2026-04-16T11:46:55.247Z</time>
      </trkpt>
      <trkpt lat="43.71969" lon="4.9704">
        <ele>392.9</ele>
        <time>2026-04-16T11:47:00.631Z</time>
      </trkpt>
      <trkpt lat="43.71968" lon="4.97034">
        <ele>392.36</ele>
        <time>2026-04-16T11:47:05.640Z</time>
      </trkpt>
      <trkpt lat="43.71965" lon="4.97028">
        <ele>391.81</ele>
        <time>2026-04-16T11:47:10.796Z</time>
      </trkpt>
      <trkpt lat="43.71965" lon="4.97027">
        <ele>390.56</ele>
        <time>2026-04-16T11:47:15.811Z</time>
      </trkpt>
      <trkpt lat="43.71965" lon="4.97025">
        <ele>389.91</ele>
        <time>2026-04-16T11:47:23.815Z</time>
      </trkpt>
      <trkpt lat="43.71965" lon="4.97024">
        <ele>388.95</ele>
        <time>2026-04-16T11:47:31.820Z</time>
      </trkpt>
      <trkpt lat="43.71965" lon="4.97023">
        <ele>388.81</ele>
        <time>2026-04-16T11:47:43.423Z</time>
      </trkpt>
      <trkpt lat="43.71966" lon="4.97022">
        <ele>388.56</ele>
        <time>2026-04-16T11:47:49.832Z</time>
      </trkpt>
      <trkpt lat="43.71967" lon="4.97019">
        <ele>387.41</ele>
        <time>2026-04-16T11:47:55.832Z</time>
      </trkpt>
      <trkpt lat="43.71971" lon="4.97014">
        <ele>386.53</ele>
        <time>2026-04-16T11:48:00.849Z</time>
      </trkpt>
      <trkpt lat="43.71974" lon="4.97012">
        <ele>386.13</ele>
        <time>2026-04-16T11:48:05.863Z</time>
      </trkpt>
      <trkpt lat="43.71974" lon="4.97012">
        <ele>385.69</ele>
        <time>2026-04-16T11:48:13.868Z</time>
      </trkpt>
      <trkpt lat="43.71975" lon="4.9701">
        <ele>385.49</ele>
        <time>2026-04-16T11:48:19.335Z</time>
      </trkpt>
      <trkpt lat="43.71976" lon="4.97009">
        <ele>385.1</ele>
        <time>2026-04-16T11:48:24.741Z</time>
      </trkpt>
      <trkpt lat="43.71975" lon="4.97007">
        <ele>387.7</ele>
        <time>2026-04-16T11:48:30.541Z</time>
      </trkpt>
      <trkpt lat="43.71977" lon="4.97003">
        <ele>388.38</ele>
        <time>2026-04-16T11:48:35.852Z</time>
      </trkpt>
      <trkpt lat="43.71979" lon="4.96999">
        <ele>389.05</ele>
        <time>2026-04-16T11:48:40.868Z</time>
      </trkpt>
      <trkpt lat="43.71979" lon="4.96998">
        <ele>390.29</ele>
        <time>2026-04-16T11:48:46.377Z</time>
      </trkpt>
      <trkpt lat="43.71981" lon="4.96995">
        <ele>390.39</ele>
        <time>2026-04-16T11:48:51.660Z</time>
      </trkpt>
      <trkpt lat="43.71981" lon="4.96991">
        <ele>393.26</ele>
        <time>2026-04-16T11:48:56.876Z</time>
      </trkpt>
      <trkpt lat="43.71981" lon="4.9699">
        <ele>394.51</ele>
        <time>2026-04-16T11:49:05.841Z</time>
      </trkpt>
      <trkpt lat="43.71982" lon="4.9699">
        <ele>392.87</ele>
        <time>2026-04-16T11:49:11.817Z</time>
      </trkpt>
      <trkpt lat="43.71981" lon="4.96989">
        <ele>393.81</ele>
        <time>2026-04-16T11:49:22.810Z</time>
      </trkpt>
      <trkpt lat="43.71981" lon="4.96988">
        <ele>393.29</ele>
        <time>2026-04-16T11:49:33.875Z</time>
      </trkpt>
      <trkpt lat="43.7198" lon="4.96984">
        <ele>393.19</ele>
        <time>2026-04-16T11:49:39.301Z</time>
      </trkpt>
      <trkpt lat="43.71979" lon="4.9698">
        <ele>393.46</ele>
        <time>2026-04-16T11:49:44.780Z</time>
      </trkpt>
      <trkpt lat="43.71977" lon="4.96974">
        <ele>393.78</ele>
        <time>2026-04-16T11:49:49.856Z</time>
      </trkpt>
      <trkpt lat="43.71976" lon="4.96973">
        <ele>393.45</ele>
        <time>2026-04-16T11:49:55.478Z</time>
      </trkpt>
      <trkpt lat="43.71975" lon="4.96971">
        <ele>393.09</ele>
        <time>2026-04-16T11:50:03.498Z</time>
      </trkpt>
      <trkpt lat="43.71976" lon="4.96969">
        <ele>392.08</ele>
        <time>2026-04-16T11:50:08.835Z</time>
      </trkpt>
      <trkpt lat="43.71976" lon="4.96967">
        <ele>392.87</ele>
        <time>2026-04-16T11:50:15.878Z</time>
      </trkpt>
      <trkpt lat="43.71975" lon="4.96956">
        <ele>392.45</ele>
        <time>2026-04-16T11:50:21.439Z</time>
      </trkpt>
      <trkpt lat="43.71974" lon="4.96948">
        <ele>391.79</ele>
        <time>2026-04-16T11:50:26.560Z</time>
      </trkpt>
      <trkpt lat="43.71977" lon="4.96935">
        <ele>391.73</ele>
        <time>2026-04-16T11:50:31.576Z</time>
      </trkpt>
      <trkpt lat="43.71979" lon="4.96924">
        <ele>391.98</ele>
        <time>2026-04-16T11:50:36.872Z</time>
      </trkpt>
      <trkpt lat="43.71979" lon="4.96917">
        <ele>392.51</ele>
        <time>2026-04-16T11:50:42.078Z</time>
      </trkpt>
      <trkpt lat="43.7198" lon="4.96914">
        <ele>391.61</ele>
        <time>2026-04-16T11:50:47.478Z</time>
      </trkpt>
      <trkpt lat="43.7198" lon="4.96912">
        <ele>389.16</ele>
        <time>2026-04-16T11:51:10.836Z</time>
      </trkpt>
      <trkpt lat="43.7198" lon="4.96911">
        <ele>387.67</ele>
        <time>2026-04-16T11:51:19.772Z</time>
      </trkpt>
      <trkpt lat="43.7198" lon="4.96909">
        <ele>387.16</ele>
        <time>2026-04-16T11:51:25.495Z</time>
      </trkpt>
      <trkpt lat="43.71981" lon="4.96908">
        <ele>386.9</ele>
        <time>2026-04-16T11:51:32.792Z</time>
      </trkpt>
      <trkpt lat="43.71981" lon="4.96906">
        <ele>386.25</ele>
        <time>2026-04-16T11:51:38.675Z</time>
      </trkpt>
      <trkpt lat="43.71981" lon="4.96905">
        <ele>385.79</ele>
        <time>2026-04-16T11:51:47.839Z</time>
      </trkpt>
      <trkpt lat="43.71981" lon="4.96904">
        <ele>386.56</ele>
        <time>2026-04-16T11:51:53.519Z</time>
      </trkpt>
      <trkpt lat="43.71982" lon="4.96894">
        <ele>384.74</ele>
        <time>2026-04-16T11:51:58.860Z</time>
      </trkpt>
      <trkpt lat="43.71983" lon="4.96882">
        <ele>384.41</ele>
        <time>2026-04-16T11:52:04.056Z</time>
      </trkpt>
      <trkpt lat="43.71984" lon="4.96878">
        <ele>384.04</ele>
        <time>2026-04-16T11:52:09.563Z</time>
      </trkpt>
      <trkpt lat="43.71984" lon="4.9688">
        <ele>382.12</ele>
        <time>2026-04-16T11:52:14.839Z</time>
      </trkpt>
      <trkpt lat="43.71985" lon="4.96878">
        <ele>381.75</ele>
        <time>2026-04-16T11:52:27.576Z</time>
      </trkpt>
      <trkpt lat="43.71986" lon="4.96873">
        <ele>380.45</ele>
        <time>2026-04-16T11:52:32.873Z</time>
      </trkpt>
      <trkpt lat="43.71986" lon="4.96872">
        <ele>380</ele>
        <time>2026-04-16T11:52:41.838Z</time>
      </trkpt>
      <trkpt lat="43.71987" lon="4.96869">
        <ele>379.81</ele>
        <time>2026-04-16T11:52:46.856Z</time>
      </trkpt>
      <trkpt lat="43.71987" lon="4.96867">
        <ele>378.6</ele>
        <time>2026-04-16T11:52:51.868Z</time>
      </trkpt>
      <trkpt lat="43.71988" lon="4.96866">
        <ele>378.32</ele>
        <time>2026-04-16T11:52:57.796Z</time>
      </trkpt>
      <trkpt lat="43.71988" lon="4.96863">
        <ele>377.93</ele>
        <time>2026-04-16T11:53:03.839Z</time>
      </trkpt>
      <trkpt lat="43.71989" lon="4.96862">
        <ele>377.14</ele>
        <time>2026-04-16T11:53:09.337Z</time>
      </trkpt>
      <trkpt lat="43.71989" lon="4.96861">
        <ele>376.84</ele>
        <time>2026-04-16T11:53:14.717Z</time>
      </trkpt>
      <trkpt lat="43.71992" lon="4.96856">
        <ele>376</ele>
        <time>2026-04-16T11:53:19.846Z</time>
      </trkpt>
      <trkpt lat="43.71995" lon="4.96848">
        <ele>375.47</ele>
        <time>2026-04-16T11:53:25.610Z</time>
      </trkpt>
      <trkpt lat="43.71997" lon="4.96847">
        <ele>375.38</ele>
        <time>2026-04-16T11:53:31.808Z</time>
      </trkpt>
      <trkpt lat="43.71996" lon="4.96844">
        <ele>376.37</ele>
        <time>2026-04-16T11:53:36.852Z</time>
      </trkpt>
      <trkpt lat="43.71995" lon="4.96842">
        <ele>377.95</ele>
        <time>2026-04-16T11:53:42.800Z</time>
      </trkpt>
      <trkpt lat="43.71995" lon="4.96841">
        <ele>378.08</ele>
        <time>2026-04-16T11:53:57.727Z</time>
      </trkpt>
      <trkpt lat="43.71996" lon="4.9684">
        <ele>378.57</ele>
        <time>2026-04-16T11:54:05.853Z</time>
      </trkpt>
      <trkpt lat="43.72" lon="4.96837">
        <ele>378.62</ele>
        <time>2026-04-16T11:54:10.870Z</time>
      </trkpt>
      <trkpt lat="43.72001" lon="4.96835">
        <ele>377.33</ele>
        <time>2026-04-16T11:54:15.886Z</time>
      </trkpt>
      <trkpt lat="43.72001" lon="4.96834">
        <ele>374.78</ele>
        <time>2026-04-16T11:54:29.867Z</time>
      </trkpt>
      <trkpt lat="43.72001" lon="4.96833">
        <ele>373.79</ele>
        <time>2026-04-16T11:54:38.832Z</time>
      </trkpt>
      <trkpt lat="43.72001" lon="4.96831">
        <ele>375.04</ele>
        <time>2026-04-16T11:54:56.868Z</time>
      </trkpt>
      <trkpt lat="43.72001" lon="4.9683">
        <ele>374.86</ele>
        <time>2026-04-16T11:55:03.805Z</time>
      </trkpt>
      <trkpt lat="43.72" lon="4.96829">
        <ele>373.44</ele>
        <time>2026-04-16T11:55:09.887Z</time>
      </trkpt>
      <trkpt lat="43.72" lon="4.96827">
        <ele>373.58</ele>
        <time>2026-04-16T11:55:15.371Z</time>
      </trkpt>
      <trkpt lat="43.72" lon="4.96824">
        <ele>373.7</ele>
        <time>2026-04-16T11:55:20.888Z</time>
      </trkpt>
      <trkpt lat="43.72" lon="4.96822">
        <ele>372.45</ele>
        <time>2026-04-16T11:55:28.551Z</time>
      </trkpt>
      <trkpt lat="43.72" lon="4.96821">
        <ele>371.69</ele>
        <time>2026-04-16T11:55:33.803Z</time>
      </trkpt>
      <trkpt lat="43.72" lon="4.96819">
        <ele>370.94</ele>
        <time>2026-04-16T11:55:57.613Z</time>
      </trkpt>
      <trkpt lat="43.72001" lon="4.96819">
        <ele>371.7</ele>
        <time>2026-04-16T11:56:02.830Z</time>
      </trkpt>
      <trkpt lat="43.72002" lon="4.96817">
        <ele>372.02</ele>
        <time>2026-04-16T11:56:13.827Z</time>
      </trkpt>
      <trkpt lat="43.72002" lon="4.96815">
        <ele>373.28</ele>
        <time>2026-04-16T11:56:29.251Z</time>
      </trkpt>
      <trkpt lat="43.72008" lon="4.96806">
        <ele>375.35</ele>
        <time>2026-04-16T11:56:34.787Z</time>
      </trkpt>
      <trkpt lat="43.72012" lon="4.96803">
        <ele>376.45</ele>
        <time>2026-04-16T11:56:39.788Z</time>
      </trkpt>
      <trkpt lat="43.7201" lon="4.968">
        <ele>375.17</ele>
        <time>2026-04-16T11:56:45.746Z</time>
      </trkpt>
      <trkpt lat="43.72009" lon="4.96799">
        <ele>374.83</ele>
        <time>2026-04-16T11:56:50.866Z</time>
      </trkpt>
      <trkpt lat="43.72008" lon="4.96799">
        <ele>374.08</ele>
        <time>2026-04-16T11:56:56.511Z</time>
      </trkpt>
      <trkpt lat="43.72009" lon="4.96798">
        <ele>375.82</ele>
        <time>2026-04-16T11:57:12.753Z</time>
      </trkpt>
      <trkpt lat="43.72009" lon="4.96797">
        <ele>373.86</ele>
        <time>2026-04-16T11:57:21.825Z</time>
      </trkpt>
      <trkpt lat="43.7201" lon="4.96798">
        <ele>380.76</ele>
        <time>2026-04-16T11:57:29.344Z</time>
      </trkpt>
      <trkpt lat="43.72016" lon="4.96791">
        <ele>376.44</ele>
        <time>2026-04-16T11:57:34.901Z</time>
      </trkpt>
      <trkpt lat="43.72012" lon="4.96782">
        <ele>376.46</ele>
        <time>2026-04-16T11:57:40.832Z</time>
      </trkpt>
      <trkpt lat="43.72011" lon="4.96778">
        <ele>377.34</ele>
        <time>2026-04-16T11:57:45.848Z</time>
      </trkpt>
      <trkpt lat="43.72009" lon="4.96776">
        <ele>377.4</ele>
        <time>2026-04-16T11:57:51.410Z</time>
      </trkpt>
      <trkpt lat="43.72008" lon="4.96772">
        <ele>378.29</ele>
        <time>2026-04-16T11:57:56.631Z</time>
      </trkpt>
      <trkpt lat="43.72009" lon="4.96769">
        <ele>379.14</ele>
        <time>2026-04-16T11:58:01.816Z</time>
      </trkpt>
      <trkpt lat="43.7201" lon="4.96763">
        <ele>379.7</ele>
        <time>2026-04-16T11:58:06.872Z</time>
      </trkpt>
      <trkpt lat="43.72011" lon="4.96759">
        <ele>380.06</ele>
        <time>2026-04-16T11:58:11.890Z</time>
      </trkpt>
      <trkpt lat="43.72011" lon="4.96757">
        <ele>380.46</ele>
        <time>2026-04-16T11:58:16.905Z</time>
      </trkpt>
      <trkpt lat="43.72012" lon="4.96754">
        <ele>381.51</ele>
        <time>2026-04-16T11:58:22.619Z</time>
      </trkpt>
      <trkpt lat="43.72015" lon="4.96751">
        <ele>381.39</ele>
        <time>2026-04-16T11:58:27.794Z</time>
      </trkpt>
      <trkpt lat="43.72019" lon="4.96746">
        <ele>380.72</ele>
        <time>2026-04-16T11:58:33.299Z</time>
      </trkpt>
      <trkpt lat="43.72024" lon="4.96742">
        <ele>380.85</ele>
        <time>2026-04-16T11:58:38.784Z</time>
      </trkpt>
      <trkpt lat="43.72025" lon="4.96736">
        <ele>381.57</ele>
        <time>2026-04-16T11:58:43.800Z</time>
      </trkpt>
      <trkpt lat="43.72024" lon="4.96735">
        <ele>381.86</ele>
        <time>2026-04-16T11:58:49.263Z</time>
      </trkpt>
      <trkpt lat="43.72026" lon="4.96735">
        <ele>382.54</ele>
        <time>2026-04-16T11:58:55.871Z</time>
      </trkpt>
      <trkpt lat="43.72026" lon="4.96737">
        <ele>382.25</ele>
        <time>2026-04-16T11:59:00.874Z</time>
      </trkpt>
      <trkpt lat="43.72027" lon="4.96736">
        <ele>380.58</ele>
        <time>2026-04-16T11:59:13.508Z</time>
      </trkpt>
      <trkpt lat="43.7203" lon="4.96731">
        <ele>379.5</ele>
        <time>2026-04-16T11:59:18.804Z</time>
      </trkpt>
      <trkpt lat="43.72032" lon="4.96731">
        <ele>379.33</ele>
        <time>2026-04-16T11:59:23.884Z</time>
      </trkpt>
      <trkpt lat="43.72036" lon="4.96725">
        <ele>379.36</ele>
        <time>2026-04-16T11:59:29.188Z</time>
      </trkpt>
      <trkpt lat="43.7204" lon="4.96722">
        <ele>379.03</ele>
        <time>2026-04-16T11:59:34.353Z</time>
      </trkpt>
      <trkpt lat="43.7204" lon="4.9672">
        <ele>379.09</ele>
        <time>2026-04-16T11:59:39.370Z</time>
      </trkpt>
      <trkpt lat="43.72039" lon="4.96718">
        <ele>383.64</ele>
        <time>2026-04-16T11:59:54.910Z</time>
      </trkpt>
      <trkpt lat="43.72039" lon="4.96716">
        <ele>383.44</ele>
        <time>2026-04-16T12:00:00.852Z</time>
      </trkpt>
      <trkpt lat="43.72039" lon="4.96715">
        <ele>382.79</ele>
        <time>2026-04-16T12:00:14.586Z</time>
      </trkpt>
      <trkpt lat="43.7204" lon="4.96714">
        <ele>386.11</ele>
        <time>2026-04-16T12:00:19.866Z</time>
      </trkpt>
      <trkpt lat="43.7204" lon="4.96712">
        <ele>386.89</ele>
        <time>2026-04-16T12:00:24.890Z</time>
      </trkpt>
      <trkpt lat="43.7204" lon="4.96709">
        <ele>387.64</ele>
        <time>2026-04-16T12:00:30.301Z</time>
      </trkpt>
      <trkpt lat="43.72039" lon="4.96699">
        <ele>387.96</ele>
        <time>2026-04-16T12:00:35.763Z</time>
      </trkpt>
      <trkpt lat="43.72041" lon="4.96689">
        <ele>388.92</ele>
        <time>2026-04-16T12:00:40.874Z</time>
      </trkpt>
      <trkpt lat="43.72042" lon="4.96683">
        <ele>388.2</ele>
        <time>2026-04-16T12:00:46.875Z</time>
      </trkpt>
      <trkpt lat="43.72043" lon="4.96684">
        <ele>387.59</ele>
        <time>2026-04-16T12:00:51.890Z</time>
      </trkpt>
      <trkpt lat="43.72045" lon="4.96675">
        <ele>387.52</ele>
        <time>2026-04-16T12:00:57.578Z</time>
      </trkpt>
      <trkpt lat="43.72046" lon="4.9667">
        <ele>388.04</ele>
        <time>2026-04-16T12:01:02.882Z</time>
      </trkpt>
      <trkpt lat="43.72047" lon="4.96669">
        <ele>386.97</ele>
        <time>2026-04-16T12:01:10.885Z</time>
      </trkpt>
      <trkpt lat="43.72047" lon="4.96667">
        <ele>386.21</ele>
        <time>2026-04-16T12:01:15.902Z</time>
      </trkpt>
      <trkpt lat="43.72049" lon="4.96659">
        <ele>387.17</ele>
        <time>2026-04-16T12:01:21.338Z</time>
      </trkpt>
      <trkpt lat="43.72052" lon="4.96653">
        <ele>388.42</ele>
        <time>2026-04-16T12:01:26.578Z</time>
      </trkpt>
      <trkpt lat="43.72052" lon="4.96646">
        <ele>389.27</ele>
        <time>2026-04-16T12:01:32.220Z</time>
      </trkpt>
      <trkpt lat="43.72052" lon="4.96643">
        <ele>390.27</ele>
        <time>2026-04-16T12:01:37.419Z</time>
      </trkpt>
      <trkpt lat="43.7205" lon="4.96642">
        <ele>390.59</ele>
        <time>2026-04-16T12:01:42.795Z</time>
      </trkpt>
      <trkpt lat="43.7205" lon="4.96641">
        <ele>390.57</ele>
        <time>2026-04-16T12:01:52.826Z</time>
      </trkpt>
      <trkpt lat="43.72051" lon="4.9664">
        <ele>391.03</ele>
        <time>2026-04-16T12:01:59.869Z</time>
      </trkpt>
      <trkpt lat="43.72052" lon="4.96639">
        <ele>388.94</ele>
        <time>2026-04-16T12:02:12.264Z</time>
      </trkpt>
      <trkpt lat="43.72052" lon="4.96638">
        <ele>387.52</ele>
        <time>2026-04-16T12:02:22.317Z</time>
      </trkpt>
      <trkpt lat="43.72053" lon="4.96637">
        <ele>387.18</ele>
        <time>2026-04-16T12:02:28.498Z</time>
      </trkpt>
      <trkpt lat="43.72054" lon="4.96636">
        <ele>387.2</ele>
        <time>2026-04-16T12:02:34.774Z</time>
      </trkpt>
      <trkpt lat="43.72055" lon="4.96636">
        <ele>387.52</ele>
        <time>2026-04-16T12:02:41.817Z</time>
      </trkpt>
      <trkpt lat="43.72054" lon="4.96637">
        <ele>390.78</ele>
        <time>2026-04-16T12:03:04.793Z</time>
      </trkpt>
      <trkpt lat="43.72053" lon="4.96641">
        <ele>391.48</ele>
        <time>2026-04-16T12:03:09.885Z</time>
      </trkpt>
      <trkpt lat="43.72052" lon="4.96643">
        <ele>392.25</ele>
        <time>2026-04-16T12:03:15.520Z</time>
      </trkpt>
      <trkpt lat="43.7205" lon="4.96643">
        <ele>394.34</ele>
        <time>2026-04-16T12:03:20.770Z</time>
      </trkpt>
      <trkpt lat="43.72048" lon="4.96641">
        <ele>396.68</ele>
        <time>2026-04-16T12:03:26.499Z</time>
      </trkpt>
      <trkpt lat="43.72045" lon="4.96636">
        <ele>397.65</ele>
        <time>2026-04-16T12:03:31.878Z</time>
      </trkpt>
      <trkpt lat="43.72045" lon="4.96635">
        <ele>397.17</ele>
        <time>2026-04-16T12:03:38.702Z</time>
      </trkpt>
      <trkpt lat="43.72044" lon="4.96634">
        <ele>399.59</ele>
        <time>2026-04-16T12:03:45.875Z</time>
      </trkpt>
      <trkpt lat="43.72042" lon="4.96633">
        <ele>400.29</ele>
        <time>2026-04-16T12:03:50.875Z</time>
      </trkpt>
      <trkpt lat="43.72041" lon="4.96631">
        <ele>398.73</ele>
        <time>2026-04-16T12:03:55.906Z</time>
      </trkpt>
      <trkpt lat="43.7204" lon="4.9663">
        <ele>400.21</ele>
        <time>2026-04-16T12:04:01.264Z</time>
      </trkpt>
      <trkpt lat="43.72038" lon="4.96629">
        <ele>402.81</ele>
        <time>2026-04-16T12:04:06.792Z</time>
      </trkpt>
      <trkpt lat="43.72037" lon="4.96629">
        <ele>403.65</ele>
        <time>2026-04-16T12:04:18.850Z</time>
      </trkpt>
      <trkpt lat="43.72036" lon="4.96628">
        <ele>398.14</ele>
        <time>2026-04-16T12:04:30.618Z</time>
      </trkpt>
      <trkpt lat="43.72037" lon="4.96625">
        <ele>411.51</ele>
        <time>2026-04-16T12:04:36.116Z</time>
      </trkpt>
      <trkpt lat="43.72037" lon="4.96622">
        <ele>410.22</ele>
        <time>2026-04-16T12:04:41.895Z</time>
      </trkpt>
      <trkpt lat="43.72038" lon="4.9662">
        <ele>406.61</ele>
        <time>2026-04-16T12:04:47.878Z</time>
      </trkpt>
      <trkpt lat="43.72038" lon="4.96619">
        <ele>406.25</ele>
        <time>2026-04-16T12:04:55.927Z</time>
      </trkpt>
      <trkpt lat="43.72038" lon="4.96618">
        <ele>405.94</ele>
        <time>2026-04-16T12:05:13.810Z</time>
      </trkpt>
      <trkpt lat="43.72038" lon="4.96617">
        <ele>406.49</ele>
        <time>2026-04-16T12:07:26.759Z</time>
      </trkpt>
      <trkpt lat="43.72038" lon="4.96611">
        <ele>405.54</ele>
        <time>2026-04-16T12:07:31.759Z</time>
      </trkpt>
      <trkpt lat="43.72038" lon="4.96607">
        <ele>404.44</ele>
        <time>2026-04-16T12:07:37.439Z</time>
      </trkpt>
      <trkpt lat="43.72039" lon="4.96603">
        <ele>404.26</ele>
        <time>2026-04-16T12:07:42.894Z</time>
      </trkpt>
      <trkpt lat="43.72041" lon="4.966">
        <ele>403.63</ele>
        <time>2026-04-16T12:07:48.457Z</time>
      </trkpt>
      <trkpt lat="43.7204" lon="4.96598">
        <ele>402.19</ele>
        <time>2026-04-16T12:07:53.676Z</time>
      </trkpt>
      <trkpt lat="43.7204" lon="4.96597">
        <ele>400.9</ele>
        <time>2026-04-16T12:07:59.920Z</time>
      </trkpt>
      <trkpt lat="43.72039" lon="4.96596">
        <ele>399.95</ele>
        <time>2026-04-16T12:08:05.896Z</time>
      </trkpt>
      <trkpt lat="43.72039" lon="4.96594">
        <ele>400.42</ele>
        <time>2026-04-16T12:08:11.815Z</time>
      </trkpt>
      <trkpt lat="43.72039" lon="4.96593">
        <ele>399.86</ele>
        <time>2026-04-16T12:08:19.819Z</time>
      </trkpt>
      <trkpt lat="43.72039" lon="4.96591">
        <ele>399.06</ele>
        <time>2026-04-16T12:08:24.835Z</time>
      </trkpt>
      <trkpt lat="43.72039" lon="4.96587">
        <ele>397.85</ele>
        <time>2026-04-16T12:08:29.897Z</time>
      </trkpt>
      <trkpt lat="43.72039" lon="4.96575">
        <ele>396.98</ele>
        <time>2026-04-16T12:08:35.825Z</time>
      </trkpt>
      <trkpt lat="43.72039" lon="4.96569">
        <ele>398.61</ele>
        <time>2026-04-16T12:08:40.841Z</time>
      </trkpt>
      <trkpt lat="43.72037" lon="4.96565">
        <ele>399.04</ele>
        <time>2026-04-16T12:08:45.861Z</time>
      </trkpt>
      <trkpt lat="43.72035" lon="4.96561">
        <ele>400.23</ele>
        <time>2026-04-16T12:08:50.872Z</time>
      </trkpt>
      <trkpt lat="43.72034" lon="4.9656">
        <ele>400.75</ele>
        <time>2026-04-16T12:08:56.578Z</time>
      </trkpt>
      <trkpt lat="43.72034" lon="4.96558">
        <ele>400.29</ele>
        <time>2026-04-16T12:09:02.155Z</time>
      </trkpt>
      <trkpt lat="43.72034" lon="4.96554">
        <ele>400.48</ele>
        <time>2026-04-16T12:09:07.400Z</time>
      </trkpt>
      <trkpt lat="43.72033" lon="4.96552">
        <ele>400.76</ele>
        <time>2026-04-16T12:09:12.656Z</time>
      </trkpt>
      <trkpt lat="43.72033" lon="4.96548">
        <ele>402.11</ele>
        <time>2026-04-16T12:09:18.375Z</time>
      </trkpt>
      <trkpt lat="43.72031" lon="4.96541">
        <ele>402.71</ele>
        <time>2026-04-16T12:09:23.896Z</time>
      </trkpt>
      <trkpt lat="43.72033" lon="4.96539">
        <ele>401.91</ele>
        <time>2026-04-16T12:09:29.007Z</time>
      </trkpt>
      <trkpt lat="43.72033" lon="4.96538">
        <ele>401.2</ele>
        <time>2026-04-16T12:09:37.875Z</time>
      </trkpt>
      <trkpt lat="43.72036" lon="4.96532">
        <ele>401.29</ele>
        <time>2026-04-16T12:09:42.875Z</time>
      </trkpt>
      <trkpt lat="43.72039" lon="4.96525">
        <ele>400.65</ele>
        <time>2026-04-16T12:09:48.140Z</time>
      </trkpt>
      <trkpt lat="43.72041" lon="4.96521">
        <ele>400.31</ele>
        <time>2026-04-16T12:09:53.844Z</time>
      </trkpt>
      <trkpt lat="43.72041" lon="4.96523">
        <ele>399.82</ele>
        <time>2026-04-16T12:09:58.860Z</time>
      </trkpt>
      <trkpt lat="43.72043" lon="4.96522">
        <ele>398.98</ele>
        <time>2026-04-16T12:10:04.138Z</time>
      </trkpt>
      <trkpt lat="43.72047" lon="4.96515">
        <ele>398.52</ele>
        <time>2026-04-16T12:10:09.499Z</time>
      </trkpt>
      <trkpt lat="43.72048" lon="4.96507">
        <ele>399.18</ele>
        <time>2026-04-16T12:10:14.719Z</time>
      </trkpt>
      <trkpt lat="43.72051" lon="4.96499">
        <ele>400.72</ele>
        <time>2026-04-16T12:10:20.899Z</time>
      </trkpt>
      <trkpt lat="43.72054" lon="4.96493">
        <ele>399.94</ele>
        <time>2026-04-16T12:10:26.315Z</time>
      </trkpt>
      <trkpt lat="43.72056" lon="4.96487">
        <ele>400.08</ele>
        <time>2026-04-16T12:10:31.855Z</time>
      </trkpt>
      <trkpt lat="43.72057" lon="4.96481">
        <ele>400.72</ele>
        <time>2026-04-16T12:10:37.475Z</time>
      </trkpt>
      <trkpt lat="43.72055" lon="4.96476">
        <ele>402.29</ele>
        <time>2026-04-16T12:10:42.825Z</time>
      </trkpt>
      <trkpt lat="43.72053" lon="4.96471">
        <ele>402.66</ele>
        <time>2026-04-16T12:10:48.413Z</time>
      </trkpt>
      <trkpt lat="43.72052" lon="4.96467">
        <ele>403</ele>
        <time>2026-04-16T12:10:53.501Z</time>
      </trkpt>
      <trkpt lat="43.72052" lon="4.96463">
        <ele>404.06</ele>
        <time>2026-04-16T12:10:58.694Z</time>
      </trkpt>
      <trkpt lat="43.72052" lon="4.96457">
        <ele>404.37</ele>
        <time>2026-04-16T12:11:04.241Z</time>
      </trkpt>
      <trkpt lat="43.72053" lon="4.96456">
        <ele>404.99</ele>
        <time>2026-04-16T12:11:09.833Z</time>
      </trkpt>
      <trkpt lat="43.72052" lon="4.96457">
        <ele>405.02</ele>
        <time>2026-04-16T12:11:16.875Z</time>
      </trkpt>
      <trkpt lat="43.72052" lon="4.96457">
        <ele>404.15</ele>
        <time>2026-04-16T12:11:28.697Z</time>
      </trkpt>
      <trkpt lat="43.72051" lon="4.96456">
        <ele>403.68</ele>
        <time>2026-04-16T12:11:41.078Z</time>
      </trkpt>
      <trkpt lat="43.72053" lon="4.96449">
        <ele>403.06</ele>
        <time>2026-04-16T12:11:46.776Z</time>
      </trkpt>
      <trkpt lat="43.72055" lon="4.96443">
        <ele>401.28</ele>
        <time>2026-04-16T12:11:51.817Z</time>
      </trkpt>
      <trkpt lat="43.72058" lon="4.96439">
        <ele>399.12</ele>
        <time>2026-04-16T12:11:56.893Z</time>
      </trkpt>
      <trkpt lat="43.72061" lon="4.96434">
        <ele>398.84</ele>
        <time>2026-04-16T12:12:01.900Z</time>
      </trkpt>
      <trkpt lat="43.72061" lon="4.96434">
        <ele>398.12</ele>
        <time>2026-04-16T12:12:10.439Z</time>
      </trkpt>
      <trkpt lat="43.7206" lon="4.96433">
        <ele>397.51</ele>
        <time>2026-04-16T12:12:21.863Z</time>
      </trkpt>
      <trkpt lat="43.72059" lon="4.96432">
        <ele>395.35</ele>
        <time>2026-04-16T12:12:35.579Z</time>
      </trkpt>
      <trkpt lat="43.72059" lon="4.9643">
        <ele>394.97</ele>
        <time>2026-04-16T12:12:41.923Z</time>
      </trkpt>
      <trkpt lat="43.72059" lon="4.96429">
        <ele>393.51</ele>
        <time>2026-04-16T12:12:52.809Z</time>
      </trkpt>
      <trkpt lat="43.72059" lon="4.96428">
        <ele>393.57</ele>
        <time>2026-04-16T12:13:08.578Z</time>
      </trkpt>
      <trkpt lat="43.72058" lon="4.96426">
        <ele>391.06</ele>
        <time>2026-04-16T12:13:24.477Z</time>
      </trkpt>
      <trkpt lat="43.72058" lon="4.96423">
        <ele>390.69</ele>
        <time>2026-04-16T12:13:29.837Z</time>
      </trkpt>
      <trkpt lat="43.72057" lon="4.96421">
        <ele>390.52</ele>
        <time>2026-04-16T12:13:34.840Z</time>
      </trkpt>
      <trkpt lat="43.72056" lon="4.9642">
        <ele>389.63</ele>
        <time>2026-04-16T12:13:41.657Z</time>
      </trkpt>
      <trkpt lat="43.72055" lon="4.96419">
        <ele>388.79</ele>
        <time>2026-04-16T12:13:46.911Z</time>
      </trkpt>
      <trkpt lat="43.72054" lon="4.96419">
        <ele>387.65</ele>
        <time>2026-04-16T12:13:52.489Z</time>
      </trkpt>
      <trkpt lat="43.72051" lon="4.96414">
        <ele>386.63</ele>
        <time>2026-04-16T12:13:57.795Z</time>
      </trkpt>
      <trkpt lat="43.72048" lon="4.96408">
        <ele>386.04</ele>
        <time>2026-04-16T12:14:02.821Z</time>
      </trkpt>
      <trkpt lat="43.72047" lon="4.96404">
        <ele>385.09</ele>
        <time>2026-04-16T12:14:08.178Z</time>
      </trkpt>
      <trkpt lat="43.72046" lon="4.96403">
        <ele>386.7</ele>
        <time>2026-04-16T12:14:19.602Z</time>
      </trkpt>
      <trkpt lat="43.72046" lon="4.964">
        <ele>384.81</ele>
        <time>2026-04-16T12:14:24.696Z</time>
      </trkpt>
      <trkpt lat="43.72047" lon="4.96398">
        <ele>383.29</ele>
        <time>2026-04-16T12:14:29.915Z</time>
      </trkpt>
      <trkpt lat="43.72048" lon="4.96396">
        <ele>381.59</ele>
        <time>2026-04-16T12:14:35.458Z</time>
      </trkpt>
      <trkpt lat="43.72049" lon="4.96396">
        <ele>380.6</ele>
        <time>2026-04-16T12:14:43.418Z</time>
      </trkpt>
      <trkpt lat="43.72051" lon="4.96396">
        <ele>379.26</ele>
        <time>2026-04-16T12:14:48.908Z</time>
      </trkpt>
      <trkpt lat="43.72054" lon="4.96393">
        <ele>377.66</ele>
        <time>2026-04-16T12:14:54.142Z</time>
      </trkpt>
      <trkpt lat="43.72055" lon="4.96386">
        <ele>376.85</ele>
        <time>2026-04-16T12:14:59.317Z</time>
      </trkpt>
      <trkpt lat="43.72052" lon="4.96384">
        <ele>375.66</ele>
        <time>2026-04-16T12:15:04.741Z</time>
      </trkpt>
      <trkpt lat="43.72051" lon="4.96382">
        <ele>375.51</ele>
        <time>2026-04-16T12:15:10.441Z</time>
      </trkpt>
      <trkpt lat="43.72052" lon="4.96381">
        <ele>374.72</ele>
        <time>2026-04-16T12:15:17.827Z</time>
      </trkpt>
      <trkpt lat="43.72053" lon="4.96379">
        <ele>374.18</ele>
        <time>2026-04-16T12:15:22.843Z</time>
      </trkpt>
      <trkpt lat="43.72057" lon="4.96371">
        <ele>374.4</ele>
        <time>2026-04-16T12:15:28.538Z</time>
      </trkpt>
      <trkpt lat="43.72059" lon="4.96364">
        <ele>372.82</ele>
        <time>2026-04-16T12:15:33.834Z</time>
      </trkpt>
      <trkpt lat="43.72062" lon="4.96359">
        <ele>371.78</ele>
        <time>2026-04-16T12:15:38.850Z</time>
      </trkpt>
      <trkpt lat="43.72065" lon="4.96357">
        <ele>370.85</ele>
        <time>2026-04-16T12:15:43.864Z</time>
      </trkpt>
      <trkpt lat="43.72067" lon="4.96356">
        <ele>369.93</ele>
        <time>2026-04-16T12:15:48.879Z</time>
      </trkpt>
      <trkpt lat="43.72066" lon="4.96358">
        <ele>368.89</ele>
        <time>2026-04-16T12:15:54.140Z</time>
      </trkpt>
      <trkpt lat="43.72067" lon="4.96357">
        <ele>367.85</ele>
        <time>2026-04-16T12:16:01.696Z</time>
      </trkpt>
      <trkpt lat="43.72073" lon="4.96353">
        <ele>366.64</ele>
        <time>2026-04-16T12:16:06.807Z</time>
      </trkpt>
      <trkpt lat="43.72079" lon="4.96347">
        <ele>365.63</ele>
        <time>2026-04-16T12:16:12.890Z</time>
      </trkpt>
      <trkpt lat="43.72081" lon="4.96343">
        <ele>366.33</ele>
        <time>2026-04-16T12:16:18.639Z</time>
      </trkpt>
      <trkpt lat="43.72082" lon="4.96343">
        <ele>367.63</ele>
        <time>2026-04-16T12:16:23.881Z</time>
      </trkpt>
      <trkpt lat="43.72083" lon="4.96336">
        <ele>368.12</ele>
        <time>2026-04-16T12:16:29.856Z</time>
      </trkpt>
      <trkpt lat="43.72083" lon="4.96332">
        <ele>368.69</ele>
        <time>2026-04-16T12:16:34.871Z</time>
      </trkpt>
      <trkpt lat="43.72083" lon="4.96326">
        <ele>370.34</ele>
        <time>2026-04-16T12:16:40.541Z</time>
      </trkpt>
      <trkpt lat="43.72082" lon="4.96322">
        <ele>371.08</ele>
        <time>2026-04-16T12:16:45.863Z</time>
      </trkpt>
      <trkpt lat="43.72082" lon="4.96321">
        <ele>371.37</ele>
        <time>2026-04-16T12:16:51.839Z</time>
      </trkpt>
      <trkpt lat="43.72082" lon="4.96319">
        <ele>369.7</ele>
        <time>2026-04-16T12:17:02.860Z</time>
      </trkpt>
      <trkpt lat="43.72083" lon="4.96314">
        <ele>369.03</ele>
        <time>2026-04-16T12:17:08.461Z</time>
      </trkpt>
      <trkpt lat="43.72082" lon="4.96313">
        <ele>367.79</ele>
        <time>2026-04-16T12:17:13.619Z</time>
      </trkpt>
      <trkpt lat="43.72082" lon="4.96311">
        <ele>366.85</ele>
        <time>2026-04-16T12:17:19.902Z</time>
      </trkpt>
      <trkpt lat="43.72082" lon="4.96308">
        <ele>366.21</ele>
        <time>2026-04-16T12:17:24.918Z</time>
      </trkpt>
      <trkpt lat="43.72084" lon="4.96302">
        <ele>365.09</ele>
        <time>2026-04-16T12:17:30.587Z</time>
      </trkpt>
      <trkpt lat="43.72088" lon="4.96296">
        <ele>364.19</ele>
        <time>2026-04-16T12:17:35.655Z</time>
      </trkpt>
      <trkpt lat="43.7209" lon="4.96289">
        <ele>362.79</ele>
        <time>2026-04-16T12:17:41.142Z</time>
      </trkpt>
      <trkpt lat="43.7209" lon="4.96282">
        <ele>362.13</ele>
        <time>2026-04-16T12:17:46.840Z</time>
      </trkpt>
      <trkpt lat="43.72089" lon="4.96281">
        <ele>363.13</ele>
        <time>2026-04-16T12:17:51.916Z</time>
      </trkpt>
      <trkpt lat="43.72089" lon="4.9628">
        <ele>364.94</ele>
        <time>2026-04-16T12:18:01.480Z</time>
      </trkpt>
      <trkpt lat="43.7209" lon="4.96276">
        <ele>365.2</ele>
        <time>2026-04-16T12:18:06.854Z</time>
      </trkpt>
      <trkpt lat="43.72091" lon="4.96275">
        <ele>364.63</ele>
        <time>2026-04-16T12:18:11.870Z</time>
      </trkpt>
      <trkpt lat="43.7209" lon="4.96274">
        <ele>364.73</ele>
        <time>2026-04-16T12:18:33.851Z</time>
      </trkpt>
      <trkpt lat="43.7209" lon="4.96272">
        <ele>365.64</ele>
        <time>2026-04-16T12:19:10.774Z</time>
      </trkpt>
      <trkpt lat="43.7209" lon="4.96271">
        <ele>367.15</ele>
        <time>2026-04-16T12:19:16.773Z</time>
      </trkpt>
      <trkpt lat="43.7209" lon="4.96269">
        <ele>367.65</ele>
        <time>2026-04-16T12:19:22.773Z</time>
      </trkpt>
      <trkpt lat="43.7209" lon="4.96266">
        <ele>367.85</ele>
        <time>2026-04-16T12:19:27.773Z</time>
      </trkpt>
      <trkpt lat="43.72091" lon="4.96259">
        <ele>369.15</ele>
        <time>2026-04-16T12:19:33.577Z</time>
      </trkpt>
      <trkpt lat="43.72094" lon="4.96253">
        <ele>370</ele>
        <time>2026-04-16T12:19:38.833Z</time>
      </trkpt>
      <trkpt lat="43.72097" lon="4.96248">
        <ele>370.27</ele>
        <time>2026-04-16T12:19:44.720Z</time>
      </trkpt>
      <trkpt lat="43.72097" lon="4.96245">
        <ele>371.74</ele>
        <time>2026-04-16T12:19:50.895Z</time>
      </trkpt>
      <trkpt lat="43.72098" lon="4.96244">
        <ele>371.73</ele>
        <time>2026-04-16T12:19:55.911Z</time>
      </trkpt>
      <trkpt lat="43.72099" lon="4.96245">
        <ele>370.94</ele>
        <time>2026-04-16T12:20:01.887Z</time>
      </trkpt>
      <trkpt lat="43.72099" lon="4.96243">
        <ele>369.39</ele>
        <time>2026-04-16T12:20:11.318Z</time>
      </trkpt>
      <trkpt lat="43.72099" lon="4.96242">
        <ele>368.81</ele>
        <time>2026-04-16T12:20:19.921Z</time>
      </trkpt>
      <trkpt lat="43.721" lon="4.96241">
        <ele>367.23</ele>
        <time>2026-04-16T12:20:29.794Z</time>
      </trkpt>
      <trkpt lat="43.72101" lon="4.96238">
        <ele>365.64</ele>
        <time>2026-04-16T12:20:35.620Z</time>
      </trkpt>
      <trkpt lat="43.72102" lon="4.96236">
        <ele>364.63</ele>
        <time>2026-04-16T12:20:40.836Z</time>
      </trkpt>
      <trkpt lat="43.72101" lon="4.96235">
        <ele>363.45</ele>
        <time>2026-04-16T12:20:51.827Z</time>
      </trkpt>
      <trkpt lat="43.72103" lon="4.96234">
        <ele>362.93</ele>
        <time>2026-04-16T12:20:56.851Z</time>
      </trkpt>
      <trkpt lat="43.72109" lon="4.96234">
        <ele>361.98</ele>
        <time>2026-04-16T12:21:02.316Z</time>
      </trkpt>
      <trkpt lat="43.72112" lon="4.96233">
        <ele>361.92</ele>
        <time>2026-04-16T12:21:07.843Z</time>
      </trkpt>
      <trkpt lat="43.72113" lon="4.96233">
        <ele>362.89</ele>
        <time>2026-04-16T12:21:12.900Z</time>
      </trkpt>
      <trkpt lat="43.72111" lon="4.96229">
        <ele>362.22</ele>
        <time>2026-04-16T12:21:18.139Z</time>
      </trkpt>
      <trkpt lat="43.7211" lon="4.96226">
        <ele>360.3</ele>
        <time>2026-04-16T12:21:23.620Z</time>
      </trkpt>
      <trkpt lat="43.72111" lon="4.96226">
        <ele>359.78</ele>
        <time>2026-04-16T12:21:28.637Z</time>
      </trkpt>
      <trkpt lat="43.72112" lon="4.96223">
        <ele>359.1</ele>
        <time>2026-04-16T12:21:34.419Z</time>
      </trkpt>
      <trkpt lat="43.72112" lon="4.96217">
        <ele>358.73</ele>
        <time>2026-04-16T12:21:39.700Z</time>
      </trkpt>
      <trkpt lat="43.72111" lon="4.96211">
        <ele>358.26</ele>
        <time>2026-04-16T12:21:45.241Z</time>
      </trkpt>
      <trkpt lat="43.72111" lon="4.96209">
        <ele>356.89</ele>
        <time>2026-04-16T12:21:50.433Z</time>
      </trkpt>
      <trkpt lat="43.72112" lon="4.96207">
        <ele>355.72</ele>
        <time>2026-04-16T12:21:59.639Z</time>
      </trkpt>
      <trkpt lat="43.72111" lon="4.96203">
        <ele>354.88</ele>
        <time>2026-04-16T12:22:04.718Z</time>
      </trkpt>
      <trkpt lat="43.72112" lon="4.96201">
        <ele>353.96</ele>
        <time>2026-04-16T12:22:09.759Z</time>
      </trkpt>
      <trkpt lat="43.72114" lon="4.96189">
        <ele>353.05</ele>
        <time>2026-04-16T12:22:14.859Z</time>
      </trkpt>
      <trkpt lat="43.72116" lon="4.96177">
        <ele>352.35</ele>
        <time>2026-04-16T12:22:20.276Z</time>
      </trkpt>
      <trkpt lat="43.72119" lon="4.96169">
        <ele>352.5</ele>
        <time>2026-04-16T12:22:25.460Z</time>
      </trkpt>
      <trkpt lat="43.72122" lon="4.96165">
        <ele>351.55</ele>
        <time>2026-04-16T12:22:30.864Z</time>
      </trkpt>
      <trkpt lat="43.72121" lon="4.96158">
        <ele>350.91</ele>
        <time>2026-04-16T12:22:36.355Z</time>
      </trkpt>
      <trkpt lat="43.7212" lon="4.96155">
        <ele>351.54</ele>
        <time>2026-04-16T12:22:41.700Z</time>
      </trkpt>
      <trkpt lat="43.72124" lon="4.9616">
        <ele>351.57</ele>
        <time>2026-04-16T12:22:46.741Z</time>
      </trkpt>
      <trkpt lat="43.72127" lon="4.96164">
        <ele>350.75</ele>
        <time>2026-04-16T12:22:51.887Z</time>
      </trkpt>
      <trkpt lat="43.72131" lon="4.96161">
        <ele>350.12</ele>
        <time>2026-04-16T12:22:57.501Z</time>
      </trkpt>
      <trkpt lat="43.72133" lon="4.96159">
        <ele>348.98</ele>
        <time>2026-04-16T12:23:02.836Z</time>
      </trkpt>
      <trkpt lat="43.72134" lon="4.96159">
        <ele>348.44</ele>
        <time>2026-04-16T12:23:08.396Z</time>
      </trkpt>
      <trkpt lat="43.72134" lon="4.96157">
        <ele>346.47</ele>
        <time>2026-04-16T12:23:16.345Z</time>
      </trkpt>
      <trkpt lat="43.72139" lon="4.96151">
        <ele>346.29</ele>
        <time>2026-04-16T12:23:21.437Z</time>
      </trkpt>
      <trkpt lat="43.72142" lon="4.96145">
        <ele>345.89</ele>
        <time>2026-04-16T12:23:26.896Z</time>
      </trkpt>
      <trkpt lat="43.72144" lon="4.96138">
        <ele>345.1</ele>
        <time>2026-04-16T12:23:32.585Z</time>
      </trkpt>
      <trkpt lat="43.72146" lon="4.96133">
        <ele>344.45</ele>
        <time>2026-04-16T12:23:37.837Z</time>
      </trkpt>
      <trkpt lat="43.72149" lon="4.96127">
        <ele>343.85</ele>
        <time>2026-04-16T12:23:42.931Z</time>
      </trkpt>
      <trkpt lat="43.72151" lon="4.9612">
        <ele>343.44</ele>
        <time>2026-04-16T12:23:48.739Z</time>
      </trkpt>
      <trkpt lat="43.72152" lon="4.96111">
        <ele>342.1</ele>
        <time>2026-04-16T12:23:54.680Z</time>
      </trkpt>
      <trkpt lat="43.72153" lon="4.96105">
        <ele>341.17</ele>
        <time>2026-04-16T12:23:59.855Z</time>
      </trkpt>
      <trkpt lat="43.72156" lon="4.96102">
        <ele>339.89</ele>
        <time>2026-04-16T12:24:04.883Z</time>
      </trkpt>
      <trkpt lat="43.72159" lon="4.96098">
        <ele>339.15</ele>
        <time>2026-04-16T12:24:09.899Z</time>
      </trkpt>
      <trkpt lat="43.72161" lon="4.96093">
        <ele>338.31</ele>
        <time>2026-04-16T12:24:14.915Z</time>
      </trkpt>
      <trkpt lat="43.72161" lon="4.96088">
        <ele>337.75</ele>
        <time>2026-04-16T12:24:20.898Z</time>
      </trkpt>
      <trkpt lat="43.72161" lon="4.96081">
        <ele>336.41</ele>
        <time>2026-04-16T12:24:25.915Z</time>
      </trkpt>
      <trkpt lat="43.7216" lon="4.96082">
        <ele>335.14</ele>
        <time>2026-04-16T12:24:30.930Z</time>
      </trkpt>
      <trkpt lat="43.7216" lon="4.96077">
        <ele>334.88</ele>
        <time>2026-04-16T12:24:36.715Z</time>
      </trkpt>
      <trkpt lat="43.72159" lon="4.96068">
        <ele>334.45</ele>
        <time>2026-04-16T12:24:41.920Z</time>
      </trkpt>
      <trkpt lat="43.72157" lon="4.9606">
        <ele>334.06</ele>
        <time>2026-04-16T12:24:47.289Z</time>
      </trkpt>
      <trkpt lat="43.72158" lon="4.96055">
        <ele>333.38</ele>
        <time>2026-04-16T12:24:52.746Z</time>
      </trkpt>
      <trkpt lat="43.72157" lon="4.96052">
        <ele>332.63</ele>
        <time>2026-04-16T12:24:57.886Z</time>
      </trkpt>
      <trkpt lat="43.72155" lon="4.96048">
        <ele>331.91</ele>
        <time>2026-04-16T12:25:03.373Z</time>
      </trkpt>
      <trkpt lat="43.72156" lon="4.96041">
        <ele>332.01</ele>
        <time>2026-04-16T12:25:08.656Z</time>
      </trkpt>
      <trkpt lat="43.72158" lon="4.96035">
        <ele>332.67</ele>
        <time>2026-04-16T12:25:13.826Z</time>
      </trkpt>
      <trkpt lat="43.72158" lon="4.96027">
        <ele>333.1</ele>
        <time>2026-04-16T12:25:19.628Z</time>
      </trkpt>
      <trkpt lat="43.72157" lon="4.96023">
        <ele>332.35</ele>
        <time>2026-04-16T12:25:24.713Z</time>
      </trkpt>
      <trkpt lat="43.72158" lon="4.96022">
        <ele>331.93</ele>
        <time>2026-04-16T12:25:29.939Z</time>
      </trkpt>
      <trkpt lat="43.72157" lon="4.96023">
        <ele>331.93</ele>
        <time>2026-04-16T12:25:35.914Z</time>
      </trkpt>
      <trkpt lat="43.72157" lon="4.96024">
        <ele>332.3</ele>
        <time>2026-04-16T12:25:43.917Z</time>
      </trkpt>
      <trkpt lat="43.72158" lon="4.96025">
        <ele>332.24</ele>
        <time>2026-04-16T12:25:49.833Z</time>
      </trkpt>
      <trkpt lat="43.72159" lon="4.96026">
        <ele>329.91</ele>
        <time>2026-04-16T12:26:00.432Z</time>
      </trkpt>
      <trkpt lat="43.7216" lon="4.96027">
        <ele>328.82</ele>
        <time>2026-04-16T12:26:12.942Z</time>
      </trkpt>
      <trkpt lat="43.7216" lon="4.96025">
        <ele>327.68</ele>
        <time>2026-04-16T12:26:24.674Z</time>
      </trkpt>
      <trkpt lat="43.72163" lon="4.96021">
        <ele>325.53</ele>
        <time>2026-04-16T12:26:29.946Z</time>
      </trkpt>
      <trkpt lat="43.72169" lon="4.96015">
        <ele>325.05</ele>
        <time>2026-04-16T12:26:35.373Z</time>
      </trkpt>
      <trkpt lat="43.72175" lon="4.96013">
        <ele>324.06</ele>
        <time>2026-04-16T12:26:40.899Z</time>
      </trkpt>
      <trkpt lat="43.72179" lon="4.96005">
        <ele>322.5</ele>
        <time>2026-04-16T12:26:46.255Z</time>
      </trkpt>
      <trkpt lat="43.72181" lon="4.95998">
        <ele>320.44</ele>
        <time>2026-04-16T12:26:51.687Z</time>
      </trkpt>
      <trkpt lat="43.7218" lon="4.95989">
        <ele>319.24</ele>
        <time>2026-04-16T12:26:56.914Z</time>
      </trkpt>
      <trkpt lat="43.72182" lon="4.95984">
        <ele>319.33</ele>
        <time>2026-04-16T12:27:02.414Z</time>
      </trkpt>
      <trkpt lat="43.72185" lon="4.95982">
        <ele>318.66</ele>
        <time>2026-04-16T12:27:07.517Z</time>
      </trkpt>
      <trkpt lat="43.72186" lon="4.9598">
        <ele>318.35</ele>
        <time>2026-04-16T12:27:12.813Z</time>
      </trkpt>
      <trkpt lat="43.72184" lon="4.95982">
        <ele>317.71</ele>
        <time>2026-04-16T12:27:17.837Z</time>
      </trkpt>
      <trkpt lat="43.72185" lon="4.95983">
        <ele>318.67</ele>
        <time>2026-04-16T12:27:43.485Z</time>
      </trkpt>
      <trkpt lat="43.72191" lon="4.95973">
        <ele>316.69</ele>
        <time>2026-04-16T12:27:48.607Z</time>
      </trkpt>
      <trkpt lat="43.72196" lon="4.95966">
        <ele>316.3</ele>
        <time>2026-04-16T12:27:53.813Z</time>
      </trkpt>
      <trkpt lat="43.72197" lon="4.95967">
        <ele>314.52</ele>
        <time>2026-04-16T12:27:59.139Z</time>
      </trkpt>
      <trkpt lat="43.72198" lon="4.95967">
        <ele>313.41</ele>
        <time>2026-04-16T12:28:04.259Z</time>
      </trkpt>
      <trkpt lat="43.72198" lon="4.95965">
        <ele>311.82</ele>
        <time>2026-04-16T12:28:09.918Z</time>
      </trkpt>
      <trkpt lat="43.72198" lon="4.95962">
        <ele>310.25</ele>
        <time>2026-04-16T12:28:15.858Z</time>
      </trkpt>
      <trkpt lat="43.72198" lon="4.95955">
        <ele>308.41</ele>
        <time>2026-04-16T12:28:21.753Z</time>
      </trkpt>
      <trkpt lat="43.722" lon="4.9595">
        <ele>306.65</ele>
        <time>2026-04-16T12:28:26.900Z</time>
      </trkpt>
      <trkpt lat="43.72202" lon="4.95947">
        <ele>305.71</ele>
        <time>2026-04-16T12:28:31.914Z</time>
      </trkpt>
      <trkpt lat="43.72207" lon="4.95945">
        <ele>304.73</ele>
        <time>2026-04-16T12:28:37.716Z</time>
      </trkpt>
      <trkpt lat="43.7221" lon="4.95946">
        <ele>303.09</ele>
        <time>2026-04-16T12:28:42.953Z</time>
      </trkpt>
      <trkpt lat="43.72211" lon="4.95942">
        <ele>301.8</ele>
        <time>2026-04-16T12:28:48.832Z</time>
      </trkpt>
      <trkpt lat="43.72213" lon="4.95938">
        <ele>300.51</ele>
        <time>2026-04-16T12:28:54.240Z</time>
      </trkpt>
      <trkpt lat="43.72213" lon="4.95933">
        <ele>299.31</ele>
        <time>2026-04-16T12:28:59.299Z</time>
      </trkpt>
      <trkpt lat="43.72215" lon="4.95929">
        <ele>299.2</ele>
        <time>2026-04-16T12:29:04.760Z</time>
      </trkpt>
      <trkpt lat="43.72218" lon="4.95923">
        <ele>298.55</ele>
        <time>2026-04-16T12:29:09.838Z</time>
      </trkpt>
      <trkpt lat="43.72221" lon="4.95924">
        <ele>298.62</ele>
        <time>2026-04-16T12:29:14.920Z</time>
      </trkpt>
      <trkpt lat="43.72224" lon="4.95928">
        <ele>300.11</ele>
        <time>2026-04-16T12:29:20.465Z</time>
      </trkpt>
      <trkpt lat="43.72227" lon="4.95928">
        <ele>300.55</ele>
        <time>2026-04-16T12:29:25.625Z</time>
      </trkpt>
      <trkpt lat="43.72229" lon="4.95926">
        <ele>303.51</ele>
        <time>2026-04-16T12:29:30.945Z</time>
      </trkpt>
      <trkpt lat="43.72228" lon="4.95918">
        <ele>304.53</ele>
        <time>2026-04-16T12:29:36.577Z</time>
      </trkpt>
      <trkpt lat="43.72227" lon="4.95913">
        <ele>304.49</ele>
        <time>2026-04-16T12:29:42.388Z</time>
      </trkpt>
      <trkpt lat="43.72227" lon="4.9591">
        <ele>305.28</ele>
        <time>2026-04-16T12:29:47.499Z</time>
      </trkpt>
      <trkpt lat="43.72229" lon="4.95908">
        <ele>305.61</ele>
        <time>2026-04-16T12:29:52.926Z</time>
      </trkpt>
      <trkpt lat="43.7223" lon="4.95903">
        <ele>306.08</ele>
        <time>2026-04-16T12:29:58.622Z</time>
      </trkpt>
      <trkpt lat="43.7223" lon="4.959">
        <ele>307.96</ele>
        <time>2026-04-16T12:30:03.918Z</time>
      </trkpt>
      <trkpt lat="43.72233" lon="4.95899">
        <ele>307.82</ele>
        <time>2026-04-16T12:30:09.787Z</time>
      </trkpt>
      <trkpt lat="43.72233" lon="4.959">
        <ele>306.93</ele>
        <time>2026-04-16T12:31:48.922Z</time>
      </trkpt>
      <trkpt lat="43.72233" lon="4.95901">
        <ele>307.36</ele>
        <time>2026-04-16T12:32:00.874Z</time>
      </trkpt>
      <trkpt lat="43.72233" lon="4.95903">
        <ele>307.27</ele>
        <time>2026-04-16T12:32:44.946Z</time>
      </trkpt>
      <trkpt lat="43.72233" lon="4.95901">
        <ele>307.11</ele>
        <time>2026-04-16T12:33:18.537Z</time>
      </trkpt>
      <trkpt lat="43.72233" lon="4.95899">
        <ele>307.79</ele>
        <time>2026-04-16T12:33:23.896Z</time>
      </trkpt>
      <trkpt lat="43.72234" lon="4.95897">
        <ele>307.93</ele>
        <time>2026-04-16T12:33:29.360Z</time>
      </trkpt>
      <trkpt lat="43.72234" lon="4.95892">
        <ele>308.03</ele>
        <time>2026-04-16T12:33:34.887Z</time>
      </trkpt>
      <trkpt lat="43.72232" lon="4.95884">
        <ele>308.45</ele>
        <time>2026-04-16T12:33:40.581Z</time>
      </trkpt>
      <trkpt lat="43.72229" lon="4.95876">
        <ele>307.73</ele>
        <time>2026-04-16T12:33:45.879Z</time>
      </trkpt>
      <trkpt lat="43.72227" lon="4.95871">
        <ele>307.9</ele>
        <time>2026-04-16T12:33:50.894Z</time>
      </trkpt>
      <trkpt lat="43.72227" lon="4.95863">
        <ele>308.01</ele>
        <time>2026-04-16T12:33:56.243Z</time>
      </trkpt>
      <trkpt lat="43.72228" lon="4.95855">
        <ele>307.27</ele>
        <time>2026-04-16T12:34:01.562Z</time>
      </trkpt>
      <trkpt lat="43.7223" lon="4.95846">
        <ele>307.27</ele>
        <time>2026-04-16T12:34:07.696Z</time>
      </trkpt>
      <trkpt lat="43.72232" lon="4.95838">
        <ele>307.04</ele>
        <time>2026-04-16T12:34:12.903Z</time>
      </trkpt>
      <trkpt lat="43.72231" lon="4.9583">
        <ele>307.35</ele>
        <time>2026-04-16T12:34:18.538Z</time>
      </trkpt>
      <trkpt lat="43.72231" lon="4.95825">
        <ele>308.11</ele>
        <time>2026-04-16T12:34:23.919Z</time>
      </trkpt>
      <trkpt lat="43.72234" lon="4.95821">
        <ele>308.8</ele>
        <time>2026-04-16T12:34:29.743Z</time>
      </trkpt>
      <trkpt lat="43.72237" lon="4.95817">
        <ele>309.19</ele>
        <time>2026-04-16T12:34:34.995Z</time>
      </trkpt>
      <trkpt lat="43.72242" lon="4.95813">
        <ele>308.67</ele>
        <time>2026-04-16T12:34:40.260Z</time>
      </trkpt>
      <trkpt lat="43.72244" lon="4.95805">
        <ele>306.69</ele>
        <time>2026-04-16T12:34:45.851Z</time>
      </trkpt>
      <trkpt lat="43.72246" lon="4.95797">
        <ele>305.21</ele>
        <time>2026-04-16T12:34:51.857Z</time>
      </trkpt>
      <trkpt lat="43.72247" lon="4.95789">
        <ele>303.95</ele>
        <time>2026-04-16T12:34:57.541Z</time>
      </trkpt>
      <trkpt lat="43.72247" lon="4.95782">
        <ele>303.24</ele>
        <time>2026-04-16T12:35:02.718Z</time>
      </trkpt>
      <trkpt lat="43.72247" lon="4.95775">
        <ele>302.52</ele>
        <time>2026-04-16T12:35:08.283Z</time>
      </trkpt>
      <trkpt lat="43.72246" lon="4.95769">
        <ele>301.91</ele>
        <time>2026-04-16T12:35:13.917Z</time>
      </trkpt>
      <trkpt lat="43.72247" lon="4.95762">
        <ele>302.45</ele>
        <time>2026-04-16T12:35:18.933Z</time>
      </trkpt>
      <trkpt lat="43.72246" lon="4.95755">
        <ele>302.47</ele>
        <time>2026-04-16T12:35:23.949Z</time>
      </trkpt>
      <trkpt lat="43.72241" lon="4.95749">
        <ele>302.72</ele>
        <time>2026-04-16T12:35:29.520Z</time>
      </trkpt>
      <trkpt lat="43.7224" lon="4.95743">
        <ele>302.76</ele>
        <time>2026-04-16T12:35:34.738Z</time>
      </trkpt>
      <trkpt lat="43.72242" lon="4.9574">
        <ele>302.33</ele>
        <time>2026-04-16T12:35:40.581Z</time>
      </trkpt>
      <trkpt lat="43.72241" lon="4.95734">
        <ele>301.39</ele>
        <time>2026-04-16T12:35:46.287Z</time>
      </trkpt>
      <trkpt lat="43.7224" lon="4.95728">
        <ele>300.74</ele>
        <time>2026-04-16T12:35:51.697Z</time>
      </trkpt>
      <trkpt lat="43.7224" lon="4.95722">
        <ele>299.6</ele>
        <time>2026-04-16T12:35:56.881Z</time>
      </trkpt>
      <trkpt lat="43.72242" lon="4.95721">
        <ele>299.64</ele>
        <time>2026-04-16T12:36:02.898Z</time>
      </trkpt>
      <trkpt lat="43.72243" lon="4.9572">
        <ele>299.69</ele>
        <time>2026-04-16T12:36:11.216Z</time>
      </trkpt>
      <trkpt lat="43.72243" lon="4.95711">
        <ele>299.26</ele>
        <time>2026-04-16T12:36:16.242Z</time>
      </trkpt>
      <trkpt lat="43.72244" lon="4.95704">
        <ele>298.9</ele>
        <time>2026-04-16T12:36:21.861Z</time>
      </trkpt>
      <trkpt lat="43.72246" lon="4.957">
        <ele>297.29</ele>
        <time>2026-04-16T12:36:27.801Z</time>
      </trkpt>
      <trkpt lat="43.72246" lon="4.95696">
        <ele>296.82</ele>
        <time>2026-04-16T12:36:33.182Z</time>
      </trkpt>
      <trkpt lat="43.72245" lon="4.95692">
        <ele>296.48</ele>
        <time>2026-04-16T12:36:38.419Z</time>
      </trkpt>
      <trkpt lat="43.72245" lon="4.95686">
        <ele>297.57</ele>
        <time>2026-04-16T12:36:43.863Z</time>
      </trkpt>
      <trkpt lat="43.72245" lon="4.95685">
        <ele>298.62</ele>
        <time>2026-04-16T12:36:49.357Z</time>
      </trkpt>
      <trkpt lat="43.72244" lon="4.95683">
        <ele>299.73</ele>
        <time>2026-04-16T12:36:54.443Z</time>
      </trkpt>
      <trkpt lat="43.72242" lon="4.95679">
        <ele>301.15</ele>
        <time>2026-04-16T12:36:59.882Z</time>
      </trkpt>
      <trkpt lat="43.72241" lon="4.95679">
        <ele>302.47</ele>
        <time>2026-04-16T12:37:05.964Z</time>
      </trkpt>
      <trkpt lat="43.7224" lon="4.95677">
        <ele>303.43</ele>
        <time>2026-04-16T12:37:11.339Z</time>
      </trkpt>
      <trkpt lat="43.7224" lon="4.95676">
        <ele>303.43</ele>
        <time>2026-04-16T12:37:19.440Z</time>
      </trkpt>
      <trkpt lat="43.72239" lon="4.95669">
        <ele>303.39</ele>
        <time>2026-04-16T12:37:24.851Z</time>
      </trkpt>
      <trkpt lat="43.7224" lon="4.95662">
        <ele>302.9</ele>
        <time>2026-04-16T12:37:29.867Z</time>
      </trkpt>
      <trkpt lat="43.7224" lon="4.95655">
        <ele>303.13</ele>
        <time>2026-04-16T12:37:35.206Z</time>
      </trkpt>
      <trkpt lat="43.72238" lon="4.95649">
        <ele>303.58</ele>
        <time>2026-04-16T12:37:40.817Z</time>
      </trkpt>
      <trkpt lat="43.72238" lon="4.95646">
        <ele>304.56</ele>
        <time>2026-04-16T12:37:45.874Z</time>
      </trkpt>
      <trkpt lat="43.72238" lon="4.95647">
        <ele>304.36</ele>
        <time>2026-04-16T12:37:51.957Z</time>
      </trkpt>
      <trkpt lat="43.72238" lon="4.95648">
        <ele>304.17</ele>
        <time>2026-04-16T12:38:06.602Z</time>
      </trkpt>
      <trkpt lat="43.72238" lon="4.95649">
        <ele>305.45</ele>
        <time>2026-04-16T12:38:27.918Z</time>
      </trkpt>
      <trkpt lat="43.72239" lon="4.9565">
        <ele>305.37</ele>
        <time>2026-04-16T12:40:21.904Z</time>
      </trkpt>
      <trkpt lat="43.72244" lon="4.9565">
        <ele>306.11</ele>
        <time>2026-04-16T12:40:27.899Z</time>
      </trkpt>
      <trkpt lat="43.72245" lon="4.95654">
        <ele>305.03</ele>
        <time>2026-04-16T12:40:32.913Z</time>
      </trkpt>
      <trkpt lat="43.72242" lon="4.95652">
        <ele>305.66</ele>
        <time>2026-04-16T12:40:38.891Z</time>
      </trkpt>
      <trkpt lat="43.7224" lon="4.95651">
        <ele>305.03</ele>
        <time>2026-04-16T12:40:43.906Z</time>
      </trkpt>
      <trkpt lat="43.72239" lon="4.95651">
        <ele>305.02</ele>
        <time>2026-04-16T12:40:49.883Z</time>
      </trkpt>
      <trkpt lat="43.72238" lon="4.95651">
        <ele>306.99</ele>
        <time>2026-04-16T12:41:06.877Z</time>
      </trkpt>
      <trkpt lat="43.72237" lon="4.9565">
        <ele>304.8</ele>
        <time>2026-04-16T12:41:14.881Z</time>
      </trkpt>
      <trkpt lat="43.72237" lon="4.95649">
        <ele>306</ele>
        <time>2026-04-16T12:41:22.399Z</time>
      </trkpt>
      <trkpt lat="43.72237" lon="4.95645">
        <ele>306.46</ele>
        <time>2026-04-16T12:41:27.780Z</time>
      </trkpt>
      <trkpt lat="43.72238" lon="4.9564">
        <ele>306.31</ele>
        <time>2026-04-16T12:41:33.161Z</time>
      </trkpt>
      <trkpt lat="43.72237" lon="4.95636">
        <ele>305.75</ele>
        <time>2026-04-16T12:41:38.301Z</time>
      </trkpt>
      <trkpt lat="43.72237" lon="4.95633">
        <ele>306.25</ele>
        <time>2026-04-16T12:41:43.540Z</time>
      </trkpt>
      <trkpt lat="43.72235" lon="4.9562">
        <ele>308.26</ele>
        <time>2026-04-16T12:41:48.900Z</time>
      </trkpt>
      <trkpt lat="43.72235" lon="4.95607">
        <ele>308.33</ele>
        <time>2026-04-16T12:41:54.378Z</time>
      </trkpt>
      <trkpt lat="43.72234" lon="4.95597">
        <ele>308.47</ele>
        <time>2026-04-16T12:41:59.623Z</time>
      </trkpt>
      <trkpt lat="43.72232" lon="4.95589">
        <ele>309.64</ele>
        <time>2026-04-16T12:42:04.825Z</time>
      </trkpt>
      <trkpt lat="43.72228" lon="4.95583">
        <ele>309.86</ele>
        <time>2026-04-16T12:42:09.880Z</time>
      </trkpt>
      <trkpt lat="43.72225" lon="4.95582">
        <ele>310.98</ele>
        <time>2026-04-16T12:42:14.963Z</time>
      </trkpt>
      <trkpt lat="43.72223" lon="4.95578">
        <ele>311.74</ele>
        <time>2026-04-16T12:42:20.463Z</time>
      </trkpt>
      <trkpt lat="43.72222" lon="4.95573">
        <ele>312.63</ele>
        <time>2026-04-16T12:42:25.941Z</time>
      </trkpt>
      <trkpt lat="43.72222" lon="4.95567">
        <ele>313.69</ele>
        <time>2026-04-16T12:42:31.544Z</time>
      </trkpt>
      <trkpt lat="43.72221" lon="4.95563">
        <ele>312.52</ele>
        <time>2026-04-16T12:42:36.945Z</time>
      </trkpt>
      <trkpt lat="43.7222" lon="4.95559">
        <ele>312.44</ele>
        <time>2026-04-16T12:42:42.100Z</time>
      </trkpt>
      <trkpt lat="43.7222" lon="4.95555">
        <ele>313.8</ele>
        <time>2026-04-16T12:42:47.781Z</time>
      </trkpt>
      <trkpt lat="43.72218" lon="4.95552">
        <ele>314</ele>
        <time>2026-04-16T12:42:52.921Z</time>
      </trkpt>
      <trkpt lat="43.72217" lon="4.95551">
        <ele>314.68</ele>
        <time>2026-04-16T12:42:58.929Z</time>
      </trkpt>
      <trkpt lat="43.72216" lon="4.9555">
        <ele>314.94</ele>
        <time>2026-04-16T12:43:05.717Z</time>
      </trkpt>
      <trkpt lat="43.72212" lon="4.95545">
        <ele>316.92</ele>
        <time>2026-04-16T12:43:11.782Z</time>
      </trkpt>
      <trkpt lat="43.7221" lon="4.95542">
        <ele>317.67</ele>
        <time>2026-04-16T12:43:16.858Z</time>
      </trkpt>
      <trkpt lat="43.7221" lon="4.95541">
        <ele>317.69</ele>
        <time>2026-04-16T12:43:22.180Z</time>
      </trkpt>
      <trkpt lat="43.7221" lon="4.95538">
        <ele>317.57</ele>
        <time>2026-04-16T12:43:27.940Z</time>
      </trkpt>
      <trkpt lat="43.72209" lon="4.95537">
        <ele>316.68</ele>
        <time>2026-04-16T12:43:36.559Z</time>
      </trkpt>
      <trkpt lat="43.72208" lon="4.95532">
        <ele>316.96</ele>
        <time>2026-04-16T12:43:41.964Z</time>
      </trkpt>
      <trkpt lat="43.72206" lon="4.95525">
        <ele>316.52</ele>
        <time>2026-04-16T12:43:47.863Z</time>
      </trkpt>
      <trkpt lat="43.72205" lon="4.95524">
        <ele>315.61</ele>
        <time>2026-04-16T12:44:01.956Z</time>
      </trkpt>
      <trkpt lat="43.72205" lon="4.95521">
        <ele>315.27</ele>
        <time>2026-04-16T12:44:07.867Z</time>
      </trkpt>
      <trkpt lat="43.72203" lon="4.95509">
        <ele>315.84</ele>
        <time>2026-04-16T12:44:12.884Z</time>
      </trkpt>
      <trkpt lat="43.722" lon="4.95498">
        <ele>315.81</ele>
        <time>2026-04-16T12:44:17.899Z</time>
      </trkpt>
      <trkpt lat="43.72196" lon="4.95487">
        <ele>315.1</ele>
        <time>2026-04-16T12:44:23.958Z</time>
      </trkpt>
      <trkpt lat="43.72191" lon="4.95483">
        <ele>314.7</ele>
        <time>2026-04-16T12:44:29.562Z</time>
      </trkpt>
      <trkpt lat="43.72187" lon="4.9548">
        <ele>314.39</ele>
        <time>2026-04-16T12:44:34.641Z</time>
      </trkpt>
      <trkpt lat="43.72186" lon="4.95477">
        <ele>314.17</ele>
        <time>2026-04-16T12:44:39.884Z</time>
      </trkpt>
      <trkpt lat="43.72187" lon="4.95477">
        <ele>313.5</ele>
        <time>2026-04-16T12:44:47.887Z</time>
      </trkpt>
      <trkpt lat="43.72187" lon="4.95476">
        <ele>313.53</ele>
        <time>2026-04-16T12:45:10.922Z</time>
      </trkpt>
      <trkpt lat="43.72186" lon="4.95475">
        <ele>313.72</ele>
        <time>2026-04-16T12:45:16.677Z</time>
      </trkpt>
      <trkpt lat="43.72186" lon="4.95474">
        <ele>313.44</ele>
        <time>2026-04-16T12:45:21.930Z</time>
      </trkpt>
      <trkpt lat="43.72185" lon="4.95472">
        <ele>313.15</ele>
        <time>2026-04-16T12:45:28.957Z</time>
      </trkpt>
      <trkpt lat="43.72184" lon="4.95471">
        <ele>313.21</ele>
        <time>2026-04-16T12:45:34.950Z</time>
      </trkpt>
      <trkpt lat="43.72183" lon="4.9547">
        <ele>315.5</ele>
        <time>2026-04-16T12:45:42.716Z</time>
      </trkpt>
      <trkpt lat="43.72182" lon="4.95463">
        <ele>313.71</ele>
        <time>2026-04-16T12:45:48.301Z</time>
      </trkpt>
      <trkpt lat="43.72176" lon="4.95452">
        <ele>311.89</ele>
        <time>2026-04-16T12:45:53.945Z</time>
      </trkpt>
      <trkpt lat="43.72172" lon="4.95442">
        <ele>311.02</ele>
        <time>2026-04-16T12:45:59.921Z</time>
      </trkpt>
      <trkpt lat="43.72167" lon="4.95438">
        <ele>311.17</ele>
        <time>2026-04-16T12:46:04.940Z</time>
      </trkpt>
      <trkpt lat="43.72162" lon="4.95434">
        <ele>312.22</ele>
        <time>2026-04-16T12:46:09.953Z</time>
      </trkpt>
      <trkpt lat="43.72158" lon="4.95429">
        <ele>312.64</ele>
        <time>2026-04-16T12:46:15.463Z</time>
      </trkpt>
      <trkpt lat="43.72156" lon="4.95421">
        <ele>313.33</ele>
        <time>2026-04-16T12:46:20.944Z</time>
      </trkpt>
      <trkpt lat="43.72154" lon="4.95413">
        <ele>313.09</ele>
        <time>2026-04-16T12:46:26.683Z</time>
      </trkpt>
      <trkpt lat="43.72151" lon="4.95408">
        <ele>312.65</ele>
        <time>2026-04-16T12:46:31.903Z</time>
      </trkpt>
      <trkpt lat="43.7215" lon="4.95404">
        <ele>311.89</ele>
        <time>2026-04-16T12:46:36.917Z</time>
      </trkpt>
      <trkpt lat="43.72148" lon="4.95405">
        <ele>311.31</ele>
        <time>2026-04-16T12:46:42.426Z</time>
      </trkpt>
      <trkpt lat="43.72147" lon="4.95399">
        <ele>311.25</ele>
        <time>2026-04-16T12:46:47.600Z</time>
      </trkpt>
      <trkpt lat="43.72147" lon="4.9539">
        <ele>310.87</ele>
        <time>2026-04-16T12:46:52.626Z</time>
      </trkpt>
      <trkpt lat="43.72145" lon="4.95384">
        <ele>310.51</ele>
        <time>2026-04-16T12:46:57.701Z</time>
      </trkpt>
      <trkpt lat="43.72148" lon="4.9538">
        <ele>309.47</ele>
        <time>2026-04-16T12:47:02.906Z</time>
      </trkpt>
      <trkpt lat="43.72149" lon="4.95375">
        <ele>309.18</ele>
        <time>2026-04-16T12:47:08.466Z</time>
      </trkpt>
      <trkpt lat="43.72151" lon="4.95374">
        <ele>308.03</ele>
        <time>2026-04-16T12:47:13.619Z</time>
      </trkpt>
      <trkpt lat="43.72151" lon="4.95372">
        <ele>304.83</ele>
        <time>2026-04-16T12:47:29.804Z</time>
      </trkpt>
      <trkpt lat="43.72153" lon="4.95369">
        <ele>305.36</ele>
        <time>2026-04-16T12:47:35.637Z</time>
      </trkpt>
      <trkpt lat="43.72158" lon="4.9536">
        <ele>303.85</ele>
        <time>2026-04-16T12:47:41.400Z</time>
      </trkpt>
      <trkpt lat="43.72163" lon="4.95354">
        <ele>302.5</ele>
        <time>2026-04-16T12:47:46.641Z</time>
      </trkpt>
      <trkpt lat="43.72164" lon="4.95351">
        <ele>301.93</ele>
        <time>2026-04-16T12:47:51.736Z</time>
      </trkpt>
      <trkpt lat="43.72159" lon="4.95344">
        <ele>301.23</ele>
        <time>2026-04-16T12:47:57.705Z</time>
      </trkpt>
      <trkpt lat="43.72159" lon="4.95341">
        <ele>299.72</ele>
        <time>2026-04-16T12:48:02.940Z</time>
      </trkpt>
      <trkpt lat="43.7216" lon="4.95336">
        <ele>298.96</ele>
        <time>2026-04-16T12:48:08.439Z</time>
      </trkpt>
      <trkpt lat="43.72162" lon="4.95331">
        <ele>297.38</ele>
        <time>2026-04-16T12:48:13.524Z</time>
      </trkpt>
      <trkpt lat="43.72161" lon="4.95325">
        <ele>295.65</ele>
        <time>2026-04-16T12:48:18.798Z</time>
      </trkpt>
      <trkpt lat="43.72163" lon="4.95319">
        <ele>294.07</ele>
        <time>2026-04-16T12:48:23.881Z</time>
      </trkpt>
      <trkpt lat="43.72164" lon="4.95313">
        <ele>292.69</ele>
        <time>2026-04-16T12:48:28.998Z</time>
      </trkpt>
      <trkpt lat="43.72162" lon="4.95305">
        <ele>293.06</ele>
        <time>2026-04-16T12:48:34.873Z</time>
      </trkpt>
      <trkpt lat="43.72163" lon="4.95306">
        <ele>291.12</ele>
        <time>2026-04-16T12:48:40.267Z</time>
      </trkpt>
      <trkpt lat="43.72164" lon="4.95305">
        <ele>290.03</ele>
        <time>2026-04-16T12:48:46.256Z</time>
      </trkpt>
      <trkpt lat="43.72163" lon="4.95299">
        <ele>290.56</ele>
        <time>2026-04-16T12:48:51.382Z</time>
      </trkpt>
      <trkpt lat="43.72162" lon="4.95294">
        <ele>289.71</ele>
        <time>2026-04-16T12:48:56.963Z</time>
      </trkpt>
      <trkpt lat="43.72163" lon="4.95289">
        <ele>288.38</ele>
        <time>2026-04-16T12:49:02.658Z</time>
      </trkpt>
      <trkpt lat="43.72165" lon="4.95284">
        <ele>286.53</ele>
        <time>2026-04-16T12:49:07.800Z</time>
      </trkpt>
      <trkpt lat="43.72169" lon="4.9528">
        <ele>284.96</ele>
        <time>2026-04-16T12:49:13.222Z</time>
      </trkpt>
      <trkpt lat="43.72169" lon="4.95272">
        <ele>283.64</ele>
        <time>2026-04-16T12:49:18.947Z</time>
      </trkpt>
      <trkpt lat="43.72169" lon="4.95274">
        <ele>283.21</ele>
        <time>2026-04-16T12:49:23.962Z</time>
      </trkpt>
      <trkpt lat="43.72169" lon="4.95275">
        <ele>283.38</ele>
        <time>2026-04-16T12:49:31.859Z</time>
      </trkpt>
      <trkpt lat="43.72169" lon="4.95275">
        <ele>285.8</ele>
        <time>2026-04-16T12:49:47.316Z</time>
      </trkpt>
      <trkpt lat="43.72176" lon="4.95273">
        <ele>282.66</ele>
        <time>2026-04-16T12:49:52.822Z</time>
      </trkpt>
      <trkpt lat="43.72178" lon="4.95273">
        <ele>280.54</ele>
        <time>2026-04-16T12:49:58.815Z</time>
      </trkpt>
      <trkpt lat="43.72177" lon="4.95273">
        <ele>279.57</ele>
        <time>2026-04-16T12:50:04.941Z</time>
      </trkpt>
      <trkpt lat="43.72178" lon="4.95272">
        <ele>278.6</ele>
        <time>2026-04-16T12:50:10.088Z</time>
      </trkpt>
      <trkpt lat="43.72179" lon="4.95269">
        <ele>277.08</ele>
        <time>2026-04-16T12:50:15.465Z</time>
      </trkpt>
      <trkpt lat="43.72181" lon="4.95262">
        <ele>275.92</ele>
        <time>2026-04-16T12:50:20.545Z</time>
      </trkpt>
      <trkpt lat="43.72182" lon="4.95258">
        <ele>274.24</ele>
        <time>2026-04-16T12:50:25.906Z</time>
      </trkpt>
      <trkpt lat="43.7219" lon="4.95251">
        <ele>274.2</ele>
        <time>2026-04-16T12:50:31.624Z</time>
      </trkpt>
      <trkpt lat="43.72194" lon="4.95247">
        <ele>271.95</ele>
        <time>2026-04-16T12:50:36.781Z</time>
      </trkpt>
      <trkpt lat="43.722" lon="4.95245">
        <ele>270.28</ele>
        <time>2026-04-16T12:50:41.864Z</time>
      </trkpt>
      <trkpt lat="43.72207" lon="4.95244">
        <ele>268.96</ele>
        <time>2026-04-16T12:50:46.906Z</time>
      </trkpt>
      <trkpt lat="43.72211" lon="4.95239">
        <ele>267.06</ele>
        <time>2026-04-16T12:50:52.961Z</time>
      </trkpt>
      <trkpt lat="43.72211" lon="4.9524">
        <ele>267.63</ele>
        <time>2026-04-16T12:50:58.737Z</time>
      </trkpt>
      <trkpt lat="43.72213" lon="4.9524">
        <ele>267.34</ele>
        <time>2026-04-16T12:51:04.599Z</time>
      </trkpt>
      <trkpt lat="43.72214" lon="4.95238">
        <ele>266.01</ele>
        <time>2026-04-16T12:51:09.929Z</time>
      </trkpt>
      <trkpt lat="43.72215" lon="4.95236">
        <ele>264.88</ele>
        <time>2026-04-16T12:51:15.401Z</time>
      </trkpt>
      <trkpt lat="43.72215" lon="4.95234">
        <ele>263.67</ele>
        <time>2026-04-16T12:51:20.420Z</time>
      </trkpt>
      <trkpt lat="43.72218" lon="4.95232">
        <ele>263.25</ele>
        <time>2026-04-16T12:51:25.461Z</time>
      </trkpt>
      <trkpt lat="43.72222" lon="4.95228">
        <ele>262.97</ele>
        <time>2026-04-16T12:51:30.501Z</time>
      </trkpt>
      <trkpt lat="43.72221" lon="4.95229">
        <ele>260.62</ele>
        <time>2026-04-16T12:51:36.928Z</time>
      </trkpt>
      <trkpt lat="43.72221" lon="4.95228">
        <ele>259.51</ele>
        <time>2026-04-16T12:51:46.662Z</time>
      </trkpt>
      <trkpt lat="43.72221" lon="4.95226">
        <ele>258.1</ele>
        <time>2026-04-16T12:51:51.868Z</time>
      </trkpt>
      <trkpt lat="43.72221" lon="4.95225">
        <ele>257.61</ele>
        <time>2026-04-16T12:51:59.643Z</time>
      </trkpt>
      <trkpt lat="43.7222" lon="4.95224">
        <ele>256.27</ele>
        <time>2026-04-16T12:52:04.887Z</time>
      </trkpt>
      <trkpt lat="43.72222" lon="4.9522">
        <ele>254.82</ele>
        <time>2026-04-16T12:52:09.902Z</time>
      </trkpt>
      <trkpt lat="43.72227" lon="4.95214">
        <ele>253.66</ele>
        <time>2026-04-16T12:52:15.943Z</time>
      </trkpt>
      <trkpt lat="43.72226" lon="4.95212">
        <ele>252.67</ele>
        <time>2026-04-16T12:52:21.960Z</time>
      </trkpt>
      <trkpt lat="43.72227" lon="4.9521">
        <ele>253.12</ele>
        <time>2026-04-16T12:52:27.748Z</time>
      </trkpt>
      <trkpt lat="43.72228" lon="4.95209">
        <ele>251.43</ele>
        <time>2026-04-16T12:52:35.940Z</time>
      </trkpt>
      <trkpt lat="43.72227" lon="4.95205">
        <ele>249.63</ele>
        <time>2026-04-16T12:52:41.377Z</time>
      </trkpt>
      <trkpt lat="43.72228" lon="4.95202">
        <ele>248.7</ele>
        <time>2026-04-16T12:52:46.598Z</time>
      </trkpt>
      <trkpt lat="43.72232" lon="4.95197">
        <ele>247.94</ele>
        <time>2026-04-16T12:52:51.947Z</time>
      </trkpt>
      <trkpt lat="43.72238" lon="4.9519">
        <ele>247.4</ele>
        <time>2026-04-16T12:52:57.841Z</time>
      </trkpt>
      <trkpt lat="43.72239" lon="4.95185">
        <ele>245.85</ele>
        <time>2026-04-16T12:53:02.896Z</time>
      </trkpt>
      <trkpt lat="43.72238" lon="4.95181">
        <ele>244.63</ele>
        <time>2026-04-16T12:53:08.099Z</time>
      </trkpt>
      <trkpt lat="43.72239" lon="4.95176">
        <ele>243.86</ele>
        <time>2026-04-16T12:53:13.535Z</time>
      </trkpt>
      <trkpt lat="43.72243" lon="4.95173">
        <ele>242.58</ele>
        <time>2026-04-16T12:53:18.600Z</time>
      </trkpt>
      <trkpt lat="43.72244" lon="4.95168">
        <ele>242.14</ele>
        <time>2026-04-16T12:53:23.680Z</time>
      </trkpt>
      <trkpt lat="43.72243" lon="4.95168">
        <ele>240.68</ele>
        <time>2026-04-16T12:53:35.366Z</time>
      </trkpt>
      <trkpt lat="43.72243" lon="4.95167">
        <ele>238.85</ele>
        <time>2026-04-16T12:53:45.937Z</time>
      </trkpt>
      <trkpt lat="43.72243" lon="4.95165">
        <ele>238</ele>
        <time>2026-04-16T12:53:50.978Z</time>
      </trkpt>
      <trkpt lat="43.72243" lon="4.95159">
        <ele>237.78</ele>
        <time>2026-04-16T12:53:56.821Z</time>
      </trkpt>
      <trkpt lat="43.72244" lon="4.95158">
        <ele>236.54</ele>
        <time>2026-04-16T12:54:03.819Z</time>
      </trkpt>
      <trkpt lat="43.72245" lon="4.95152">
        <ele>235.33</ele>
        <time>2026-04-16T12:54:08.884Z</time>
      </trkpt>
      <trkpt lat="43.72244" lon="4.95146">
        <ele>234.35</ele>
        <time>2026-04-16T12:54:13.901Z</time>
      </trkpt>
      <trkpt lat="43.72244" lon="4.9514">
        <ele>233.85</ele>
        <time>2026-04-16T12:54:19.697Z</time>
      </trkpt>
      <trkpt lat="43.72244" lon="4.95137">
        <ele>233.48</ele>
        <time>2026-04-16T12:54:24.761Z</time>
      </trkpt>
      <trkpt lat="43.72245" lon="4.95134">
        <ele>232.24</ele>
        <time>2026-04-16T12:54:29.883Z</time>
      </trkpt>
      <trkpt lat="43.72244" lon="4.95131">
        <ele>231.2</ele>
        <time>2026-04-16T12:54:34.922Z</time>
      </trkpt>
      <trkpt lat="43.72245" lon="4.95125">
        <ele>230.16</ele>
        <time>2026-04-16T12:54:40.422Z</time>
      </trkpt>
      <trkpt lat="43.72249" lon="4.95119">
        <ele>229.36</ele>
        <time>2026-04-16T12:54:45.774Z</time>
      </trkpt>
      <trkpt lat="43.7225" lon="4.95113">
        <ele>229.5</ele>
        <time>2026-04-16T12:54:50.930Z</time>
      </trkpt>
      <trkpt lat="43.72253" lon="4.95108">
        <ele>228.86</ele>
        <time>2026-04-16T12:54:55.945Z</time>
      </trkpt>
      <trkpt lat="43.72252" lon="4.95099">
        <ele>227.39</ele>
        <time>2026-04-16T12:55:01.826Z</time>
      </trkpt>
      <trkpt lat="43.72249" lon="4.95094">
        <ele>226.97</ele>
        <time>2026-04-16T12:55:07.230Z</time>
      </trkpt>
      <trkpt lat="43.72248" lon="4.95087">
        <ele>225.55</ele>
        <time>2026-04-16T12:55:12.691Z</time>
      </trkpt>
      <trkpt lat="43.72248" lon="4.95081">
        <ele>226</ele>
        <time>2026-04-16T12:55:17.928Z</time>
      </trkpt>
      <trkpt lat="43.72248" lon="4.95074">
        <ele>226.36</ele>
        <time>2026-04-16T12:55:23.693Z</time>
      </trkpt>
      <trkpt lat="43.72248" lon="4.95067">
        <ele>226.02</ele>
        <time>2026-04-16T12:55:28.693Z</time>
      </trkpt>
      <trkpt lat="43.7225" lon="4.95061">
        <ele>224.95</ele>
        <time>2026-04-16T12:55:34.008Z</time>
      </trkpt>
      <trkpt lat="43.72247" lon="4.95055">
        <ele>223.61</ele>
        <time>2026-04-16T12:55:39.710Z</time>
      </trkpt>
      <trkpt lat="43.72247" lon="4.95051">
        <ele>222.03</ele>
        <time>2026-04-16T12:55:44.849Z</time>
      </trkpt>
      <trkpt lat="43.72246" lon="4.95052">
        <ele>221.54</ele>
        <time>2026-04-16T12:55:49.942Z</time>
      </trkpt>
      <trkpt lat="43.72246" lon="4.95053">
        <ele>220.39</ele>
        <time>2026-04-16T12:55:55.229Z</time>
      </trkpt>
      <trkpt lat="43.72247" lon="4.95052">
        <ele>219.09</ele>
        <time>2026-04-16T12:56:01.310Z</time>
      </trkpt>
      <trkpt lat="43.72245" lon="4.95044">
        <ele>218.12</ele>
        <time>2026-04-16T12:56:06.911Z</time>
      </trkpt>
      <trkpt lat="43.7224" lon="4.95037">
        <ele>217.48</ele>
        <time>2026-04-16T12:56:12.887Z</time>
      </trkpt>
      <trkpt lat="43.72236" lon="4.9503">
        <ele>217.38</ele>
        <time>2026-04-16T12:56:18.156Z</time>
      </trkpt>
      <trkpt lat="43.72234" lon="4.95024">
        <ele>216.77</ele>
        <time>2026-04-16T12:56:23.552Z</time>
      </trkpt>
      <trkpt lat="43.72232" lon="4.95019">
        <ele>215.95</ele>
        <time>2026-04-16T12:56:28.894Z</time>
      </trkpt>
      <trkpt lat="43.72234" lon="4.95013">
        <ele>214.93</ele>
        <time>2026-04-16T12:56:34.490Z</time>
      </trkpt>
      <trkpt lat="43.72235" lon="4.95011">
        <ele>214.11</ele>
        <time>2026-04-16T12:56:39.728Z</time>
      </trkpt>
      <trkpt lat="43.72235" lon="4.95007">
        <ele>214.35</ele>
        <time>2026-04-16T12:56:45.073Z</time>
      </trkpt>
      <trkpt lat="43.72234" lon="4.95008">
        <ele>214.31</ele>
        <time>2026-04-16T12:56:50.877Z</time>
      </trkpt>
      <trkpt lat="43.72235" lon="4.95007">
        <ele>213.76</ele>
        <time>2026-04-16T12:56:58.394Z</time>
      </trkpt>
      <trkpt lat="43.72236" lon="4.94999">
        <ele>212.9</ele>
        <time>2026-04-16T12:57:03.895Z</time>
      </trkpt>
      <trkpt lat="43.72233" lon="4.94991">
        <ele>211.62</ele>
        <time>2026-04-16T12:57:09.332Z</time>
      </trkpt>
      <trkpt lat="43.72231" lon="4.9499">
        <ele>210.64</ele>
        <time>2026-04-16T12:57:14.887Z</time>
      </trkpt>
      <trkpt lat="43.72232" lon="4.94989">
        <ele>209.53</ele>
        <time>2026-04-16T12:57:24.761Z</time>
      </trkpt>
      <trkpt lat="43.72233" lon="4.94979">
        <ele>207.92</ele>
        <time>2026-04-16T12:57:29.836Z</time>
      </trkpt>
      <trkpt lat="43.72234" lon="4.94974">
        <ele>206.78</ele>
        <time>2026-04-16T12:57:34.878Z</time>
      </trkpt>
      <trkpt lat="43.72229" lon="4.94971">
        <ele>206.28</ele>
        <time>2026-04-16T12:57:40.864Z</time>
      </trkpt>
      <trkpt lat="43.72228" lon="4.94969">
        <ele>206.46</ele>
        <time>2026-04-16T12:57:46.184Z</time>
      </trkpt>
      <trkpt lat="43.72225" lon="4.94963">
        <ele>205.88</ele>
        <time>2026-04-16T12:57:51.359Z</time>
      </trkpt>
      <trkpt lat="43.72228" lon="4.94957">
        <ele>205.03</ele>
        <time>2026-04-16T12:57:56.900Z</time>
      </trkpt>
      <trkpt lat="43.72232" lon="4.94954">
        <ele>204.64</ele>
        <time>2026-04-16T12:58:01.907Z</time>
      </trkpt>
      <trkpt lat="43.72234" lon="4.94947">
        <ele>205.1</ele>
        <time>2026-04-16T12:58:06.923Z</time>
      </trkpt>
      <trkpt lat="43.7224" lon="4.94945">
        <ele>204.25</ele>
        <time>2026-04-16T12:58:11.939Z</time>
      </trkpt>
      <trkpt lat="43.72241" lon="4.94944">
        <ele>202.31</ele>
        <time>2026-04-16T12:58:17.514Z</time>
      </trkpt>
      <trkpt lat="43.72241" lon="4.94942">
        <ele>200.38</ele>
        <time>2026-04-16T12:58:22.891Z</time>
      </trkpt>
      <trkpt lat="43.7224" lon="4.94945">
        <ele>199.76</ele>
        <time>2026-04-16T12:58:28.708Z</time>
      </trkpt>
      <trkpt lat="43.72239" lon="4.94943">
        <ele>198.24</ele>
        <time>2026-04-16T12:58:33.925Z</time>
      </trkpt>
      <trkpt lat="43.72237" lon="4.94937">
        <ele>197.67</ele>
        <time>2026-04-16T12:58:39.291Z</time>
      </trkpt>
      <trkpt lat="43.72238" lon="4.94939">
        <ele>196.69</ele>
        <time>2026-04-16T12:58:44.510Z</time>
      </trkpt>
      <trkpt lat="43.72242" lon="4.94938">
        <ele>195.71</ele>
        <time>2026-04-16T12:58:49.706Z</time>
      </trkpt>
      <trkpt lat="43.72245" lon="4.94935">
        <ele>194.76</ele>
        <time>2026-04-16T12:58:54.847Z</time>
      </trkpt>
      <trkpt lat="43.72243" lon="4.94936">
        <ele>193.94</ele>
        <time>2026-04-16T12:59:00.271Z</time>
      </trkpt>
      <trkpt lat="43.72245" lon="4.94934">
        <ele>193.17</ele>
        <time>2026-04-16T12:59:05.633Z</time>
      </trkpt>
      <trkpt lat="43.72248" lon="4.94932">
        <ele>192.38</ele>
        <time>2026-04-16T12:59:10.650Z</time>
      </trkpt>
      <trkpt lat="43.72249" lon="4.94927">
        <ele>191.47</ele>
        <time>2026-04-16T12:59:15.745Z</time>
      </trkpt>
      <trkpt lat="43.7225" lon="4.94922">
        <ele>189.99</ele>
        <time>2026-04-16T12:59:21.073Z</time>
      </trkpt>
      <trkpt lat="43.72251" lon="4.94917">
        <ele>188.65</ele>
        <time>2026-04-16T12:59:26.906Z</time>
      </trkpt>
      <trkpt lat="43.72251" lon="4.9491">
        <ele>187.6</ele>
        <time>2026-04-16T12:59:32.991Z</time>
      </trkpt>
      <trkpt lat="43.72249" lon="4.94907">
        <ele>187.57</ele>
        <time>2026-04-16T12:59:38.387Z</time>
      </trkpt>
      <trkpt lat="43.72247" lon="4.94905">
        <ele>186.67</ele>
        <time>2026-04-16T12:59:43.434Z</time>
      </trkpt>
      <trkpt lat="43.72248" lon="4.94906">
        <ele>184.67</ele>
        <time>2026-04-16T12:59:51.570Z</time>
      </trkpt>
      <trkpt lat="43.72248" lon="4.94907">
        <ele>184.09</ele>
        <time>2026-04-16T12:59:56.929Z</time>
      </trkpt>
      <trkpt lat="43.72249" lon="4.94906">
        <ele>182.06</ele>
        <time>2026-04-16T13:00:03.726Z</time>
      </trkpt>
      <trkpt lat="43.72246" lon="4.94905">
        <ele>181.32</ele>
        <time>2026-04-16T13:00:09.348Z</time>
      </trkpt>
      <trkpt lat="43.72241" lon="4.94899">
        <ele>180.17</ele>
        <time>2026-04-16T13:00:14.885Z</time>
      </trkpt>
      <trkpt lat="43.72237" lon="4.94894">
        <ele>178.92</ele>
        <time>2026-04-16T13:00:20.793Z</time>
      </trkpt>
      <trkpt lat="43.72236" lon="4.94894">
        <ele>178.46</ele>
        <time>2026-04-16T13:00:25.824Z</time>
      </trkpt>
      <trkpt lat="43.72231" lon="4.94893">
        <ele>177.92</ele>
        <time>2026-04-16T13:00:31.026Z</time>
      </trkpt>
      <trkpt lat="43.72227" lon="4.9489">
        <ele>177.97</ele>
        <time>2026-04-16T13:00:36.489Z</time>
      </trkpt>
      <trkpt lat="43.72221" lon="4.9489">
        <ele>177.84</ele>
        <time>2026-04-16T13:00:41.884Z</time>
      </trkpt>
      <trkpt lat="43.72215" lon="4.94885">
        <ele>176.96</ele>
        <time>2026-04-16T13:00:47.267Z</time>
      </trkpt>
      <trkpt lat="43.72215" lon="4.94886">
        <ele>176.65</ele>
        <time>2026-04-16T13:00:52.981Z</time>
      </trkpt>
      <trkpt lat="43.72214" lon="4.94885">
        <ele>176.23</ele>
        <time>2026-04-16T13:00:58.852Z</time>
      </trkpt>
      <trkpt lat="43.72214" lon="4.94886">
        <ele>176.12</ele>
        <time>2026-04-16T13:01:14.860Z</time>
      </trkpt>
      <trkpt lat="43.72214" lon="4.94884">
        <ele>176.81</ele>
        <time>2026-04-16T13:01:31.934Z</time>
      </trkpt>
      <trkpt lat="43.72214" lon="4.94883">
        <ele>176.39</ele>
        <time>2026-04-16T13:01:36.951Z</time>
      </trkpt>
      <trkpt lat="43.72214" lon="4.94881">
        <ele>176.51</ele>
        <time>2026-04-16T13:01:49.864Z</time>
      </trkpt>
      <trkpt lat="43.72213" lon="4.94881">
        <ele>176.39</ele>
        <time>2026-04-16T13:02:04.910Z</time>
      </trkpt>
      <trkpt lat="43.72213" lon="4.94882">
        <ele>176.47</ele>
        <time>2026-04-16T13:02:20.918Z</time>
      </trkpt>
      <trkpt lat="43.72213" lon="4.94881">
        <ele>176.63</ele>
        <time>2026-04-16T13:02:49.947Z</time>
      </trkpt>
      <trkpt lat="43.72213" lon="4.94882">
        <ele>176.63</ele>
        <time>2026-04-16T13:03:46.935Z</time>
      </trkpt>
      <trkpt lat="43.72213" lon="4.94883">
        <ele>176.35</ele>
        <time>2026-04-16T13:04:02.942Z</time>
      </trkpt>
      <trkpt lat="43.72213" lon="4.94884">
        <ele>175.94</ele>
        <time>2026-04-16T13:05:51.904Z</time>
      </trkpt>
      <trkpt lat="43.72213" lon="4.94883">
        <ele>176.69</ele>
        <time>2026-04-16T13:06:10.899Z</time>
      </trkpt>
      <trkpt lat="43.72213" lon="4.94882">
        <ele>177.48</ele>
        <time>2026-04-16T13:06:18.904Z</time>
      </trkpt>
      <trkpt lat="43.72214" lon="4.9488">
        <ele>176.62</ele>
        <time>2026-04-16T13:06:31.924Z</time>
      </trkpt>
      <trkpt lat="43.72214" lon="4.94879">
        <ele>177.9</ele>
        <time>2026-04-16T13:07:08.956Z</time>
      </trkpt>
      <trkpt lat="43.72213" lon="4.94878">
        <ele>177.55</ele>
        <time>2026-04-16T13:07:20.909Z</time>
      </trkpt>
      <trkpt lat="43.72213" lon="4.9488">
        <ele>177.83</ele>
        <time>2026-04-16T13:07:36.918Z</time>
      </trkpt>
      <trkpt lat="43.72213" lon="4.94881">
        <ele>177.67</ele>
        <time>2026-04-16T13:07:46.949Z</time>
      </trkpt>
      <trkpt lat="43.72213" lon="4.94886">
        <ele>179.16</ele>
        <time>2026-04-16T13:07:52.235Z</time>
      </trkpt>
      <trkpt lat="43.7221" lon="4.94893">
        <ele>179.8</ele>
        <time>2026-04-16T13:07:57.572Z</time>
      </trkpt>
      <trkpt lat="43.72204" lon="4.949">
        <ele>178.58</ele>
        <time>2026-04-16T13:08:03.539Z</time>
      </trkpt>
      <trkpt lat="43.72201" lon="4.94906">
        <ele>178.8</ele>
        <time>2026-04-16T13:08:08.732Z</time>
      </trkpt>
      <trkpt lat="43.72198" lon="4.94909">
        <ele>178.48</ele>
        <time>2026-04-16T13:08:13.977Z</time>
      </trkpt>
      <trkpt lat="43.72195" lon="4.94912">
        <ele>178.73</ele>
        <time>2026-04-16T13:08:19.778Z</time>
      </trkpt>
      <trkpt lat="43.72193" lon="4.94919">
        <ele>178.44</ele>
        <time>2026-04-16T13:08:25.851Z</time>
      </trkpt>
      <trkpt lat="43.7219" lon="4.94924">
        <ele>177.77</ele>
        <time>2026-04-16T13:08:30.912Z</time>
      </trkpt>
      <trkpt lat="43.72187" lon="4.94927">
        <ele>178.09</ele>
        <time>2026-04-16T13:08:35.934Z</time>
      </trkpt>
      <trkpt lat="43.72183" lon="4.94931">
        <ele>177.75</ele>
        <time>2026-04-16T13:08:40.950Z</time>
      </trkpt>
      <trkpt lat="43.72179" lon="4.94934">
        <ele>177.83</ele>
        <time>2026-04-16T13:08:46.697Z</time>
      </trkpt>
      <trkpt lat="43.72176" lon="4.9494">
        <ele>177.8</ele>
        <time>2026-04-16T13:08:51.872Z</time>
      </trkpt>
      <trkpt lat="43.72173" lon="4.94947">
        <ele>177.55</ele>
        <time>2026-04-16T13:08:57.917Z</time>
      </trkpt>
      <trkpt lat="43.72169" lon="4.94952">
        <ele>177.78</ele>
        <time>2026-04-16T13:09:02.934Z</time>
      </trkpt>
      <trkpt lat="43.72166" lon="4.94957">
        <ele>177.7</ele>
        <time>2026-04-16T13:09:08.911Z</time>
      </trkpt>
      <trkpt lat="43.72162" lon="4.94963">
        <ele>176.76</ele>
        <time>2026-04-16T13:09:13.925Z</time>
      </trkpt>
      <trkpt lat="43.72159" lon="4.9497">
        <ele>176.73</ele>
        <time>2026-04-16T13:09:19.308Z</time>
      </trkpt>
      <trkpt lat="43.72156" lon="4.94975">
        <ele>177.05</ele>
        <time>2026-04-16T13:09:24.946Z</time>
      </trkpt>
      <trkpt lat="43.72152" lon="4.94981">
        <ele>176.49</ele>
        <time>2026-04-16T13:09:30.648Z</time>
      </trkpt>
      <trkpt lat="43.72148" lon="4.94986">
        <ele>177.14</ele>
        <time>2026-04-16T13:09:36.732Z</time>
      </trkpt>
      <trkpt lat="43.72145" lon="4.94992">
        <ele>177.83</ele>
        <time>2026-04-16T13:09:42.770Z</time>
      </trkpt>
      <trkpt lat="43.72142" lon="4.94997">
        <ele>176.81</ele>
        <time>2026-04-16T13:09:48.249Z</time>
      </trkpt>
      <trkpt lat="43.72138" lon="4.95004">
        <ele>178.41</ele>
        <time>2026-04-16T13:09:53.841Z</time>
      </trkpt>
      <trkpt lat="43.72133" lon="4.95009">
        <ele>177.93</ele>
        <time>2026-04-16T13:09:58.957Z</time>
      </trkpt>
      <trkpt lat="43.72129" lon="4.95007">
        <ele>177.51</ele>
        <time>2026-04-16T13:10:04.519Z</time>
      </trkpt>
      <trkpt lat="43.72125" lon="4.9501">
        <ele>177</ele>
        <time>2026-04-16T13:10:09.615Z</time>
      </trkpt>
      <trkpt lat="43.72121" lon="4.95013">
        <ele>176.26</ele>
        <time>2026-04-16T13:10:15.475Z</time>
      </trkpt>
      <trkpt lat="43.72116" lon="4.95018">
        <ele>176.28</ele>
        <time>2026-04-16T13:10:20.951Z</time>
      </trkpt>
      <trkpt lat="43.72112" lon="4.95024">
        <ele>175.83</ele>
        <time>2026-04-16T13:10:26.415Z</time>
      </trkpt>
      <trkpt lat="43.72108" lon="4.95029">
        <ele>176.03</ele>
        <time>2026-04-16T13:10:31.556Z</time>
      </trkpt>
      <trkpt lat="43.72103" lon="4.95033">
        <ele>175.54</ele>
        <time>2026-04-16T13:10:36.960Z</time>
      </trkpt>
      <trkpt lat="43.72098" lon="4.95039">
        <ele>175.56</ele>
        <time>2026-04-16T13:10:42.937Z</time>
      </trkpt>
      <trkpt lat="43.72094" lon="4.95047">
        <ele>175.4</ele>
        <time>2026-04-16T13:10:48.934Z</time>
      </trkpt>
      <trkpt lat="43.72089" lon="4.95052">
        <ele>174.81</ele>
        <time>2026-04-16T13:10:54.890Z</time>
      </trkpt>
      <trkpt lat="43.72085" lon="4.95055">
        <ele>175.07</ele>
        <time>2026-04-16T13:10:59.906Z</time>
      </trkpt>
      <trkpt lat="43.72081" lon="4.95057">
        <ele>174.82</ele>
        <time>2026-04-16T13:11:04.922Z</time>
      </trkpt>
      <trkpt lat="43.72075" lon="4.95059">
        <ele>174.75</ele>
        <time>2026-04-16T13:11:10.971Z</time>
      </trkpt>
      <trkpt lat="43.72069" lon="4.95064">
        <ele>174.62</ele>
        <time>2026-04-16T13:11:16.772Z</time>
      </trkpt>
      <trkpt lat="43.72064" lon="4.95067">
        <ele>174.27</ele>
        <time>2026-04-16T13:11:22.697Z</time>
      </trkpt>
      <trkpt lat="43.7206" lon="4.9507">
        <ele>174.6</ele>
        <time>2026-04-16T13:11:27.974Z</time>
      </trkpt>
      <trkpt lat="43.72057" lon="4.95075">
        <ele>174.56</ele>
        <time>2026-04-16T13:11:33.475Z</time>
      </trkpt>
      <trkpt lat="43.72052" lon="4.95079">
        <ele>174.41</ele>
        <time>2026-04-16T13:11:38.968Z</time>
      </trkpt>
      <trkpt lat="43.72049" lon="4.95084">
        <ele>174.27</ele>
        <time>2026-04-16T13:11:43.984Z</time>
      </trkpt>
      <trkpt lat="43.72043" lon="4.95087">
        <ele>173.76</ele>
        <time>2026-04-16T13:11:49.475Z</time>
      </trkpt>
      <trkpt lat="43.72038" lon="4.95089">
        <ele>173.49</ele>
        <time>2026-04-16T13:11:54.977Z</time>
      </trkpt>
      <trkpt lat="43.72034" lon="4.95092">
        <ele>173.64</ele>
        <time>2026-04-16T13:11:59.979Z</time>
      </trkpt>
      <trkpt lat="43.72027" lon="4.95092">
        <ele>172.83</ele>
        <time>2026-04-16T13:12:05.218Z</time>
      </trkpt>
      <trkpt lat="43.72021" lon="4.95094">
        <ele>172.95</ele>
        <time>2026-04-16T13:12:10.998Z</time>
      </trkpt>
      <trkpt lat="43.72017" lon="4.95099">
        <ele>173.43</ele>
        <time>2026-04-16T13:12:16.963Z</time>
      </trkpt>
      <trkpt lat="43.72013" lon="4.95104">
        <ele>173.38</ele>
        <time>2026-04-16T13:12:22.561Z</time>
      </trkpt>
      <trkpt lat="43.72008" lon="4.95108">
        <ele>173.85</ele>
        <time>2026-04-16T13:12:27.955Z</time>
      </trkpt>
      <trkpt lat="43.72002" lon="4.9511">
        <ele>174.72</ele>
        <time>2026-04-16T13:12:32.972Z</time>
      </trkpt>
      <trkpt lat="43.71996" lon="4.95114">
        <ele>175.21</ele>
        <time>2026-04-16T13:12:38.977Z</time>
      </trkpt>
      <trkpt lat="43.71993" lon="4.95121">
        <ele>175.9</ele>
        <time>2026-04-16T13:12:44.652Z</time>
      </trkpt>
      <trkpt lat="43.71989" lon="4.95127">
        <ele>175.36</ele>
        <time>2026-04-16T13:12:49.759Z</time>
      </trkpt>
      <trkpt lat="43.71987" lon="4.95133">
        <ele>176.43</ele>
        <time>2026-04-16T13:12:55.557Z</time>
      </trkpt>
      <trkpt lat="43.71989" lon="4.95136">
        <ele>176.25</ele>
        <time>2026-04-16T13:13:00.834Z</time>
      </trkpt>
      <trkpt lat="43.71988" lon="4.95135">
        <ele>174.45</ele>
        <time>2026-04-16T13:13:07.871Z</time>
      </trkpt>
      <trkpt lat="43.71987" lon="4.95136">
        <ele>174.34</ele>
        <time>2026-04-16T13:13:13.849Z</time>
      </trkpt>
      <trkpt lat="43.71985" lon="4.95135">
        <ele>173.64</ele>
        <time>2026-04-16T13:13:19.115Z</time>
      </trkpt>
      <trkpt lat="43.7198" lon="4.95133">
        <ele>175.24</ele>
        <time>2026-04-16T13:13:24.337Z</time>
      </trkpt>
      <trkpt lat="43.71974" lon="4.95135">
        <ele>174.72</ele>
        <time>2026-04-16T13:13:29.964Z</time>
      </trkpt>
      <trkpt lat="43.71968" lon="4.95137">
        <ele>175.35</ele>
        <time>2026-04-16T13:13:35.500Z</time>
      </trkpt>
      <trkpt lat="43.71962" lon="4.9514">
        <ele>174.72</ele>
        <time>2026-04-16T13:13:40.802Z</time>
      </trkpt>
      <trkpt lat="43.71959" lon="4.95146">
        <ele>174.8</ele>
        <time>2026-04-16T13:13:45.862Z</time>
      </trkpt>
      <trkpt lat="43.71956" lon="4.95153">
        <ele>175</ele>
        <time>2026-04-16T13:13:51.082Z</time>
      </trkpt>
      <trkpt lat="43.71952" lon="4.95159">
        <ele>175.11</ele>
        <time>2026-04-16T13:13:56.542Z</time>
      </trkpt>
      <trkpt lat="43.7195" lon="4.95166">
        <ele>175.41</ele>
        <time>2026-04-16T13:14:01.560Z</time>
      </trkpt>
      <trkpt lat="43.7195" lon="4.95174">
        <ele>176.29</ele>
        <time>2026-04-16T13:14:06.862Z</time>
      </trkpt>
      <trkpt lat="43.7195" lon="4.9518">
        <ele>177.48</ele>
        <time>2026-04-16T13:14:12.020Z</time>
      </trkpt>
      <trkpt lat="43.71949" lon="4.95185">
        <ele>179.63</ele>
        <time>2026-04-16T13:14:17.679Z</time>
      </trkpt>
      <trkpt lat="43.71948" lon="4.9519">
        <ele>178.96</ele>
        <time>2026-04-16T13:14:22.904Z</time>
      </trkpt>
      <trkpt lat="43.71947" lon="4.95196">
        <ele>178.85</ele>
        <time>2026-04-16T13:14:27.979Z</time>
      </trkpt>
      <trkpt lat="43.71948" lon="4.95203">
        <ele>179.95</ele>
        <time>2026-04-16T13:14:33.518Z</time>
      </trkpt>
      <trkpt lat="43.71949" lon="4.9521">
        <ele>180.06</ele>
        <time>2026-04-16T13:14:38.696Z</time>
      </trkpt>
      <trkpt lat="43.71946" lon="4.95215">
        <ele>180.23</ele>
        <time>2026-04-16T13:14:43.901Z</time>
      </trkpt>
      <trkpt lat="43.71943" lon="4.95219">
        <ele>180.88</ele>
        <time>2026-04-16T13:14:48.948Z</time>
      </trkpt>
      <trkpt lat="43.71941" lon="4.95225">
        <ele>180.77</ele>
        <time>2026-04-16T13:14:54.276Z</time>
      </trkpt>
      <trkpt lat="43.7194" lon="4.95231">
        <ele>180.75</ele>
        <time>2026-04-16T13:14:59.941Z</time>
      </trkpt>
      <trkpt lat="43.7194" lon="4.95232">
        <ele>180.78</ele>
        <time>2026-04-16T13:15:28.399Z</time>
      </trkpt>
      <trkpt lat="43.71937" lon="4.95237">
        <ele>180.74</ele>
        <time>2026-04-16T13:15:33.539Z</time>
      </trkpt>
      <trkpt lat="43.71934" lon="4.95243">
        <ele>180.51</ele>
        <time>2026-04-16T13:15:38.900Z</time>
      </trkpt>
      <trkpt lat="43.71933" lon="4.95246">
        <ele>179.99</ele>
        <time>2026-04-16T13:15:43.915Z</time>
      </trkpt>
      <trkpt lat="43.71934" lon="4.95247">
        <ele>180.35</ele>
        <time>2026-04-16T13:15:48.933Z</time>
      </trkpt>
      <trkpt lat="43.71933" lon="4.9525">
        <ele>180.34</ele>
        <time>2026-04-16T13:16:01.954Z</time>
      </trkpt>
      <trkpt lat="43.7193" lon="4.95261">
        <ele>179.66</ele>
        <time>2026-04-16T13:16:07.930Z</time>
      </trkpt>
      <trkpt lat="43.71929" lon="4.9527">
        <ele>179.6</ele>
        <time>2026-04-16T13:16:13.362Z</time>
      </trkpt>
      <trkpt lat="43.7193" lon="4.95277">
        <ele>179.79</ele>
        <time>2026-04-16T13:16:18.935Z</time>
      </trkpt>
      <trkpt lat="43.7193" lon="4.95284">
        <ele>179.76</ele>
        <time>2026-04-16T13:16:23.941Z</time>
      </trkpt>
      <trkpt lat="43.71932" lon="4.95291">
        <ele>180.73</ele>
        <time>2026-04-16T13:16:28.958Z</time>
      </trkpt>
      <trkpt lat="43.71934" lon="4.95298">
        <ele>180.68</ele>
        <time>2026-04-16T13:16:34.540Z</time>
      </trkpt>
      <trkpt lat="43.71935" lon="4.95306">
        <ele>180.9</ele>
        <time>2026-04-16T13:16:39.696Z</time>
      </trkpt>
      <trkpt lat="43.71937" lon="4.95315">
        <ele>182.18</ele>
        <time>2026-04-16T13:16:44.967Z</time>
      </trkpt>
      <trkpt lat="43.71938" lon="4.95322">
        <ele>181.91</ele>
        <time>2026-04-16T13:16:49.984Z</time>
      </trkpt>
      <trkpt lat="43.71939" lon="4.95329">
        <ele>182.44</ele>
        <time>2026-04-16T13:16:54.999Z</time>
      </trkpt>
      <trkpt lat="43.7194" lon="4.95337">
        <ele>182.79</ele>
        <time>2026-04-16T13:17:00.580Z</time>
      </trkpt>
      <trkpt lat="43.71941" lon="4.95344">
        <ele>183.06</ele>
        <time>2026-04-16T13:17:05.660Z</time>
      </trkpt>
      <trkpt lat="43.71944" lon="4.9535">
        <ele>183.6</ele>
        <time>2026-04-16T13:17:10.737Z</time>
      </trkpt>
      <trkpt lat="43.71944" lon="4.95357">
        <ele>183.88</ele>
        <time>2026-04-16T13:17:15.816Z</time>
      </trkpt>
      <trkpt lat="43.71945" lon="4.95364">
        <ele>184.1</ele>
        <time>2026-04-16T13:17:20.922Z</time>
      </trkpt>
      <trkpt lat="43.71946" lon="4.95371">
        <ele>185.12</ele>
        <time>2026-04-16T13:17:25.953Z</time>
      </trkpt>
      <trkpt lat="43.71947" lon="4.95376">
        <ele>185.16</ele>
        <time>2026-04-16T13:17:30.969Z</time>
      </trkpt>
      <trkpt lat="43.71945" lon="4.95382">
        <ele>184.97</ele>
        <time>2026-04-16T13:17:36.201Z</time>
      </trkpt>
      <trkpt lat="43.71939" lon="4.95383">
        <ele>185.25</ele>
        <time>2026-04-16T13:17:41.287Z</time>
      </trkpt>
      <trkpt lat="43.71932" lon="4.95382">
        <ele>185.36</ele>
        <time>2026-04-16T13:17:46.919Z</time>
      </trkpt>
      <trkpt lat="43.71927" lon="4.95381">
        <ele>186.53</ele>
        <time>2026-04-16T13:17:52.418Z</time>
      </trkpt>
      <trkpt lat="43.71922" lon="4.95382">
        <ele>186.84</ele>
        <time>2026-04-16T13:17:57.560Z</time>
      </trkpt>
      <trkpt lat="43.71916" lon="4.95384">
        <ele>186.47</ele>
        <time>2026-04-16T13:18:03.706Z</time>
      </trkpt>
      <trkpt lat="43.7191" lon="4.95389">
        <ele>186.77</ele>
        <time>2026-04-16T13:18:09.026Z</time>
      </trkpt>
      <trkpt lat="43.71904" lon="4.95392">
        <ele>186.78</ele>
        <time>2026-04-16T13:18:14.563Z</time>
      </trkpt>
      <trkpt lat="43.719" lon="4.95397">
        <ele>186.86</ele>
        <time>2026-04-16T13:18:19.883Z</time>
      </trkpt>
      <trkpt lat="43.71893" lon="4.95402">
        <ele>188.95</ele>
        <time>2026-04-16T13:18:25.211Z</time>
      </trkpt>
      <trkpt lat="43.71887" lon="4.95405">
        <ele>188.62</ele>
        <time>2026-04-16T13:18:31.016Z</time>
      </trkpt>
      <trkpt lat="43.71882" lon="4.95409">
        <ele>188.85</ele>
        <time>2026-04-16T13:18:36.442Z</time>
      </trkpt>
      <trkpt lat="43.71878" lon="4.95414">
        <ele>187.6</ele>
        <time>2026-04-16T13:18:41.780Z</time>
      </trkpt>
      <trkpt lat="43.71874" lon="4.95421">
        <ele>187.31</ele>
        <time>2026-04-16T13:18:46.937Z</time>
      </trkpt>
      <trkpt lat="43.7187" lon="4.95428">
        <ele>187.98</ele>
        <time>2026-04-16T13:18:52.382Z</time>
      </trkpt>
      <trkpt lat="43.71867" lon="4.95434">
        <ele>188.14</ele>
        <time>2026-04-16T13:18:57.603Z</time>
      </trkpt>
      <trkpt lat="43.71864" lon="4.9544">
        <ele>188.05</ele>
        <time>2026-04-16T13:19:02.971Z</time>
      </trkpt>
      <trkpt lat="43.71859" lon="4.95447">
        <ele>188.39</ele>
        <time>2026-04-16T13:19:09.003Z</time>
      </trkpt>
      <trkpt lat="43.71856" lon="4.95453">
        <ele>188.45</ele>
        <time>2026-04-16T13:19:14.404Z</time>
      </trkpt>
      <trkpt lat="43.71851" lon="4.95458">
        <ele>188.45</ele>
        <time>2026-04-16T13:19:19.864Z</time>
      </trkpt>
      <trkpt lat="43.71846" lon="4.95463">
        <ele>188.85</ele>
        <time>2026-04-16T13:19:24.958Z</time>
      </trkpt>
      <trkpt lat="43.71842" lon="4.95468">
        <ele>189.39</ele>
        <time>2026-04-16T13:19:30.181Z</time>
      </trkpt>
      <trkpt lat="43.71838" lon="4.95472">
        <ele>189.95</ele>
        <time>2026-04-16T13:19:35.206Z</time>
      </trkpt>
      <trkpt lat="43.71834" lon="4.95477">
        <ele>190.31</ele>
        <time>2026-04-16T13:19:40.322Z</time>
      </trkpt>
      <trkpt lat="43.7183" lon="4.95482">
        <ele>190.66</ele>
        <time>2026-04-16T13:19:45.481Z</time>
      </trkpt>
      <trkpt lat="43.71827" lon="4.95487">
        <ele>191.69</ele>
        <time>2026-04-16T13:19:50.639Z</time>
      </trkpt>
      <trkpt lat="43.71823" lon="4.95492">
        <ele>192.58</ele>
        <time>2026-04-16T13:19:55.860Z</time>
      </trkpt>
      <trkpt lat="43.7182" lon="4.95498">
        <ele>192.64</ele>
        <time>2026-04-16T13:20:01.022Z</time>
      </trkpt>
      <trkpt lat="43.71817" lon="4.95503">
        <ele>192.98</ele>
        <time>2026-04-16T13:20:06.182Z</time>
      </trkpt>
      <trkpt lat="43.71814" lon="4.95509">
        <ele>193.44</ele>
        <time>2026-04-16T13:20:11.521Z</time>
      </trkpt>
      <trkpt lat="43.71812" lon="4.95516">
        <ele>193.78</ele>
        <time>2026-04-16T13:20:16.557Z</time>
      </trkpt>
      <trkpt lat="43.71809" lon="4.95521">
        <ele>194.5</ele>
        <time>2026-04-16T13:20:21.661Z</time>
      </trkpt>
      <trkpt lat="43.71805" lon="4.95528">
        <ele>194.31</ele>
        <time>2026-04-16T13:20:26.967Z</time>
      </trkpt>
      <trkpt lat="43.71804" lon="4.95535">
        <ele>193.9</ele>
        <time>2026-04-16T13:20:32.503Z</time>
      </trkpt>
      <trkpt lat="43.71801" lon="4.95542">
        <ele>194.24</ele>
        <time>2026-04-16T13:20:37.955Z</time>
      </trkpt>
      <trkpt lat="43.71798" lon="4.95552">
        <ele>194.3</ele>
        <time>2026-04-16T13:20:43.718Z</time>
      </trkpt>
      <trkpt lat="43.71794" lon="4.95556">
        <ele>194.57</ele>
        <time>2026-04-16T13:20:48.986Z</time>
      </trkpt>
      <trkpt lat="43.7179" lon="4.9556">
        <ele>193.99</ele>
        <time>2026-04-16T13:20:54.312Z</time>
      </trkpt>
      <trkpt lat="43.71786" lon="4.95567">
        <ele>193.52</ele>
        <time>2026-04-16T13:20:59.800Z</time>
      </trkpt>
      <trkpt lat="43.7178" lon="4.95567">
        <ele>193.37</ele>
        <time>2026-04-16T13:21:04.965Z</time>
      </trkpt>
      <trkpt lat="43.71776" lon="4.95568">
        <ele>192.51</ele>
        <time>2026-04-16T13:21:09.982Z</time>
      </trkpt>
      <trkpt lat="43.71771" lon="4.95573">
        <ele>191.67</ele>
        <time>2026-04-16T13:21:15.777Z</time>
      </trkpt>
      <trkpt lat="43.71767" lon="4.95578">
        <ele>191.2</ele>
        <time>2026-04-16T13:21:21.255Z</time>
      </trkpt>
      <trkpt lat="43.71763" lon="4.95583">
        <ele>190.13</ele>
        <time>2026-04-16T13:21:26.938Z</time>
      </trkpt>
      <trkpt lat="43.71758" lon="4.9559">
        <ele>189.38</ele>
        <time>2026-04-16T13:21:32.541Z</time>
      </trkpt>
      <trkpt lat="43.71754" lon="4.95596">
        <ele>188.65</ele>
        <time>2026-04-16T13:21:37.559Z</time>
      </trkpt>
      <trkpt lat="43.7175" lon="4.95602">
        <ele>188.14</ele>
        <time>2026-04-16T13:21:42.840Z</time>
      </trkpt>
      <trkpt lat="43.71746" lon="4.9561">
        <ele>188.09</ele>
        <time>2026-04-16T13:21:48.961Z</time>
      </trkpt>
      <trkpt lat="43.71743" lon="4.95617">
        <ele>187.65</ele>
        <time>2026-04-16T13:21:54.625Z</time>
      </trkpt>
      <trkpt lat="43.71739" lon="4.95626">
        <ele>187.01</ele>
        <time>2026-04-16T13:22:00.301Z</time>
      </trkpt>
      <trkpt lat="43.71735" lon="4.95634">
        <ele>186.84</ele>
        <time>2026-04-16T13:22:05.363Z</time>
      </trkpt>
      <trkpt lat="43.71732" lon="4.95639">
        <ele>186.45</ele>
        <time>2026-04-16T13:22:10.601Z</time>
      </trkpt>
      <trkpt lat="43.7173" lon="4.95644">
        <ele>186.34</ele>
        <time>2026-04-16T13:22:16.302Z</time>
      </trkpt>
      <trkpt lat="43.71727" lon="4.95651">
        <ele>185.9</ele>
        <time>2026-04-16T13:22:21.919Z</time>
      </trkpt>
      <trkpt lat="43.71723" lon="4.95658">
        <ele>185.23</ele>
        <time>2026-04-16T13:22:27.776Z</time>
      </trkpt>
      <trkpt lat="43.71719" lon="4.95665">
        <ele>185.18</ele>
        <time>2026-04-16T13:22:32.913Z</time>
      </trkpt>
      <trkpt lat="43.71716" lon="4.95672">
        <ele>184.87</ele>
        <time>2026-04-16T13:22:37.931Z</time>
      </trkpt>
      <trkpt lat="43.71714" lon="4.9568">
        <ele>184.66</ele>
        <time>2026-04-16T13:22:42.957Z</time>
      </trkpt>
      <trkpt lat="43.71712" lon="4.95686">
        <ele>184.54</ele>
        <time>2026-04-16T13:22:48.266Z</time>
      </trkpt>
      <trkpt lat="43.71709" lon="4.95692">
        <ele>184.45</ele>
        <time>2026-04-16T13:22:53.857Z</time>
      </trkpt>
      <trkpt lat="43.71706" lon="4.95698">
        <ele>184.43</ele>
        <time>2026-04-16T13:22:59.377Z</time>
      </trkpt>
      <trkpt lat="43.71702" lon="4.957">
        <ele>184.69</ele>
        <time>2026-04-16T13:23:04.902Z</time>
      </trkpt>
      <trkpt lat="43.71699" lon="4.95705">
        <ele>184.99</ele>
        <time>2026-04-16T13:23:10.560Z</time>
      </trkpt>
      <trkpt lat="43.71695" lon="4.95708">
        <ele>185.33</ele>
        <time>2026-04-16T13:23:15.637Z</time>
      </trkpt>
      <trkpt lat="43.71691" lon="4.95712">
        <ele>186.09</ele>
        <time>2026-04-16T13:23:21.276Z</time>
      </trkpt>
      <trkpt lat="43.71687" lon="4.95717">
        <ele>186.4</ele>
        <time>2026-04-16T13:23:26.498Z</time>
      </trkpt>
      <trkpt lat="43.71684" lon="4.95723">
        <ele>187.38</ele>
        <time>2026-04-16T13:23:31.753Z</time>
      </trkpt>
      <trkpt lat="43.71682" lon="4.95729">
        <ele>188.48</ele>
        <time>2026-04-16T13:23:36.955Z</time>
      </trkpt>
      <trkpt lat="43.71682" lon="4.95735">
        <ele>189.8</ele>
        <time>2026-04-16T13:23:41.957Z</time>
      </trkpt>
      <trkpt lat="43.71679" lon="4.95742">
        <ele>190.18</ele>
        <time>2026-04-16T13:23:47.463Z</time>
      </trkpt>
      <trkpt lat="43.71676" lon="4.95748">
        <ele>190.62</ele>
        <time>2026-04-16T13:23:52.738Z</time>
      </trkpt>
      <trkpt lat="43.71672" lon="4.95753">
        <ele>190.64</ele>
        <time>2026-04-16T13:23:57.981Z</time>
      </trkpt>
      <trkpt lat="43.71669" lon="4.9576">
        <ele>191</ele>
        <time>2026-04-16T13:24:03.535Z</time>
      </trkpt>
      <trkpt lat="43.71667" lon="4.95767">
        <ele>191.38</ele>
        <time>2026-04-16T13:24:08.978Z</time>
      </trkpt>
      <trkpt lat="43.71666" lon="4.95774">
        <ele>191.28</ele>
        <time>2026-04-16T13:24:14.039Z</time>
      </trkpt>
      <trkpt lat="43.71664" lon="4.95781">
        <ele>192.4</ele>
        <time>2026-04-16T13:24:19.536Z</time>
      </trkpt>
      <trkpt lat="43.71663" lon="4.95789">
        <ele>192.81</ele>
        <time>2026-04-16T13:24:25.255Z</time>
      </trkpt>
      <trkpt lat="43.7166" lon="4.95795">
        <ele>193.38</ele>
        <time>2026-04-16T13:24:30.415Z</time>
      </trkpt>
      <trkpt lat="43.71657" lon="4.95802">
        <ele>194.46</ele>
        <time>2026-04-16T13:24:35.856Z</time>
      </trkpt>
      <trkpt lat="43.71656" lon="4.95808">
        <ele>194.77</ele>
        <time>2026-04-16T13:24:40.857Z</time>
      </trkpt>
      <trkpt lat="43.71653" lon="4.95815">
        <ele>195.15</ele>
        <time>2026-04-16T13:24:45.904Z</time>
      </trkpt>
      <trkpt lat="43.71648" lon="4.95821">
        <ele>195.53</ele>
        <time>2026-04-16T13:24:50.915Z</time>
      </trkpt>
      <trkpt lat="43.71647" lon="4.95829">
        <ele>196.4</ele>
        <time>2026-04-16T13:24:55.961Z</time>
      </trkpt>
      <trkpt lat="43.71646" lon="4.95836">
        <ele>196.16</ele>
        <time>2026-04-16T13:25:01.394Z</time>
      </trkpt>
      <trkpt lat="43.71644" lon="4.95844">
        <ele>196.92</ele>
        <time>2026-04-16T13:25:07.014Z</time>
      </trkpt>
      <trkpt lat="43.71641" lon="4.95852">
        <ele>197.71</ele>
        <time>2026-04-16T13:25:12.601Z</time>
      </trkpt>
      <trkpt lat="43.71639" lon="4.95858">
        <ele>198.26</ele>
        <time>2026-04-16T13:25:17.795Z</time>
      </trkpt>
      <trkpt lat="43.71636" lon="4.95867">
        <ele>198.8</ele>
        <time>2026-04-16T13:25:23.016Z</time>
      </trkpt>
      <trkpt lat="43.71632" lon="4.95875">
        <ele>199.64</ele>
        <time>2026-04-16T13:25:28.737Z</time>
      </trkpt>
      <trkpt lat="43.7163" lon="4.9588">
        <ele>200.7</ele>
        <time>2026-04-16T13:25:33.894Z</time>
      </trkpt>
      <trkpt lat="43.71629" lon="4.95886">
        <ele>202.02</ele>
        <time>2026-04-16T13:25:39.179Z</time>
      </trkpt>
      <trkpt lat="43.7163" lon="4.95886">
        <ele>202.02</ele>
        <time>2026-04-16T13:25:53.895Z</time>
      </trkpt>
      <trkpt lat="43.71631" lon="4.95885">
        <ele>201.05</ele>
        <time>2026-04-16T13:26:01.901Z</time>
      </trkpt>
      <trkpt lat="43.71631" lon="4.95884">
        <ele>200.5</ele>
        <time>2026-04-16T13:26:07.983Z</time>
      </trkpt>
      <trkpt lat="43.71631" lon="4.95882">
        <ele>200.38</ele>
        <time>2026-04-16T13:26:20.898Z</time>
      </trkpt>
      <trkpt lat="43.71631" lon="4.95881">
        <ele>201.16</ele>
        <time>2026-04-16T13:26:33.921Z</time>
      </trkpt>
      <trkpt lat="43.71631" lon="4.95882">
        <ele>201.72</ele>
        <time>2026-04-16T13:26:58.896Z</time>
      </trkpt>
      <trkpt lat="43.7163" lon="4.95884">
        <ele>201.62</ele>
        <time>2026-04-16T13:27:25.876Z</time>
      </trkpt>
      <trkpt lat="43.71629" lon="4.95889">
        <ele>202.79</ele>
        <time>2026-04-16T13:27:30.916Z</time>
      </trkpt>
      <trkpt lat="43.71628" lon="4.9589">
        <ele>203.24</ele>
        <time>2026-04-16T13:27:35.995Z</time>
      </trkpt>
      <trkpt lat="43.71628" lon="4.95894">
        <ele>203.75</ele>
        <time>2026-04-16T13:27:41.459Z</time>
      </trkpt>
      <trkpt lat="43.71625" lon="4.95906">
        <ele>204.24</ele>
        <time>2026-04-16T13:27:46.926Z</time>
      </trkpt>
      <trkpt lat="43.71622" lon="4.95915">
        <ele>205.03</ele>
        <time>2026-04-16T13:27:52.559Z</time>
      </trkpt>
      <trkpt lat="43.71619" lon="4.95921">
        <ele>205.14</ele>
        <time>2026-04-16T13:27:57.958Z</time>
      </trkpt>
      <trkpt lat="43.71618" lon="4.95928">
        <ele>205.69</ele>
        <time>2026-04-16T13:28:03.457Z</time>
      </trkpt>
      <trkpt lat="43.71617" lon="4.95936">
        <ele>206.09</ele>
        <time>2026-04-16T13:28:08.882Z</time>
      </trkpt>
      <trkpt lat="43.71615" lon="4.95942">
        <ele>206.05</ele>
        <time>2026-04-16T13:28:13.929Z</time>
      </trkpt>
      <trkpt lat="43.71615" lon="4.95947">
        <ele>205.79</ele>
        <time>2026-04-16T13:28:18.955Z</time>
      </trkpt>
      <trkpt lat="43.71612" lon="4.95954">
        <ele>206.53</ele>
        <time>2026-04-16T13:28:24.523Z</time>
      </trkpt>
      <trkpt lat="43.7161" lon="4.9596">
        <ele>206.46</ele>
        <time>2026-04-16T13:28:29.717Z</time>
      </trkpt>
      <trkpt lat="43.71608" lon="4.95967">
        <ele>207.32</ele>
        <time>2026-04-16T13:28:34.966Z</time>
      </trkpt>
      <trkpt lat="43.71605" lon="4.95973">
        <ele>208.58</ele>
        <time>2026-04-16T13:28:40.319Z</time>
      </trkpt>
      <trkpt lat="43.71603" lon="4.95979">
        <ele>209.23</ele>
        <time>2026-04-16T13:28:45.399Z</time>
      </trkpt>
      <trkpt lat="43.71601" lon="4.95985">
        <ele>208.88</ele>
        <time>2026-04-16T13:28:50.858Z</time>
      </trkpt>
      <trkpt lat="43.71598" lon="4.95989">
        <ele>208.01</ele>
        <time>2026-04-16T13:28:55.875Z</time>
      </trkpt>
      <trkpt lat="43.71596" lon="4.95995">
        <ele>208.36</ele>
        <time>2026-04-16T13:29:01.098Z</time>
      </trkpt>
      <trkpt lat="43.71593" lon="4.96002">
        <ele>209.17</ele>
        <time>2026-04-16T13:29:06.114Z</time>
      </trkpt>
      <trkpt lat="43.7159" lon="4.96007">
        <ele>209.33</ele>
        <time>2026-04-16T13:29:11.338Z</time>
      </trkpt>
      <trkpt lat="43.71588" lon="4.96013">
        <ele>210.21</ele>
        <time>2026-04-16T13:29:16.541Z</time>
      </trkpt>
      <trkpt lat="43.71585" lon="4.96019">
        <ele>210.29</ele>
        <time>2026-04-16T13:29:21.592Z</time>
      </trkpt>
      <trkpt lat="43.71583" lon="4.96024">
        <ele>210.11</ele>
        <time>2026-04-16T13:29:26.935Z</time>
      </trkpt>
      <trkpt lat="43.71579" lon="4.96029">
        <ele>210.84</ele>
        <time>2026-04-16T13:29:32.435Z</time>
      </trkpt>
      <trkpt lat="43.71577" lon="4.96034">
        <ele>211.52</ele>
        <time>2026-04-16T13:29:37.557Z</time>
      </trkpt>
      <trkpt lat="43.71573" lon="4.96039">
        <ele>210.41</ele>
        <time>2026-04-16T13:29:42.656Z</time>
      </trkpt>
      <trkpt lat="43.71571" lon="4.96045">
        <ele>210.25</ele>
        <time>2026-04-16T13:29:48.251Z</time>
      </trkpt>
      <trkpt lat="43.71569" lon="4.96052">
        <ele>209.86</ele>
        <time>2026-04-16T13:29:53.577Z</time>
      </trkpt>
      <trkpt lat="43.71567" lon="4.96058">
        <ele>209.65</ele>
        <time>2026-04-16T13:29:58.957Z</time>
      </trkpt>
      <trkpt lat="43.71565" lon="4.96063">
        <ele>209.76</ele>
        <time>2026-04-16T13:30:03.975Z</time>
      </trkpt>
      <trkpt lat="43.71561" lon="4.96071">
        <ele>207.92</ele>
        <time>2026-04-16T13:30:09.614Z</time>
      </trkpt>
      <trkpt lat="43.71556" lon="4.96078">
        <ele>208.51</ele>
        <time>2026-04-16T13:30:14.755Z</time>
      </trkpt>
      <trkpt lat="43.71554" lon="4.96086">
        <ele>208.24</ele>
        <time>2026-04-16T13:30:19.773Z</time>
      </trkpt>
      <trkpt lat="43.71551" lon="4.96093">
        <ele>208.12</ele>
        <time>2026-04-16T13:30:25.155Z</time>
      </trkpt>
      <trkpt lat="43.71549" lon="4.96099">
        <ele>207.12</ele>
        <time>2026-04-16T13:30:30.494Z</time>
      </trkpt>
      <trkpt lat="43.71546" lon="4.96105">
        <ele>207.43</ele>
        <time>2026-04-16T13:30:35.889Z</time>
      </trkpt>
      <trkpt lat="43.71544" lon="4.96111">
        <ele>208.04</ele>
        <time>2026-04-16T13:30:40.906Z</time>
      </trkpt>
      <trkpt lat="43.71541" lon="4.96115">
        <ele>207.79</ele>
        <time>2026-04-16T13:30:45.922Z</time>
      </trkpt>
      <trkpt lat="43.71538" lon="4.96121">
        <ele>207.42</ele>
        <time>2026-04-16T13:30:51.575Z</time>
      </trkpt>
      <trkpt lat="43.71535" lon="4.96127">
        <ele>207.22</ele>
        <time>2026-04-16T13:30:56.780Z</time>
      </trkpt>
      <trkpt lat="43.71532" lon="4.96135">
        <ele>206.65</ele>
        <time>2026-04-16T13:31:02.277Z</time>
      </trkpt>
      <trkpt lat="43.71529" lon="4.96142">
        <ele>206.22</ele>
        <time>2026-04-16T13:31:07.911Z</time>
      </trkpt>
      <trkpt lat="43.71529" lon="4.9615">
        <ele>206.56</ele>
        <time>2026-04-16T13:31:12.928Z</time>
      </trkpt>
      <trkpt lat="43.71528" lon="4.96155">
        <ele>205.14</ele>
        <time>2026-04-16T13:31:17.944Z</time>
      </trkpt>
      <trkpt lat="43.71527" lon="4.96161">
        <ele>204.51</ele>
        <time>2026-04-16T13:31:23.630Z</time>
      </trkpt>
      <trkpt lat="43.71525" lon="4.96167">
        <ele>204.45</ele>
        <time>2026-04-16T13:31:28.938Z</time>
      </trkpt>
      <trkpt lat="43.71523" lon="4.96173">
        <ele>203.64</ele>
        <time>2026-04-16T13:31:33.955Z</time>
      </trkpt>
      <trkpt lat="43.71522" lon="4.9618">
        <ele>203.5</ele>
        <time>2026-04-16T13:31:39.572Z</time>
      </trkpt>
      <trkpt lat="43.71521" lon="4.96185">
        <ele>203.57</ele>
        <time>2026-04-16T13:31:44.615Z</time>
      </trkpt>
      <trkpt lat="43.71521" lon="4.96188">
        <ele>203.57</ele>
        <time>2026-04-16T13:31:49.829Z</time>
      </trkpt>
      <trkpt lat="43.7152" lon="4.96196">
        <ele>201.03</ele>
        <time>2026-04-16T13:31:54.984Z</time>
      </trkpt>
      <trkpt lat="43.71517" lon="4.96201">
        <ele>199.45</ele>
        <time>2026-04-16T13:32:00.539Z</time>
      </trkpt>
      <trkpt lat="43.71514" lon="4.96204">
        <ele>197.94</ele>
        <time>2026-04-16T13:32:05.979Z</time>
      </trkpt>
      <trkpt lat="43.71511" lon="4.96207">
        <ele>197.68</ele>
        <time>2026-04-16T13:32:10.996Z</time>
      </trkpt>
      <trkpt lat="43.71508" lon="4.96208">
        <ele>196.03</ele>
        <time>2026-04-16T13:32:16.212Z</time>
      </trkpt>
      <trkpt lat="43.71506" lon="4.96209">
        <ele>195.2</ele>
        <time>2026-04-16T13:32:21.256Z</time>
      </trkpt>
      <trkpt lat="43.71501" lon="4.96211">
        <ele>194.25</ele>
        <time>2026-04-16T13:32:26.416Z</time>
      </trkpt>
      <trkpt lat="43.71496" lon="4.96215">
        <ele>193.04</ele>
        <time>2026-04-16T13:32:31.778Z</time>
      </trkpt>
      <trkpt lat="43.71491" lon="4.96215">
        <ele>192.81</ele>
        <time>2026-04-16T13:32:37.238Z</time>
      </trkpt>
      <trkpt lat="43.71485" lon="4.96217">
        <ele>191.69</ele>
        <time>2026-04-16T13:32:42.995Z</time>
      </trkpt>
      <trkpt lat="43.71481" lon="4.96218">
        <ele>191.12</ele>
        <time>2026-04-16T13:32:48.244Z</time>
      </trkpt>
      <trkpt lat="43.71477" lon="4.96217">
        <ele>190.54</ele>
        <time>2026-04-16T13:32:53.905Z</time>
      </trkpt>
      <trkpt lat="43.71472" lon="4.96215">
        <ele>190.58</ele>
        <time>2026-04-16T13:32:59.396Z</time>
      </trkpt>
      <trkpt lat="43.71468" lon="4.96215">
        <ele>190.34</ele>
        <time>2026-04-16T13:33:04.954Z</time>
      </trkpt>
      <trkpt lat="43.71466" lon="4.96215">
        <ele>189</ele>
        <time>2026-04-16T13:33:10.640Z</time>
      </trkpt>
      <trkpt lat="43.71462" lon="4.96209">
        <ele>189.45</ele>
        <time>2026-04-16T13:33:15.925Z</time>
      </trkpt>
      <trkpt lat="43.71461" lon="4.962">
        <ele>189.12</ele>
        <time>2026-04-16T13:33:20.984Z</time>
      </trkpt>
      <trkpt lat="43.71459" lon="4.96192">
        <ele>188.81</ele>
        <time>2026-04-16T13:33:26.607Z</time>
      </trkpt>
      <trkpt lat="43.71458" lon="4.96184">
        <ele>188.44</ele>
        <time>2026-04-16T13:33:31.927Z</time>
      </trkpt>
      <trkpt lat="43.71456" lon="4.96178">
        <ele>188.44</ele>
        <time>2026-04-16T13:33:37.184Z</time>
      </trkpt>
      <trkpt lat="43.71452" lon="4.96171">
        <ele>188.63</ele>
        <time>2026-04-16T13:33:42.520Z</time>
      </trkpt>
      <trkpt lat="43.71449" lon="4.96165">
        <ele>192.09</ele>
        <time>2026-04-16T13:33:47.689Z</time>
      </trkpt>
      <trkpt lat="43.71446" lon="4.96157">
        <ele>191.13</ele>
        <time>2026-04-16T13:33:53.791Z</time>
      </trkpt>
      <trkpt lat="43.71445" lon="4.96148">
        <ele>188.93</ele>
        <time>2026-04-16T13:33:59.672Z</time>
      </trkpt>
      <trkpt lat="43.71444" lon="4.96142">
        <ele>187.71</ele>
        <time>2026-04-16T13:34:04.908Z</time>
      </trkpt>
      <trkpt lat="43.71443" lon="4.96141">
        <ele>187.16</ele>
        <time>2026-04-16T13:34:11.788Z</time>
      </trkpt>
      <trkpt lat="43.71438" lon="4.96134">
        <ele>186.54</ele>
        <time>2026-04-16T13:34:16.847Z</time>
      </trkpt>
      <trkpt lat="43.71433" lon="4.96127">
        <ele>186.74</ele>
        <time>2026-04-16T13:34:21.994Z</time>
      </trkpt>
      <trkpt lat="43.71427" lon="4.96121">
        <ele>186.19</ele>
        <time>2026-04-16T13:34:28.008Z</time>
      </trkpt>
      <trkpt lat="43.71421" lon="4.96115">
        <ele>186.47</ele>
        <time>2026-04-16T13:34:33.670Z</time>
      </trkpt>
      <trkpt lat="43.71417" lon="4.96109">
        <ele>185.8</ele>
        <time>2026-04-16T13:34:38.966Z</time>
      </trkpt>
      <trkpt lat="43.71412" lon="4.96103">
        <ele>185.45</ele>
        <time>2026-04-16T13:34:44.271Z</time>
      </trkpt>
      <trkpt lat="43.71408" lon="4.96097">
        <ele>184.99</ele>
        <time>2026-04-16T13:34:49.750Z</time>
      </trkpt>
      <trkpt lat="43.71404" lon="4.96092">
        <ele>184.81</ele>
        <time>2026-04-16T13:34:54.977Z</time>
      </trkpt>
      <trkpt lat="43.714" lon="4.96088">
        <ele>184.87</ele>
        <time>2026-04-16T13:34:59.993Z</time>
      </trkpt>
      <trkpt lat="43.71394" lon="4.96083">
        <ele>184.43</ele>
        <time>2026-04-16T13:35:05.971Z</time>
      </trkpt>
      <trkpt lat="43.71391" lon="4.96076">
        <ele>183.94</ele>
        <time>2026-04-16T13:35:11.924Z</time>
      </trkpt>
      <trkpt lat="43.71387" lon="4.96071">
        <ele>183.3</ele>
        <time>2026-04-16T13:35:17.807Z</time>
      </trkpt>
      <trkpt lat="43.71381" lon="4.96065">
        <ele>183.28</ele>
        <time>2026-04-16T13:35:23.665Z</time>
      </trkpt>
      <trkpt lat="43.71376" lon="4.96059">
        <ele>183.04</ele>
        <time>2026-04-16T13:35:28.919Z</time>
      </trkpt>
      <trkpt lat="43.71373" lon="4.96053">
        <ele>183.1</ele>
        <time>2026-04-16T13:35:33.936Z</time>
      </trkpt>
      <trkpt lat="43.7137" lon="4.96048">
        <ele>182.81</ele>
        <time>2026-04-16T13:35:39.914Z</time>
      </trkpt>
      <trkpt lat="43.71368" lon="4.96039">
        <ele>182.11</ele>
        <time>2026-04-16T13:35:45.965Z</time>
      </trkpt>
      <trkpt lat="43.71364" lon="4.96031">
        <ele>182.26</ele>
        <time>2026-04-16T13:35:51.809Z</time>
      </trkpt>
      <trkpt lat="43.71361" lon="4.96023">
        <ele>182.38</ele>
        <time>2026-04-16T13:35:56.885Z</time>
      </trkpt>
      <trkpt lat="43.7136" lon="4.96016">
        <ele>182.37</ele>
        <time>2026-04-16T13:36:01.900Z</time>
      </trkpt>
      <trkpt lat="43.71359" lon="4.96011">
        <ele>182.01</ele>
        <time>2026-04-16T13:36:06.992Z</time>
      </trkpt>
      <trkpt lat="43.71358" lon="4.96003">
        <ele>181.58</ele>
        <time>2026-04-16T13:36:12.987Z</time>
      </trkpt>
      <trkpt lat="43.71357" lon="4.95996">
        <ele>181.77</ele>
        <time>2026-04-16T13:36:18.979Z</time>
      </trkpt>
      <trkpt lat="43.71358" lon="4.95987">
        <ele>181.17</ele>
        <time>2026-04-16T13:36:25.003Z</time>
      </trkpt>
      <trkpt lat="43.71358" lon="4.95979">
        <ele>180.9</ele>
        <time>2026-04-16T13:36:30.288Z</time>
      </trkpt>
      <trkpt lat="43.71359" lon="4.95971">
        <ele>180.61</ele>
        <time>2026-04-16T13:36:35.926Z</time>
      </trkpt>
      <trkpt lat="43.71357" lon="4.95963">
        <ele>180.24</ele>
        <time>2026-04-16T13:36:41.957Z</time>
      </trkpt>
      <trkpt lat="43.71354" lon="4.95955">
        <ele>180.44</ele>
        <time>2026-04-16T13:36:48.012Z</time>
      </trkpt>
      <trkpt lat="43.71352" lon="4.95948">
        <ele>180.02</ele>
        <time>2026-04-16T13:36:53.047Z</time>
      </trkpt>
      <trkpt lat="43.71348" lon="4.95942">
        <ele>179.77</ele>
        <time>2026-04-16T13:36:58.288Z</time>
      </trkpt>
      <trkpt lat="43.71343" lon="4.95936">
        <ele>179.6</ele>
        <time>2026-04-16T13:37:03.915Z</time>
      </trkpt>
      <trkpt lat="43.71337" lon="4.95932">
        <ele>179.24</ele>
        <time>2026-04-16T13:37:09.903Z</time>
      </trkpt>
      <trkpt lat="43.71332" lon="4.95926">
        <ele>179.37</ele>
        <time>2026-04-16T13:37:15.828Z</time>
      </trkpt>
      <trkpt lat="43.71329" lon="4.95919">
        <ele>178.76</ele>
        <time>2026-04-16T13:37:20.992Z</time>
      </trkpt>
      <trkpt lat="43.71326" lon="4.95912">
        <ele>178.71</ele>
        <time>2026-04-16T13:37:26.009Z</time>
      </trkpt>
      <trkpt lat="43.71322" lon="4.95903">
        <ele>178.78</ele>
        <time>2026-04-16T13:37:32.027Z</time>
      </trkpt>
      <trkpt lat="43.71317" lon="4.95898">
        <ele>178.2</ele>
        <time>2026-04-16T13:37:37.671Z</time>
      </trkpt>
      <trkpt lat="43.71311" lon="4.95894">
        <ele>177.73</ele>
        <time>2026-04-16T13:37:43.288Z</time>
      </trkpt>
      <trkpt lat="43.71305" lon="4.95892">
        <ele>177.27</ele>
        <time>2026-04-16T13:37:48.956Z</time>
      </trkpt>
      <trkpt lat="43.71299" lon="4.95892">
        <ele>177.04</ele>
        <time>2026-04-16T13:37:54.145Z</time>
      </trkpt>
      <trkpt lat="43.71295" lon="4.95893">
        <ele>176.87</ele>
        <time>2026-04-16T13:37:59.366Z</time>
      </trkpt>
      <trkpt lat="43.71289" lon="4.95894">
        <ele>175.92</ele>
        <time>2026-04-16T13:38:04.818Z</time>
      </trkpt>
      <trkpt lat="43.71283" lon="4.95898">
        <ele>176.39</ele>
        <time>2026-04-16T13:38:09.983Z</time>
      </trkpt>
      <trkpt lat="43.71278" lon="4.95901">
        <ele>177.46</ele>
        <time>2026-04-16T13:38:15.162Z</time>
      </trkpt>
      <trkpt lat="43.71274" lon="4.95901">
        <ele>176.69</ele>
        <time>2026-04-16T13:38:20.978Z</time>
      </trkpt>
      <trkpt lat="43.71274" lon="4.95898">
        <ele>176.74</ele>
        <time>2026-04-16T13:38:25.979Z</time>
      </trkpt>
      <trkpt lat="43.71273" lon="4.95897">
        <ele>177.42</ele>
        <time>2026-04-16T13:38:31.865Z</time>
      </trkpt>
      <trkpt lat="43.71273" lon="4.95896">
        <ele>177.73</ele>
        <time>2026-04-16T13:38:39.977Z</time>
      </trkpt>
      <trkpt lat="43.71273" lon="4.95897">
        <ele>177.09</ele>
        <time>2026-04-16T13:39:10.932Z</time>
      </trkpt>
      <trkpt lat="43.71273" lon="4.95898">
        <ele>176.8</ele>
        <time>2026-04-16T13:39:26.941Z</time>
      </trkpt>
      <trkpt lat="43.71273" lon="4.95897">
        <ele>179.46</ele>
        <time>2026-04-16T13:39:54.908Z</time>
      </trkpt>
      <trkpt lat="43.71274" lon="4.95896">
        <ele>179.09</ele>
        <time>2026-04-16T13:40:38.523Z</time>
      </trkpt>
      <trkpt lat="43.71274" lon="4.95898">
        <ele>176.26</ele>
        <time>2026-04-16T13:41:27.985Z</time>
      </trkpt>
      <trkpt lat="43.71273" lon="4.95898">
        <ele>173.91</ele>
        <time>2026-04-16T13:41:48.905Z</time>
      </trkpt>
      <trkpt lat="43.71273" lon="4.95897">
        <ele>176.62</ele>
        <time>2026-04-16T13:42:25.952Z</time>
      </trkpt>
      <trkpt lat="43.71273" lon="4.95895">
        <ele>177.36</ele>
        <time>2026-04-16T13:42:35.878Z</time>
      </trkpt>
      <trkpt lat="43.71273" lon="4.95894">
        <ele>177.19</ele>
        <time>2026-04-16T13:42:48.903Z</time>
      </trkpt>
      <trkpt lat="43.71272" lon="4.95894">
        <ele>176.86</ele>
        <time>2026-04-16T13:43:02.887Z</time>
      </trkpt>
      <trkpt lat="43.71273" lon="4.95894">
        <ele>177.56</ele>
        <time>2026-04-16T13:43:22.955Z</time>
      </trkpt>
      <trkpt lat="43.71274" lon="4.95893">
        <ele>178.23</ele>
        <time>2026-04-16T13:43:29.894Z</time>
      </trkpt>
      <trkpt lat="43.71275" lon="4.95893">
        <ele>177.74</ele>
        <time>2026-04-16T13:43:37.899Z</time>
      </trkpt>
      <trkpt lat="43.71275" lon="4.95894">
        <ele>178.3</ele>
        <time>2026-04-16T13:43:54.979Z</time>
      </trkpt>
      <trkpt lat="43.71275" lon="4.95896">
        <ele>179.05</ele>
        <time>2026-04-16T13:44:13.874Z</time>
      </trkpt>
      <trkpt lat="43.71274" lon="4.95896">
        <ele>179.92</ele>
        <time>2026-04-16T13:44:30.953Z</time>
      </trkpt>
      <trkpt lat="43.71274" lon="4.95897">
        <ele>176.48</ele>
        <time>2026-04-16T13:45:19.948Z</time>
      </trkpt>
      <trkpt lat="43.71274" lon="4.95898">
        <ele>176.29</ele>
        <time>2026-04-16T13:45:52.958Z</time>
      </trkpt>
      <trkpt lat="43.71275" lon="4.95899">
        <ele>177.23</ele>
        <time>2026-04-16T13:46:03.923Z</time>
      </trkpt>
      <trkpt lat="43.71276" lon="4.95899">
        <ele>177.45</ele>
        <time>2026-04-16T13:46:10.473Z</time>
      </trkpt>
      <trkpt lat="43.71277" lon="4.95906">
        <ele>175.97</ele>
        <time>2026-04-16T13:46:15.918Z</time>
      </trkpt>
      <trkpt lat="43.71277" lon="4.95912">
        <ele>175.26</ele>
        <time>2026-04-16T13:46:21.963Z</time>
      </trkpt>
      <trkpt lat="43.71276" lon="4.9591">
        <ele>177.31</ele>
        <time>2026-04-16T13:46:26.980Z</time>
      </trkpt>
      <trkpt lat="43.71273" lon="4.95901">
        <ele>176.7</ele>
        <time>2026-04-16T13:46:32.956Z</time>
      </trkpt>
      <trkpt lat="43.71268" lon="4.95896">
        <ele>174.65</ele>
        <time>2026-04-16T13:46:37.973Z</time>
      </trkpt>
      <trkpt lat="43.71262" lon="4.95893">
        <ele>173.7</ele>
        <time>2026-04-16T13:46:42.991Z</time>
      </trkpt>
      <trkpt lat="43.71256" lon="4.95891">
        <ele>175.62</ele>
        <time>2026-04-16T13:46:48.517Z</time>
      </trkpt>
      <trkpt lat="43.7125" lon="4.9589">
        <ele>177.94</ele>
        <time>2026-04-16T13:46:53.936Z</time>
      </trkpt>
      <trkpt lat="43.71245" lon="4.95889">
        <ele>177.52</ele>
        <time>2026-04-16T13:46:59.057Z</time>
      </trkpt>
      <trkpt lat="43.71238" lon="4.95888">
        <ele>177</ele>
        <time>2026-04-16T13:47:05.018Z</time>
      </trkpt>
      <trkpt lat="43.71235" lon="4.95895">
        <ele>176.49</ele>
        <time>2026-04-16T13:47:10.700Z</time>
      </trkpt>
      <trkpt lat="43.71234" lon="4.95902">
        <ele>177.58</ele>
        <time>2026-04-16T13:47:15.976Z</time>
      </trkpt>
      <trkpt lat="43.71237" lon="4.95909">
        <ele>178.51</ele>
        <time>2026-04-16T13:47:21.440Z</time>
      </trkpt>
      <trkpt lat="43.71237" lon="4.95913">
        <ele>181.71</ele>
        <time>2026-04-16T13:47:26.481Z</time>
      </trkpt>
      <trkpt lat="43.71241" lon="4.95916">
        <ele>181.66</ele>
        <time>2026-04-16T13:47:31.816Z</time>
      </trkpt>
      <trkpt lat="43.71245" lon="4.95917">
        <ele>178.4</ele>
        <time>2026-04-16T13:47:36.893Z</time>
      </trkpt>
      <trkpt lat="43.71244" lon="4.95918">
        <ele>181.55</ele>
        <time>2026-04-16T13:47:43.939Z</time>
      </trkpt>
      <trkpt lat="43.71244" lon="4.9592">
        <ele>181.46</ele>
        <time>2026-04-16T13:47:52.963Z</time>
      </trkpt>
      <trkpt lat="43.71244" lon="4.95921">
        <ele>182.25</ele>
        <time>2026-04-16T13:48:06.145Z</time>
      </trkpt>
      <trkpt lat="43.71246" lon="4.95926">
        <ele>181.93</ele>
        <time>2026-04-16T13:48:11.573Z</time>
      </trkpt>
      <trkpt lat="43.71247" lon="4.95933">
        <ele>182.62</ele>
        <time>2026-04-16T13:48:16.829Z</time>
      </trkpt>
      <trkpt lat="43.71248" lon="4.9594">
        <ele>182.82</ele>
        <time>2026-04-16T13:48:22.291Z</time>
      </trkpt>
      <trkpt lat="43.71248" lon="4.95948">
        <ele>184.76</ele>
        <time>2026-04-16T13:48:27.937Z</time>
      </trkpt>
      <trkpt lat="43.71249" lon="4.95954">
        <ele>185.72</ele>
        <time>2026-04-16T13:48:33.251Z</time>
      </trkpt>
      <trkpt lat="43.71249" lon="4.9596">
        <ele>186.33</ele>
        <time>2026-04-16T13:48:38.372Z</time>
      </trkpt>
      <trkpt lat="43.7125" lon="4.95966">
        <ele>186.85</ele>
        <time>2026-04-16T13:48:43.470Z</time>
      </trkpt>
      <trkpt lat="43.7125" lon="4.95973">
        <ele>186.89</ele>
        <time>2026-04-16T13:48:48.726Z</time>
      </trkpt>
      <trkpt lat="43.71251" lon="4.95978">
        <ele>187.07</ele>
        <time>2026-04-16T13:48:54.463Z</time>
      </trkpt>
      <trkpt lat="43.7125" lon="4.95985">
        <ele>188.19</ele>
        <time>2026-04-16T13:48:59.480Z</time>
      </trkpt>
      <trkpt lat="43.71249" lon="4.95996">
        <ele>190.21</ele>
        <time>2026-04-16T13:49:04.993Z</time>
      </trkpt>
      <trkpt lat="43.71246" lon="4.96004">
        <ele>189.74</ele>
        <time>2026-04-16T13:49:10.424Z</time>
      </trkpt>
      <trkpt lat="43.71241" lon="4.96009">
        <ele>188.81</ele>
        <time>2026-04-16T13:49:15.610Z</time>
      </trkpt>
      <trkpt lat="43.71238" lon="4.96016">
        <ele>188.21</ele>
        <time>2026-04-16T13:49:20.769Z</time>
      </trkpt>
      <trkpt lat="43.71236" lon="4.96021">
        <ele>188.69</ele>
        <time>2026-04-16T13:49:25.787Z</time>
      </trkpt>
      <trkpt lat="43.71234" lon="4.96028">
        <ele>189.6</ele>
        <time>2026-04-16T13:49:30.940Z</time>
      </trkpt>
      <trkpt lat="43.71232" lon="4.96035">
        <ele>189.86</ele>
        <time>2026-04-16T13:49:36.504Z</time>
      </trkpt>
      <trkpt lat="43.71231" lon="4.96042">
        <ele>190.75</ele>
        <time>2026-04-16T13:49:41.565Z</time>
      </trkpt>
      <trkpt lat="43.71231" lon="4.96049">
        <ele>190.74</ele>
        <time>2026-04-16T13:49:46.961Z</time>
      </trkpt>
      <trkpt lat="43.7123" lon="4.96055">
        <ele>191.18</ele>
        <time>2026-04-16T13:49:52.347Z</time>
      </trkpt>
      <trkpt lat="43.71228" lon="4.96061">
        <ele>191.97</ele>
        <time>2026-04-16T13:49:57.955Z</time>
      </trkpt>
      <trkpt lat="43.71226" lon="4.96068">
        <ele>192.61</ele>
        <time>2026-04-16T13:50:02.966Z</time>
      </trkpt>
      <trkpt lat="43.71225" lon="4.96075">
        <ele>193</ele>
        <time>2026-04-16T13:50:07.987Z</time>
      </trkpt>
      <trkpt lat="43.71224" lon="4.96081">
        <ele>193.13</ele>
        <time>2026-04-16T13:50:13.265Z</time>
      </trkpt>
      <trkpt lat="43.71222" lon="4.96087">
        <ele>193.76</ele>
        <time>2026-04-16T13:50:18.811Z</time>
      </trkpt>
      <trkpt lat="43.71221" lon="4.96093">
        <ele>195.44</ele>
        <time>2026-04-16T13:50:23.868Z</time>
      </trkpt>
      <trkpt lat="43.71221" lon="4.96096">
        <ele>196.58</ele>
        <time>2026-04-16T13:50:28.922Z</time>
      </trkpt>
      <trkpt lat="43.71221" lon="4.96102">
        <ele>198.01</ele>
        <time>2026-04-16T13:50:34.591Z</time>
      </trkpt>
      <trkpt lat="43.71219" lon="4.96108">
        <ele>199.02</ele>
        <time>2026-04-16T13:50:39.808Z</time>
      </trkpt>
      <trkpt lat="43.71216" lon="4.96115">
        <ele>199.55</ele>
        <time>2026-04-16T13:50:45.981Z</time>
      </trkpt>
      <trkpt lat="43.71213" lon="4.9612">
        <ele>200.34</ele>
        <time>2026-04-16T13:50:51.003Z</time>
      </trkpt>
      <trkpt lat="43.71209" lon="4.96123">
        <ele>201.49</ele>
        <time>2026-04-16T13:50:56.648Z</time>
      </trkpt>
      <trkpt lat="43.71207" lon="4.96127">
        <ele>202.21</ele>
        <time>2026-04-16T13:51:01.997Z</time>
      </trkpt>
      <trkpt lat="43.71206" lon="4.96128">
        <ele>203.4</ele>
        <time>2026-04-16T13:51:07.974Z</time>
      </trkpt>
      <trkpt lat="43.71206" lon="4.9613">
        <ele>203.99</ele>
        <time>2026-04-16T13:51:12.991Z</time>
      </trkpt>
      <trkpt lat="43.71206" lon="4.96132">
        <ele>205.01</ele>
        <time>2026-04-16T13:51:18.279Z</time>
      </trkpt>
      <trkpt lat="43.71207" lon="4.96138">
        <ele>206.89</ele>
        <time>2026-04-16T13:51:23.836Z</time>
      </trkpt>
      <trkpt lat="43.71207" lon="4.96139">
        <ele>207.8</ele>
        <time>2026-04-16T13:51:29.996Z</time>
      </trkpt>
      <trkpt lat="43.71207" lon="4.96142">
        <ele>209.18</ele>
        <time>2026-04-16T13:51:35.595Z</time>
      </trkpt>
      <trkpt lat="43.71207" lon="4.96143">
        <ele>209.71</ele>
        <time>2026-04-16T13:51:40.737Z</time>
      </trkpt>
      <trkpt lat="43.71207" lon="4.96152">
        <ele>210.82</ele>
        <time>2026-04-16T13:51:45.975Z</time>
      </trkpt>
      <trkpt lat="43.71208" lon="4.96161">
        <ele>212.17</ele>
        <time>2026-04-16T13:51:51.259Z</time>
      </trkpt>
      <trkpt lat="43.7121" lon="4.96166">
        <ele>213.32</ele>
        <time>2026-04-16T13:51:56.965Z</time>
      </trkpt>
      <trkpt lat="43.7121" lon="4.96171">
        <ele>214.03</ele>
        <time>2026-04-16T13:52:02.616Z</time>
      </trkpt>
      <trkpt lat="43.71208" lon="4.96174">
        <ele>215.19</ele>
        <time>2026-04-16T13:52:07.960Z</time>
      </trkpt>
      <trkpt lat="43.71208" lon="4.96177">
        <ele>214.62</ele>
        <time>2026-04-16T13:52:12.976Z</time>
      </trkpt>
      <trkpt lat="43.71205" lon="4.96182">
        <ele>215.91</ele>
        <time>2026-04-16T13:52:18.608Z</time>
      </trkpt>
      <trkpt lat="43.71203" lon="4.96188">
        <ele>215.56</ele>
        <time>2026-04-16T13:52:23.926Z</time>
      </trkpt>
      <trkpt lat="43.712" lon="4.96196">
        <ele>216.67</ele>
        <time>2026-04-16T13:52:29.345Z</time>
      </trkpt>
      <trkpt lat="43.71195" lon="4.96205">
        <ele>217.78</ele>
        <time>2026-04-16T13:52:34.844Z</time>
      </trkpt>
      <trkpt lat="43.71189" lon="4.96211">
        <ele>210.83</ele>
        <time>2026-04-16T13:52:40.332Z</time>
      </trkpt>
      <trkpt lat="43.71182" lon="4.96212">
        <ele>223.34</ele>
        <time>2026-04-16T13:52:45.943Z</time>
      </trkpt>
      <trkpt lat="43.71176" lon="4.96208">
        <ele>221.36</ele>
        <time>2026-04-16T13:52:50.985Z</time>
      </trkpt>
      <trkpt lat="43.71173" lon="4.96212">
        <ele>219.95</ele>
        <time>2026-04-16T13:52:56.761Z</time>
      </trkpt>
      <trkpt lat="43.71172" lon="4.96213">
        <ele>220.59</ele>
        <time>2026-04-16T13:53:01.955Z</time>
      </trkpt>
      <trkpt lat="43.7117" lon="4.96216">
        <ele>221.09</ele>
        <time>2026-04-16T13:53:07.178Z</time>
      </trkpt>
      <trkpt lat="43.71167" lon="4.96221">
        <ele>220.79</ele>
        <time>2026-04-16T13:53:12.361Z</time>
      </trkpt>
      <trkpt lat="43.71164" lon="4.96224">
        <ele>221.97</ele>
        <time>2026-04-16T13:53:17.639Z</time>
      </trkpt>
      <trkpt lat="43.71164" lon="4.96226">
        <ele>224.02</ele>
        <time>2026-04-16T13:53:23.006Z</time>
      </trkpt>
      <trkpt lat="43.71163" lon="4.96227">
        <ele>226.96</ele>
        <time>2026-04-16T13:53:28.517Z</time>
      </trkpt>
      <trkpt lat="43.71159" lon="4.9623">
        <ele>226.87</ele>
        <time>2026-04-16T13:53:33.558Z</time>
      </trkpt>
      <trkpt lat="43.71156" lon="4.96231">
        <ele>226.17</ele>
        <time>2026-04-16T13:53:38.958Z</time>
      </trkpt>
      <trkpt lat="43.71154" lon="4.96231">
        <ele>227.42</ele>
        <time>2026-04-16T13:53:44.696Z</time>
      </trkpt>
      <trkpt lat="43.7115" lon="4.96231">
        <ele>229.02</ele>
        <time>2026-04-16T13:53:49.922Z</time>
      </trkpt>
      <trkpt lat="43.71145" lon="4.96231">
        <ele>229.75</ele>
        <time>2026-04-16T13:53:55.262Z</time>
      </trkpt>
      <trkpt lat="43.7114" lon="4.9623">
        <ele>230.7</ele>
        <time>2026-04-16T13:54:00.539Z</time>
      </trkpt>
      <trkpt lat="43.71136" lon="4.96229">
        <ele>231.77</ele>
        <time>2026-04-16T13:54:05.951Z</time>
      </trkpt>
      <trkpt lat="43.71133" lon="4.96229">
        <ele>232.97</ele>
        <time>2026-04-16T13:54:11.381Z</time>
      </trkpt>
      <trkpt lat="43.71128" lon="4.96229">
        <ele>234.45</ele>
        <time>2026-04-16T13:54:16.637Z</time>
      </trkpt>
      <trkpt lat="43.71125" lon="4.96229">
        <ele>235.73</ele>
        <time>2026-04-16T13:54:21.681Z</time>
      </trkpt>
      <trkpt lat="43.71121" lon="4.96228">
        <ele>236.39</ele>
        <time>2026-04-16T13:54:27.005Z</time>
      </trkpt>
      <trkpt lat="43.71117" lon="4.96227">
        <ele>237.6</ele>
        <time>2026-04-16T13:54:32.638Z</time>
      </trkpt>
      <trkpt lat="43.71116" lon="4.96228">
        <ele>237.24</ele>
        <time>2026-04-16T13:54:37.999Z</time>
      </trkpt>
      <trkpt lat="43.71115" lon="4.96227">
        <ele>237.17</ele>
        <time>2026-04-16T13:55:02.975Z</time>
      </trkpt>
      <trkpt lat="43.71116" lon="4.96228">
        <ele>236.6</ele>
        <time>2026-04-16T13:56:02.963Z</time>
      </trkpt>
      <trkpt lat="43.71116" lon="4.96227">
        <ele>234.24</ele>
        <time>2026-04-16T13:56:21.963Z</time>
      </trkpt>
      <trkpt lat="43.71117" lon="4.96226">
        <ele>238.35</ele>
        <time>2026-04-16T13:56:46.940Z</time>
      </trkpt>
      <trkpt lat="43.71116" lon="4.96227">
        <ele>235.62</ele>
        <time>2026-04-16T13:57:19.921Z</time>
      </trkpt>
      <trkpt lat="43.71117" lon="4.96228">
        <ele>235.61</ele>
        <time>2026-04-16T13:57:35.933Z</time>
      </trkpt>
      <trkpt lat="43.71118" lon="4.96228">
        <ele>234.94</ele>
        <time>2026-04-16T13:57:44.607Z</time>
      </trkpt>
      <trkpt lat="43.71119" lon="4.96229">
        <ele>235.06</ele>
        <time>2026-04-16T13:57:49.821Z</time>
      </trkpt>
      <trkpt lat="43.7112" lon="4.9623">
        <ele>239.18</ele>
        <time>2026-04-16T13:57:56.848Z</time>
      </trkpt>
      <trkpt lat="43.71122" lon="4.96231">
        <ele>240.53</ele>
        <time>2026-04-16T13:58:02.937Z</time>
      </trkpt>
      <trkpt lat="43.71125" lon="4.96234">
        <ele>240.37</ele>
        <time>2026-04-16T13:58:07.964Z</time>
      </trkpt>
      <trkpt lat="43.71128" lon="4.96239">
        <ele>241.14</ele>
        <time>2026-04-16T13:58:12.969Z</time>
      </trkpt>
      <trkpt lat="43.71128" lon="4.96241">
        <ele>242.57</ele>
        <time>2026-04-16T13:58:17.985Z</time>
      </trkpt>
      <trkpt lat="43.71127" lon="4.96242">
        <ele>242.7</ele>
        <time>2026-04-16T13:58:23.003Z</time>
      </trkpt>
      <trkpt lat="43.71127" lon="4.96244">
        <ele>239.25</ele>
        <time>2026-04-16T13:58:33.565Z</time>
      </trkpt>
      <trkpt lat="43.71128" lon="4.96246">
        <ele>243.44</ele>
        <time>2026-04-16T13:58:39.033Z</time>
      </trkpt>
      <trkpt lat="43.71128" lon="4.96249">
        <ele>242.77</ele>
        <time>2026-04-16T13:58:45.008Z</time>
      </trkpt>
      <trkpt lat="43.71127" lon="4.9625">
        <ele>243.66</ele>
        <time>2026-04-16T13:58:50.797Z</time>
      </trkpt>
      <trkpt lat="43.71128" lon="4.96252">
        <ele>245.77</ele>
        <time>2026-04-16T13:58:58.413Z</time>
      </trkpt>
      <trkpt lat="43.71129" lon="4.96254">
        <ele>243.88</ele>
        <time>2026-04-16T13:59:03.573Z</time>
      </trkpt>
      <trkpt lat="43.71132" lon="4.96262">
        <ele>242.19</ele>
        <time>2026-04-16T13:59:09.023Z</time>
      </trkpt>
      <trkpt lat="43.71132" lon="4.96271">
        <ele>241.93</ele>
        <time>2026-04-16T13:59:14.798Z</time>
      </trkpt>
      <trkpt lat="43.71133" lon="4.96275">
        <ele>242.44</ele>
        <time>2026-04-16T13:59:19.830Z</time>
      </trkpt>
      <trkpt lat="43.71134" lon="4.96279">
        <ele>243.66</ele>
        <time>2026-04-16T13:59:24.934Z</time>
      </trkpt>
      <trkpt lat="43.71135" lon="4.96279">
        <ele>242.01</ele>
        <time>2026-04-16T13:59:31.979Z</time>
      </trkpt>
      <trkpt lat="43.71136" lon="4.9628">
        <ele>243.73</ele>
        <time>2026-04-16T13:59:37.957Z</time>
      </trkpt>
      <trkpt lat="43.71136" lon="4.96278">
        <ele>244.3</ele>
        <time>2026-04-16T13:59:45.962Z</time>
      </trkpt>
      <trkpt lat="43.71137" lon="4.96278">
        <ele>247.19</ele>
        <time>2026-04-16T13:59:53.008Z</time>
      </trkpt>
      <trkpt lat="43.71141" lon="4.96279">
        <ele>245.21</ele>
        <time>2026-04-16T13:59:58.855Z</time>
      </trkpt>
      <trkpt lat="43.71145" lon="4.96283">
        <ele>244.27</ele>
        <time>2026-04-16T14:00:04.569Z</time>
      </trkpt>
      <trkpt lat="43.71146" lon="4.96287">
        <ele>244.33</ele>
        <time>2026-04-16T14:00:09.975Z</time>
      </trkpt>
      <trkpt lat="43.71146" lon="4.96288">
        <ele>246.38</ele>
        <time>2026-04-16T14:00:15.953Z</time>
      </trkpt>
      <trkpt lat="43.71148" lon="4.96291">
        <ele>244.67</ele>
        <time>2026-04-16T14:00:21.758Z</time>
      </trkpt>
      <trkpt lat="43.71149" lon="4.96295">
        <ele>245.75</ele>
        <time>2026-04-16T14:00:26.946Z</time>
      </trkpt>
      <trkpt lat="43.71149" lon="4.96297">
        <ele>250.11</ele>
        <time>2026-04-16T14:00:31.981Z</time>
      </trkpt>
      <trkpt lat="43.71149" lon="4.96299">
        <ele>249.67</ele>
        <time>2026-04-16T14:00:38.002Z</time>
      </trkpt>
      <trkpt lat="43.7115" lon="4.96299">
        <ele>250.66</ele>
        <time>2026-04-16T14:00:47.013Z</time>
      </trkpt>
      <trkpt lat="43.7115" lon="4.963">
        <ele>251.51</ele>
        <time>2026-04-16T14:00:55.007Z</time>
      </trkpt>
      <trkpt lat="43.71151" lon="4.96301">
        <ele>254.64</ele>
        <time>2026-04-16T14:01:02.920Z</time>
      </trkpt>
      <trkpt lat="43.71151" lon="4.96303">
        <ele>254.46</ele>
        <time>2026-04-16T14:01:10.950Z</time>
      </trkpt>
      <trkpt lat="43.71152" lon="4.96303">
        <ele>256.77</ele>
        <time>2026-04-16T14:01:18.702Z</time>
      </trkpt>
      <trkpt lat="43.71152" lon="4.96305">
        <ele>257.58</ele>
        <time>2026-04-16T14:01:26.726Z</time>
      </trkpt>
      <trkpt lat="43.71153" lon="4.96305">
        <ele>259.12</ele>
        <time>2026-04-16T14:01:36.786Z</time>
      </trkpt>
      <trkpt lat="43.71154" lon="4.96307">
        <ele>256.79</ele>
        <time>2026-04-16T14:01:42.827Z</time>
      </trkpt>
      <trkpt lat="43.7116" lon="4.96312">
        <ele>254.74</ele>
        <time>2026-04-16T14:01:47.962Z</time>
      </trkpt>
      <trkpt lat="43.71162" lon="4.96315">
        <ele>258.77</ele>
        <time>2026-04-16T14:01:52.978Z</time>
      </trkpt>
      <trkpt lat="43.71163" lon="4.96315">
        <ele>256.99</ele>
        <time>2026-04-16T14:01:57.995Z</time>
      </trkpt>
      <trkpt lat="43.71165" lon="4.96317">
        <ele>255.48</ele>
        <time>2026-04-16T14:02:03.012Z</time>
      </trkpt>
      <trkpt lat="43.71166" lon="4.96318">
        <ele>255.93</ele>
        <time>2026-04-16T14:02:08.988Z</time>
      </trkpt>
      <trkpt lat="43.71167" lon="4.96319">
        <ele>259.65</ele>
        <time>2026-04-16T14:02:15.788Z</time>
      </trkpt>
      <trkpt lat="43.71169" lon="4.96321">
        <ele>258.56</ele>
        <time>2026-04-16T14:02:21.557Z</time>
      </trkpt>
      <trkpt lat="43.71169" lon="4.96323">
        <ele>259.15</ele>
        <time>2026-04-16T14:02:27.986Z</time>
      </trkpt>
      <trkpt lat="43.71169" lon="4.96326">
        <ele>260.84</ele>
        <time>2026-04-16T14:02:33.003Z</time>
      </trkpt>
      <trkpt lat="43.71169" lon="4.9633">
        <ele>263.9</ele>
        <time>2026-04-16T14:02:38.019Z</time>
      </trkpt>
      <trkpt lat="43.71169" lon="4.96332">
        <ele>263.5</ele>
        <time>2026-04-16T14:02:43.035Z</time>
      </trkpt>
      <trkpt lat="43.71169" lon="4.96334">
        <ele>262.95</ele>
        <time>2026-04-16T14:02:48.865Z</time>
      </trkpt>
      <trkpt lat="43.71169" lon="4.96335">
        <ele>262.87</ele>
        <time>2026-04-16T14:02:54.029Z</time>
      </trkpt>
      <trkpt lat="43.7117" lon="4.96337">
        <ele>265.28</ele>
        <time>2026-04-16T14:02:59.583Z</time>
      </trkpt>
      <trkpt lat="43.71171" lon="4.96338">
        <ele>269.21</ele>
        <time>2026-04-16T14:03:04.920Z</time>
      </trkpt>
      <trkpt lat="43.71171" lon="4.96339">
        <ele>266.81</ele>
        <time>2026-04-16T14:03:09.941Z</time>
      </trkpt>
      <trkpt lat="43.71173" lon="4.96344">
        <ele>265.74</ele>
        <time>2026-04-16T14:03:15.557Z</time>
      </trkpt>
      <trkpt lat="43.71175" lon="4.96348">
        <ele>266.48</ele>
        <time>2026-04-16T14:03:20.940Z</time>
      </trkpt>
      <trkpt lat="43.71177" lon="4.9635">
        <ele>267.02</ele>
        <time>2026-04-16T14:03:26.057Z</time>
      </trkpt>
      <trkpt lat="43.7118" lon="4.96353">
        <ele>269.72</ele>
        <time>2026-04-16T14:03:31.434Z</time>
      </trkpt>
      <trkpt lat="43.71183" lon="4.96356">
        <ele>272.14</ele>
        <time>2026-04-16T14:03:36.502Z</time>
      </trkpt>
      <trkpt lat="43.71186" lon="4.96359">
        <ele>271.78</ele>
        <time>2026-04-16T14:03:41.839Z</time>
      </trkpt>
      <trkpt lat="43.71189" lon="4.96362">
        <ele>273.01</ele>
        <time>2026-04-16T14:03:46.976Z</time>
      </trkpt>
      <trkpt lat="43.7119" lon="4.96364">
        <ele>274.67</ele>
        <time>2026-04-16T14:03:52.937Z</time>
      </trkpt>
      <trkpt lat="43.71191" lon="4.96366">
        <ele>274.83</ele>
        <time>2026-04-16T14:03:58.029Z</time>
      </trkpt>
      <trkpt lat="43.71191" lon="4.96367">
        <ele>275.28</ele>
        <time>2026-04-16T14:04:03.799Z</time>
      </trkpt>
      <trkpt lat="43.71191" lon="4.96368">
        <ele>276.6</ele>
        <time>2026-04-16T14:04:09.980Z</time>
      </trkpt>
      <trkpt lat="43.71192" lon="4.9637">
        <ele>276.74</ele>
        <time>2026-04-16T14:04:16.016Z</time>
      </trkpt>
      <trkpt lat="43.71192" lon="4.96371">
        <ele>275.29</ele>
        <time>2026-04-16T14:04:22.953Z</time>
      </trkpt>
      <trkpt lat="43.71192" lon="4.96372">
        <ele>275.65</ele>
        <time>2026-04-16T14:04:37.899Z</time>
      </trkpt>
      <trkpt lat="43.71194" lon="4.96374">
        <ele>275.93</ele>
        <time>2026-04-16T14:04:43.653Z</time>
      </trkpt>
      <trkpt lat="43.71196" lon="4.96378">
        <ele>276.99</ele>
        <time>2026-04-16T14:04:48.892Z</time>
      </trkpt>
      <trkpt lat="43.71198" lon="4.96384">
        <ele>277.18</ele>
        <time>2026-04-16T14:04:54.540Z</time>
      </trkpt>
      <trkpt lat="43.71198" lon="4.96389">
        <ele>277.91</ele>
        <time>2026-04-16T14:04:59.988Z</time>
      </trkpt>
      <trkpt lat="43.712" lon="4.96396">
        <ele>278.9</ele>
        <time>2026-04-16T14:05:05.639Z</time>
      </trkpt>
      <trkpt lat="43.71201" lon="4.964">
        <ele>281.72</ele>
        <time>2026-04-16T14:05:11.055Z</time>
      </trkpt>
      <trkpt lat="43.71204" lon="4.96403">
        <ele>281.66</ele>
        <time>2026-04-16T14:05:16.694Z</time>
      </trkpt>
      <trkpt lat="43.71207" lon="4.96405">
        <ele>279.34</ele>
        <time>2026-04-16T14:05:22.494Z</time>
      </trkpt>
      <trkpt lat="43.71207" lon="4.96406">
        <ele>283.32</ele>
        <time>2026-04-16T14:05:37.983Z</time>
      </trkpt>
      <trkpt lat="43.71208" lon="4.96407">
        <ele>281.63</ele>
        <time>2026-04-16T14:05:48.015Z</time>
      </trkpt>
      <trkpt lat="43.71209" lon="4.96408">
        <ele>280.3</ele>
        <time>2026-04-16T14:05:53.534Z</time>
      </trkpt>
      <trkpt lat="43.7121" lon="4.9641">
        <ele>282.71</ele>
        <time>2026-04-16T14:05:58.691Z</time>
      </trkpt>
      <trkpt lat="43.71211" lon="4.96411">
        <ele>285.28</ele>
        <time>2026-04-16T14:06:03.975Z</time>
      </trkpt>
      <trkpt lat="43.71214" lon="4.96413">
        <ele>284.33</ele>
        <time>2026-04-16T14:06:09.040Z</time>
      </trkpt>
      <trkpt lat="43.71217" lon="4.96414">
        <ele>287.53</ele>
        <time>2026-04-16T14:06:15.017Z</time>
      </trkpt>
      <trkpt lat="43.71217" lon="4.96414">
        <ele>286.24</ele>
        <time>2026-04-16T14:06:21.979Z</time>
      </trkpt>
      <trkpt lat="43.71218" lon="4.96415">
        <ele>284.34</ele>
        <time>2026-04-16T14:06:27.409Z</time>
      </trkpt>
      <trkpt lat="43.7122" lon="4.96416">
        <ele>288.21</ele>
        <time>2026-04-16T14:06:32.772Z</time>
      </trkpt>
      <trkpt lat="43.71221" lon="4.96418">
        <ele>288.27</ele>
        <time>2026-04-16T14:06:37.790Z</time>
      </trkpt>
      <trkpt lat="43.71221" lon="4.96419">
        <ele>287.73</ele>
        <time>2026-04-16T14:06:42.930Z</time>
      </trkpt>
      <trkpt lat="43.71222" lon="4.9642">
        <ele>291.09</ele>
        <time>2026-04-16T14:06:50.729Z</time>
      </trkpt>
      <trkpt lat="43.71223" lon="4.96422">
        <ele>290.57</ele>
        <time>2026-04-16T14:06:55.756Z</time>
      </trkpt>
      <trkpt lat="43.71224" lon="4.96423">
        <ele>290.28</ele>
        <time>2026-04-16T14:07:00.934Z</time>
      </trkpt>
      <trkpt lat="43.71226" lon="4.96425">
        <ele>290.6</ele>
        <time>2026-04-16T14:07:06.632Z</time>
      </trkpt>
      <trkpt lat="43.71228" lon="4.96426">
        <ele>293.95</ele>
        <time>2026-04-16T14:07:12.027Z</time>
      </trkpt>
      <trkpt lat="43.71229" lon="4.96427">
        <ele>292.46</ele>
        <time>2026-04-16T14:07:18.008Z</time>
      </trkpt>
      <trkpt lat="43.71229" lon="4.96428">
        <ele>294.53</ele>
        <time>2026-04-16T14:07:23.928Z</time>
      </trkpt>
      <trkpt lat="43.7123" lon="4.96429">
        <ele>294.27</ele>
        <time>2026-04-16T14:07:45.010Z</time>
      </trkpt>
      <trkpt lat="43.7123" lon="4.96431">
        <ele>293.92</ele>
        <time>2026-04-16T14:07:50.594Z</time>
      </trkpt>
      <trkpt lat="43.71231" lon="4.96433">
        <ele>294.36</ele>
        <time>2026-04-16T14:07:56.012Z</time>
      </trkpt>
      <trkpt lat="43.71231" lon="4.96434">
        <ele>298.32</ele>
        <time>2026-04-16T14:08:01.978Z</time>
      </trkpt>
      <trkpt lat="43.71229" lon="4.96435">
        <ele>297.79</ele>
        <time>2026-04-16T14:08:07.956Z</time>
      </trkpt>
      <trkpt lat="43.71227" lon="4.96437">
        <ele>296.05</ele>
        <time>2026-04-16T14:08:13.931Z</time>
      </trkpt>
      <trkpt lat="43.71226" lon="4.96439">
        <ele>300.87</ele>
        <time>2026-04-16T14:08:18.983Z</time>
      </trkpt>
      <trkpt lat="43.71225" lon="4.9644">
        <ele>299.91</ele>
        <time>2026-04-16T14:08:24.925Z</time>
      </trkpt>
      <trkpt lat="43.71225" lon="4.96442">
        <ele>295.8</ele>
        <time>2026-04-16T14:08:31.009Z</time>
      </trkpt>
      <trkpt lat="43.71225" lon="4.96443">
        <ele>300.83</ele>
        <time>2026-04-16T14:08:39.013Z</time>
      </trkpt>
      <trkpt lat="43.71226" lon="4.96444">
        <ele>305.4</ele>
        <time>2026-04-16T14:08:46.643Z</time>
      </trkpt>
      <trkpt lat="43.71228" lon="4.96448">
        <ele>306.22</ele>
        <time>2026-04-16T14:08:51.927Z</time>
      </trkpt>
      <trkpt lat="43.71229" lon="4.96448">
        <ele>305.32</ele>
        <time>2026-04-16T14:08:58.971Z</time>
      </trkpt>
      <trkpt lat="43.71229" lon="4.9645">
        <ele>306.39</ele>
        <time>2026-04-16T14:09:06.975Z</time>
      </trkpt>
      <trkpt lat="43.7123" lon="4.96451">
        <ele>305.53</ele>
        <time>2026-04-16T14:09:26.238Z</time>
      </trkpt>
      <trkpt lat="43.7123" lon="4.96452">
        <ele>303.9</ele>
        <time>2026-04-16T14:09:36.982Z</time>
      </trkpt>
      <trkpt lat="43.71234" lon="4.96458">
        <ele>302.56</ele>
        <time>2026-04-16T14:09:42.283Z</time>
      </trkpt>
      <trkpt lat="43.71233" lon="4.96463">
        <ele>301.73</ele>
        <time>2026-04-16T14:09:47.958Z</time>
      </trkpt>
      <trkpt lat="43.71233" lon="4.96467">
        <ele>304.49</ele>
        <time>2026-04-16T14:09:52.974Z</time>
      </trkpt>
      <trkpt lat="43.71232" lon="4.9647">
        <ele>304.61</ele>
        <time>2026-04-16T14:09:58.951Z</time>
      </trkpt>
      <trkpt lat="43.71231" lon="4.96471">
        <ele>305.53</ele>
        <time>2026-04-16T14:10:03.967Z</time>
      </trkpt>
      <trkpt lat="43.71231" lon="4.96473">
        <ele>303.13</ele>
        <time>2026-04-16T14:10:22.365Z</time>
      </trkpt>
      <trkpt lat="43.71231" lon="4.96474">
        <ele>304.74</ele>
        <time>2026-04-16T14:10:32.996Z</time>
      </trkpt>
      <trkpt lat="43.71231" lon="4.96475">
        <ele>303.22</ele>
        <time>2026-04-16T14:10:48.898Z</time>
      </trkpt>
      <trkpt lat="43.7123" lon="4.96476">
        <ele>304.49</ele>
        <time>2026-04-16T14:11:10.991Z</time>
      </trkpt>
      <trkpt lat="43.7123" lon="4.96477">
        <ele>304.69</ele>
        <time>2026-04-16T14:11:18.996Z</time>
      </trkpt>
      <trkpt lat="43.7123" lon="4.9648">
        <ele>306.06</ele>
        <time>2026-04-16T14:11:24.624Z</time>
      </trkpt>
      <trkpt lat="43.7123" lon="4.96482">
        <ele>306.31</ele>
        <time>2026-04-16T14:11:29.985Z</time>
      </trkpt>
      <trkpt lat="43.7123" lon="4.96483">
        <ele>307</ele>
        <time>2026-04-16T14:11:35.644Z</time>
      </trkpt>
      <trkpt lat="43.71229" lon="4.96486">
        <ele>307.82</ele>
        <time>2026-04-16T14:11:40.911Z</time>
      </trkpt>
      <trkpt lat="43.71229" lon="4.96498">
        <ele>307.96</ele>
        <time>2026-04-16T14:11:46.662Z</time>
      </trkpt>
      <trkpt lat="43.71229" lon="4.96506">
        <ele>306.95</ele>
        <time>2026-04-16T14:11:51.970Z</time>
      </trkpt>
      <trkpt lat="43.71228" lon="4.9651">
        <ele>305.23</ele>
        <time>2026-04-16T14:11:56.979Z</time>
      </trkpt>
      <trkpt lat="43.71225" lon="4.96514">
        <ele>301.95</ele>
        <time>2026-04-16T14:12:01.998Z</time>
      </trkpt>
      <trkpt lat="43.71224" lon="4.96518">
        <ele>305.97</ele>
        <time>2026-04-16T14:12:07.670Z</time>
      </trkpt>
      <trkpt lat="43.71224" lon="4.96526">
        <ele>307.75</ele>
        <time>2026-04-16T14:12:12.991Z</time>
      </trkpt>
      <trkpt lat="43.71222" lon="4.96532">
        <ele>306.56</ele>
        <time>2026-04-16T14:12:18.049Z</time>
      </trkpt>
      <trkpt lat="43.71223" lon="4.96538">
        <ele>306.76</ele>
        <time>2026-04-16T14:12:23.708Z</time>
      </trkpt>
      <trkpt lat="43.71224" lon="4.96539">
        <ele>309.61</ele>
        <time>2026-04-16T14:12:29.000Z</time>
      </trkpt>
      <trkpt lat="43.71226" lon="4.9654">
        <ele>310.25</ele>
        <time>2026-04-16T14:12:34.016Z</time>
      </trkpt>
      <trkpt lat="43.71226" lon="4.96541">
        <ele>308.6</ele>
        <time>2026-04-16T14:12:40.026Z</time>
      </trkpt>
      <trkpt lat="43.71227" lon="4.96541">
        <ele>309.42</ele>
        <time>2026-04-16T14:12:50.026Z</time>
      </trkpt>
      <trkpt lat="43.71232" lon="4.96542">
        <ele>308.41</ele>
        <time>2026-04-16T14:12:55.049Z</time>
      </trkpt>
      <trkpt lat="43.71233" lon="4.96546">
        <ele>306.86</ele>
        <time>2026-04-16T14:13:01.019Z</time>
      </trkpt>
      <trkpt lat="43.71234" lon="4.96549">
        <ele>309.01</ele>
        <time>2026-04-16T14:13:07.044Z</time>
      </trkpt>
      <trkpt lat="43.71235" lon="4.9655">
        <ele>308.27</ele>
        <time>2026-04-16T14:13:12.587Z</time>
      </trkpt>
      <trkpt lat="43.71235" lon="4.96552">
        <ele>306.61</ele>
        <time>2026-04-16T14:13:20.016Z</time>
      </trkpt>
      <trkpt lat="43.71237" lon="4.96556">
        <ele>305.5</ele>
        <time>2026-04-16T14:13:25.992Z</time>
      </trkpt>
      <trkpt lat="43.71237" lon="4.96557">
        <ele>308.96</ele>
        <time>2026-04-16T14:13:31.009Z</time>
      </trkpt>
      <trkpt lat="43.71238" lon="4.9656">
        <ele>308.33</ele>
        <time>2026-04-16T14:13:36.368Z</time>
      </trkpt>
      <trkpt lat="43.71239" lon="4.96563">
        <ele>308.4</ele>
        <time>2026-04-16T14:13:42.000Z</time>
      </trkpt>
      <trkpt lat="43.7124" lon="4.96567">
        <ele>306.89</ele>
        <time>2026-04-16T14:13:47.903Z</time>
      </trkpt>
      <trkpt lat="43.71244" lon="4.96574">
        <ele>305.6</ele>
        <time>2026-04-16T14:13:53.382Z</time>
      </trkpt>
      <trkpt lat="43.71247" lon="4.96583">
        <ele>307.48</ele>
        <time>2026-04-16T14:13:58.817Z</time>
      </trkpt>
      <trkpt lat="43.71249" lon="4.96591">
        <ele>308.03</ele>
        <time>2026-04-16T14:14:03.939Z</time>
      </trkpt>
      <trkpt lat="43.71248" lon="4.96593">
        <ele>310.22</ele>
        <time>2026-04-16T14:14:09.004Z</time>
      </trkpt>
      <trkpt lat="43.71246" lon="4.96589">
        <ele>312.5</ele>
        <time>2026-04-16T14:14:14.981Z</time>
      </trkpt>
      <trkpt lat="43.71246" lon="4.96591">
        <ele>310.15</ele>
        <time>2026-04-16T14:14:24.906Z</time>
      </trkpt>
      <trkpt lat="43.71245" lon="4.96592">
        <ele>311.41</ele>
        <time>2026-04-16T14:14:29.924Z</time>
      </trkpt>
      <trkpt lat="43.71244" lon="4.96593">
        <ele>313.46</ele>
        <time>2026-04-16T14:14:34.941Z</time>
      </trkpt>
      <trkpt lat="43.71244" lon="4.96595">
        <ele>314.38</ele>
        <time>2026-04-16T14:14:50.791Z</time>
      </trkpt>
      <trkpt lat="43.71244" lon="4.96598">
        <ele>311.75</ele>
        <time>2026-04-16T14:14:55.991Z</time>
      </trkpt>
      <trkpt lat="43.71244" lon="4.96599">
        <ele>311.98</ele>
        <time>2026-04-16T14:15:17.593Z</time>
      </trkpt>
      <trkpt lat="43.71244" lon="4.96601">
        <ele>311.94</ele>
        <time>2026-04-16T14:15:22.995Z</time>
      </trkpt>
      <trkpt lat="43.71243" lon="4.96606">
        <ele>311.71</ele>
        <time>2026-04-16T14:15:28.011Z</time>
      </trkpt>
      <trkpt lat="43.71243" lon="4.96609">
        <ele>312.23</ele>
        <time>2026-04-16T14:15:33.481Z</time>
      </trkpt>
      <trkpt lat="43.71243" lon="4.96611">
        <ele>313.37</ele>
        <time>2026-04-16T14:15:39.966Z</time>
      </trkpt>
      <trkpt lat="43.71243" lon="4.96612">
        <ele>313.07</ele>
        <time>2026-04-16T14:15:44.982Z</time>
      </trkpt>
      <trkpt lat="43.71243" lon="4.96615">
        <ele>312.79</ele>
        <time>2026-04-16T14:15:50.473Z</time>
      </trkpt>
      <trkpt lat="43.71243" lon="4.96617">
        <ele>313.05</ele>
        <time>2026-04-16T14:15:55.649Z</time>
      </trkpt>
      <trkpt lat="43.71243" lon="4.96621">
        <ele>312.3</ele>
        <time>2026-04-16T14:16:01.369Z</time>
      </trkpt>
      <trkpt lat="43.71243" lon="4.96624">
        <ele>312.2</ele>
        <time>2026-04-16T14:16:06.553Z</time>
      </trkpt>
      <trkpt lat="43.71243" lon="4.96626">
        <ele>312.02</ele>
        <time>2026-04-16T14:16:11.984Z</time>
      </trkpt>
      <trkpt lat="43.71243" lon="4.96627">
        <ele>310.73</ele>
        <time>2026-04-16T14:16:22.018Z</time>
      </trkpt>
      <trkpt lat="43.71243" lon="4.96629">
        <ele>309.39</ele>
        <time>2026-04-16T14:16:30.982Z</time>
      </trkpt>
      <trkpt lat="43.71242" lon="4.9663">
        <ele>305.12</ele>
        <time>2026-04-16T14:16:42.476Z</time>
      </trkpt>
      <trkpt lat="43.71242" lon="4.96631">
        <ele>308.19</ele>
        <time>2026-04-16T14:16:54.036Z</time>
      </trkpt>
      <trkpt lat="43.71242" lon="4.96632">
        <ele>306.45</ele>
        <time>2026-04-16T14:17:02.933Z</time>
      </trkpt>
      <trkpt lat="43.71242" lon="4.96634">
        <ele>306.8</ele>
        <time>2026-04-16T14:17:07.993Z</time>
      </trkpt>
      <trkpt lat="43.71242" lon="4.96637">
        <ele>305.81</ele>
        <time>2026-04-16T14:17:13.033Z</time>
      </trkpt>
      <trkpt lat="43.71241" lon="4.9664">
        <ele>306.34</ele>
        <time>2026-04-16T14:17:18.470Z</time>
      </trkpt>
      <trkpt lat="43.7124" lon="4.96642">
        <ele>306.19</ele>
        <time>2026-04-16T14:17:23.634Z</time>
      </trkpt>
      <trkpt lat="43.71241" lon="4.96651">
        <ele>305.51</ele>
        <time>2026-04-16T14:17:29.027Z</time>
      </trkpt>
      <trkpt lat="43.71238" lon="4.9666">
        <ele>306.05</ele>
        <time>2026-04-16T14:17:34.391Z</time>
      </trkpt>
      <trkpt lat="43.71237" lon="4.96665">
        <ele>306.42</ele>
        <time>2026-04-16T14:17:40.036Z</time>
      </trkpt>
      <trkpt lat="43.71236" lon="4.96669">
        <ele>304.89</ele>
        <time>2026-04-16T14:17:45.052Z</time>
      </trkpt>
      <trkpt lat="43.71235" lon="4.96674">
        <ele>304.93</ele>
        <time>2026-04-16T14:17:50.792Z</time>
      </trkpt>
      <trkpt lat="43.71235" lon="4.96677">
        <ele>304.43</ele>
        <time>2026-04-16T14:17:56.044Z</time>
      </trkpt>
      <trkpt lat="43.71236" lon="4.96679">
        <ele>306.04</ele>
        <time>2026-04-16T14:18:01.155Z</time>
      </trkpt>
      <trkpt lat="43.71236" lon="4.96686">
        <ele>306.89</ele>
        <time>2026-04-16T14:18:07.047Z</time>
      </trkpt>
      <trkpt lat="43.71236" lon="4.96689">
        <ele>306.28</ele>
        <time>2026-04-16T14:18:13.022Z</time>
      </trkpt>
      <trkpt lat="43.71237" lon="4.96692">
        <ele>308.03</ele>
        <time>2026-04-16T14:18:18.791Z</time>
      </trkpt>
      <trkpt lat="43.71237" lon="4.96694">
        <ele>305.13</ele>
        <time>2026-04-16T14:18:24.015Z</time>
      </trkpt>
      <trkpt lat="43.71238" lon="4.96695">
        <ele>309.11</ele>
        <time>2026-04-16T14:18:48.999Z</time>
      </trkpt>
      <trkpt lat="43.71238" lon="4.96697">
        <ele>310.78</ele>
        <time>2026-04-16T14:18:54.975Z</time>
      </trkpt>
      <trkpt lat="43.71238" lon="4.96699">
        <ele>309.18</ele>
        <time>2026-04-16T14:19:05.954Z</time>
      </trkpt>
      <trkpt lat="43.71237" lon="4.967">
        <ele>308.2</ele>
        <time>2026-04-16T14:19:10.985Z</time>
      </trkpt>
      <trkpt lat="43.71236" lon="4.96701">
        <ele>307.32</ele>
        <time>2026-04-16T14:19:16.001Z</time>
      </trkpt>
      <trkpt lat="43.71236" lon="4.96703">
        <ele>305.94</ele>
        <time>2026-04-16T14:19:21.978Z</time>
      </trkpt>
      <trkpt lat="43.71235" lon="4.96705">
        <ele>305.25</ele>
        <time>2026-04-16T14:19:26.995Z</time>
      </trkpt>
      <trkpt lat="43.71234" lon="4.96706">
        <ele>304.86</ele>
        <time>2026-04-16T14:19:32.011Z</time>
      </trkpt>
      <trkpt lat="43.71234" lon="4.96708">
        <ele>303.14</ele>
        <time>2026-04-16T14:19:39.990Z</time>
      </trkpt>
      <trkpt lat="43.71234" lon="4.96711">
        <ele>303.49</ele>
        <time>2026-04-16T14:19:45.675Z</time>
      </trkpt>
      <trkpt lat="43.71233" lon="4.96716">
        <ele>302.73</ele>
        <time>2026-04-16T14:19:51.007Z</time>
      </trkpt>
      <trkpt lat="43.71233" lon="4.96717">
        <ele>303.07</ele>
        <time>2026-04-16T14:19:56.024Z</time>
      </trkpt>
      <trkpt lat="43.71233" lon="4.96719">
        <ele>302.42</ele>
        <time>2026-04-16T14:20:07.977Z</time>
      </trkpt>
      <trkpt lat="43.71234" lon="4.96719">
        <ele>301.59</ele>
        <time>2026-04-16T14:20:31.449Z</time>
      </trkpt>
      <trkpt lat="43.71235" lon="4.96723">
        <ele>302.26</ele>
        <time>2026-04-16T14:20:37.005Z</time>
      </trkpt>
      <trkpt lat="43.71236" lon="4.96727">
        <ele>302.59</ele>
        <time>2026-04-16T14:20:42.040Z</time>
      </trkpt>
      <trkpt lat="43.71236" lon="4.96732">
        <ele>302.77</ele>
        <time>2026-04-16T14:20:47.772Z</time>
      </trkpt>
      <trkpt lat="43.71236" lon="4.96736">
        <ele>301.46</ele>
        <time>2026-04-16T14:20:53.436Z</time>
      </trkpt>
      <trkpt lat="43.71237" lon="4.96739">
        <ele>300.36</ele>
        <time>2026-04-16T14:20:58.852Z</time>
      </trkpt>
      <trkpt lat="43.71237" lon="4.96741">
        <ele>299.77</ele>
        <time>2026-04-16T14:21:04.985Z</time>
      </trkpt>
      <trkpt lat="43.71238" lon="4.96743">
        <ele>299.45</ele>
        <time>2026-04-16T14:21:10.000Z</time>
      </trkpt>
      <trkpt lat="43.71238" lon="4.96744">
        <ele>301.23</ele>
        <time>2026-04-16T14:21:15.016Z</time>
      </trkpt>
      <trkpt lat="43.71238" lon="4.96746">
        <ele>298.95</ele>
        <time>2026-04-16T14:21:34.516Z</time>
      </trkpt>
      <trkpt lat="43.71239" lon="4.96747">
        <ele>298.78</ele>
        <time>2026-04-16T14:21:39.789Z</time>
      </trkpt>
      <trkpt lat="43.7124" lon="4.96748">
        <ele>302.07</ele>
        <time>2026-04-16T14:21:45.552Z</time>
      </trkpt>
      <trkpt lat="43.71241" lon="4.96751">
        <ele>301.91</ele>
        <time>2026-04-16T14:21:50.691Z</time>
      </trkpt>
      <trkpt lat="43.71242" lon="4.96757">
        <ele>302.11</ele>
        <time>2026-04-16T14:21:55.918Z</time>
      </trkpt>
      <trkpt lat="43.71243" lon="4.9676">
        <ele>302.09</ele>
        <time>2026-04-16T14:22:01.014Z</time>
      </trkpt>
      <trkpt lat="43.71245" lon="4.96766">
        <ele>302.51</ele>
        <time>2026-04-16T14:22:06.308Z</time>
      </trkpt>
      <trkpt lat="43.71246" lon="4.96771">
        <ele>303.97</ele>
        <time>2026-04-16T14:22:11.752Z</time>
      </trkpt>
      <trkpt lat="43.71246" lon="4.96773">
        <ele>303.97</ele>
        <time>2026-04-16T14:22:17.069Z</time>
      </trkpt>
      <trkpt lat="43.71246" lon="4.96775">
        <ele>304.97</ele>
        <time>2026-04-16T14:22:22.975Z</time>
      </trkpt>
      <trkpt lat="43.71248" lon="4.96777">
        <ele>305.57</ele>
        <time>2026-04-16T14:22:28.554Z</time>
      </trkpt>
      <trkpt lat="43.71251" lon="4.96779">
        <ele>306.13</ele>
        <time>2026-04-16T14:22:33.992Z</time>
      </trkpt>
      <trkpt lat="43.71255" lon="4.96783">
        <ele>307.03</ele>
        <time>2026-04-16T14:22:39.332Z</time>
      </trkpt>
      <trkpt lat="43.71257" lon="4.96786">
        <ele>306.3</ele>
        <time>2026-04-16T14:22:45.031Z</time>
      </trkpt>
      <trkpt lat="43.71256" lon="4.96788">
        <ele>306.84</ele>
        <time>2026-04-16T14:22:50.271Z</time>
      </trkpt>
      <trkpt lat="43.71256" lon="4.96792">
        <ele>306.87</ele>
        <time>2026-04-16T14:22:55.976Z</time>
      </trkpt>
      <trkpt lat="43.71256" lon="4.96793">
        <ele>311.6</ele>
        <time>2026-04-16T14:23:09.975Z</time>
      </trkpt>
      <trkpt lat="43.71257" lon="4.96794">
        <ele>311.04</ele>
        <time>2026-04-16T14:23:15.951Z</time>
      </trkpt>
      <trkpt lat="43.71257" lon="4.96795">
        <ele>311.92</ele>
        <time>2026-04-16T14:23:20.968Z</time>
      </trkpt>
      <trkpt lat="43.7126" lon="4.96798">
        <ele>311.75</ele>
        <time>2026-04-16T14:23:26.689Z</time>
      </trkpt>
      <trkpt lat="43.71262" lon="4.96802">
        <ele>311.46</ele>
        <time>2026-04-16T14:23:31.959Z</time>
      </trkpt>
      <trkpt lat="43.71263" lon="4.96805">
        <ele>313.59</ele>
        <time>2026-04-16T14:23:36.976Z</time>
      </trkpt>
      <trkpt lat="43.71264" lon="4.96808">
        <ele>314.56</ele>
        <time>2026-04-16T14:23:42.018Z</time>
      </trkpt>
      <trkpt lat="43.71264" lon="4.96809">
        <ele>314.04</ele>
        <time>2026-04-16T14:23:47.035Z</time>
      </trkpt>
      <trkpt lat="43.71265" lon="4.9681">
        <ele>313.8</ele>
        <time>2026-04-16T14:23:54.768Z</time>
      </trkpt>
      <trkpt lat="43.71266" lon="4.96809">
        <ele>318.22</ele>
        <time>2026-04-16T14:24:03.956Z</time>
      </trkpt>
      <trkpt lat="43.71267" lon="4.96811">
        <ele>318.46</ele>
        <time>2026-04-16T14:24:09.432Z</time>
      </trkpt>
      <trkpt lat="43.71268" lon="4.96814">
        <ele>318.82</ele>
        <time>2026-04-16T14:24:14.928Z</time>
      </trkpt>
      <trkpt lat="43.71269" lon="4.96817">
        <ele>319.66</ele>
        <time>2026-04-16T14:24:20.047Z</time>
      </trkpt>
      <trkpt lat="43.7127" lon="4.96819">
        <ele>319.24</ele>
        <time>2026-04-16T14:24:25.480Z</time>
      </trkpt>
      <trkpt lat="43.7127" lon="4.96821">
        <ele>321.27</ele>
        <time>2026-04-16T14:24:31.040Z</time>
      </trkpt>
      <trkpt lat="43.71271" lon="4.96823">
        <ele>321.99</ele>
        <time>2026-04-16T14:24:36.056Z</time>
      </trkpt>
      <trkpt lat="43.71271" lon="4.96831">
        <ele>323.13</ele>
        <time>2026-04-16T14:24:41.831Z</time>
      </trkpt>
      <trkpt lat="43.71273" lon="4.96837">
        <ele>321.96</ele>
        <time>2026-04-16T14:24:47.049Z</time>
      </trkpt>
      <trkpt lat="43.71274" lon="4.9684">
        <ele>323.74</ele>
        <time>2026-04-16T14:24:52.476Z</time>
      </trkpt>
      <trkpt lat="43.71275" lon="4.96842">
        <ele>323.97</ele>
        <time>2026-04-16T14:24:58.050Z</time>
      </trkpt>
      <trkpt lat="43.71275" lon="4.96844">
        <ele>326.28</ele>
        <time>2026-04-16T14:25:04.054Z</time>
      </trkpt>
      <trkpt lat="43.71274" lon="4.9685">
        <ele>326.66</ele>
        <time>2026-04-16T14:25:09.785Z</time>
      </trkpt>
      <trkpt lat="43.71274" lon="4.96856">
        <ele>326.75</ele>
        <time>2026-04-16T14:25:15.018Z</time>
      </trkpt>
      <trkpt lat="43.71272" lon="4.9686">
        <ele>327.17</ele>
        <time>2026-04-16T14:25:20.616Z</time>
      </trkpt>
      <trkpt lat="43.71272" lon="4.96863">
        <ele>327.52</ele>
        <time>2026-04-16T14:25:26.011Z</time>
      </trkpt>
      <trkpt lat="43.71272" lon="4.96865">
        <ele>327.51</ele>
        <time>2026-04-16T14:25:31.027Z</time>
      </trkpt>
      <trkpt lat="43.71273" lon="4.96864">
        <ele>327.12</ele>
        <time>2026-04-16T14:25:39.979Z</time>
      </trkpt>
      <trkpt lat="43.71273" lon="4.96861">
        <ele>330.03</ele>
        <time>2026-04-16T14:25:45.007Z</time>
      </trkpt>
      <trkpt lat="43.71275" lon="4.96859">
        <ele>328.97</ele>
        <time>2026-04-16T14:25:50.985Z</time>
      </trkpt>
      <trkpt lat="43.71275" lon="4.9686">
        <ele>329.3</ele>
        <time>2026-04-16T14:26:01.016Z</time>
      </trkpt>
      <trkpt lat="43.71276" lon="4.96862">
        <ele>332.55</ele>
        <time>2026-04-16T14:26:06.032Z</time>
      </trkpt>
      <trkpt lat="43.71275" lon="4.96864">
        <ele>333.24</ele>
        <time>2026-04-16T14:26:11.048Z</time>
      </trkpt>
      <trkpt lat="43.71275" lon="4.96865">
        <ele>332.09</ele>
        <time>2026-04-16T14:26:18.955Z</time>
      </trkpt>
      <trkpt lat="43.71273" lon="4.96866">
        <ele>332.99</ele>
        <time>2026-04-16T14:26:32.842Z</time>
      </trkpt>
      <trkpt lat="43.71269" lon="4.96871">
        <ele>333.07</ele>
        <time>2026-04-16T14:26:38.544Z</time>
      </trkpt>
      <trkpt lat="43.71266" lon="4.96877">
        <ele>332.4</ele>
        <time>2026-04-16T14:26:43.860Z</time>
      </trkpt>
      <trkpt lat="43.71267" lon="4.9688">
        <ele>331.55</ele>
        <time>2026-04-16T14:26:50.013Z</time>
      </trkpt>
      <trkpt lat="43.71268" lon="4.96879">
        <ele>332.51</ele>
        <time>2026-04-16T14:26:55.621Z</time>
      </trkpt>
      <trkpt lat="43.71269" lon="4.96881">
        <ele>332.83</ele>
        <time>2026-04-16T14:27:00.826Z</time>
      </trkpt>
      <trkpt lat="43.71269" lon="4.96882">
        <ele>332.17</ele>
        <time>2026-04-16T14:27:06.042Z</time>
      </trkpt>
      <trkpt lat="43.71269" lon="4.96885">
        <ele>332.46</ele>
        <time>2026-04-16T14:27:11.047Z</time>
      </trkpt>
      <trkpt lat="43.71269" lon="4.9689">
        <ele>332.82</ele>
        <time>2026-04-16T14:27:16.063Z</time>
      </trkpt>
      <trkpt lat="43.71268" lon="4.96894">
        <ele>332.54</ele>
        <time>2026-04-16T14:27:21.819Z</time>
      </trkpt>
      <trkpt lat="43.71268" lon="4.96895">
        <ele>334.25</ele>
        <time>2026-04-16T14:27:41.055Z</time>
      </trkpt>
      <trkpt lat="43.71268" lon="4.96897">
        <ele>334.05</ele>
        <time>2026-04-16T14:27:49.605Z</time>
      </trkpt>
      <trkpt lat="43.71268" lon="4.96898">
        <ele>335.43</ele>
        <time>2026-04-16T14:27:55.503Z</time>
      </trkpt>
      <trkpt lat="43.71268" lon="4.96899">
        <ele>335.49</ele>
        <time>2026-04-16T14:28:00.606Z</time>
      </trkpt>
      <trkpt lat="43.71269" lon="4.96902">
        <ele>336.88</ele>
        <time>2026-04-16T14:28:06.046Z</time>
      </trkpt>
      <trkpt lat="43.71269" lon="4.96903">
        <ele>338.66</ele>
        <time>2026-04-16T14:28:14.490Z</time>
      </trkpt>
      <trkpt lat="43.71271" lon="4.96905">
        <ele>338.81</ele>
        <time>2026-04-16T14:28:19.683Z</time>
      </trkpt>
      <trkpt lat="43.71272" lon="4.96907">
        <ele>340.39</ele>
        <time>2026-04-16T14:28:25.043Z</time>
      </trkpt>
      <trkpt lat="43.71273" lon="4.96906">
        <ele>342.23</ele>
        <time>2026-04-16T14:28:48.498Z</time>
      </trkpt>
      <trkpt lat="43.71272" lon="4.96906">
        <ele>341.32</ele>
        <time>2026-04-16T14:28:58.992Z</time>
      </trkpt>
      <trkpt lat="43.7127" lon="4.96905">
        <ele>342.49</ele>
        <time>2026-04-16T14:29:04.008Z</time>
      </trkpt>
      <trkpt lat="43.71271" lon="4.96905">
        <ele>343.79</ele>
        <time>2026-04-16T14:29:36.989Z</time>
      </trkpt>
      <trkpt lat="43.71273" lon="4.96906">
        <ele>343.42</ele>
        <time>2026-04-16T14:29:42.005Z</time>
      </trkpt>
      <trkpt lat="43.71274" lon="4.96906">
        <ele>342.21</ele>
        <time>2026-04-16T14:29:48.943Z</time>
      </trkpt>
      <trkpt lat="43.71274" lon="4.96909">
        <ele>342.57</ele>
        <time>2026-04-16T14:29:54.415Z</time>
      </trkpt>
      <trkpt lat="43.71271" lon="4.96919">
        <ele>342.36</ele>
        <time>2026-04-16T14:29:59.895Z</time>
      </trkpt>
      <trkpt lat="43.7127" lon="4.96924">
        <ele>342.97</ele>
        <time>2026-04-16T14:30:05.060Z</time>
      </trkpt>
      <trkpt lat="43.71269" lon="4.96927">
        <ele>345.15</ele>
        <time>2026-04-16T14:30:10.354Z</time>
      </trkpt>
      <trkpt lat="43.71269" lon="4.96929">
        <ele>345.11</ele>
        <time>2026-04-16T14:30:16.054Z</time>
      </trkpt>
      <trkpt lat="43.71269" lon="4.9693">
        <ele>343.97</ele>
        <time>2026-04-16T14:30:24.059Z</time>
      </trkpt>
      <trkpt lat="43.71268" lon="4.96931">
        <ele>346.3</ele>
        <time>2026-04-16T14:30:37.660Z</time>
      </trkpt>
      <trkpt lat="43.71268" lon="4.96934">
        <ele>345.48</ele>
        <time>2026-04-16T14:30:42.758Z</time>
      </trkpt>
      <trkpt lat="43.71269" lon="4.96938">
        <ele>347.15</ele>
        <time>2026-04-16T14:30:47.976Z</time>
      </trkpt>
      <trkpt lat="43.71269" lon="4.96939">
        <ele>347.17</ele>
        <time>2026-04-16T14:30:53.628Z</time>
      </trkpt>
      <trkpt lat="43.7127" lon="4.96942">
        <ele>348.92</ele>
        <time>2026-04-16T14:31:00.036Z</time>
      </trkpt>
      <trkpt lat="43.71271" lon="4.96945">
        <ele>349.74</ele>
        <time>2026-04-16T14:31:05.053Z</time>
      </trkpt>
      <trkpt lat="43.71272" lon="4.96948">
        <ele>348.32</ele>
        <time>2026-04-16T14:31:11.029Z</time>
      </trkpt>
      <trkpt lat="43.71272" lon="4.96949">
        <ele>346.05</ele>
        <time>2026-04-16T14:31:19.928Z</time>
      </trkpt>
      <trkpt lat="43.71271" lon="4.9695">
        <ele>352.93</ele>
        <time>2026-04-16T14:31:25.972Z</time>
      </trkpt>
      <trkpt lat="43.71271" lon="4.96951">
        <ele>352.57</ele>
        <time>2026-04-16T14:31:49.012Z</time>
      </trkpt>
      <trkpt lat="43.71271" lon="4.96954">
        <ele>353.51</ele>
        <time>2026-04-16T14:31:54.043Z</time>
      </trkpt>
      <trkpt lat="43.71271" lon="4.96957">
        <ele>354.44</ele>
        <time>2026-04-16T14:31:59.058Z</time>
      </trkpt>
      <trkpt lat="43.7127" lon="4.9696">
        <ele>355.88</ele>
        <time>2026-04-16T14:32:04.888Z</time>
      </trkpt>
      <trkpt lat="43.71271" lon="4.96962">
        <ele>356.36</ele>
        <time>2026-04-16T14:32:10.010Z</time>
      </trkpt>
      <trkpt lat="43.71271" lon="4.96963">
        <ele>357.5</ele>
        <time>2026-04-16T14:32:18.057Z</time>
      </trkpt>
      <trkpt lat="43.7127" lon="4.96965">
        <ele>357.74</ele>
        <time>2026-04-16T14:32:25.955Z</time>
      </trkpt>
      <trkpt lat="43.71271" lon="4.96966">
        <ele>358.54</ele>
        <time>2026-04-16T14:32:32.999Z</time>
      </trkpt>
      <trkpt lat="43.71271" lon="4.96967">
        <ele>358.41</ele>
        <time>2026-04-16T14:32:47.922Z</time>
      </trkpt>
      <trkpt lat="43.71271" lon="4.96968">
        <ele>358.02</ele>
        <time>2026-04-16T14:33:11.922Z</time>
      </trkpt>
      <trkpt lat="43.7127" lon="4.9697">
        <ele>358.38</ele>
        <time>2026-04-16T14:33:31.924Z</time>
      </trkpt>
      <trkpt lat="43.7127" lon="4.96971">
        <ele>358.3</ele>
        <time>2026-04-16T14:33:40.922Z</time>
      </trkpt>
      <trkpt lat="43.7127" lon="4.9697">
        <ele>357.89</ele>
        <time>2026-04-16T14:33:45.922Z</time>
      </trkpt>
      <trkpt lat="43.7127" lon="4.96969">
        <ele>358.68</ele>
        <time>2026-04-16T14:34:00.945Z</time>
      </trkpt>
      <trkpt lat="43.71269" lon="4.96968">
        <ele>359.32</ele>
        <time>2026-04-16T14:35:08.465Z</time>
      </trkpt>
      <trkpt lat="43.71268" lon="4.9697">
        <ele>358.55</ele>
        <time>2026-04-16T14:35:18.007Z</time>
      </trkpt>
      <trkpt lat="43.71269" lon="4.96971">
        <ele>358.87</ele>
        <time>2026-04-16T14:35:23.024Z</time>
      </trkpt>
      <trkpt lat="43.71268" lon="4.96972">
        <ele>358.62</ele>
        <time>2026-04-16T14:35:28.666Z</time>
      </trkpt>
      <trkpt lat="43.71268" lon="4.96974">
        <ele>358.59</ele>
        <time>2026-04-16T14:35:49.067Z</time>
      </trkpt>
      <trkpt lat="43.71268" lon="4.96973">
        <ele>359.72</ele>
        <time>2026-04-16T14:36:00.642Z</time>
      </trkpt>
      <trkpt lat="43.71266" lon="4.96973">
        <ele>358.76</ele>
        <time>2026-04-16T14:36:06.038Z</time>
      </trkpt>
      <trkpt lat="43.71265" lon="4.96976">
        <ele>358.17</ele>
        <time>2026-04-16T14:36:12.015Z</time>
      </trkpt>
      <trkpt lat="43.71264" lon="4.96977">
        <ele>358.49</ele>
        <time>2026-04-16T14:36:17.991Z</time>
      </trkpt>
      <trkpt lat="43.71263" lon="4.96978">
        <ele>362.09</ele>
        <time>2026-04-16T14:36:26.892Z</time>
      </trkpt>
      <trkpt lat="43.71263" lon="4.9698">
        <ele>361.45</ele>
        <time>2026-04-16T14:36:32.493Z</time>
      </trkpt>
      <trkpt lat="43.71264" lon="4.96986">
        <ele>360.9</ele>
        <time>2026-04-16T14:36:37.965Z</time>
      </trkpt>
      <trkpt lat="43.71264" lon="4.96989">
        <ele>360.9</ele>
        <time>2026-04-16T14:36:42.986Z</time>
      </trkpt>
      <trkpt lat="43.71265" lon="4.96991">
        <ele>361.72</ele>
        <time>2026-04-16T14:36:48.861Z</time>
      </trkpt>
      <trkpt lat="43.71264" lon="4.96993">
        <ele>363.25</ele>
        <time>2026-04-16T14:36:54.260Z</time>
      </trkpt>
      <trkpt lat="43.71263" lon="4.96995">
        <ele>364.49</ele>
        <time>2026-04-16T14:36:59.498Z</time>
      </trkpt>
      <trkpt lat="43.71262" lon="4.96996">
        <ele>365.15</ele>
        <time>2026-04-16T14:37:07.011Z</time>
      </trkpt>
      <trkpt lat="43.71262" lon="4.96997">
        <ele>366.45</ele>
        <time>2026-04-16T14:37:17.265Z</time>
      </trkpt>
      <trkpt lat="43.71262" lon="4.96999">
        <ele>367.06</ele>
        <time>2026-04-16T14:37:23.030Z</time>
      </trkpt>
      <trkpt lat="43.71262" lon="4.97001">
        <ele>368.24</ele>
        <time>2026-04-16T14:37:28.045Z</time>
      </trkpt>
      <trkpt lat="43.71261" lon="4.97002">
        <ele>369.29</ele>
        <time>2026-04-16T14:37:33.063Z</time>
      </trkpt>
      <trkpt lat="43.71261" lon="4.97004">
        <ele>370.15</ele>
        <time>2026-04-16T14:37:44.584Z</time>
      </trkpt>
      <trkpt lat="43.71262" lon="4.97005">
        <ele>371.2</ele>
        <time>2026-04-16T14:37:50.993Z</time>
      </trkpt>
      <trkpt lat="43.71262" lon="4.97006">
        <ele>371.32</ele>
        <time>2026-04-16T14:37:56.010Z</time>
      </trkpt>
      <trkpt lat="43.71262" lon="4.97009">
        <ele>372.07</ele>
        <time>2026-04-16T14:38:01.044Z</time>
      </trkpt>
      <trkpt lat="43.71262" lon="4.97011">
        <ele>372.9</ele>
        <time>2026-04-16T14:38:06.061Z</time>
      </trkpt>
      <trkpt lat="43.7126" lon="4.97014">
        <ele>373.95</ele>
        <time>2026-04-16T14:38:12.047Z</time>
      </trkpt>
      <trkpt lat="43.7126" lon="4.97015">
        <ele>375.27</ele>
        <time>2026-04-16T14:38:17.063Z</time>
      </trkpt>
      <trkpt lat="43.71261" lon="4.97017">
        <ele>376.14</ele>
        <time>2026-04-16T14:38:23.039Z</time>
      </trkpt>
      <trkpt lat="43.71261" lon="4.97019">
        <ele>376.48</ele>
        <time>2026-04-16T14:38:28.057Z</time>
      </trkpt>
      <trkpt lat="43.71261" lon="4.97021">
        <ele>376.62</ele>
        <time>2026-04-16T14:38:34.034Z</time>
      </trkpt>
      <trkpt lat="43.71261" lon="4.97022">
        <ele>376.2</ele>
        <time>2026-04-16T14:38:39.049Z</time>
      </trkpt>
      <trkpt lat="43.71262" lon="4.97024">
        <ele>376.39</ele>
        <time>2026-04-16T14:38:44.066Z</time>
      </trkpt>
      <trkpt lat="43.71262" lon="4.97026">
        <ele>377.1</ele>
        <time>2026-04-16T14:38:49.083Z</time>
      </trkpt>
      <trkpt lat="43.71261" lon="4.97027">
        <ele>376.07</ele>
        <time>2026-04-16T14:39:06.663Z</time>
      </trkpt>
      <trkpt lat="43.71262" lon="4.97029">
        <ele>374.64</ele>
        <time>2026-04-16T14:39:12.031Z</time>
      </trkpt>
      <trkpt lat="43.71263" lon="4.97031">
        <ele>374.57</ele>
        <time>2026-04-16T14:39:17.046Z</time>
      </trkpt>
      <trkpt lat="43.71265" lon="4.97033">
        <ele>374.59</ele>
        <time>2026-04-16T14:39:22.064Z</time>
      </trkpt>
      <trkpt lat="43.71265" lon="4.97035">
        <ele>375.03</ele>
        <time>2026-04-16T14:39:28.041Z</time>
      </trkpt>
      <trkpt lat="43.71264" lon="4.97038">
        <ele>375.6</ele>
        <time>2026-04-16T14:39:34.034Z</time>
      </trkpt>
      <trkpt lat="43.71264" lon="4.97039">
        <ele>375.96</ele>
        <time>2026-04-16T14:39:39.052Z</time>
      </trkpt>
      <trkpt lat="43.71264" lon="4.9704">
        <ele>374.97</ele>
        <time>2026-04-16T14:39:47.057Z</time>
      </trkpt>
      <trkpt lat="43.71264" lon="4.97042">
        <ele>375.21</ele>
        <time>2026-04-16T14:39:54.957Z</time>
      </trkpt>
      <trkpt lat="43.71265" lon="4.97043">
        <ele>374.8</ele>
        <time>2026-04-16T14:40:01.038Z</time>
      </trkpt>
      <trkpt lat="43.71265" lon="4.97046">
        <ele>373.77</ele>
        <time>2026-04-16T14:40:06.055Z</time>
      </trkpt>
      <trkpt lat="43.71265" lon="4.9705">
        <ele>373.65</ele>
        <time>2026-04-16T14:40:11.999Z</time>
      </trkpt>
      <trkpt lat="43.71265" lon="4.97051">
        <ele>373.58</ele>
        <time>2026-04-16T14:40:17.048Z</time>
      </trkpt>
      <trkpt lat="43.71266" lon="4.97052">
        <ele>372.75</ele>
        <time>2026-04-16T14:41:17.076Z</time>
      </trkpt>
      <trkpt lat="43.71267" lon="4.97053">
        <ele>371.87</ele>
        <time>2026-04-16T14:42:11.035Z</time>
      </trkpt>
      <trkpt lat="43.71267" lon="4.97054">
        <ele>372.07</ele>
        <time>2026-04-16T14:42:26.937Z</time>
      </trkpt>
      <trkpt lat="43.71267" lon="4.97055">
        <ele>372.59</ele>
        <time>2026-04-16T14:42:46.040Z</time>
      </trkpt>
      <trkpt lat="43.71267" lon="4.97057">
        <ele>373.34</ele>
        <time>2026-04-16T14:43:59.041Z</time>
      </trkpt>
      <trkpt lat="43.71268" lon="4.97057">
        <ele>372.94</ele>
        <time>2026-04-16T14:44:19.025Z</time>
      </trkpt>
      <trkpt lat="43.71267" lon="4.97056">
        <ele>372.52</ele>
        <time>2026-04-16T14:44:29.032Z</time>
      </trkpt>
      <trkpt lat="43.71267" lon="4.97054">
        <ele>373.45</ele>
        <time>2026-04-16T14:44:52.084Z</time>
      </trkpt>
      <trkpt lat="43.71267" lon="4.97053">
        <ele>373.41</ele>
        <time>2026-04-16T14:45:29.726Z</time>
      </trkpt>
      <trkpt lat="43.71265" lon="4.97052">
        <ele>374.19</ele>
        <time>2026-04-16T14:45:35.005Z</time>
      </trkpt>
      <trkpt lat="43.71265" lon="4.97051">
        <ele>373.96</ele>
        <time>2026-04-16T14:45:40.982Z</time>
      </trkpt>
      <trkpt lat="43.71264" lon="4.9705">
        <ele>374.11</ele>
        <time>2026-04-16T14:45:51.818Z</time>
      </trkpt>
      <trkpt lat="43.71263" lon="4.97051">
        <ele>374.42</ele>
        <time>2026-04-16T14:46:09.050Z</time>
      </trkpt>
      <trkpt lat="43.71262" lon="4.97053">
        <ele>376.05</ele>
        <time>2026-04-16T14:46:15.027Z</time>
      </trkpt>
      <trkpt lat="43.71262" lon="4.97055">
        <ele>376.79</ele>
        <time>2026-04-16T14:46:20.043Z</time>
      </trkpt>
      <trkpt lat="43.71262" lon="4.97057">
        <ele>377.24</ele>
        <time>2026-04-16T14:46:25.059Z</time>
      </trkpt>
      <trkpt lat="43.71262" lon="4.97058">
        <ele>376.09</ele>
        <time>2026-04-16T14:46:40.484Z</time>
      </trkpt>
      <trkpt lat="43.71261" lon="4.97062">
        <ele>377.54</ele>
        <time>2026-04-16T14:46:45.742Z</time>
      </trkpt>
      <trkpt lat="43.7126" lon="4.97064">
        <ele>377.92</ele>
        <time>2026-04-16T14:46:51.109Z</time>
      </trkpt>
      <trkpt lat="43.71259" lon="4.97065">
        <ele>377.54</ele>
        <time>2026-04-16T14:46:56.502Z</time>
      </trkpt>
      <trkpt lat="43.71259" lon="4.97074">
        <ele>376.88</ele>
        <time>2026-04-16T14:47:01.924Z</time>
      </trkpt>
      <trkpt lat="43.71258" lon="4.97082">
        <ele>377.6</ele>
        <time>2026-04-16T14:47:07.019Z</time>
      </trkpt>
      <trkpt lat="43.71258" lon="4.97084">
        <ele>377.76</ele>
        <time>2026-04-16T14:47:12.036Z</time>
      </trkpt>
      <trkpt lat="43.71259" lon="4.97083">
        <ele>377.79</ele>
        <time>2026-04-16T14:47:17.051Z</time>
      </trkpt>
      <trkpt lat="43.7126" lon="4.97084">
        <ele>377.68</ele>
        <time>2026-04-16T14:47:31.032Z</time>
      </trkpt>
      <trkpt lat="43.7126" lon="4.97086">
        <ele>380.03</ele>
        <time>2026-04-16T14:47:42.845Z</time>
      </trkpt>
      <trkpt lat="43.71256" lon="4.97093">
        <ele>380.62</ele>
        <time>2026-04-16T14:47:48.547Z</time>
      </trkpt>
      <trkpt lat="43.71256" lon="4.97094">
        <ele>377.36</ele>
        <time>2026-04-16T14:47:54.768Z</time>
      </trkpt>
      <trkpt lat="43.71254" lon="4.97097">
        <ele>376.54</ele>
        <time>2026-04-16T14:48:00.321Z</time>
      </trkpt>
      <trkpt lat="43.71257" lon="4.97101">
        <ele>376.14</ele>
        <time>2026-04-16T14:48:05.709Z</time>
      </trkpt>
      <trkpt lat="43.71257" lon="4.97104">
        <ele>376.39</ele>
        <time>2026-04-16T14:48:10.768Z</time>
      </trkpt>
      <trkpt lat="43.71257" lon="4.97111">
        <ele>375.77</ele>
        <time>2026-04-16T14:48:15.907Z</time>
      </trkpt>
      <trkpt lat="43.71255" lon="4.97119">
        <ele>375.54</ele>
        <time>2026-04-16T14:48:21.706Z</time>
      </trkpt>
      <trkpt lat="43.71254" lon="4.97122">
        <ele>375.03</ele>
        <time>2026-04-16T14:48:27.065Z</time>
      </trkpt>
      <trkpt lat="43.71253" lon="4.97123">
        <ele>374.23</ele>
        <time>2026-04-16T14:49:02.903Z</time>
      </trkpt>
      <trkpt lat="43.71253" lon="4.97124">
        <ele>373.62</ele>
        <time>2026-04-16T14:49:09.009Z</time>
      </trkpt>
      <trkpt lat="43.71254" lon="4.97125">
        <ele>374.06</ele>
        <time>2026-04-16T14:49:14.024Z</time>
      </trkpt>
      <trkpt lat="43.71254" lon="4.97126">
        <ele>374.17</ele>
        <time>2026-04-16T14:49:19.465Z</time>
      </trkpt>
      <trkpt lat="43.71255" lon="4.97128">
        <ele>374.25</ele>
        <time>2026-04-16T14:49:24.763Z</time>
      </trkpt>
      <trkpt lat="43.71255" lon="4.97134">
        <ele>374.35</ele>
        <time>2026-04-16T14:49:29.922Z</time>
      </trkpt>
      <trkpt lat="43.71257" lon="4.9714">
        <ele>373.97</ele>
        <time>2026-04-16T14:49:35.588Z</time>
      </trkpt>
      <trkpt lat="43.71259" lon="4.97139">
        <ele>373.64</ele>
        <time>2026-04-16T14:49:41.027Z</time>
      </trkpt>
      <trkpt lat="43.71261" lon="4.97138">
        <ele>373.24</ele>
        <time>2026-04-16T14:49:46.081Z</time>
      </trkpt>
      <trkpt lat="43.71261" lon="4.9714">
        <ele>372.47</ele>
        <time>2026-04-16T14:49:52.007Z</time>
      </trkpt>
      <trkpt lat="43.71262" lon="4.97147">
        <ele>371.43</ele>
        <time>2026-04-16T14:49:57.015Z</time>
      </trkpt>
      <trkpt lat="43.71261" lon="4.9715">
        <ele>371.56</ele>
        <time>2026-04-16T14:50:02.061Z</time>
      </trkpt>
      <trkpt lat="43.7126" lon="4.97154">
        <ele>371.24</ele>
        <time>2026-04-16T14:50:08.036Z</time>
      </trkpt>
      <trkpt lat="43.71261" lon="4.97156">
        <ele>371.18</ele>
        <time>2026-04-16T14:50:14.087Z</time>
      </trkpt>
      <trkpt lat="43.7126" lon="4.97157">
        <ele>371.23</ele>
        <time>2026-04-16T14:50:19.807Z</time>
      </trkpt>
      <trkpt lat="43.7126" lon="4.97158">
        <ele>371.26</ele>
        <time>2026-04-16T14:50:25.023Z</time>
      </trkpt>
      <trkpt lat="43.71261" lon="4.97161">
        <ele>371.3</ele>
        <time>2026-04-16T14:50:30.025Z</time>
      </trkpt>
      <trkpt lat="43.71261" lon="4.97164">
        <ele>371.69</ele>
        <time>2026-04-16T14:50:35.057Z</time>
      </trkpt>
      <trkpt lat="43.7126" lon="4.97166">
        <ele>372.53</ele>
        <time>2026-04-16T14:50:40.072Z</time>
      </trkpt>
      <trkpt lat="43.7126" lon="4.97168">
        <ele>371.89</ele>
        <time>2026-04-16T14:50:47.529Z</time>
      </trkpt>
      <trkpt lat="43.7126" lon="4.97169">
        <ele>370.47</ele>
        <time>2026-04-16T14:50:59.090Z</time>
      </trkpt>
      <trkpt lat="43.71262" lon="4.97172">
        <ele>370.01</ele>
        <time>2026-04-16T14:51:04.873Z</time>
      </trkpt>
      <trkpt lat="43.71261" lon="4.97178">
        <ele>369.95</ele>
        <time>2026-04-16T14:51:10.061Z</time>
      </trkpt>
      <trkpt lat="43.71258" lon="4.97185">
        <ele>370.19</ele>
        <time>2026-04-16T14:51:15.077Z</time>
      </trkpt>
      <trkpt lat="43.71259" lon="4.97188">
        <ele>370.14</ele>
        <time>2026-04-16T14:51:20.167Z</time>
      </trkpt>
      <trkpt lat="43.71258" lon="4.9719">
        <ele>369.28</ele>
        <time>2026-04-16T14:51:25.470Z</time>
      </trkpt>
      <trkpt lat="43.71258" lon="4.97192">
        <ele>369.3</ele>
        <time>2026-04-16T14:51:30.992Z</time>
      </trkpt>
      <trkpt lat="43.71259" lon="4.97197">
        <ele>369.31</ele>
        <time>2026-04-16T14:51:35.996Z</time>
      </trkpt>
      <trkpt lat="43.71258" lon="4.97205">
        <ele>369.71</ele>
        <time>2026-04-16T14:51:41.011Z</time>
      </trkpt>
      <trkpt lat="43.71259" lon="4.97211">
        <ele>370.17</ele>
        <time>2026-04-16T14:51:46.028Z</time>
      </trkpt>
      <trkpt lat="43.71259" lon="4.97216">
        <ele>371.11</ele>
        <time>2026-04-16T14:51:51.044Z</time>
      </trkpt>
      <trkpt lat="43.71258" lon="4.97219">
        <ele>371.56</ele>
        <time>2026-04-16T14:51:56.060Z</time>
      </trkpt>
      <trkpt lat="43.71258" lon="4.97221">
        <ele>372.62</ele>
        <time>2026-04-16T14:52:01.076Z</time>
      </trkpt>
      <trkpt lat="43.71259" lon="4.97225">
        <ele>373.32</ele>
        <time>2026-04-16T14:52:06.931Z</time>
      </trkpt>
      <trkpt lat="43.7126" lon="4.97228">
        <ele>373.18</ele>
        <time>2026-04-16T14:52:12.069Z</time>
      </trkpt>
      <trkpt lat="43.71261" lon="4.97233">
        <ele>374.03</ele>
        <time>2026-04-16T14:52:17.085Z</time>
      </trkpt>
      <trkpt lat="43.71262" lon="4.97237">
        <ele>374.51</ele>
        <time>2026-04-16T14:52:22.746Z</time>
      </trkpt>
      <trkpt lat="43.71264" lon="4.97242">
        <ele>373.24</ele>
        <time>2026-04-16T14:52:27.771Z</time>
      </trkpt>
      <trkpt lat="43.71265" lon="4.97247">
        <ele>372.49</ele>
        <time>2026-04-16T14:52:33.506Z</time>
      </trkpt>
      <trkpt lat="43.71264" lon="4.97245">
        <ele>371.7</ele>
        <time>2026-04-16T14:52:39.070Z</time>
      </trkpt>
      <trkpt lat="43.71265" lon="4.97247">
        <ele>370.6</ele>
        <time>2026-04-16T14:52:44.268Z</time>
      </trkpt>
      <trkpt lat="43.71265" lon="4.97255">
        <ele>369.94</ele>
        <time>2026-04-16T14:52:49.409Z</time>
      </trkpt>
      <trkpt lat="43.71265" lon="4.97261">
        <ele>368.86</ele>
        <time>2026-04-16T14:52:54.967Z</time>
      </trkpt>
      <trkpt lat="43.71261" lon="4.97265">
        <ele>367.34</ele>
        <time>2026-04-16T14:53:00.747Z</time>
      </trkpt>
      <trkpt lat="43.71261" lon="4.97273">
        <ele>366.26</ele>
        <time>2026-04-16T14:53:06.071Z</time>
      </trkpt>
      <trkpt lat="43.71259" lon="4.97282">
        <ele>365.74</ele>
        <time>2026-04-16T14:53:12.048Z</time>
      </trkpt>
      <trkpt lat="43.71257" lon="4.97288">
        <ele>365.12</ele>
        <time>2026-04-16T14:53:18.023Z</time>
      </trkpt>
      <trkpt lat="43.71257" lon="4.97293">
        <ele>365.16</ele>
        <time>2026-04-16T14:53:24.001Z</time>
      </trkpt>
      <trkpt lat="43.71257" lon="4.97294">
        <ele>365.85</ele>
        <time>2026-04-16T14:53:37.417Z</time>
      </trkpt>
      <trkpt lat="43.71257" lon="4.97302">
        <ele>366.17</ele>
        <time>2026-04-16T14:53:42.997Z</time>
      </trkpt>
      <trkpt lat="43.71253" lon="4.97306">
        <ele>364.59</ele>
        <time>2026-04-16T14:53:48.008Z</time>
      </trkpt>
      <trkpt lat="43.71255" lon="4.97312">
        <ele>362.13</ele>
        <time>2026-04-16T14:53:53.450Z</time>
      </trkpt>
      <trkpt lat="43.71257" lon="4.97318">
        <ele>360.94</ele>
        <time>2026-04-16T14:53:58.929Z</time>
      </trkpt>
      <trkpt lat="43.71257" lon="4.97321">
        <ele>360.04</ele>
        <time>2026-04-16T14:54:04.438Z</time>
      </trkpt>
      <trkpt lat="43.71259" lon="4.97325">
        <ele>359.54</ele>
        <time>2026-04-16T14:54:09.612Z</time>
      </trkpt>
      <trkpt lat="43.71259" lon="4.97326">
        <ele>358.04</ele>
        <time>2026-04-16T14:54:16.593Z</time>
      </trkpt>
      <trkpt lat="43.71261" lon="4.97333">
        <ele>357.06</ele>
        <time>2026-04-16T14:54:22.040Z</time>
      </trkpt>
      <trkpt lat="43.7126" lon="4.97341">
        <ele>356.04</ele>
        <time>2026-04-16T14:54:27.049Z</time>
      </trkpt>
      <trkpt lat="43.71261" lon="4.97349">
        <ele>355.38</ele>
        <time>2026-04-16T14:54:32.512Z</time>
      </trkpt>
      <trkpt lat="43.71262" lon="4.97354">
        <ele>355.43</ele>
        <time>2026-04-16T14:54:37.696Z</time>
      </trkpt>
      <trkpt lat="43.71263" lon="4.9736">
        <ele>355.53</ele>
        <time>2026-04-16T14:54:43.059Z</time>
      </trkpt>
      <trkpt lat="43.71263" lon="4.97366">
        <ele>355.61</ele>
        <time>2026-04-16T14:54:48.734Z</time>
      </trkpt>
      <trkpt lat="43.71261" lon="4.97373">
        <ele>355.53</ele>
        <time>2026-04-16T14:54:53.972Z</time>
      </trkpt>
      <trkpt lat="43.71262" lon="4.97378">
        <ele>355.76</ele>
        <time>2026-04-16T14:54:59.075Z</time>
      </trkpt>
      <trkpt lat="43.71263" lon="4.97382">
        <ele>355.92</ele>
        <time>2026-04-16T14:55:04.520Z</time>
      </trkpt>
      <trkpt lat="43.71262" lon="4.97382">
        <ele>356.96</ele>
        <time>2026-04-16T14:55:56.602Z</time>
      </trkpt>
      <trkpt lat="43.71258" lon="4.97385">
        <ele>356.19</ele>
        <time>2026-04-16T14:56:02.057Z</time>
      </trkpt>
      <trkpt lat="43.71254" lon="4.9739">
        <ele>355.86</ele>
        <time>2026-04-16T14:56:07.258Z</time>
      </trkpt>
      <trkpt lat="43.71251" lon="4.97396">
        <ele>357.75</ele>
        <time>2026-04-16T14:56:13.035Z</time>
      </trkpt>
      <trkpt lat="43.71249" lon="4.97403">
        <ele>357.17</ele>
        <time>2026-04-16T14:56:18.094Z</time>
      </trkpt>
      <trkpt lat="43.71247" lon="4.97407">
        <ele>359.58</ele>
        <time>2026-04-16T14:56:23.153Z</time>
      </trkpt>
      <trkpt lat="43.71246" lon="4.97412">
        <ele>358.85</ele>
        <time>2026-04-16T14:56:28.394Z</time>
      </trkpt>
      <trkpt lat="43.71243" lon="4.97417">
        <ele>359.89</ele>
        <time>2026-04-16T14:56:33.596Z</time>
      </trkpt>
      <trkpt lat="43.7124" lon="4.9742">
        <ele>360.85</ele>
        <time>2026-04-16T14:56:39.089Z</time>
      </trkpt>
      <trkpt lat="43.71239" lon="4.97421">
        <ele>361.49</ele>
        <time>2026-04-16T14:56:44.839Z</time>
      </trkpt>
      <trkpt lat="43.71239" lon="4.97422">
        <ele>363.39</ele>
        <time>2026-04-16T14:56:51.149Z</time>
      </trkpt>
      <trkpt lat="43.71238" lon="4.97424">
        <ele>361.88</ele>
        <time>2026-04-16T14:56:56.728Z</time>
      </trkpt>
      <trkpt lat="43.71236" lon="4.97425">
        <ele>363.57</ele>
        <time>2026-04-16T14:57:01.932Z</time>
      </trkpt>
      <trkpt lat="43.71234" lon="4.97429">
        <ele>363.64</ele>
        <time>2026-04-16T14:57:07.487Z</time>
      </trkpt>
      <trkpt lat="43.71232" lon="4.97433">
        <ele>364.02</ele>
        <time>2026-04-16T14:57:12.827Z</time>
      </trkpt>
      <trkpt lat="43.71227" lon="4.97438">
        <ele>364.25</ele>
        <time>2026-04-16T14:57:17.930Z</time>
      </trkpt>
      <trkpt lat="43.71222" lon="4.97439">
        <ele>363.8</ele>
        <time>2026-04-16T14:57:23.346Z</time>
      </trkpt>
      <trkpt lat="43.71219" lon="4.9744">
        <ele>364.73</ele>
        <time>2026-04-16T14:57:28.487Z</time>
      </trkpt>
      <trkpt lat="43.71218" lon="4.97442">
        <ele>364.94</ele>
        <time>2026-04-16T14:57:34.027Z</time>
      </trkpt>
      <trkpt lat="43.71218" lon="4.97444">
        <ele>364.95</ele>
        <time>2026-04-16T14:57:39.083Z</time>
      </trkpt>
      <trkpt lat="43.71216" lon="4.97448">
        <ele>363.61</ele>
        <time>2026-04-16T14:57:45.060Z</time>
      </trkpt>
      <trkpt lat="43.71214" lon="4.9745">
        <ele>362.2</ele>
        <time>2026-04-16T14:57:51.037Z</time>
      </trkpt>
      <trkpt lat="43.71211" lon="4.97451">
        <ele>361.94</ele>
        <time>2026-04-16T14:57:56.644Z</time>
      </trkpt>
      <trkpt lat="43.71206" lon="4.97454">
        <ele>362.1</ele>
        <time>2026-04-16T14:58:01.784Z</time>
      </trkpt>
      <trkpt lat="43.71203" lon="4.97457">
        <ele>362.7</ele>
        <time>2026-04-16T14:58:06.968Z</time>
      </trkpt>
      <trkpt lat="43.712" lon="4.97458">
        <ele>363.49</ele>
        <time>2026-04-16T14:58:12.060Z</time>
      </trkpt>
      <trkpt lat="43.71197" lon="4.97462">
        <ele>364.14</ele>
        <time>2026-04-16T14:58:17.728Z</time>
      </trkpt>
      <trkpt lat="43.71195" lon="4.97467">
        <ele>364.36</ele>
        <time>2026-04-16T14:58:23.053Z</time>
      </trkpt>
      <trkpt lat="43.71193" lon="4.97469">
        <ele>365.12</ele>
        <time>2026-04-16T14:58:28.847Z</time>
      </trkpt>
      <trkpt lat="43.71191" lon="4.97473">
        <ele>365.49</ele>
        <time>2026-04-16T14:58:34.046Z</time>
      </trkpt>
      <trkpt lat="43.71192" lon="4.97473">
        <ele>366.08</ele>
        <time>2026-04-16T14:58:44.078Z</time>
      </trkpt>
      <trkpt lat="43.71193" lon="4.97473">
        <ele>364.73</ele>
        <time>2026-04-16T14:59:23.031Z</time>
      </trkpt>
      <trkpt lat="43.71194" lon="4.97476">
        <ele>364.32</ele>
        <time>2026-04-16T14:59:28.078Z</time>
      </trkpt>
      <trkpt lat="43.71194" lon="4.97478">
        <ele>363.47</ele>
        <time>2026-04-16T14:59:33.180Z</time>
      </trkpt>
      <trkpt lat="43.71193" lon="4.97479">
        <ele>361.29</ele>
        <time>2026-04-16T14:59:46.084Z</time>
      </trkpt>
      <trkpt lat="43.71193" lon="4.97481">
        <ele>360.87</ele>
        <time>2026-04-16T14:59:51.808Z</time>
      </trkpt>
      <trkpt lat="43.71192" lon="4.97489">
        <ele>360.25</ele>
        <time>2026-04-16T14:59:57.076Z</time>
      </trkpt>
      <trkpt lat="43.7119" lon="4.97496">
        <ele>359.78</ele>
        <time>2026-04-16T15:00:02.245Z</time>
      </trkpt>
      <trkpt lat="43.71188" lon="4.97502">
        <ele>359.04</ele>
        <time>2026-04-16T15:00:07.466Z</time>
      </trkpt>
      <trkpt lat="43.71186" lon="4.97509">
        <ele>358.44</ele>
        <time>2026-04-16T15:00:13.026Z</time>
      </trkpt>
      <trkpt lat="43.71184" lon="4.97512">
        <ele>358.1</ele>
        <time>2026-04-16T15:00:18.664Z</time>
      </trkpt>
      <trkpt lat="43.71184" lon="4.97514">
        <ele>357.89</ele>
        <time>2026-04-16T15:00:23.947Z</time>
      </trkpt>
      <trkpt lat="43.71185" lon="4.97519">
        <ele>357.49</ele>
        <time>2026-04-16T15:00:29.093Z</time>
      </trkpt>
      <trkpt lat="43.71186" lon="4.9752">
        <ele>357.27</ele>
        <time>2026-04-16T15:00:34.761Z</time>
      </trkpt>
      <trkpt lat="43.71186" lon="4.97525">
        <ele>356.05</ele>
        <time>2026-04-16T15:00:39.979Z</time>
      </trkpt>
      <trkpt lat="43.71188" lon="4.97532">
        <ele>355.85</ele>
        <time>2026-04-16T15:00:45.102Z</time>
      </trkpt>
      <trkpt lat="43.71189" lon="4.97536">
        <ele>355.26</ele>
        <time>2026-04-16T15:00:50.504Z</time>
      </trkpt>
      <trkpt lat="43.7119" lon="4.97541">
        <ele>354.07</ele>
        <time>2026-04-16T15:00:55.963Z</time>
      </trkpt>
      <trkpt lat="43.71191" lon="4.97543">
        <ele>353.23</ele>
        <time>2026-04-16T15:01:01.949Z</time>
      </trkpt>
      <trkpt lat="43.7119" lon="4.97544">
        <ele>353.09</ele>
        <time>2026-04-16T15:01:07.062Z</time>
      </trkpt>
      <trkpt lat="43.71189" lon="4.97549">
        <ele>353.59</ele>
        <time>2026-04-16T15:01:12.390Z</time>
      </trkpt>
      <trkpt lat="43.7119" lon="4.97556">
        <ele>352.21</ele>
        <time>2026-04-16T15:01:17.659Z</time>
      </trkpt>
      <trkpt lat="43.71188" lon="4.97563">
        <ele>353.15</ele>
        <time>2026-04-16T15:01:22.982Z</time>
      </trkpt>
      <trkpt lat="43.71188" lon="4.97568">
        <ele>354.14</ele>
        <time>2026-04-16T15:01:28.004Z</time>
      </trkpt>
      <trkpt lat="43.71188" lon="4.9757">
        <ele>353.26</ele>
        <time>2026-04-16T15:01:33.967Z</time>
      </trkpt>
      <trkpt lat="43.71188" lon="4.97571">
        <ele>355.83</ele>
        <time>2026-04-16T15:01:39.448Z</time>
      </trkpt>
      <trkpt lat="43.71187" lon="4.97576">
        <ele>357.15</ele>
        <time>2026-04-16T15:01:44.480Z</time>
      </trkpt>
      <trkpt lat="43.71186" lon="4.97583">
        <ele>357.74</ele>
        <time>2026-04-16T15:01:50.096Z</time>
      </trkpt>
      <trkpt lat="43.71184" lon="4.97586">
        <ele>355.94</ele>
        <time>2026-04-16T15:01:55.684Z</time>
      </trkpt>
      <trkpt lat="43.71182" lon="4.97588">
        <ele>355.16</ele>
        <time>2026-04-16T15:02:01.113Z</time>
      </trkpt>
      <trkpt lat="43.7118" lon="4.97594">
        <ele>357.42</ele>
        <time>2026-04-16T15:02:06.785Z</time>
      </trkpt>
      <trkpt lat="43.7118" lon="4.97596">
        <ele>361.92</ele>
        <time>2026-04-16T15:02:12.081Z</time>
      </trkpt>
      <trkpt lat="43.7118" lon="4.97597">
        <ele>360.12</ele>
        <time>2026-04-16T15:02:18.056Z</time>
      </trkpt>
      <trkpt lat="43.71181" lon="4.97598">
        <ele>357.75</ele>
        <time>2026-04-16T15:02:24.993Z</time>
      </trkpt>
      <trkpt lat="43.7118" lon="4.976">
        <ele>356.5</ele>
        <time>2026-04-16T15:02:30.010Z</time>
      </trkpt>
      <trkpt lat="43.71179" lon="4.97602">
        <ele>354.45</ele>
        <time>2026-04-16T15:02:35.026Z</time>
      </trkpt>
      <trkpt lat="43.71179" lon="4.97603">
        <ele>354.13</ele>
        <time>2026-04-16T15:02:40.042Z</time>
      </trkpt>
      <trkpt lat="43.71179" lon="4.97607">
        <ele>354.16</ele>
        <time>2026-04-16T15:02:45.427Z</time>
      </trkpt>
      <trkpt lat="43.71179" lon="4.9761">
        <ele>353.17</ele>
        <time>2026-04-16T15:02:50.603Z</time>
      </trkpt>
      <trkpt lat="43.71179" lon="4.97611">
        <ele>351.94</ele>
        <time>2026-04-16T15:02:58.142Z</time>
      </trkpt>
      <trkpt lat="43.7118" lon="4.97612">
        <ele>351.51</ele>
        <time>2026-04-16T15:03:03.510Z</time>
      </trkpt>
      <trkpt lat="43.71179" lon="4.97614">
        <ele>350.03</ele>
        <time>2026-04-16T15:03:08.869Z</time>
      </trkpt>
      <trkpt lat="43.71178" lon="4.97619">
        <ele>348.99</ele>
        <time>2026-04-16T15:03:14.463Z</time>
      </trkpt>
      <trkpt lat="43.71176" lon="4.97633">
        <ele>348.38</ele>
        <time>2026-04-16T15:03:19.766Z</time>
      </trkpt>
      <trkpt lat="43.71174" lon="4.97637">
        <ele>347.74</ele>
        <time>2026-04-16T15:03:25.509Z</time>
      </trkpt>
      <trkpt lat="43.71173" lon="4.97639">
        <ele>347.04</ele>
        <time>2026-04-16T15:03:35.005Z</time>
      </trkpt>
      <trkpt lat="43.71172" lon="4.97641">
        <ele>347.71</ele>
        <time>2026-04-16T15:03:40.020Z</time>
      </trkpt>
      <trkpt lat="43.71171" lon="4.97644">
        <ele>349.94</ele>
        <time>2026-04-16T15:03:45.037Z</time>
      </trkpt>
      <trkpt lat="43.7117" lon="4.97647">
        <ele>347.74</ele>
        <time>2026-04-16T15:03:50.053Z</time>
      </trkpt>
      <trkpt lat="43.71169" lon="4.97648">
        <ele>347.18</ele>
        <time>2026-04-16T15:03:55.069Z</time>
      </trkpt>
      <trkpt lat="43.71168" lon="4.97649">
        <ele>348.06</ele>
        <time>2026-04-16T15:04:05.100Z</time>
      </trkpt>
      <trkpt lat="43.71167" lon="4.97651">
        <ele>348.81</ele>
        <time>2026-04-16T15:04:10.805Z</time>
      </trkpt>
      <trkpt lat="43.71166" lon="4.97654">
        <ele>350.95</ele>
        <time>2026-04-16T15:04:16.807Z</time>
      </trkpt>
      <trkpt lat="43.71164" lon="4.97655">
        <ele>357.12</ele>
        <time>2026-04-16T15:04:21.921Z</time>
      </trkpt>
      <trkpt lat="43.71162" lon="4.9766">
        <ele>356.25</ele>
        <time>2026-04-16T15:04:27.861Z</time>
      </trkpt>
      <trkpt lat="43.71162" lon="4.97663">
        <ele>355.38</ele>
        <time>2026-04-16T15:04:33.062Z</time>
      </trkpt>
      <trkpt lat="43.71162" lon="4.97664">
        <ele>353.15</ele>
        <time>2026-04-16T15:04:38.098Z</time>
      </trkpt>
      <trkpt lat="43.71161" lon="4.97666">
        <ele>352.72</ele>
        <time>2026-04-16T15:04:43.687Z</time>
      </trkpt>
      <trkpt lat="43.71161" lon="4.9767">
        <ele>356.8</ele>
        <time>2026-04-16T15:04:49.071Z</time>
      </trkpt>
      <trkpt lat="43.7116" lon="4.97671">
        <ele>355.69</ele>
        <time>2026-04-16T15:04:55.005Z</time>
      </trkpt>
      <trkpt lat="43.71159" lon="4.97671">
        <ele>358.2</ele>
        <time>2026-04-16T15:05:02.090Z</time>
      </trkpt>
      <trkpt lat="43.71158" lon="4.9767">
        <ele>357.35</ele>
        <time>2026-04-16T15:05:12.779Z</time>
      </trkpt>
      <trkpt lat="43.71157" lon="4.97668">
        <ele>360.45</ele>
        <time>2026-04-16T15:05:18.800Z</time>
      </trkpt>
      <trkpt lat="43.71154" lon="4.97668">
        <ele>365.86</ele>
        <time>2026-04-16T15:05:24.077Z</time>
      </trkpt>
      <trkpt lat="43.71153" lon="4.97668">
        <ele>364.56</ele>
        <time>2026-04-16T15:05:29.093Z</time>
      </trkpt>
      <trkpt lat="43.71152" lon="4.97669">
        <ele>363.76</ele>
        <time>2026-04-16T15:05:35.810Z</time>
      </trkpt>
      <trkpt lat="43.71152" lon="4.97671">
        <ele>364.29</ele>
        <time>2026-04-16T15:05:40.951Z</time>
      </trkpt>
      <trkpt lat="43.71151" lon="4.97672">
        <ele>366.37</ele>
        <time>2026-04-16T15:05:48.111Z</time>
      </trkpt>
      <trkpt lat="43.71148" lon="4.97675">
        <ele>366.76</ele>
        <time>2026-04-16T15:05:54.067Z</time>
      </trkpt>
      <trkpt lat="43.71146" lon="4.9768">
        <ele>365.88</ele>
        <time>2026-04-16T15:06:00.043Z</time>
      </trkpt>
      <trkpt lat="43.71145" lon="4.97682">
        <ele>363.04</ele>
        <time>2026-04-16T15:06:05.060Z</time>
      </trkpt>
      <trkpt lat="43.71145" lon="4.97683">
        <ele>364.15</ele>
        <time>2026-04-16T15:06:32.061Z</time>
      </trkpt>
      <trkpt lat="43.71144" lon="4.97684">
        <ele>362.16</ele>
        <time>2026-04-16T15:07:07.068Z</time>
      </trkpt>
      <trkpt lat="43.71143" lon="4.97685">
        <ele>362.89</ele>
        <time>2026-04-16T15:07:56.656Z</time>
      </trkpt>
      <trkpt lat="43.71142" lon="4.97688">
        <ele>368.82</ele>
        <time>2026-04-16T15:08:01.751Z</time>
      </trkpt>
      <trkpt lat="43.7114" lon="4.97694">
        <ele>367.45</ele>
        <time>2026-04-16T15:08:06.894Z</time>
      </trkpt>
      <trkpt lat="43.7114" lon="4.97696">
        <ele>364.26</ele>
        <time>2026-04-16T15:08:12.065Z</time>
      </trkpt>
      <trkpt lat="43.71139" lon="4.97697">
        <ele>370.4</ele>
        <time>2026-04-16T15:08:20.070Z</time>
      </trkpt>
      <trkpt lat="43.71139" lon="4.97699">
        <ele>370.26</ele>
        <time>2026-04-16T15:08:35.818Z</time>
      </trkpt>
      <trkpt lat="43.71139" lon="4.977">
        <ele>370.51</ele>
        <time>2026-04-16T15:08:43.016Z</time>
      </trkpt>
      <trkpt lat="43.71139" lon="4.97701">
        <ele>371.22</ele>
        <time>2026-04-16T15:08:49.706Z</time>
      </trkpt>
      <trkpt lat="43.71138" lon="4.97704">
        <ele>367.67</ele>
        <time>2026-04-16T15:08:54.971Z</time>
      </trkpt>
      <trkpt lat="43.71137" lon="4.97706">
        <ele>368.41</ele>
        <time>2026-04-16T15:08:59.997Z</time>
      </trkpt>
      <trkpt lat="43.71137" lon="4.97707">
        <ele>370.61</ele>
        <time>2026-04-16T15:09:05.163Z</time>
      </trkpt>
      <trkpt lat="43.71136" lon="4.97708">
        <ele>369.76</ele>
        <time>2026-04-16T15:09:12.764Z</time>
      </trkpt>
      <trkpt lat="43.71136" lon="4.97709">
        <ele>380.27</ele>
        <time>2026-04-16T15:09:33.073Z</time>
      </trkpt>
      <trkpt lat="43.71136" lon="4.97711">
        <ele>378.09</ele>
        <time>2026-04-16T15:09:38.091Z</time>
      </trkpt>
      <trkpt lat="43.71135" lon="4.97713">
        <ele>373.64</ele>
        <time>2026-04-16T15:09:43.107Z</time>
      </trkpt>
      <trkpt lat="43.71135" lon="4.97714">
        <ele>372.81</ele>
        <time>2026-04-16T15:09:49.005Z</time>
      </trkpt>
      <trkpt lat="43.71135" lon="4.97716">
        <ele>375.09</ele>
        <time>2026-04-16T15:09:54.681Z</time>
      </trkpt>
      <trkpt lat="43.71135" lon="4.97719">
        <ele>375.93</ele>
        <time>2026-04-16T15:10:00.077Z</time>
      </trkpt>
      <trkpt lat="43.71135" lon="4.97721">
        <ele>374.48</ele>
        <time>2026-04-16T15:10:05.093Z</time>
      </trkpt>
      <trkpt lat="43.71134" lon="4.97722">
        <ele>374.27</ele>
        <time>2026-04-16T15:10:15.777Z</time>
      </trkpt>
      <trkpt lat="43.71133" lon="4.97725">
        <ele>373.45</ele>
        <time>2026-04-16T15:10:20.840Z</time>
      </trkpt>
      <trkpt lat="43.7113" lon="4.97731">
        <ele>371.84</ele>
        <time>2026-04-16T15:10:26.118Z</time>
      </trkpt>
      <trkpt lat="43.71128" lon="4.97736">
        <ele>376.81</ele>
        <time>2026-04-16T15:10:32.096Z</time>
      </trkpt>
      <trkpt lat="43.71128" lon="4.97739">
        <ele>376.53</ele>
        <time>2026-04-16T15:10:38.073Z</time>
      </trkpt>
      <trkpt lat="43.71128" lon="4.9774">
        <ele>375.73</ele>
        <time>2026-04-16T15:10:43.089Z</time>
      </trkpt>
      <trkpt lat="43.71127" lon="4.97742">
        <ele>387.3</ele>
        <time>2026-04-16T15:10:51.112Z</time>
      </trkpt>
      <trkpt lat="43.71127" lon="4.97743">
        <ele>381.66</ele>
        <time>2026-04-16T15:10:59.084Z</time>
      </trkpt>
      <trkpt lat="43.71127" lon="4.97749">
        <ele>380.96</ele>
        <time>2026-04-16T15:11:04.625Z</time>
      </trkpt>
      <trkpt lat="43.71126" lon="4.97751">
        <ele>380.51</ele>
        <time>2026-04-16T15:11:10.003Z</time>
      </trkpt>
      <trkpt lat="43.71126" lon="4.97755">
        <ele>380.66</ele>
        <time>2026-04-16T15:11:15.125Z</time>
      </trkpt>
      <trkpt lat="43.71125" lon="4.97757">
        <ele>380.58</ele>
        <time>2026-04-16T15:11:21.124Z</time>
      </trkpt>
      <trkpt lat="43.71124" lon="4.97758">
        <ele>385.12</ele>
        <time>2026-04-16T15:11:27.079Z</time>
      </trkpt>
      <trkpt lat="43.71123" lon="4.97759">
        <ele>381.6</ele>
        <time>2026-04-16T15:11:32.827Z</time>
      </trkpt>
      <trkpt lat="43.71122" lon="4.97757">
        <ele>383.4</ele>
        <time>2026-04-16T15:11:38.867Z</time>
      </trkpt>
      <trkpt lat="43.71121" lon="4.97755">
        <ele>384.77</ele>
        <time>2026-04-16T15:11:44.357Z</time>
      </trkpt>
      <trkpt lat="43.71116" lon="4.97752">
        <ele>386.07</ele>
        <time>2026-04-16T15:11:50.025Z</time>
      </trkpt>
      <trkpt lat="43.71115" lon="4.97752">
        <ele>388.22</ele>
        <time>2026-04-16T15:11:55.043Z</time>
      </trkpt>
      <trkpt lat="43.71116" lon="4.97751">
        <ele>386.65</ele>
        <time>2026-04-16T15:12:00.059Z</time>
      </trkpt>
      <trkpt lat="43.71116" lon="4.97753">
        <ele>388.97</ele>
        <time>2026-04-16T15:12:28.022Z</time>
      </trkpt>
      <trkpt lat="43.71116" lon="4.97754">
        <ele>386.74</ele>
        <time>2026-04-16T15:12:33.039Z</time>
      </trkpt>
      <trkpt lat="43.71115" lon="4.97756">
        <ele>386.59</ele>
        <time>2026-04-16T15:12:43.071Z</time>
      </trkpt>
      <trkpt lat="43.71115" lon="4.97757">
        <ele>387.41</ele>
        <time>2026-04-16T15:12:51.087Z</time>
      </trkpt>
      <trkpt lat="43.71115" lon="4.97758">
        <ele>385.51</ele>
        <time>2026-04-16T15:12:58.077Z</time>
      </trkpt>
      <trkpt lat="43.71115" lon="4.9776">
        <ele>388.82</ele>
        <time>2026-04-16T15:13:05.710Z</time>
      </trkpt>
      <trkpt lat="43.71115" lon="4.97761">
        <ele>391.17</ele>
        <time>2026-04-16T15:13:11.935Z</time>
      </trkpt>
      <trkpt lat="43.71115" lon="4.97763">
        <ele>390.72</ele>
        <time>2026-04-16T15:13:17.011Z</time>
      </trkpt>
      <trkpt lat="43.71115" lon="4.97765">
        <ele>389.54</ele>
        <time>2026-04-16T15:13:22.134Z</time>
      </trkpt>
      <trkpt lat="43.71114" lon="4.97766">
        <ele>389.51</ele>
        <time>2026-04-16T15:13:28.111Z</time>
      </trkpt>
      <trkpt lat="43.71114" lon="4.97768">
        <ele>391.09</ele>
        <time>2026-04-16T15:13:33.692Z</time>
      </trkpt>
      <trkpt lat="43.71114" lon="4.97771">
        <ele>390.27</ele>
        <time>2026-04-16T15:13:39.104Z</time>
      </trkpt>
      <trkpt lat="43.71112" lon="4.97775">
        <ele>395.93</ele>
        <time>2026-04-16T15:13:44.328Z</time>
      </trkpt>
      <trkpt lat="43.71112" lon="4.97777">
        <ele>395.82</ele>
        <time>2026-04-16T15:13:50.097Z</time>
      </trkpt>
      <trkpt lat="43.71112" lon="4.97779">
        <ele>396.04</ele>
        <time>2026-04-16T15:13:55.239Z</time>
      </trkpt>
      <trkpt lat="43.71111" lon="4.97784">
        <ele>396.73</ele>
        <time>2026-04-16T15:14:01.089Z</time>
      </trkpt>
      <trkpt lat="43.71111" lon="4.97786">
        <ele>396.33</ele>
        <time>2026-04-16T15:14:06.144Z</time>
      </trkpt>
      <trkpt lat="43.71111" lon="4.97787">
        <ele>396.57</ele>
        <time>2026-04-16T15:14:12.084Z</time>
      </trkpt>
      <trkpt lat="43.71111" lon="4.97788">
        <ele>393.77</ele>
        <time>2026-04-16T15:14:32.041Z</time>
      </trkpt>
      <trkpt lat="43.71112" lon="4.9779">
        <ele>398.43</ele>
        <time>2026-04-16T15:14:37.058Z</time>
      </trkpt>
      <trkpt lat="43.71113" lon="4.97791">
        <ele>395.62</ele>
        <time>2026-04-16T15:14:43.035Z</time>
      </trkpt>
      <trkpt lat="43.71113" lon="4.97792">
        <ele>394.51</ele>
        <time>2026-04-16T15:14:59.043Z</time>
      </trkpt>
      <trkpt lat="43.71112" lon="4.97792">
        <ele>399.78</ele>
        <time>2026-04-16T15:15:14.092Z</time>
      </trkpt>
      <trkpt lat="43.71111" lon="4.97792">
        <ele>391.56</ele>
        <time>2026-04-16T15:15:38.988Z</time>
      </trkpt>
      <trkpt lat="43.7111" lon="4.97791">
        <ele>393.81</ele>
        <time>2026-04-16T15:15:57.009Z</time>
      </trkpt>
      <trkpt lat="43.71111" lon="4.97792">
        <ele>395.6</ele>
        <time>2026-04-16T15:16:15.046Z</time>
      </trkpt>
      <trkpt lat="43.71111" lon="4.9779">
        <ele>392.66</ele>
        <time>2026-04-16T15:16:23.678Z</time>
      </trkpt>
      <trkpt lat="43.71112" lon="4.97788">
        <ele>391.6</ele>
        <time>2026-04-16T15:16:29.396Z</time>
      </trkpt>
      <trkpt lat="43.71114" lon="4.97786">
        <ele>390.38</ele>
        <time>2026-04-16T15:16:35.112Z</time>
      </trkpt>
      <trkpt lat="43.71113" lon="4.97786">
        <ele>389.61</ele>
        <time>2026-04-16T15:16:41.090Z</time>
      </trkpt>
      <trkpt lat="43.71114" lon="4.97785">
        <ele>387.23</ele>
        <time>2026-04-16T15:16:50.055Z</time>
      </trkpt>
      <trkpt lat="43.71115" lon="4.97785">
        <ele>386.78</ele>
        <time>2026-04-16T15:16:55.072Z</time>
      </trkpt>
      <trkpt lat="43.71115" lon="4.97784">
        <ele>385.22</ele>
        <time>2026-04-16T15:17:14.070Z</time>
      </trkpt>
      <trkpt lat="43.71116" lon="4.97783">
        <ele>384.46</ele>
        <time>2026-04-16T15:17:20.102Z</time>
      </trkpt>
      <trkpt lat="43.71116" lon="4.97781">
        <ele>383.85</ele>
        <time>2026-04-16T15:17:26.023Z</time>
      </trkpt>
      <trkpt lat="43.71117" lon="4.9778">
        <ele>383.52</ele>
        <time>2026-04-16T15:17:32.741Z</time>
      </trkpt>
      <trkpt lat="43.71118" lon="4.9778">
        <ele>381.29</ele>
        <time>2026-04-16T15:17:58.041Z</time>
      </trkpt>
      <trkpt lat="43.71119" lon="4.9778">
        <ele>380.78</ele>
        <time>2026-04-16T15:18:12.022Z</time>
      </trkpt>
      <trkpt lat="43.71119" lon="4.97782">
        <ele>380.43</ele>
        <time>2026-04-16T15:18:21.226Z</time>
      </trkpt>
      <trkpt lat="43.7112" lon="4.97783">
        <ele>381.55</ele>
        <time>2026-04-16T15:18:27.070Z</time>
      </trkpt>
      <trkpt lat="43.71121" lon="4.97784">
        <ele>381.22</ele>
        <time>2026-04-16T15:18:34.973Z</time>
      </trkpt>
      <trkpt lat="43.71121" lon="4.97783">
        <ele>381.66</ele>
        <time>2026-04-16T15:18:56.100Z</time>
      </trkpt>
      <trkpt lat="43.7112" lon="4.97775">
        <ele>381.1</ele>
        <time>2026-04-16T15:19:02.080Z</time>
      </trkpt>
      <trkpt lat="43.7112" lon="4.97769">
        <ele>381.21</ele>
        <time>2026-04-16T15:19:07.193Z</time>
      </trkpt>
      <trkpt lat="43.71124" lon="4.97764">
        <ele>381.58</ele>
        <time>2026-04-16T15:19:13.069Z</time>
      </trkpt>
      <trkpt lat="43.71126" lon="4.97762">
        <ele>379.57</ele>
        <time>2026-04-16T15:19:18.084Z</time>
      </trkpt>
      <trkpt lat="43.71127" lon="4.97763">
        <ele>378.46</ele>
        <time>2026-04-16T15:19:25.128Z</time>
      </trkpt>
      <trkpt lat="43.71127" lon="4.97764">
        <ele>378.72</ele>
        <time>2026-04-16T15:19:30.993Z</time>
      </trkpt>
      <trkpt lat="43.71127" lon="4.97763">
        <ele>379.34</ele>
        <time>2026-04-16T15:19:58.010Z</time>
      </trkpt>
      <trkpt lat="43.71128" lon="4.97759">
        <ele>378.9</ele>
        <time>2026-04-16T15:20:03.133Z</time>
      </trkpt>
      <trkpt lat="43.71127" lon="4.9775">
        <ele>376.98</ele>
        <time>2026-04-16T15:20:09.108Z</time>
      </trkpt>
      <trkpt lat="43.71125" lon="4.97746">
        <ele>376.02</ele>
        <time>2026-04-16T15:20:14.125Z</time>
      </trkpt>
      <trkpt lat="43.71126" lon="4.97746">
        <ele>375.01</ele>
        <time>2026-04-16T15:20:20.101Z</time>
      </trkpt>
      <trkpt lat="43.71127" lon="4.97747">
        <ele>375.32</ele>
        <time>2026-04-16T15:20:53.127Z</time>
      </trkpt>
      <trkpt lat="43.7113" lon="4.97746">
        <ele>374.27</ele>
        <time>2026-04-16T15:20:58.767Z</time>
      </trkpt>
      <trkpt lat="43.7113" lon="4.97746">
        <ele>372.04</ele>
        <time>2026-04-16T15:21:07.061Z</time>
      </trkpt>
      <trkpt lat="43.71131" lon="4.97747">
        <ele>371.37</ele>
        <time>2026-04-16T15:21:18.343Z</time>
      </trkpt>
      <trkpt lat="43.71132" lon="4.97747">
        <ele>372.33</ele>
        <time>2026-04-16T15:21:53.059Z</time>
      </trkpt>
      <trkpt lat="43.71133" lon="4.97747">
        <ele>370.31</ele>
        <time>2026-04-16T15:22:05.119Z</time>
      </trkpt>
      <trkpt lat="43.71134" lon="4.97743">
        <ele>368.54</ele>
        <time>2026-04-16T15:22:10.735Z</time>
      </trkpt>
      <trkpt lat="43.71138" lon="4.97739">
        <ele>367.35</ele>
        <time>2026-04-16T15:22:16.111Z</time>
      </trkpt>
      <trkpt lat="43.7114" lon="4.97738">
        <ele>366.34</ele>
        <time>2026-04-16T15:22:21.657Z</time>
      </trkpt>
      <trkpt lat="43.71141" lon="4.97738">
        <ele>365.25</ele>
        <time>2026-04-16T15:22:27.134Z</time>
      </trkpt>
      <trkpt lat="43.71142" lon="4.97737">
        <ele>365.39</ele>
        <time>2026-04-16T15:22:39.727Z</time>
      </trkpt>
      <trkpt lat="43.71142" lon="4.97738">
        <ele>364.93</ele>
        <time>2026-04-16T15:23:07.020Z</time>
      </trkpt>
      <trkpt lat="43.71142" lon="4.9774">
        <ele>364.62</ele>
        <time>2026-04-16T15:23:26.016Z</time>
      </trkpt>
      <trkpt lat="43.71142" lon="4.97741">
        <ele>365.46</ele>
        <time>2026-04-16T15:24:01.577Z</time>
      </trkpt>
      <trkpt lat="43.71142" lon="4.97742">
        <ele>366.79</ele>
        <time>2026-04-16T15:24:11.055Z</time>
      </trkpt>
      <trkpt lat="43.71141" lon="4.97743">
        <ele>365.97</ele>
        <time>2026-04-16T15:24:28.023Z</time>
      </trkpt>
      <trkpt lat="43.71142" lon="4.97742">
        <ele>367.95</ele>
        <time>2026-04-16T15:24:52.036Z</time>
      </trkpt>
      <trkpt lat="43.71142" lon="4.9774">
        <ele>367.3</ele>
        <time>2026-04-16T15:25:02.069Z</time>
      </trkpt>
      <trkpt lat="43.71142" lon="4.97739">
        <ele>366.69</ele>
        <time>2026-04-16T15:25:07.943Z</time>
      </trkpt>
      <trkpt lat="43.71141" lon="4.97738">
        <ele>367.25</ele>
        <time>2026-04-16T15:25:14.782Z</time>
      </trkpt>
      <trkpt lat="43.71138" lon="4.97739">
        <ele>367.43</ele>
        <time>2026-04-16T15:25:19.968Z</time>
      </trkpt>
      <trkpt lat="43.71137" lon="4.9774">
        <ele>368.9</ele>
        <time>2026-04-16T15:25:25.014Z</time>
      </trkpt>
      <trkpt lat="43.71137" lon="4.97742">
        <ele>369.8</ele>
        <time>2026-04-16T15:25:30.041Z</time>
      </trkpt>
      <trkpt lat="43.71137" lon="4.97744">
        <ele>369.79</ele>
        <time>2026-04-16T15:25:36.114Z</time>
      </trkpt>
      <trkpt lat="43.71136" lon="4.97743">
        <ele>370.53</ele>
        <time>2026-04-16T15:26:25.104Z</time>
      </trkpt>
      <trkpt lat="43.71136" lon="4.97743">
        <ele>372.4</ele>
        <time>2026-04-16T15:26:45.092Z</time>
      </trkpt>
      <trkpt lat="43.71134" lon="4.97744">
        <ele>373.84</ele>
        <time>2026-04-16T15:26:50.108Z</time>
      </trkpt>
      <trkpt lat="43.71133" lon="4.97745">
        <ele>375.44</ele>
        <time>2026-04-16T15:26:55.805Z</time>
      </trkpt>
      <trkpt lat="43.71132" lon="4.97746">
        <ele>378.06</ele>
        <time>2026-04-16T15:27:04.012Z</time>
      </trkpt>
      <trkpt lat="43.71131" lon="4.97747">
        <ele>377.4</ele>
        <time>2026-04-16T15:27:11.027Z</time>
      </trkpt>
      <trkpt lat="43.7113" lon="4.97748">
        <ele>377.73</ele>
        <time>2026-04-16T15:27:16.900Z</time>
      </trkpt>
      <trkpt lat="43.71128" lon="4.97751">
        <ele>377.47</ele>
        <time>2026-04-16T15:27:22.119Z</time>
      </trkpt>
      <trkpt lat="43.71126" lon="4.97755">
        <ele>379.58</ele>
        <time>2026-04-16T15:27:28.103Z</time>
      </trkpt>
      <trkpt lat="43.71125" lon="4.97757">
        <ele>379.63</ele>
        <time>2026-04-16T15:27:33.637Z</time>
      </trkpt>
      <trkpt lat="43.71124" lon="4.97762">
        <ele>379.19</ele>
        <time>2026-04-16T15:27:38.966Z</time>
      </trkpt>
      <trkpt lat="43.71122" lon="4.97763">
        <ele>380.41</ele>
        <time>2026-04-16T15:27:46.898Z</time>
      </trkpt>
      <trkpt lat="43.71121" lon="4.97765">
        <ele>382.67</ele>
        <time>2026-04-16T15:27:52.701Z</time>
      </trkpt>
      <trkpt lat="43.71121" lon="4.97766">
        <ele>383.44</ele>
        <time>2026-04-16T15:27:58.621Z</time>
      </trkpt>
      <trkpt lat="43.71121" lon="4.97771">
        <ele>383.72</ele>
        <time>2026-04-16T15:28:04.069Z</time>
      </trkpt>
      <trkpt lat="43.71122" lon="4.97776">
        <ele>383.01</ele>
        <time>2026-04-16T15:28:09.093Z</time>
      </trkpt>
      <trkpt lat="43.71124" lon="4.9778">
        <ele>383.41</ele>
        <time>2026-04-16T15:28:14.119Z</time>
      </trkpt>
      <trkpt lat="43.71125" lon="4.97785">
        <ele>383.62</ele>
        <time>2026-04-16T15:28:19.821Z</time>
      </trkpt>
      <trkpt lat="43.71124" lon="4.97789">
        <ele>384.57</ele>
        <time>2026-04-16T15:28:25.355Z</time>
      </trkpt>
      <trkpt lat="43.71124" lon="4.97793">
        <ele>385.67</ele>
        <time>2026-04-16T15:28:31.114Z</time>
      </trkpt>
      <trkpt lat="43.71125" lon="4.97798">
        <ele>384.98</ele>
        <time>2026-04-16T15:28:36.130Z</time>
      </trkpt>
      <trkpt lat="43.71125" lon="4.97801">
        <ele>384.99</ele>
        <time>2026-04-16T15:28:42.107Z</time>
      </trkpt>
      <trkpt lat="43.71125" lon="4.97802">
        <ele>385.47</ele>
        <time>2026-04-16T15:28:50.898Z</time>
      </trkpt>
      <trkpt lat="43.71125" lon="4.97803">
        <ele>387.14</ele>
        <time>2026-04-16T15:28:56.088Z</time>
      </trkpt>
      <trkpt lat="43.71123" lon="4.97805">
        <ele>387.01</ele>
        <time>2026-04-16T15:29:02.064Z</time>
      </trkpt>
      <trkpt lat="43.71124" lon="4.97808">
        <ele>385.93</ele>
        <time>2026-04-16T15:29:08.146Z</time>
      </trkpt>
      <trkpt lat="43.71125" lon="4.97811">
        <ele>386.99</ele>
        <time>2026-04-16T15:29:13.495Z</time>
      </trkpt>
      <trkpt lat="43.71125" lon="4.97812">
        <ele>388.87</ele>
        <time>2026-04-16T15:29:19.032Z</time>
      </trkpt>
      <trkpt lat="43.71126" lon="4.97813">
        <ele>390.2</ele>
        <time>2026-04-16T15:29:33.720Z</time>
      </trkpt>
      <trkpt lat="43.71127" lon="4.97815">
        <ele>388.78</ele>
        <time>2026-04-16T15:29:39.097Z</time>
      </trkpt>
      <trkpt lat="43.71129" lon="4.97817">
        <ele>389.34</ele>
        <time>2026-04-16T15:29:44.384Z</time>
      </trkpt>
      <trkpt lat="43.7113" lon="4.97819">
        <ele>391.03</ele>
        <time>2026-04-16T15:29:49.479Z</time>
      </trkpt>
      <trkpt lat="43.71131" lon="4.9782">
        <ele>391.38</ele>
        <time>2026-04-16T15:29:55.106Z</time>
      </trkpt>
      <trkpt lat="43.71131" lon="4.97821">
        <ele>392.31</ele>
        <time>2026-04-16T15:30:02.225Z</time>
      </trkpt>
      <trkpt lat="43.71132" lon="4.97822">
        <ele>392.53</ele>
        <time>2026-04-16T15:30:14.101Z</time>
      </trkpt>
      <trkpt lat="43.71132" lon="4.97823">
        <ele>394.4</ele>
        <time>2026-04-16T15:30:22.919Z</time>
      </trkpt>
      <trkpt lat="43.71133" lon="4.97825">
        <ele>395.53</ele>
        <time>2026-04-16T15:30:28.083Z</time>
      </trkpt>
      <trkpt lat="43.71131" lon="4.97827">
        <ele>396.1</ele>
        <time>2026-04-16T15:30:33.117Z</time>
      </trkpt>
      <trkpt lat="43.7113" lon="4.97828">
        <ele>396.24</ele>
        <time>2026-04-16T15:30:38.620Z</time>
      </trkpt>
      <trkpt lat="43.7113" lon="4.97829">
        <ele>396.69</ele>
        <time>2026-04-16T15:30:45.069Z</time>
      </trkpt>
      <trkpt lat="43.71129" lon="4.9783">
        <ele>398.02</ele>
        <time>2026-04-16T15:30:59.050Z</time>
      </trkpt>
      <trkpt lat="43.71128" lon="4.9783">
        <ele>397.12</ele>
        <time>2026-04-16T15:31:15.667Z</time>
      </trkpt>
      <trkpt lat="43.71127" lon="4.97831">
        <ele>398.56</ele>
        <time>2026-04-16T15:31:25.091Z</time>
      </trkpt>
      <trkpt lat="43.71126" lon="4.9783">
        <ele>401.64</ele>
        <time>2026-04-16T15:32:32.113Z</time>
      </trkpt>
      <trkpt lat="43.71126" lon="4.97831">
        <ele>399.3</ele>
        <time>2026-04-16T15:32:50.084Z</time>
      </trkpt>
      <trkpt lat="43.71126" lon="4.97832">
        <ele>399.09</ele>
        <time>2026-04-16T15:33:05.091Z</time>
      </trkpt>
      <trkpt lat="43.71127" lon="4.97833">
        <ele>397.68</ele>
        <time>2026-04-16T15:33:30.064Z</time>
      </trkpt>
      <trkpt lat="43.71126" lon="4.97832">
        <ele>398.4</ele>
        <time>2026-04-16T15:33:35.080Z</time>
      </trkpt>
      <trkpt lat="43.71125" lon="4.97828">
        <ele>398.03</ele>
        <time>2026-04-16T15:33:40.095Z</time>
      </trkpt>
      <trkpt lat="43.71125" lon="4.97827">
        <ele>398.37</ele>
        <time>2026-04-16T15:33:55.035Z</time>
      </trkpt>
      <trkpt lat="43.71126" lon="4.97827">
        <ele>398.24</ele>
        <time>2026-04-16T15:34:02.080Z</time>
      </trkpt>
      <trkpt lat="43.71127" lon="4.97827">
        <ele>398.22</ele>
        <time>2026-04-16T15:34:08.055Z</time>
      </trkpt>
      <trkpt lat="43.71128" lon="4.97828">
        <ele>398.53</ele>
        <time>2026-04-16T15:34:17.128Z</time>
      </trkpt>
      <trkpt lat="43.71128" lon="4.97829">
        <ele>398.33</ele>
        <time>2026-04-16T15:34:28.120Z</time>
      </trkpt>
      <trkpt lat="43.71127" lon="4.9783">
        <ele>398.29</ele>
        <time>2026-04-16T15:34:48.075Z</time>
      </trkpt>
      <trkpt lat="43.71127" lon="4.97829">
        <ele>398.66</ele>
        <time>2026-04-16T15:35:13.048Z</time>
      </trkpt>
      <trkpt lat="43.71127" lon="4.9783">
        <ele>398.55</ele>
        <time>2026-04-16T15:35:38.067Z</time>
      </trkpt>
      <trkpt lat="43.71128" lon="4.97832">
        <ele>404.77</ele>
        <time>2026-04-16T15:35:43.083Z</time>
      </trkpt>
      <trkpt lat="43.71128" lon="4.97837">
        <ele>399.95</ele>
        <time>2026-04-16T15:35:48.098Z</time>
      </trkpt>
      <trkpt lat="43.71128" lon="4.9784">
        <ele>399.46</ele>
        <time>2026-04-16T15:35:53.115Z</time>
      </trkpt>
      <trkpt lat="43.71128" lon="4.97841">
        <ele>400.29</ele>
        <time>2026-04-16T15:35:58.131Z</time>
      </trkpt>
      <trkpt lat="43.71128" lon="4.97843">
        <ele>399.7</ele>
        <time>2026-04-16T15:36:04.826Z</time>
      </trkpt>
      <trkpt lat="43.7113" lon="4.97839">
        <ele>400.36</ele>
        <time>2026-04-16T15:36:10.083Z</time>
      </trkpt>
      <trkpt lat="43.71131" lon="4.97836">
        <ele>400.65</ele>
        <time>2026-04-16T15:36:16.061Z</time>
      </trkpt>
      <trkpt lat="43.71131" lon="4.97835">
        <ele>399.87</ele>
        <time>2026-04-16T15:36:22.030Z</time>
      </trkpt>
      <trkpt lat="43.7113" lon="4.97833">
        <ele>399.44</ele>
        <time>2026-04-16T15:36:40.627Z</time>
      </trkpt>
      <trkpt lat="43.7113" lon="4.97833">
        <ele>399.98</ele>
        <time>2026-04-16T15:36:52.047Z</time>
      </trkpt>
      <trkpt lat="43.71129" lon="4.97832">
        <ele>399.83</ele>
        <time>2026-04-16T15:36:58.023Z</time>
      </trkpt>
      <trkpt lat="43.71128" lon="4.9783">
        <ele>400.5</ele>
        <time>2026-04-16T15:37:03.039Z</time>
      </trkpt>
      <trkpt lat="43.71128" lon="4.97829">
        <ele>400.88</ele>
        <time>2026-04-16T15:37:11.045Z</time>
      </trkpt>
      <trkpt lat="43.71127" lon="4.9783">
        <ele>400.12</ele>
        <time>2026-04-16T15:37:41.142Z</time>
      </trkpt>
      <trkpt lat="43.71127" lon="4.97831">
        <ele>400.32</ele>
        <time>2026-04-16T15:37:46.158Z</time>
      </trkpt>
      <trkpt lat="43.71127" lon="4.97832">
        <ele>399.6</ele>
        <time>2026-04-16T15:37:56.190Z</time>
      </trkpt>
      <trkpt lat="43.71126" lon="4.97831">
        <ele>400.54</ele>
        <time>2026-04-16T15:38:15.187Z</time>
      </trkpt>
      <trkpt lat="43.71125" lon="4.9783">
        <ele>400.12</ele>
        <time>2026-04-16T15:38:21.056Z</time>
      </trkpt>
      <trkpt lat="43.71125" lon="4.97829">
        <ele>400.33</ele>
        <time>2026-04-16T15:38:27.140Z</time>
      </trkpt>
      <trkpt lat="43.71125" lon="4.97828">
        <ele>400.27</ele>
        <time>2026-04-16T15:38:40.053Z</time>
      </trkpt>
      <trkpt lat="43.71126" lon="4.97829">
        <ele>399.53</ele>
        <time>2026-04-16T15:38:49.765Z</time>
      </trkpt>
      <trkpt lat="43.71126" lon="4.97831">
        <ele>400.13</ele>
        <time>2026-04-16T15:38:58.090Z</time>
      </trkpt>
      <trkpt lat="43.71126" lon="4.97832">
        <ele>400.8</ele>
        <time>2026-04-16T15:39:09.082Z</time>
      </trkpt>
      <trkpt lat="43.71126" lon="4.97833">
        <ele>400.81</ele>
        <time>2026-04-16T15:39:15.059Z</time>
      </trkpt>
      <trkpt lat="43.71125" lon="4.97833">
        <ele>401.67</ele>
        <time>2026-04-16T15:39:24.985Z</time>
      </trkpt>
      <trkpt lat="43.71125" lon="4.97832">
        <ele>402.17</ele>
        <time>2026-04-16T15:39:35.121Z</time>
      </trkpt>
      <trkpt lat="43.71125" lon="4.97831">
        <ele>400.9</ele>
        <time>2026-04-16T15:40:02.123Z</time>
      </trkpt>
      <trkpt lat="43.71126" lon="4.97831">
        <ele>400.68</ele>
        <time>2026-04-16T15:40:23.040Z</time>
      </trkpt>
      <trkpt lat="43.71128" lon="4.97831">
        <ele>399.8</ele>
        <time>2026-04-16T15:40:28.055Z</time>
      </trkpt>
      <trkpt lat="43.71129" lon="4.97832">
        <ele>400.02</ele>
        <time>2026-04-16T15:40:33.072Z</time>
      </trkpt>
      <trkpt lat="43.71128" lon="4.97833">
        <ele>401.11</ele>
        <time>2026-04-16T15:40:52.068Z</time>
      </trkpt>
      <trkpt lat="43.71127" lon="4.97834">
        <ele>399.36</ele>
        <time>2026-04-16T15:41:00.432Z</time>
      </trkpt>
      <trkpt lat="43.71127" lon="4.97835">
        <ele>398.41</ele>
        <time>2026-04-16T15:41:07.750Z</time>
      </trkpt>
      <trkpt lat="43.71127" lon="4.97839">
        <ele>398.07</ele>
        <time>2026-04-16T15:41:12.971Z</time>
      </trkpt>
      <trkpt lat="43.71126" lon="4.97842">
        <ele>397.43</ele>
        <time>2026-04-16T15:41:18.789Z</time>
      </trkpt>
      <trkpt lat="43.71126" lon="4.97846">
        <ele>397.3</ele>
        <time>2026-04-16T15:41:24.113Z</time>
      </trkpt>
      <trkpt lat="43.71125" lon="4.97847">
        <ele>396.96</ele>
        <time>2026-04-16T15:41:29.869Z</time>
      </trkpt>
      <trkpt lat="43.71124" lon="4.97849">
        <ele>398.55</ele>
        <time>2026-04-16T15:41:35.550Z</time>
      </trkpt>
      <trkpt lat="43.71123" lon="4.97852">
        <ele>398.77</ele>
        <time>2026-04-16T15:41:41.070Z</time>
      </trkpt>
      <trkpt lat="43.71123" lon="4.97854">
        <ele>398.11</ele>
        <time>2026-04-16T15:41:46.086Z</time>
      </trkpt>
      <trkpt lat="43.71123" lon="4.97855">
        <ele>397.68</ele>
        <time>2026-04-16T15:42:00.853Z</time>
      </trkpt>
      <trkpt lat="43.71124" lon="4.97858">
        <ele>397.33</ele>
        <time>2026-04-16T15:42:06.043Z</time>
      </trkpt>
      <trkpt lat="43.71123" lon="4.97863">
        <ele>397.02</ele>
        <time>2026-04-16T15:42:11.616Z</time>
      </trkpt>
      <trkpt lat="43.71123" lon="4.97864">
        <ele>397.12</ele>
        <time>2026-04-16T15:42:17.140Z</time>
      </trkpt>
      <trkpt lat="43.71123" lon="4.9787">
        <ele>397.92</ele>
        <time>2026-04-16T15:42:23.117Z</time>
      </trkpt>
      <trkpt lat="43.71123" lon="4.97873">
        <ele>397.79</ele>
        <time>2026-04-16T15:42:28.132Z</time>
      </trkpt>
      <trkpt lat="43.71126" lon="4.97879">
        <ele>396.24</ele>
        <time>2026-04-16T15:42:33.571Z</time>
      </trkpt>
      <trkpt lat="43.71126" lon="4.97881">
        <ele>396.13</ele>
        <time>2026-04-16T15:42:39.126Z</time>
      </trkpt>
      <trkpt lat="43.71127" lon="4.97882">
        <ele>396.29</ele>
        <time>2026-04-16T15:42:45.102Z</time>
      </trkpt>
      <trkpt lat="43.71128" lon="4.97884">
        <ele>396.63</ele>
        <time>2026-04-16T15:42:50.118Z</time>
      </trkpt>
      <trkpt lat="43.71129" lon="4.97889">
        <ele>396.29</ele>
        <time>2026-04-16T15:42:56.093Z</time>
      </trkpt>
      <trkpt lat="43.71131" lon="4.97893">
        <ele>395.09</ele>
        <time>2026-04-16T15:43:01.109Z</time>
      </trkpt>
      <trkpt lat="43.7113" lon="4.97895">
        <ele>396.91</ele>
        <time>2026-04-16T15:43:07.086Z</time>
      </trkpt>
      <trkpt lat="43.71131" lon="4.97895">
        <ele>397.54</ele>
        <time>2026-04-16T15:43:13.669Z</time>
      </trkpt>
      <trkpt lat="43.71132" lon="4.97896">
        <ele>397.01</ele>
        <time>2026-04-16T15:43:19.038Z</time>
      </trkpt>
      <trkpt lat="43.71133" lon="4.97896">
        <ele>395.16</ele>
        <time>2026-04-16T15:43:33.125Z</time>
      </trkpt>
      <trkpt lat="43.71134" lon="4.97897">
        <ele>394.93</ele>
        <time>2026-04-16T15:44:03.303Z</time>
      </trkpt>
      <trkpt lat="43.71134" lon="4.97899">
        <ele>393.34</ele>
        <time>2026-04-16T15:44:14.669Z</time>
      </trkpt>
      <trkpt lat="43.71134" lon="4.979">
        <ele>392.61</ele>
        <time>2026-04-16T15:44:26.631Z</time>
      </trkpt>
      <trkpt lat="43.71136" lon="4.97901">
        <ele>392.64</ele>
        <time>2026-04-16T15:44:31.832Z</time>
      </trkpt>
      <trkpt lat="43.71137" lon="4.97901">
        <ele>392.09</ele>
        <time>2026-04-16T15:44:37.049Z</time>
      </trkpt>
      <trkpt lat="43.71139" lon="4.97902">
        <ele>390.98</ele>
        <time>2026-04-16T15:44:42.172Z</time>
      </trkpt>
      <trkpt lat="43.71141" lon="4.97904">
        <ele>390.7</ele>
        <time>2026-04-16T15:44:47.288Z</time>
      </trkpt>
      <trkpt lat="43.71143" lon="4.97907">
        <ele>389.18</ele>
        <time>2026-04-16T15:44:52.873Z</time>
      </trkpt>
      <trkpt lat="43.71144" lon="4.97908">
        <ele>387.4</ele>
        <time>2026-04-16T15:45:04.155Z</time>
      </trkpt>
      <trkpt lat="43.71145" lon="4.9791">
        <ele>386.65</ele>
        <time>2026-04-16T15:45:09.592Z</time>
      </trkpt>
      <trkpt lat="43.71146" lon="4.97911">
        <ele>386.35</ele>
        <time>2026-04-16T15:45:14.861Z</time>
      </trkpt>
      <trkpt lat="43.71147" lon="4.97911">
        <ele>385.31</ele>
        <time>2026-04-16T15:45:23.044Z</time>
      </trkpt>
      <trkpt lat="43.71148" lon="4.97911">
        <ele>383.88</ele>
        <time>2026-04-16T15:45:32.116Z</time>
      </trkpt>
      <trkpt lat="43.7115" lon="4.97912">
        <ele>383.25</ele>
        <time>2026-04-16T15:45:37.154Z</time>
      </trkpt>
      <trkpt lat="43.71151" lon="4.97914">
        <ele>383.02</ele>
        <time>2026-04-16T15:45:43.138Z</time>
      </trkpt>
      <trkpt lat="43.71152" lon="4.97913">
        <ele>382.82</ele>
        <time>2026-04-16T15:45:50.090Z</time>
      </trkpt>
      <trkpt lat="43.71153" lon="4.97913">
        <ele>382.2</ele>
        <time>2026-04-16T15:45:56.128Z</time>
      </trkpt>
      <trkpt lat="43.71154" lon="4.97912">
        <ele>381.58</ele>
        <time>2026-04-16T15:46:01.144Z</time>
      </trkpt>
      <trkpt lat="43.71156" lon="4.97913">
        <ele>381.41</ele>
        <time>2026-04-16T15:46:06.848Z</time>
      </trkpt>
      <trkpt lat="43.71157" lon="4.97914">
        <ele>380.68</ele>
        <time>2026-04-16T15:46:12.135Z</time>
      </trkpt>
      <trkpt lat="43.71157" lon="4.97915">
        <ele>380.02</ele>
        <time>2026-04-16T15:46:17.152Z</time>
      </trkpt>
      <trkpt lat="43.71159" lon="4.97918">
        <ele>379.27</ele>
        <time>2026-04-16T15:46:23.128Z</time>
      </trkpt>
      <trkpt lat="43.7116" lon="4.97921">
        <ele>379.18</ele>
        <time>2026-04-16T15:46:28.832Z</time>
      </trkpt>
      <trkpt lat="43.71161" lon="4.97925">
        <ele>378.06</ele>
        <time>2026-04-16T15:46:35.080Z</time>
      </trkpt>
      <trkpt lat="43.71161" lon="4.97927">
        <ele>377.79</ele>
        <time>2026-04-16T15:46:40.095Z</time>
      </trkpt>
      <trkpt lat="43.7116" lon="4.97929">
        <ele>377.68</ele>
        <time>2026-04-16T15:46:46.081Z</time>
      </trkpt>
      <trkpt lat="43.7116" lon="4.9793">
        <ele>377.84</ele>
        <time>2026-04-16T15:46:55.511Z</time>
      </trkpt>
      <trkpt lat="43.7116" lon="4.97931">
        <ele>378.26</ele>
        <time>2026-04-16T15:47:03.131Z</time>
      </trkpt>
      <trkpt lat="43.71161" lon="4.97932">
        <ele>377.23</ele>
        <time>2026-04-16T15:47:11.875Z</time>
      </trkpt>
      <trkpt lat="43.71162" lon="4.97933">
        <ele>376.39</ele>
        <time>2026-04-16T15:47:17.947Z</time>
      </trkpt>
      <trkpt lat="43.71162" lon="4.97934">
        <ele>378.38</ele>
        <time>2026-04-16T15:47:37.095Z</time>
      </trkpt>
      <trkpt lat="43.71162" lon="4.97935">
        <ele>377.52</ele>
        <time>2026-04-16T15:47:43.804Z</time>
      </trkpt>
      <trkpt lat="43.71163" lon="4.97937">
        <ele>376.71</ele>
        <time>2026-04-16T15:47:51.940Z</time>
      </trkpt>
      <trkpt lat="43.71163" lon="4.97938">
        <ele>376.27</ele>
        <time>2026-04-16T15:47:57.159Z</time>
      </trkpt>
      <trkpt lat="43.71163" lon="4.97939">
        <ele>376.41</ele>
        <time>2026-04-16T15:48:04.096Z</time>
      </trkpt>
      <trkpt lat="43.71163" lon="4.9794">
        <ele>376.41</ele>
        <time>2026-04-16T15:48:14.140Z</time>
      </trkpt>
      <trkpt lat="43.71163" lon="4.97943">
        <ele>376.13</ele>
        <time>2026-04-16T15:48:20.104Z</time>
      </trkpt>
      <trkpt lat="43.71163" lon="4.97945">
        <ele>375.23</ele>
        <time>2026-04-16T15:48:25.122Z</time>
      </trkpt>
      <trkpt lat="43.71162" lon="4.97951">
        <ele>375.57</ele>
        <time>2026-04-16T15:48:31.096Z</time>
      </trkpt>
      <trkpt lat="43.71162" lon="4.97955">
        <ele>375.93</ele>
        <time>2026-04-16T15:48:36.267Z</time>
      </trkpt>
      <trkpt lat="43.71162" lon="4.97961">
        <ele>376.21</ele>
        <time>2026-04-16T15:48:42.099Z</time>
      </trkpt>
      <trkpt lat="43.71163" lon="4.97963">
        <ele>376.18</ele>
        <time>2026-04-16T15:48:48.064Z</time>
      </trkpt>
      <trkpt lat="43.71163" lon="4.97965">
        <ele>377.17</ele>
        <time>2026-04-16T15:48:53.080Z</time>
      </trkpt>
      <trkpt lat="43.71162" lon="4.97967">
        <ele>378.12</ele>
        <time>2026-04-16T15:48:58.096Z</time>
      </trkpt>
      <trkpt lat="43.71162" lon="4.97968">
        <ele>377.41</ele>
        <time>2026-04-16T15:49:05.139Z</time>
      </trkpt>
      <trkpt lat="43.71161" lon="4.9797">
        <ele>377.07</ele>
        <time>2026-04-16T15:49:10.155Z</time>
      </trkpt>
      <trkpt lat="43.7116" lon="4.97971">
        <ele>379</ele>
        <time>2026-04-16T15:49:20.187Z</time>
      </trkpt>
      <trkpt lat="43.71159" lon="4.97972">
        <ele>379.65</ele>
        <time>2026-04-16T15:49:28.033Z</time>
      </trkpt>
      <trkpt lat="43.71158" lon="4.97971">
        <ele>379.57</ele>
        <time>2026-04-16T15:49:33.100Z</time>
      </trkpt>
      <trkpt lat="43.71157" lon="4.97971">
        <ele>379.21</ele>
        <time>2026-04-16T15:49:38.114Z</time>
      </trkpt>
      <trkpt lat="43.71157" lon="4.97972">
        <ele>380.4</ele>
        <time>2026-04-16T15:49:43.131Z</time>
      </trkpt>
      <trkpt lat="43.71156" lon="4.97973">
        <ele>379.98</ele>
        <time>2026-04-16T15:49:48.147Z</time>
      </trkpt>
      <trkpt lat="43.71155" lon="4.97973">
        <ele>380.05</ele>
        <time>2026-04-16T15:49:58.120Z</time>
      </trkpt>
      <trkpt lat="43.71155" lon="4.97975">
        <ele>379.18</ele>
        <time>2026-04-16T15:50:10.131Z</time>
      </trkpt>
      <trkpt lat="43.71155" lon="4.97977">
        <ele>379.05</ele>
        <time>2026-04-16T15:50:15.146Z</time>
      </trkpt>
      <trkpt lat="43.71156" lon="4.97979">
        <ele>378.4</ele>
        <time>2026-04-16T15:50:20.876Z</time>
      </trkpt>
      <trkpt lat="43.71156" lon="4.97981">
        <ele>378.44</ele>
        <time>2026-04-16T15:50:26.138Z</time>
      </trkpt>
      <trkpt lat="43.71156" lon="4.97982">
        <ele>378.08</ele>
        <time>2026-04-16T15:50:31.154Z</time>
      </trkpt>
      <trkpt lat="43.71157" lon="4.97983">
        <ele>378.86</ele>
        <time>2026-04-16T15:50:52.070Z</time>
      </trkpt>
      <trkpt lat="43.71157" lon="4.97987">
        <ele>378.24</ele>
        <time>2026-04-16T15:50:57.087Z</time>
      </trkpt>
      <trkpt lat="43.71157" lon="4.97992">
        <ele>376.43</ele>
        <time>2026-04-16T15:51:03.100Z</time>
      </trkpt>
      <trkpt lat="43.71157" lon="4.97993">
        <ele>375.6</ele>
        <time>2026-04-16T15:51:14.162Z</time>
      </trkpt>
      <trkpt lat="43.71156" lon="4.97995">
        <ele>376.94</ele>
        <time>2026-04-16T15:51:29.102Z</time>
      </trkpt>
      <trkpt lat="43.71155" lon="4.97995">
        <ele>377.95</ele>
        <time>2026-04-16T15:51:34.117Z</time>
      </trkpt>
      <trkpt lat="43.71153" lon="4.97995">
        <ele>378.26</ele>
        <time>2026-04-16T15:51:40.093Z</time>
      </trkpt>
      <trkpt lat="43.71152" lon="4.97996">
        <ele>378.37</ele>
        <time>2026-04-16T15:51:46.021Z</time>
      </trkpt>
      <trkpt lat="43.71151" lon="4.97997">
        <ele>378.19</ele>
        <time>2026-04-16T15:51:53.114Z</time>
      </trkpt>
      <trkpt lat="43.71151" lon="4.97999">
        <ele>379.57</ele>
        <time>2026-04-16T15:51:58.129Z</time>
      </trkpt>
      <trkpt lat="43.7115" lon="4.97997">
        <ele>382.22</ele>
        <time>2026-04-16T15:52:27.164Z</time>
      </trkpt>
      <trkpt lat="43.7115" lon="4.97996">
        <ele>380.35</ele>
        <time>2026-04-16T15:52:46.161Z</time>
      </trkpt>
      <trkpt lat="43.71149" lon="4.97994">
        <ele>383.08</ele>
        <time>2026-04-16T15:52:52.137Z</time>
      </trkpt>
      <trkpt lat="43.71147" lon="4.97992">
        <ele>382.31</ele>
        <time>2026-04-16T15:52:57.152Z</time>
      </trkpt>
      <trkpt lat="43.71146" lon="4.97992">
        <ele>384.56</ele>
        <time>2026-04-16T15:53:03.026Z</time>
      </trkpt>
      <trkpt lat="43.71145" lon="4.97991">
        <ele>384.01</ele>
        <time>2026-04-16T15:53:08.162Z</time>
      </trkpt>
      <trkpt lat="43.71144" lon="4.97992">
        <ele>382.06</ele>
        <time>2026-04-16T15:53:15.099Z</time>
      </trkpt>
      <trkpt lat="43.71142" lon="4.97993">
        <ele>387.74</ele>
        <time>2026-04-16T15:53:20.114Z</time>
      </trkpt>
      <trkpt lat="43.71141" lon="4.97993">
        <ele>388.32</ele>
        <time>2026-04-16T15:53:27.810Z</time>
      </trkpt>
      <trkpt lat="43.7114" lon="4.97993">
        <ele>386.5</ele>
        <time>2026-04-16T15:53:51.851Z</time>
      </trkpt>
      <trkpt lat="43.71139" lon="4.97992">
        <ele>389.07</ele>
        <time>2026-04-16T15:53:58.123Z</time>
      </trkpt>
      <trkpt lat="43.71138" lon="4.9799">
        <ele>390.85</ele>
        <time>2026-04-16T15:54:04.098Z</time>
      </trkpt>
      <trkpt lat="43.71138" lon="4.97989">
        <ele>390.04</ele>
        <time>2026-04-16T15:54:14.419Z</time>
      </trkpt>
      <trkpt lat="43.71138" lon="4.97987">
        <ele>390.3</ele>
        <time>2026-04-16T15:54:19.957Z</time>
      </trkpt>
      <trkpt lat="43.71138" lon="4.97986">
        <ele>391.32</ele>
        <time>2026-04-16T15:54:35.920Z</time>
      </trkpt>
      <trkpt lat="43.71137" lon="4.97987">
        <ele>391.87</ele>
        <time>2026-04-16T15:54:46.761Z</time>
      </trkpt>
      <trkpt lat="43.71136" lon="4.97987">
        <ele>391.91</ele>
        <time>2026-04-16T15:54:51.956Z</time>
      </trkpt>
      <trkpt lat="43.71134" lon="4.9799">
        <ele>393.34</ele>
        <time>2026-04-16T15:54:57.154Z</time>
      </trkpt>
      <trkpt lat="43.71134" lon="4.97991">
        <ele>392.59</ele>
        <time>2026-04-16T15:55:03.130Z</time>
      </trkpt>
      <trkpt lat="43.71133" lon="4.97992">
        <ele>393.84</ele>
        <time>2026-04-16T15:55:08.131Z</time>
      </trkpt>
      <trkpt lat="43.71132" lon="4.97993">
        <ele>394.17</ele>
        <time>2026-04-16T15:55:13.739Z</time>
      </trkpt>
      <trkpt lat="43.71131" lon="4.97994">
        <ele>396.24</ele>
        <time>2026-04-16T15:55:18.891Z</time>
      </trkpt>
      <trkpt lat="43.7113" lon="4.97994">
        <ele>397.59</ele>
        <time>2026-04-16T15:55:29.168Z</time>
      </trkpt>
      <trkpt lat="43.71129" lon="4.97994">
        <ele>398.16</ele>
        <time>2026-04-16T15:55:34.596Z</time>
      </trkpt>
      <trkpt lat="43.71128" lon="4.97993">
        <ele>399.27</ele>
        <time>2026-04-16T15:55:42.081Z</time>
      </trkpt>
      <trkpt lat="43.71127" lon="4.97993">
        <ele>399.08</ele>
        <time>2026-04-16T15:55:48.163Z</time>
      </trkpt>
      <trkpt lat="43.71126" lon="4.97993">
        <ele>399.23</ele>
        <time>2026-04-16T15:56:01.076Z</time>
      </trkpt>
      <trkpt lat="43.71126" lon="4.97994">
        <ele>400.91</ele>
        <time>2026-04-16T15:56:11.106Z</time>
      </trkpt>
      <trkpt lat="43.71125" lon="4.97995">
        <ele>400.89</ele>
        <time>2026-04-16T15:56:18.972Z</time>
      </trkpt>
      <trkpt lat="43.71125" lon="4.97996">
        <ele>399.91</ele>
        <time>2026-04-16T15:56:24.734Z</time>
      </trkpt>
      <trkpt lat="43.71124" lon="4.97998">
        <ele>399.91</ele>
        <time>2026-04-16T15:56:30.119Z</time>
      </trkpt>
      <trkpt lat="43.71122" lon="4.98003">
        <ele>401.77</ele>
        <time>2026-04-16T15:56:35.412Z</time>
      </trkpt>
      <trkpt lat="43.7112" lon="4.98006">
        <ele>402.07</ele>
        <time>2026-04-16T15:56:40.812Z</time>
      </trkpt>
      <trkpt lat="43.71118" lon="4.98006">
        <ele>401.87</ele>
        <time>2026-04-16T15:56:46.144Z</time>
      </trkpt>
      <trkpt lat="43.71115" lon="4.98011">
        <ele>402.02</ele>
        <time>2026-04-16T15:56:51.845Z</time>
      </trkpt>
      <trkpt lat="43.7111" lon="4.98017">
        <ele>403.77</ele>
        <time>2026-04-16T15:56:57.135Z</time>
      </trkpt>
      <trkpt lat="43.71108" lon="4.98023">
        <ele>403.91</ele>
        <time>2026-04-16T15:57:03.147Z</time>
      </trkpt>
      <trkpt lat="43.71108" lon="4.98024">
        <ele>405</ele>
        <time>2026-04-16T15:57:09.179Z</time>
      </trkpt>
      <trkpt lat="43.71108" lon="4.98026">
        <ele>405.69</ele>
        <time>2026-04-16T15:57:15.171Z</time>
      </trkpt>
      <trkpt lat="43.71108" lon="4.98027">
        <ele>404.89</ele>
        <time>2026-04-16T15:57:24.600Z</time>
      </trkpt>
      <trkpt lat="43.71106" lon="4.98028">
        <ele>408.01</ele>
        <time>2026-04-16T15:57:29.980Z</time>
      </trkpt>
      <trkpt lat="43.71103" lon="4.98033">
        <ele>408.21</ele>
        <time>2026-04-16T15:57:35.173Z</time>
      </trkpt>
      <trkpt lat="43.711" lon="4.98036">
        <ele>408.68</ele>
        <time>2026-04-16T15:57:40.732Z</time>
      </trkpt>
      <trkpt lat="43.711" lon="4.98038">
        <ele>408.63</ele>
        <time>2026-04-16T15:57:46.117Z</time>
      </trkpt>
      <trkpt lat="43.71099" lon="4.98039">
        <ele>409.27</ele>
        <time>2026-04-16T15:57:53.053Z</time>
      </trkpt>
      <trkpt lat="43.71097" lon="4.9804">
        <ele>410.63</ele>
        <time>2026-04-16T15:57:58.176Z</time>
      </trkpt>
      <trkpt lat="43.71097" lon="4.98043">
        <ele>410.21</ele>
        <time>2026-04-16T15:58:04.150Z</time>
      </trkpt>
      <trkpt lat="43.71097" lon="4.98044">
        <ele>410.05</ele>
        <time>2026-04-16T15:58:09.166Z</time>
      </trkpt>
      <trkpt lat="43.71097" lon="4.98046">
        <ele>409.74</ele>
        <time>2026-04-16T15:58:19.091Z</time>
      </trkpt>
      <trkpt lat="43.71096" lon="4.98047">
        <ele>409.44</ele>
        <time>2026-04-16T15:58:34.131Z</time>
      </trkpt>
      <trkpt lat="43.71097" lon="4.98048">
        <ele>409.17</ele>
        <time>2026-04-16T15:58:41.073Z</time>
      </trkpt>
      <trkpt lat="43.71097" lon="4.9805">
        <ele>407.84</ele>
        <time>2026-04-16T15:58:53.132Z</time>
      </trkpt>
      <trkpt lat="43.71096" lon="4.98051">
        <ele>407.99</ele>
        <time>2026-04-16T15:58:59.109Z</time>
      </trkpt>
      <trkpt lat="43.71096" lon="4.98052">
        <ele>408.81</ele>
        <time>2026-04-16T15:59:04.124Z</time>
      </trkpt>
      <trkpt lat="43.71096" lon="4.98054">
        <ele>407.33</ele>
        <time>2026-04-16T15:59:16.053Z</time>
      </trkpt>
      <trkpt lat="43.71096" lon="4.98057">
        <ele>406.8</ele>
        <time>2026-04-16T15:59:21.090Z</time>
      </trkpt>
      <trkpt lat="43.71096" lon="4.98059">
        <ele>406.2</ele>
        <time>2026-04-16T15:59:26.106Z</time>
      </trkpt>
      <trkpt lat="43.71095" lon="4.9806">
        <ele>405.37</ele>
        <time>2026-04-16T15:59:31.126Z</time>
      </trkpt>
      <trkpt lat="43.71095" lon="4.98061">
        <ele>406.65</ele>
        <time>2026-04-16T15:59:47.818Z</time>
      </trkpt>
      <trkpt lat="43.71095" lon="4.98063">
        <ele>407.32</ele>
        <time>2026-04-16T15:59:58.125Z</time>
      </trkpt>
      <trkpt lat="43.71094" lon="4.98065">
        <ele>406.9</ele>
        <time>2026-04-16T16:00:03.893Z</time>
      </trkpt>
      <trkpt lat="43.71094" lon="4.98067">
        <ele>406.11</ele>
        <time>2026-04-16T16:00:09.116Z</time>
      </trkpt>
      <trkpt lat="43.71093" lon="4.98068">
        <ele>406.13</ele>
        <time>2026-04-16T16:00:14.733Z</time>
      </trkpt>
      <trkpt lat="43.71094" lon="4.98069">
        <ele>406.61</ele>
        <time>2026-04-16T16:00:35.074Z</time>
      </trkpt>
      <trkpt lat="43.71099" lon="4.98071">
        <ele>405.37</ele>
        <time>2026-04-16T16:00:40.106Z</time>
      </trkpt>
      <trkpt lat="43.71104" lon="4.98074">
        <ele>404.86</ele>
        <time>2026-04-16T16:00:45.708Z</time>
      </trkpt>
      <trkpt lat="43.71107" lon="4.98079">
        <ele>404.85</ele>
        <time>2026-04-16T16:00:51.073Z</time>
      </trkpt>
      <trkpt lat="43.71112" lon="4.98084">
        <ele>406.2</ele>
        <time>2026-04-16T16:00:57.050Z</time>
      </trkpt>
      <trkpt lat="43.71115" lon="4.98086">
        <ele>406.15</ele>
        <time>2026-04-16T16:01:03.109Z</time>
      </trkpt>
      <trkpt lat="43.71117" lon="4.98085">
        <ele>406.33</ele>
        <time>2026-04-16T16:01:08.125Z</time>
      </trkpt>
      <trkpt lat="43.7112" lon="4.98086">
        <ele>406.95</ele>
        <time>2026-04-16T16:01:14.101Z</time>
      </trkpt>
      <trkpt lat="43.71121" lon="4.98087">
        <ele>407.55</ele>
        <time>2026-04-16T16:01:19.634Z</time>
      </trkpt>
      <trkpt lat="43.71124" lon="4.98089">
        <ele>408.31</ele>
        <time>2026-04-16T16:01:25.093Z</time>
      </trkpt>
      <trkpt lat="43.71125" lon="4.9809">
        <ele>409.58</ele>
        <time>2026-04-16T16:01:40.140Z</time>
      </trkpt>
      <trkpt lat="43.71125" lon="4.98092">
        <ele>411.72</ele>
        <time>2026-04-16T16:01:45.154Z</time>
      </trkpt>
      <trkpt lat="43.71126" lon="4.98094">
        <ele>412.29</ele>
        <time>2026-04-16T16:01:50.171Z</time>
      </trkpt>
      <trkpt lat="43.71127" lon="4.98096">
        <ele>413.14</ele>
        <time>2026-04-16T16:01:56.171Z</time>
      </trkpt>
      <trkpt lat="43.71128" lon="4.98098">
        <ele>413.45</ele>
        <time>2026-04-16T16:02:01.506Z</time>
      </trkpt>
      <trkpt lat="43.71128" lon="4.98099">
        <ele>415.31</ele>
        <time>2026-04-16T16:02:11.087Z</time>
      </trkpt>
      <trkpt lat="43.71127" lon="4.981">
        <ele>414.67</ele>
        <time>2026-04-16T16:02:16.110Z</time>
      </trkpt>
      <trkpt lat="43.71128" lon="4.98102">
        <ele>414.39</ele>
        <time>2026-04-16T16:02:21.127Z</time>
      </trkpt>
      <trkpt lat="43.71128" lon="4.98102">
        <ele>416.87</ele>
        <time>2026-04-16T16:02:37.142Z</time>
      </trkpt>
      <trkpt lat="43.71127" lon="4.98102">
        <ele>418.52</ele>
        <time>2026-04-16T16:02:44.186Z</time>
      </trkpt>
      <trkpt lat="43.71127" lon="4.98105">
        <ele>419.36</ele>
        <time>2026-04-16T16:02:49.409Z</time>
      </trkpt>
      <trkpt lat="43.71128" lon="4.98108">
        <ele>418.46</ele>
        <time>2026-04-16T16:02:55.091Z</time>
      </trkpt>
      <trkpt lat="43.71129" lon="4.98109">
        <ele>419.4</ele>
        <time>2026-04-16T16:03:00.104Z</time>
      </trkpt>
      <trkpt lat="43.71129" lon="4.98111">
        <ele>420.68</ele>
        <time>2026-04-16T16:03:05.630Z</time>
      </trkpt>
      <trkpt lat="43.7113" lon="4.98113">
        <ele>421.87</ele>
        <time>2026-04-16T16:03:11.094Z</time>
      </trkpt>
      <trkpt lat="43.71129" lon="4.98114">
        <ele>422.35</ele>
        <time>2026-04-16T16:03:16.111Z</time>
      </trkpt>
      <trkpt lat="43.71128" lon="4.98116">
        <ele>423.45</ele>
        <time>2026-04-16T16:03:21.125Z</time>
      </trkpt>
      <trkpt lat="43.71125" lon="4.98119">
        <ele>423.9</ele>
        <time>2026-04-16T16:03:26.141Z</time>
      </trkpt>
      <trkpt lat="43.71123" lon="4.98123">
        <ele>424.31</ele>
        <time>2026-04-16T16:03:31.731Z</time>
      </trkpt>
      <trkpt lat="43.71123" lon="4.98128">
        <ele>423.83</ele>
        <time>2026-04-16T16:03:36.732Z</time>
      </trkpt>
      <trkpt lat="43.71123" lon="4.98132">
        <ele>423.39</ele>
        <time>2026-04-16T16:03:42.149Z</time>
      </trkpt>
      <trkpt lat="43.71124" lon="4.98136">
        <ele>424.06</ele>
        <time>2026-04-16T16:03:47.568Z</time>
      </trkpt>
      <trkpt lat="43.71123" lon="4.98138">
        <ele>424.29</ele>
        <time>2026-04-16T16:03:53.034Z</time>
      </trkpt>
      <trkpt lat="43.71121" lon="4.98145">
        <ele>424.05</ele>
        <time>2026-04-16T16:03:58.790Z</time>
      </trkpt>
      <trkpt lat="43.71121" lon="4.98151">
        <ele>423.72</ele>
        <time>2026-04-16T16:04:04.149Z</time>
      </trkpt>
      <trkpt lat="43.71122" lon="4.98155">
        <ele>423.77</ele>
        <time>2026-04-16T16:04:09.312Z</time>
      </trkpt>
      <trkpt lat="43.71122" lon="4.98161">
        <ele>423.09</ele>
        <time>2026-04-16T16:04:14.611Z</time>
      </trkpt>
      <trkpt lat="43.71121" lon="4.98162">
        <ele>422.42</ele>
        <time>2026-04-16T16:04:20.157Z</time>
      </trkpt>
      <trkpt lat="43.71121" lon="4.98164">
        <ele>422.39</ele>
        <time>2026-04-16T16:04:25.838Z</time>
      </trkpt>
      <trkpt lat="43.71121" lon="4.98167">
        <ele>422.06</ele>
        <time>2026-04-16T16:04:30.939Z</time>
      </trkpt>
      <trkpt lat="43.7112" lon="4.98167">
        <ele>422.21</ele>
        <time>2026-04-16T16:04:43.100Z</time>
      </trkpt>
      <trkpt lat="43.71121" lon="4.98169">
        <ele>423.88</ele>
        <time>2026-04-16T16:05:17.035Z</time>
      </trkpt>
      <trkpt lat="43.71121" lon="4.9817">
        <ele>424.22</ele>
        <time>2026-04-16T16:05:24.658Z</time>
      </trkpt>
      <trkpt lat="43.71122" lon="4.98174">
        <ele>424.64</ele>
        <time>2026-04-16T16:05:30.064Z</time>
      </trkpt>
      <trkpt lat="43.71125" lon="4.98179">
        <ele>424.23</ele>
        <time>2026-04-16T16:05:36.022Z</time>
      </trkpt>
      <trkpt lat="43.71127" lon="4.98183">
        <ele>424.15</ele>
        <time>2026-04-16T16:05:41.103Z</time>
      </trkpt>
      <trkpt lat="43.71131" lon="4.98189">
        <ele>424.54</ele>
        <time>2026-04-16T16:05:47.147Z</time>
      </trkpt>
      <trkpt lat="43.71136" lon="4.98191">
        <ele>424.46</ele>
        <time>2026-04-16T16:05:52.583Z</time>
      </trkpt>
      <trkpt lat="43.71137" lon="4.9819">
        <ele>424.74</ele>
        <time>2026-04-16T16:06:04.115Z</time>
      </trkpt>
      <trkpt lat="43.71138" lon="4.98189">
        <ele>427.11</ele>
        <time>2026-04-16T16:06:09.659Z</time>
      </trkpt>
      <trkpt lat="43.7114" lon="4.98188">
        <ele>427.59</ele>
        <time>2026-04-16T16:06:15.083Z</time>
      </trkpt>
      <trkpt lat="43.71142" lon="4.98189">
        <ele>428.65</ele>
        <time>2026-04-16T16:06:20.122Z</time>
      </trkpt>
      <trkpt lat="43.71145" lon="4.98189">
        <ele>429.65</ele>
        <time>2026-04-16T16:06:25.160Z</time>
      </trkpt>
      <trkpt lat="43.71147" lon="4.9819">
        <ele>430.26</ele>
        <time>2026-04-16T16:06:30.904Z</time>
      </trkpt>
      <trkpt lat="43.71149" lon="4.98191">
        <ele>431.99</ele>
        <time>2026-04-16T16:06:36.129Z</time>
      </trkpt>
      <trkpt lat="43.7115" lon="4.9819">
        <ele>432.97</ele>
        <time>2026-04-16T16:06:41.744Z</time>
      </trkpt>
      <trkpt lat="43.71151" lon="4.9819">
        <ele>432.67</ele>
        <time>2026-04-16T16:06:47.120Z</time>
      </trkpt>
      <trkpt lat="43.71152" lon="4.9819">
        <ele>434.15</ele>
        <time>2026-04-16T16:07:05.155Z</time>
      </trkpt>
      <trkpt lat="43.71154" lon="4.98191">
        <ele>434.7</ele>
        <time>2026-04-16T16:07:10.171Z</time>
      </trkpt>
      <trkpt lat="43.71155" lon="4.98192">
        <ele>434.42</ele>
        <time>2026-04-16T16:07:15.840Z</time>
      </trkpt>
      <trkpt lat="43.71158" lon="4.98192">
        <ele>436.38</ele>
        <time>2026-04-16T16:07:20.915Z</time>
      </trkpt>
      <trkpt lat="43.71159" lon="4.98193">
        <ele>436.24</ele>
        <time>2026-04-16T16:07:26.186Z</time>
      </trkpt>
      <trkpt lat="43.7116" lon="4.98194">
        <ele>439.37</ele>
        <time>2026-04-16T16:07:32.904Z</time>
      </trkpt>
      <trkpt lat="43.7116" lon="4.98195">
        <ele>439.4</ele>
        <time>2026-04-16T16:07:38.138Z</time>
      </trkpt>
      <trkpt lat="43.71161" lon="4.98195">
        <ele>438.69</ele>
        <time>2026-04-16T16:07:44.114Z</time>
      </trkpt>
      <trkpt lat="43.71162" lon="4.98196">
        <ele>439.65</ele>
        <time>2026-04-16T16:07:50.089Z</time>
      </trkpt>
      <trkpt lat="43.71163" lon="4.98195">
        <ele>439.17</ele>
        <time>2026-04-16T16:07:57.203Z</time>
      </trkpt>
      <trkpt lat="43.71164" lon="4.98196">
        <ele>441.85</ele>
        <time>2026-04-16T16:08:03.109Z</time>
      </trkpt>
      <trkpt lat="43.71165" lon="4.98197">
        <ele>440.71</ele>
        <time>2026-04-16T16:08:08.125Z</time>
      </trkpt>
      <trkpt lat="43.71166" lon="4.98198">
        <ele>440.35</ele>
        <time>2026-04-16T16:08:17.107Z</time>
      </trkpt>
      <trkpt lat="43.71167" lon="4.98198">
        <ele>442.9</ele>
        <time>2026-04-16T16:08:24.150Z</time>
      </trkpt>
      <trkpt lat="43.71168" lon="4.98198">
        <ele>441.8</ele>
        <time>2026-04-16T16:08:37.169Z</time>
      </trkpt>
      <trkpt lat="43.7117" lon="4.98198">
        <ele>444.64</ele>
        <time>2026-04-16T16:08:42.184Z</time>
      </trkpt>
      <trkpt lat="43.71172" lon="4.98199">
        <ele>444.96</ele>
        <time>2026-04-16T16:08:48.146Z</time>
      </trkpt>
      <trkpt lat="43.71174" lon="4.98198">
        <ele>446.13</ele>
        <time>2026-04-16T16:08:54.135Z</time>
      </trkpt>
      <trkpt lat="43.71174" lon="4.98198">
        <ele>447.87</ele>
        <time>2026-04-16T16:09:18.146Z</time>
      </trkpt>
      <trkpt lat="43.71175" lon="4.98198">
        <ele>448.67</ele>
        <time>2026-04-16T16:09:31.165Z</time>
      </trkpt>
      <trkpt lat="43.71176" lon="4.98199">
        <ele>448.68</ele>
        <time>2026-04-16T16:09:36.181Z</time>
      </trkpt>
      <trkpt lat="43.71177" lon="4.98199">
        <ele>449.04</ele>
        <time>2026-04-16T16:09:46.105Z</time>
      </trkpt>
      <trkpt lat="43.71178" lon="4.982">
        <ele>451.71</ele>
        <time>2026-04-16T16:09:51.828Z</time>
      </trkpt>
      <trkpt lat="43.71179" lon="4.98202">
        <ele>451.96</ele>
        <time>2026-04-16T16:09:56.833Z</time>
      </trkpt>
      <trkpt lat="43.71179" lon="4.98206">
        <ele>451.74</ele>
        <time>2026-04-16T16:10:02.130Z</time>
      </trkpt>
      <trkpt lat="43.71179" lon="4.98209">
        <ele>452.36</ele>
        <time>2026-04-16T16:10:07.790Z</time>
      </trkpt>
      <trkpt lat="43.71179" lon="4.98211">
        <ele>452.55</ele>
        <time>2026-04-16T16:10:13.348Z</time>
      </trkpt>
      <trkpt lat="43.71179" lon="4.98213">
        <ele>453.51</ele>
        <time>2026-04-16T16:10:19.097Z</time>
      </trkpt>
      <trkpt lat="43.71178" lon="4.98214">
        <ele>453.52</ele>
        <time>2026-04-16T16:10:26.158Z</time>
      </trkpt>
      <trkpt lat="43.71178" lon="4.98216">
        <ele>453.67</ele>
        <time>2026-04-16T16:10:32.133Z</time>
      </trkpt>
      <trkpt lat="43.71176" lon="4.98219">
        <ele>454.99</ele>
        <time>2026-04-16T16:10:38.110Z</time>
      </trkpt>
      <trkpt lat="43.71175" lon="4.9822">
        <ele>454.89</ele>
        <time>2026-04-16T16:10:43.125Z</time>
      </trkpt>
      <trkpt lat="43.71175" lon="4.98221">
        <ele>457.1</ele>
        <time>2026-04-16T16:10:54.117Z</time>
      </trkpt>
      <trkpt lat="43.71175" lon="4.98222">
        <ele>457</ele>
        <time>2026-04-16T16:11:19.088Z</time>
      </trkpt>
      <trkpt lat="43.71176" lon="4.98223">
        <ele>457.62</ele>
        <time>2026-04-16T16:11:27.778Z</time>
      </trkpt>
      <trkpt lat="43.71177" lon="4.98225">
        <ele>457.03</ele>
        <time>2026-04-16T16:11:32.989Z</time>
      </trkpt>
      <trkpt lat="43.71178" lon="4.98225">
        <ele>460.2</ele>
        <time>2026-04-16T16:11:38.110Z</time>
      </trkpt>
      <trkpt lat="43.71179" lon="4.98226">
        <ele>460.34</ele>
        <time>2026-04-16T16:11:45.161Z</time>
      </trkpt>
      <trkpt lat="43.71181" lon="4.98227">
        <ele>461.68</ele>
        <time>2026-04-16T16:11:50.176Z</time>
      </trkpt>
      <trkpt lat="43.71181" lon="4.98229">
        <ele>462.02</ele>
        <time>2026-04-16T16:11:55.752Z</time>
      </trkpt>
      <trkpt lat="43.71181" lon="4.98232">
        <ele>462.23</ele>
        <time>2026-04-16T16:12:01.173Z</time>
      </trkpt>
      <trkpt lat="43.7118" lon="4.98235">
        <ele>462.09</ele>
        <time>2026-04-16T16:12:07.144Z</time>
      </trkpt>
      <trkpt lat="43.71179" lon="4.98236">
        <ele>461.81</ele>
        <time>2026-04-16T16:12:12.349Z</time>
      </trkpt>
      <trkpt lat="43.71179" lon="4.98237">
        <ele>461.05</ele>
        <time>2026-04-16T16:12:18.136Z</time>
      </trkpt>
      <trkpt lat="43.71179" lon="4.98239">
        <ele>462.82</ele>
        <time>2026-04-16T16:12:24.112Z</time>
      </trkpt>
      <trkpt lat="43.71179" lon="4.9824">
        <ele>462.51</ele>
        <time>2026-04-16T16:12:31.165Z</time>
      </trkpt>
      <trkpt lat="43.7118" lon="4.98242">
        <ele>464.23</ele>
        <time>2026-04-16T16:12:36.170Z</time>
      </trkpt>
      <trkpt lat="43.7118" lon="4.98243">
        <ele>465.31</ele>
        <time>2026-04-16T16:12:42.887Z</time>
      </trkpt>
      <trkpt lat="43.71181" lon="4.98244">
        <ele>466.77</ele>
        <time>2026-04-16T16:12:48.122Z</time>
      </trkpt>
      <trkpt lat="43.71184" lon="4.98248">
        <ele>467.07</ele>
        <time>2026-04-16T16:12:53.138Z</time>
      </trkpt>
      <trkpt lat="43.71186" lon="4.9825">
        <ele>467.15</ele>
        <time>2026-04-16T16:12:58.153Z</time>
      </trkpt>
      <trkpt lat="43.71187" lon="4.98251">
        <ele>467.72</ele>
        <time>2026-04-16T16:13:03.168Z</time>
      </trkpt>
      <trkpt lat="43.71187" lon="4.98252">
        <ele>468.17</ele>
        <time>2026-04-16T16:13:09.111Z</time>
      </trkpt>
      <trkpt lat="43.71188" lon="4.98255">
        <ele>469.08</ele>
        <time>2026-04-16T16:13:14.160Z</time>
      </trkpt>
      <trkpt lat="43.71188" lon="4.9826">
        <ele>470.28</ele>
        <time>2026-04-16T16:13:19.176Z</time>
      </trkpt>
      <trkpt lat="43.71186" lon="4.98265">
        <ele>470.11</ele>
        <time>2026-04-16T16:13:25.151Z</time>
      </trkpt>
      <trkpt lat="43.71184" lon="4.98271">
        <ele>469.36</ele>
        <time>2026-04-16T16:13:30.168Z</time>
      </trkpt>
      <trkpt lat="43.71185" lon="4.98273">
        <ele>470.46</ele>
        <time>2026-04-16T16:13:35.955Z</time>
      </trkpt>
      <trkpt lat="43.71185" lon="4.98274">
        <ele>471.19</ele>
        <time>2026-04-16T16:13:41.159Z</time>
      </trkpt>
      <trkpt lat="43.71186" lon="4.98275">
        <ele>470.4</ele>
        <time>2026-04-16T16:13:53.968Z</time>
      </trkpt>
      <trkpt lat="43.71186" lon="4.98276">
        <ele>471.84</ele>
        <time>2026-04-16T16:14:00.129Z</time>
      </trkpt>
      <trkpt lat="43.71188" lon="4.98277">
        <ele>473.03</ele>
        <time>2026-04-16T16:14:05.170Z</time>
      </trkpt>
      <trkpt lat="43.71191" lon="4.98278">
        <ele>473.6</ele>
        <time>2026-04-16T16:14:11.085Z</time>
      </trkpt>
      <trkpt lat="43.71194" lon="4.98277">
        <ele>473.87</ele>
        <time>2026-04-16T16:14:16.161Z</time>
      </trkpt>
      <trkpt lat="43.71195" lon="4.98277">
        <ele>474.59</ele>
        <time>2026-04-16T16:14:21.176Z</time>
      </trkpt>
      <trkpt lat="43.71196" lon="4.98276">
        <ele>475.95</ele>
        <time>2026-04-16T16:14:27.153Z</time>
      </trkpt>
      <trkpt lat="43.71196" lon="4.98275">
        <ele>477.62</ele>
        <time>2026-04-16T16:14:44.120Z</time>
      </trkpt>
      <trkpt lat="43.71198" lon="4.98274">
        <ele>477.74</ele>
        <time>2026-04-16T16:14:50.108Z</time>
      </trkpt>
      <trkpt lat="43.71199" lon="4.98273">
        <ele>479.66</ele>
        <time>2026-04-16T16:14:55.111Z</time>
      </trkpt>
      <trkpt lat="43.71201" lon="4.98272">
        <ele>479.35</ele>
        <time>2026-04-16T16:15:00.127Z</time>
      </trkpt>
      <trkpt lat="43.71202" lon="4.98272">
        <ele>479.29</ele>
        <time>2026-04-16T16:15:05.142Z</time>
      </trkpt>
      <trkpt lat="43.71202" lon="4.98272">
        <ele>480.51</ele>
        <time>2026-04-16T16:15:15.173Z</time>
      </trkpt>
      <trkpt lat="43.71203" lon="4.98271">
        <ele>482.69</ele>
        <time>2026-04-16T16:15:22.109Z</time>
      </trkpt>
      <trkpt lat="43.71205" lon="4.98272">
        <ele>485.27</ele>
        <time>2026-04-16T16:15:27.432Z</time>
      </trkpt>
      <trkpt lat="43.71206" lon="4.98272">
        <ele>484.44</ele>
        <time>2026-04-16T16:15:32.874Z</time>
      </trkpt>
      <trkpt lat="43.71207" lon="4.98273">
        <ele>485.17</ele>
        <time>2026-04-16T16:15:46.729Z</time>
      </trkpt>
      <trkpt lat="43.71209" lon="4.98275">
        <ele>487.62</ele>
        <time>2026-04-16T16:15:52.014Z</time>
      </trkpt>
      <trkpt lat="43.71211" lon="4.98276">
        <ele>486.92</ele>
        <time>2026-04-16T16:15:57.373Z</time>
      </trkpt>
      <trkpt lat="43.71213" lon="4.98277">
        <ele>486.14</ele>
        <time>2026-04-16T16:16:03.047Z</time>
      </trkpt>
      <trkpt lat="43.71212" lon="4.98279">
        <ele>485.57</ele>
        <time>2026-04-16T16:16:12.554Z</time>
      </trkpt>
      <trkpt lat="43.71213" lon="4.98278">
        <ele>484.7</ele>
        <time>2026-04-16T16:16:25.071Z</time>
      </trkpt>
      <trkpt lat="43.71214" lon="4.98277">
        <ele>486.96</ele>
        <time>2026-04-16T16:16:50.792Z</time>
      </trkpt>
      <trkpt lat="43.71214" lon="4.98276">
        <ele>487.49</ele>
        <time>2026-04-16T16:16:58.049Z</time>
      </trkpt>
      <trkpt lat="43.71213" lon="4.98273">
        <ele>487</ele>
        <time>2026-04-16T16:17:03.061Z</time>
      </trkpt>
      <trkpt lat="43.71213" lon="4.98272">
        <ele>485.81</ele>
        <time>2026-04-16T16:17:14.528Z</time>
      </trkpt>
      <trkpt lat="43.71212" lon="4.98263">
        <ele>484.65</ele>
        <time>2026-04-16T16:17:20.144Z</time>
      </trkpt>
      <trkpt lat="43.71211" lon="4.98259">
        <ele>485</ele>
        <time>2026-04-16T16:17:25.160Z</time>
      </trkpt>
      <trkpt lat="43.71211" lon="4.98258">
        <ele>487.1</ele>
        <time>2026-04-16T16:17:31.136Z</time>
      </trkpt>
      <trkpt lat="43.71212" lon="4.98259">
        <ele>487.01</ele>
        <time>2026-04-16T16:17:36.152Z</time>
      </trkpt>
      <trkpt lat="43.71212" lon="4.98258">
        <ele>486.3</ele>
        <time>2026-04-16T16:18:02.105Z</time>
      </trkpt>
      <trkpt lat="43.71213" lon="4.98259">
        <ele>487.51</ele>
        <time>2026-04-16T16:18:38.007Z</time>
      </trkpt>
      <trkpt lat="43.71213" lon="4.98261">
        <ele>485.3</ele>
        <time>2026-04-16T16:18:53.128Z</time>
      </trkpt>
      <trkpt lat="43.71212" lon="4.98262">
        <ele>485.32</ele>
        <time>2026-04-16T16:19:14.149Z</time>
      </trkpt>
      <trkpt lat="43.71212" lon="4.98263">
        <ele>486.02</ele>
        <time>2026-04-16T16:19:32.080Z</time>
      </trkpt>
      <trkpt lat="43.71211" lon="4.98264">
        <ele>486.1</ele>
        <time>2026-04-16T16:20:04.100Z</time>
      </trkpt>
      <trkpt lat="43.71211" lon="4.98265">
        <ele>486.05</ele>
        <time>2026-04-16T16:20:29.093Z</time>
      </trkpt>
      <trkpt lat="43.71211" lon="4.98264">
        <ele>487.16</ele>
        <time>2026-04-16T16:21:41.137Z</time>
      </trkpt>
      <trkpt lat="43.71212" lon="4.98263">
        <ele>487.42</ele>
        <time>2026-04-16T16:22:03.124Z</time>
      </trkpt>
      <trkpt lat="43.71212" lon="4.98263">
        <ele>488.36</ele>
        <time>2026-04-16T16:22:31.999Z</time>
      </trkpt>
      <trkpt lat="43.71213" lon="4.98262">
        <ele>487.48</ele>
        <time>2026-04-16T16:22:37.172Z</time>
      </trkpt>
      <trkpt lat="43.71213" lon="4.98261">
        <ele>486.69</ele>
        <time>2026-04-16T16:23:24.134Z</time>
      </trkpt>
      <trkpt lat="43.71213" lon="4.98263">
        <ele>487.28</ele>
        <time>2026-04-16T16:23:29.257Z</time>
      </trkpt>
      <trkpt lat="43.71213" lon="4.98265">
        <ele>487.62</ele>
        <time>2026-04-16T16:23:35.127Z</time>
      </trkpt>
      <trkpt lat="43.71212" lon="4.98264">
        <ele>486.79</ele>
        <time>2026-04-16T16:23:41.104Z</time>
      </trkpt>
      <trkpt lat="43.71213" lon="4.98263">
        <ele>486.25</ele>
        <time>2026-04-16T16:24:15.149Z</time>
      </trkpt>
      <trkpt lat="43.71213" lon="4.98262">
        <ele>487.18</ele>
        <time>2026-04-16T16:24:29.131Z</time>
      </trkpt>
      <trkpt lat="43.71212" lon="4.98261">
        <ele>486.35</ele>
        <time>2026-04-16T16:24:43.113Z</time>
      </trkpt>
      <trkpt lat="43.71212" lon="4.98262">
        <ele>486.9</ele>
        <time>2026-04-16T16:25:00.189Z</time>
      </trkpt>
      <trkpt lat="43.71212" lon="4.98264">
        <ele>487.74</ele>
        <time>2026-04-16T16:25:09.950Z</time>
      </trkpt>
      <trkpt lat="43.71212" lon="4.98267">
        <ele>488.63</ele>
        <time>2026-04-16T16:25:14.956Z</time>
      </trkpt>
      <trkpt lat="43.71212" lon="4.98274">
        <ele>488.11</ele>
        <time>2026-04-16T16:25:20.852Z</time>
      </trkpt>
      <trkpt lat="43.71213" lon="4.9828">
        <ele>487.8</ele>
        <time>2026-04-16T16:25:26.124Z</time>
      </trkpt>
      <trkpt lat="43.71212" lon="4.98286">
        <ele>487.42</ele>
        <time>2026-04-16T16:25:31.140Z</time>
      </trkpt>
      <trkpt lat="43.7121" lon="4.98289">
        <ele>486.58</ele>
        <time>2026-04-16T16:25:36.454Z</time>
      </trkpt>
      <trkpt lat="43.71211" lon="4.9829">
        <ele>486.96</ele>
        <time>2026-04-16T16:25:45.774Z</time>
      </trkpt>
      <trkpt lat="43.71213" lon="4.98293">
        <ele>487.79</ele>
        <time>2026-04-16T16:25:50.871Z</time>
      </trkpt>
      <trkpt lat="43.71214" lon="4.98292">
        <ele>487.13</ele>
        <time>2026-04-16T16:25:56.798Z</time>
      </trkpt>
      <trkpt lat="43.71215" lon="4.98292">
        <ele>486.49</ele>
        <time>2026-04-16T16:26:06.078Z</time>
      </trkpt>
      <trkpt lat="43.71215" lon="4.98295">
        <ele>486.86</ele>
        <time>2026-04-16T16:26:11.081Z</time>
      </trkpt>
      <trkpt lat="43.71216" lon="4.98296">
        <ele>486.3</ele>
        <time>2026-04-16T16:26:18.207Z</time>
      </trkpt>
      <trkpt lat="43.71216" lon="4.98297">
        <ele>486.32</ele>
        <time>2026-04-16T16:26:23.654Z</time>
      </trkpt>
      <trkpt lat="43.71216" lon="4.98303">
        <ele>485.52</ele>
        <time>2026-04-16T16:26:30.114Z</time>
      </trkpt>
      <trkpt lat="43.71217" lon="4.98308">
        <ele>484.6</ele>
        <time>2026-04-16T16:26:35.176Z</time>
      </trkpt>
      <trkpt lat="43.71219" lon="4.98311">
        <ele>484.82</ele>
        <time>2026-04-16T16:26:41.111Z</time>
      </trkpt>
      <trkpt lat="43.71221" lon="4.98317">
        <ele>484.77</ele>
        <time>2026-04-16T16:26:46.387Z</time>
      </trkpt>
      <trkpt lat="43.71221" lon="4.98322">
        <ele>484.43</ele>
        <time>2026-04-16T16:26:51.683Z</time>
      </trkpt>
      <trkpt lat="43.71221" lon="4.98327">
        <ele>483.16</ele>
        <time>2026-04-16T16:26:57.172Z</time>
      </trkpt>
      <trkpt lat="43.7122" lon="4.98333">
        <ele>482.09</ele>
        <time>2026-04-16T16:27:02.188Z</time>
      </trkpt>
      <trkpt lat="43.71219" lon="4.98339">
        <ele>480.97</ele>
        <time>2026-04-16T16:27:08.185Z</time>
      </trkpt>
      <trkpt lat="43.71216" lon="4.98341">
        <ele>480.34</ele>
        <time>2026-04-16T16:27:13.748Z</time>
      </trkpt>
      <trkpt lat="43.71214" lon="4.9834">
        <ele>479.56</ele>
        <time>2026-04-16T16:27:18.823Z</time>
      </trkpt>
      <trkpt lat="43.71214" lon="4.98339">
        <ele>479</ele>
        <time>2026-04-16T16:27:23.945Z</time>
      </trkpt>
      <trkpt lat="43.71214" lon="4.98342">
        <ele>478.09</ele>
        <time>2026-04-16T16:27:29.861Z</time>
      </trkpt>
      <trkpt lat="43.71215" lon="4.98343">
        <ele>476.87</ele>
        <time>2026-04-16T16:27:37.096Z</time>
      </trkpt>
      <trkpt lat="43.71215" lon="4.98345">
        <ele>476.28</ele>
        <time>2026-04-16T16:27:42.120Z</time>
      </trkpt>
      <trkpt lat="43.71216" lon="4.98349">
        <ele>475.19</ele>
        <time>2026-04-16T16:27:47.243Z</time>
      </trkpt>
      <trkpt lat="43.71215" lon="4.98351">
        <ele>473.96</ele>
        <time>2026-04-16T16:27:52.946Z</time>
      </trkpt>
      <trkpt lat="43.71216" lon="4.98352">
        <ele>472.19</ele>
        <time>2026-04-16T16:28:06.134Z</time>
      </trkpt>
      <trkpt lat="43.71215" lon="4.98353">
        <ele>472.12</ele>
        <time>2026-04-16T16:28:26.404Z</time>
      </trkpt>
      <trkpt lat="43.71212" lon="4.98356">
        <ele>471.3</ele>
        <time>2026-04-16T16:28:31.465Z</time>
      </trkpt>
      <trkpt lat="43.71207" lon="4.98357">
        <ele>470.89</ele>
        <time>2026-04-16T16:28:36.684Z</time>
      </trkpt>
      <trkpt lat="43.71204" lon="4.98353">
        <ele>470.52</ele>
        <time>2026-04-16T16:28:42.099Z</time>
      </trkpt>
      <trkpt lat="43.71201" lon="4.9835">
        <ele>469.77</ele>
        <time>2026-04-16T16:28:47.723Z</time>
      </trkpt>
      <trkpt lat="43.71199" lon="4.98344">
        <ele>470.08</ele>
        <time>2026-04-16T16:28:53.203Z</time>
      </trkpt>
      <trkpt lat="43.71198" lon="4.98344">
        <ele>468.87</ele>
        <time>2026-04-16T16:28:58.216Z</time>
      </trkpt>
      <trkpt lat="43.71196" lon="4.98342">
        <ele>467</ele>
        <time>2026-04-16T16:29:04.192Z</time>
      </trkpt>
      <trkpt lat="43.71196" lon="4.98343">
        <ele>464.13</ele>
        <time>2026-04-16T16:29:17.597Z</time>
      </trkpt>
      <trkpt lat="43.71194" lon="4.98343">
        <ele>463.38</ele>
        <time>2026-04-16T16:29:22.792Z</time>
      </trkpt>
      <trkpt lat="43.71193" lon="4.98341">
        <ele>462.44</ele>
        <time>2026-04-16T16:29:28.205Z</time>
      </trkpt>
      <trkpt lat="43.71192" lon="4.98341">
        <ele>462</ele>
        <time>2026-04-16T16:29:33.616Z</time>
      </trkpt>
      <trkpt lat="43.7119" lon="4.98341">
        <ele>461.75</ele>
        <time>2026-04-16T16:29:39.217Z</time>
      </trkpt>
      <trkpt lat="43.71188" lon="4.98341">
        <ele>460.16</ele>
        <time>2026-04-16T16:29:44.573Z</time>
      </trkpt>
      <trkpt lat="43.71187" lon="4.9834">
        <ele>459.21</ele>
        <time>2026-04-16T16:29:49.901Z</time>
      </trkpt>
      <trkpt lat="43.71181" lon="4.9834">
        <ele>457.93</ele>
        <time>2026-04-16T16:29:55.205Z</time>
      </trkpt>
      <trkpt lat="43.71176" lon="4.98341">
        <ele>456.96</ele>
        <time>2026-04-16T16:30:00.220Z</time>
      </trkpt>
      <trkpt lat="43.71172" lon="4.98341">
        <ele>456.58</ele>
        <time>2026-04-16T16:30:05.589Z</time>
      </trkpt>
      <trkpt lat="43.71169" lon="4.9834">
        <ele>456.26</ele>
        <time>2026-04-16T16:30:10.932Z</time>
      </trkpt>
      <trkpt lat="43.71166" lon="4.98344">
        <ele>454.98</ele>
        <time>2026-04-16T16:30:16.134Z</time>
      </trkpt>
      <trkpt lat="43.71163" lon="4.98347">
        <ele>454.17</ele>
        <time>2026-04-16T16:30:21.138Z</time>
      </trkpt>
      <trkpt lat="43.71158" lon="4.98348">
        <ele>453.39</ele>
        <time>2026-04-16T16:30:26.202Z</time>
      </trkpt>
      <trkpt lat="43.71154" lon="4.98351">
        <ele>453.48</ele>
        <time>2026-04-16T16:30:31.203Z</time>
      </trkpt>
      <trkpt lat="43.71151" lon="4.98352">
        <ele>452.77</ele>
        <time>2026-04-16T16:30:36.744Z</time>
      </trkpt>
      <trkpt lat="43.7115" lon="4.98349">
        <ele>451.5</ele>
        <time>2026-04-16T16:30:42.162Z</time>
      </trkpt>
      <trkpt lat="43.71151" lon="4.9835">
        <ele>450.57</ele>
        <time>2026-04-16T16:30:47.375Z</time>
      </trkpt>
      <trkpt lat="43.71149" lon="4.9835">
        <ele>450.21</ele>
        <time>2026-04-16T16:30:53.202Z</time>
      </trkpt>
      <trkpt lat="43.71146" lon="4.98354">
        <ele>449.48</ele>
        <time>2026-04-16T16:30:58.203Z</time>
      </trkpt>
      <trkpt lat="43.71145" lon="4.98355">
        <ele>449.16</ele>
        <time>2026-04-16T16:31:04.145Z</time>
      </trkpt>
      <trkpt lat="43.71145" lon="4.98357">
        <ele>447.15</ele>
        <time>2026-04-16T16:31:27.457Z</time>
      </trkpt>
      <trkpt lat="43.71146" lon="4.98362">
        <ele>446.75</ele>
        <time>2026-04-16T16:31:32.740Z</time>
      </trkpt>
      <trkpt lat="43.71144" lon="4.98366">
        <ele>446.56</ele>
        <time>2026-04-16T16:31:37.942Z</time>
      </trkpt>
      <trkpt lat="43.71139" lon="4.98367">
        <ele>445.67</ele>
        <time>2026-04-16T16:31:43.098Z</time>
      </trkpt>
      <trkpt lat="43.71137" lon="4.98368">
        <ele>444.91</ele>
        <time>2026-04-16T16:31:48.112Z</time>
      </trkpt>
      <trkpt lat="43.71135" lon="4.9837">
        <ele>444.43</ele>
        <time>2026-04-16T16:31:53.417Z</time>
      </trkpt>
      <trkpt lat="43.71131" lon="4.98372">
        <ele>444.29</ele>
        <time>2026-04-16T16:31:58.938Z</time>
      </trkpt>
      <trkpt lat="43.71127" lon="4.98371">
        <ele>444.11</ele>
        <time>2026-04-16T16:32:05.119Z</time>
      </trkpt>
      <trkpt lat="43.71125" lon="4.98372">
        <ele>443.01</ele>
        <time>2026-04-16T16:32:10.204Z</time>
      </trkpt>
      <trkpt lat="43.71122" lon="4.9837">
        <ele>442.99</ele>
        <time>2026-04-16T16:32:15.864Z</time>
      </trkpt>
      <trkpt lat="43.7112" lon="4.98368">
        <ele>443.51</ele>
        <time>2026-04-16T16:32:21.162Z</time>
      </trkpt>
      <trkpt lat="43.71118" lon="4.98368">
        <ele>442.84</ele>
        <time>2026-04-16T16:32:27.121Z</time>
      </trkpt>
      <trkpt lat="43.71114" lon="4.98369">
        <ele>442.27</ele>
        <time>2026-04-16T16:32:32.188Z</time>
      </trkpt>
      <trkpt lat="43.71107" lon="4.9837">
        <ele>441.73</ele>
        <time>2026-04-16T16:32:37.374Z</time>
      </trkpt>
      <trkpt lat="43.71103" lon="4.98364">
        <ele>441.68</ele>
        <time>2026-04-16T16:32:42.898Z</time>
      </trkpt>
      <trkpt lat="43.711" lon="4.98359">
        <ele>442.12</ele>
        <time>2026-04-16T16:32:48.089Z</time>
      </trkpt>
      <trkpt lat="43.71099" lon="4.98352">
        <ele>441.37</ele>
        <time>2026-04-16T16:32:53.720Z</time>
      </trkpt>
      <trkpt lat="43.71099" lon="4.98345">
        <ele>441.94</ele>
        <time>2026-04-16T16:32:58.976Z</time>
      </trkpt>
      <trkpt lat="43.71098" lon="4.98341">
        <ele>442.33</ele>
        <time>2026-04-16T16:33:04.097Z</time>
      </trkpt>
      <trkpt lat="43.71098" lon="4.98342">
        <ele>442.58</ele>
        <time>2026-04-16T16:33:12.101Z</time>
      </trkpt>
      <trkpt lat="43.71097" lon="4.98345">
        <ele>442.55</ele>
        <time>2026-04-16T16:33:17.520Z</time>
      </trkpt>
      <trkpt lat="43.71098" lon="4.9835">
        <ele>441.64</ele>
        <time>2026-04-16T16:33:22.883Z</time>
      </trkpt>
      <trkpt lat="43.71096" lon="4.98362">
        <ele>442.11</ele>
        <time>2026-04-16T16:33:28.822Z</time>
      </trkpt>
      <trkpt lat="43.71093" lon="4.98368">
        <ele>441.29</ele>
        <time>2026-04-16T16:33:34.079Z</time>
      </trkpt>
      <trkpt lat="43.7109" lon="4.98373">
        <ele>440.31</ele>
        <time>2026-04-16T16:33:39.442Z</time>
      </trkpt>
      <trkpt lat="43.71085" lon="4.98376">
        <ele>439.86</ele>
        <time>2026-04-16T16:33:45.079Z</time>
      </trkpt>
      <trkpt lat="43.7108" lon="4.98374">
        <ele>439.75</ele>
        <time>2026-04-16T16:33:50.092Z</time>
      </trkpt>
      <trkpt lat="43.71077" lon="4.98373">
        <ele>441.22</ele>
        <time>2026-04-16T16:33:55.109Z</time>
      </trkpt>
      <trkpt lat="43.71075" lon="4.98376">
        <ele>441.08</ele>
        <time>2026-04-16T16:34:00.837Z</time>
      </trkpt>
      <trkpt lat="43.71072" lon="4.9838">
        <ele>440.25</ele>
        <time>2026-04-16T16:34:06.100Z</time>
      </trkpt>
      <trkpt lat="43.7107" lon="4.98384">
        <ele>440.68</ele>
        <time>2026-04-16T16:34:11.198Z</time>
      </trkpt>
      <trkpt lat="43.7107" lon="4.98385">
        <ele>441.64</ele>
        <time>2026-04-16T16:34:16.758Z</time>
      </trkpt>
      <trkpt lat="43.71069" lon="4.98384">
        <ele>444.12</ele>
        <time>2026-04-16T16:34:24.976Z</time>
      </trkpt>
      <trkpt lat="43.71068" lon="4.98384">
        <ele>444.79</ele>
        <time>2026-04-16T16:34:30.113Z</time>
      </trkpt>
      <trkpt lat="43.71065" lon="4.98386">
        <ele>445.09</ele>
        <time>2026-04-16T16:34:35.234Z</time>
      </trkpt>
      <trkpt lat="43.71063" lon="4.98387">
        <ele>444.8</ele>
        <time>2026-04-16T16:34:40.808Z</time>
      </trkpt>
      <trkpt lat="43.71062" lon="4.98387">
        <ele>445.2</ele>
        <time>2026-04-16T16:34:46.106Z</time>
      </trkpt>
      <trkpt lat="43.71059" lon="4.98384">
        <ele>446.45</ele>
        <time>2026-04-16T16:34:51.243Z</time>
      </trkpt>
      <trkpt lat="43.71057" lon="4.98383">
        <ele>447.73</ele>
        <time>2026-04-16T16:34:56.252Z</time>
      </trkpt>
      <trkpt lat="43.71057" lon="4.98387">
        <ele>448.06</ele>
        <time>2026-04-16T16:35:02.008Z</time>
      </trkpt>
      <trkpt lat="43.71054" lon="4.98391">
        <ele>447.43</ele>
        <time>2026-04-16T16:35:07.152Z</time>
      </trkpt>
      <trkpt lat="43.71048" lon="4.98395">
        <ele>448.5</ele>
        <time>2026-04-16T16:35:12.750Z</time>
      </trkpt>
      <trkpt lat="43.71043" lon="4.98401">
        <ele>447.93</ele>
        <time>2026-04-16T16:35:18.259Z</time>
      </trkpt>
      <trkpt lat="43.71038" lon="4.98404">
        <ele>447.39</ele>
        <time>2026-04-16T16:35:23.467Z</time>
      </trkpt>
      <trkpt lat="43.71036" lon="4.98407">
        <ele>447.38</ele>
        <time>2026-04-16T16:35:28.594Z</time>
      </trkpt>
      <trkpt lat="43.71033" lon="4.98409">
        <ele>447.23</ele>
        <time>2026-04-16T16:35:33.939Z</time>
      </trkpt>
      <trkpt lat="43.71028" lon="4.98409">
        <ele>447.33</ele>
        <time>2026-04-16T16:35:39.070Z</time>
      </trkpt>
      <trkpt lat="43.71023" lon="4.9841">
        <ele>448.5</ele>
        <time>2026-04-16T16:35:45.152Z</time>
      </trkpt>
      <trkpt lat="43.71022" lon="4.98415">
        <ele>448.76</ele>
        <time>2026-04-16T16:35:51.128Z</time>
      </trkpt>
      <trkpt lat="43.71021" lon="4.98417">
        <ele>448.64</ele>
        <time>2026-04-16T16:35:56.145Z</time>
      </trkpt>
      <trkpt lat="43.71017" lon="4.98421">
        <ele>448.96</ele>
        <time>2026-04-16T16:36:01.161Z</time>
      </trkpt>
      <trkpt lat="43.71014" lon="4.98423">
        <ele>449.12</ele>
        <time>2026-04-16T16:36:06.176Z</time>
      </trkpt>
      <trkpt lat="43.71012" lon="4.98428">
        <ele>450.43</ele>
        <time>2026-04-16T16:36:11.719Z</time>
      </trkpt>
      <trkpt lat="43.7101" lon="4.98431">
        <ele>452.82</ele>
        <time>2026-04-16T16:36:17.168Z</time>
      </trkpt>
      <trkpt lat="43.71008" lon="4.98434">
        <ele>452.99</ele>
        <time>2026-04-16T16:36:23.202Z</time>
      </trkpt>
      <trkpt lat="43.71006" lon="4.98433">
        <ele>452.5</ele>
        <time>2026-04-16T16:36:28.218Z</time>
      </trkpt>
      <trkpt lat="43.71006" lon="4.98432">
        <ele>450.23</ele>
        <time>2026-04-16T16:36:46.859Z</time>
      </trkpt>
      <trkpt lat="43.71004" lon="4.98433">
        <ele>448.19</ele>
        <time>2026-04-16T16:37:03.122Z</time>
      </trkpt>
      <trkpt lat="43.71002" lon="4.98433">
        <ele>447.56</ele>
        <time>2026-04-16T16:37:09.036Z</time>
      </trkpt>
      <trkpt lat="43.71001" lon="4.98434">
        <ele>446.38</ele>
        <time>2026-04-16T16:37:15.124Z</time>
      </trkpt>
      <trkpt lat="43.71" lon="4.98433">
        <ele>445.8</ele>
        <time>2026-04-16T16:37:20.485Z</time>
      </trkpt>
      <trkpt lat="43.70998" lon="4.98433">
        <ele>444.78</ele>
        <time>2026-04-16T16:37:25.676Z</time>
      </trkpt>
      <trkpt lat="43.70996" lon="4.98433">
        <ele>443.97</ele>
        <time>2026-04-16T16:37:31.202Z</time>
      </trkpt>
      <trkpt lat="43.70995" lon="4.98432">
        <ele>443.11</ele>
        <time>2026-04-16T16:37:36.917Z</time>
      </trkpt>
      <trkpt lat="43.70992" lon="4.98432">
        <ele>442.61</ele>
        <time>2026-04-16T16:37:42.124Z</time>
      </trkpt>
      <trkpt lat="43.70992" lon="4.98431">
        <ele>441.45</ele>
        <time>2026-04-16T16:37:51.678Z</time>
      </trkpt>
      <trkpt lat="43.70991" lon="4.98429">
        <ele>440.62</ele>
        <time>2026-04-16T16:37:57.202Z</time>
      </trkpt>
      <trkpt lat="43.70991" lon="4.98428">
        <ele>440.18</ele>
        <time>2026-04-16T16:38:02.202Z</time>
      </trkpt>
      <trkpt lat="43.7099" lon="4.98428">
        <ele>439.54</ele>
        <time>2026-04-16T16:38:08.174Z</time>
      </trkpt>
      <trkpt lat="43.70989" lon="4.98426">
        <ele>438.11</ele>
        <time>2026-04-16T16:38:16.203Z</time>
      </trkpt>
      <trkpt lat="43.70988" lon="4.98425">
        <ele>437.26</ele>
        <time>2026-04-16T16:38:22.023Z</time>
      </trkpt>
      <trkpt lat="43.70984" lon="4.98424">
        <ele>435.88</ele>
        <time>2026-04-16T16:38:27.723Z</time>
      </trkpt>
      <trkpt lat="43.70982" lon="4.98424">
        <ele>434.73</ele>
        <time>2026-04-16T16:38:33.073Z</time>
      </trkpt>
      <trkpt lat="43.70982" lon="4.98422">
        <ele>433.81</ele>
        <time>2026-04-16T16:38:39.061Z</time>
      </trkpt>
      <trkpt lat="43.7098" lon="4.98422">
        <ele>433.29</ele>
        <time>2026-04-16T16:38:44.126Z</time>
      </trkpt>
      <trkpt lat="43.70979" lon="4.98422">
        <ele>432.38</ele>
        <time>2026-04-16T16:38:49.202Z</time>
      </trkpt>
      <trkpt lat="43.70978" lon="4.98421">
        <ele>432.09</ele>
        <time>2026-04-16T16:38:55.225Z</time>
      </trkpt>
      <trkpt lat="43.70977" lon="4.9842">
        <ele>431.78</ele>
        <time>2026-04-16T16:39:13.152Z</time>
      </trkpt>
      <trkpt lat="43.70977" lon="4.98419">
        <ele>430.84</ele>
        <time>2026-04-16T16:39:46.129Z</time>
      </trkpt>
      <trkpt lat="43.70976" lon="4.98418">
        <ele>430.73</ele>
        <time>2026-04-16T16:40:22.200Z</time>
      </trkpt>
      <trkpt lat="43.70976" lon="4.98417">
        <ele>429.05</ele>
        <time>2026-04-16T16:40:57.776Z</time>
      </trkpt>
      <trkpt lat="43.70975" lon="4.98417">
        <ele>428.04</ele>
        <time>2026-04-16T16:41:14.277Z</time>
      </trkpt>
      <trkpt lat="43.70974" lon="4.98417">
        <ele>427.54</ele>
        <time>2026-04-16T16:41:24.203Z</time>
      </trkpt>
      <trkpt lat="43.70972" lon="4.98416">
        <ele>426.93</ele>
        <time>2026-04-16T16:41:30.202Z</time>
      </trkpt>
      <trkpt lat="43.70971" lon="4.98416">
        <ele>426.77</ele>
        <time>2026-04-16T16:41:42.238Z</time>
      </trkpt>
      <trkpt lat="43.7097" lon="4.98416">
        <ele>424.91</ele>
        <time>2026-04-16T16:41:56.977Z</time>
      </trkpt>
      <trkpt lat="43.7097" lon="4.98417">
        <ele>424.33</ele>
        <time>2026-04-16T16:42:15.956Z</time>
      </trkpt>
      <trkpt lat="43.7097" lon="4.98416">
        <ele>421.35</ele>
        <time>2026-04-16T16:42:53.205Z</time>
      </trkpt>
      <trkpt lat="43.70969" lon="4.98415">
        <ele>421.92</ele>
        <time>2026-04-16T16:43:00.203Z</time>
      </trkpt>
      <trkpt lat="43.70969" lon="4.98414">
        <ele>421.7</ele>
        <time>2026-04-16T16:43:09.212Z</time>
      </trkpt>
      <trkpt lat="43.70969" lon="4.98413">
        <ele>421.38</ele>
        <time>2026-04-16T16:43:17.110Z</time>
      </trkpt>
      <trkpt lat="43.70968" lon="4.98412">
        <ele>421.77</ele>
        <time>2026-04-16T16:43:33.118Z</time>
      </trkpt>
      <trkpt lat="43.70967" lon="4.98412">
        <ele>421</ele>
        <time>2026-04-16T16:43:44.958Z</time>
      </trkpt>
      <trkpt lat="43.70965" lon="4.98413">
        <ele>420.19</ele>
        <time>2026-04-16T16:43:50.197Z</time>
      </trkpt>
      <trkpt lat="43.70964" lon="4.98413">
        <ele>419.15</ele>
        <time>2026-04-16T16:43:57.236Z</time>
      </trkpt>
      <trkpt lat="43.70963" lon="4.98413">
        <ele>418.36</ele>
        <time>2026-04-16T16:44:03.211Z</time>
      </trkpt>
      <trkpt lat="43.70961" lon="4.98415">
        <ele>417.61</ele>
        <time>2026-04-16T16:44:08.801Z</time>
      </trkpt>
      <trkpt lat="43.7096" lon="4.98416">
        <ele>416.46</ele>
        <time>2026-04-16T16:44:14.197Z</time>
      </trkpt>
      <trkpt lat="43.70958" lon="4.98419">
        <ele>415.77</ele>
        <time>2026-04-16T16:44:19.999Z</time>
      </trkpt>
      <trkpt lat="43.70958" lon="4.9842">
        <ele>415.01</ele>
        <time>2026-04-16T16:44:26.854Z</time>
      </trkpt>
      <trkpt lat="43.70957" lon="4.98421">
        <ele>414.03</ele>
        <time>2026-04-16T16:44:33.200Z</time>
      </trkpt>
      <trkpt lat="43.70956" lon="4.9842">
        <ele>412.57</ele>
        <time>2026-04-16T16:44:40.699Z</time>
      </trkpt>
      <trkpt lat="43.70954" lon="4.9842">
        <ele>412.08</ele>
        <time>2026-04-16T16:44:45.939Z</time>
      </trkpt>
      <trkpt lat="43.70952" lon="4.98419">
        <ele>411.29</ele>
        <time>2026-04-16T16:44:52.039Z</time>
      </trkpt>
      <trkpt lat="43.70951" lon="4.98419">
        <ele>410.73</ele>
        <time>2026-04-16T16:44:58.894Z</time>
      </trkpt>
      <trkpt lat="43.70949" lon="4.98419">
        <ele>409.69</ele>
        <time>2026-04-16T16:45:04.738Z</time>
      </trkpt>
      <trkpt lat="43.70948" lon="4.98419">
        <ele>408.67</ele>
        <time>2026-04-16T16:45:09.992Z</time>
      </trkpt>
      <trkpt lat="43.70944" lon="4.98413">
        <ele>407.57</ele>
        <time>2026-04-16T16:45:15.807Z</time>
      </trkpt>
      <trkpt lat="43.70942" lon="4.98415">
        <ele>406.59</ele>
        <time>2026-04-16T16:45:21.222Z</time>
      </trkpt>
      <trkpt lat="43.70941" lon="4.98413">
        <ele>405.81</ele>
        <time>2026-04-16T16:45:26.997Z</time>
      </trkpt>
      <trkpt lat="43.7094" lon="4.98413">
        <ele>404.4</ele>
        <time>2026-04-16T16:45:34.521Z</time>
      </trkpt>
      <trkpt lat="43.70939" lon="4.98413">
        <ele>403.07</ele>
        <time>2026-04-16T16:45:40.267Z</time>
      </trkpt>
      <trkpt lat="43.70938" lon="4.9841">
        <ele>401.89</ele>
        <time>2026-04-16T16:45:45.700Z</time>
      </trkpt>
      <trkpt lat="43.70937" lon="4.98409">
        <ele>401.82</ele>
        <time>2026-04-16T16:45:51.210Z</time>
      </trkpt>
      <trkpt lat="43.70936" lon="4.98408">
        <ele>401.62</ele>
        <time>2026-04-16T16:45:56.253Z</time>
      </trkpt>
      <trkpt lat="43.70936" lon="4.98407">
        <ele>400.9</ele>
        <time>2026-04-16T16:46:20.756Z</time>
      </trkpt>
      <trkpt lat="43.70935" lon="4.98407">
        <ele>399.23</ele>
        <time>2026-04-16T16:46:33.203Z</time>
      </trkpt>
      <trkpt lat="43.70933" lon="4.9841">
        <ele>398.67</ele>
        <time>2026-04-16T16:46:39.126Z</time>
      </trkpt>
      <trkpt lat="43.70932" lon="4.9841">
        <ele>397.96</ele>
        <time>2026-04-16T16:46:44.998Z</time>
      </trkpt>
      <trkpt lat="43.7093" lon="4.98409">
        <ele>396.97</ele>
        <time>2026-04-16T16:46:50.225Z</time>
      </trkpt>
      <trkpt lat="43.70928" lon="4.98407">
        <ele>396.35</ele>
        <time>2026-04-16T16:46:55.240Z</time>
      </trkpt>
      <trkpt lat="43.70926" lon="4.98405">
        <ele>395.15</ele>
        <time>2026-04-16T16:47:01.110Z</time>
      </trkpt>
      <trkpt lat="43.70927" lon="4.98406">
        <ele>394.51</ele>
        <time>2026-04-16T16:47:06.202Z</time>
      </trkpt>
      <trkpt lat="43.70926" lon="4.98407">
        <ele>393.69</ele>
        <time>2026-04-16T16:47:16.998Z</time>
      </trkpt>
      <trkpt lat="43.70926" lon="4.98408">
        <ele>393.16</ele>
        <time>2026-04-16T16:47:24.161Z</time>
      </trkpt>
      <trkpt lat="43.70925" lon="4.98408">
        <ele>391.92</ele>
        <time>2026-04-16T16:47:30.483Z</time>
      </trkpt>
      <trkpt lat="43.70923" lon="4.9841">
        <ele>390.66</ele>
        <time>2026-04-16T16:47:35.940Z</time>
      </trkpt>
      <trkpt lat="43.70921" lon="4.9841">
        <ele>390.19</ele>
        <time>2026-04-16T16:47:41.018Z</time>
      </trkpt>
      <trkpt lat="43.7092" lon="4.98411">
        <ele>389.44</ele>
        <time>2026-04-16T16:47:46.251Z</time>
      </trkpt>
      <trkpt lat="43.70916" lon="4.98412">
        <ele>388.07</ele>
        <time>2026-04-16T16:47:51.839Z</time>
      </trkpt>
      <trkpt lat="43.70912" lon="4.98406">
        <ele>386.59</ele>
        <time>2026-04-16T16:47:57.203Z</time>
      </trkpt>
      <trkpt lat="43.70911" lon="4.98402">
        <ele>385.36</ele>
        <time>2026-04-16T16:48:02.538Z</time>
      </trkpt>
      <trkpt lat="43.70909" lon="4.984">
        <ele>384.57</ele>
        <time>2026-04-16T16:48:07.872Z</time>
      </trkpt>
      <trkpt lat="43.70909" lon="4.98402">
        <ele>383.44</ele>
        <time>2026-04-16T16:48:13.203Z</time>
      </trkpt>
      <trkpt lat="43.70909" lon="4.98399">
        <ele>382.61</ele>
        <time>2026-04-16T16:48:19.235Z</time>
      </trkpt>
      <trkpt lat="43.70906" lon="4.98397">
        <ele>381.11</ele>
        <time>2026-04-16T16:48:25.090Z</time>
      </trkpt>
      <trkpt lat="43.70905" lon="4.98398">
        <ele>379.57</ele>
        <time>2026-04-16T16:48:32.924Z</time>
      </trkpt>
      <trkpt lat="43.70904" lon="4.98399">
        <ele>378.88</ele>
        <time>2026-04-16T16:48:38.064Z</time>
      </trkpt>
      <trkpt lat="43.70902" lon="4.98398">
        <ele>378.03</ele>
        <time>2026-04-16T16:48:43.203Z</time>
      </trkpt>
      <trkpt lat="43.70902" lon="4.98398">
        <ele>377.21</ele>
        <time>2026-04-16T16:48:51.203Z</time>
      </trkpt>
      <trkpt lat="43.709" lon="4.98397">
        <ele>376.5</ele>
        <time>2026-04-16T16:48:56.204Z</time>
      </trkpt>
      <trkpt lat="43.70899" lon="4.98397">
        <ele>375.48</ele>
        <time>2026-04-16T16:49:01.819Z</time>
      </trkpt>
      <trkpt lat="43.70898" lon="4.98397">
        <ele>375.19</ele>
        <time>2026-04-16T16:49:09.092Z</time>
      </trkpt>
      <trkpt lat="43.70897" lon="4.98395">
        <ele>374.04</ele>
        <time>2026-04-16T16:49:15.202Z</time>
      </trkpt>
      <trkpt lat="43.70894" lon="4.98392">
        <ele>373.23</ele>
        <time>2026-04-16T16:49:20.539Z</time>
      </trkpt>
      <trkpt lat="43.70892" lon="4.98389">
        <ele>372.13</ele>
        <time>2026-04-16T16:49:26.203Z</time>
      </trkpt>
      <trkpt lat="43.7089" lon="4.98384">
        <ele>370.92</ele>
        <time>2026-04-16T16:49:31.208Z</time>
      </trkpt>
      <trkpt lat="43.70887" lon="4.98383">
        <ele>370.59</ele>
        <time>2026-04-16T16:49:36.733Z</time>
      </trkpt>
      <trkpt lat="43.70887" lon="4.98385">
        <ele>370.1</ele>
        <time>2026-04-16T16:49:41.811Z</time>
      </trkpt>
      <trkpt lat="43.70885" lon="4.98386">
        <ele>369.67</ele>
        <time>2026-04-16T16:49:47.095Z</time>
      </trkpt>
      <trkpt lat="43.70882" lon="4.98385">
        <ele>368.22</ele>
        <time>2026-04-16T16:49:52.231Z</time>
      </trkpt>
      <trkpt lat="43.70879" lon="4.98381">
        <ele>367.17</ele>
        <time>2026-04-16T16:49:57.579Z</time>
      </trkpt>
      <trkpt lat="43.70877" lon="4.98382">
        <ele>366.03</ele>
        <time>2026-04-16T16:50:03.013Z</time>
      </trkpt>
      <trkpt lat="43.70874" lon="4.98384">
        <ele>365.53</ele>
        <time>2026-04-16T16:50:08.799Z</time>
      </trkpt>
      <trkpt lat="43.70874" lon="4.98383">
        <ele>364.6</ele>
        <time>2026-04-16T16:50:17.314Z</time>
      </trkpt>
      <trkpt lat="43.7087" lon="4.98382">
        <ele>363.35</ele>
        <time>2026-04-16T16:50:23.203Z</time>
      </trkpt>
      <trkpt lat="43.70867" lon="4.98382">
        <ele>362.03</ele>
        <time>2026-04-16T16:50:28.607Z</time>
      </trkpt>
      <trkpt lat="43.70865" lon="4.98381">
        <ele>361.3</ele>
        <time>2026-04-16T16:50:38.969Z</time>
      </trkpt>
      <trkpt lat="43.7086" lon="4.98382">
        <ele>361.07</ele>
        <time>2026-04-16T16:50:44.382Z</time>
      </trkpt>
      <trkpt lat="43.70857" lon="4.98378">
        <ele>360.58</ele>
        <time>2026-04-16T16:50:49.748Z</time>
      </trkpt>
      <trkpt lat="43.70855" lon="4.98377">
        <ele>359.65</ele>
        <time>2026-04-16T16:50:54.870Z</time>
      </trkpt>
      <trkpt lat="43.70852" lon="4.98375">
        <ele>358.43</ele>
        <time>2026-04-16T16:51:00.112Z</time>
      </trkpt>
      <trkpt lat="43.70848" lon="4.98371">
        <ele>358.16</ele>
        <time>2026-04-16T16:51:05.426Z</time>
      </trkpt>
      <trkpt lat="43.70845" lon="4.98366">
        <ele>357.61</ele>
        <time>2026-04-16T16:51:10.692Z</time>
      </trkpt>
      <trkpt lat="43.70843" lon="4.98367">
        <ele>356.75</ele>
        <time>2026-04-16T16:51:15.785Z</time>
      </trkpt>
      <trkpt lat="43.70839" lon="4.98362">
        <ele>356.18</ele>
        <time>2026-04-16T16:51:21.136Z</time>
      </trkpt>
      <trkpt lat="43.70836" lon="4.98364">
        <ele>355.72</ele>
        <time>2026-04-16T16:51:26.153Z</time>
      </trkpt>
      <trkpt lat="43.70831" lon="4.98367">
        <ele>355.69</ele>
        <time>2026-04-16T16:51:31.562Z</time>
      </trkpt>
      <trkpt lat="43.70825" lon="4.98362">
        <ele>355.2</ele>
        <time>2026-04-16T16:51:37.004Z</time>
      </trkpt>
      <trkpt lat="43.70822" lon="4.98359">
        <ele>354.64</ele>
        <time>2026-04-16T16:51:42.160Z</time>
      </trkpt>
      <trkpt lat="43.70819" lon="4.9836">
        <ele>354.09</ele>
        <time>2026-04-16T16:51:47.176Z</time>
      </trkpt>
      <trkpt lat="43.70816" lon="4.98357">
        <ele>352.86</ele>
        <time>2026-04-16T16:51:52.590Z</time>
      </trkpt>
      <trkpt lat="43.70813" lon="4.98352">
        <ele>352.11</ele>
        <time>2026-04-16T16:51:58.002Z</time>
      </trkpt>
      <trkpt lat="43.70811" lon="4.98351">
        <ele>352.32</ele>
        <time>2026-04-16T16:52:03.184Z</time>
      </trkpt>
      <trkpt lat="43.70809" lon="4.98346">
        <ele>351.16</ele>
        <time>2026-04-16T16:52:08.544Z</time>
      </trkpt>
      <trkpt lat="43.70807" lon="4.9834">
        <ele>350.78</ele>
        <time>2026-04-16T16:52:14.147Z</time>
      </trkpt>
      <trkpt lat="43.70805" lon="4.98337">
        <ele>352.37</ele>
        <time>2026-04-16T16:52:19.686Z</time>
      </trkpt>
      <trkpt lat="43.70802" lon="4.98333">
        <ele>350.59</ele>
        <time>2026-04-16T16:52:24.768Z</time>
      </trkpt>
      <trkpt lat="43.70801" lon="4.98334">
        <ele>348.56</ele>
        <time>2026-04-16T16:52:50.118Z</time>
      </trkpt>
      <trkpt lat="43.70799" lon="4.98335">
        <ele>347.73</ele>
        <time>2026-04-16T16:52:55.769Z</time>
      </trkpt>
      <trkpt lat="43.70798" lon="4.98337">
        <ele>347.14</ele>
        <time>2026-04-16T16:53:01.004Z</time>
      </trkpt>
      <trkpt lat="43.70794" lon="4.98337">
        <ele>346.28</ele>
        <time>2026-04-16T16:53:07.266Z</time>
      </trkpt>
      <trkpt lat="43.7079" lon="4.98335">
        <ele>345.39</ele>
        <time>2026-04-16T16:53:12.690Z</time>
      </trkpt>
      <trkpt lat="43.70785" lon="4.98334">
        <ele>344.67</ele>
        <time>2026-04-16T16:53:18.090Z</time>
      </trkpt>
      <trkpt lat="43.70779" lon="4.98331">
        <ele>343.72</ele>
        <time>2026-04-16T16:53:23.871Z</time>
      </trkpt>
      <trkpt lat="43.70775" lon="4.98328">
        <ele>343.61</ele>
        <time>2026-04-16T16:53:29.471Z</time>
      </trkpt>
      <trkpt lat="43.70772" lon="4.98325">
        <ele>343.91</ele>
        <time>2026-04-16T16:53:34.791Z</time>
      </trkpt>
      <trkpt lat="43.70769" lon="4.98323">
        <ele>343.98</ele>
        <time>2026-04-16T16:53:39.869Z</time>
      </trkpt>
      <trkpt lat="43.70766" lon="4.9832">
        <ele>343.4</ele>
        <time>2026-04-16T16:53:45.209Z</time>
      </trkpt>
      <trkpt lat="43.70764" lon="4.98318">
        <ele>342.55</ele>
        <time>2026-04-16T16:53:50.209Z</time>
      </trkpt>
      <trkpt lat="43.7076" lon="4.98315">
        <ele>341.63</ele>
        <time>2026-04-16T16:53:56.071Z</time>
      </trkpt>
      <trkpt lat="43.70757" lon="4.98315">
        <ele>341.55</ele>
        <time>2026-04-16T16:54:01.217Z</time>
      </trkpt>
      <trkpt lat="43.70754" lon="4.98314">
        <ele>340.72</ele>
        <time>2026-04-16T16:54:07.192Z</time>
      </trkpt>
      <trkpt lat="43.70753" lon="4.98315">
        <ele>340.77</ele>
        <time>2026-04-16T16:54:17.224Z</time>
      </trkpt>
      <trkpt lat="43.70746" lon="4.98311">
        <ele>340.46</ele>
        <time>2026-04-16T16:54:22.831Z</time>
      </trkpt>
      <trkpt lat="43.70742" lon="4.98309">
        <ele>340.99</ele>
        <time>2026-04-16T16:54:28.150Z</time>
      </trkpt>
      <trkpt lat="43.70738" lon="4.98305">
        <ele>340.19</ele>
        <time>2026-04-16T16:54:33.494Z</time>
      </trkpt>
      <trkpt lat="43.70735" lon="4.98302">
        <ele>340.72</ele>
        <time>2026-04-16T16:54:39.177Z</time>
      </trkpt>
      <trkpt lat="43.70728" lon="4.98302">
        <ele>340.56</ele>
        <time>2026-04-16T16:54:45.316Z</time>
      </trkpt>
      <trkpt lat="43.70723" lon="4.983">
        <ele>340.59</ele>
        <time>2026-04-16T16:54:50.883Z</time>
      </trkpt>
      <trkpt lat="43.70723" lon="4.98299">
        <ele>340.38</ele>
        <time>2026-04-16T16:54:56.120Z</time>
      </trkpt>
      <trkpt lat="43.7072" lon="4.98299">
        <ele>340.1</ele>
        <time>2026-04-16T16:55:01.210Z</time>
      </trkpt>
      <trkpt lat="43.70714" lon="4.98297">
        <ele>341.24</ele>
        <time>2026-04-16T16:55:06.408Z</time>
      </trkpt>
      <trkpt lat="43.70709" lon="4.98295">
        <ele>341.28</ele>
        <time>2026-04-16T16:55:11.910Z</time>
      </trkpt>
      <trkpt lat="43.70706" lon="4.98294">
        <ele>341.81</ele>
        <time>2026-04-16T16:55:16.992Z</time>
      </trkpt>
      <trkpt lat="43.70701" lon="4.98292">
        <ele>342.56</ele>
        <time>2026-04-16T16:55:22.233Z</time>
      </trkpt>
      <trkpt lat="43.70697" lon="4.98291">
        <ele>342.89</ele>
        <time>2026-04-16T16:55:28.203Z</time>
      </trkpt>
      <trkpt lat="43.70694" lon="4.98289">
        <ele>342.61</ele>
        <time>2026-04-16T16:55:33.225Z</time>
      </trkpt>
      <trkpt lat="43.70689" lon="4.98288">
        <ele>342.7</ele>
        <time>2026-04-16T16:55:38.591Z</time>
      </trkpt>
      <trkpt lat="43.70684" lon="4.98288">
        <ele>342.51</ele>
        <time>2026-04-16T16:55:43.973Z</time>
      </trkpt>
      <trkpt lat="43.70681" lon="4.98289">
        <ele>341.88</ele>
        <time>2026-04-16T16:55:49.232Z</time>
      </trkpt>
      <trkpt lat="43.70677" lon="4.98291">
        <ele>341.67</ele>
        <time>2026-04-16T16:55:54.723Z</time>
      </trkpt>
      <trkpt lat="43.70673" lon="4.9829">
        <ele>341.14</ele>
        <time>2026-04-16T16:56:00.225Z</time>
      </trkpt>
      <trkpt lat="43.70671" lon="4.98288">
        <ele>340.72</ele>
        <time>2026-04-16T16:56:05.240Z</time>
      </trkpt>
      <trkpt lat="43.70671" lon="4.9829">
        <ele>340.14</ele>
        <time>2026-04-16T16:56:10.256Z</time>
      </trkpt>
      <trkpt lat="43.7067" lon="4.98294">
        <ele>339.6</ele>
        <time>2026-04-16T16:56:15.973Z</time>
      </trkpt>
      <trkpt lat="43.7067" lon="4.98295">
        <ele>337.9</ele>
        <time>2026-04-16T16:56:26.748Z</time>
      </trkpt>
      <trkpt lat="43.70668" lon="4.98295">
        <ele>336.88</ele>
        <time>2026-04-16T16:56:31.985Z</time>
      </trkpt>
      <trkpt lat="43.70664" lon="4.98295">
        <ele>336.79</ele>
        <time>2026-04-16T16:56:37.011Z</time>
      </trkpt>
      <trkpt lat="43.70663" lon="4.98295">
        <ele>336.35</ele>
        <time>2026-04-16T16:56:42.026Z</time>
      </trkpt>
      <trkpt lat="43.70658" lon="4.98296">
        <ele>335.11</ele>
        <time>2026-04-16T16:56:48.296Z</time>
      </trkpt>
      <trkpt lat="43.70656" lon="4.98296">
        <ele>333.58</ele>
        <time>2026-04-16T16:56:54.223Z</time>
      </trkpt>
      <trkpt lat="43.70651" lon="4.98298">
        <ele>333.03</ele>
        <time>2026-04-16T16:56:59.613Z</time>
      </trkpt>
      <trkpt lat="43.70645" lon="4.98298">
        <ele>333.3</ele>
        <time>2026-04-16T16:57:05.134Z</time>
      </trkpt>
      <trkpt lat="43.70642" lon="4.98299">
        <ele>334.57</ele>
        <time>2026-04-16T16:57:10.751Z</time>
      </trkpt>
      <trkpt lat="43.70638" lon="4.98301">
        <ele>335.27</ele>
        <time>2026-04-16T16:57:16.100Z</time>
      </trkpt>
      <trkpt lat="43.70635" lon="4.98305">
        <ele>334.85</ele>
        <time>2026-04-16T16:57:22.186Z</time>
      </trkpt>
      <trkpt lat="43.70632" lon="4.98307">
        <ele>335.89</ele>
        <time>2026-04-16T16:57:27.689Z</time>
      </trkpt>
      <trkpt lat="43.70629" lon="4.98308">
        <ele>335.49</ele>
        <time>2026-04-16T16:57:32.812Z</time>
      </trkpt>
      <trkpt lat="43.70626" lon="4.98307">
        <ele>335.06</ele>
        <time>2026-04-16T16:57:38.263Z</time>
      </trkpt>
      <trkpt lat="43.70622" lon="4.98308">
        <ele>334.61</ele>
        <time>2026-04-16T16:57:43.788Z</time>
      </trkpt>
      <trkpt lat="43.70619" lon="4.9831">
        <ele>333.07</ele>
        <time>2026-04-16T16:57:49.202Z</time>
      </trkpt>
      <trkpt lat="43.70618" lon="4.98311">
        <ele>330.28</ele>
        <time>2026-04-16T16:58:12.982Z</time>
      </trkpt>
      <trkpt lat="43.70617" lon="4.9831">
        <ele>330.1</ele>
        <time>2026-04-16T16:58:18.216Z</time>
      </trkpt>
      <trkpt lat="43.70616" lon="4.98308">
        <ele>330.37</ele>
        <time>2026-04-16T16:58:23.805Z</time>
      </trkpt>
      <trkpt lat="43.70615" lon="4.98307">
        <ele>329.39</ele>
        <time>2026-04-16T16:58:29.184Z</time>
      </trkpt>
      <trkpt lat="43.70613" lon="4.98306">
        <ele>328.5</ele>
        <time>2026-04-16T16:58:34.222Z</time>
      </trkpt>
      <trkpt lat="43.70608" lon="4.98307">
        <ele>327.78</ele>
        <time>2026-04-16T16:58:39.238Z</time>
      </trkpt>
      <trkpt lat="43.70605" lon="4.98308">
        <ele>326.59</ele>
        <time>2026-04-16T16:58:44.544Z</time>
      </trkpt>
      <trkpt lat="43.70603" lon="4.98309">
        <ele>326.03</ele>
        <time>2026-04-16T16:58:50.230Z</time>
      </trkpt>
      <trkpt lat="43.70601" lon="4.98309">
        <ele>324.79</ele>
        <time>2026-04-16T16:58:55.748Z</time>
      </trkpt>
      <trkpt lat="43.70596" lon="4.98314">
        <ele>323.87</ele>
        <time>2026-04-16T16:59:00.789Z</time>
      </trkpt>
      <trkpt lat="43.70593" lon="4.98319">
        <ele>322.55</ele>
        <time>2026-04-16T16:59:05.992Z</time>
      </trkpt>
      <trkpt lat="43.7059" lon="4.98323">
        <ele>321.74</ele>
        <time>2026-04-16T16:59:11.790Z</time>
      </trkpt>
      <trkpt lat="43.70589" lon="4.98326">
        <ele>320.99</ele>
        <time>2026-04-16T16:59:16.993Z</time>
      </trkpt>
      <trkpt lat="43.70588" lon="4.98327">
        <ele>320.11</ele>
        <time>2026-04-16T16:59:23.412Z</time>
      </trkpt>
      <trkpt lat="43.70585" lon="4.98329">
        <ele>319.13</ele>
        <time>2026-04-16T16:59:28.614Z</time>
      </trkpt>
      <trkpt lat="43.70582" lon="4.98331">
        <ele>318.08</ele>
        <time>2026-04-16T16:59:33.631Z</time>
      </trkpt>
      <trkpt lat="43.70579" lon="4.98334">
        <ele>317.3</ele>
        <time>2026-04-16T16:59:38.975Z</time>
      </trkpt>
      <trkpt lat="43.70577" lon="4.98331">
        <ele>316.67</ele>
        <time>2026-04-16T16:59:43.991Z</time>
      </trkpt>
      <trkpt lat="43.70577" lon="4.9833">
        <ele>316.3</ele>
        <time>2026-04-16T16:59:49.033Z</time>
      </trkpt>
      <trkpt lat="43.70577" lon="4.98331">
        <ele>314.44</ele>
        <time>2026-04-16T17:00:00.813Z</time>
      </trkpt>
      <trkpt lat="43.70572" lon="4.98336">
        <ele>313.39</ele>
        <time>2026-04-16T17:00:06.218Z</time>
      </trkpt>
      <trkpt lat="43.7057" lon="4.98338">
        <ele>312.83</ele>
        <time>2026-04-16T17:00:11.228Z</time>
      </trkpt>
      <trkpt lat="43.70569" lon="4.98341">
        <ele>312.83</ele>
        <time>2026-04-16T17:00:17.187Z</time>
      </trkpt>
      <trkpt lat="43.70568" lon="4.98341">
        <ele>311.88</ele>
        <time>2026-04-16T17:00:22.226Z</time>
      </trkpt>
      <trkpt lat="43.70566" lon="4.98342">
        <ele>311.01</ele>
        <time>2026-04-16T17:00:29.992Z</time>
      </trkpt>
      <trkpt lat="43.70562" lon="4.98348">
        <ele>310.31</ele>
        <time>2026-04-16T17:00:35.245Z</time>
      </trkpt>
      <trkpt lat="43.70559" lon="4.98353">
        <ele>309.45</ele>
        <time>2026-04-16T17:00:40.826Z</time>
      </trkpt>
      <trkpt lat="43.70557" lon="4.98352">
        <ele>308.9</ele>
        <time>2026-04-16T17:00:46.236Z</time>
      </trkpt>
      <trkpt lat="43.70556" lon="4.98354">
        <ele>308.12</ele>
        <time>2026-04-16T17:00:51.611Z</time>
      </trkpt>
      <trkpt lat="43.70555" lon="4.98357">
        <ele>307.36</ele>
        <time>2026-04-16T17:00:57.133Z</time>
      </trkpt>
      <trkpt lat="43.70551" lon="4.98361">
        <ele>306.93</ele>
        <time>2026-04-16T17:01:02.203Z</time>
      </trkpt>
      <trkpt lat="43.70547" lon="4.98363">
        <ele>306.21</ele>
        <time>2026-04-16T17:01:07.689Z</time>
      </trkpt>
      <trkpt lat="43.70547" lon="4.9836">
        <ele>305.37</ele>
        <time>2026-04-16T17:01:13.034Z</time>
      </trkpt>
      <trkpt lat="43.70546" lon="4.98361">
        <ele>304.52</ele>
        <time>2026-04-16T17:01:18.250Z</time>
      </trkpt>
      <trkpt lat="43.70544" lon="4.98355">
        <ele>303.66</ele>
        <time>2026-04-16T17:01:23.873Z</time>
      </trkpt>
      <trkpt lat="43.7054" lon="4.98355">
        <ele>302.53</ele>
        <time>2026-04-16T17:01:29.203Z</time>
      </trkpt>
      <trkpt lat="43.70538" lon="4.98352">
        <ele>301.78</ele>
        <time>2026-04-16T17:01:34.203Z</time>
      </trkpt>
      <trkpt lat="43.70537" lon="4.98353">
        <ele>300.06</ele>
        <time>2026-04-16T17:01:47.751Z</time>
      </trkpt>
      <trkpt lat="43.70536" lon="4.98353">
        <ele>299.3</ele>
        <time>2026-04-16T17:01:53.203Z</time>
      </trkpt>
      <trkpt lat="43.70535" lon="4.98354">
        <ele>298.78</ele>
        <time>2026-04-16T17:01:59.072Z</time>
      </trkpt>
      <trkpt lat="43.70529" lon="4.98352">
        <ele>297.77</ele>
        <time>2026-04-16T17:02:05.204Z</time>
      </trkpt>
      <trkpt lat="43.70525" lon="4.98348">
        <ele>296.85</ele>
        <time>2026-04-16T17:02:10.890Z</time>
      </trkpt>
      <trkpt lat="43.7052" lon="4.98346">
        <ele>296.32</ele>
        <time>2026-04-16T17:02:16.030Z</time>
      </trkpt>
      <trkpt lat="43.70516" lon="4.98344">
        <ele>295.13</ele>
        <time>2026-04-16T17:02:21.210Z</time>
      </trkpt>
      <trkpt lat="43.70517" lon="4.98346">
        <ele>294.51</ele>
        <time>2026-04-16T17:02:26.226Z</time>
      </trkpt>
      <trkpt lat="43.70516" lon="4.98347">
        <ele>294.07</ele>
        <time>2026-04-16T17:02:37.112Z</time>
      </trkpt>
      <trkpt lat="43.70512" lon="4.98351">
        <ele>293.27</ele>
        <time>2026-04-16T17:02:42.234Z</time>
      </trkpt>
      <trkpt lat="43.7051" lon="4.98354">
        <ele>292.51</ele>
        <time>2026-04-16T17:02:47.893Z</time>
      </trkpt>
      <trkpt lat="43.70507" lon="4.98357">
        <ele>291.57</ele>
        <time>2026-04-16T17:02:53.071Z</time>
      </trkpt>
      <trkpt lat="43.70507" lon="4.98359">
        <ele>290.67</ele>
        <time>2026-04-16T17:02:58.240Z</time>
      </trkpt>
      <trkpt lat="43.70506" lon="4.98361">
        <ele>289.96</ele>
        <time>2026-04-16T17:03:03.253Z</time>
      </trkpt>
      <trkpt lat="43.70505" lon="4.98366">
        <ele>289.23</ele>
        <time>2026-04-16T17:03:08.809Z</time>
      </trkpt>
      <trkpt lat="43.70505" lon="4.9837">
        <ele>288.59</ele>
        <time>2026-04-16T17:03:14.257Z</time>
      </trkpt>
      <trkpt lat="43.70502" lon="4.98374">
        <ele>288.01</ele>
        <time>2026-04-16T17:03:20.113Z</time>
      </trkpt>
      <trkpt lat="43.705" lon="4.9838">
        <ele>286.97</ele>
        <time>2026-04-16T17:03:26.132Z</time>
      </trkpt>
      <trkpt lat="43.70498" lon="4.98383">
        <ele>286.16</ele>
        <time>2026-04-16T17:03:31.690Z</time>
      </trkpt>
      <trkpt lat="43.70498" lon="4.98384">
        <ele>285.37</ele>
        <time>2026-04-16T17:03:37.203Z</time>
      </trkpt>
      <trkpt lat="43.70498" lon="4.98387">
        <ele>284.97</ele>
        <time>2026-04-16T17:03:42.216Z</time>
      </trkpt>
      <trkpt lat="43.705" lon="4.98396">
        <ele>284.72</ele>
        <time>2026-04-16T17:03:47.932Z</time>
      </trkpt>
      <trkpt lat="43.705" lon="4.98402">
        <ele>284</ele>
        <time>2026-04-16T17:03:53.033Z</time>
      </trkpt>
      <trkpt lat="43.70498" lon="4.98401">
        <ele>283.38</ele>
        <time>2026-04-16T17:03:58.224Z</time>
      </trkpt>
      <trkpt lat="43.70498" lon="4.98403">
        <ele>283.17</ele>
        <time>2026-04-16T17:04:10.842Z</time>
      </trkpt>
      <trkpt lat="43.70495" lon="4.98408">
        <ele>282.42</ele>
        <time>2026-04-16T17:04:16.203Z</time>
      </trkpt>
      <trkpt lat="43.70494" lon="4.98411">
        <ele>281.36</ele>
        <time>2026-04-16T17:04:22.034Z</time>
      </trkpt>
      <trkpt lat="43.70494" lon="4.98412">
        <ele>278.78</ele>
        <time>2026-04-16T17:04:37.676Z</time>
      </trkpt>
      <trkpt lat="43.70493" lon="4.98413">
        <ele>278.01</ele>
        <time>2026-04-16T17:04:42.712Z</time>
      </trkpt>
      <trkpt lat="43.70493" lon="4.98415">
        <ele>277.34</ele>
        <time>2026-04-16T17:04:47.880Z</time>
      </trkpt>
      <trkpt lat="43.70493" lon="4.98421">
        <ele>276.31</ele>
        <time>2026-04-16T17:04:52.971Z</time>
      </trkpt>
      <trkpt lat="43.70492" lon="4.9843">
        <ele>275.3</ele>
        <time>2026-04-16T17:04:58.202Z</time>
      </trkpt>
      <trkpt lat="43.70491" lon="4.98438">
        <ele>274.8</ele>
        <time>2026-04-16T17:05:03.212Z</time>
      </trkpt>
      <trkpt lat="43.70488" lon="4.98444">
        <ele>274.02</ele>
        <time>2026-04-16T17:05:09.203Z</time>
      </trkpt>
      <trkpt lat="43.70487" lon="4.98447">
        <ele>273.37</ele>
        <time>2026-04-16T17:05:14.205Z</time>
      </trkpt>
      <trkpt lat="43.70485" lon="4.98452">
        <ele>272.14</ele>
        <time>2026-04-16T17:05:19.219Z</time>
      </trkpt>
      <trkpt lat="43.70483" lon="4.98452">
        <ele>271.42</ele>
        <time>2026-04-16T17:05:25.028Z</time>
      </trkpt>
      <trkpt lat="43.70483" lon="4.98455">
        <ele>270.71</ele>
        <time>2026-04-16T17:05:30.057Z</time>
      </trkpt>
      <trkpt lat="43.70483" lon="4.9846">
        <ele>270.23</ele>
        <time>2026-04-16T17:05:35.226Z</time>
      </trkpt>
      <trkpt lat="43.70482" lon="4.98465">
        <ele>269.52</ele>
        <time>2026-04-16T17:05:40.243Z</time>
      </trkpt>
      <trkpt lat="43.70481" lon="4.98469">
        <ele>268.71</ele>
        <time>2026-04-16T17:05:45.258Z</time>
      </trkpt>
      <trkpt lat="43.7048" lon="4.98473">
        <ele>267.82</ele>
        <time>2026-04-16T17:05:50.793Z</time>
      </trkpt>
      <trkpt lat="43.70478" lon="4.9848">
        <ele>266.85</ele>
        <time>2026-04-16T17:05:56.094Z</time>
      </trkpt>
      <trkpt lat="43.70476" lon="4.98479">
        <ele>266.18</ele>
        <time>2026-04-16T17:06:01.266Z</time>
      </trkpt>
      <trkpt lat="43.70476" lon="4.98478">
        <ele>263.97</ele>
        <time>2026-04-16T17:06:17.203Z</time>
      </trkpt>
      <trkpt lat="43.70469" lon="4.98476">
        <ele>262.98</ele>
        <time>2026-04-16T17:06:23.152Z</time>
      </trkpt>
      <trkpt lat="43.7047" lon="4.98478">
        <ele>262.4</ele>
        <time>2026-04-16T17:06:28.156Z</time>
      </trkpt>
      <trkpt lat="43.70469" lon="4.98479">
        <ele>263.66</ele>
        <time>2026-04-16T17:06:41.203Z</time>
      </trkpt>
      <trkpt lat="43.70469" lon="4.9848">
        <ele>262.98</ele>
        <time>2026-04-16T17:06:47.202Z</time>
      </trkpt>
      <trkpt lat="43.70468" lon="4.98481">
        <ele>261.53</ele>
        <time>2026-04-16T17:06:52.671Z</time>
      </trkpt>
      <trkpt lat="43.70467" lon="4.98482">
        <ele>260.92</ele>
        <time>2026-04-16T17:06:58.690Z</time>
      </trkpt>
      <trkpt lat="43.70464" lon="4.98482">
        <ele>260.66</ele>
        <time>2026-04-16T17:07:03.786Z</time>
      </trkpt>
      <trkpt lat="43.70463" lon="4.98482">
        <ele>259.78</ele>
        <time>2026-04-16T17:07:08.987Z</time>
      </trkpt>
      <trkpt lat="43.70462" lon="4.98483">
        <ele>259.24</ele>
        <time>2026-04-16T17:07:15.218Z</time>
      </trkpt>
      <trkpt lat="43.70461" lon="4.98484">
        <ele>257.85</ele>
        <time>2026-04-16T17:07:21.126Z</time>
      </trkpt>
      <trkpt lat="43.7046" lon="4.98485">
        <ele>257.56</ele>
        <time>2026-04-16T17:07:26.171Z</time>
      </trkpt>
      <trkpt lat="43.70459" lon="4.98486">
        <ele>257.48</ele>
        <time>2026-04-16T17:07:32.090Z</time>
      </trkpt>
      <trkpt lat="43.70456" lon="4.98488">
        <ele>256.83</ele>
        <time>2026-04-16T17:07:37.364Z</time>
      </trkpt>
      <trkpt lat="43.70451" lon="4.98488">
        <ele>256.61</ele>
        <time>2026-04-16T17:07:42.566Z</time>
      </trkpt>
      <trkpt lat="43.7045" lon="4.98494">
        <ele>255.56</ele>
        <time>2026-04-16T17:07:48.027Z</time>
      </trkpt>
      <trkpt lat="43.70448" lon="4.98501">
        <ele>254.41</ele>
        <time>2026-04-16T17:07:53.208Z</time>
      </trkpt>
      <trkpt lat="43.70445" lon="4.98501">
        <ele>253.94</ele>
        <time>2026-04-16T17:07:58.512Z</time>
      </trkpt>
      <trkpt lat="43.70443" lon="4.98501">
        <ele>253.85</ele>
        <time>2026-04-16T17:08:03.624Z</time>
      </trkpt>
      <trkpt lat="43.70438" lon="4.98504">
        <ele>252.53</ele>
        <time>2026-04-16T17:08:08.712Z</time>
      </trkpt>
      <trkpt lat="43.70435" lon="4.98505">
        <ele>252.01</ele>
        <time>2026-04-16T17:08:14.230Z</time>
      </trkpt>
      <trkpt lat="43.70431" lon="4.98506">
        <ele>250.59</ele>
        <time>2026-04-16T17:08:19.245Z</time>
      </trkpt>
      <trkpt lat="43.70428" lon="4.98508">
        <ele>249.78</ele>
        <time>2026-04-16T17:08:24.772Z</time>
      </trkpt>
      <trkpt lat="43.70427" lon="4.98508">
        <ele>248.34</ele>
        <time>2026-04-16T17:08:34.687Z</time>
      </trkpt>
      <trkpt lat="43.70422" lon="4.98507">
        <ele>247.85</ele>
        <time>2026-04-16T17:08:39.746Z</time>
      </trkpt>
      <trkpt lat="43.70418" lon="4.98509">
        <ele>246.71</ele>
        <time>2026-04-16T17:08:45.188Z</time>
      </trkpt>
      <trkpt lat="43.70418" lon="4.98511">
        <ele>245.54</ele>
        <time>2026-04-16T17:08:52.748Z</time>
      </trkpt>
      <trkpt lat="43.70417" lon="4.98516">
        <ele>245.3</ele>
        <time>2026-04-16T17:08:58.195Z</time>
      </trkpt>
      <trkpt lat="43.70414" lon="4.9852">
        <ele>244.74</ele>
        <time>2026-04-16T17:09:03.925Z</time>
      </trkpt>
      <trkpt lat="43.70412" lon="4.98521">
        <ele>244.74</ele>
        <time>2026-04-16T17:09:10.042Z</time>
      </trkpt>
      <trkpt lat="43.70409" lon="4.98524">
        <ele>243.34</ele>
        <time>2026-04-16T17:09:15.268Z</time>
      </trkpt>
      <trkpt lat="43.70407" lon="4.98527">
        <ele>241.67</ele>
        <time>2026-04-16T17:09:21.026Z</time>
      </trkpt>
      <trkpt lat="43.70404" lon="4.98532">
        <ele>241.93</ele>
        <time>2026-04-16T17:09:26.612Z</time>
      </trkpt>
      <trkpt lat="43.70404" lon="4.98534">
        <ele>240.95</ele>
        <time>2026-04-16T17:09:34.933Z</time>
      </trkpt>
      <trkpt lat="43.70402" lon="4.98539">
        <ele>240.66</ele>
        <time>2026-04-16T17:09:40.065Z</time>
      </trkpt>
      <trkpt lat="43.70399" lon="4.9854">
        <ele>239.27</ele>
        <time>2026-04-16T17:09:45.071Z</time>
      </trkpt>
      <trkpt lat="43.70398" lon="4.98541">
        <ele>238.52</ele>
        <time>2026-04-16T17:09:50.203Z</time>
      </trkpt>
      <trkpt lat="43.70397" lon="4.98542">
        <ele>238.06</ele>
        <time>2026-04-16T17:10:01.024Z</time>
      </trkpt>
      <trkpt lat="43.70396" lon="4.98544">
        <ele>237.67</ele>
        <time>2026-04-16T17:10:06.128Z</time>
      </trkpt>
      <trkpt lat="43.70395" lon="4.98547">
        <ele>237.21</ele>
        <time>2026-04-16T17:10:11.202Z</time>
      </trkpt>
      <trkpt lat="43.70393" lon="4.9855">
        <ele>236.36</ele>
        <time>2026-04-16T17:10:17.162Z</time>
      </trkpt>
      <trkpt lat="43.70393" lon="4.98552">
        <ele>235.35</ele>
        <time>2026-04-16T17:10:22.572Z</time>
      </trkpt>
      <trkpt lat="43.7039" lon="4.98554">
        <ele>234.76</ele>
        <time>2026-04-16T17:10:27.926Z</time>
      </trkpt>
      <trkpt lat="43.70386" lon="4.98563">
        <ele>234.23</ele>
        <time>2026-04-16T17:10:33.048Z</time>
      </trkpt>
      <trkpt lat="43.70383" lon="4.98566">
        <ele>234.36</ele>
        <time>2026-04-16T17:10:38.907Z</time>
      </trkpt>
      <trkpt lat="43.70381" lon="4.98569">
        <ele>233.8</ele>
        <time>2026-04-16T17:10:44.206Z</time>
      </trkpt>
      <trkpt lat="43.70381" lon="4.9857">
        <ele>232.82</ele>
        <time>2026-04-16T17:10:56.669Z</time>
      </trkpt>
      <trkpt lat="43.70379" lon="4.98572">
        <ele>231.88</ele>
        <time>2026-04-16T17:11:02.194Z</time>
      </trkpt>
      <trkpt lat="43.70378" lon="4.98574">
        <ele>231.65</ele>
        <time>2026-04-16T17:11:07.950Z</time>
      </trkpt>
      <trkpt lat="43.70371" lon="4.98584">
        <ele>230.82</ele>
        <time>2026-04-16T17:11:13.203Z</time>
      </trkpt>
      <trkpt lat="43.70366" lon="4.9859">
        <ele>230.09</ele>
        <time>2026-04-16T17:11:18.652Z</time>
      </trkpt>
      <trkpt lat="43.70361" lon="4.98592">
        <ele>229.52</ele>
        <time>2026-04-16T17:11:24.045Z</time>
      </trkpt>
      <trkpt lat="43.70358" lon="4.98593">
        <ele>228.43</ele>
        <time>2026-04-16T17:11:29.203Z</time>
      </trkpt>
      <trkpt lat="43.70356" lon="4.98596">
        <ele>227.87</ele>
        <time>2026-04-16T17:11:34.872Z</time>
      </trkpt>
      <trkpt lat="43.70355" lon="4.98595">
        <ele>227.19</ele>
        <time>2026-04-16T17:11:40.585Z</time>
      </trkpt>
      <trkpt lat="43.70354" lon="4.98599">
        <ele>226.2</ele>
        <time>2026-04-16T17:11:46.010Z</time>
      </trkpt>
      <trkpt lat="43.70352" lon="4.98604">
        <ele>225.81</ele>
        <time>2026-04-16T17:11:51.203Z</time>
      </trkpt>
      <trkpt lat="43.7035" lon="4.98609">
        <ele>225.52</ele>
        <time>2026-04-16T17:11:57.231Z</time>
      </trkpt>
      <trkpt lat="43.70348" lon="4.98615">
        <ele>226.3</ele>
        <time>2026-04-16T17:12:03.230Z</time>
      </trkpt>
      <trkpt lat="43.70348" lon="4.98616">
        <ele>227.14</ele>
        <time>2026-04-16T17:12:11.126Z</time>
      </trkpt>
      <trkpt lat="43.70347" lon="4.98618">
        <ele>228.09</ele>
        <time>2026-04-16T17:12:19.237Z</time>
      </trkpt>
      <trkpt lat="43.70346" lon="4.9862">
        <ele>228.47</ele>
        <time>2026-04-16T17:12:24.717Z</time>
      </trkpt>
      <trkpt lat="43.70346" lon="4.98621">
        <ele>229.16</ele>
        <time>2026-04-16T17:12:30.228Z</time>
      </trkpt>
      <trkpt lat="43.70344" lon="4.98626">
        <ele>230.25</ele>
        <time>2026-04-16T17:12:35.909Z</time>
      </trkpt>
      <trkpt lat="43.70343" lon="4.98633">
        <ele>232.89</ele>
        <time>2026-04-16T17:12:41.204Z</time>
      </trkpt>
      <trkpt lat="43.70343" lon="4.98639">
        <ele>230.47</ele>
        <time>2026-04-16T17:12:47.145Z</time>
      </trkpt>
      <trkpt lat="43.70343" lon="4.98642">
        <ele>229.81</ele>
        <time>2026-04-16T17:12:52.169Z</time>
      </trkpt>
      <trkpt lat="43.70342" lon="4.98646">
        <ele>228.93</ele>
        <time>2026-04-16T17:12:57.226Z</time>
      </trkpt>
      <trkpt lat="43.7034" lon="4.9865">
        <ele>228.62</ele>
        <time>2026-04-16T17:13:02.241Z</time>
      </trkpt>
      <trkpt lat="43.70341" lon="4.98649">
        <ele>225.99</ele>
        <time>2026-04-16T17:13:17.202Z</time>
      </trkpt>
      <trkpt lat="43.7034" lon="4.98649">
        <ele>224.56</ele>
        <time>2026-04-16T17:13:27.169Z</time>
      </trkpt>
      <trkpt lat="43.70335" lon="4.98653">
        <ele>223.96</ele>
        <time>2026-04-16T17:13:32.603Z</time>
      </trkpt>
      <trkpt lat="43.70332" lon="4.98655">
        <ele>223.03</ele>
        <time>2026-04-16T17:13:37.804Z</time>
      </trkpt>
      <trkpt lat="43.7033" lon="4.98659">
        <ele>222.17</ele>
        <time>2026-04-16T17:13:42.867Z</time>
      </trkpt>
      <trkpt lat="43.7033" lon="4.98666">
        <ele>220.99</ele>
        <time>2026-04-16T17:13:48.231Z</time>
      </trkpt>
      <trkpt lat="43.70328" lon="4.98667">
        <ele>220.11</ele>
        <time>2026-04-16T17:13:53.383Z</time>
      </trkpt>
      <trkpt lat="43.70327" lon="4.98671">
        <ele>219.35</ele>
        <time>2026-04-16T17:13:58.929Z</time>
      </trkpt>
      <trkpt lat="43.70326" lon="4.98669">
        <ele>219.33</ele>
        <time>2026-04-16T17:14:04.203Z</time>
      </trkpt>
      <trkpt lat="43.70327" lon="4.98671">
        <ele>220.21</ele>
        <time>2026-04-16T17:14:17.257Z</time>
      </trkpt>
      <trkpt lat="43.70328" lon="4.98672">
        <ele>218.81</ele>
        <time>2026-04-16T17:14:22.445Z</time>
      </trkpt>
      <trkpt lat="43.70328" lon="4.98674">
        <ele>217.57</ele>
        <time>2026-04-16T17:14:30.063Z</time>
      </trkpt>
      <trkpt lat="43.70326" lon="4.98675">
        <ele>216.68</ele>
        <time>2026-04-16T17:14:35.203Z</time>
      </trkpt>
      <trkpt lat="43.70324" lon="4.98678">
        <ele>215.62</ele>
        <time>2026-04-16T17:14:40.203Z</time>
      </trkpt>
      <trkpt lat="43.70322" lon="4.98682">
        <ele>214.31</ele>
        <time>2026-04-16T17:14:45.214Z</time>
      </trkpt>
      <trkpt lat="43.70321" lon="4.98686">
        <ele>213.78</ele>
        <time>2026-04-16T17:14:50.230Z</time>
      </trkpt>
      <trkpt lat="43.70321" lon="4.9869">
        <ele>213.8</ele>
        <time>2026-04-16T17:14:55.245Z</time>
      </trkpt>
      <trkpt lat="43.7032" lon="4.98693">
        <ele>213.73</ele>
        <time>2026-04-16T17:15:00.259Z</time>
      </trkpt>
      <trkpt lat="43.7032" lon="4.98694">
        <ele>213.75</ele>
        <time>2026-04-16T17:15:05.275Z</time>
      </trkpt>
      <trkpt lat="43.70317" lon="4.98696">
        <ele>212.61</ele>
        <time>2026-04-16T17:15:11.251Z</time>
      </trkpt>
      <trkpt lat="43.70316" lon="4.98701">
        <ele>211.81</ele>
        <time>2026-04-16T17:15:16.786Z</time>
      </trkpt>
      <trkpt lat="43.70314" lon="4.98707">
        <ele>210.75</ele>
        <time>2026-04-16T17:15:22.242Z</time>
      </trkpt>
      <trkpt lat="43.70312" lon="4.98709">
        <ele>210.46</ele>
        <time>2026-04-16T17:15:27.849Z</time>
      </trkpt>
      <trkpt lat="43.7031" lon="4.98713">
        <ele>210.03</ele>
        <time>2026-04-16T17:15:33.233Z</time>
      </trkpt>
      <trkpt lat="43.70306" lon="4.98717">
        <ele>209.35</ele>
        <time>2026-04-16T17:15:38.247Z</time>
      </trkpt>
      <trkpt lat="43.70304" lon="4.98711">
        <ele>208.14</ele>
        <time>2026-04-16T17:15:43.749Z</time>
      </trkpt>
      <trkpt lat="43.70304" lon="4.98705">
        <ele>207.11</ele>
        <time>2026-04-16T17:15:49.239Z</time>
      </trkpt>
      <trkpt lat="43.70303" lon="4.98702">
        <ele>206.48</ele>
        <time>2026-04-16T17:15:54.254Z</time>
      </trkpt>
      <trkpt lat="43.70303" lon="4.98699">
        <ele>205.97</ele>
        <time>2026-04-16T17:16:00.100Z</time>
      </trkpt>
      <trkpt lat="43.70303" lon="4.98698">
        <ele>204.71</ele>
        <time>2026-04-16T17:16:08.232Z</time>
      </trkpt>
      <trkpt lat="43.70302" lon="4.98698">
        <ele>202.9</ele>
        <time>2026-04-16T17:16:18.062Z</time>
      </trkpt>
      <trkpt lat="43.70301" lon="4.98698">
        <ele>202.7</ele>
        <time>2026-04-16T17:16:23.860Z</time>
      </trkpt>
      <trkpt lat="43.703" lon="4.98698">
        <ele>201.6</ele>
        <time>2026-04-16T17:16:29.221Z</time>
      </trkpt>
      <trkpt lat="43.70294" lon="4.98701">
        <ele>200.29</ele>
        <time>2026-04-16T17:16:34.743Z</time>
      </trkpt>
      <trkpt lat="43.7029" lon="4.98702">
        <ele>199.12</ele>
        <time>2026-04-16T17:16:40.220Z</time>
      </trkpt>
      <trkpt lat="43.70285" lon="4.98702">
        <ele>198.39</ele>
        <time>2026-04-16T17:16:46.047Z</time>
      </trkpt>
      <trkpt lat="43.7028" lon="4.98704">
        <ele>197.94</ele>
        <time>2026-04-16T17:16:51.203Z</time>
      </trkpt>
      <trkpt lat="43.70277" lon="4.98706">
        <ele>197.08</ele>
        <time>2026-04-16T17:16:56.203Z</time>
      </trkpt>
      <trkpt lat="43.70271" lon="4.98705">
        <ele>196.7</ele>
        <time>2026-04-16T17:17:01.311Z</time>
      </trkpt>
      <trkpt lat="43.70267" lon="4.98705">
        <ele>195.68</ele>
        <time>2026-04-16T17:17:06.525Z</time>
      </trkpt>
      <trkpt lat="43.70263" lon="4.98709">
        <ele>194.39</ele>
        <time>2026-04-16T17:17:11.665Z</time>
      </trkpt>
      <trkpt lat="43.7026" lon="4.98712">
        <ele>193.36</ele>
        <time>2026-04-16T17:17:17.047Z</time>
      </trkpt>
      <trkpt lat="43.7026" lon="4.98717">
        <ele>192.75</ele>
        <time>2026-04-16T17:17:22.602Z</time>
      </trkpt>
      <trkpt lat="43.7026" lon="4.98719">
        <ele>191.65</ele>
        <time>2026-04-16T17:17:28.061Z</time>
      </trkpt>
      <trkpt lat="43.70258" lon="4.98723">
        <ele>190.5</ele>
        <time>2026-04-16T17:17:33.585Z</time>
      </trkpt>
      <trkpt lat="43.70255" lon="4.98725">
        <ele>189.5</ele>
        <time>2026-04-16T17:17:38.624Z</time>
      </trkpt>
      <trkpt lat="43.70253" lon="4.98726">
        <ele>188.8</ele>
        <time>2026-04-16T17:17:43.783Z</time>
      </trkpt>
      <trkpt lat="43.70251" lon="4.98729">
        <ele>188.25</ele>
        <time>2026-04-16T17:17:49.048Z</time>
      </trkpt>
      <trkpt lat="43.70248" lon="4.9873">
        <ele>187.75</ele>
        <time>2026-04-16T17:17:54.080Z</time>
      </trkpt>
      <trkpt lat="43.70245" lon="4.9873">
        <ele>186.94</ele>
        <time>2026-04-16T17:17:59.255Z</time>
      </trkpt>
      <trkpt lat="43.70242" lon="4.98731">
        <ele>186.03</ele>
        <time>2026-04-16T17:18:05.211Z</time>
      </trkpt>
      <trkpt lat="43.70236" lon="4.98734">
        <ele>184.56</ele>
        <time>2026-04-16T17:18:11.099Z</time>
      </trkpt>
      <trkpt lat="43.70237" lon="4.98734">
        <ele>184.02</ele>
        <time>2026-04-16T17:18:18.723Z</time>
      </trkpt>
      <trkpt lat="43.70233" lon="4.98733">
        <ele>183.01</ele>
        <time>2026-04-16T17:18:24.202Z</time>
      </trkpt>
      <trkpt lat="43.70231" lon="4.98732">
        <ele>182.29</ele>
        <time>2026-04-16T17:18:29.701Z</time>
      </trkpt>
      <trkpt lat="43.70229" lon="4.98731">
        <ele>181.49</ele>
        <time>2026-04-16T17:18:35.203Z</time>
      </trkpt>
      <trkpt lat="43.70228" lon="4.98731">
        <ele>180.74</ele>
        <time>2026-04-16T17:18:40.781Z</time>
      </trkpt>
      <trkpt lat="43.70225" lon="4.98735">
        <ele>180.23</ele>
        <time>2026-04-16T17:18:46.264Z</time>
      </trkpt>
      <trkpt lat="43.70219" lon="4.98741">
        <ele>179.9</ele>
        <time>2026-04-16T17:18:51.800Z</time>
      </trkpt>
      <trkpt lat="43.70214" lon="4.98745">
        <ele>179.1</ele>
        <time>2026-04-16T17:18:56.905Z</time>
      </trkpt>
      <trkpt lat="43.7021" lon="4.98748">
        <ele>178.64</ele>
        <time>2026-04-16T17:19:02.090Z</time>
      </trkpt>
      <trkpt lat="43.70207" lon="4.98748">
        <ele>177.51</ele>
        <time>2026-04-16T17:19:07.582Z</time>
      </trkpt>
      <trkpt lat="43.70205" lon="4.98749">
        <ele>176.64</ele>
        <time>2026-04-16T17:19:12.723Z</time>
      </trkpt>
      <trkpt lat="43.70204" lon="4.98751">
        <ele>176.33</ele>
        <time>2026-04-16T17:19:18.203Z</time>
      </trkpt>
      <trkpt lat="43.70201" lon="4.98752">
        <ele>175.68</ele>
        <time>2026-04-16T17:19:23.385Z</time>
      </trkpt>
      <trkpt lat="43.70197" lon="4.98755">
        <ele>175.04</ele>
        <time>2026-04-16T17:19:28.907Z</time>
      </trkpt>
      <trkpt lat="43.70193" lon="4.98761">
        <ele>174.53</ele>
        <time>2026-04-16T17:19:34.164Z</time>
      </trkpt>
      <trkpt lat="43.70188" lon="4.98765">
        <ele>173.92</ele>
        <time>2026-04-16T17:19:40.283Z</time>
      </trkpt>
      <trkpt lat="43.70183" lon="4.98768">
        <ele>173.52</ele>
        <time>2026-04-16T17:19:45.658Z</time>
      </trkpt>
      <trkpt lat="43.70181" lon="4.9877">
        <ele>173.11</ele>
        <time>2026-04-16T17:19:50.907Z</time>
      </trkpt>
      <trkpt lat="43.70177" lon="4.98772">
        <ele>172.51</ele>
        <time>2026-04-16T17:19:56.063Z</time>
      </trkpt>
      <trkpt lat="43.70172" lon="4.98774">
        <ele>171.94</ele>
        <time>2026-04-16T17:20:01.760Z</time>
      </trkpt>
      <trkpt lat="43.70169" lon="4.98778">
        <ele>171.17</ele>
        <time>2026-04-16T17:20:06.787Z</time>
      </trkpt>
      <trkpt lat="43.70166" lon="4.98779">
        <ele>170.56</ele>
        <time>2026-04-16T17:20:11.792Z</time>
      </trkpt>
      <trkpt lat="43.70163" lon="4.98781">
        <ele>170.07</ele>
        <time>2026-04-16T17:20:16.870Z</time>
      </trkpt>
      <trkpt lat="43.70159" lon="4.98784">
        <ele>169.26</ele>
        <time>2026-04-16T17:20:22.170Z</time>
      </trkpt>
      <trkpt lat="43.70154" lon="4.98786">
        <ele>168.98</ele>
        <time>2026-04-16T17:20:28.203Z</time>
      </trkpt>
      <trkpt lat="43.7015" lon="4.9879">
        <ele>168.55</ele>
        <time>2026-04-16T17:20:33.732Z</time>
      </trkpt>
      <trkpt lat="43.70147" lon="4.98791">
        <ele>167.51</ele>
        <time>2026-04-16T17:20:39.203Z</time>
      </trkpt>
      <trkpt lat="43.70142" lon="4.98791">
        <ele>167.54</ele>
        <time>2026-04-16T17:20:44.694Z</time>
      </trkpt>
      <trkpt lat="43.70136" lon="4.98794">
        <ele>167.06</ele>
        <time>2026-04-16T17:20:50.293Z</time>
      </trkpt>
      <trkpt lat="43.70132" lon="4.98799">
        <ele>166.27</ele>
        <time>2026-04-16T17:20:56.241Z</time>
      </trkpt>
      <trkpt lat="43.70128" lon="4.98799">
        <ele>165.78</ele>
        <time>2026-04-16T17:21:01.255Z</time>
      </trkpt>
      <trkpt lat="43.70123" lon="4.98802">
        <ele>165.05</ele>
        <time>2026-04-16T17:21:06.831Z</time>
      </trkpt>
      <trkpt lat="43.7012" lon="4.98807">
        <ele>164.8</ele>
        <time>2026-04-16T17:21:12.187Z</time>
      </trkpt>
      <trkpt lat="43.70117" lon="4.98811">
        <ele>164.49</ele>
        <time>2026-04-16T17:21:17.262Z</time>
      </trkpt>
      <trkpt lat="43.70116" lon="4.98814">
        <ele>164.01</ele>
        <time>2026-04-16T17:21:23.203Z</time>
      </trkpt>
      <trkpt lat="43.70115" lon="4.98813">
        <ele>163.58</ele>
        <time>2026-04-16T17:21:29.304Z</time>
      </trkpt>
      <trkpt lat="43.70114" lon="4.98813">
        <ele>163.71</ele>
        <time>2026-04-16T17:21:39.202Z</time>
      </trkpt>
      <trkpt lat="43.70113" lon="4.98814">
        <ele>163.87</ele>
        <time>2026-04-16T17:21:48.205Z</time>
      </trkpt>
      <trkpt lat="43.70106" lon="4.98817">
        <ele>164.4</ele>
        <time>2026-04-16T17:21:53.927Z</time>
      </trkpt>
      <trkpt lat="43.701" lon="4.98822">
        <ele>163.62</ele>
        <time>2026-04-16T17:21:59.530Z</time>
      </trkpt>
      <trkpt lat="43.70095" lon="4.98827">
        <ele>162.5</ele>
        <time>2026-04-16T17:22:05.255Z</time>
      </trkpt>
      <trkpt lat="43.7009" lon="4.98831">
        <ele>162.21</ele>
        <time>2026-04-16T17:22:10.275Z</time>
      </trkpt>
      <trkpt lat="43.70085" lon="4.98835">
        <ele>161.09</ele>
        <time>2026-04-16T17:22:15.953Z</time>
      </trkpt>
      <trkpt lat="43.70081" lon="4.9884">
        <ele>160.05</ele>
        <time>2026-04-16T17:22:21.716Z</time>
      </trkpt>
      <trkpt lat="43.70078" lon="4.98846">
        <ele>159.22</ele>
        <time>2026-04-16T17:22:27.202Z</time>
      </trkpt>
      <trkpt lat="43.70074" lon="4.98853">
        <ele>158.35</ele>
        <time>2026-04-16T17:22:32.474Z</time>
      </trkpt>
      <trkpt lat="43.70071" lon="4.98858">
        <ele>157.74</ele>
        <time>2026-04-16T17:22:38.013Z</time>
      </trkpt>
      <trkpt lat="43.70067" lon="4.98863">
        <ele>157.14</ele>
        <time>2026-04-16T17:22:44.036Z</time>
      </trkpt>
      <trkpt lat="43.70064" lon="4.98866">
        <ele>156.43</ele>
        <time>2026-04-16T17:22:49.193Z</time>
      </trkpt>
      <trkpt lat="43.70059" lon="4.9887">
        <ele>155.74</ele>
        <time>2026-04-16T17:22:55.051Z</time>
      </trkpt>
      <trkpt lat="43.70054" lon="4.98871">
        <ele>155.27</ele>
        <time>2026-04-16T17:23:00.189Z</time>
      </trkpt>
      <trkpt lat="43.70049" lon="4.98872">
        <ele>154.48</ele>
        <time>2026-04-16T17:23:05.246Z</time>
      </trkpt>
      <trkpt lat="43.70043" lon="4.98876">
        <ele>154.56</ele>
        <time>2026-04-16T17:23:11.207Z</time>
      </trkpt>
      <trkpt lat="43.70037" lon="4.98877">
        <ele>154.47</ele>
        <time>2026-04-16T17:23:16.987Z</time>
      </trkpt>
      <trkpt lat="43.70031" lon="4.9888">
        <ele>154.15</ele>
        <time>2026-04-16T17:23:22.590Z</time>
      </trkpt>
      <trkpt lat="43.70024" lon="4.98881">
        <ele>154.59</ele>
        <time>2026-04-16T17:23:27.696Z</time>
      </trkpt>
      <trkpt lat="43.70019" lon="4.98882">
        <ele>154.34</ele>
        <time>2026-04-16T17:23:33.153Z</time>
      </trkpt>
      <trkpt lat="43.70014" lon="4.98883">
        <ele>153.91</ele>
        <time>2026-04-16T17:23:38.533Z</time>
      </trkpt>
      <trkpt lat="43.70009" lon="4.98882">
        <ele>153.97</ele>
        <time>2026-04-16T17:23:43.992Z</time>
      </trkpt>
      <trkpt lat="43.70005" lon="4.98887">
        <ele>153.52</ele>
        <time>2026-04-16T17:23:49.553Z</time>
      </trkpt>
      <trkpt lat="43.70002" lon="4.9889">
        <ele>152.95</ele>
        <time>2026-04-16T17:23:54.706Z</time>
      </trkpt>
      <trkpt lat="43.7" lon="4.98896">
        <ele>152.04</ele>
        <time>2026-04-16T17:24:00.209Z</time>
      </trkpt>
      <trkpt lat="43.69995" lon="4.98898">
        <ele>150.82</ele>
        <time>2026-04-16T17:24:05.597Z</time>
      </trkpt>
      <trkpt lat="43.69989" lon="4.98898">
        <ele>151.08</ele>
        <time>2026-04-16T17:24:11.189Z</time>
      </trkpt>
      <trkpt lat="43.69985" lon="4.98899">
        <ele>151.7</ele>
        <time>2026-04-16T17:24:16.204Z</time>
      </trkpt>
      <trkpt lat="43.69981" lon="4.989">
        <ele>150.96</ele>
        <time>2026-04-16T17:24:21.719Z</time>
      </trkpt>
      <trkpt lat="43.69978" lon="4.98904">
        <ele>150.29</ele>
        <time>2026-04-16T17:24:27.301Z</time>
      </trkpt>
      <trkpt lat="43.69974" lon="4.98909">
        <ele>150.01</ele>
        <time>2026-04-16T17:24:32.767Z</time>
      </trkpt>
      <trkpt lat="43.69968" lon="4.98909">
        <ele>148.31</ele>
        <time>2026-04-16T17:24:38.207Z</time>
      </trkpt>
      <trkpt lat="43.69961" lon="4.98907">
        <ele>146.95</ele>
        <time>2026-04-16T17:24:44.162Z</time>
      </trkpt>
      <trkpt lat="43.69956" lon="4.98903">
        <ele>145.63</ele>
        <time>2026-04-16T17:24:49.324Z</time>
      </trkpt>
      <trkpt lat="43.69951" lon="4.98902">
        <ele>144.96</ele>
        <time>2026-04-16T17:24:54.721Z</time>
      </trkpt>
      <trkpt lat="43.69946" lon="4.98902">
        <ele>143.96</ele>
        <time>2026-04-16T17:24:59.891Z</time>
      </trkpt>
      <trkpt lat="43.69942" lon="4.989">
        <ele>143.44</ele>
        <time>2026-04-16T17:25:05.203Z</time>
      </trkpt>
      <trkpt lat="43.69937" lon="4.98893">
        <ele>143.18</ele>
        <time>2026-04-16T17:25:11.168Z</time>
      </trkpt>
      <trkpt lat="43.69933" lon="4.98887">
        <ele>141.78</ele>
        <time>2026-04-16T17:25:17.135Z</time>
      </trkpt>
      <trkpt lat="43.6993" lon="4.98881">
        <ele>141.8</ele>
        <time>2026-04-16T17:25:22.969Z</time>
      </trkpt>
      <trkpt lat="43.69925" lon="4.98874">
        <ele>141.01</ele>
        <time>2026-04-16T17:25:28.202Z</time>
      </trkpt>
      <trkpt lat="43.69921" lon="4.98867">
        <ele>140.71</ele>
        <time>2026-04-16T17:25:33.202Z</time>
      </trkpt>
      <trkpt lat="43.69918" lon="4.98863">
        <ele>140.25</ele>
        <time>2026-04-16T17:25:39.136Z</time>
      </trkpt>
      <trkpt lat="43.69914" lon="4.98859">
        <ele>139.3</ele>
        <time>2026-04-16T17:25:44.270Z</time>
      </trkpt>
      <trkpt lat="43.6991" lon="4.98855">
        <ele>138.49</ele>
        <time>2026-04-16T17:25:49.769Z</time>
      </trkpt>
      <trkpt lat="43.69904" lon="4.9885">
        <ele>138</ele>
        <time>2026-04-16T17:25:55.132Z</time>
      </trkpt>
      <trkpt lat="43.69898" lon="4.98849">
        <ele>137.46</ele>
        <time>2026-04-16T17:26:00.209Z</time>
      </trkpt>
      <trkpt lat="43.69892" lon="4.98849">
        <ele>137.24</ele>
        <time>2026-04-16T17:26:05.635Z</time>
      </trkpt>
      <trkpt lat="43.69887" lon="4.98849">
        <ele>136.94</ele>
        <time>2026-04-16T17:26:10.729Z</time>
      </trkpt>
      <trkpt lat="43.69883" lon="4.98853">
        <ele>135.83</ele>
        <time>2026-04-16T17:26:16.187Z</time>
      </trkpt>
      <trkpt lat="43.69877" lon="4.98854">
        <ele>135.86</ele>
        <time>2026-04-16T17:26:21.250Z</time>
      </trkpt>
      <trkpt lat="43.69873" lon="4.9885">
        <ele>135.25</ele>
        <time>2026-04-16T17:26:26.395Z</time>
      </trkpt>
      <trkpt lat="43.69867" lon="4.98847">
        <ele>134.84</ele>
        <time>2026-04-16T17:26:31.459Z</time>
      </trkpt>
      <trkpt lat="43.69862" lon="4.98841">
        <ele>134.55</ele>
        <time>2026-04-16T17:26:36.891Z</time>
      </trkpt>
      <trkpt lat="43.69857" lon="4.98836">
        <ele>133.92</ele>
        <time>2026-04-16T17:26:42.650Z</time>
      </trkpt>
      <trkpt lat="43.69852" lon="4.98832">
        <ele>133.39</ele>
        <time>2026-04-16T17:26:47.837Z</time>
      </trkpt>
      <trkpt lat="43.69846" lon="4.98829">
        <ele>132.75</ele>
        <time>2026-04-16T17:26:53.212Z</time>
      </trkpt>
      <trkpt lat="43.69839" lon="4.98832">
        <ele>132.13</ele>
        <time>2026-04-16T17:26:59.111Z</time>
      </trkpt>
      <trkpt lat="43.69835" lon="4.98837">
        <ele>131.66</ele>
        <time>2026-04-16T17:27:04.509Z</time>
      </trkpt>
      <trkpt lat="43.69831" lon="4.98837">
        <ele>131.07</ele>
        <time>2026-04-16T17:27:10.293Z</time>
      </trkpt>
      <trkpt lat="43.69826" lon="4.98837">
        <ele>130.46</ele>
        <time>2026-04-16T17:27:15.872Z</time>
      </trkpt>
      <trkpt lat="43.69821" lon="4.98832">
        <ele>130.06</ele>
        <time>2026-04-16T17:27:21.610Z</time>
      </trkpt>
      <trkpt lat="43.69818" lon="4.98827">
        <ele>129.56</ele>
        <time>2026-04-16T17:27:27.203Z</time>
      </trkpt>
      <trkpt lat="43.6982" lon="4.98827">
        <ele>129.6</ele>
        <time>2026-04-16T17:27:32.203Z</time>
      </trkpt>
      <trkpt lat="43.69819" lon="4.98828">
        <ele>128.28</ele>
        <time>2026-04-16T17:27:43.307Z</time>
      </trkpt>
      <trkpt lat="43.69812" lon="4.98825">
        <ele>127.66</ele>
        <time>2026-04-16T17:27:48.687Z</time>
      </trkpt>
      <trkpt lat="43.69808" lon="4.98816">
        <ele>128.07</ele>
        <time>2026-04-16T17:27:53.988Z</time>
      </trkpt>
      <trkpt lat="43.69809" lon="4.98809">
        <ele>129.15</ele>
        <time>2026-04-16T17:28:00.263Z</time>
      </trkpt>
      <trkpt lat="43.6981" lon="4.9881">
        <ele>130.34</ele>
        <time>2026-04-16T17:28:06.065Z</time>
      </trkpt>
      <trkpt lat="43.69809" lon="4.98806">
        <ele>129.65</ele>
        <time>2026-04-16T17:28:11.507Z</time>
      </trkpt>
      <trkpt lat="43.6981" lon="4.98806">
        <ele>128.19</ele>
        <time>2026-04-16T17:28:18.203Z</time>
      </trkpt>
      <trkpt lat="43.69809" lon="4.98806">
        <ele>130.24</ele>
        <time>2026-04-16T17:28:55.764Z</time>
      </trkpt>
      <trkpt lat="43.69804" lon="4.98814">
        <ele>129.92</ele>
        <time>2026-04-16T17:29:01.203Z</time>
      </trkpt>
      <trkpt lat="43.698" lon="4.9882">
        <ele>129.15</ele>
        <time>2026-04-16T17:29:06.203Z</time>
      </trkpt>
      <trkpt lat="43.69797" lon="4.98826">
        <ele>129.19</ele>
        <time>2026-04-16T17:29:11.731Z</time>
      </trkpt>
      <trkpt lat="43.69795" lon="4.98832">
        <ele>129.01</ele>
        <time>2026-04-16T17:29:16.936Z</time>
      </trkpt>
      <trkpt lat="43.69795" lon="4.98838">
        <ele>129.18</ele>
        <time>2026-04-16T17:29:22.331Z</time>
      </trkpt>
      <trkpt lat="43.69798" lon="4.98846">
        <ele>129.89</ele>
        <time>2026-04-16T17:29:27.697Z</time>
      </trkpt>
      <trkpt lat="43.698" lon="4.98851">
        <ele>130.24</ele>
        <time>2026-04-16T17:29:33.156Z</time>
      </trkpt>
      <trkpt lat="43.698" lon="4.98857">
        <ele>129.92</ele>
        <time>2026-04-16T17:29:38.573Z</time>
      </trkpt>
      <trkpt lat="43.69797" lon="4.98862">
        <ele>129.55</ele>
        <time>2026-04-16T17:29:43.872Z</time>
      </trkpt>
      <trkpt lat="43.69793" lon="4.98869">
        <ele>129.52</ele>
        <time>2026-04-16T17:29:49.615Z</time>
      </trkpt>
      <trkpt lat="43.69791" lon="4.98877">
        <ele>129.95</ele>
        <time>2026-04-16T17:29:54.917Z</time>
      </trkpt>
      <trkpt lat="43.69789" lon="4.98886">
        <ele>130.03</ele>
        <time>2026-04-16T17:30:00.637Z</time>
      </trkpt>
      <trkpt lat="43.69787" lon="4.98893">
        <ele>129.73</ele>
        <time>2026-04-16T17:30:05.794Z</time>
      </trkpt>
      <trkpt lat="43.69784" lon="4.989">
        <ele>130.21</ele>
        <time>2026-04-16T17:30:11.203Z</time>
      </trkpt>
      <trkpt lat="43.69783" lon="4.98908">
        <ele>130.23</ele>
        <time>2026-04-16T17:30:16.216Z</time>
      </trkpt>
      <trkpt lat="43.69781" lon="4.98917">
        <ele>130.03</ele>
        <time>2026-04-16T17:30:22.218Z</time>
      </trkpt>
      <trkpt lat="43.6978" lon="4.98923">
        <ele>130.48</ele>
        <time>2026-04-16T17:30:27.796Z</time>
      </trkpt>
      <trkpt lat="43.6978" lon="4.98931">
        <ele>130.25</ele>
        <time>2026-04-16T17:30:33.675Z</time>
      </trkpt>
      <trkpt lat="43.6978" lon="4.98938">
        <ele>130.22</ele>
        <time>2026-04-16T17:30:38.895Z</time>
      </trkpt>
      <trkpt lat="43.69778" lon="4.98944">
        <ele>129.99</ele>
        <time>2026-04-16T17:30:44.203Z</time>
      </trkpt>
      <trkpt lat="43.69774" lon="4.98952">
        <ele>129.56</ele>
        <time>2026-04-16T17:30:49.203Z</time>
      </trkpt>
      <trkpt lat="43.69769" lon="4.9896">
        <ele>129.37</ele>
        <time>2026-04-16T17:30:55.259Z</time>
      </trkpt>
      <trkpt lat="43.69768" lon="4.98969">
        <ele>129.06</ele>
        <time>2026-04-16T17:31:00.990Z</time>
      </trkpt>
      <trkpt lat="43.69766" lon="4.98977">
        <ele>128.7</ele>
        <time>2026-04-16T17:31:06.203Z</time>
      </trkpt>
      <trkpt lat="43.69764" lon="4.98983">
        <ele>128.74</ele>
        <time>2026-04-16T17:31:11.699Z</time>
      </trkpt>
      <trkpt lat="43.69761" lon="4.9899">
        <ele>128.63</ele>
        <time>2026-04-16T17:31:17.254Z</time>
      </trkpt>
      <trkpt lat="43.69759" lon="4.98998">
        <ele>128.41</ele>
        <time>2026-04-16T17:31:22.476Z</time>
      </trkpt>
      <trkpt lat="43.69758" lon="4.99007">
        <ele>128.29</ele>
        <time>2026-04-16T17:31:28.202Z</time>
      </trkpt>
      <trkpt lat="43.69758" lon="4.99015">
        <ele>127.59</ele>
        <time>2026-04-16T17:31:33.994Z</time>
      </trkpt>
      <trkpt lat="43.69757" lon="4.99023">
        <ele>127.4</ele>
        <time>2026-04-16T17:31:39.035Z</time>
      </trkpt>
      <trkpt lat="43.69756" lon="4.9903">
        <ele>126.72</ele>
        <time>2026-04-16T17:31:44.252Z</time>
      </trkpt>
      <trkpt lat="43.69755" lon="4.99039">
        <ele>126.68</ele>
        <time>2026-04-16T17:31:50.293Z</time>
      </trkpt>
      <trkpt lat="43.69755" lon="4.99048">
        <ele>126.78</ele>
        <time>2026-04-16T17:31:55.957Z</time>
      </trkpt>
      <trkpt lat="43.69755" lon="4.99054">
        <ele>126.39</ele>
        <time>2026-04-16T17:32:01.220Z</time>
      </trkpt>
      <trkpt lat="43.69756" lon="4.9906">
        <ele>126.63</ele>
        <time>2026-04-16T17:32:06.975Z</time>
      </trkpt>
      <trkpt lat="43.69758" lon="4.99067">
        <ele>126.26</ele>
        <time>2026-04-16T17:32:12.210Z</time>
      </trkpt>
      <trkpt lat="43.69758" lon="4.99073">
        <ele>126.07</ele>
        <time>2026-04-16T17:32:17.676Z</time>
      </trkpt>
      <trkpt lat="43.69759" lon="4.99081">
        <ele>126.81</ele>
        <time>2026-04-16T17:32:22.732Z</time>
      </trkpt>
      <trkpt lat="43.69761" lon="4.99088">
        <ele>125.7</ele>
        <time>2026-04-16T17:32:28.137Z</time>
      </trkpt>
      <trkpt lat="43.69763" lon="4.99094">
        <ele>124.65</ele>
        <time>2026-04-16T17:32:33.234Z</time>
      </trkpt>
      <trkpt lat="43.69764" lon="4.99102">
        <ele>125.74</ele>
        <time>2026-04-16T17:32:38.249Z</time>
      </trkpt>
      <trkpt lat="43.69765" lon="4.99109">
        <ele>126.67</ele>
        <time>2026-04-16T17:32:43.265Z</time>
      </trkpt>
      <trkpt lat="43.69763" lon="4.99119">
        <ele>126.97</ele>
        <time>2026-04-16T17:32:49.203Z</time>
      </trkpt>
      <trkpt lat="43.69763" lon="4.99125">
        <ele>125.8</ele>
        <time>2026-04-16T17:32:54.255Z</time>
      </trkpt>
      <trkpt lat="43.69762" lon="4.99131">
        <ele>125.1</ele>
        <time>2026-04-16T17:32:59.271Z</time>
      </trkpt>
      <trkpt lat="43.69761" lon="4.99138">
        <ele>125.72</ele>
        <time>2026-04-16T17:33:04.896Z</time>
      </trkpt>
      <trkpt lat="43.6976" lon="4.99146">
        <ele>125.45</ele>
        <time>2026-04-16T17:33:10.677Z</time>
      </trkpt>
      <trkpt lat="43.69759" lon="4.99153">
        <ele>124.96</ele>
        <time>2026-04-16T17:33:15.818Z</time>
      </trkpt>
      <trkpt lat="43.69759" lon="4.99162">
        <ele>125.34</ele>
        <time>2026-04-16T17:33:21.255Z</time>
      </trkpt>
      <trkpt lat="43.69759" lon="4.99171">
        <ele>125.07</ele>
        <time>2026-04-16T17:33:27.057Z</time>
      </trkpt>
      <trkpt lat="43.69759" lon="4.99179">
        <ele>124.9</ele>
        <time>2026-04-16T17:33:32.246Z</time>
      </trkpt>
      <trkpt lat="43.69757" lon="4.99186">
        <ele>124.63</ele>
        <time>2026-04-16T17:33:37.262Z</time>
      </trkpt>
      <trkpt lat="43.69754" lon="4.99193">
        <ele>124.16</ele>
        <time>2026-04-16T17:33:42.285Z</time>
      </trkpt>
      <trkpt lat="43.69752" lon="4.99203">
        <ele>124.54</ele>
        <time>2026-04-16T17:33:48.018Z</time>
      </trkpt>
      <trkpt lat="43.6975" lon="4.9921">
        <ele>124.67</ele>
        <time>2026-04-16T17:33:53.269Z</time>
      </trkpt>
      <trkpt lat="43.6975" lon="4.99217">
        <ele>124.31</ele>
        <time>2026-04-16T17:33:58.284Z</time>
      </trkpt>
      <trkpt lat="43.69752" lon="4.99225">
        <ele>124.45</ele>
        <time>2026-04-16T17:34:03.613Z</time>
      </trkpt>
      <trkpt lat="43.69753" lon="4.99232">
        <ele>124.6</ele>
        <time>2026-04-16T17:34:08.739Z</time>
      </trkpt>
      <trkpt lat="43.69754" lon="4.99239">
        <ele>125</ele>
        <time>2026-04-16T17:34:14.203Z</time>
      </trkpt>
      <trkpt lat="43.69755" lon="4.99246">
        <ele>125.42</ele>
        <time>2026-04-16T17:34:19.736Z</time>
      </trkpt>
      <trkpt lat="43.69755" lon="4.99253">
        <ele>125.59</ele>
        <time>2026-04-16T17:34:24.887Z</time>
      </trkpt>
      <trkpt lat="43.69755" lon="4.9926">
        <ele>126.02</ele>
        <time>2026-04-16T17:34:30.203Z</time>
      </trkpt>
      <trkpt lat="43.69753" lon="4.99269">
        <ele>126.08</ele>
        <time>2026-04-16T17:34:35.476Z</time>
      </trkpt>
      <trkpt lat="43.69752" lon="4.99279">
        <ele>126.12</ele>
        <time>2026-04-16T17:34:41.286Z</time>
      </trkpt>
      <trkpt lat="43.69753" lon="4.99286">
        <ele>126.65</ele>
        <time>2026-04-16T17:34:46.291Z</time>
      </trkpt>
      <trkpt lat="43.69752" lon="4.99293">
        <ele>126.02</ele>
        <time>2026-04-16T17:34:52.095Z</time>
      </trkpt>
      <trkpt lat="43.6975" lon="4.99299">
        <ele>126.13</ele>
        <time>2026-04-16T17:34:58.213Z</time>
      </trkpt>
      <trkpt lat="43.69752" lon="4.99306">
        <ele>126.86</ele>
        <time>2026-04-16T17:35:03.869Z</time>
      </trkpt>
      <trkpt lat="43.69754" lon="4.99313">
        <ele>124.99</ele>
        <time>2026-04-16T17:35:09.135Z</time>
      </trkpt>
      <trkpt lat="43.69753" lon="4.99321">
        <ele>129.83</ele>
        <time>2026-04-16T17:35:14.263Z</time>
      </trkpt>
      <trkpt lat="43.6975" lon="4.99328">
        <ele>128.99</ele>
        <time>2026-04-16T17:35:19.278Z</time>
      </trkpt>
      <trkpt lat="43.69749" lon="4.99337">
        <ele>127.86</ele>
        <time>2026-04-16T17:35:24.600Z</time>
      </trkpt>
      <trkpt lat="43.6975" lon="4.99344">
        <ele>127.88</ele>
        <time>2026-04-16T17:35:29.757Z</time>
      </trkpt>
      <trkpt lat="43.6975" lon="4.99351">
        <ele>127.56</ele>
        <time>2026-04-16T17:35:34.862Z</time>
      </trkpt>
      <trkpt lat="43.69748" lon="4.9936">
        <ele>127.67</ele>
        <time>2026-04-16T17:35:40.578Z</time>
      </trkpt>
      <trkpt lat="43.69748" lon="4.99368">
        <ele>128.08</ele>
        <time>2026-04-16T17:35:45.800Z</time>
      </trkpt>
      <trkpt lat="43.69747" lon="4.99375">
        <ele>127.98</ele>
        <time>2026-04-16T17:35:51.598Z</time>
      </trkpt>
      <trkpt lat="43.69747" lon="4.99383">
        <ele>127.58</ele>
        <time>2026-04-16T17:35:56.863Z</time>
      </trkpt>
      <trkpt lat="43.69747" lon="4.99392">
        <ele>126.97</ele>
        <time>2026-04-16T17:36:02.203Z</time>
      </trkpt>
      <trkpt lat="43.69751" lon="4.99399">
        <ele>126.78</ele>
        <time>2026-04-16T17:36:08.202Z</time>
      </trkpt>
      <trkpt lat="43.6975" lon="4.99406">
        <ele>126.68</ele>
        <time>2026-04-16T17:36:13.203Z</time>
      </trkpt>
      <trkpt lat="43.6975" lon="4.99412">
        <ele>126.44</ele>
        <time>2026-04-16T17:36:18.203Z</time>
      </trkpt>
      <trkpt lat="43.6975" lon="4.99418">
        <ele>127.53</ele>
        <time>2026-04-16T17:36:23.618Z</time>
      </trkpt>
      <trkpt lat="43.69748" lon="4.99426">
        <ele>126.91</ele>
        <time>2026-04-16T17:36:28.956Z</time>
      </trkpt>
      <trkpt lat="43.69746" lon="4.99433">
        <ele>126.49</ele>
        <time>2026-04-16T17:36:34.203Z</time>
      </trkpt>
      <trkpt lat="43.69745" lon="4.99441">
        <ele>127.32</ele>
        <time>2026-04-16T17:36:39.599Z</time>
      </trkpt>
      <trkpt lat="43.69746" lon="4.99448">
        <ele>126.76</ele>
        <time>2026-04-16T17:36:45.288Z</time>
      </trkpt>
      <trkpt lat="43.69742" lon="4.99454">
        <ele>128.12</ele>
        <time>2026-04-16T17:36:50.305Z</time>
      </trkpt>
      <trkpt lat="43.69741" lon="4.99463">
        <ele>128.17</ele>
        <time>2026-04-16T17:36:55.557Z</time>
      </trkpt>
      <trkpt lat="43.6974" lon="4.9947">
        <ele>127.67</ele>
        <time>2026-04-16T17:37:00.820Z</time>
      </trkpt>
      <trkpt lat="43.69739" lon="4.99476">
        <ele>127.7</ele>
        <time>2026-04-16T17:37:05.979Z</time>
      </trkpt>
      <trkpt lat="43.69736" lon="4.99482">
        <ele>127.85</ele>
        <time>2026-04-16T17:37:11.303Z</time>
      </trkpt>
      <trkpt lat="43.69734" lon="4.99489">
        <ele>128.04</ele>
        <time>2026-04-16T17:37:16.622Z</time>
      </trkpt>
      <trkpt lat="43.69732" lon="4.99496">
        <ele>127.61</ele>
        <time>2026-04-16T17:37:22.216Z</time>
      </trkpt>
      <trkpt lat="43.69728" lon="4.99501">
        <ele>127.16</ele>
        <time>2026-04-16T17:37:27.290Z</time>
      </trkpt>
      <trkpt lat="43.69724" lon="4.99507">
        <ele>127.1</ele>
        <time>2026-04-16T17:37:33.203Z</time>
      </trkpt>
      <trkpt lat="43.69722" lon="4.99512">
        <ele>127.02</ele>
        <time>2026-04-16T17:37:38.218Z</time>
      </trkpt>
      <trkpt lat="43.69717" lon="4.9952">
        <ele>127.05</ele>
        <time>2026-04-16T17:37:44.203Z</time>
      </trkpt>
      <trkpt lat="43.69712" lon="4.99526">
        <ele>126.89</ele>
        <time>2026-04-16T17:37:50.282Z</time>
      </trkpt>
      <trkpt lat="43.69708" lon="4.99532">
        <ele>126.58</ele>
        <time>2026-04-16T17:37:56.290Z</time>
      </trkpt>
      <trkpt lat="43.69705" lon="4.99539">
        <ele>126.65</ele>
        <time>2026-04-16T17:38:02.222Z</time>
      </trkpt>
      <trkpt lat="43.69702" lon="4.99546">
        <ele>126.66</ele>
        <time>2026-04-16T17:38:08.180Z</time>
      </trkpt>
      <trkpt lat="43.69699" lon="4.99555">
        <ele>126.75</ele>
        <time>2026-04-16T17:38:13.959Z</time>
      </trkpt>
      <trkpt lat="43.69697" lon="4.99562">
        <ele>126.61</ele>
        <time>2026-04-16T17:38:19.203Z</time>
      </trkpt>
      <trkpt lat="43.69695" lon="4.9957">
        <ele>125.94</ele>
        <time>2026-04-16T17:38:24.211Z</time>
      </trkpt>
      <trkpt lat="43.69693" lon="4.99578">
        <ele>125.68</ele>
        <time>2026-04-16T17:38:30.197Z</time>
      </trkpt>
      <trkpt lat="43.69692" lon="4.99587">
        <ele>125.51</ele>
        <time>2026-04-16T17:38:35.340Z</time>
      </trkpt>
      <trkpt lat="43.69689" lon="4.99596">
        <ele>125.3</ele>
        <time>2026-04-16T17:38:40.702Z</time>
      </trkpt>
      <trkpt lat="43.69687" lon="4.99603">
        <ele>125.45</ele>
        <time>2026-04-16T17:38:45.937Z</time>
      </trkpt>
      <trkpt lat="43.69684" lon="4.99609">
        <ele>125.08</ele>
        <time>2026-04-16T17:38:51.561Z</time>
      </trkpt>
      <trkpt lat="43.69681" lon="4.99616">
        <ele>125.18</ele>
        <time>2026-04-16T17:38:57.290Z</time>
      </trkpt>
      <trkpt lat="43.69677" lon="4.99624">
        <ele>125.16</ele>
        <time>2026-04-16T17:39:03.203Z</time>
      </trkpt>
      <trkpt lat="43.69676" lon="4.99631">
        <ele>125.4</ele>
        <time>2026-04-16T17:39:08.290Z</time>
      </trkpt>
      <trkpt lat="43.69673" lon="4.9964">
        <ele>125.68</ele>
        <time>2026-04-16T17:39:14.258Z</time>
      </trkpt>
      <trkpt lat="43.69671" lon="4.99649">
        <ele>125.37</ele>
        <time>2026-04-16T17:39:20.184Z</time>
      </trkpt>
      <trkpt lat="43.6967" lon="4.99656">
        <ele>125.02</ele>
        <time>2026-04-16T17:39:25.379Z</time>
      </trkpt>
      <trkpt lat="43.69667" lon="4.99663">
        <ele>125.04</ele>
        <time>2026-04-16T17:39:30.419Z</time>
      </trkpt>
      <trkpt lat="43.69666" lon="4.9967">
        <ele>125.35</ele>
        <time>2026-04-16T17:39:36.102Z</time>
      </trkpt>
      <trkpt lat="43.69663" lon="4.99677">
        <ele>125.67</ele>
        <time>2026-04-16T17:39:42.139Z</time>
      </trkpt>
      <trkpt lat="43.6966" lon="4.99685">
        <ele>125.45</ele>
        <time>2026-04-16T17:39:48.079Z</time>
      </trkpt>
      <trkpt lat="43.69656" lon="4.99691">
        <ele>125.04</ele>
        <time>2026-04-16T17:39:54.135Z</time>
      </trkpt>
      <trkpt lat="43.69652" lon="4.99698">
        <ele>125.04</ele>
        <time>2026-04-16T17:39:59.942Z</time>
      </trkpt>
      <trkpt lat="43.69648" lon="4.99703">
        <ele>125.37</ele>
        <time>2026-04-16T17:40:05.264Z</time>
      </trkpt>
      <trkpt lat="43.69644" lon="4.9971">
        <ele>125.4</ele>
        <time>2026-04-16T17:40:10.817Z</time>
      </trkpt>
      <trkpt lat="43.6964" lon="4.99715">
        <ele>125.18</ele>
        <time>2026-04-16T17:40:16.255Z</time>
      </trkpt>
      <trkpt lat="43.69635" lon="4.9972">
        <ele>124.86</ele>
        <time>2026-04-16T17:40:21.862Z</time>
      </trkpt>
      <trkpt lat="43.6963" lon="4.99725">
        <ele>124.91</ele>
        <time>2026-04-16T17:40:27.300Z</time>
      </trkpt>
      <trkpt lat="43.69626" lon="4.99733">
        <ele>125.01</ele>
        <time>2026-04-16T17:40:32.941Z</time>
      </trkpt>
      <trkpt lat="43.69623" lon="4.99742">
        <ele>125.07</ele>
        <time>2026-04-16T17:40:38.679Z</time>
      </trkpt>
      <trkpt lat="43.6962" lon="4.99749">
        <ele>125.02</ele>
        <time>2026-04-16T17:40:43.782Z</time>
      </trkpt>
      <trkpt lat="43.69616" lon="4.99756">
        <ele>124.76</ele>
        <time>2026-04-16T17:40:49.197Z</time>
      </trkpt>
      <trkpt lat="43.69614" lon="4.99762">
        <ele>124.58</ele>
        <time>2026-04-16T17:40:54.334Z</time>
      </trkpt>
      <trkpt lat="43.69611" lon="4.99769">
        <ele>124.19</ele>
        <time>2026-04-16T17:40:59.858Z</time>
      </trkpt>
      <trkpt lat="43.6961" lon="4.99777">
        <ele>124.41</ele>
        <time>2026-04-16T17:41:05.123Z</time>
      </trkpt>
      <trkpt lat="43.69609" lon="4.99784">
        <ele>124.62</ele>
        <time>2026-04-16T17:41:10.701Z</time>
      </trkpt>
      <trkpt lat="43.69607" lon="4.99791">
        <ele>124.08</ele>
        <time>2026-04-16T17:41:15.832Z</time>
      </trkpt>
      <trkpt lat="43.69604" lon="4.99799">
        <ele>123.97</ele>
        <time>2026-04-16T17:41:21.203Z</time>
      </trkpt>
      <trkpt lat="43.69601" lon="4.99805">
        <ele>123.87</ele>
        <time>2026-04-16T17:41:26.256Z</time>
      </trkpt>
      <trkpt lat="43.69598" lon="4.99811">
        <ele>123.69</ele>
        <time>2026-04-16T17:41:31.271Z</time>
      </trkpt>
      <trkpt lat="43.69593" lon="4.99816">
        <ele>123.51</ele>
        <time>2026-04-16T17:41:37.247Z</time>
      </trkpt>
      <trkpt lat="43.69588" lon="4.99821">
        <ele>123.23</ele>
        <time>2026-04-16T17:41:43.223Z</time>
      </trkpt>
      <trkpt lat="43.69586" lon="4.99831">
        <ele>123.12</ele>
        <time>2026-04-16T17:41:49.051Z</time>
      </trkpt>
      <trkpt lat="43.69583" lon="4.99838">
        <ele>122.79</ele>
        <time>2026-04-16T17:41:54.214Z</time>
      </trkpt>
      <trkpt lat="43.69581" lon="4.99846">
        <ele>122.74</ele>
        <time>2026-04-16T17:41:59.229Z</time>
      </trkpt>
      <trkpt lat="43.69578" lon="4.99854">
        <ele>122.58</ele>
        <time>2026-04-16T17:42:05.295Z</time>
      </trkpt>
      <trkpt lat="43.69576" lon="4.99861">
        <ele>122.26</ele>
        <time>2026-04-16T17:42:10.431Z</time>
      </trkpt>
      <trkpt lat="43.69574" lon="4.99868">
        <ele>122.05</ele>
        <time>2026-04-16T17:42:15.987Z</time>
      </trkpt>
      <trkpt lat="43.69572" lon="4.99874">
        <ele>121.67</ele>
        <time>2026-04-16T17:42:21.302Z</time>
      </trkpt>
      <trkpt lat="43.69567" lon="4.9988">
        <ele>121.37</ele>
        <time>2026-04-16T17:42:27.003Z</time>
      </trkpt>
      <trkpt lat="43.69562" lon="4.99884">
        <ele>121.29</ele>
        <time>2026-04-16T17:42:32.747Z</time>
      </trkpt>
      <trkpt lat="43.69559" lon="4.99888">
        <ele>121.13</ele>
        <time>2026-04-16T17:42:37.891Z</time>
      </trkpt>
      <trkpt lat="43.69555" lon="4.99892">
        <ele>120.88</ele>
        <time>2026-04-16T17:42:43.203Z</time>
      </trkpt>
      <trkpt lat="43.69548" lon="4.99896">
        <ele>120.52</ele>
        <time>2026-04-16T17:42:49.208Z</time>
      </trkpt>
      <trkpt lat="43.69543" lon="4.99904">
        <ele>119.85</ele>
        <time>2026-04-16T17:42:55.070Z</time>
      </trkpt>
      <trkpt lat="43.6954" lon="4.9991">
        <ele>119.99</ele>
        <time>2026-04-16T17:43:01.024Z</time>
      </trkpt>
      <trkpt lat="43.69537" lon="4.99917">
        <ele>119.93</ele>
        <time>2026-04-16T17:43:06.070Z</time>
      </trkpt>
      <trkpt lat="43.69535" lon="4.99925">
        <ele>119.36</ele>
        <time>2026-04-16T17:43:11.257Z</time>
      </trkpt>
      <trkpt lat="43.69533" lon="4.99933">
        <ele>119.33</ele>
        <time>2026-04-16T17:43:16.508Z</time>
      </trkpt>
      <trkpt lat="43.69531" lon="4.99941">
        <ele>119.16</ele>
        <time>2026-04-16T17:43:22.108Z</time>
      </trkpt>
      <trkpt lat="43.6953" lon="4.99951">
        <ele>118.84</ele>
        <time>2026-04-16T17:43:27.907Z</time>
      </trkpt>
      <trkpt lat="43.6953" lon="4.99957">
        <ele>118.51</ele>
        <time>2026-04-16T17:43:33.239Z</time>
      </trkpt>
      <trkpt lat="43.6953" lon="4.99963">
        <ele>118.26</ele>
        <time>2026-04-16T17:43:38.951Z</time>
      </trkpt>
      <trkpt lat="43.69526" lon="4.99968">
        <ele>118.08</ele>
        <time>2026-04-16T17:43:44.225Z</time>
      </trkpt>
      <trkpt lat="43.69522" lon="4.99972">
        <ele>117.32</ele>
        <time>2026-04-16T17:43:49.254Z</time>
      </trkpt>
      <trkpt lat="43.69519" lon="4.99981">
        <ele>116.68</ele>
        <time>2026-04-16T17:43:54.932Z</time>
      </trkpt>
      <trkpt lat="43.69516" lon="4.99989">
        <ele>117.63</ele>
        <time>2026-04-16T17:44:00.121Z</time>
      </trkpt>
      <trkpt lat="43.69514" lon="4.99996">
        <ele>118</ele>
        <time>2026-04-16T17:44:05.505Z</time>
      </trkpt>
      <trkpt lat="43.69511" lon="5.00002">
        <ele>116.8</ele>
        <time>2026-04-16T17:44:10.705Z</time>
      </trkpt>
      <trkpt lat="43.6951" lon="5.00009">
        <ele>116.2</ele>
        <time>2026-04-16T17:44:16.023Z</time>
      </trkpt>
      <trkpt lat="43.6951" lon="5.00015">
        <ele>116.08</ele>
        <time>2026-04-16T17:44:21.203Z</time>
      </trkpt>
      <trkpt lat="43.69508" lon="5.00021">
        <ele>116.5</ele>
        <time>2026-04-16T17:44:26.495Z</time>
      </trkpt>
      <trkpt lat="43.69509" lon="5.00028">
        <ele>116.7</ele>
        <time>2026-04-16T17:44:31.648Z</time>
      </trkpt>
      <trkpt lat="43.6951" lon="5.00035">
        <ele>116.08</ele>
        <time>2026-04-16T17:44:36.867Z</time>
      </trkpt>
      <trkpt lat="43.69508" lon="5.00044">
        <ele>115.59</ele>
        <time>2026-04-16T17:44:42.279Z</time>
      </trkpt>
      <trkpt lat="43.69505" lon="5.00055">
        <ele>114.85</ele>
        <time>2026-04-16T17:44:48.255Z</time>
      </trkpt>
      <trkpt lat="43.69503" lon="5.00062">
        <ele>114.8</ele>
        <time>2026-04-16T17:44:54.231Z</time>
      </trkpt>
      <trkpt lat="43.69499" lon="5.0007">
        <ele>114.76</ele>
        <time>2026-04-16T17:45:00.289Z</time>
      </trkpt>
      <trkpt lat="43.69496" lon="5.00077">
        <ele>114.12</ele>
        <time>2026-04-16T17:45:06.230Z</time>
      </trkpt>
      <trkpt lat="43.69491" lon="5.00084">
        <ele>113.92</ele>
        <time>2026-04-16T17:45:12.047Z</time>
      </trkpt>
      <trkpt lat="43.69488" lon="5.0009">
        <ele>113.66</ele>
        <time>2026-04-16T17:45:17.280Z</time>
      </trkpt>
      <trkpt lat="43.69485" lon="5.00097">
        <ele>113.44</ele>
        <time>2026-04-16T17:45:22.663Z</time>
      </trkpt>
      <trkpt lat="43.69483" lon="5.00103">
        <ele>113.71</ele>
        <time>2026-04-16T17:45:27.705Z</time>
      </trkpt>
      <trkpt lat="43.69479" lon="5.0011">
        <ele>113.37</ele>
        <time>2026-04-16T17:45:33.212Z</time>
      </trkpt>
      <trkpt lat="43.69475" lon="5.00117">
        <ele>113.08</ele>
        <time>2026-04-16T17:45:39.107Z</time>
      </trkpt>
      <trkpt lat="43.69471" lon="5.00124">
        <ele>112.66</ele>
        <time>2026-04-16T17:45:44.203Z</time>
      </trkpt>
      <trkpt lat="43.69468" lon="5.00131">
        <ele>112.49</ele>
        <time>2026-04-16T17:45:49.203Z</time>
      </trkpt>
      <trkpt lat="43.69466" lon="5.00138">
        <ele>112.46</ele>
        <time>2026-04-16T17:45:54.233Z</time>
      </trkpt>
      <trkpt lat="43.69464" lon="5.00145">
        <ele>112.56</ele>
        <time>2026-04-16T17:45:59.425Z</time>
      </trkpt>
      <trkpt lat="43.69461" lon="5.00152">
        <ele>112.32</ele>
        <time>2026-04-16T17:46:04.883Z</time>
      </trkpt>
      <trkpt lat="43.6946" lon="5.00161">
        <ele>111.99</ele>
        <time>2026-04-16T17:46:10.632Z</time>
      </trkpt>
      <trkpt lat="43.69459" lon="5.00169">
        <ele>111.85</ele>
        <time>2026-04-16T17:46:15.751Z</time>
      </trkpt>
      <trkpt lat="43.69456" lon="5.00176">
        <ele>112.35</ele>
        <time>2026-04-16T17:46:21.150Z</time>
      </trkpt>
      <trkpt lat="43.6945" lon="5.00181">
        <ele>112.59</ele>
        <time>2026-04-16T17:46:27.173Z</time>
      </trkpt>
      <trkpt lat="43.69445" lon="5.00186">
        <ele>112.36</ele>
        <time>2026-04-16T17:46:33.176Z</time>
      </trkpt>
      <trkpt lat="43.69442" lon="5.00193">
        <ele>112.1</ele>
        <time>2026-04-16T17:46:39.207Z</time>
      </trkpt>
      <trkpt lat="43.69438" lon="5.002">
        <ele>111.88</ele>
        <time>2026-04-16T17:46:45.212Z</time>
      </trkpt>
      <trkpt lat="43.69437" lon="5.00208">
        <ele>112.27</ele>
        <time>2026-04-16T17:46:50.286Z</time>
      </trkpt>
      <trkpt lat="43.69434" lon="5.00216">
        <ele>112.36</ele>
        <time>2026-04-16T17:46:55.569Z</time>
      </trkpt>
      <trkpt lat="43.69432" lon="5.00223">
        <ele>112.27</ele>
        <time>2026-04-16T17:47:01.212Z</time>
      </trkpt>
      <trkpt lat="43.69431" lon="5.00229">
        <ele>111.88</ele>
        <time>2026-04-16T17:47:06.768Z</time>
      </trkpt>
      <trkpt lat="43.6943" lon="5.00237">
        <ele>111.72</ele>
        <time>2026-04-16T17:47:12.203Z</time>
      </trkpt>
      <trkpt lat="43.69428" lon="5.00244">
        <ele>111.93</ele>
        <time>2026-04-16T17:47:17.872Z</time>
      </trkpt>
      <trkpt lat="43.69426" lon="5.00252">
        <ele>111.99</ele>
        <time>2026-04-16T17:47:23.946Z</time>
      </trkpt>
      <trkpt lat="43.69424" lon="5.00259">
        <ele>111.83</ele>
        <time>2026-04-16T17:47:29.155Z</time>
      </trkpt>
      <trkpt lat="43.69423" lon="5.00265">
        <ele>111.61</ele>
        <time>2026-04-16T17:47:34.202Z</time>
      </trkpt>
      <trkpt lat="43.6942" lon="5.00271">
        <ele>111.26</ele>
        <time>2026-04-16T17:47:39.219Z</time>
      </trkpt>
      <trkpt lat="43.69419" lon="5.00277">
        <ele>111.18</ele>
        <time>2026-04-16T17:47:44.711Z</time>
      </trkpt>
      <trkpt lat="43.69417" lon="5.00283">
        <ele>111.2</ele>
        <time>2026-04-16T17:47:49.789Z</time>
      </trkpt>
      <trkpt lat="43.69415" lon="5.00291">
        <ele>111.58</ele>
        <time>2026-04-16T17:47:54.944Z</time>
      </trkpt>
      <trkpt lat="43.69413" lon="5.003">
        <ele>111.56</ele>
        <time>2026-04-16T17:48:00.626Z</time>
      </trkpt>
      <trkpt lat="43.69411" lon="5.00306">
        <ele>111.44</ele>
        <time>2026-04-16T17:48:06.149Z</time>
      </trkpt>
      <trkpt lat="43.69408" lon="5.00313">
        <ele>111.21</ele>
        <time>2026-04-16T17:48:11.704Z</time>
      </trkpt>
      <trkpt lat="43.69405" lon="5.0032">
        <ele>111.39</ele>
        <time>2026-04-16T17:48:16.952Z</time>
      </trkpt>
      <trkpt lat="43.69403" lon="5.00329">
        <ele>111.88</ele>
        <time>2026-04-16T17:48:22.689Z</time>
      </trkpt>
      <trkpt lat="43.69404" lon="5.00338">
        <ele>111.49</ele>
        <time>2026-04-16T17:48:27.988Z</time>
      </trkpt>
      <trkpt lat="43.69404" lon="5.00346">
        <ele>111.34</ele>
        <time>2026-04-16T17:48:33.212Z</time>
      </trkpt>
      <trkpt lat="43.69403" lon="5.00352">
        <ele>111.55</ele>
        <time>2026-04-16T17:48:38.227Z</time>
      </trkpt>
      <trkpt lat="43.69403" lon="5.00359">
        <ele>111.67</ele>
        <time>2026-04-16T17:48:43.290Z</time>
      </trkpt>
      <trkpt lat="43.69404" lon="5.00366">
        <ele>111.99</ele>
        <time>2026-04-16T17:48:48.991Z</time>
      </trkpt>
      <trkpt lat="43.69403" lon="5.00375">
        <ele>112.07</ele>
        <time>2026-04-16T17:48:54.325Z</time>
      </trkpt>
      <trkpt lat="43.69402" lon="5.00384">
        <ele>112.02</ele>
        <time>2026-04-16T17:48:59.848Z</time>
      </trkpt>
      <trkpt lat="43.694" lon="5.00392">
        <ele>112.01</ele>
        <time>2026-04-16T17:49:05.224Z</time>
      </trkpt>
      <trkpt lat="43.69398" lon="5.00399">
        <ele>111.83</ele>
        <time>2026-04-16T17:49:10.671Z</time>
      </trkpt>
      <trkpt lat="43.69396" lon="5.00407">
        <ele>111.84</ele>
        <time>2026-04-16T17:49:16.215Z</time>
      </trkpt>
      <trkpt lat="43.69395" lon="5.00413">
        <ele>112.51</ele>
        <time>2026-04-16T17:49:21.229Z</time>
      </trkpt>
      <trkpt lat="43.69393" lon="5.00424">
        <ele>112.22</ele>
        <time>2026-04-16T17:49:27.206Z</time>
      </trkpt>
      <trkpt lat="43.69392" lon="5.00432">
        <ele>111.85</ele>
        <time>2026-04-16T17:49:32.221Z</time>
      </trkpt>
      <trkpt lat="43.69389" lon="5.00438">
        <ele>111.83</ele>
        <time>2026-04-16T17:49:38.289Z</time>
      </trkpt>
      <trkpt lat="43.69386" lon="5.00444">
        <ele>112.02</ele>
        <time>2026-04-16T17:49:44.105Z</time>
      </trkpt>
      <trkpt lat="43.69382" lon="5.00452">
        <ele>112.12</ele>
        <time>2026-04-16T17:49:50.305Z</time>
      </trkpt>
      <trkpt lat="43.6938" lon="5.00462">
        <ele>111.83</ele>
        <time>2026-04-16T17:49:56.205Z</time>
      </trkpt>
      <trkpt lat="43.69378" lon="5.0047">
        <ele>111.65</ele>
        <time>2026-04-16T17:50:02.162Z</time>
      </trkpt>
      <trkpt lat="43.69377" lon="5.00479">
        <ele>111.7</ele>
        <time>2026-04-16T17:50:08.150Z</time>
      </trkpt>
      <trkpt lat="43.69375" lon="5.00487">
        <ele>111.66</ele>
        <time>2026-04-16T17:50:14.090Z</time>
      </trkpt>
      <trkpt lat="43.69371" lon="5.00497">
        <ele>111.74</ele>
        <time>2026-04-16T17:50:20.191Z</time>
      </trkpt>
      <trkpt lat="43.69368" lon="5.00504">
        <ele>111.45</ele>
        <time>2026-04-16T17:50:25.603Z</time>
      </trkpt>
      <trkpt lat="43.69365" lon="5.0051">
        <ele>111.47</ele>
        <time>2026-04-16T17:50:30.726Z</time>
      </trkpt>
      <trkpt lat="43.69362" lon="5.00515">
        <ele>111.06</ele>
        <time>2026-04-16T17:50:36.243Z</time>
      </trkpt>
      <trkpt lat="43.6936" lon="5.0052">
        <ele>111.07</ele>
        <time>2026-04-16T17:50:41.259Z</time>
      </trkpt>
      <trkpt lat="43.69357" lon="5.00526">
        <ele>110.86</ele>
        <time>2026-04-16T17:50:46.275Z</time>
      </trkpt>
      <trkpt lat="43.69354" lon="5.00532">
        <ele>110.47</ele>
        <time>2026-04-16T17:50:51.848Z</time>
      </trkpt>
      <trkpt lat="43.69352" lon="5.00537">
        <ele>110.34</ele>
        <time>2026-04-16T17:50:57.669Z</time>
      </trkpt>
      <trkpt lat="43.6935" lon="5.00545">
        <ele>110.61</ele>
        <time>2026-04-16T17:51:02.969Z</time>
      </trkpt>
      <trkpt lat="43.69349" lon="5.00554">
        <ele>110.23</ele>
        <time>2026-04-16T17:51:08.256Z</time>
      </trkpt>
      <trkpt lat="43.69348" lon="5.00561">
        <ele>110.1</ele>
        <time>2026-04-16T17:51:13.271Z</time>
      </trkpt>
      <trkpt lat="43.69347" lon="5.00569">
        <ele>110.13</ele>
        <time>2026-04-16T17:51:18.771Z</time>
      </trkpt>
      <trkpt lat="43.69344" lon="5.00576">
        <ele>110.04</ele>
        <time>2026-04-16T17:51:24.261Z</time>
      </trkpt>
      <trkpt lat="43.69342" lon="5.00584">
        <ele>110.16</ele>
        <time>2026-04-16T17:51:29.293Z</time>
      </trkpt>
      <trkpt lat="43.69341" lon="5.00593">
        <ele>110.35</ele>
        <time>2026-04-16T17:51:35.253Z</time>
      </trkpt>
      <trkpt lat="43.69339" lon="5.006">
        <ele>110.05</ele>
        <time>2026-04-16T17:51:41.228Z</time>
      </trkpt>
      <trkpt lat="43.69338" lon="5.00607">
        <ele>109.99</ele>
        <time>2026-04-16T17:51:47.203Z</time>
      </trkpt>
      <trkpt lat="43.69336" lon="5.00614">
        <ele>109.86</ele>
        <time>2026-04-16T17:51:52.219Z</time>
      </trkpt>
      <trkpt lat="43.69334" lon="5.00624">
        <ele>109.63</ele>
        <time>2026-04-16T17:51:58.187Z</time>
      </trkpt>
      <trkpt lat="43.69333" lon="5.00631">
        <ele>109.63</ele>
        <time>2026-04-16T17:52:03.209Z</time>
      </trkpt>
      <trkpt lat="43.69332" lon="5.00638">
        <ele>109.73</ele>
        <time>2026-04-16T17:52:08.224Z</time>
      </trkpt>
      <trkpt lat="43.6933" lon="5.00644">
        <ele>109.52</ele>
        <time>2026-04-16T17:52:14.202Z</time>
      </trkpt>
      <trkpt lat="43.69326" lon="5.00651">
        <ele>109.34</ele>
        <time>2026-04-16T17:52:20.203Z</time>
      </trkpt>
      <trkpt lat="43.69325" lon="5.0066">
        <ele>109.31</ele>
        <time>2026-04-16T17:52:25.308Z</time>
      </trkpt>
      <trkpt lat="43.69324" lon="5.00667">
        <ele>109.49</ele>
        <time>2026-04-16T17:52:30.706Z</time>
      </trkpt>
      <trkpt lat="43.6932" lon="5.00674">
        <ele>109.39</ele>
        <time>2026-04-16T17:52:36.264Z</time>
      </trkpt>
      <trkpt lat="43.69317" lon="5.00681">
        <ele>109.09</ele>
        <time>2026-04-16T17:52:42.263Z</time>
      </trkpt>
      <trkpt lat="43.69315" lon="5.00689">
        <ele>108.91</ele>
        <time>2026-04-16T17:52:47.611Z</time>
      </trkpt>
      <trkpt lat="43.69313" lon="5.00697">
        <ele>108.67</ele>
        <time>2026-04-16T17:52:53.268Z</time>
      </trkpt>
      <trkpt lat="43.69311" lon="5.00706">
        <ele>108.65</ele>
        <time>2026-04-16T17:52:58.709Z</time>
      </trkpt>
      <trkpt lat="43.69308" lon="5.00713">
        <ele>108.86</ele>
        <time>2026-04-16T17:53:04.244Z</time>
      </trkpt>
      <trkpt lat="43.69306" lon="5.00719">
        <ele>108.73</ele>
        <time>2026-04-16T17:53:09.787Z</time>
      </trkpt>
      <trkpt lat="43.69304" lon="5.00727">
        <ele>108.11</ele>
        <time>2026-04-16T17:53:15.227Z</time>
      </trkpt>
      <trkpt lat="43.69303" lon="5.00734">
        <ele>107.92</ele>
        <time>2026-04-16T17:53:20.708Z</time>
      </trkpt>
      <trkpt lat="43.69302" lon="5.00741">
        <ele>107.97</ele>
        <time>2026-04-16T17:53:25.910Z</time>
      </trkpt>
      <trkpt lat="43.693" lon="5.00747">
        <ele>107.73</ele>
        <time>2026-04-16T17:53:31.240Z</time>
      </trkpt>
      <trkpt lat="43.69299" lon="5.00753">
        <ele>107.77</ele>
        <time>2026-04-16T17:53:36.256Z</time>
      </trkpt>
      <trkpt lat="43.69296" lon="5.0076">
        <ele>107.33</ele>
        <time>2026-04-16T17:53:41.710Z</time>
      </trkpt>
      <trkpt lat="43.69293" lon="5.00768">
        <ele>107.11</ele>
        <time>2026-04-16T17:53:47.247Z</time>
      </trkpt>
      <trkpt lat="43.69289" lon="5.00778">
        <ele>107.03</ele>
        <time>2026-04-16T17:53:53.259Z</time>
      </trkpt>
      <trkpt lat="43.69287" lon="5.00785">
        <ele>106.73</ele>
        <time>2026-04-16T17:53:59.129Z</time>
      </trkpt>
      <trkpt lat="43.69284" lon="5.00792">
        <ele>106.41</ele>
        <time>2026-04-16T17:54:05.148Z</time>
      </trkpt>
      <trkpt lat="43.6928" lon="5.00797">
        <ele>105.85</ele>
        <time>2026-04-16T17:54:10.467Z</time>
      </trkpt>
      <trkpt lat="43.69277" lon="5.00803">
        <ele>105.55</ele>
        <time>2026-04-16T17:54:15.811Z</time>
      </trkpt>
      <trkpt lat="43.69276" lon="5.00811">
        <ele>105.57</ele>
        <time>2026-04-16T17:54:21.131Z</time>
      </trkpt>
      <trkpt lat="43.69276" lon="5.00821">
        <ele>105.75</ele>
        <time>2026-04-16T17:54:26.704Z</time>
      </trkpt>
      <trkpt lat="43.69276" lon="5.00829">
        <ele>105.56</ele>
        <time>2026-04-16T17:54:31.789Z</time>
      </trkpt>
      <trkpt lat="43.69276" lon="5.00837">
        <ele>105.11</ele>
        <time>2026-04-16T17:54:37.290Z</time>
      </trkpt>
      <trkpt lat="43.69275" lon="5.00847">
        <ele>104.84</ele>
        <time>2026-04-16T17:54:43.267Z</time>
      </trkpt>
      <trkpt lat="43.69275" lon="5.00855">
        <ele>104.75</ele>
        <time>2026-04-16T17:54:49.203Z</time>
      </trkpt>
      <trkpt lat="43.69274" lon="5.00864">
        <ele>104.45</ele>
        <time>2026-04-16T17:54:55.104Z</time>
      </trkpt>
      <trkpt lat="43.69274" lon="5.00872">
        <ele>104.16</ele>
        <time>2026-04-16T17:55:00.930Z</time>
      </trkpt>
      <trkpt lat="43.69274" lon="5.0088">
        <ele>104.14</ele>
        <time>2026-04-16T17:55:06.129Z</time>
      </trkpt>
      <trkpt lat="43.69274" lon="5.00887">
        <ele>103.39</ele>
        <time>2026-04-16T17:55:11.223Z</time>
      </trkpt>
      <trkpt lat="43.69273" lon="5.00896">
        <ele>103.18</ele>
        <time>2026-04-16T17:55:16.238Z</time>
      </trkpt>
      <trkpt lat="43.69272" lon="5.00905">
        <ele>102.77</ele>
        <time>2026-04-16T17:55:22.214Z</time>
      </trkpt>
      <trkpt lat="43.69272" lon="5.00914">
        <ele>102.84</ele>
        <time>2026-04-16T17:55:28.283Z</time>
      </trkpt>
      <trkpt lat="43.69272" lon="5.00922">
        <ele>102.6</ele>
        <time>2026-04-16T17:55:34.107Z</time>
      </trkpt>
      <trkpt lat="43.69271" lon="5.00929">
        <ele>101.78</ele>
        <time>2026-04-16T17:55:39.432Z</time>
      </trkpt>
      <trkpt lat="43.69271" lon="5.00938">
        <ele>101.67</ele>
        <time>2026-04-16T17:55:44.911Z</time>
      </trkpt>
      <trkpt lat="43.69271" lon="5.00945">
        <ele>101.17</ele>
        <time>2026-04-16T17:55:50.276Z</time>
      </trkpt>
      <trkpt lat="43.69271" lon="5.00953">
        <ele>101.42</ele>
        <time>2026-04-16T17:55:55.292Z</time>
      </trkpt>
      <trkpt lat="43.69271" lon="5.00962">
        <ele>100.92</ele>
        <time>2026-04-16T17:56:01.267Z</time>
      </trkpt>
      <trkpt lat="43.6927" lon="5.00969">
        <ele>100.31</ele>
        <time>2026-04-16T17:56:06.606Z</time>
      </trkpt>
      <trkpt lat="43.69269" lon="5.00977">
        <ele>100.34</ele>
        <time>2026-04-16T17:56:12.207Z</time>
      </trkpt>
      <trkpt lat="43.69269" lon="5.00986">
        <ele>100.26</ele>
        <time>2026-04-16T17:56:18.227Z</time>
      </trkpt>
      <trkpt lat="43.6927" lon="5.00995">
        <ele>100.45</ele>
        <time>2026-04-16T17:56:24.051Z</time>
      </trkpt>
      <trkpt lat="43.69272" lon="5.01003">
        <ele>99.84</ele>
        <time>2026-04-16T17:56:29.996Z</time>
      </trkpt>
      <trkpt lat="43.69272" lon="5.01012">
        <ele>99.59</ele>
        <time>2026-04-16T17:56:35.972Z</time>
      </trkpt>
      <trkpt lat="43.69272" lon="5.01021">
        <ele>99.45</ele>
        <time>2026-04-16T17:56:41.203Z</time>
      </trkpt>
      <trkpt lat="43.69271" lon="5.01028">
        <ele>99.22</ele>
        <time>2026-04-16T17:56:46.296Z</time>
      </trkpt>
      <trkpt lat="43.69269" lon="5.01037">
        <ele>99.51</ele>
        <time>2026-04-16T17:56:51.786Z</time>
      </trkpt>
      <trkpt lat="43.69269" lon="5.01045">
        <ele>98.97</ele>
        <time>2026-04-16T17:56:57.301Z</time>
      </trkpt>
      <trkpt lat="43.69269" lon="5.01054">
        <ele>99.13</ele>
        <time>2026-04-16T17:57:03.257Z</time>
      </trkpt>
      <trkpt lat="43.69268" lon="5.01061">
        <ele>99.13</ele>
        <time>2026-04-16T17:57:08.277Z</time>
      </trkpt>
      <trkpt lat="43.69268" lon="5.01068">
        <ele>99.09</ele>
        <time>2026-04-16T17:57:13.687Z</time>
      </trkpt>
      <trkpt lat="43.69268" lon="5.01075">
        <ele>98.76</ele>
        <time>2026-04-16T17:57:18.952Z</time>
      </trkpt>
      <trkpt lat="43.69268" lon="5.01082">
        <ele>98.61</ele>
        <time>2026-04-16T17:57:24.063Z</time>
      </trkpt>
      <trkpt lat="43.69268" lon="5.01086">
        <ele>98.36</ele>
        <time>2026-04-16T17:57:29.202Z</time>
      </trkpt>
      <trkpt lat="43.69268" lon="5.0109">
        <ele>98.1</ele>
        <time>2026-04-16T17:57:35.272Z</time>
      </trkpt>
      <trkpt lat="43.69267" lon="5.01092">
        <ele>97.96</ele>
        <time>2026-04-16T17:57:40.287Z</time>
      </trkpt>
      <trkpt lat="43.69269" lon="5.01098">
        <ele>98.24</ele>
        <time>2026-04-16T17:57:45.787Z</time>
      </trkpt>
      <trkpt lat="43.69269" lon="5.01107">
        <ele>98.61</ele>
        <time>2026-04-16T17:57:51.165Z</time>
      </trkpt>
      <trkpt lat="43.69269" lon="5.01116">
        <ele>98.2</ele>
        <time>2026-04-16T17:57:56.293Z</time>
      </trkpt>
      <trkpt lat="43.69268" lon="5.01123">
        <ele>98.1</ele>
        <time>2026-04-16T17:58:01.925Z</time>
      </trkpt>
      <trkpt lat="43.69266" lon="5.01131">
        <ele>98.39</ele>
        <time>2026-04-16T17:58:07.285Z</time>
      </trkpt>
      <trkpt lat="43.69266" lon="5.01138">
        <ele>98.42</ele>
        <time>2026-04-16T17:58:12.650Z</time>
      </trkpt>
      <trkpt lat="43.69267" lon="5.01145">
        <ele>98.08</ele>
        <time>2026-04-16T17:58:17.823Z</time>
      </trkpt>
      <trkpt lat="43.69269" lon="5.01151">
        <ele>97.81</ele>
        <time>2026-04-16T17:58:23.045Z</time>
      </trkpt>
      <trkpt lat="43.69272" lon="5.01155">
        <ele>97.58</ele>
        <time>2026-04-16T17:58:28.203Z</time>
      </trkpt>
      <trkpt lat="43.69274" lon="5.01164">
        <ele>97.59</ele>
        <time>2026-04-16T17:58:34.007Z</time>
      </trkpt>
      <trkpt lat="43.69275" lon="5.01173">
        <ele>97.9</ele>
        <time>2026-04-16T17:58:40.230Z</time>
      </trkpt>
      <trkpt lat="43.69277" lon="5.01179">
        <ele>98.15</ele>
        <time>2026-04-16T17:58:45.269Z</time>
      </trkpt>
      <trkpt lat="43.69278" lon="5.01185">
        <ele>97.88</ele>
        <time>2026-04-16T17:58:51.044Z</time>
      </trkpt>
      <trkpt lat="43.69281" lon="5.01189">
        <ele>97.72</ele>
        <time>2026-04-16T17:58:56.823Z</time>
      </trkpt>
      <trkpt lat="43.69283" lon="5.01196">
        <ele>97.56</ele>
        <time>2026-04-16T17:59:02.326Z</time>
      </trkpt>
      <trkpt lat="43.69285" lon="5.01203">
        <ele>97.78</ele>
        <time>2026-04-16T17:59:08.026Z</time>
      </trkpt>
      <trkpt lat="43.69286" lon="5.01208">
        <ele>98.39</ele>
        <time>2026-04-16T17:59:13.053Z</time>
      </trkpt>
      <trkpt lat="43.69288" lon="5.01217">
        <ele>98.27</ele>
        <time>2026-04-16T17:59:18.786Z</time>
      </trkpt>
      <trkpt lat="43.69291" lon="5.01224">
        <ele>97.97</ele>
        <time>2026-04-16T17:59:23.991Z</time>
      </trkpt>
      <trkpt lat="43.69293" lon="5.0123">
        <ele>98.16</ele>
        <time>2026-04-16T17:59:29.150Z</time>
      </trkpt>
      <trkpt lat="43.69295" lon="5.01238">
        <ele>98.45</ele>
        <time>2026-04-16T17:59:35.211Z</time>
      </trkpt>
      <trkpt lat="43.69295" lon="5.01244">
        <ele>98.77</ele>
        <time>2026-04-16T17:59:40.220Z</time>
      </trkpt>
      <trkpt lat="43.69296" lon="5.01253">
        <ele>98.57</ele>
        <time>2026-04-16T17:59:45.729Z</time>
      </trkpt>
      <trkpt lat="43.69296" lon="5.01261">
        <ele>98.6</ele>
        <time>2026-04-16T17:59:51.171Z</time>
      </trkpt>
      <trkpt lat="43.69298" lon="5.01267">
        <ele>98.92</ele>
        <time>2026-04-16T17:59:56.202Z</time>
      </trkpt>
      <trkpt lat="43.693" lon="5.01275">
        <ele>99.16</ele>
        <time>2026-04-16T18:00:01.242Z</time>
      </trkpt>
      <trkpt lat="43.69301" lon="5.01282">
        <ele>99.54</ele>
        <time>2026-04-16T18:00:06.257Z</time>
      </trkpt>
      <trkpt lat="43.69302" lon="5.01288">
        <ele>99.76</ele>
        <time>2026-04-16T18:00:11.471Z</time>
      </trkpt>
      <trkpt lat="43.69303" lon="5.01295">
        <ele>100.03</ele>
        <time>2026-04-16T18:00:16.644Z</time>
      </trkpt>
      <trkpt lat="43.69305" lon="5.01302">
        <ele>100.17</ele>
        <time>2026-04-16T18:00:21.706Z</time>
      </trkpt>
      <trkpt lat="43.69309" lon="5.01308">
        <ele>100.72</ele>
        <time>2026-04-16T18:00:27.276Z</time>
      </trkpt>
      <trkpt lat="43.69314" lon="5.0131">
        <ele>101.7</ele>
        <time>2026-04-16T18:00:33.251Z</time>
      </trkpt>
      <trkpt lat="43.69319" lon="5.01308">
        <ele>102.01</ele>
        <time>2026-04-16T18:00:38.266Z</time>
      </trkpt>
      <trkpt lat="43.69323" lon="5.01299">
        <ele>101.82</ele>
        <time>2026-04-16T18:00:43.970Z</time>
      </trkpt>
      <trkpt lat="43.69328" lon="5.01295">
        <ele>101.83</ele>
        <time>2026-04-16T18:00:49.305Z</time>
      </trkpt>
      <trkpt lat="43.69333" lon="5.01295">
        <ele>101.81</ele>
        <time>2026-04-16T18:00:54.847Z</time>
      </trkpt>
      <trkpt lat="43.69337" lon="5.01295">
        <ele>101.86</ele>
        <time>2026-04-16T18:01:00.319Z</time>
      </trkpt>
      <trkpt lat="43.69338" lon="5.01294">
        <ele>102.02</ele>
        <time>2026-04-16T18:01:20.203Z</time>
      </trkpt>
      <trkpt lat="43.69339" lon="5.01294">
        <ele>101.91</ele>
        <time>2026-04-16T18:02:24.127Z</time>
      </trkpt>
      <trkpt lat="43.69339" lon="5.01295">
        <ele>101.94</ele>
        <time>2026-04-16T18:04:09.565Z</time>
      </trkpt>
      <trkpt lat="43.69339" lon="5.01296">
        <ele>103.24</ele>
        <time>2026-04-16T18:04:28.950Z</time>
      </trkpt>
      <trkpt lat="43.69338" lon="5.01296">
        <ele>101.85</ele>
        <time>2026-04-16T18:05:17.292Z</time>
      </trkpt>
      <trkpt lat="43.69337" lon="5.01297">
        <ele>101.66</ele>
        <time>2026-04-16T18:05:31.271Z</time>
      </trkpt>
      <trkpt lat="43.69338" lon="5.01296">
        <ele>102.07</ele>
        <time>2026-04-16T18:06:09.257Z</time>
      </trkpt>
      <trkpt lat="43.69338" lon="5.01295">
        <ele>102.48</ele>
        <time>2026-04-16T18:06:53.219Z</time>
      </trkpt>
    </trkseg>
  </trk>
</gpx>